<?xml version="1.0" encoding="UTF-8" standalone="no" ?>
<gpx xmlns="http://www.topografix.com/GPX/1/1" xmlns:xsi="http://www.w3.org/2001/XMLSchema-instance" xsi:schemaLocation="http://www.topografix.com/GPX/1/1 http://www.topografix.com/GPX/1/1/gpx.xsd" version="1.1" creator="VisuGPX - https://www.visugpx.com">
  <metadata>
    <name>Le grand huit Veygoux</name>
    <desc><![CDATA[Le grand huit veygoux]]></desc>
  </metadata>
  <trk>
    <name><![CDATA[23 juil. 2024 10:21:46]]></name>
    <desc><![CDATA[Le grand huit veygoux]]></desc>
    <trkseg>
      <trkpt lat="45.90241" lon="2.98591">
        <ele>763.5</ele>
        <time>2024-07-23T08:21:48Z</time>
      </trkpt>
      <trkpt lat="45.90241" lon="2.98592">
        <ele>762.3</ele>
        <time>2024-07-23T08:22:05Z</time>
      </trkpt>
      <trkpt lat="45.90242" lon="2.98592">
        <ele>761.6</ele>
        <time>2024-07-23T08:22:26Z</time>
      </trkpt>
      <trkpt lat="45.90242" lon="2.98594">
        <ele>760.5</ele>
        <time>2024-07-23T08:22:31Z</time>
      </trkpt>
      <trkpt lat="45.90243" lon="2.98594">
        <ele>759.8</ele>
        <time>2024-07-23T08:22:37Z</time>
      </trkpt>
      <trkpt lat="45.90243" lon="2.98593">
        <ele>759.2</ele>
        <time>2024-07-23T08:22:42Z</time>
      </trkpt>
      <trkpt lat="45.90244" lon="2.98594">
        <ele>759.8</ele>
        <time>2024-07-23T08:23:55Z</time>
      </trkpt>
      <trkpt lat="45.90244" lon="2.98595">
        <ele>761.3</ele>
        <time>2024-07-23T08:23:59Z</time>
      </trkpt>
      <trkpt lat="45.90244" lon="2.98598">
        <ele>760.7</ele>
        <time>2024-07-23T08:24:01Z</time>
      </trkpt>
      <trkpt lat="45.90245" lon="2.98599">
        <ele>760.9</ele>
        <time>2024-07-23T08:24:02Z</time>
      </trkpt>
      <trkpt lat="45.90245" lon="2.98602">
        <ele>761</ele>
        <time>2024-07-23T08:24:04Z</time>
      </trkpt>
      <trkpt lat="45.90244" lon="2.98604">
        <ele>761.2</ele>
        <time>2024-07-23T08:24:06Z</time>
      </trkpt>
      <trkpt lat="45.90243" lon="2.98606">
        <ele>761.4</ele>
        <time>2024-07-23T08:24:08Z</time>
      </trkpt>
      <trkpt lat="45.90243" lon="2.98607">
        <ele>761.5</ele>
        <time>2024-07-23T08:24:09Z</time>
      </trkpt>
      <trkpt lat="45.90242" lon="2.98608">
        <ele>761.4</ele>
        <time>2024-07-23T08:24:10Z</time>
      </trkpt>
      <trkpt lat="45.90242" lon="2.98609">
        <ele>761.7</ele>
        <time>2024-07-23T08:24:11Z</time>
      </trkpt>
      <trkpt lat="45.90241" lon="2.9861">
        <ele>761.8</ele>
        <time>2024-07-23T08:24:12Z</time>
      </trkpt>
      <trkpt lat="45.90241" lon="2.98612">
        <ele>761.6</ele>
        <time>2024-07-23T08:24:13Z</time>
      </trkpt>
      <trkpt lat="45.90241" lon="2.98613">
        <ele>761.3</ele>
        <time>2024-07-23T08:24:14Z</time>
      </trkpt>
      <trkpt lat="45.9024" lon="2.98614">
        <ele>761.7</ele>
        <time>2024-07-23T08:24:15Z</time>
      </trkpt>
      <trkpt lat="45.90239" lon="2.98615">
        <ele>761.7</ele>
        <time>2024-07-23T08:24:16Z</time>
      </trkpt>
      <trkpt lat="45.90239" lon="2.98616">
        <ele>761.8</ele>
        <time>2024-07-23T08:24:17Z</time>
      </trkpt>
      <trkpt lat="45.90238" lon="2.98617">
        <ele>762</ele>
        <time>2024-07-23T08:24:18Z</time>
      </trkpt>
      <trkpt lat="45.90237" lon="2.98618">
        <ele>761.9</ele>
        <time>2024-07-23T08:24:19Z</time>
      </trkpt>
      <trkpt lat="45.90236" lon="2.98619">
        <ele>762.1</ele>
        <time>2024-07-23T08:24:20Z</time>
      </trkpt>
      <trkpt lat="45.90235" lon="2.9862">
        <ele>762.4</ele>
        <time>2024-07-23T08:24:21Z</time>
      </trkpt>
      <trkpt lat="45.90235" lon="2.98621">
        <ele>762.6</ele>
        <time>2024-07-23T08:24:22Z</time>
      </trkpt>
      <trkpt lat="45.90234" lon="2.98622">
        <ele>762.7</ele>
        <time>2024-07-23T08:24:23Z</time>
      </trkpt>
      <trkpt lat="45.90234" lon="2.98623">
        <ele>762.7</ele>
        <time>2024-07-23T08:24:24Z</time>
      </trkpt>
      <trkpt lat="45.90233" lon="2.98626">
        <ele>762.9</ele>
        <time>2024-07-23T08:24:26Z</time>
      </trkpt>
      <trkpt lat="45.90232" lon="2.98628">
        <ele>763.1</ele>
        <time>2024-07-23T08:24:28Z</time>
      </trkpt>
      <trkpt lat="45.90231" lon="2.9863">
        <ele>762.7</ele>
        <time>2024-07-23T08:24:30Z</time>
      </trkpt>
      <trkpt lat="45.90231" lon="2.98631">
        <ele>762.8</ele>
        <time>2024-07-23T08:24:31Z</time>
      </trkpt>
      <trkpt lat="45.90231" lon="2.98632">
        <ele>762.9</ele>
        <time>2024-07-23T08:24:32Z</time>
      </trkpt>
      <trkpt lat="45.9023" lon="2.98634">
        <ele>762.6</ele>
        <time>2024-07-23T08:24:33Z</time>
      </trkpt>
      <trkpt lat="45.9023" lon="2.98635">
        <ele>762.4</ele>
        <time>2024-07-23T08:24:34Z</time>
      </trkpt>
      <trkpt lat="45.9023" lon="2.98637">
        <ele>762.7</ele>
        <time>2024-07-23T08:24:35Z</time>
      </trkpt>
      <trkpt lat="45.9023" lon="2.98638">
        <ele>762.8</ele>
        <time>2024-07-23T08:24:36Z</time>
      </trkpt>
      <trkpt lat="45.9023" lon="2.9864">
        <ele>763.1</ele>
        <time>2024-07-23T08:24:37Z</time>
      </trkpt>
      <trkpt lat="45.90229" lon="2.98641">
        <ele>762.9</ele>
        <time>2024-07-23T08:24:38Z</time>
      </trkpt>
      <trkpt lat="45.90229" lon="2.98642">
        <ele>762.6</ele>
        <time>2024-07-23T08:24:39Z</time>
      </trkpt>
      <trkpt lat="45.90229" lon="2.98644">
        <ele>762.5</ele>
        <time>2024-07-23T08:24:40Z</time>
      </trkpt>
      <trkpt lat="45.90229" lon="2.98645">
        <ele>762.3</ele>
        <time>2024-07-23T08:24:41Z</time>
      </trkpt>
      <trkpt lat="45.90228" lon="2.98646">
        <ele>761.9</ele>
        <time>2024-07-23T08:24:42Z</time>
      </trkpt>
      <trkpt lat="45.90228" lon="2.98648">
        <ele>762.4</ele>
        <time>2024-07-23T08:24:43Z</time>
      </trkpt>
      <trkpt lat="45.90229" lon="2.9865">
        <ele>761.8</ele>
        <time>2024-07-23T08:24:45Z</time>
      </trkpt>
      <trkpt lat="45.90229" lon="2.98651">
        <ele>761.5</ele>
        <time>2024-07-23T08:24:46Z</time>
      </trkpt>
      <trkpt lat="45.9023" lon="2.98652">
        <ele>761.5</ele>
        <time>2024-07-23T08:24:47Z</time>
      </trkpt>
      <trkpt lat="45.9023" lon="2.98655">
        <ele>762.6</ele>
        <time>2024-07-23T08:24:49Z</time>
      </trkpt>
      <trkpt lat="45.9023" lon="2.98656">
        <ele>762.9</ele>
        <time>2024-07-23T08:24:50Z</time>
      </trkpt>
      <trkpt lat="45.90231" lon="2.98658">
        <ele>762.8</ele>
        <time>2024-07-23T08:24:51Z</time>
      </trkpt>
      <trkpt lat="45.90231" lon="2.9866">
        <ele>763.3</ele>
        <time>2024-07-23T08:24:53Z</time>
      </trkpt>
      <trkpt lat="45.90231" lon="2.98661">
        <ele>763.6</ele>
        <time>2024-07-23T08:24:54Z</time>
      </trkpt>
      <trkpt lat="45.90232" lon="2.98663">
        <ele>763.9</ele>
        <time>2024-07-23T08:24:55Z</time>
      </trkpt>
      <trkpt lat="45.90232" lon="2.98666">
        <ele>764.7</ele>
        <time>2024-07-23T08:24:57Z</time>
      </trkpt>
      <trkpt lat="45.90233" lon="2.98669">
        <ele>764</ele>
        <time>2024-07-23T08:24:59Z</time>
      </trkpt>
      <trkpt lat="45.90234" lon="2.9867">
        <ele>764</ele>
        <time>2024-07-23T08:25:00Z</time>
      </trkpt>
      <trkpt lat="45.90234" lon="2.98672">
        <ele>763.8</ele>
        <time>2024-07-23T08:25:01Z</time>
      </trkpt>
      <trkpt lat="45.90235" lon="2.98673">
        <ele>763.8</ele>
        <time>2024-07-23T08:25:02Z</time>
      </trkpt>
      <trkpt lat="45.90235" lon="2.98674">
        <ele>763.1</ele>
        <time>2024-07-23T08:25:03Z</time>
      </trkpt>
      <trkpt lat="45.90235" lon="2.98676">
        <ele>763.6</ele>
        <time>2024-07-23T08:25:04Z</time>
      </trkpt>
      <trkpt lat="45.90235" lon="2.98677">
        <ele>763.7</ele>
        <time>2024-07-23T08:25:05Z</time>
      </trkpt>
      <trkpt lat="45.90235" lon="2.98679">
        <ele>763.6</ele>
        <time>2024-07-23T08:25:06Z</time>
      </trkpt>
      <trkpt lat="45.90236" lon="2.9868">
        <ele>763.5</ele>
        <time>2024-07-23T08:25:07Z</time>
      </trkpt>
      <trkpt lat="45.90235" lon="2.98682">
        <ele>763.5</ele>
        <time>2024-07-23T08:25:08Z</time>
      </trkpt>
      <trkpt lat="45.90235" lon="2.98683">
        <ele>763.9</ele>
        <time>2024-07-23T08:25:09Z</time>
      </trkpt>
      <trkpt lat="45.90235" lon="2.98685">
        <ele>764.3</ele>
        <time>2024-07-23T08:25:10Z</time>
      </trkpt>
      <trkpt lat="45.90235" lon="2.98687">
        <ele>764.5</ele>
        <time>2024-07-23T08:25:11Z</time>
      </trkpt>
      <trkpt lat="45.90235" lon="2.98688">
        <ele>764.1</ele>
        <time>2024-07-23T08:25:12Z</time>
      </trkpt>
      <trkpt lat="45.90235" lon="2.9869">
        <ele>764.1</ele>
        <time>2024-07-23T08:25:13Z</time>
      </trkpt>
      <trkpt lat="45.90235" lon="2.98691">
        <ele>764.5</ele>
        <time>2024-07-23T08:25:14Z</time>
      </trkpt>
      <trkpt lat="45.90235" lon="2.98693">
        <ele>764.8</ele>
        <time>2024-07-23T08:25:15Z</time>
      </trkpt>
      <trkpt lat="45.90235" lon="2.98694">
        <ele>764.4</ele>
        <time>2024-07-23T08:25:16Z</time>
      </trkpt>
      <trkpt lat="45.90235" lon="2.98696">
        <ele>764.8</ele>
        <time>2024-07-23T08:25:17Z</time>
      </trkpt>
      <trkpt lat="45.90235" lon="2.98698">
        <ele>764.9</ele>
        <time>2024-07-23T08:25:18Z</time>
      </trkpt>
      <trkpt lat="45.90234" lon="2.98699">
        <ele>765.6</ele>
        <time>2024-07-23T08:25:19Z</time>
      </trkpt>
      <trkpt lat="45.90234" lon="2.98701">
        <ele>765.9</ele>
        <time>2024-07-23T08:25:20Z</time>
      </trkpt>
      <trkpt lat="45.90235" lon="2.98702">
        <ele>765.2</ele>
        <time>2024-07-23T08:25:21Z</time>
      </trkpt>
      <trkpt lat="45.90235" lon="2.98704">
        <ele>765</ele>
        <time>2024-07-23T08:25:22Z</time>
      </trkpt>
      <trkpt lat="45.90235" lon="2.98705">
        <ele>764.9</ele>
        <time>2024-07-23T08:25:23Z</time>
      </trkpt>
      <trkpt lat="45.90235" lon="2.98707">
        <ele>764.8</ele>
        <time>2024-07-23T08:25:25Z</time>
      </trkpt>
      <trkpt lat="45.90235" lon="2.98708">
        <ele>764.2</ele>
        <time>2024-07-23T08:25:37Z</time>
      </trkpt>
      <trkpt lat="45.90235" lon="2.98709">
        <ele>764.2</ele>
        <time>2024-07-23T08:25:38Z</time>
      </trkpt>
      <trkpt lat="45.90236" lon="2.9871">
        <ele>764.2</ele>
        <time>2024-07-23T08:25:39Z</time>
      </trkpt>
      <trkpt lat="45.90237" lon="2.98711">
        <ele>764.2</ele>
        <time>2024-07-23T08:25:40Z</time>
      </trkpt>
      <trkpt lat="45.90238" lon="2.98712">
        <ele>764</ele>
        <time>2024-07-23T08:25:41Z</time>
      </trkpt>
      <trkpt lat="45.90239" lon="2.98714">
        <ele>763.2</ele>
        <time>2024-07-23T08:25:43Z</time>
      </trkpt>
      <trkpt lat="45.90239" lon="2.98716">
        <ele>762.6</ele>
        <time>2024-07-23T08:25:45Z</time>
      </trkpt>
      <trkpt lat="45.9024" lon="2.98718">
        <ele>764.7</ele>
        <time>2024-07-23T08:25:47Z</time>
      </trkpt>
      <trkpt lat="45.9024" lon="2.98721">
        <ele>765.3</ele>
        <time>2024-07-23T08:25:49Z</time>
      </trkpt>
      <trkpt lat="45.9024" lon="2.98722">
        <ele>766</ele>
        <time>2024-07-23T08:25:50Z</time>
      </trkpt>
      <trkpt lat="45.9024" lon="2.98724">
        <ele>765.6</ele>
        <time>2024-07-23T08:25:51Z</time>
      </trkpt>
      <trkpt lat="45.9024" lon="2.98725">
        <ele>765.6</ele>
        <time>2024-07-23T08:25:52Z</time>
      </trkpt>
      <trkpt lat="45.90241" lon="2.98727">
        <ele>764.8</ele>
        <time>2024-07-23T08:25:53Z</time>
      </trkpt>
      <trkpt lat="45.90241" lon="2.98728">
        <ele>764.2</ele>
        <time>2024-07-23T08:25:54Z</time>
      </trkpt>
      <trkpt lat="45.90242" lon="2.9873">
        <ele>763.7</ele>
        <time>2024-07-23T08:25:55Z</time>
      </trkpt>
      <trkpt lat="45.90243" lon="2.98731">
        <ele>764.3</ele>
        <time>2024-07-23T08:25:56Z</time>
      </trkpt>
      <trkpt lat="45.90243" lon="2.98732">
        <ele>764.7</ele>
        <time>2024-07-23T08:25:57Z</time>
      </trkpt>
      <trkpt lat="45.90245" lon="2.98735">
        <ele>764.1</ele>
        <time>2024-07-23T08:25:59Z</time>
      </trkpt>
      <trkpt lat="45.90245" lon="2.98737">
        <ele>762</ele>
        <time>2024-07-23T08:26:01Z</time>
      </trkpt>
      <trkpt lat="45.90246" lon="2.98739">
        <ele>762.7</ele>
        <time>2024-07-23T08:26:03Z</time>
      </trkpt>
      <trkpt lat="45.90246" lon="2.98741">
        <ele>763.2</ele>
        <time>2024-07-23T08:26:04Z</time>
      </trkpt>
      <trkpt lat="45.90246" lon="2.98743">
        <ele>762.9</ele>
        <time>2024-07-23T08:26:05Z</time>
      </trkpt>
      <trkpt lat="45.90247" lon="2.98744">
        <ele>762.9</ele>
        <time>2024-07-23T08:26:06Z</time>
      </trkpt>
      <trkpt lat="45.90247" lon="2.98745">
        <ele>763</ele>
        <time>2024-07-23T08:26:07Z</time>
      </trkpt>
      <trkpt lat="45.90248" lon="2.98747">
        <ele>763</ele>
        <time>2024-07-23T08:26:08Z</time>
      </trkpt>
      <trkpt lat="45.90249" lon="2.98748">
        <ele>763.9</ele>
        <time>2024-07-23T08:26:09Z</time>
      </trkpt>
      <trkpt lat="45.90249" lon="2.9875">
        <ele>764.2</ele>
        <time>2024-07-23T08:26:11Z</time>
      </trkpt>
      <trkpt lat="45.9025" lon="2.98752">
        <ele>764.5</ele>
        <time>2024-07-23T08:26:13Z</time>
      </trkpt>
      <trkpt lat="45.90251" lon="2.98754">
        <ele>764.5</ele>
        <time>2024-07-23T08:26:14Z</time>
      </trkpt>
      <trkpt lat="45.90251" lon="2.98755">
        <ele>764.1</ele>
        <time>2024-07-23T08:26:15Z</time>
      </trkpt>
      <trkpt lat="45.90252" lon="2.98757">
        <ele>763.5</ele>
        <time>2024-07-23T08:26:16Z</time>
      </trkpt>
      <trkpt lat="45.90253" lon="2.98759">
        <ele>763.5</ele>
        <time>2024-07-23T08:26:17Z</time>
      </trkpt>
      <trkpt lat="45.90254" lon="2.9876">
        <ele>763.5</ele>
        <time>2024-07-23T08:26:18Z</time>
      </trkpt>
      <trkpt lat="45.90254" lon="2.98762">
        <ele>762.7</ele>
        <time>2024-07-23T08:26:19Z</time>
      </trkpt>
      <trkpt lat="45.90255" lon="2.98763">
        <ele>763.7</ele>
        <time>2024-07-23T08:26:20Z</time>
      </trkpt>
      <trkpt lat="45.90255" lon="2.98765">
        <ele>763.9</ele>
        <time>2024-07-23T08:26:21Z</time>
      </trkpt>
      <trkpt lat="45.90255" lon="2.98766">
        <ele>763.5</ele>
        <time>2024-07-23T08:26:22Z</time>
      </trkpt>
      <trkpt lat="45.90256" lon="2.98768">
        <ele>763.2</ele>
        <time>2024-07-23T08:26:23Z</time>
      </trkpt>
      <trkpt lat="45.90256" lon="2.9877">
        <ele>762</ele>
        <time>2024-07-23T08:26:24Z</time>
      </trkpt>
      <trkpt lat="45.90257" lon="2.98772">
        <ele>762.1</ele>
        <time>2024-07-23T08:26:25Z</time>
      </trkpt>
      <trkpt lat="45.90257" lon="2.98774">
        <ele>761.8</ele>
        <time>2024-07-23T08:26:26Z</time>
      </trkpt>
      <trkpt lat="45.90258" lon="2.98776">
        <ele>761.9</ele>
        <time>2024-07-23T08:26:27Z</time>
      </trkpt>
      <trkpt lat="45.90258" lon="2.98777">
        <ele>761.7</ele>
        <time>2024-07-23T08:26:28Z</time>
      </trkpt>
      <trkpt lat="45.90258" lon="2.98778">
        <ele>761.9</ele>
        <time>2024-07-23T08:26:29Z</time>
      </trkpt>
      <trkpt lat="45.90258" lon="2.9878">
        <ele>761.8</ele>
        <time>2024-07-23T08:26:30Z</time>
      </trkpt>
      <trkpt lat="45.90258" lon="2.98781">
        <ele>762.8</ele>
        <time>2024-07-23T08:26:31Z</time>
      </trkpt>
      <trkpt lat="45.90258" lon="2.98784">
        <ele>762.3</ele>
        <time>2024-07-23T08:26:33Z</time>
      </trkpt>
      <trkpt lat="45.90259" lon="2.98785">
        <ele>761.3</ele>
        <time>2024-07-23T08:26:34Z</time>
      </trkpt>
      <trkpt lat="45.90259" lon="2.98786">
        <ele>761.1</ele>
        <time>2024-07-23T08:26:35Z</time>
      </trkpt>
      <trkpt lat="45.9026" lon="2.98787">
        <ele>761.4</ele>
        <time>2024-07-23T08:26:36Z</time>
      </trkpt>
      <trkpt lat="45.90261" lon="2.98788">
        <ele>760.9</ele>
        <time>2024-07-23T08:26:37Z</time>
      </trkpt>
      <trkpt lat="45.90262" lon="2.9879">
        <ele>759.4</ele>
        <time>2024-07-23T08:26:39Z</time>
      </trkpt>
      <trkpt lat="45.90262" lon="2.98792">
        <ele>760.6</ele>
        <time>2024-07-23T08:26:40Z</time>
      </trkpt>
      <trkpt lat="45.90262" lon="2.98793">
        <ele>761.4</ele>
        <time>2024-07-23T08:26:41Z</time>
      </trkpt>
      <trkpt lat="45.90263" lon="2.98796">
        <ele>760.6</ele>
        <time>2024-07-23T08:26:43Z</time>
      </trkpt>
      <trkpt lat="45.90263" lon="2.98797">
        <ele>759.1</ele>
        <time>2024-07-23T08:26:44Z</time>
      </trkpt>
      <trkpt lat="45.90263" lon="2.98798">
        <ele>759.6</ele>
        <time>2024-07-23T08:26:45Z</time>
      </trkpt>
      <trkpt lat="45.90264" lon="2.988">
        <ele>759.4</ele>
        <time>2024-07-23T08:26:46Z</time>
      </trkpt>
      <trkpt lat="45.90264" lon="2.98801">
        <ele>759.5</ele>
        <time>2024-07-23T08:26:47Z</time>
      </trkpt>
      <trkpt lat="45.90265" lon="2.98803">
        <ele>759.8</ele>
        <time>2024-07-23T08:26:48Z</time>
      </trkpt>
      <trkpt lat="45.90265" lon="2.98805">
        <ele>761.2</ele>
        <time>2024-07-23T08:26:50Z</time>
      </trkpt>
      <trkpt lat="45.90265" lon="2.98806">
        <ele>761.9</ele>
        <time>2024-07-23T08:26:51Z</time>
      </trkpt>
      <trkpt lat="45.90264" lon="2.98807">
        <ele>762.2</ele>
        <time>2024-07-23T08:26:52Z</time>
      </trkpt>
      <trkpt lat="45.90264" lon="2.98809">
        <ele>762.1</ele>
        <time>2024-07-23T08:26:53Z</time>
      </trkpt>
      <trkpt lat="45.90265" lon="2.9881">
        <ele>761.6</ele>
        <time>2024-07-23T08:26:54Z</time>
      </trkpt>
      <trkpt lat="45.90265" lon="2.98812">
        <ele>761.2</ele>
        <time>2024-07-23T08:26:55Z</time>
      </trkpt>
      <trkpt lat="45.90266" lon="2.98813">
        <ele>761.3</ele>
        <time>2024-07-23T08:26:56Z</time>
      </trkpt>
      <trkpt lat="45.90267" lon="2.98814">
        <ele>761</ele>
        <time>2024-07-23T08:26:57Z</time>
      </trkpt>
      <trkpt lat="45.90267" lon="2.98816">
        <ele>760.9</ele>
        <time>2024-07-23T08:26:58Z</time>
      </trkpt>
      <trkpt lat="45.90268" lon="2.98817">
        <ele>760.4</ele>
        <time>2024-07-23T08:26:59Z</time>
      </trkpt>
      <trkpt lat="45.90268" lon="2.98819">
        <ele>760.3</ele>
        <time>2024-07-23T08:27:00Z</time>
      </trkpt>
      <trkpt lat="45.90268" lon="2.9882">
        <ele>760.6</ele>
        <time>2024-07-23T08:27:01Z</time>
      </trkpt>
      <trkpt lat="45.90269" lon="2.98822">
        <ele>759.8</ele>
        <time>2024-07-23T08:27:02Z</time>
      </trkpt>
      <trkpt lat="45.90269" lon="2.98823">
        <ele>759.6</ele>
        <time>2024-07-23T08:27:03Z</time>
      </trkpt>
      <trkpt lat="45.9027" lon="2.98826">
        <ele>759.1</ele>
        <time>2024-07-23T08:27:04Z</time>
      </trkpt>
      <trkpt lat="45.9027" lon="2.98827">
        <ele>760.5</ele>
        <time>2024-07-23T08:27:05Z</time>
      </trkpt>
      <trkpt lat="45.90271" lon="2.9883">
        <ele>759.9</ele>
        <time>2024-07-23T08:27:07Z</time>
      </trkpt>
      <trkpt lat="45.90271" lon="2.98832">
        <ele>759.6</ele>
        <time>2024-07-23T08:27:08Z</time>
      </trkpt>
      <trkpt lat="45.90271" lon="2.98833">
        <ele>759.5</ele>
        <time>2024-07-23T08:27:09Z</time>
      </trkpt>
      <trkpt lat="45.90271" lon="2.98835">
        <ele>759.2</ele>
        <time>2024-07-23T08:27:10Z</time>
      </trkpt>
      <trkpt lat="45.90271" lon="2.98836">
        <ele>758.9</ele>
        <time>2024-07-23T08:27:11Z</time>
      </trkpt>
      <trkpt lat="45.90271" lon="2.98838">
        <ele>758.9</ele>
        <time>2024-07-23T08:27:12Z</time>
      </trkpt>
      <trkpt lat="45.90272" lon="2.9884">
        <ele>759.8</ele>
        <time>2024-07-23T08:27:14Z</time>
      </trkpt>
      <trkpt lat="45.90272" lon="2.98842">
        <ele>759.2</ele>
        <time>2024-07-23T08:27:15Z</time>
      </trkpt>
      <trkpt lat="45.90273" lon="2.98843">
        <ele>759.1</ele>
        <time>2024-07-23T08:27:16Z</time>
      </trkpt>
      <trkpt lat="45.90273" lon="2.98845">
        <ele>759.4</ele>
        <time>2024-07-23T08:27:17Z</time>
      </trkpt>
      <trkpt lat="45.90274" lon="2.98846">
        <ele>760.4</ele>
        <time>2024-07-23T08:27:18Z</time>
      </trkpt>
      <trkpt lat="45.90274" lon="2.98848">
        <ele>761.6</ele>
        <time>2024-07-23T08:27:19Z</time>
      </trkpt>
      <trkpt lat="45.90274" lon="2.98849">
        <ele>761.2</ele>
        <time>2024-07-23T08:27:20Z</time>
      </trkpt>
      <trkpt lat="45.90275" lon="2.98851">
        <ele>761.2</ele>
        <time>2024-07-23T08:27:21Z</time>
      </trkpt>
      <trkpt lat="45.90275" lon="2.98852">
        <ele>760.7</ele>
        <time>2024-07-23T08:27:22Z</time>
      </trkpt>
      <trkpt lat="45.90276" lon="2.98854">
        <ele>761</ele>
        <time>2024-07-23T08:27:23Z</time>
      </trkpt>
      <trkpt lat="45.90276" lon="2.98855">
        <ele>761.2</ele>
        <time>2024-07-23T08:27:24Z</time>
      </trkpt>
      <trkpt lat="45.90277" lon="2.98857">
        <ele>761</ele>
        <time>2024-07-23T08:27:25Z</time>
      </trkpt>
      <trkpt lat="45.90277" lon="2.98859">
        <ele>760.8</ele>
        <time>2024-07-23T08:27:26Z</time>
      </trkpt>
      <trkpt lat="45.90277" lon="2.98861">
        <ele>760.6</ele>
        <time>2024-07-23T08:27:27Z</time>
      </trkpt>
      <trkpt lat="45.90277" lon="2.98863">
        <ele>759.8</ele>
        <time>2024-07-23T08:27:28Z</time>
      </trkpt>
      <trkpt lat="45.90277" lon="2.98864">
        <ele>759.6</ele>
        <time>2024-07-23T08:27:29Z</time>
      </trkpt>
      <trkpt lat="45.90278" lon="2.98867">
        <ele>759.6</ele>
        <time>2024-07-23T08:27:31Z</time>
      </trkpt>
      <trkpt lat="45.90278" lon="2.98869">
        <ele>759</ele>
        <time>2024-07-23T08:27:32Z</time>
      </trkpt>
      <trkpt lat="45.90279" lon="2.9887">
        <ele>760.4</ele>
        <time>2024-07-23T08:27:33Z</time>
      </trkpt>
      <trkpt lat="45.90279" lon="2.98871">
        <ele>759.8</ele>
        <time>2024-07-23T08:27:34Z</time>
      </trkpt>
      <trkpt lat="45.9028" lon="2.98873">
        <ele>760.1</ele>
        <time>2024-07-23T08:27:35Z</time>
      </trkpt>
      <trkpt lat="45.9028" lon="2.98874">
        <ele>759.8</ele>
        <time>2024-07-23T08:27:36Z</time>
      </trkpt>
      <trkpt lat="45.9028" lon="2.98876">
        <ele>759.6</ele>
        <time>2024-07-23T08:27:38Z</time>
      </trkpt>
      <trkpt lat="45.9028" lon="2.98877">
        <ele>760.1</ele>
        <time>2024-07-23T08:27:39Z</time>
      </trkpt>
      <trkpt lat="45.9028" lon="2.98879">
        <ele>762.2</ele>
        <time>2024-07-23T08:27:41Z</time>
      </trkpt>
      <trkpt lat="45.9028" lon="2.98881">
        <ele>761.2</ele>
        <time>2024-07-23T08:27:43Z</time>
      </trkpt>
      <trkpt lat="45.9028" lon="2.98883">
        <ele>761.2</ele>
        <time>2024-07-23T08:27:44Z</time>
      </trkpt>
      <trkpt lat="45.9028" lon="2.98885">
        <ele>761.2</ele>
        <time>2024-07-23T08:27:45Z</time>
      </trkpt>
      <trkpt lat="45.9028" lon="2.98887">
        <ele>761</ele>
        <time>2024-07-23T08:27:46Z</time>
      </trkpt>
      <trkpt lat="45.90281" lon="2.98888">
        <ele>761.2</ele>
        <time>2024-07-23T08:27:47Z</time>
      </trkpt>
      <trkpt lat="45.9028" lon="2.9889">
        <ele>760</ele>
        <time>2024-07-23T08:27:49Z</time>
      </trkpt>
      <trkpt lat="45.9028" lon="2.98892">
        <ele>759.9</ele>
        <time>2024-07-23T08:27:50Z</time>
      </trkpt>
      <trkpt lat="45.90279" lon="2.98894">
        <ele>760.6</ele>
        <time>2024-07-23T08:27:51Z</time>
      </trkpt>
      <trkpt lat="45.90279" lon="2.98896">
        <ele>760.6</ele>
        <time>2024-07-23T08:27:52Z</time>
      </trkpt>
      <trkpt lat="45.90279" lon="2.98897">
        <ele>760.5</ele>
        <time>2024-07-23T08:27:53Z</time>
      </trkpt>
      <trkpt lat="45.90279" lon="2.98899">
        <ele>758.9</ele>
        <time>2024-07-23T08:27:55Z</time>
      </trkpt>
      <trkpt lat="45.9028" lon="2.989">
        <ele>758.4</ele>
        <time>2024-07-23T08:27:57Z</time>
      </trkpt>
      <trkpt lat="45.9028" lon="2.98902">
        <ele>760.2</ele>
        <time>2024-07-23T08:27:59Z</time>
      </trkpt>
      <trkpt lat="45.9028" lon="2.98904">
        <ele>759.9</ele>
        <time>2024-07-23T08:28:00Z</time>
      </trkpt>
      <trkpt lat="45.9028" lon="2.98906">
        <ele>760.8</ele>
        <time>2024-07-23T08:28:01Z</time>
      </trkpt>
      <trkpt lat="45.90281" lon="2.98907">
        <ele>761.4</ele>
        <time>2024-07-23T08:28:02Z</time>
      </trkpt>
      <trkpt lat="45.90281" lon="2.98909">
        <ele>761.6</ele>
        <time>2024-07-23T08:28:03Z</time>
      </trkpt>
      <trkpt lat="45.9028" lon="2.9891">
        <ele>761.2</ele>
        <time>2024-07-23T08:28:04Z</time>
      </trkpt>
      <trkpt lat="45.9028" lon="2.98912">
        <ele>760.6</ele>
        <time>2024-07-23T08:28:05Z</time>
      </trkpt>
      <trkpt lat="45.90279" lon="2.98913">
        <ele>760</ele>
        <time>2024-07-23T08:28:06Z</time>
      </trkpt>
      <trkpt lat="45.90278" lon="2.98915">
        <ele>759.2</ele>
        <time>2024-07-23T08:28:07Z</time>
      </trkpt>
      <trkpt lat="45.90278" lon="2.98916">
        <ele>761</ele>
        <time>2024-07-23T08:28:08Z</time>
      </trkpt>
      <trkpt lat="45.90279" lon="2.98918">
        <ele>760.1</ele>
        <time>2024-07-23T08:28:09Z</time>
      </trkpt>
      <trkpt lat="45.90279" lon="2.9892">
        <ele>760.1</ele>
        <time>2024-07-23T08:28:10Z</time>
      </trkpt>
      <trkpt lat="45.9028" lon="2.98921">
        <ele>760.7</ele>
        <time>2024-07-23T08:28:11Z</time>
      </trkpt>
      <trkpt lat="45.90281" lon="2.98925">
        <ele>761.1</ele>
        <time>2024-07-23T08:28:13Z</time>
      </trkpt>
      <trkpt lat="45.90281" lon="2.98927">
        <ele>764</ele>
        <time>2024-07-23T08:28:14Z</time>
      </trkpt>
      <trkpt lat="45.90282" lon="2.98929">
        <ele>763.8</ele>
        <time>2024-07-23T08:28:15Z</time>
      </trkpt>
      <trkpt lat="45.90282" lon="2.98931">
        <ele>762.3</ele>
        <time>2024-07-23T08:28:16Z</time>
      </trkpt>
      <trkpt lat="45.90283" lon="2.98933">
        <ele>762.4</ele>
        <time>2024-07-23T08:28:17Z</time>
      </trkpt>
      <trkpt lat="45.90284" lon="2.98936">
        <ele>761</ele>
        <time>2024-07-23T08:28:19Z</time>
      </trkpt>
      <trkpt lat="45.90284" lon="2.98938">
        <ele>760.7</ele>
        <time>2024-07-23T08:28:20Z</time>
      </trkpt>
      <trkpt lat="45.90285" lon="2.9894">
        <ele>760.7</ele>
        <time>2024-07-23T08:28:21Z</time>
      </trkpt>
      <trkpt lat="45.90287" lon="2.98942">
        <ele>758.3</ele>
        <time>2024-07-23T08:28:23Z</time>
      </trkpt>
      <trkpt lat="45.90288" lon="2.98943">
        <ele>758.5</ele>
        <time>2024-07-23T08:28:24Z</time>
      </trkpt>
      <trkpt lat="45.90289" lon="2.98946">
        <ele>759.1</ele>
        <time>2024-07-23T08:28:26Z</time>
      </trkpt>
      <trkpt lat="45.90289" lon="2.98948">
        <ele>759.7</ele>
        <time>2024-07-23T08:28:27Z</time>
      </trkpt>
      <trkpt lat="45.9029" lon="2.98949">
        <ele>760.2</ele>
        <time>2024-07-23T08:28:28Z</time>
      </trkpt>
      <trkpt lat="45.9029" lon="2.9895">
        <ele>760.9</ele>
        <time>2024-07-23T08:28:29Z</time>
      </trkpt>
      <trkpt lat="45.90291" lon="2.98952">
        <ele>761.2</ele>
        <time>2024-07-23T08:28:30Z</time>
      </trkpt>
      <trkpt lat="45.90292" lon="2.98953">
        <ele>760.8</ele>
        <time>2024-07-23T08:28:31Z</time>
      </trkpt>
      <trkpt lat="45.90292" lon="2.98955">
        <ele>760.7</ele>
        <time>2024-07-23T08:28:32Z</time>
      </trkpt>
      <trkpt lat="45.90293" lon="2.98956">
        <ele>760.7</ele>
        <time>2024-07-23T08:28:33Z</time>
      </trkpt>
      <trkpt lat="45.90293" lon="2.98957">
        <ele>759.3</ele>
        <time>2024-07-23T08:28:34Z</time>
      </trkpt>
      <trkpt lat="45.90293" lon="2.98959">
        <ele>758.9</ele>
        <time>2024-07-23T08:28:35Z</time>
      </trkpt>
      <trkpt lat="45.90293" lon="2.9896">
        <ele>758.5</ele>
        <time>2024-07-23T08:28:36Z</time>
      </trkpt>
      <trkpt lat="45.90294" lon="2.98962">
        <ele>759.7</ele>
        <time>2024-07-23T08:28:38Z</time>
      </trkpt>
      <trkpt lat="45.90295" lon="2.98963">
        <ele>759.3</ele>
        <time>2024-07-23T08:28:39Z</time>
      </trkpt>
      <trkpt lat="45.90295" lon="2.98965">
        <ele>759.5</ele>
        <time>2024-07-23T08:28:40Z</time>
      </trkpt>
      <trkpt lat="45.90295" lon="2.98967">
        <ele>759.3</ele>
        <time>2024-07-23T08:28:41Z</time>
      </trkpt>
      <trkpt lat="45.90295" lon="2.98968">
        <ele>758.7</ele>
        <time>2024-07-23T08:28:42Z</time>
      </trkpt>
      <trkpt lat="45.90295" lon="2.98969">
        <ele>759.1</ele>
        <time>2024-07-23T08:28:43Z</time>
      </trkpt>
      <trkpt lat="45.90295" lon="2.98971">
        <ele>759.2</ele>
        <time>2024-07-23T08:28:44Z</time>
      </trkpt>
      <trkpt lat="45.90295" lon="2.98973">
        <ele>759.6</ele>
        <time>2024-07-23T08:28:45Z</time>
      </trkpt>
      <trkpt lat="45.90296" lon="2.98975">
        <ele>758.1</ele>
        <time>2024-07-23T08:28:46Z</time>
      </trkpt>
      <trkpt lat="45.90297" lon="2.98978">
        <ele>757</ele>
        <time>2024-07-23T08:28:47Z</time>
      </trkpt>
      <trkpt lat="45.90297" lon="2.9898">
        <ele>758</ele>
        <time>2024-07-23T08:28:48Z</time>
      </trkpt>
      <trkpt lat="45.90298" lon="2.98981">
        <ele>757.2</ele>
        <time>2024-07-23T08:28:49Z</time>
      </trkpt>
      <trkpt lat="45.90298" lon="2.98983">
        <ele>756.2</ele>
        <time>2024-07-23T08:28:50Z</time>
      </trkpt>
      <trkpt lat="45.90299" lon="2.98985">
        <ele>755.8</ele>
        <time>2024-07-23T08:28:51Z</time>
      </trkpt>
      <trkpt lat="45.903" lon="2.98987">
        <ele>755</ele>
        <time>2024-07-23T08:28:52Z</time>
      </trkpt>
      <trkpt lat="45.903" lon="2.98989">
        <ele>755.3</ele>
        <time>2024-07-23T08:28:53Z</time>
      </trkpt>
      <trkpt lat="45.90301" lon="2.9899">
        <ele>754.9</ele>
        <time>2024-07-23T08:28:54Z</time>
      </trkpt>
      <trkpt lat="45.90302" lon="2.98992">
        <ele>754.7</ele>
        <time>2024-07-23T08:28:55Z</time>
      </trkpt>
      <trkpt lat="45.90303" lon="2.98994">
        <ele>754.7</ele>
        <time>2024-07-23T08:28:56Z</time>
      </trkpt>
      <trkpt lat="45.90303" lon="2.98995">
        <ele>755.8</ele>
        <time>2024-07-23T08:28:57Z</time>
      </trkpt>
      <trkpt lat="45.90304" lon="2.98997">
        <ele>755.4</ele>
        <time>2024-07-23T08:28:58Z</time>
      </trkpt>
      <trkpt lat="45.90305" lon="2.98998">
        <ele>755.2</ele>
        <time>2024-07-23T08:28:59Z</time>
      </trkpt>
      <trkpt lat="45.90306" lon="2.98999">
        <ele>755.1</ele>
        <time>2024-07-23T08:29:00Z</time>
      </trkpt>
      <trkpt lat="45.90307" lon="2.99001">
        <ele>753.2</ele>
        <time>2024-07-23T08:29:01Z</time>
      </trkpt>
      <trkpt lat="45.90308" lon="2.99002">
        <ele>753.9</ele>
        <time>2024-07-23T08:29:02Z</time>
      </trkpt>
      <trkpt lat="45.90308" lon="2.99003">
        <ele>753.9</ele>
        <time>2024-07-23T08:29:03Z</time>
      </trkpt>
      <trkpt lat="45.90309" lon="2.99005">
        <ele>754.3</ele>
        <time>2024-07-23T08:29:04Z</time>
      </trkpt>
      <trkpt lat="45.90309" lon="2.99006">
        <ele>755</ele>
        <time>2024-07-23T08:29:05Z</time>
      </trkpt>
      <trkpt lat="45.9031" lon="2.99007">
        <ele>755.2</ele>
        <time>2024-07-23T08:29:06Z</time>
      </trkpt>
      <trkpt lat="45.90311" lon="2.99008">
        <ele>755.5</ele>
        <time>2024-07-23T08:29:07Z</time>
      </trkpt>
      <trkpt lat="45.90311" lon="2.99009">
        <ele>755.4</ele>
        <time>2024-07-23T08:29:08Z</time>
      </trkpt>
      <trkpt lat="45.90312" lon="2.9901">
        <ele>755.6</ele>
        <time>2024-07-23T08:29:09Z</time>
      </trkpt>
      <trkpt lat="45.90313" lon="2.99012">
        <ele>755.7</ele>
        <time>2024-07-23T08:29:10Z</time>
      </trkpt>
      <trkpt lat="45.90314" lon="2.99014">
        <ele>755.6</ele>
        <time>2024-07-23T08:29:11Z</time>
      </trkpt>
      <trkpt lat="45.90315" lon="2.99015">
        <ele>755.1</ele>
        <time>2024-07-23T08:29:12Z</time>
      </trkpt>
      <trkpt lat="45.90315" lon="2.99016">
        <ele>754.8</ele>
        <time>2024-07-23T08:29:13Z</time>
      </trkpt>
      <trkpt lat="45.90315" lon="2.99018">
        <ele>755</ele>
        <time>2024-07-23T08:29:14Z</time>
      </trkpt>
      <trkpt lat="45.90316" lon="2.99019">
        <ele>754.8</ele>
        <time>2024-07-23T08:29:15Z</time>
      </trkpt>
      <trkpt lat="45.90317" lon="2.9902">
        <ele>755.1</ele>
        <time>2024-07-23T08:29:16Z</time>
      </trkpt>
      <trkpt lat="45.90317" lon="2.99022">
        <ele>754.9</ele>
        <time>2024-07-23T08:29:17Z</time>
      </trkpt>
      <trkpt lat="45.90318" lon="2.99022">
        <ele>754.4</ele>
        <time>2024-07-23T08:29:18Z</time>
      </trkpt>
      <trkpt lat="45.90319" lon="2.99023">
        <ele>754.2</ele>
        <time>2024-07-23T08:29:19Z</time>
      </trkpt>
      <trkpt lat="45.90318" lon="2.99022">
        <ele>752.3</ele>
        <time>2024-07-23T08:29:30Z</time>
      </trkpt>
      <trkpt lat="45.90317" lon="2.99022">
        <ele>751.3</ele>
        <time>2024-07-23T08:29:32Z</time>
      </trkpt>
      <trkpt lat="45.90318" lon="2.99023">
        <ele>751.4</ele>
        <time>2024-07-23T08:29:37Z</time>
      </trkpt>
      <trkpt lat="45.90319" lon="2.99021">
        <ele>750.5</ele>
        <time>2024-07-23T08:29:41Z</time>
      </trkpt>
      <trkpt lat="45.90319" lon="2.99023">
        <ele>750</ele>
        <time>2024-07-23T08:29:47Z</time>
      </trkpt>
      <trkpt lat="45.90319" lon="2.99024">
        <ele>750.4</ele>
        <time>2024-07-23T08:29:48Z</time>
      </trkpt>
      <trkpt lat="45.9032" lon="2.99025">
        <ele>750.5</ele>
        <time>2024-07-23T08:29:49Z</time>
      </trkpt>
      <trkpt lat="45.90321" lon="2.99027">
        <ele>749.6</ele>
        <time>2024-07-23T08:29:50Z</time>
      </trkpt>
      <trkpt lat="45.90322" lon="2.99029">
        <ele>748.9</ele>
        <time>2024-07-23T08:29:52Z</time>
      </trkpt>
      <trkpt lat="45.90323" lon="2.9903">
        <ele>749.7</ele>
        <time>2024-07-23T08:29:54Z</time>
      </trkpt>
      <trkpt lat="45.90323" lon="2.99032">
        <ele>748.1</ele>
        <time>2024-07-23T08:29:56Z</time>
      </trkpt>
      <trkpt lat="45.90323" lon="2.99033">
        <ele>749.2</ele>
        <time>2024-07-23T08:29:57Z</time>
      </trkpt>
      <trkpt lat="45.90324" lon="2.99034">
        <ele>750.3</ele>
        <time>2024-07-23T08:29:58Z</time>
      </trkpt>
      <trkpt lat="45.90325" lon="2.99036">
        <ele>750.6</ele>
        <time>2024-07-23T08:30:01Z</time>
      </trkpt>
      <trkpt lat="45.90325" lon="2.99038">
        <ele>750.4</ele>
        <time>2024-07-23T08:30:02Z</time>
      </trkpt>
      <trkpt lat="45.90326" lon="2.99039">
        <ele>750.2</ele>
        <time>2024-07-23T08:30:03Z</time>
      </trkpt>
      <trkpt lat="45.90327" lon="2.9904">
        <ele>751.2</ele>
        <time>2024-07-23T08:30:04Z</time>
      </trkpt>
      <trkpt lat="45.90327" lon="2.99041">
        <ele>752.3</ele>
        <time>2024-07-23T08:30:05Z</time>
      </trkpt>
      <trkpt lat="45.90328" lon="2.99042">
        <ele>752.4</ele>
        <time>2024-07-23T08:30:06Z</time>
      </trkpt>
      <trkpt lat="45.90328" lon="2.99043">
        <ele>752</ele>
        <time>2024-07-23T08:30:07Z</time>
      </trkpt>
      <trkpt lat="45.90329" lon="2.99045">
        <ele>752.1</ele>
        <time>2024-07-23T08:30:08Z</time>
      </trkpt>
      <trkpt lat="45.9033" lon="2.99046">
        <ele>752.7</ele>
        <time>2024-07-23T08:30:09Z</time>
      </trkpt>
      <trkpt lat="45.9033" lon="2.99047">
        <ele>751.9</ele>
        <time>2024-07-23T08:30:10Z</time>
      </trkpt>
      <trkpt lat="45.90331" lon="2.99049">
        <ele>751.1</ele>
        <time>2024-07-23T08:30:11Z</time>
      </trkpt>
      <trkpt lat="45.90331" lon="2.99051">
        <ele>751.4</ele>
        <time>2024-07-23T08:30:13Z</time>
      </trkpt>
      <trkpt lat="45.90332" lon="2.99052">
        <ele>751.5</ele>
        <time>2024-07-23T08:30:14Z</time>
      </trkpt>
      <trkpt lat="45.90332" lon="2.99054">
        <ele>751.5</ele>
        <time>2024-07-23T08:30:15Z</time>
      </trkpt>
      <trkpt lat="45.90333" lon="2.99055">
        <ele>750.6</ele>
        <time>2024-07-23T08:30:16Z</time>
      </trkpt>
      <trkpt lat="45.90334" lon="2.99056">
        <ele>750.2</ele>
        <time>2024-07-23T08:30:17Z</time>
      </trkpt>
      <trkpt lat="45.90335" lon="2.99058">
        <ele>750.4</ele>
        <time>2024-07-23T08:30:18Z</time>
      </trkpt>
      <trkpt lat="45.90335" lon="2.99059">
        <ele>750.1</ele>
        <time>2024-07-23T08:30:19Z</time>
      </trkpt>
      <trkpt lat="45.90336" lon="2.99061">
        <ele>750.3</ele>
        <time>2024-07-23T08:30:20Z</time>
      </trkpt>
      <trkpt lat="45.90336" lon="2.99062">
        <ele>751.2</ele>
        <time>2024-07-23T08:30:21Z</time>
      </trkpt>
      <trkpt lat="45.90337" lon="2.99064">
        <ele>750.9</ele>
        <time>2024-07-23T08:30:22Z</time>
      </trkpt>
      <trkpt lat="45.90338" lon="2.99066">
        <ele>750.3</ele>
        <time>2024-07-23T08:30:23Z</time>
      </trkpt>
      <trkpt lat="45.90339" lon="2.99067">
        <ele>750.1</ele>
        <time>2024-07-23T08:30:24Z</time>
      </trkpt>
      <trkpt lat="45.90339" lon="2.99068">
        <ele>750</ele>
        <time>2024-07-23T08:30:25Z</time>
      </trkpt>
      <trkpt lat="45.9034" lon="2.99069">
        <ele>749.9</ele>
        <time>2024-07-23T08:30:26Z</time>
      </trkpt>
      <trkpt lat="45.90341" lon="2.9907">
        <ele>749.4</ele>
        <time>2024-07-23T08:30:27Z</time>
      </trkpt>
      <trkpt lat="45.90341" lon="2.99072">
        <ele>749.3</ele>
        <time>2024-07-23T08:30:28Z</time>
      </trkpt>
      <trkpt lat="45.90342" lon="2.99074">
        <ele>749.2</ele>
        <time>2024-07-23T08:30:30Z</time>
      </trkpt>
      <trkpt lat="45.90343" lon="2.99076">
        <ele>748.8</ele>
        <time>2024-07-23T08:30:32Z</time>
      </trkpt>
      <trkpt lat="45.90344" lon="2.99078">
        <ele>749.1</ele>
        <time>2024-07-23T08:30:33Z</time>
      </trkpt>
      <trkpt lat="45.90344" lon="2.99079">
        <ele>749.3</ele>
        <time>2024-07-23T08:30:34Z</time>
      </trkpt>
      <trkpt lat="45.90345" lon="2.9908">
        <ele>749.9</ele>
        <time>2024-07-23T08:30:36Z</time>
      </trkpt>
      <trkpt lat="45.90345" lon="2.99081">
        <ele>750.2</ele>
        <time>2024-07-23T08:30:37Z</time>
      </trkpt>
      <trkpt lat="45.90346" lon="2.99082">
        <ele>750.7</ele>
        <time>2024-07-23T08:30:38Z</time>
      </trkpt>
      <trkpt lat="45.90347" lon="2.99083">
        <ele>750.8</ele>
        <time>2024-07-23T08:30:39Z</time>
      </trkpt>
      <trkpt lat="45.90348" lon="2.99084">
        <ele>751</ele>
        <time>2024-07-23T08:30:41Z</time>
      </trkpt>
      <trkpt lat="45.90348" lon="2.99086">
        <ele>750.8</ele>
        <time>2024-07-23T08:30:42Z</time>
      </trkpt>
      <trkpt lat="45.90349" lon="2.99087">
        <ele>751</ele>
        <time>2024-07-23T08:30:43Z</time>
      </trkpt>
      <trkpt lat="45.90349" lon="2.99088">
        <ele>751</ele>
        <time>2024-07-23T08:30:44Z</time>
      </trkpt>
      <trkpt lat="45.9035" lon="2.99089">
        <ele>749.9</ele>
        <time>2024-07-23T08:30:45Z</time>
      </trkpt>
      <trkpt lat="45.9035" lon="2.99091">
        <ele>750.2</ele>
        <time>2024-07-23T08:30:46Z</time>
      </trkpt>
      <trkpt lat="45.90351" lon="2.99093">
        <ele>750.2</ele>
        <time>2024-07-23T08:30:47Z</time>
      </trkpt>
      <trkpt lat="45.90351" lon="2.99094">
        <ele>751</ele>
        <time>2024-07-23T08:30:48Z</time>
      </trkpt>
      <trkpt lat="45.90352" lon="2.99095">
        <ele>749.8</ele>
        <time>2024-07-23T08:30:49Z</time>
      </trkpt>
      <trkpt lat="45.90353" lon="2.99096">
        <ele>749.5</ele>
        <time>2024-07-23T08:30:50Z</time>
      </trkpt>
      <trkpt lat="45.90354" lon="2.99098">
        <ele>749</ele>
        <time>2024-07-23T08:30:51Z</time>
      </trkpt>
      <trkpt lat="45.90354" lon="2.99099">
        <ele>749.2</ele>
        <time>2024-07-23T08:30:52Z</time>
      </trkpt>
      <trkpt lat="45.90355" lon="2.991">
        <ele>747.9</ele>
        <time>2024-07-23T08:30:53Z</time>
      </trkpt>
      <trkpt lat="45.90357" lon="2.99104">
        <ele>746.7</ele>
        <time>2024-07-23T08:30:55Z</time>
      </trkpt>
      <trkpt lat="45.90357" lon="2.99106">
        <ele>747.4</ele>
        <time>2024-07-23T08:30:56Z</time>
      </trkpt>
      <trkpt lat="45.90358" lon="2.99108">
        <ele>747.2</ele>
        <time>2024-07-23T08:30:57Z</time>
      </trkpt>
      <trkpt lat="45.90358" lon="2.99109">
        <ele>747.2</ele>
        <time>2024-07-23T08:30:58Z</time>
      </trkpt>
      <trkpt lat="45.90359" lon="2.99111">
        <ele>746.7</ele>
        <time>2024-07-23T08:30:59Z</time>
      </trkpt>
      <trkpt lat="45.9036" lon="2.99112">
        <ele>746</ele>
        <time>2024-07-23T08:31:00Z</time>
      </trkpt>
      <trkpt lat="45.90361" lon="2.99113">
        <ele>744.5</ele>
        <time>2024-07-23T08:31:02Z</time>
      </trkpt>
      <trkpt lat="45.90361" lon="2.99115">
        <ele>745.1</ele>
        <time>2024-07-23T08:31:03Z</time>
      </trkpt>
      <trkpt lat="45.90362" lon="2.99116">
        <ele>746.1</ele>
        <time>2024-07-23T08:31:05Z</time>
      </trkpt>
      <trkpt lat="45.90362" lon="2.99117">
        <ele>746</ele>
        <time>2024-07-23T08:31:08Z</time>
      </trkpt>
      <trkpt lat="45.90363" lon="2.99119">
        <ele>747.7</ele>
        <time>2024-07-23T08:31:10Z</time>
      </trkpt>
      <trkpt lat="45.90363" lon="2.9912">
        <ele>748.3</ele>
        <time>2024-07-23T08:31:12Z</time>
      </trkpt>
      <trkpt lat="45.90364" lon="2.99121">
        <ele>748.4</ele>
        <time>2024-07-23T08:31:13Z</time>
      </trkpt>
      <trkpt lat="45.90364" lon="2.99123">
        <ele>748.4</ele>
        <time>2024-07-23T08:31:14Z</time>
      </trkpt>
      <trkpt lat="45.90365" lon="2.99124">
        <ele>748.8</ele>
        <time>2024-07-23T08:31:15Z</time>
      </trkpt>
      <trkpt lat="45.90365" lon="2.99125">
        <ele>749.1</ele>
        <time>2024-07-23T08:31:17Z</time>
      </trkpt>
      <trkpt lat="45.90365" lon="2.99127">
        <ele>748</ele>
        <time>2024-07-23T08:31:18Z</time>
      </trkpt>
      <trkpt lat="45.90365" lon="2.99128">
        <ele>748</ele>
        <time>2024-07-23T08:31:19Z</time>
      </trkpt>
      <trkpt lat="45.90365" lon="2.99129">
        <ele>747.9</ele>
        <time>2024-07-23T08:31:20Z</time>
      </trkpt>
      <trkpt lat="45.90365" lon="2.99131">
        <ele>747.8</ele>
        <time>2024-07-23T08:31:21Z</time>
      </trkpt>
      <trkpt lat="45.90365" lon="2.99132">
        <ele>748.5</ele>
        <time>2024-07-23T08:31:22Z</time>
      </trkpt>
      <trkpt lat="45.90366" lon="2.99134">
        <ele>748.9</ele>
        <time>2024-07-23T08:31:23Z</time>
      </trkpt>
      <trkpt lat="45.90366" lon="2.99135">
        <ele>748</ele>
        <time>2024-07-23T08:31:24Z</time>
      </trkpt>
      <trkpt lat="45.90367" lon="2.99136">
        <ele>747.4</ele>
        <time>2024-07-23T08:31:25Z</time>
      </trkpt>
      <trkpt lat="45.90368" lon="2.99138">
        <ele>747.4</ele>
        <time>2024-07-23T08:31:26Z</time>
      </trkpt>
      <trkpt lat="45.90369" lon="2.99139">
        <ele>747.6</ele>
        <time>2024-07-23T08:31:27Z</time>
      </trkpt>
      <trkpt lat="45.90369" lon="2.99141">
        <ele>747.5</ele>
        <time>2024-07-23T08:31:28Z</time>
      </trkpt>
      <trkpt lat="45.9037" lon="2.99142">
        <ele>747.4</ele>
        <time>2024-07-23T08:31:29Z</time>
      </trkpt>
      <trkpt lat="45.90371" lon="2.99144">
        <ele>747</ele>
        <time>2024-07-23T08:31:30Z</time>
      </trkpt>
      <trkpt lat="45.90371" lon="2.99145">
        <ele>746.8</ele>
        <time>2024-07-23T08:31:31Z</time>
      </trkpt>
      <trkpt lat="45.90372" lon="2.99146">
        <ele>748.6</ele>
        <time>2024-07-23T08:31:32Z</time>
      </trkpt>
      <trkpt lat="45.90372" lon="2.99147">
        <ele>746.3</ele>
        <time>2024-07-23T08:31:33Z</time>
      </trkpt>
      <trkpt lat="45.90373" lon="2.99149">
        <ele>745.4</ele>
        <time>2024-07-23T08:31:34Z</time>
      </trkpt>
      <trkpt lat="45.90373" lon="2.9915">
        <ele>745.5</ele>
        <time>2024-07-23T08:31:35Z</time>
      </trkpt>
      <trkpt lat="45.90374" lon="2.99151">
        <ele>744.8</ele>
        <time>2024-07-23T08:31:36Z</time>
      </trkpt>
      <trkpt lat="45.90375" lon="2.99153">
        <ele>744.6</ele>
        <time>2024-07-23T08:31:37Z</time>
      </trkpt>
      <trkpt lat="45.90376" lon="2.99154">
        <ele>744.4</ele>
        <time>2024-07-23T08:31:38Z</time>
      </trkpt>
      <trkpt lat="45.90376" lon="2.99156">
        <ele>743.7</ele>
        <time>2024-07-23T08:31:39Z</time>
      </trkpt>
      <trkpt lat="45.90377" lon="2.99157">
        <ele>743.2</ele>
        <time>2024-07-23T08:31:40Z</time>
      </trkpt>
      <trkpt lat="45.90377" lon="2.99159">
        <ele>743</ele>
        <time>2024-07-23T08:31:41Z</time>
      </trkpt>
      <trkpt lat="45.90378" lon="2.9916">
        <ele>742.5</ele>
        <time>2024-07-23T08:31:42Z</time>
      </trkpt>
      <trkpt lat="45.90378" lon="2.99161">
        <ele>742.5</ele>
        <time>2024-07-23T08:31:43Z</time>
      </trkpt>
      <trkpt lat="45.90379" lon="2.99163">
        <ele>742.4</ele>
        <time>2024-07-23T08:31:44Z</time>
      </trkpt>
      <trkpt lat="45.90379" lon="2.99164">
        <ele>742.6</ele>
        <time>2024-07-23T08:31:45Z</time>
      </trkpt>
      <trkpt lat="45.90379" lon="2.99165">
        <ele>742.2</ele>
        <time>2024-07-23T08:31:46Z</time>
      </trkpt>
      <trkpt lat="45.9038" lon="2.99167">
        <ele>741.9</ele>
        <time>2024-07-23T08:31:47Z</time>
      </trkpt>
      <trkpt lat="45.9038" lon="2.99169">
        <ele>742.4</ele>
        <time>2024-07-23T08:31:49Z</time>
      </trkpt>
      <trkpt lat="45.9038" lon="2.9917">
        <ele>742.1</ele>
        <time>2024-07-23T08:31:50Z</time>
      </trkpt>
      <trkpt lat="45.90381" lon="2.99171">
        <ele>741.6</ele>
        <time>2024-07-23T08:31:51Z</time>
      </trkpt>
      <trkpt lat="45.90381" lon="2.99173">
        <ele>741.1</ele>
        <time>2024-07-23T08:31:52Z</time>
      </trkpt>
      <trkpt lat="45.90382" lon="2.99174">
        <ele>741.2</ele>
        <time>2024-07-23T08:31:53Z</time>
      </trkpt>
      <trkpt lat="45.90382" lon="2.99176">
        <ele>741.1</ele>
        <time>2024-07-23T08:31:54Z</time>
      </trkpt>
      <trkpt lat="45.90383" lon="2.99177">
        <ele>740.8</ele>
        <time>2024-07-23T08:31:55Z</time>
      </trkpt>
      <trkpt lat="45.90383" lon="2.99179">
        <ele>740.9</ele>
        <time>2024-07-23T08:31:56Z</time>
      </trkpt>
      <trkpt lat="45.90383" lon="2.9918">
        <ele>741.2</ele>
        <time>2024-07-23T08:31:57Z</time>
      </trkpt>
      <trkpt lat="45.90384" lon="2.99182">
        <ele>741.2</ele>
        <time>2024-07-23T08:31:58Z</time>
      </trkpt>
      <trkpt lat="45.90384" lon="2.99183">
        <ele>741.2</ele>
        <time>2024-07-23T08:31:59Z</time>
      </trkpt>
      <trkpt lat="45.90384" lon="2.99185">
        <ele>742.1</ele>
        <time>2024-07-23T08:32:00Z</time>
      </trkpt>
      <trkpt lat="45.90385" lon="2.99186">
        <ele>741.8</ele>
        <time>2024-07-23T08:32:01Z</time>
      </trkpt>
      <trkpt lat="45.90385" lon="2.99188">
        <ele>742.4</ele>
        <time>2024-07-23T08:32:02Z</time>
      </trkpt>
      <trkpt lat="45.90385" lon="2.99189">
        <ele>741.9</ele>
        <time>2024-07-23T08:32:03Z</time>
      </trkpt>
      <trkpt lat="45.90386" lon="2.99191">
        <ele>741.7</ele>
        <time>2024-07-23T08:32:04Z</time>
      </trkpt>
      <trkpt lat="45.90386" lon="2.99192">
        <ele>741.8</ele>
        <time>2024-07-23T08:32:05Z</time>
      </trkpt>
      <trkpt lat="45.90387" lon="2.99194">
        <ele>742.2</ele>
        <time>2024-07-23T08:32:06Z</time>
      </trkpt>
      <trkpt lat="45.90387" lon="2.99196">
        <ele>742.6</ele>
        <time>2024-07-23T08:32:08Z</time>
      </trkpt>
      <trkpt lat="45.90388" lon="2.99198">
        <ele>742.8</ele>
        <time>2024-07-23T08:32:10Z</time>
      </trkpt>
      <trkpt lat="45.90388" lon="2.99199">
        <ele>743.2</ele>
        <time>2024-07-23T08:32:11Z</time>
      </trkpt>
      <trkpt lat="45.90388" lon="2.992">
        <ele>743.2</ele>
        <time>2024-07-23T08:32:12Z</time>
      </trkpt>
      <trkpt lat="45.90389" lon="2.99202">
        <ele>743.6</ele>
        <time>2024-07-23T08:32:13Z</time>
      </trkpt>
      <trkpt lat="45.90389" lon="2.99203">
        <ele>744.8</ele>
        <time>2024-07-23T08:32:14Z</time>
      </trkpt>
      <trkpt lat="45.90389" lon="2.99204">
        <ele>744.7</ele>
        <time>2024-07-23T08:32:15Z</time>
      </trkpt>
      <trkpt lat="45.9039" lon="2.99205">
        <ele>744.8</ele>
        <time>2024-07-23T08:32:16Z</time>
      </trkpt>
      <trkpt lat="45.9039" lon="2.99207">
        <ele>745.1</ele>
        <time>2024-07-23T08:32:17Z</time>
      </trkpt>
      <trkpt lat="45.90391" lon="2.99208">
        <ele>745.3</ele>
        <time>2024-07-23T08:32:18Z</time>
      </trkpt>
      <trkpt lat="45.90391" lon="2.99209">
        <ele>745.4</ele>
        <time>2024-07-23T08:32:19Z</time>
      </trkpt>
      <trkpt lat="45.90391" lon="2.99211">
        <ele>745.5</ele>
        <time>2024-07-23T08:32:20Z</time>
      </trkpt>
      <trkpt lat="45.90391" lon="2.99212">
        <ele>745.4</ele>
        <time>2024-07-23T08:32:21Z</time>
      </trkpt>
      <trkpt lat="45.90392" lon="2.99214">
        <ele>745.2</ele>
        <time>2024-07-23T08:32:22Z</time>
      </trkpt>
      <trkpt lat="45.90392" lon="2.99215">
        <ele>745.1</ele>
        <time>2024-07-23T08:32:23Z</time>
      </trkpt>
      <trkpt lat="45.90392" lon="2.99217">
        <ele>743.7</ele>
        <time>2024-07-23T08:32:24Z</time>
      </trkpt>
      <trkpt lat="45.90392" lon="2.99218">
        <ele>742.8</ele>
        <time>2024-07-23T08:32:25Z</time>
      </trkpt>
      <trkpt lat="45.90393" lon="2.9922">
        <ele>745.4</ele>
        <time>2024-07-23T08:32:27Z</time>
      </trkpt>
      <trkpt lat="45.90393" lon="2.99222">
        <ele>746.4</ele>
        <time>2024-07-23T08:32:29Z</time>
      </trkpt>
      <trkpt lat="45.90394" lon="2.99224">
        <ele>746.4</ele>
        <time>2024-07-23T08:32:30Z</time>
      </trkpt>
      <trkpt lat="45.90394" lon="2.99225">
        <ele>745.8</ele>
        <time>2024-07-23T08:32:31Z</time>
      </trkpt>
      <trkpt lat="45.90395" lon="2.99226">
        <ele>746.1</ele>
        <time>2024-07-23T08:32:32Z</time>
      </trkpt>
      <trkpt lat="45.90396" lon="2.99228">
        <ele>747.1</ele>
        <time>2024-07-23T08:32:34Z</time>
      </trkpt>
      <trkpt lat="45.90397" lon="2.9923">
        <ele>745</ele>
        <time>2024-07-23T08:32:36Z</time>
      </trkpt>
      <trkpt lat="45.90398" lon="2.99231">
        <ele>745.5</ele>
        <time>2024-07-23T08:32:37Z</time>
      </trkpt>
      <trkpt lat="45.90398" lon="2.99232">
        <ele>745.4</ele>
        <time>2024-07-23T08:32:38Z</time>
      </trkpt>
      <trkpt lat="45.90399" lon="2.99234">
        <ele>745.3</ele>
        <time>2024-07-23T08:32:39Z</time>
      </trkpt>
      <trkpt lat="45.904" lon="2.99235">
        <ele>745.8</ele>
        <time>2024-07-23T08:32:40Z</time>
      </trkpt>
      <trkpt lat="45.904" lon="2.99237">
        <ele>746</ele>
        <time>2024-07-23T08:32:41Z</time>
      </trkpt>
      <trkpt lat="45.90401" lon="2.99238">
        <ele>745.9</ele>
        <time>2024-07-23T08:32:42Z</time>
      </trkpt>
      <trkpt lat="45.90402" lon="2.9924">
        <ele>746.2</ele>
        <time>2024-07-23T08:32:43Z</time>
      </trkpt>
      <trkpt lat="45.90402" lon="2.99242">
        <ele>746.2</ele>
        <time>2024-07-23T08:32:44Z</time>
      </trkpt>
      <trkpt lat="45.90403" lon="2.99243">
        <ele>746.1</ele>
        <time>2024-07-23T08:32:45Z</time>
      </trkpt>
      <trkpt lat="45.90404" lon="2.99245">
        <ele>745.2</ele>
        <time>2024-07-23T08:32:46Z</time>
      </trkpt>
      <trkpt lat="45.90404" lon="2.99247">
        <ele>744.6</ele>
        <time>2024-07-23T08:32:47Z</time>
      </trkpt>
      <trkpt lat="45.90404" lon="2.99249">
        <ele>744.3</ele>
        <time>2024-07-23T08:32:48Z</time>
      </trkpt>
      <trkpt lat="45.90405" lon="2.9925">
        <ele>744.2</ele>
        <time>2024-07-23T08:32:49Z</time>
      </trkpt>
      <trkpt lat="45.90405" lon="2.99252">
        <ele>744.5</ele>
        <time>2024-07-23T08:32:50Z</time>
      </trkpt>
      <trkpt lat="45.90405" lon="2.99254">
        <ele>744.1</ele>
        <time>2024-07-23T08:32:51Z</time>
      </trkpt>
      <trkpt lat="45.90405" lon="2.99256">
        <ele>743.4</ele>
        <time>2024-07-23T08:32:53Z</time>
      </trkpt>
      <trkpt lat="45.90406" lon="2.99257">
        <ele>743.2</ele>
        <time>2024-07-23T08:32:54Z</time>
      </trkpt>
      <trkpt lat="45.90406" lon="2.99259">
        <ele>743.4</ele>
        <time>2024-07-23T08:32:55Z</time>
      </trkpt>
      <trkpt lat="45.90407" lon="2.99262">
        <ele>742.4</ele>
        <time>2024-07-23T08:32:57Z</time>
      </trkpt>
      <trkpt lat="45.90407" lon="2.99264">
        <ele>741.5</ele>
        <time>2024-07-23T08:32:58Z</time>
      </trkpt>
      <trkpt lat="45.90407" lon="2.99267">
        <ele>740.2</ele>
        <time>2024-07-23T08:33:00Z</time>
      </trkpt>
      <trkpt lat="45.90407" lon="2.99269">
        <ele>739.3</ele>
        <time>2024-07-23T08:33:01Z</time>
      </trkpt>
      <trkpt lat="45.90407" lon="2.99271">
        <ele>738.7</ele>
        <time>2024-07-23T08:33:02Z</time>
      </trkpt>
      <trkpt lat="45.90407" lon="2.99272">
        <ele>738.9</ele>
        <time>2024-07-23T08:33:03Z</time>
      </trkpt>
      <trkpt lat="45.90407" lon="2.99274">
        <ele>737.6</ele>
        <time>2024-07-23T08:33:04Z</time>
      </trkpt>
      <trkpt lat="45.90407" lon="2.99275">
        <ele>737.5</ele>
        <time>2024-07-23T08:33:05Z</time>
      </trkpt>
      <trkpt lat="45.90407" lon="2.99277">
        <ele>736.7</ele>
        <time>2024-07-23T08:33:06Z</time>
      </trkpt>
      <trkpt lat="45.90407" lon="2.99278">
        <ele>735.7</ele>
        <time>2024-07-23T08:33:07Z</time>
      </trkpt>
      <trkpt lat="45.90408" lon="2.99279">
        <ele>738.2</ele>
        <time>2024-07-23T08:33:12Z</time>
      </trkpt>
      <trkpt lat="45.90409" lon="2.9928">
        <ele>739.3</ele>
        <time>2024-07-23T08:33:36Z</time>
      </trkpt>
      <trkpt lat="45.9041" lon="2.99282">
        <ele>740</ele>
        <time>2024-07-23T08:33:47Z</time>
      </trkpt>
      <trkpt lat="45.90411" lon="2.99281">
        <ele>739.4</ele>
        <time>2024-07-23T08:33:49Z</time>
      </trkpt>
      <trkpt lat="45.90412" lon="2.9928">
        <ele>739.4</ele>
        <time>2024-07-23T08:33:50Z</time>
      </trkpt>
      <trkpt lat="45.90411" lon="2.99281">
        <ele>738</ele>
        <time>2024-07-23T08:34:32Z</time>
      </trkpt>
      <trkpt lat="45.90411" lon="2.99282">
        <ele>737.6</ele>
        <time>2024-07-23T08:34:33Z</time>
      </trkpt>
      <trkpt lat="45.90411" lon="2.99284">
        <ele>737.4</ele>
        <time>2024-07-23T08:34:34Z</time>
      </trkpt>
      <trkpt lat="45.90411" lon="2.99286">
        <ele>736.1</ele>
        <time>2024-07-23T08:34:36Z</time>
      </trkpt>
      <trkpt lat="45.90411" lon="2.99288">
        <ele>735</ele>
        <time>2024-07-23T08:34:37Z</time>
      </trkpt>
      <trkpt lat="45.90411" lon="2.99289">
        <ele>735.5</ele>
        <time>2024-07-23T08:34:38Z</time>
      </trkpt>
      <trkpt lat="45.90412" lon="2.99291">
        <ele>737</ele>
        <time>2024-07-23T08:34:40Z</time>
      </trkpt>
      <trkpt lat="45.90412" lon="2.99293">
        <ele>736.9</ele>
        <time>2024-07-23T08:34:41Z</time>
      </trkpt>
      <trkpt lat="45.90413" lon="2.99294">
        <ele>736.4</ele>
        <time>2024-07-23T08:34:42Z</time>
      </trkpt>
      <trkpt lat="45.90413" lon="2.99295">
        <ele>737.3</ele>
        <time>2024-07-23T08:34:43Z</time>
      </trkpt>
      <trkpt lat="45.90414" lon="2.99296">
        <ele>737</ele>
        <time>2024-07-23T08:34:45Z</time>
      </trkpt>
      <trkpt lat="45.90415" lon="2.99297">
        <ele>736.6</ele>
        <time>2024-07-23T08:34:46Z</time>
      </trkpt>
      <trkpt lat="45.90416" lon="2.99297">
        <ele>735.4</ele>
        <time>2024-07-23T08:34:47Z</time>
      </trkpt>
      <trkpt lat="45.90417" lon="2.99297">
        <ele>732.2</ele>
        <time>2024-07-23T08:34:48Z</time>
      </trkpt>
      <trkpt lat="45.90419" lon="2.99296">
        <ele>732.1</ele>
        <time>2024-07-23T08:34:50Z</time>
      </trkpt>
      <trkpt lat="45.90419" lon="2.99299">
        <ele>737.7</ele>
        <time>2024-07-23T08:34:53Z</time>
      </trkpt>
      <trkpt lat="45.9042" lon="2.993">
        <ele>738.5</ele>
        <time>2024-07-23T08:34:56Z</time>
      </trkpt>
      <trkpt lat="45.9042" lon="2.99301">
        <ele>736.3</ele>
        <time>2024-07-23T08:34:57Z</time>
      </trkpt>
      <trkpt lat="45.90421" lon="2.99302">
        <ele>734</ele>
        <time>2024-07-23T08:34:58Z</time>
      </trkpt>
      <trkpt lat="45.90423" lon="2.99303">
        <ele>733.5</ele>
        <time>2024-07-23T08:34:59Z</time>
      </trkpt>
      <trkpt lat="45.90424" lon="2.99304">
        <ele>734.8</ele>
        <time>2024-07-23T08:35:01Z</time>
      </trkpt>
      <trkpt lat="45.90424" lon="2.99306">
        <ele>734.1</ele>
        <time>2024-07-23T08:35:02Z</time>
      </trkpt>
      <trkpt lat="45.90425" lon="2.99308">
        <ele>734.2</ele>
        <time>2024-07-23T08:35:03Z</time>
      </trkpt>
      <trkpt lat="45.90425" lon="2.99309">
        <ele>735.6</ele>
        <time>2024-07-23T08:35:04Z</time>
      </trkpt>
      <trkpt lat="45.90426" lon="2.99311">
        <ele>736</ele>
        <time>2024-07-23T08:35:05Z</time>
      </trkpt>
      <trkpt lat="45.90427" lon="2.99312">
        <ele>736.4</ele>
        <time>2024-07-23T08:35:06Z</time>
      </trkpt>
      <trkpt lat="45.90427" lon="2.99313">
        <ele>736.2</ele>
        <time>2024-07-23T08:35:07Z</time>
      </trkpt>
      <trkpt lat="45.90428" lon="2.99315">
        <ele>736.6</ele>
        <time>2024-07-23T08:35:08Z</time>
      </trkpt>
      <trkpt lat="45.90428" lon="2.99316">
        <ele>734.7</ele>
        <time>2024-07-23T08:35:09Z</time>
      </trkpt>
      <trkpt lat="45.90428" lon="2.99317">
        <ele>735.8</ele>
        <time>2024-07-23T08:35:10Z</time>
      </trkpt>
      <trkpt lat="45.90429" lon="2.99319">
        <ele>735.2</ele>
        <time>2024-07-23T08:35:11Z</time>
      </trkpt>
      <trkpt lat="45.90429" lon="2.99321">
        <ele>735.8</ele>
        <time>2024-07-23T08:35:12Z</time>
      </trkpt>
      <trkpt lat="45.90429" lon="2.99323">
        <ele>738.9</ele>
        <time>2024-07-23T08:35:13Z</time>
      </trkpt>
      <trkpt lat="45.90429" lon="2.99324">
        <ele>738.4</ele>
        <time>2024-07-23T08:35:14Z</time>
      </trkpt>
      <trkpt lat="45.9043" lon="2.99325">
        <ele>738.9</ele>
        <time>2024-07-23T08:35:15Z</time>
      </trkpt>
      <trkpt lat="45.90431" lon="2.99326">
        <ele>739</ele>
        <time>2024-07-23T08:35:16Z</time>
      </trkpt>
      <trkpt lat="45.90431" lon="2.99328">
        <ele>738.7</ele>
        <time>2024-07-23T08:35:18Z</time>
      </trkpt>
      <trkpt lat="45.90431" lon="2.9933">
        <ele>736.7</ele>
        <time>2024-07-23T08:35:19Z</time>
      </trkpt>
      <trkpt lat="45.90431" lon="2.99332">
        <ele>735.4</ele>
        <time>2024-07-23T08:35:20Z</time>
      </trkpt>
      <trkpt lat="45.90431" lon="2.99333">
        <ele>737.6</ele>
        <time>2024-07-23T08:35:21Z</time>
      </trkpt>
      <trkpt lat="45.90431" lon="2.99335">
        <ele>740.6</ele>
        <time>2024-07-23T08:35:22Z</time>
      </trkpt>
      <trkpt lat="45.90432" lon="2.99336">
        <ele>739.4</ele>
        <time>2024-07-23T08:35:23Z</time>
      </trkpt>
      <trkpt lat="45.90432" lon="2.99338">
        <ele>741.6</ele>
        <time>2024-07-23T08:35:24Z</time>
      </trkpt>
      <trkpt lat="45.90433" lon="2.99339">
        <ele>741.8</ele>
        <time>2024-07-23T08:35:25Z</time>
      </trkpt>
      <trkpt lat="45.90434" lon="2.99342">
        <ele>742.4</ele>
        <time>2024-07-23T08:35:27Z</time>
      </trkpt>
      <trkpt lat="45.90435" lon="2.99343">
        <ele>741.9</ele>
        <time>2024-07-23T08:35:28Z</time>
      </trkpt>
      <trkpt lat="45.90436" lon="2.99344">
        <ele>742.6</ele>
        <time>2024-07-23T08:35:29Z</time>
      </trkpt>
      <trkpt lat="45.90437" lon="2.99344">
        <ele>742.4</ele>
        <time>2024-07-23T08:35:30Z</time>
      </trkpt>
      <trkpt lat="45.90438" lon="2.99345">
        <ele>741.6</ele>
        <time>2024-07-23T08:35:31Z</time>
      </trkpt>
      <trkpt lat="45.90439" lon="2.99347">
        <ele>741.4</ele>
        <time>2024-07-23T08:35:32Z</time>
      </trkpt>
      <trkpt lat="45.9044" lon="2.99349">
        <ele>741.5</ele>
        <time>2024-07-23T08:35:33Z</time>
      </trkpt>
      <trkpt lat="45.90441" lon="2.9935">
        <ele>741.9</ele>
        <time>2024-07-23T08:35:34Z</time>
      </trkpt>
      <trkpt lat="45.90442" lon="2.99352">
        <ele>742.1</ele>
        <time>2024-07-23T08:35:35Z</time>
      </trkpt>
      <trkpt lat="45.90442" lon="2.99353">
        <ele>741.9</ele>
        <time>2024-07-23T08:35:36Z</time>
      </trkpt>
      <trkpt lat="45.90443" lon="2.99354">
        <ele>741.7</ele>
        <time>2024-07-23T08:35:37Z</time>
      </trkpt>
      <trkpt lat="45.90444" lon="2.99355">
        <ele>741.6</ele>
        <time>2024-07-23T08:35:38Z</time>
      </trkpt>
      <trkpt lat="45.90444" lon="2.99357">
        <ele>740.9</ele>
        <time>2024-07-23T08:35:39Z</time>
      </trkpt>
      <trkpt lat="45.90445" lon="2.99358">
        <ele>736.3</ele>
        <time>2024-07-23T08:35:41Z</time>
      </trkpt>
      <trkpt lat="45.90446" lon="2.99358">
        <ele>735.4</ele>
        <time>2024-07-23T08:35:42Z</time>
      </trkpt>
      <trkpt lat="45.90447" lon="2.99359">
        <ele>735.2</ele>
        <time>2024-07-23T08:35:43Z</time>
      </trkpt>
      <trkpt lat="45.90448" lon="2.9936">
        <ele>734.5</ele>
        <time>2024-07-23T08:35:44Z</time>
      </trkpt>
      <trkpt lat="45.90448" lon="2.99362">
        <ele>733.3</ele>
        <time>2024-07-23T08:35:45Z</time>
      </trkpt>
      <trkpt lat="45.90449" lon="2.99364">
        <ele>732.8</ele>
        <time>2024-07-23T08:35:46Z</time>
      </trkpt>
      <trkpt lat="45.9045" lon="2.99365">
        <ele>733.4</ele>
        <time>2024-07-23T08:35:47Z</time>
      </trkpt>
      <trkpt lat="45.90451" lon="2.99367">
        <ele>733.4</ele>
        <time>2024-07-23T08:35:48Z</time>
      </trkpt>
      <trkpt lat="45.90451" lon="2.99368">
        <ele>733.2</ele>
        <time>2024-07-23T08:35:49Z</time>
      </trkpt>
      <trkpt lat="45.90452" lon="2.99369">
        <ele>733.6</ele>
        <time>2024-07-23T08:35:50Z</time>
      </trkpt>
      <trkpt lat="45.90453" lon="2.99371">
        <ele>732.7</ele>
        <time>2024-07-23T08:35:51Z</time>
      </trkpt>
      <trkpt lat="45.90453" lon="2.99372">
        <ele>732.2</ele>
        <time>2024-07-23T08:35:52Z</time>
      </trkpt>
      <trkpt lat="45.90454" lon="2.99374">
        <ele>732.8</ele>
        <time>2024-07-23T08:35:53Z</time>
      </trkpt>
      <trkpt lat="45.90455" lon="2.99376">
        <ele>733.2</ele>
        <time>2024-07-23T08:35:54Z</time>
      </trkpt>
      <trkpt lat="45.90455" lon="2.99377">
        <ele>732.2</ele>
        <time>2024-07-23T08:35:55Z</time>
      </trkpt>
      <trkpt lat="45.90456" lon="2.99378">
        <ele>731.7</ele>
        <time>2024-07-23T08:35:56Z</time>
      </trkpt>
      <trkpt lat="45.90457" lon="2.99381">
        <ele>731</ele>
        <time>2024-07-23T08:35:58Z</time>
      </trkpt>
      <trkpt lat="45.90458" lon="2.99382">
        <ele>730.1</ele>
        <time>2024-07-23T08:35:59Z</time>
      </trkpt>
      <trkpt lat="45.90459" lon="2.99384">
        <ele>730.1</ele>
        <time>2024-07-23T08:36:00Z</time>
      </trkpt>
      <trkpt lat="45.9046" lon="2.99385">
        <ele>729.2</ele>
        <time>2024-07-23T08:36:01Z</time>
      </trkpt>
      <trkpt lat="45.90461" lon="2.99386">
        <ele>728.8</ele>
        <time>2024-07-23T08:36:02Z</time>
      </trkpt>
      <trkpt lat="45.90462" lon="2.99387">
        <ele>729.3</ele>
        <time>2024-07-23T08:36:03Z</time>
      </trkpt>
      <trkpt lat="45.90463" lon="2.99387">
        <ele>729.4</ele>
        <time>2024-07-23T08:36:04Z</time>
      </trkpt>
      <trkpt lat="45.90464" lon="2.99388">
        <ele>728.6</ele>
        <time>2024-07-23T08:36:05Z</time>
      </trkpt>
      <trkpt lat="45.90465" lon="2.99389">
        <ele>728.8</ele>
        <time>2024-07-23T08:36:06Z</time>
      </trkpt>
      <trkpt lat="45.90466" lon="2.9939">
        <ele>728.4</ele>
        <time>2024-07-23T08:36:07Z</time>
      </trkpt>
      <trkpt lat="45.90467" lon="2.99391">
        <ele>728.6</ele>
        <time>2024-07-23T08:36:08Z</time>
      </trkpt>
      <trkpt lat="45.90468" lon="2.99392">
        <ele>729.7</ele>
        <time>2024-07-23T08:36:09Z</time>
      </trkpt>
      <trkpt lat="45.90469" lon="2.99394">
        <ele>729.2</ele>
        <time>2024-07-23T08:36:11Z</time>
      </trkpt>
      <trkpt lat="45.9047" lon="2.99395">
        <ele>728.5</ele>
        <time>2024-07-23T08:36:12Z</time>
      </trkpt>
      <trkpt lat="45.90471" lon="2.99396">
        <ele>728</ele>
        <time>2024-07-23T08:36:13Z</time>
      </trkpt>
      <trkpt lat="45.90472" lon="2.99397">
        <ele>728</ele>
        <time>2024-07-23T08:36:14Z</time>
      </trkpt>
      <trkpt lat="45.90472" lon="2.99398">
        <ele>727.7</ele>
        <time>2024-07-23T08:36:15Z</time>
      </trkpt>
      <trkpt lat="45.90473" lon="2.99399">
        <ele>728.4</ele>
        <time>2024-07-23T08:36:16Z</time>
      </trkpt>
      <trkpt lat="45.90474" lon="2.99399">
        <ele>728</ele>
        <time>2024-07-23T08:36:17Z</time>
      </trkpt>
      <trkpt lat="45.90475" lon="2.994">
        <ele>728</ele>
        <time>2024-07-23T08:36:18Z</time>
      </trkpt>
      <trkpt lat="45.90477" lon="2.99401">
        <ele>728</ele>
        <time>2024-07-23T08:36:19Z</time>
      </trkpt>
      <trkpt lat="45.90477" lon="2.99402">
        <ele>728.2</ele>
        <time>2024-07-23T08:36:20Z</time>
      </trkpt>
      <trkpt lat="45.90478" lon="2.99404">
        <ele>728.1</ele>
        <time>2024-07-23T08:36:21Z</time>
      </trkpt>
      <trkpt lat="45.90478" lon="2.99406">
        <ele>727.7</ele>
        <time>2024-07-23T08:36:22Z</time>
      </trkpt>
      <trkpt lat="45.90479" lon="2.99408">
        <ele>726.7</ele>
        <time>2024-07-23T08:36:23Z</time>
      </trkpt>
      <trkpt lat="45.9048" lon="2.99409">
        <ele>726.8</ele>
        <time>2024-07-23T08:36:24Z</time>
      </trkpt>
      <trkpt lat="45.90481" lon="2.9941">
        <ele>727.6</ele>
        <time>2024-07-23T08:36:25Z</time>
      </trkpt>
      <trkpt lat="45.90482" lon="2.99411">
        <ele>728.1</ele>
        <time>2024-07-23T08:36:26Z</time>
      </trkpt>
      <trkpt lat="45.90483" lon="2.99412">
        <ele>727.7</ele>
        <time>2024-07-23T08:36:27Z</time>
      </trkpt>
      <trkpt lat="45.90483" lon="2.99414">
        <ele>727.9</ele>
        <time>2024-07-23T08:36:28Z</time>
      </trkpt>
      <trkpt lat="45.90484" lon="2.99415">
        <ele>728.2</ele>
        <time>2024-07-23T08:36:29Z</time>
      </trkpt>
      <trkpt lat="45.90485" lon="2.99416">
        <ele>727.4</ele>
        <time>2024-07-23T08:36:30Z</time>
      </trkpt>
      <trkpt lat="45.90485" lon="2.99417">
        <ele>728.2</ele>
        <time>2024-07-23T08:36:31Z</time>
      </trkpt>
      <trkpt lat="45.90487" lon="2.99418">
        <ele>729</ele>
        <time>2024-07-23T08:36:33Z</time>
      </trkpt>
      <trkpt lat="45.90488" lon="2.99419">
        <ele>729.1</ele>
        <time>2024-07-23T08:36:35Z</time>
      </trkpt>
      <trkpt lat="45.9049" lon="2.99421">
        <ele>729.2</ele>
        <time>2024-07-23T08:36:37Z</time>
      </trkpt>
      <trkpt lat="45.9049" lon="2.99422">
        <ele>729.2</ele>
        <time>2024-07-23T08:36:38Z</time>
      </trkpt>
      <trkpt lat="45.90491" lon="2.99423">
        <ele>729.2</ele>
        <time>2024-07-23T08:36:39Z</time>
      </trkpt>
      <trkpt lat="45.90492" lon="2.99424">
        <ele>729.1</ele>
        <time>2024-07-23T08:36:40Z</time>
      </trkpt>
      <trkpt lat="45.90493" lon="2.99425">
        <ele>729.9</ele>
        <time>2024-07-23T08:36:42Z</time>
      </trkpt>
      <trkpt lat="45.90494" lon="2.99426">
        <ele>729.7</ele>
        <time>2024-07-23T08:36:43Z</time>
      </trkpt>
      <trkpt lat="45.90495" lon="2.99427">
        <ele>729.2</ele>
        <time>2024-07-23T08:36:44Z</time>
      </trkpt>
      <trkpt lat="45.90496" lon="2.99428">
        <ele>728.5</ele>
        <time>2024-07-23T08:36:45Z</time>
      </trkpt>
      <trkpt lat="45.90497" lon="2.9943">
        <ele>729.2</ele>
        <time>2024-07-23T08:36:46Z</time>
      </trkpt>
      <trkpt lat="45.90498" lon="2.99431">
        <ele>729.2</ele>
        <time>2024-07-23T08:36:47Z</time>
      </trkpt>
      <trkpt lat="45.90499" lon="2.99432">
        <ele>728.9</ele>
        <time>2024-07-23T08:36:48Z</time>
      </trkpt>
      <trkpt lat="45.905" lon="2.99432">
        <ele>732.2</ele>
        <time>2024-07-23T08:36:50Z</time>
      </trkpt>
      <trkpt lat="45.90501" lon="2.99434">
        <ele>730.7</ele>
        <time>2024-07-23T08:36:53Z</time>
      </trkpt>
      <trkpt lat="45.90501" lon="2.99436">
        <ele>731.1</ele>
        <time>2024-07-23T08:36:55Z</time>
      </trkpt>
      <trkpt lat="45.90502" lon="2.99437">
        <ele>729.4</ele>
        <time>2024-07-23T08:36:56Z</time>
      </trkpt>
      <trkpt lat="45.90503" lon="2.99438">
        <ele>728.9</ele>
        <time>2024-07-23T08:36:57Z</time>
      </trkpt>
      <trkpt lat="45.90504" lon="2.9944">
        <ele>728.2</ele>
        <time>2024-07-23T08:36:58Z</time>
      </trkpt>
      <trkpt lat="45.90506" lon="2.99444">
        <ele>727.2</ele>
        <time>2024-07-23T08:37:00Z</time>
      </trkpt>
      <trkpt lat="45.90506" lon="2.99446">
        <ele>727.2</ele>
        <time>2024-07-23T08:37:01Z</time>
      </trkpt>
      <trkpt lat="45.90507" lon="2.99447">
        <ele>724.9</ele>
        <time>2024-07-23T08:37:02Z</time>
      </trkpt>
      <trkpt lat="45.90507" lon="2.99451">
        <ele>724.2</ele>
        <time>2024-07-23T08:37:04Z</time>
      </trkpt>
      <trkpt lat="45.90508" lon="2.99453">
        <ele>722.8</ele>
        <time>2024-07-23T08:37:05Z</time>
      </trkpt>
      <trkpt lat="45.90509" lon="2.99454">
        <ele>722</ele>
        <time>2024-07-23T08:37:06Z</time>
      </trkpt>
      <trkpt lat="45.90509" lon="2.99456">
        <ele>720</ele>
        <time>2024-07-23T08:37:07Z</time>
      </trkpt>
      <trkpt lat="45.9051" lon="2.99457">
        <ele>720.5</ele>
        <time>2024-07-23T08:37:08Z</time>
      </trkpt>
      <trkpt lat="45.90511" lon="2.9946">
        <ele>715.1</ele>
        <time>2024-07-23T08:37:09Z</time>
      </trkpt>
      <trkpt lat="45.90512" lon="2.99462">
        <ele>715.8</ele>
        <time>2024-07-23T08:37:10Z</time>
      </trkpt>
      <trkpt lat="45.90513" lon="2.99464">
        <ele>714.5</ele>
        <time>2024-07-23T08:37:11Z</time>
      </trkpt>
      <trkpt lat="45.90514" lon="2.99465">
        <ele>713.8</ele>
        <time>2024-07-23T08:37:12Z</time>
      </trkpt>
      <trkpt lat="45.90515" lon="2.99466">
        <ele>713.6</ele>
        <time>2024-07-23T08:37:13Z</time>
      </trkpt>
      <trkpt lat="45.90516" lon="2.99467">
        <ele>713.8</ele>
        <time>2024-07-23T08:37:14Z</time>
      </trkpt>
      <trkpt lat="45.90517" lon="2.99468">
        <ele>712.6</ele>
        <time>2024-07-23T08:37:15Z</time>
      </trkpt>
      <trkpt lat="45.90518" lon="2.99469">
        <ele>712.8</ele>
        <time>2024-07-23T08:37:16Z</time>
      </trkpt>
      <trkpt lat="45.90518" lon="2.9947">
        <ele>712.3</ele>
        <time>2024-07-23T08:37:17Z</time>
      </trkpt>
      <trkpt lat="45.90519" lon="2.99472">
        <ele>713.3</ele>
        <time>2024-07-23T08:37:18Z</time>
      </trkpt>
      <trkpt lat="45.9052" lon="2.99472">
        <ele>716.9</ele>
        <time>2024-07-23T08:37:20Z</time>
      </trkpt>
      <trkpt lat="45.90521" lon="2.99474">
        <ele>717.6</ele>
        <time>2024-07-23T08:37:22Z</time>
      </trkpt>
      <trkpt lat="45.90522" lon="2.99475">
        <ele>717.7</ele>
        <time>2024-07-23T08:37:23Z</time>
      </trkpt>
      <trkpt lat="45.90522" lon="2.99477">
        <ele>717</ele>
        <time>2024-07-23T08:37:25Z</time>
      </trkpt>
      <trkpt lat="45.90523" lon="2.99478">
        <ele>716.7</ele>
        <time>2024-07-23T08:37:26Z</time>
      </trkpt>
      <trkpt lat="45.90523" lon="2.99479">
        <ele>717.1</ele>
        <time>2024-07-23T08:37:27Z</time>
      </trkpt>
      <trkpt lat="45.90524" lon="2.99481">
        <ele>715.9</ele>
        <time>2024-07-23T08:37:28Z</time>
      </trkpt>
      <trkpt lat="45.90524" lon="2.99482">
        <ele>715.4</ele>
        <time>2024-07-23T08:37:29Z</time>
      </trkpt>
      <trkpt lat="45.90524" lon="2.99484">
        <ele>715.3</ele>
        <time>2024-07-23T08:37:30Z</time>
      </trkpt>
      <trkpt lat="45.90525" lon="2.99486">
        <ele>715.3</ele>
        <time>2024-07-23T08:37:31Z</time>
      </trkpt>
      <trkpt lat="45.90526" lon="2.99487">
        <ele>715.5</ele>
        <time>2024-07-23T08:37:32Z</time>
      </trkpt>
      <trkpt lat="45.90527" lon="2.99488">
        <ele>715.1</ele>
        <time>2024-07-23T08:37:33Z</time>
      </trkpt>
      <trkpt lat="45.90528" lon="2.99489">
        <ele>715.2</ele>
        <time>2024-07-23T08:37:34Z</time>
      </trkpt>
      <trkpt lat="45.90529" lon="2.99491">
        <ele>715.2</ele>
        <time>2024-07-23T08:37:36Z</time>
      </trkpt>
      <trkpt lat="45.9053" lon="2.99492">
        <ele>715.9</ele>
        <time>2024-07-23T08:37:37Z</time>
      </trkpt>
      <trkpt lat="45.90531" lon="2.99493">
        <ele>717</ele>
        <time>2024-07-23T08:37:38Z</time>
      </trkpt>
      <trkpt lat="45.90531" lon="2.99494">
        <ele>717.5</ele>
        <time>2024-07-23T08:37:39Z</time>
      </trkpt>
      <trkpt lat="45.90532" lon="2.99495">
        <ele>717.6</ele>
        <time>2024-07-23T08:37:40Z</time>
      </trkpt>
      <trkpt lat="45.90533" lon="2.99496">
        <ele>717.2</ele>
        <time>2024-07-23T08:37:41Z</time>
      </trkpt>
      <trkpt lat="45.90534" lon="2.99497">
        <ele>717.1</ele>
        <time>2024-07-23T08:37:42Z</time>
      </trkpt>
      <trkpt lat="45.90534" lon="2.99498">
        <ele>716.3</ele>
        <time>2024-07-23T08:37:43Z</time>
      </trkpt>
      <trkpt lat="45.90535" lon="2.99499">
        <ele>716.6</ele>
        <time>2024-07-23T08:37:44Z</time>
      </trkpt>
      <trkpt lat="45.90536" lon="2.995">
        <ele>716.8</ele>
        <time>2024-07-23T08:37:45Z</time>
      </trkpt>
      <trkpt lat="45.90536" lon="2.99501">
        <ele>717</ele>
        <time>2024-07-23T08:37:46Z</time>
      </trkpt>
      <trkpt lat="45.90537" lon="2.99503">
        <ele>715.9</ele>
        <time>2024-07-23T08:37:47Z</time>
      </trkpt>
      <trkpt lat="45.90538" lon="2.99505">
        <ele>716.4</ele>
        <time>2024-07-23T08:37:49Z</time>
      </trkpt>
      <trkpt lat="45.90538" lon="2.99507">
        <ele>717.3</ele>
        <time>2024-07-23T08:37:50Z</time>
      </trkpt>
      <trkpt lat="45.90538" lon="2.99509">
        <ele>717</ele>
        <time>2024-07-23T08:37:51Z</time>
      </trkpt>
      <trkpt lat="45.90538" lon="2.9951">
        <ele>716.2</ele>
        <time>2024-07-23T08:37:52Z</time>
      </trkpt>
      <trkpt lat="45.90538" lon="2.99511">
        <ele>716.5</ele>
        <time>2024-07-23T08:37:53Z</time>
      </trkpt>
      <trkpt lat="45.9054" lon="2.99512">
        <ele>716.2</ele>
        <time>2024-07-23T08:37:55Z</time>
      </trkpt>
      <trkpt lat="45.90541" lon="2.99513">
        <ele>717.4</ele>
        <time>2024-07-23T08:37:56Z</time>
      </trkpt>
      <trkpt lat="45.90542" lon="2.99514">
        <ele>717.7</ele>
        <time>2024-07-23T08:37:57Z</time>
      </trkpt>
      <trkpt lat="45.90543" lon="2.99514">
        <ele>719.2</ele>
        <time>2024-07-23T08:37:59Z</time>
      </trkpt>
      <trkpt lat="45.90544" lon="2.99515">
        <ele>719.6</ele>
        <time>2024-07-23T08:38:01Z</time>
      </trkpt>
      <trkpt lat="45.90545" lon="2.99516">
        <ele>719.3</ele>
        <time>2024-07-23T08:38:03Z</time>
      </trkpt>
      <trkpt lat="45.90546" lon="2.99518">
        <ele>719.7</ele>
        <time>2024-07-23T08:38:05Z</time>
      </trkpt>
      <trkpt lat="45.90547" lon="2.99519">
        <ele>719.1</ele>
        <time>2024-07-23T08:38:06Z</time>
      </trkpt>
      <trkpt lat="45.90548" lon="2.9952">
        <ele>719.5</ele>
        <time>2024-07-23T08:38:07Z</time>
      </trkpt>
      <trkpt lat="45.90548" lon="2.99521">
        <ele>718.3</ele>
        <time>2024-07-23T08:38:08Z</time>
      </trkpt>
      <trkpt lat="45.90549" lon="2.99523">
        <ele>718.1</ele>
        <time>2024-07-23T08:38:09Z</time>
      </trkpt>
      <trkpt lat="45.9055" lon="2.99524">
        <ele>718.1</ele>
        <time>2024-07-23T08:38:10Z</time>
      </trkpt>
      <trkpt lat="45.9055" lon="2.99525">
        <ele>719.4</ele>
        <time>2024-07-23T08:38:11Z</time>
      </trkpt>
      <trkpt lat="45.9055" lon="2.99526">
        <ele>719.3</ele>
        <time>2024-07-23T08:38:12Z</time>
      </trkpt>
      <trkpt lat="45.90551" lon="2.99528">
        <ele>719.6</ele>
        <time>2024-07-23T08:38:13Z</time>
      </trkpt>
      <trkpt lat="45.90551" lon="2.99529">
        <ele>720.7</ele>
        <time>2024-07-23T08:38:14Z</time>
      </trkpt>
      <trkpt lat="45.90551" lon="2.9953">
        <ele>721.2</ele>
        <time>2024-07-23T08:38:15Z</time>
      </trkpt>
      <trkpt lat="45.90551" lon="2.99532">
        <ele>721.9</ele>
        <time>2024-07-23T08:38:16Z</time>
      </trkpt>
      <trkpt lat="45.90551" lon="2.99533">
        <ele>721.7</ele>
        <time>2024-07-23T08:38:17Z</time>
      </trkpt>
      <trkpt lat="45.90551" lon="2.99535">
        <ele>722.2</ele>
        <time>2024-07-23T08:38:19Z</time>
      </trkpt>
      <trkpt lat="45.90551" lon="2.99538">
        <ele>721.7</ele>
        <time>2024-07-23T08:38:21Z</time>
      </trkpt>
      <trkpt lat="45.90551" lon="2.99539">
        <ele>722</ele>
        <time>2024-07-23T08:38:22Z</time>
      </trkpt>
      <trkpt lat="45.90552" lon="2.99541">
        <ele>722.1</ele>
        <time>2024-07-23T08:38:23Z</time>
      </trkpt>
      <trkpt lat="45.90552" lon="2.99542">
        <ele>722.6</ele>
        <time>2024-07-23T08:38:24Z</time>
      </trkpt>
      <trkpt lat="45.90553" lon="2.99543">
        <ele>722.5</ele>
        <time>2024-07-23T08:38:25Z</time>
      </trkpt>
      <trkpt lat="45.90553" lon="2.99545">
        <ele>722</ele>
        <time>2024-07-23T08:38:26Z</time>
      </trkpt>
      <trkpt lat="45.90553" lon="2.99546">
        <ele>721.7</ele>
        <time>2024-07-23T08:38:27Z</time>
      </trkpt>
      <trkpt lat="45.90554" lon="2.99547">
        <ele>720.9</ele>
        <time>2024-07-23T08:38:28Z</time>
      </trkpt>
      <trkpt lat="45.90554" lon="2.99549">
        <ele>720.8</ele>
        <time>2024-07-23T08:38:29Z</time>
      </trkpt>
      <trkpt lat="45.90554" lon="2.9955">
        <ele>720.4</ele>
        <time>2024-07-23T08:38:30Z</time>
      </trkpt>
      <trkpt lat="45.90554" lon="2.99552">
        <ele>720.3</ele>
        <time>2024-07-23T08:38:31Z</time>
      </trkpt>
      <trkpt lat="45.90554" lon="2.99554">
        <ele>719.4</ele>
        <time>2024-07-23T08:38:33Z</time>
      </trkpt>
      <trkpt lat="45.90555" lon="2.99556">
        <ele>719.1</ele>
        <time>2024-07-23T08:38:34Z</time>
      </trkpt>
      <trkpt lat="45.90556" lon="2.99557">
        <ele>718.4</ele>
        <time>2024-07-23T08:38:36Z</time>
      </trkpt>
      <trkpt lat="45.90556" lon="2.9956">
        <ele>716</ele>
        <time>2024-07-23T08:38:38Z</time>
      </trkpt>
      <trkpt lat="45.90555" lon="2.99562">
        <ele>715.8</ele>
        <time>2024-07-23T08:38:39Z</time>
      </trkpt>
      <trkpt lat="45.90555" lon="2.99563">
        <ele>716.1</ele>
        <time>2024-07-23T08:38:40Z</time>
      </trkpt>
      <trkpt lat="45.90554" lon="2.99564">
        <ele>715.5</ele>
        <time>2024-07-23T08:38:41Z</time>
      </trkpt>
      <trkpt lat="45.90554" lon="2.99566">
        <ele>714.4</ele>
        <time>2024-07-23T08:38:42Z</time>
      </trkpt>
      <trkpt lat="45.90554" lon="2.99568">
        <ele>711.6</ele>
        <time>2024-07-23T08:38:44Z</time>
      </trkpt>
      <trkpt lat="45.90554" lon="2.99571">
        <ele>711.1</ele>
        <time>2024-07-23T08:38:45Z</time>
      </trkpt>
      <trkpt lat="45.90554" lon="2.99573">
        <ele>710.1</ele>
        <time>2024-07-23T08:38:46Z</time>
      </trkpt>
      <trkpt lat="45.90554" lon="2.99575">
        <ele>710.2</ele>
        <time>2024-07-23T08:38:47Z</time>
      </trkpt>
      <trkpt lat="45.90554" lon="2.99576">
        <ele>709.9</ele>
        <time>2024-07-23T08:38:48Z</time>
      </trkpt>
      <trkpt lat="45.90554" lon="2.99579">
        <ele>711.3</ele>
        <time>2024-07-23T08:38:50Z</time>
      </trkpt>
      <trkpt lat="45.90554" lon="2.99581">
        <ele>711.6</ele>
        <time>2024-07-23T08:38:51Z</time>
      </trkpt>
      <trkpt lat="45.90554" lon="2.99582">
        <ele>712.4</ele>
        <time>2024-07-23T08:38:52Z</time>
      </trkpt>
      <trkpt lat="45.90555" lon="2.99584">
        <ele>708.9</ele>
        <time>2024-07-23T08:38:54Z</time>
      </trkpt>
      <trkpt lat="45.90556" lon="2.99586">
        <ele>709.3</ele>
        <time>2024-07-23T08:38:55Z</time>
      </trkpt>
      <trkpt lat="45.90557" lon="2.99588">
        <ele>708.2</ele>
        <time>2024-07-23T08:38:56Z</time>
      </trkpt>
      <trkpt lat="45.90558" lon="2.9959">
        <ele>708.6</ele>
        <time>2024-07-23T08:38:57Z</time>
      </trkpt>
      <trkpt lat="45.90559" lon="2.99592">
        <ele>708.8</ele>
        <time>2024-07-23T08:38:58Z</time>
      </trkpt>
      <trkpt lat="45.90559" lon="2.99594">
        <ele>709.4</ele>
        <time>2024-07-23T08:38:59Z</time>
      </trkpt>
      <trkpt lat="45.9056" lon="2.99597">
        <ele>709.6</ele>
        <time>2024-07-23T08:39:01Z</time>
      </trkpt>
      <trkpt lat="45.9056" lon="2.99599">
        <ele>712.4</ele>
        <time>2024-07-23T08:39:02Z</time>
      </trkpt>
      <trkpt lat="45.9056" lon="2.99601">
        <ele>713.5</ele>
        <time>2024-07-23T08:39:03Z</time>
      </trkpt>
      <trkpt lat="45.9056" lon="2.99603">
        <ele>713.6</ele>
        <time>2024-07-23T08:39:04Z</time>
      </trkpt>
      <trkpt lat="45.9056" lon="2.99605">
        <ele>713.6</ele>
        <time>2024-07-23T08:39:05Z</time>
      </trkpt>
      <trkpt lat="45.9056" lon="2.99606">
        <ele>715</ele>
        <time>2024-07-23T08:39:06Z</time>
      </trkpt>
      <trkpt lat="45.9056" lon="2.99608">
        <ele>715.5</ele>
        <time>2024-07-23T08:39:07Z</time>
      </trkpt>
      <trkpt lat="45.90559" lon="2.99609">
        <ele>715.2</ele>
        <time>2024-07-23T08:39:08Z</time>
      </trkpt>
      <trkpt lat="45.90559" lon="2.99611">
        <ele>715.6</ele>
        <time>2024-07-23T08:39:09Z</time>
      </trkpt>
      <trkpt lat="45.90559" lon="2.99612">
        <ele>716.3</ele>
        <time>2024-07-23T08:39:10Z</time>
      </trkpt>
      <trkpt lat="45.90559" lon="2.99614">
        <ele>716.4</ele>
        <time>2024-07-23T08:39:11Z</time>
      </trkpt>
      <trkpt lat="45.90559" lon="2.99615">
        <ele>716.4</ele>
        <time>2024-07-23T08:39:12Z</time>
      </trkpt>
      <trkpt lat="45.90558" lon="2.99617">
        <ele>717</ele>
        <time>2024-07-23T08:39:14Z</time>
      </trkpt>
      <trkpt lat="45.90557" lon="2.99619">
        <ele>716.6</ele>
        <time>2024-07-23T08:39:17Z</time>
      </trkpt>
      <trkpt lat="45.90556" lon="2.9962">
        <ele>715.9</ele>
        <time>2024-07-23T08:39:19Z</time>
      </trkpt>
      <trkpt lat="45.90556" lon="2.99621">
        <ele>716.4</ele>
        <time>2024-07-23T08:39:21Z</time>
      </trkpt>
      <trkpt lat="45.90557" lon="2.99622">
        <ele>716.4</ele>
        <time>2024-07-23T08:39:24Z</time>
      </trkpt>
      <trkpt lat="45.90555" lon="2.99623">
        <ele>715.8</ele>
        <time>2024-07-23T08:39:29Z</time>
      </trkpt>
      <trkpt lat="45.90553" lon="2.99622">
        <ele>716</ele>
        <time>2024-07-23T08:39:31Z</time>
      </trkpt>
      <trkpt lat="45.90552" lon="2.99622">
        <ele>715.9</ele>
        <time>2024-07-23T08:39:33Z</time>
      </trkpt>
      <trkpt lat="45.9055" lon="2.99622">
        <ele>716</ele>
        <time>2024-07-23T08:39:35Z</time>
      </trkpt>
      <trkpt lat="45.90549" lon="2.99621">
        <ele>715.9</ele>
        <time>2024-07-23T08:39:37Z</time>
      </trkpt>
      <trkpt lat="45.90548" lon="2.9962">
        <ele>715.7</ele>
        <time>2024-07-23T08:39:39Z</time>
      </trkpt>
      <trkpt lat="45.90547" lon="2.99619">
        <ele>715.7</ele>
        <time>2024-07-23T08:39:41Z</time>
      </trkpt>
      <trkpt lat="45.90548" lon="2.9962">
        <ele>716.5</ele>
        <time>2024-07-23T08:39:52Z</time>
      </trkpt>
      <trkpt lat="45.90549" lon="2.99622">
        <ele>716.4</ele>
        <time>2024-07-23T08:39:53Z</time>
      </trkpt>
      <trkpt lat="45.90549" lon="2.99623">
        <ele>716</ele>
        <time>2024-07-23T08:39:54Z</time>
      </trkpt>
      <trkpt lat="45.9055" lon="2.99624">
        <ele>716.2</ele>
        <time>2024-07-23T08:39:55Z</time>
      </trkpt>
      <trkpt lat="45.9055" lon="2.99625">
        <ele>716.5</ele>
        <time>2024-07-23T08:39:56Z</time>
      </trkpt>
      <trkpt lat="45.90551" lon="2.99627">
        <ele>716.6</ele>
        <time>2024-07-23T08:39:57Z</time>
      </trkpt>
      <trkpt lat="45.90551" lon="2.99628">
        <ele>716.4</ele>
        <time>2024-07-23T08:39:58Z</time>
      </trkpt>
      <trkpt lat="45.90552" lon="2.99629">
        <ele>716.5</ele>
        <time>2024-07-23T08:39:59Z</time>
      </trkpt>
      <trkpt lat="45.90552" lon="2.99631">
        <ele>716.2</ele>
        <time>2024-07-23T08:40:00Z</time>
      </trkpt>
      <trkpt lat="45.90553" lon="2.99633">
        <ele>716.2</ele>
        <time>2024-07-23T08:40:02Z</time>
      </trkpt>
      <trkpt lat="45.90554" lon="2.99634">
        <ele>716.4</ele>
        <time>2024-07-23T08:40:03Z</time>
      </trkpt>
      <trkpt lat="45.90554" lon="2.99635">
        <ele>716.3</ele>
        <time>2024-07-23T08:40:04Z</time>
      </trkpt>
      <trkpt lat="45.90555" lon="2.99637">
        <ele>716.3</ele>
        <time>2024-07-23T08:40:05Z</time>
      </trkpt>
      <trkpt lat="45.90555" lon="2.99638">
        <ele>717</ele>
        <time>2024-07-23T08:40:06Z</time>
      </trkpt>
      <trkpt lat="45.90556" lon="2.99639">
        <ele>716.9</ele>
        <time>2024-07-23T08:40:07Z</time>
      </trkpt>
      <trkpt lat="45.90556" lon="2.9964">
        <ele>717</ele>
        <time>2024-07-23T08:40:08Z</time>
      </trkpt>
      <trkpt lat="45.90557" lon="2.99642">
        <ele>717.2</ele>
        <time>2024-07-23T08:40:09Z</time>
      </trkpt>
      <trkpt lat="45.90557" lon="2.99643">
        <ele>717.6</ele>
        <time>2024-07-23T08:40:10Z</time>
      </trkpt>
      <trkpt lat="45.90558" lon="2.99644">
        <ele>717.6</ele>
        <time>2024-07-23T08:40:11Z</time>
      </trkpt>
      <trkpt lat="45.90559" lon="2.99646">
        <ele>717.8</ele>
        <time>2024-07-23T08:40:13Z</time>
      </trkpt>
      <trkpt lat="45.90559" lon="2.99648">
        <ele>717.7</ele>
        <time>2024-07-23T08:40:14Z</time>
      </trkpt>
      <trkpt lat="45.9056" lon="2.99649">
        <ele>717.6</ele>
        <time>2024-07-23T08:40:15Z</time>
      </trkpt>
      <trkpt lat="45.9056" lon="2.9965">
        <ele>717.4</ele>
        <time>2024-07-23T08:40:16Z</time>
      </trkpt>
      <trkpt lat="45.90561" lon="2.99651">
        <ele>717.6</ele>
        <time>2024-07-23T08:40:17Z</time>
      </trkpt>
      <trkpt lat="45.90561" lon="2.99653">
        <ele>717.5</ele>
        <time>2024-07-23T08:40:18Z</time>
      </trkpt>
      <trkpt lat="45.90561" lon="2.99654">
        <ele>717.2</ele>
        <time>2024-07-23T08:40:19Z</time>
      </trkpt>
      <trkpt lat="45.90562" lon="2.99655">
        <ele>717.1</ele>
        <time>2024-07-23T08:40:20Z</time>
      </trkpt>
      <trkpt lat="45.90562" lon="2.99657">
        <ele>717.4</ele>
        <time>2024-07-23T08:40:21Z</time>
      </trkpt>
      <trkpt lat="45.90563" lon="2.99659">
        <ele>717.6</ele>
        <time>2024-07-23T08:40:23Z</time>
      </trkpt>
      <trkpt lat="45.90563" lon="2.9966">
        <ele>717.8</ele>
        <time>2024-07-23T08:40:24Z</time>
      </trkpt>
      <trkpt lat="45.90564" lon="2.99662">
        <ele>717.3</ele>
        <time>2024-07-23T08:40:25Z</time>
      </trkpt>
      <trkpt lat="45.90564" lon="2.99663">
        <ele>717.2</ele>
        <time>2024-07-23T08:40:26Z</time>
      </trkpt>
      <trkpt lat="45.90565" lon="2.99665">
        <ele>717.4</ele>
        <time>2024-07-23T08:40:28Z</time>
      </trkpt>
      <trkpt lat="45.90565" lon="2.99667">
        <ele>717.2</ele>
        <time>2024-07-23T08:40:30Z</time>
      </trkpt>
      <trkpt lat="45.90566" lon="2.99669">
        <ele>717</ele>
        <time>2024-07-23T08:40:39Z</time>
      </trkpt>
      <trkpt lat="45.90567" lon="2.9967">
        <ele>716.6</ele>
        <time>2024-07-23T08:40:41Z</time>
      </trkpt>
      <trkpt lat="45.90567" lon="2.99672">
        <ele>717.3</ele>
        <time>2024-07-23T08:40:43Z</time>
      </trkpt>
      <trkpt lat="45.90568" lon="2.99673">
        <ele>717.2</ele>
        <time>2024-07-23T08:40:45Z</time>
      </trkpt>
      <trkpt lat="45.90568" lon="2.99675">
        <ele>717.1</ele>
        <time>2024-07-23T08:40:47Z</time>
      </trkpt>
      <trkpt lat="45.90568" lon="2.99677">
        <ele>718.7</ele>
        <time>2024-07-23T08:40:52Z</time>
      </trkpt>
      <trkpt lat="45.90567" lon="2.99679">
        <ele>718.7</ele>
        <time>2024-07-23T08:40:54Z</time>
      </trkpt>
      <trkpt lat="45.90568" lon="2.99681">
        <ele>718.9</ele>
        <time>2024-07-23T08:40:56Z</time>
      </trkpt>
      <trkpt lat="45.90567" lon="2.99683">
        <ele>718.7</ele>
        <time>2024-07-23T08:40:58Z</time>
      </trkpt>
      <trkpt lat="45.90566" lon="2.99685">
        <ele>718.3</ele>
        <time>2024-07-23T08:41:00Z</time>
      </trkpt>
      <trkpt lat="45.90565" lon="2.99686">
        <ele>718.4</ele>
        <time>2024-07-23T08:41:01Z</time>
      </trkpt>
      <trkpt lat="45.90564" lon="2.99687">
        <ele>718.7</ele>
        <time>2024-07-23T08:41:02Z</time>
      </trkpt>
      <trkpt lat="45.90563" lon="2.99687">
        <ele>718.5</ele>
        <time>2024-07-23T08:41:03Z</time>
      </trkpt>
      <trkpt lat="45.90562" lon="2.99687">
        <ele>718.4</ele>
        <time>2024-07-23T08:41:04Z</time>
      </trkpt>
      <trkpt lat="45.90561" lon="2.99688">
        <ele>718.5</ele>
        <time>2024-07-23T08:41:05Z</time>
      </trkpt>
      <trkpt lat="45.9056" lon="2.99688">
        <ele>718.7</ele>
        <time>2024-07-23T08:41:06Z</time>
      </trkpt>
      <trkpt lat="45.90559" lon="2.99688">
        <ele>718.9</ele>
        <time>2024-07-23T08:41:07Z</time>
      </trkpt>
      <trkpt lat="45.90558" lon="2.99689">
        <ele>719</ele>
        <time>2024-07-23T08:41:08Z</time>
      </trkpt>
      <trkpt lat="45.90557" lon="2.9969">
        <ele>719</ele>
        <time>2024-07-23T08:41:09Z</time>
      </trkpt>
      <trkpt lat="45.90557" lon="2.9969">
        <ele>718.9</ele>
        <time>2024-07-23T08:41:10Z</time>
      </trkpt>
      <trkpt lat="45.90555" lon="2.99692">
        <ele>718.8</ele>
        <time>2024-07-23T08:41:12Z</time>
      </trkpt>
      <trkpt lat="45.90554" lon="2.99693">
        <ele>718.9</ele>
        <time>2024-07-23T08:41:14Z</time>
      </trkpt>
      <trkpt lat="45.90554" lon="2.99695">
        <ele>718.6</ele>
        <time>2024-07-23T08:41:16Z</time>
      </trkpt>
      <trkpt lat="45.90554" lon="2.99697">
        <ele>718.2</ele>
        <time>2024-07-23T08:41:28Z</time>
      </trkpt>
      <trkpt lat="45.90554" lon="2.99699">
        <ele>718.6</ele>
        <time>2024-07-23T08:41:30Z</time>
      </trkpt>
      <trkpt lat="45.90554" lon="2.99701">
        <ele>718.5</ele>
        <time>2024-07-23T08:41:32Z</time>
      </trkpt>
      <trkpt lat="45.90554" lon="2.99703">
        <ele>718.4</ele>
        <time>2024-07-23T08:41:34Z</time>
      </trkpt>
      <trkpt lat="45.90554" lon="2.99704">
        <ele>718.1</ele>
        <time>2024-07-23T08:41:35Z</time>
      </trkpt>
      <trkpt lat="45.90553" lon="2.99706">
        <ele>718.1</ele>
        <time>2024-07-23T08:41:36Z</time>
      </trkpt>
      <trkpt lat="45.90554" lon="2.99707">
        <ele>717.9</ele>
        <time>2024-07-23T08:41:37Z</time>
      </trkpt>
      <trkpt lat="45.90554" lon="2.99709">
        <ele>717.2</ele>
        <time>2024-07-23T08:41:38Z</time>
      </trkpt>
      <trkpt lat="45.90554" lon="2.9971">
        <ele>717</ele>
        <time>2024-07-23T08:41:39Z</time>
      </trkpt>
      <trkpt lat="45.90555" lon="2.99712">
        <ele>716.7</ele>
        <time>2024-07-23T08:41:40Z</time>
      </trkpt>
      <trkpt lat="45.90555" lon="2.99713">
        <ele>716.4</ele>
        <time>2024-07-23T08:41:41Z</time>
      </trkpt>
      <trkpt lat="45.90555" lon="2.99715">
        <ele>716.4</ele>
        <time>2024-07-23T08:41:42Z</time>
      </trkpt>
      <trkpt lat="45.90555" lon="2.99716">
        <ele>716.1</ele>
        <time>2024-07-23T08:41:43Z</time>
      </trkpt>
      <trkpt lat="45.90555" lon="2.99718">
        <ele>715.8</ele>
        <time>2024-07-23T08:41:44Z</time>
      </trkpt>
      <trkpt lat="45.90555" lon="2.9972">
        <ele>715.9</ele>
        <time>2024-07-23T08:41:45Z</time>
      </trkpt>
      <trkpt lat="45.90555" lon="2.99721">
        <ele>716</ele>
        <time>2024-07-23T08:41:46Z</time>
      </trkpt>
      <trkpt lat="45.90555" lon="2.99722">
        <ele>716.1</ele>
        <time>2024-07-23T08:41:47Z</time>
      </trkpt>
      <trkpt lat="45.90555" lon="2.99724">
        <ele>716.3</ele>
        <time>2024-07-23T08:41:48Z</time>
      </trkpt>
      <trkpt lat="45.90555" lon="2.99725">
        <ele>716.3</ele>
        <time>2024-07-23T08:41:49Z</time>
      </trkpt>
      <trkpt lat="45.90555" lon="2.99727">
        <ele>716.3</ele>
        <time>2024-07-23T08:41:50Z</time>
      </trkpt>
      <trkpt lat="45.90555" lon="2.99728">
        <ele>716.7</ele>
        <time>2024-07-23T08:41:51Z</time>
      </trkpt>
      <trkpt lat="45.90555" lon="2.9973">
        <ele>716.7</ele>
        <time>2024-07-23T08:41:52Z</time>
      </trkpt>
      <trkpt lat="45.90555" lon="2.99731">
        <ele>716.9</ele>
        <time>2024-07-23T08:41:53Z</time>
      </trkpt>
      <trkpt lat="45.90555" lon="2.99733">
        <ele>717</ele>
        <time>2024-07-23T08:41:54Z</time>
      </trkpt>
      <trkpt lat="45.90555" lon="2.99734">
        <ele>717.2</ele>
        <time>2024-07-23T08:41:55Z</time>
      </trkpt>
      <trkpt lat="45.90555" lon="2.99735">
        <ele>717.4</ele>
        <time>2024-07-23T08:41:56Z</time>
      </trkpt>
      <trkpt lat="45.90555" lon="2.99738">
        <ele>717.6</ele>
        <time>2024-07-23T08:41:58Z</time>
      </trkpt>
      <trkpt lat="45.90555" lon="2.99739">
        <ele>717.5</ele>
        <time>2024-07-23T08:41:59Z</time>
      </trkpt>
      <trkpt lat="45.90555" lon="2.99741">
        <ele>716.8</ele>
        <time>2024-07-23T08:42:00Z</time>
      </trkpt>
      <trkpt lat="45.90555" lon="2.99742">
        <ele>716.8</ele>
        <time>2024-07-23T08:42:01Z</time>
      </trkpt>
      <trkpt lat="45.90555" lon="2.99744">
        <ele>717.2</ele>
        <time>2024-07-23T08:42:02Z</time>
      </trkpt>
      <trkpt lat="45.90555" lon="2.99745">
        <ele>717.3</ele>
        <time>2024-07-23T08:42:03Z</time>
      </trkpt>
      <trkpt lat="45.90555" lon="2.99746">
        <ele>717.4</ele>
        <time>2024-07-23T08:42:04Z</time>
      </trkpt>
      <trkpt lat="45.90555" lon="2.99748">
        <ele>717.5</ele>
        <time>2024-07-23T08:42:05Z</time>
      </trkpt>
      <trkpt lat="45.90555" lon="2.99749">
        <ele>717.7</ele>
        <time>2024-07-23T08:42:06Z</time>
      </trkpt>
      <trkpt lat="45.90555" lon="2.99751">
        <ele>717.9</ele>
        <time>2024-07-23T08:42:07Z</time>
      </trkpt>
      <trkpt lat="45.90555" lon="2.99752">
        <ele>718.9</ele>
        <time>2024-07-23T08:42:09Z</time>
      </trkpt>
      <trkpt lat="45.90556" lon="2.99752">
        <ele>719.8</ele>
        <time>2024-07-23T08:42:11Z</time>
      </trkpt>
      <trkpt lat="45.90557" lon="2.99752">
        <ele>720.5</ele>
        <time>2024-07-23T08:42:12Z</time>
      </trkpt>
      <trkpt lat="45.90559" lon="2.99754">
        <ele>720.6</ele>
        <time>2024-07-23T08:42:14Z</time>
      </trkpt>
      <trkpt lat="45.90559" lon="2.99755">
        <ele>720.5</ele>
        <time>2024-07-23T08:42:15Z</time>
      </trkpt>
      <trkpt lat="45.90558" lon="2.99757">
        <ele>720</ele>
        <time>2024-07-23T08:42:16Z</time>
      </trkpt>
      <trkpt lat="45.90558" lon="2.99758">
        <ele>719.3</ele>
        <time>2024-07-23T08:42:17Z</time>
      </trkpt>
      <trkpt lat="45.90558" lon="2.9976">
        <ele>720.3</ele>
        <time>2024-07-23T08:42:18Z</time>
      </trkpt>
      <trkpt lat="45.90557" lon="2.99761">
        <ele>720.1</ele>
        <time>2024-07-23T08:42:19Z</time>
      </trkpt>
      <trkpt lat="45.90557" lon="2.99763">
        <ele>720.9</ele>
        <time>2024-07-23T08:42:20Z</time>
      </trkpt>
      <trkpt lat="45.90557" lon="2.99764">
        <ele>720.8</ele>
        <time>2024-07-23T08:42:21Z</time>
      </trkpt>
      <trkpt lat="45.90557" lon="2.99766">
        <ele>720.4</ele>
        <time>2024-07-23T08:42:22Z</time>
      </trkpt>
      <trkpt lat="45.90557" lon="2.99767">
        <ele>720.8</ele>
        <time>2024-07-23T08:42:23Z</time>
      </trkpt>
      <trkpt lat="45.90556" lon="2.99769">
        <ele>720.6</ele>
        <time>2024-07-23T08:42:25Z</time>
      </trkpt>
      <trkpt lat="45.90556" lon="2.99771">
        <ele>720.4</ele>
        <time>2024-07-23T08:42:26Z</time>
      </trkpt>
      <trkpt lat="45.90556" lon="2.99773">
        <ele>720.7</ele>
        <time>2024-07-23T08:42:28Z</time>
      </trkpt>
      <trkpt lat="45.90556" lon="2.99775">
        <ele>720.7</ele>
        <time>2024-07-23T08:42:29Z</time>
      </trkpt>
      <trkpt lat="45.90556" lon="2.99776">
        <ele>719.4</ele>
        <time>2024-07-23T08:42:30Z</time>
      </trkpt>
      <trkpt lat="45.90556" lon="2.99777">
        <ele>719.7</ele>
        <time>2024-07-23T08:42:31Z</time>
      </trkpt>
      <trkpt lat="45.90556" lon="2.99779">
        <ele>719.4</ele>
        <time>2024-07-23T08:42:32Z</time>
      </trkpt>
      <trkpt lat="45.90556" lon="2.9978">
        <ele>719.2</ele>
        <time>2024-07-23T08:42:33Z</time>
      </trkpt>
      <trkpt lat="45.90556" lon="2.99781">
        <ele>719.1</ele>
        <time>2024-07-23T08:42:34Z</time>
      </trkpt>
      <trkpt lat="45.90556" lon="2.99783">
        <ele>719.1</ele>
        <time>2024-07-23T08:42:35Z</time>
      </trkpt>
      <trkpt lat="45.90556" lon="2.99784">
        <ele>718.4</ele>
        <time>2024-07-23T08:42:36Z</time>
      </trkpt>
      <trkpt lat="45.90556" lon="2.99786">
        <ele>718.3</ele>
        <time>2024-07-23T08:42:37Z</time>
      </trkpt>
      <trkpt lat="45.90556" lon="2.99787">
        <ele>717.9</ele>
        <time>2024-07-23T08:42:38Z</time>
      </trkpt>
      <trkpt lat="45.90556" lon="2.99789">
        <ele>717.6</ele>
        <time>2024-07-23T08:42:39Z</time>
      </trkpt>
      <trkpt lat="45.90556" lon="2.9979">
        <ele>717.9</ele>
        <time>2024-07-23T08:42:40Z</time>
      </trkpt>
      <trkpt lat="45.90556" lon="2.99792">
        <ele>717.7</ele>
        <time>2024-07-23T08:42:41Z</time>
      </trkpt>
      <trkpt lat="45.90556" lon="2.99794">
        <ele>717.6</ele>
        <time>2024-07-23T08:42:42Z</time>
      </trkpt>
      <trkpt lat="45.90556" lon="2.99795">
        <ele>717.9</ele>
        <time>2024-07-23T08:42:43Z</time>
      </trkpt>
      <trkpt lat="45.90556" lon="2.99796">
        <ele>717.9</ele>
        <time>2024-07-23T08:42:44Z</time>
      </trkpt>
      <trkpt lat="45.90556" lon="2.99798">
        <ele>718</ele>
        <time>2024-07-23T08:42:45Z</time>
      </trkpt>
      <trkpt lat="45.90556" lon="2.99799">
        <ele>717.8</ele>
        <time>2024-07-23T08:42:46Z</time>
      </trkpt>
      <trkpt lat="45.90556" lon="2.99801">
        <ele>717.6</ele>
        <time>2024-07-23T08:42:47Z</time>
      </trkpt>
      <trkpt lat="45.90556" lon="2.99802">
        <ele>717.5</ele>
        <time>2024-07-23T08:42:48Z</time>
      </trkpt>
      <trkpt lat="45.90556" lon="2.99803">
        <ele>717</ele>
        <time>2024-07-23T08:42:49Z</time>
      </trkpt>
      <trkpt lat="45.90556" lon="2.99805">
        <ele>715.9</ele>
        <time>2024-07-23T08:42:50Z</time>
      </trkpt>
      <trkpt lat="45.90556" lon="2.99807">
        <ele>715.4</ele>
        <time>2024-07-23T08:42:51Z</time>
      </trkpt>
      <trkpt lat="45.90556" lon="2.99808">
        <ele>715.1</ele>
        <time>2024-07-23T08:42:52Z</time>
      </trkpt>
      <trkpt lat="45.90557" lon="2.9981">
        <ele>714.4</ele>
        <time>2024-07-23T08:42:53Z</time>
      </trkpt>
      <trkpt lat="45.90557" lon="2.99811">
        <ele>716.3</ele>
        <time>2024-07-23T08:42:54Z</time>
      </trkpt>
      <trkpt lat="45.90557" lon="2.99812">
        <ele>715.5</ele>
        <time>2024-07-23T08:42:55Z</time>
      </trkpt>
      <trkpt lat="45.90558" lon="2.99815">
        <ele>714</ele>
        <time>2024-07-23T08:42:57Z</time>
      </trkpt>
      <trkpt lat="45.90559" lon="2.99817">
        <ele>714.8</ele>
        <time>2024-07-23T08:42:59Z</time>
      </trkpt>
      <trkpt lat="45.90559" lon="2.99819">
        <ele>715.2</ele>
        <time>2024-07-23T08:43:01Z</time>
      </trkpt>
      <trkpt lat="45.90559" lon="2.99821">
        <ele>716</ele>
        <time>2024-07-23T08:43:03Z</time>
      </trkpt>
      <trkpt lat="45.90559" lon="2.99823">
        <ele>715.2</ele>
        <time>2024-07-23T08:43:05Z</time>
      </trkpt>
      <trkpt lat="45.90559" lon="2.99825">
        <ele>714.1</ele>
        <time>2024-07-23T08:43:06Z</time>
      </trkpt>
      <trkpt lat="45.9056" lon="2.99827">
        <ele>713.8</ele>
        <time>2024-07-23T08:43:08Z</time>
      </trkpt>
      <trkpt lat="45.9056" lon="2.99828">
        <ele>713.8</ele>
        <time>2024-07-23T08:43:13Z</time>
      </trkpt>
      <trkpt lat="45.90559" lon="2.99827">
        <ele>711.4</ele>
        <time>2024-07-23T08:43:43Z</time>
      </trkpt>
      <trkpt lat="45.90558" lon="2.99825">
        <ele>711.4</ele>
        <time>2024-07-23T08:43:45Z</time>
      </trkpt>
      <trkpt lat="45.90558" lon="2.99823">
        <ele>711.4</ele>
        <time>2024-07-23T08:43:47Z</time>
      </trkpt>
      <trkpt lat="45.90557" lon="2.99822">
        <ele>711.6</ele>
        <time>2024-07-23T08:43:49Z</time>
      </trkpt>
      <trkpt lat="45.90557" lon="2.9982">
        <ele>711.9</ele>
        <time>2024-07-23T08:43:51Z</time>
      </trkpt>
      <trkpt lat="45.90557" lon="2.99819">
        <ele>712.3</ele>
        <time>2024-07-23T08:43:53Z</time>
      </trkpt>
      <trkpt lat="45.90556" lon="2.99817">
        <ele>711.7</ele>
        <time>2024-07-23T08:43:55Z</time>
      </trkpt>
      <trkpt lat="45.90555" lon="2.99815">
        <ele>712</ele>
        <time>2024-07-23T08:43:57Z</time>
      </trkpt>
      <trkpt lat="45.90555" lon="2.99813">
        <ele>712.2</ele>
        <time>2024-07-23T08:43:59Z</time>
      </trkpt>
      <trkpt lat="45.90555" lon="2.99811">
        <ele>712.3</ele>
        <time>2024-07-23T08:44:00Z</time>
      </trkpt>
      <trkpt lat="45.90554" lon="2.99809">
        <ele>712</ele>
        <time>2024-07-23T08:44:02Z</time>
      </trkpt>
      <trkpt lat="45.90554" lon="2.99806">
        <ele>712.6</ele>
        <time>2024-07-23T08:44:04Z</time>
      </trkpt>
      <trkpt lat="45.90554" lon="2.99805">
        <ele>713.3</ele>
        <time>2024-07-23T08:44:06Z</time>
      </trkpt>
      <trkpt lat="45.90554" lon="2.99803">
        <ele>713.8</ele>
        <time>2024-07-23T08:44:08Z</time>
      </trkpt>
      <trkpt lat="45.90554" lon="2.998">
        <ele>714.6</ele>
        <time>2024-07-23T08:44:10Z</time>
      </trkpt>
      <trkpt lat="45.90554" lon="2.99799">
        <ele>715.1</ele>
        <time>2024-07-23T08:44:12Z</time>
      </trkpt>
      <trkpt lat="45.90555" lon="2.99797">
        <ele>714.9</ele>
        <time>2024-07-23T08:44:13Z</time>
      </trkpt>
      <trkpt lat="45.90555" lon="2.99795">
        <ele>715.6</ele>
        <time>2024-07-23T08:44:15Z</time>
      </trkpt>
      <trkpt lat="45.90555" lon="2.99793">
        <ele>715.5</ele>
        <time>2024-07-23T08:44:17Z</time>
      </trkpt>
      <trkpt lat="45.90555" lon="2.9979">
        <ele>716.2</ele>
        <time>2024-07-23T08:44:19Z</time>
      </trkpt>
      <trkpt lat="45.90555" lon="2.99788">
        <ele>716.3</ele>
        <time>2024-07-23T08:44:21Z</time>
      </trkpt>
      <trkpt lat="45.90555" lon="2.99786">
        <ele>716.8</ele>
        <time>2024-07-23T08:44:23Z</time>
      </trkpt>
      <trkpt lat="45.90555" lon="2.99784">
        <ele>716.4</ele>
        <time>2024-07-23T08:44:24Z</time>
      </trkpt>
      <trkpt lat="45.90555" lon="2.99781">
        <ele>716</ele>
        <time>2024-07-23T08:44:26Z</time>
      </trkpt>
      <trkpt lat="45.90555" lon="2.99779">
        <ele>716.6</ele>
        <time>2024-07-23T08:44:27Z</time>
      </trkpt>
      <trkpt lat="45.90554" lon="2.99776">
        <ele>716.7</ele>
        <time>2024-07-23T08:44:29Z</time>
      </trkpt>
      <trkpt lat="45.90554" lon="2.99774">
        <ele>716.7</ele>
        <time>2024-07-23T08:44:30Z</time>
      </trkpt>
      <trkpt lat="45.90554" lon="2.99773">
        <ele>716.3</ele>
        <time>2024-07-23T08:44:31Z</time>
      </trkpt>
      <trkpt lat="45.90554" lon="2.99771">
        <ele>716.9</ele>
        <time>2024-07-23T08:44:32Z</time>
      </trkpt>
      <trkpt lat="45.90554" lon="2.99768">
        <ele>717</ele>
        <time>2024-07-23T08:44:34Z</time>
      </trkpt>
      <trkpt lat="45.90554" lon="2.99767">
        <ele>717.2</ele>
        <time>2024-07-23T08:44:35Z</time>
      </trkpt>
      <trkpt lat="45.90554" lon="2.99765">
        <ele>717.2</ele>
        <time>2024-07-23T08:44:36Z</time>
      </trkpt>
      <trkpt lat="45.90554" lon="2.99764">
        <ele>717.2</ele>
        <time>2024-07-23T08:44:37Z</time>
      </trkpt>
      <trkpt lat="45.90554" lon="2.99763">
        <ele>717.3</ele>
        <time>2024-07-23T08:44:38Z</time>
      </trkpt>
      <trkpt lat="45.90554" lon="2.99761">
        <ele>717.6</ele>
        <time>2024-07-23T08:44:39Z</time>
      </trkpt>
      <trkpt lat="45.90554" lon="2.9976">
        <ele>717.4</ele>
        <time>2024-07-23T08:44:40Z</time>
      </trkpt>
      <trkpt lat="45.90554" lon="2.99758">
        <ele>717.4</ele>
        <time>2024-07-23T08:44:41Z</time>
      </trkpt>
      <trkpt lat="45.90554" lon="2.99757">
        <ele>717.8</ele>
        <time>2024-07-23T08:44:42Z</time>
      </trkpt>
      <trkpt lat="45.90554" lon="2.99755">
        <ele>717.7</ele>
        <time>2024-07-23T08:44:43Z</time>
      </trkpt>
      <trkpt lat="45.90554" lon="2.99754">
        <ele>717.8</ele>
        <time>2024-07-23T08:44:44Z</time>
      </trkpt>
      <trkpt lat="45.90554" lon="2.99752">
        <ele>718</ele>
        <time>2024-07-23T08:44:45Z</time>
      </trkpt>
      <trkpt lat="45.90554" lon="2.99751">
        <ele>717.9</ele>
        <time>2024-07-23T08:44:46Z</time>
      </trkpt>
      <trkpt lat="45.90554" lon="2.99749">
        <ele>717.7</ele>
        <time>2024-07-23T08:44:47Z</time>
      </trkpt>
      <trkpt lat="45.90554" lon="2.99748">
        <ele>717.7</ele>
        <time>2024-07-23T08:44:48Z</time>
      </trkpt>
      <trkpt lat="45.90554" lon="2.99746">
        <ele>717.8</ele>
        <time>2024-07-23T08:44:49Z</time>
      </trkpt>
      <trkpt lat="45.90554" lon="2.99744">
        <ele>717.6</ele>
        <time>2024-07-23T08:44:50Z</time>
      </trkpt>
      <trkpt lat="45.90554" lon="2.99743">
        <ele>717.7</ele>
        <time>2024-07-23T08:44:51Z</time>
      </trkpt>
      <trkpt lat="45.90554" lon="2.99741">
        <ele>717.7</ele>
        <time>2024-07-23T08:44:52Z</time>
      </trkpt>
      <trkpt lat="45.90554" lon="2.9974">
        <ele>717.9</ele>
        <time>2024-07-23T08:44:53Z</time>
      </trkpt>
      <trkpt lat="45.90554" lon="2.99737">
        <ele>718</ele>
        <time>2024-07-23T08:44:55Z</time>
      </trkpt>
      <trkpt lat="45.90554" lon="2.99736">
        <ele>718.2</ele>
        <time>2024-07-23T08:44:56Z</time>
      </trkpt>
      <trkpt lat="45.90554" lon="2.99734">
        <ele>718.4</ele>
        <time>2024-07-23T08:44:57Z</time>
      </trkpt>
      <trkpt lat="45.90554" lon="2.99733">
        <ele>718.4</ele>
        <time>2024-07-23T08:44:58Z</time>
      </trkpt>
      <trkpt lat="45.90553" lon="2.99731">
        <ele>718.6</ele>
        <time>2024-07-23T08:44:59Z</time>
      </trkpt>
      <trkpt lat="45.90553" lon="2.9973">
        <ele>718.3</ele>
        <time>2024-07-23T08:45:00Z</time>
      </trkpt>
      <trkpt lat="45.90553" lon="2.99728">
        <ele>718.6</ele>
        <time>2024-07-23T08:45:01Z</time>
      </trkpt>
      <trkpt lat="45.90553" lon="2.99727">
        <ele>718.7</ele>
        <time>2024-07-23T08:45:02Z</time>
      </trkpt>
      <trkpt lat="45.90553" lon="2.99724">
        <ele>719</ele>
        <time>2024-07-23T08:45:04Z</time>
      </trkpt>
      <trkpt lat="45.90553" lon="2.99722">
        <ele>719.2</ele>
        <time>2024-07-23T08:45:05Z</time>
      </trkpt>
      <trkpt lat="45.90553" lon="2.99721">
        <ele>719</ele>
        <time>2024-07-23T08:45:06Z</time>
      </trkpt>
      <trkpt lat="45.90552" lon="2.99719">
        <ele>719.2</ele>
        <time>2024-07-23T08:45:07Z</time>
      </trkpt>
      <trkpt lat="45.90553" lon="2.99718">
        <ele>719.3</ele>
        <time>2024-07-23T08:45:08Z</time>
      </trkpt>
      <trkpt lat="45.90553" lon="2.99716">
        <ele>719.5</ele>
        <time>2024-07-23T08:45:09Z</time>
      </trkpt>
      <trkpt lat="45.90553" lon="2.99715">
        <ele>719.7</ele>
        <time>2024-07-23T08:45:10Z</time>
      </trkpt>
      <trkpt lat="45.90552" lon="2.99714">
        <ele>719.6</ele>
        <time>2024-07-23T08:45:11Z</time>
      </trkpt>
      <trkpt lat="45.90552" lon="2.99712">
        <ele>719.4</ele>
        <time>2024-07-23T08:45:12Z</time>
      </trkpt>
      <trkpt lat="45.90552" lon="2.99711">
        <ele>719.1</ele>
        <time>2024-07-23T08:45:13Z</time>
      </trkpt>
      <trkpt lat="45.90552" lon="2.99709">
        <ele>719</ele>
        <time>2024-07-23T08:45:14Z</time>
      </trkpt>
      <trkpt lat="45.90552" lon="2.99708">
        <ele>719.1</ele>
        <time>2024-07-23T08:45:15Z</time>
      </trkpt>
      <trkpt lat="45.90553" lon="2.99707">
        <ele>719</ele>
        <time>2024-07-23T08:45:16Z</time>
      </trkpt>
      <trkpt lat="45.90553" lon="2.99705">
        <ele>719.2</ele>
        <time>2024-07-23T08:45:17Z</time>
      </trkpt>
      <trkpt lat="45.90553" lon="2.99704">
        <ele>719.2</ele>
        <time>2024-07-23T08:45:18Z</time>
      </trkpt>
      <trkpt lat="45.90554" lon="2.99703">
        <ele>719.5</ele>
        <time>2024-07-23T08:45:20Z</time>
      </trkpt>
      <trkpt lat="45.90556" lon="2.99702">
        <ele>720</ele>
        <time>2024-07-23T08:45:22Z</time>
      </trkpt>
      <trkpt lat="45.90557" lon="2.99702">
        <ele>720</ele>
        <time>2024-07-23T08:45:23Z</time>
      </trkpt>
      <trkpt lat="45.90558" lon="2.99701">
        <ele>719.8</ele>
        <time>2024-07-23T08:45:24Z</time>
      </trkpt>
      <trkpt lat="45.90559" lon="2.997">
        <ele>720.3</ele>
        <time>2024-07-23T08:45:25Z</time>
      </trkpt>
      <trkpt lat="45.9056" lon="2.997">
        <ele>720.5</ele>
        <time>2024-07-23T08:45:26Z</time>
      </trkpt>
      <trkpt lat="45.90561" lon="2.99699">
        <ele>720.8</ele>
        <time>2024-07-23T08:45:27Z</time>
      </trkpt>
      <trkpt lat="45.90562" lon="2.99698">
        <ele>719.6</ele>
        <time>2024-07-23T08:45:28Z</time>
      </trkpt>
      <trkpt lat="45.90563" lon="2.99697">
        <ele>719.6</ele>
        <time>2024-07-23T08:45:30Z</time>
      </trkpt>
      <trkpt lat="45.90564" lon="2.99697">
        <ele>719.6</ele>
        <time>2024-07-23T08:45:32Z</time>
      </trkpt>
      <trkpt lat="45.90566" lon="2.99696">
        <ele>719.9</ele>
        <time>2024-07-23T08:45:34Z</time>
      </trkpt>
      <trkpt lat="45.90567" lon="2.99695">
        <ele>720.3</ele>
        <time>2024-07-23T08:45:36Z</time>
      </trkpt>
      <trkpt lat="45.90568" lon="2.99695">
        <ele>721</ele>
        <time>2024-07-23T08:45:38Z</time>
      </trkpt>
      <trkpt lat="45.9057" lon="2.99695">
        <ele>721.3</ele>
        <time>2024-07-23T08:45:40Z</time>
      </trkpt>
      <trkpt lat="45.90571" lon="2.99696">
        <ele>720.9</ele>
        <time>2024-07-23T08:45:42Z</time>
      </trkpt>
      <trkpt lat="45.90572" lon="2.99697">
        <ele>720.5</ele>
        <time>2024-07-23T08:45:44Z</time>
      </trkpt>
      <trkpt lat="45.90573" lon="2.99699">
        <ele>720.1</ele>
        <time>2024-07-23T08:45:46Z</time>
      </trkpt>
      <trkpt lat="45.90574" lon="2.99701">
        <ele>719.8</ele>
        <time>2024-07-23T08:45:48Z</time>
      </trkpt>
      <trkpt lat="45.90575" lon="2.99703">
        <ele>720</ele>
        <time>2024-07-23T08:45:50Z</time>
      </trkpt>
      <trkpt lat="45.90575" lon="2.99705">
        <ele>719.9</ele>
        <time>2024-07-23T08:45:52Z</time>
      </trkpt>
      <trkpt lat="45.90576" lon="2.99707">
        <ele>721.3</ele>
        <time>2024-07-23T08:45:54Z</time>
      </trkpt>
      <trkpt lat="45.90577" lon="2.99708">
        <ele>721.7</ele>
        <time>2024-07-23T08:45:56Z</time>
      </trkpt>
      <trkpt lat="45.90578" lon="2.9971">
        <ele>722.1</ele>
        <time>2024-07-23T08:45:58Z</time>
      </trkpt>
      <trkpt lat="45.90579" lon="2.99712">
        <ele>722.2</ele>
        <time>2024-07-23T08:46:00Z</time>
      </trkpt>
      <trkpt lat="45.9058" lon="2.99713">
        <ele>722.2</ele>
        <time>2024-07-23T08:46:01Z</time>
      </trkpt>
      <trkpt lat="45.9058" lon="2.99714">
        <ele>722.3</ele>
        <time>2024-07-23T08:46:02Z</time>
      </trkpt>
      <trkpt lat="45.90581" lon="2.99716">
        <ele>722.3</ele>
        <time>2024-07-23T08:46:04Z</time>
      </trkpt>
      <trkpt lat="45.90582" lon="2.99718">
        <ele>722.9</ele>
        <time>2024-07-23T08:46:06Z</time>
      </trkpt>
      <trkpt lat="45.90583" lon="2.9972">
        <ele>723.1</ele>
        <time>2024-07-23T08:46:08Z</time>
      </trkpt>
      <trkpt lat="45.90584" lon="2.99721">
        <ele>723.4</ele>
        <time>2024-07-23T08:46:09Z</time>
      </trkpt>
      <trkpt lat="45.90584" lon="2.99722">
        <ele>724.7</ele>
        <time>2024-07-23T08:46:10Z</time>
      </trkpt>
      <trkpt lat="45.90585" lon="2.99725">
        <ele>725</ele>
        <time>2024-07-23T08:46:12Z</time>
      </trkpt>
      <trkpt lat="45.90586" lon="2.99727">
        <ele>724.7</ele>
        <time>2024-07-23T08:46:13Z</time>
      </trkpt>
      <trkpt lat="45.90586" lon="2.99728">
        <ele>724.1</ele>
        <time>2024-07-23T08:46:14Z</time>
      </trkpt>
      <trkpt lat="45.90587" lon="2.99729">
        <ele>723.7</ele>
        <time>2024-07-23T08:46:15Z</time>
      </trkpt>
      <trkpt lat="45.90588" lon="2.99729">
        <ele>722.9</ele>
        <time>2024-07-23T08:46:16Z</time>
      </trkpt>
      <trkpt lat="45.90589" lon="2.9973">
        <ele>722.9</ele>
        <time>2024-07-23T08:46:17Z</time>
      </trkpt>
      <trkpt lat="45.9059" lon="2.99732">
        <ele>722.5</ele>
        <time>2024-07-23T08:46:18Z</time>
      </trkpt>
      <trkpt lat="45.90591" lon="2.99733">
        <ele>721.7</ele>
        <time>2024-07-23T08:46:19Z</time>
      </trkpt>
      <trkpt lat="45.90591" lon="2.99734">
        <ele>721.7</ele>
        <time>2024-07-23T08:46:20Z</time>
      </trkpt>
      <trkpt lat="45.90592" lon="2.99736">
        <ele>719.4</ele>
        <time>2024-07-23T08:46:21Z</time>
      </trkpt>
      <trkpt lat="45.90593" lon="2.99737">
        <ele>721</ele>
        <time>2024-07-23T08:46:22Z</time>
      </trkpt>
      <trkpt lat="45.90594" lon="2.99738">
        <ele>720.8</ele>
        <time>2024-07-23T08:46:23Z</time>
      </trkpt>
      <trkpt lat="45.90595" lon="2.99739">
        <ele>721</ele>
        <time>2024-07-23T08:46:24Z</time>
      </trkpt>
      <trkpt lat="45.90596" lon="2.9974">
        <ele>721.3</ele>
        <time>2024-07-23T08:46:26Z</time>
      </trkpt>
      <trkpt lat="45.90597" lon="2.99741">
        <ele>720.9</ele>
        <time>2024-07-23T08:46:27Z</time>
      </trkpt>
      <trkpt lat="45.90598" lon="2.99742">
        <ele>721.7</ele>
        <time>2024-07-23T08:46:28Z</time>
      </trkpt>
      <trkpt lat="45.90599" lon="2.99743">
        <ele>722.1</ele>
        <time>2024-07-23T08:46:29Z</time>
      </trkpt>
      <trkpt lat="45.906" lon="2.99745">
        <ele>723.2</ele>
        <time>2024-07-23T08:46:31Z</time>
      </trkpt>
      <trkpt lat="45.90601" lon="2.99746">
        <ele>722.9</ele>
        <time>2024-07-23T08:46:33Z</time>
      </trkpt>
      <trkpt lat="45.90602" lon="2.99747">
        <ele>723.7</ele>
        <time>2024-07-23T08:46:34Z</time>
      </trkpt>
      <trkpt lat="45.90603" lon="2.99749">
        <ele>725.7</ele>
        <time>2024-07-23T08:46:36Z</time>
      </trkpt>
      <trkpt lat="45.90604" lon="2.9975">
        <ele>726.4</ele>
        <time>2024-07-23T08:46:38Z</time>
      </trkpt>
      <trkpt lat="45.90606" lon="2.99752">
        <ele>725.1</ele>
        <time>2024-07-23T08:46:40Z</time>
      </trkpt>
      <trkpt lat="45.90607" lon="2.99753">
        <ele>724.9</ele>
        <time>2024-07-23T08:46:41Z</time>
      </trkpt>
      <trkpt lat="45.90607" lon="2.99754">
        <ele>725.2</ele>
        <time>2024-07-23T08:46:42Z</time>
      </trkpt>
      <trkpt lat="45.90608" lon="2.99755">
        <ele>725.4</ele>
        <time>2024-07-23T08:46:43Z</time>
      </trkpt>
      <trkpt lat="45.90609" lon="2.99756">
        <ele>725.6</ele>
        <time>2024-07-23T08:46:44Z</time>
      </trkpt>
      <trkpt lat="45.9061" lon="2.99757">
        <ele>724.9</ele>
        <time>2024-07-23T08:46:46Z</time>
      </trkpt>
      <trkpt lat="45.90611" lon="2.99758">
        <ele>724.7</ele>
        <time>2024-07-23T08:46:47Z</time>
      </trkpt>
      <trkpt lat="45.90612" lon="2.99759">
        <ele>725.2</ele>
        <time>2024-07-23T08:46:48Z</time>
      </trkpt>
      <trkpt lat="45.90612" lon="2.9976">
        <ele>725.3</ele>
        <time>2024-07-23T08:46:49Z</time>
      </trkpt>
      <trkpt lat="45.90613" lon="2.99761">
        <ele>725.4</ele>
        <time>2024-07-23T08:46:50Z</time>
      </trkpt>
      <trkpt lat="45.90614" lon="2.99762">
        <ele>726.1</ele>
        <time>2024-07-23T08:46:51Z</time>
      </trkpt>
      <trkpt lat="45.90615" lon="2.99762">
        <ele>726.1</ele>
        <time>2024-07-23T08:46:52Z</time>
      </trkpt>
      <trkpt lat="45.90616" lon="2.99763">
        <ele>726.6</ele>
        <time>2024-07-23T08:46:53Z</time>
      </trkpt>
      <trkpt lat="45.90617" lon="2.99764">
        <ele>726.6</ele>
        <time>2024-07-23T08:46:55Z</time>
      </trkpt>
      <trkpt lat="45.90618" lon="2.99765">
        <ele>726.9</ele>
        <time>2024-07-23T08:46:56Z</time>
      </trkpt>
      <trkpt lat="45.90619" lon="2.99766">
        <ele>727.9</ele>
        <time>2024-07-23T08:46:57Z</time>
      </trkpt>
      <trkpt lat="45.9062" lon="2.99766">
        <ele>728.5</ele>
        <time>2024-07-23T08:46:58Z</time>
      </trkpt>
      <trkpt lat="45.90621" lon="2.99767">
        <ele>727.5</ele>
        <time>2024-07-23T08:46:59Z</time>
      </trkpt>
      <trkpt lat="45.90622" lon="2.99767">
        <ele>726.6</ele>
        <time>2024-07-23T08:47:00Z</time>
      </trkpt>
      <trkpt lat="45.90623" lon="2.99768">
        <ele>726.3</ele>
        <time>2024-07-23T08:47:01Z</time>
      </trkpt>
      <trkpt lat="45.90624" lon="2.99769">
        <ele>726.6</ele>
        <time>2024-07-23T08:47:02Z</time>
      </trkpt>
      <trkpt lat="45.90625" lon="2.9977">
        <ele>727.2</ele>
        <time>2024-07-23T08:47:03Z</time>
      </trkpt>
      <trkpt lat="45.90625" lon="2.99771">
        <ele>727.2</ele>
        <time>2024-07-23T08:47:04Z</time>
      </trkpt>
      <trkpt lat="45.90627" lon="2.99773">
        <ele>726.1</ele>
        <time>2024-07-23T08:47:06Z</time>
      </trkpt>
      <trkpt lat="45.90628" lon="2.99774">
        <ele>725.4</ele>
        <time>2024-07-23T08:47:07Z</time>
      </trkpt>
      <trkpt lat="45.90629" lon="2.99775">
        <ele>724.7</ele>
        <time>2024-07-23T08:47:08Z</time>
      </trkpt>
      <trkpt lat="45.9063" lon="2.99777">
        <ele>726.6</ele>
        <time>2024-07-23T08:47:10Z</time>
      </trkpt>
      <trkpt lat="45.90631" lon="2.99778">
        <ele>727.1</ele>
        <time>2024-07-23T08:47:11Z</time>
      </trkpt>
      <trkpt lat="45.90632" lon="2.99779">
        <ele>724.3</ele>
        <time>2024-07-23T08:47:13Z</time>
      </trkpt>
      <trkpt lat="45.90634" lon="2.99779">
        <ele>726</ele>
        <time>2024-07-23T08:47:15Z</time>
      </trkpt>
      <trkpt lat="45.90636" lon="2.9978">
        <ele>726</ele>
        <time>2024-07-23T08:47:16Z</time>
      </trkpt>
      <trkpt lat="45.90637" lon="2.99781">
        <ele>724.9</ele>
        <time>2024-07-23T08:47:17Z</time>
      </trkpt>
      <trkpt lat="45.90638" lon="2.99782">
        <ele>724.4</ele>
        <time>2024-07-23T08:47:18Z</time>
      </trkpt>
      <trkpt lat="45.90639" lon="2.99782">
        <ele>723.9</ele>
        <time>2024-07-23T08:47:19Z</time>
      </trkpt>
      <trkpt lat="45.9064" lon="2.99783">
        <ele>723.4</ele>
        <time>2024-07-23T08:47:20Z</time>
      </trkpt>
      <trkpt lat="45.9064" lon="2.99784">
        <ele>723.3</ele>
        <time>2024-07-23T08:47:21Z</time>
      </trkpt>
      <trkpt lat="45.90641" lon="2.99785">
        <ele>723.3</ele>
        <time>2024-07-23T08:47:22Z</time>
      </trkpt>
      <trkpt lat="45.90642" lon="2.99785">
        <ele>724.3</ele>
        <time>2024-07-23T08:47:23Z</time>
      </trkpt>
      <trkpt lat="45.90643" lon="2.99787">
        <ele>723.9</ele>
        <time>2024-07-23T08:47:25Z</time>
      </trkpt>
      <trkpt lat="45.90645" lon="2.99788">
        <ele>724.3</ele>
        <time>2024-07-23T08:47:27Z</time>
      </trkpt>
      <trkpt lat="45.90646" lon="2.99789">
        <ele>723.8</ele>
        <time>2024-07-23T08:47:28Z</time>
      </trkpt>
      <trkpt lat="45.90647" lon="2.9979">
        <ele>724.2</ele>
        <time>2024-07-23T08:47:29Z</time>
      </trkpt>
      <trkpt lat="45.90647" lon="2.99791">
        <ele>724.4</ele>
        <time>2024-07-23T08:47:30Z</time>
      </trkpt>
      <trkpt lat="45.90648" lon="2.99791">
        <ele>724.5</ele>
        <time>2024-07-23T08:47:31Z</time>
      </trkpt>
      <trkpt lat="45.90649" lon="2.99792">
        <ele>724.5</ele>
        <time>2024-07-23T08:47:32Z</time>
      </trkpt>
      <trkpt lat="45.9065" lon="2.99793">
        <ele>724.3</ele>
        <time>2024-07-23T08:47:33Z</time>
      </trkpt>
      <trkpt lat="45.90652" lon="2.99793">
        <ele>724.3</ele>
        <time>2024-07-23T08:47:34Z</time>
      </trkpt>
      <trkpt lat="45.90652" lon="2.99794">
        <ele>724.2</ele>
        <time>2024-07-23T08:47:35Z</time>
      </trkpt>
      <trkpt lat="45.90653" lon="2.99795">
        <ele>724.2</ele>
        <time>2024-07-23T08:47:36Z</time>
      </trkpt>
      <trkpt lat="45.90654" lon="2.99796">
        <ele>723.9</ele>
        <time>2024-07-23T08:47:37Z</time>
      </trkpt>
      <trkpt lat="45.90655" lon="2.99796">
        <ele>725.7</ele>
        <time>2024-07-23T08:47:39Z</time>
      </trkpt>
      <trkpt lat="45.90657" lon="2.99797">
        <ele>725.6</ele>
        <time>2024-07-23T08:47:41Z</time>
      </trkpt>
      <trkpt lat="45.90658" lon="2.99799">
        <ele>726.2</ele>
        <time>2024-07-23T08:47:43Z</time>
      </trkpt>
      <trkpt lat="45.90658" lon="2.998">
        <ele>727</ele>
        <time>2024-07-23T08:47:45Z</time>
      </trkpt>
      <trkpt lat="45.90659" lon="2.99798">
        <ele>727.6</ele>
        <time>2024-07-23T08:47:52Z</time>
      </trkpt>
      <trkpt lat="45.90659" lon="2.99797">
        <ele>728.1</ele>
        <time>2024-07-23T08:47:53Z</time>
      </trkpt>
      <trkpt lat="45.9066" lon="2.99796">
        <ele>729.3</ele>
        <time>2024-07-23T08:47:54Z</time>
      </trkpt>
      <trkpt lat="45.9066" lon="2.99793">
        <ele>729.7</ele>
        <time>2024-07-23T08:47:56Z</time>
      </trkpt>
      <trkpt lat="45.9066" lon="2.99792">
        <ele>729.1</ele>
        <time>2024-07-23T08:47:57Z</time>
      </trkpt>
      <trkpt lat="45.9066" lon="2.99789">
        <ele>730.2</ele>
        <time>2024-07-23T08:47:59Z</time>
      </trkpt>
      <trkpt lat="45.9066" lon="2.99787">
        <ele>731</ele>
        <time>2024-07-23T08:48:00Z</time>
      </trkpt>
      <trkpt lat="45.90661" lon="2.99786">
        <ele>731.7</ele>
        <time>2024-07-23T08:48:01Z</time>
      </trkpt>
      <trkpt lat="45.90661" lon="2.99784">
        <ele>731.8</ele>
        <time>2024-07-23T08:48:02Z</time>
      </trkpt>
      <trkpt lat="45.90662" lon="2.99782">
        <ele>729</ele>
        <time>2024-07-23T08:48:03Z</time>
      </trkpt>
      <trkpt lat="45.90662" lon="2.99781">
        <ele>729.4</ele>
        <time>2024-07-23T08:48:04Z</time>
      </trkpt>
      <trkpt lat="45.90663" lon="2.9978">
        <ele>730.1</ele>
        <time>2024-07-23T08:48:05Z</time>
      </trkpt>
      <trkpt lat="45.90664" lon="2.99779">
        <ele>729.5</ele>
        <time>2024-07-23T08:48:06Z</time>
      </trkpt>
      <trkpt lat="45.90666" lon="2.99777">
        <ele>729.3</ele>
        <time>2024-07-23T08:48:07Z</time>
      </trkpt>
      <trkpt lat="45.90667" lon="2.99775">
        <ele>729.9</ele>
        <time>2024-07-23T08:48:08Z</time>
      </trkpt>
      <trkpt lat="45.90668" lon="2.99773">
        <ele>731.4</ele>
        <time>2024-07-23T08:48:09Z</time>
      </trkpt>
      <trkpt lat="45.90668" lon="2.99771">
        <ele>730.5</ele>
        <time>2024-07-23T08:48:10Z</time>
      </trkpt>
      <trkpt lat="45.90668" lon="2.99769">
        <ele>729.8</ele>
        <time>2024-07-23T08:48:11Z</time>
      </trkpt>
      <trkpt lat="45.90668" lon="2.99768">
        <ele>730.3</ele>
        <time>2024-07-23T08:48:14Z</time>
      </trkpt>
      <trkpt lat="45.90667" lon="2.99765">
        <ele>731.2</ele>
        <time>2024-07-23T08:48:16Z</time>
      </trkpt>
      <trkpt lat="45.90667" lon="2.99764">
        <ele>731</ele>
        <time>2024-07-23T08:48:17Z</time>
      </trkpt>
      <trkpt lat="45.90667" lon="2.99763">
        <ele>729.3</ele>
        <time>2024-07-23T08:48:18Z</time>
      </trkpt>
      <trkpt lat="45.90667" lon="2.99761">
        <ele>729.3</ele>
        <time>2024-07-23T08:48:19Z</time>
      </trkpt>
      <trkpt lat="45.90667" lon="2.9976">
        <ele>729.1</ele>
        <time>2024-07-23T08:48:20Z</time>
      </trkpt>
      <trkpt lat="45.90666" lon="2.99759">
        <ele>729.1</ele>
        <time>2024-07-23T08:48:21Z</time>
      </trkpt>
      <trkpt lat="45.90665" lon="2.99756">
        <ele>728.9</ele>
        <time>2024-07-23T08:48:23Z</time>
      </trkpt>
      <trkpt lat="45.90665" lon="2.99755">
        <ele>729.2</ele>
        <time>2024-07-23T08:48:24Z</time>
      </trkpt>
      <trkpt lat="45.90663" lon="2.99752">
        <ele>731.4</ele>
        <time>2024-07-23T08:48:27Z</time>
      </trkpt>
      <trkpt lat="45.90662" lon="2.99751">
        <ele>731.3</ele>
        <time>2024-07-23T08:48:28Z</time>
      </trkpt>
      <trkpt lat="45.90661" lon="2.9975">
        <ele>730.8</ele>
        <time>2024-07-23T08:48:29Z</time>
      </trkpt>
      <trkpt lat="45.9066" lon="2.99747">
        <ele>730.6</ele>
        <time>2024-07-23T08:48:31Z</time>
      </trkpt>
      <trkpt lat="45.90659" lon="2.99746">
        <ele>730.5</ele>
        <time>2024-07-23T08:48:32Z</time>
      </trkpt>
      <trkpt lat="45.90659" lon="2.99743">
        <ele>731</ele>
        <time>2024-07-23T08:48:34Z</time>
      </trkpt>
      <trkpt lat="45.90658" lon="2.99742">
        <ele>731.3</ele>
        <time>2024-07-23T08:48:35Z</time>
      </trkpt>
      <trkpt lat="45.90657" lon="2.99741">
        <ele>731.2</ele>
        <time>2024-07-23T08:48:36Z</time>
      </trkpt>
      <trkpt lat="45.90657" lon="2.99739">
        <ele>731.5</ele>
        <time>2024-07-23T08:48:37Z</time>
      </trkpt>
      <trkpt lat="45.90657" lon="2.99738">
        <ele>731.8</ele>
        <time>2024-07-23T08:48:38Z</time>
      </trkpt>
      <trkpt lat="45.90657" lon="2.99736">
        <ele>732.7</ele>
        <time>2024-07-23T08:48:40Z</time>
      </trkpt>
      <trkpt lat="45.90659" lon="2.99734">
        <ele>734.6</ele>
        <time>2024-07-23T08:48:42Z</time>
      </trkpt>
      <trkpt lat="45.90659" lon="2.99733">
        <ele>733.9</ele>
        <time>2024-07-23T08:48:43Z</time>
      </trkpt>
      <trkpt lat="45.9066" lon="2.99731">
        <ele>733.2</ele>
        <time>2024-07-23T08:48:45Z</time>
      </trkpt>
      <trkpt lat="45.9066" lon="2.99729">
        <ele>733.7</ele>
        <time>2024-07-23T08:48:47Z</time>
      </trkpt>
      <trkpt lat="45.90661" lon="2.99728">
        <ele>735.3</ele>
        <time>2024-07-23T08:48:48Z</time>
      </trkpt>
      <trkpt lat="45.90662" lon="2.99727">
        <ele>735</ele>
        <time>2024-07-23T08:48:49Z</time>
      </trkpt>
      <trkpt lat="45.90663" lon="2.99727">
        <ele>733.6</ele>
        <time>2024-07-23T08:48:50Z</time>
      </trkpt>
      <trkpt lat="45.90665" lon="2.99726">
        <ele>734.1</ele>
        <time>2024-07-23T08:48:52Z</time>
      </trkpt>
      <trkpt lat="45.90666" lon="2.99725">
        <ele>734.8</ele>
        <time>2024-07-23T08:48:54Z</time>
      </trkpt>
      <trkpt lat="45.90666" lon="2.99723">
        <ele>732.9</ele>
        <time>2024-07-23T08:48:56Z</time>
      </trkpt>
      <trkpt lat="45.90667" lon="2.99721">
        <ele>733</ele>
        <time>2024-07-23T08:48:58Z</time>
      </trkpt>
      <trkpt lat="45.90668" lon="2.9972">
        <ele>732.4</ele>
        <time>2024-07-23T08:48:59Z</time>
      </trkpt>
      <trkpt lat="45.90669" lon="2.99719">
        <ele>732.7</ele>
        <time>2024-07-23T08:49:00Z</time>
      </trkpt>
      <trkpt lat="45.90669" lon="2.99718">
        <ele>732.4</ele>
        <time>2024-07-23T08:49:01Z</time>
      </trkpt>
      <trkpt lat="45.9067" lon="2.99717">
        <ele>732.3</ele>
        <time>2024-07-23T08:49:02Z</time>
      </trkpt>
      <trkpt lat="45.90671" lon="2.99715">
        <ele>733.5</ele>
        <time>2024-07-23T08:49:04Z</time>
      </trkpt>
      <trkpt lat="45.90672" lon="2.99714">
        <ele>732.5</ele>
        <time>2024-07-23T08:49:05Z</time>
      </trkpt>
      <trkpt lat="45.90674" lon="2.99713">
        <ele>731.7</ele>
        <time>2024-07-23T08:49:06Z</time>
      </trkpt>
      <trkpt lat="45.90675" lon="2.99713">
        <ele>731.7</ele>
        <time>2024-07-23T08:49:07Z</time>
      </trkpt>
      <trkpt lat="45.90676" lon="2.99712">
        <ele>731.3</ele>
        <time>2024-07-23T08:49:08Z</time>
      </trkpt>
      <trkpt lat="45.90677" lon="2.99711">
        <ele>731.9</ele>
        <time>2024-07-23T08:49:09Z</time>
      </trkpt>
      <trkpt lat="45.90677" lon="2.9971">
        <ele>731.8</ele>
        <time>2024-07-23T08:49:10Z</time>
      </trkpt>
      <trkpt lat="45.90678" lon="2.99709">
        <ele>731.2</ele>
        <time>2024-07-23T08:49:11Z</time>
      </trkpt>
      <trkpt lat="45.90679" lon="2.99708">
        <ele>731.4</ele>
        <time>2024-07-23T08:49:12Z</time>
      </trkpt>
      <trkpt lat="45.90679" lon="2.99707">
        <ele>731.5</ele>
        <time>2024-07-23T08:49:13Z</time>
      </trkpt>
      <trkpt lat="45.9068" lon="2.99706">
        <ele>730.9</ele>
        <time>2024-07-23T08:49:14Z</time>
      </trkpt>
      <trkpt lat="45.90681" lon="2.99706">
        <ele>731</ele>
        <time>2024-07-23T08:49:15Z</time>
      </trkpt>
      <trkpt lat="45.90682" lon="2.99705">
        <ele>731</ele>
        <time>2024-07-23T08:49:16Z</time>
      </trkpt>
      <trkpt lat="45.90682" lon="2.99704">
        <ele>731.2</ele>
        <time>2024-07-23T08:49:17Z</time>
      </trkpt>
      <trkpt lat="45.90684" lon="2.99702">
        <ele>731.8</ele>
        <time>2024-07-23T08:49:19Z</time>
      </trkpt>
      <trkpt lat="45.90685" lon="2.99701">
        <ele>731.8</ele>
        <time>2024-07-23T08:49:20Z</time>
      </trkpt>
      <trkpt lat="45.90686" lon="2.997">
        <ele>731.7</ele>
        <time>2024-07-23T08:49:22Z</time>
      </trkpt>
      <trkpt lat="45.90687" lon="2.99699">
        <ele>731.8</ele>
        <time>2024-07-23T08:49:24Z</time>
      </trkpt>
      <trkpt lat="45.90688" lon="2.99698">
        <ele>731.6</ele>
        <time>2024-07-23T08:49:25Z</time>
      </trkpt>
      <trkpt lat="45.90689" lon="2.99697">
        <ele>731.4</ele>
        <time>2024-07-23T08:49:26Z</time>
      </trkpt>
      <trkpt lat="45.90689" lon="2.99696">
        <ele>731.3</ele>
        <time>2024-07-23T08:49:27Z</time>
      </trkpt>
      <trkpt lat="45.9069" lon="2.99696">
        <ele>731.1</ele>
        <time>2024-07-23T08:49:28Z</time>
      </trkpt>
      <trkpt lat="45.90691" lon="2.99695">
        <ele>731.1</ele>
        <time>2024-07-23T08:49:29Z</time>
      </trkpt>
      <trkpt lat="45.90693" lon="2.99694">
        <ele>732</ele>
        <time>2024-07-23T08:49:31Z</time>
      </trkpt>
      <trkpt lat="45.90694" lon="2.99692">
        <ele>730.7</ele>
        <time>2024-07-23T08:49:33Z</time>
      </trkpt>
      <trkpt lat="45.90695" lon="2.99692">
        <ele>731.4</ele>
        <time>2024-07-23T08:49:34Z</time>
      </trkpt>
      <trkpt lat="45.90696" lon="2.9969">
        <ele>731.3</ele>
        <time>2024-07-23T08:49:36Z</time>
      </trkpt>
      <trkpt lat="45.90698" lon="2.99691">
        <ele>733</ele>
        <time>2024-07-23T08:49:38Z</time>
      </trkpt>
      <trkpt lat="45.90699" lon="2.99691">
        <ele>732.8</ele>
        <time>2024-07-23T08:49:39Z</time>
      </trkpt>
      <trkpt lat="45.907" lon="2.99692">
        <ele>733</ele>
        <time>2024-07-23T08:49:40Z</time>
      </trkpt>
      <trkpt lat="45.90702" lon="2.99693">
        <ele>731.2</ele>
        <time>2024-07-23T08:49:41Z</time>
      </trkpt>
      <trkpt lat="45.90703" lon="2.99693">
        <ele>730.2</ele>
        <time>2024-07-23T08:49:42Z</time>
      </trkpt>
      <trkpt lat="45.90705" lon="2.99695">
        <ele>727.7</ele>
        <time>2024-07-23T08:49:43Z</time>
      </trkpt>
      <trkpt lat="45.90706" lon="2.99695">
        <ele>728</ele>
        <time>2024-07-23T08:49:44Z</time>
      </trkpt>
      <trkpt lat="45.90708" lon="2.99696">
        <ele>727.9</ele>
        <time>2024-07-23T08:49:45Z</time>
      </trkpt>
      <trkpt lat="45.90709" lon="2.99695">
        <ele>728.1</ele>
        <time>2024-07-23T08:49:46Z</time>
      </trkpt>
      <trkpt lat="45.90711" lon="2.99695">
        <ele>729.3</ele>
        <time>2024-07-23T08:49:47Z</time>
      </trkpt>
      <trkpt lat="45.90712" lon="2.99694">
        <ele>729.5</ele>
        <time>2024-07-23T08:49:48Z</time>
      </trkpt>
      <trkpt lat="45.90713" lon="2.99695">
        <ele>732.1</ele>
        <time>2024-07-23T08:49:50Z</time>
      </trkpt>
      <trkpt lat="45.90714" lon="2.99695">
        <ele>732.3</ele>
        <time>2024-07-23T08:49:52Z</time>
      </trkpt>
      <trkpt lat="45.90715" lon="2.99694">
        <ele>733.9</ele>
        <time>2024-07-23T08:49:54Z</time>
      </trkpt>
      <trkpt lat="45.90716" lon="2.99693">
        <ele>733.1</ele>
        <time>2024-07-23T08:49:55Z</time>
      </trkpt>
      <trkpt lat="45.90717" lon="2.99692">
        <ele>734.2</ele>
        <time>2024-07-23T08:49:56Z</time>
      </trkpt>
      <trkpt lat="45.90718" lon="2.99691">
        <ele>733.6</ele>
        <time>2024-07-23T08:49:57Z</time>
      </trkpt>
      <trkpt lat="45.90719" lon="2.9969">
        <ele>733.8</ele>
        <time>2024-07-23T08:49:59Z</time>
      </trkpt>
      <trkpt lat="45.90721" lon="2.9969">
        <ele>733.5</ele>
        <time>2024-07-23T08:50:01Z</time>
      </trkpt>
      <trkpt lat="45.90722" lon="2.9969">
        <ele>734.6</ele>
        <time>2024-07-23T08:50:03Z</time>
      </trkpt>
      <trkpt lat="45.90724" lon="2.9969">
        <ele>733.7</ele>
        <time>2024-07-23T08:50:05Z</time>
      </trkpt>
      <trkpt lat="45.90726" lon="2.9969">
        <ele>733.6</ele>
        <time>2024-07-23T08:50:07Z</time>
      </trkpt>
      <trkpt lat="45.90727" lon="2.9969">
        <ele>733.7</ele>
        <time>2024-07-23T08:50:08Z</time>
      </trkpt>
      <trkpt lat="45.90728" lon="2.9969">
        <ele>734.2</ele>
        <time>2024-07-23T08:50:09Z</time>
      </trkpt>
      <trkpt lat="45.90729" lon="2.9969">
        <ele>733.9</ele>
        <time>2024-07-23T08:50:10Z</time>
      </trkpt>
      <trkpt lat="45.9073" lon="2.9969">
        <ele>733</ele>
        <time>2024-07-23T08:50:11Z</time>
      </trkpt>
      <trkpt lat="45.90732" lon="2.9969">
        <ele>733.3</ele>
        <time>2024-07-23T08:50:13Z</time>
      </trkpt>
      <trkpt lat="45.90733" lon="2.9969">
        <ele>733</ele>
        <time>2024-07-23T08:50:14Z</time>
      </trkpt>
      <trkpt lat="45.90734" lon="2.99691">
        <ele>733.7</ele>
        <time>2024-07-23T08:50:16Z</time>
      </trkpt>
      <trkpt lat="45.90736" lon="2.9969">
        <ele>735.8</ele>
        <time>2024-07-23T08:50:18Z</time>
      </trkpt>
      <trkpt lat="45.90737" lon="2.99689">
        <ele>737.6</ele>
        <time>2024-07-23T08:50:20Z</time>
      </trkpt>
      <trkpt lat="45.90738" lon="2.99689">
        <ele>739.1</ele>
        <time>2024-07-23T08:50:21Z</time>
      </trkpt>
      <trkpt lat="45.90739" lon="2.99689">
        <ele>737.7</ele>
        <time>2024-07-23T08:50:22Z</time>
      </trkpt>
      <trkpt lat="45.9074" lon="2.99688">
        <ele>738.2</ele>
        <time>2024-07-23T08:50:23Z</time>
      </trkpt>
      <trkpt lat="45.90741" lon="2.99687">
        <ele>737.8</ele>
        <time>2024-07-23T08:50:24Z</time>
      </trkpt>
      <trkpt lat="45.90742" lon="2.99686">
        <ele>737.2</ele>
        <time>2024-07-23T08:50:25Z</time>
      </trkpt>
      <trkpt lat="45.90743" lon="2.99686">
        <ele>736.9</ele>
        <time>2024-07-23T08:50:26Z</time>
      </trkpt>
      <trkpt lat="45.90745" lon="2.99687">
        <ele>737.8</ele>
        <time>2024-07-23T08:50:27Z</time>
      </trkpt>
      <trkpt lat="45.90747" lon="2.99687">
        <ele>736.8</ele>
        <time>2024-07-23T08:50:28Z</time>
      </trkpt>
      <trkpt lat="45.90749" lon="2.99689">
        <ele>735</ele>
        <time>2024-07-23T08:50:29Z</time>
      </trkpt>
      <trkpt lat="45.90751" lon="2.9969">
        <ele>734.5</ele>
        <time>2024-07-23T08:50:30Z</time>
      </trkpt>
      <trkpt lat="45.90752" lon="2.99691">
        <ele>733.8</ele>
        <time>2024-07-23T08:50:31Z</time>
      </trkpt>
      <trkpt lat="45.90754" lon="2.99692">
        <ele>732.6</ele>
        <time>2024-07-23T08:50:32Z</time>
      </trkpt>
      <trkpt lat="45.90755" lon="2.99692">
        <ele>732.9</ele>
        <time>2024-07-23T08:50:33Z</time>
      </trkpt>
      <trkpt lat="45.90757" lon="2.99693">
        <ele>732.8</ele>
        <time>2024-07-23T08:50:34Z</time>
      </trkpt>
      <trkpt lat="45.90758" lon="2.99693">
        <ele>732.2</ele>
        <time>2024-07-23T08:50:35Z</time>
      </trkpt>
      <trkpt lat="45.90759" lon="2.99694">
        <ele>731.1</ele>
        <time>2024-07-23T08:50:36Z</time>
      </trkpt>
      <trkpt lat="45.9076" lon="2.99694">
        <ele>730.9</ele>
        <time>2024-07-23T08:50:37Z</time>
      </trkpt>
      <trkpt lat="45.90761" lon="2.99694">
        <ele>730.2</ele>
        <time>2024-07-23T08:50:38Z</time>
      </trkpt>
      <trkpt lat="45.90762" lon="2.99693">
        <ele>729.6</ele>
        <time>2024-07-23T08:50:39Z</time>
      </trkpt>
      <trkpt lat="45.90763" lon="2.99693">
        <ele>729.6</ele>
        <time>2024-07-23T08:50:40Z</time>
      </trkpt>
      <trkpt lat="45.90764" lon="2.99692">
        <ele>728.6</ele>
        <time>2024-07-23T08:50:41Z</time>
      </trkpt>
      <trkpt lat="45.90765" lon="2.99693">
        <ele>728.4</ele>
        <time>2024-07-23T08:50:42Z</time>
      </trkpt>
      <trkpt lat="45.90766" lon="2.99694">
        <ele>728.5</ele>
        <time>2024-07-23T08:50:43Z</time>
      </trkpt>
      <trkpt lat="45.90767" lon="2.99695">
        <ele>726.9</ele>
        <time>2024-07-23T08:50:45Z</time>
      </trkpt>
      <trkpt lat="45.90768" lon="2.99695">
        <ele>728</ele>
        <time>2024-07-23T08:50:47Z</time>
      </trkpt>
      <trkpt lat="45.9077" lon="2.99696">
        <ele>729.2</ele>
        <time>2024-07-23T08:50:49Z</time>
      </trkpt>
      <trkpt lat="45.90771" lon="2.99697">
        <ele>730</ele>
        <time>2024-07-23T08:50:51Z</time>
      </trkpt>
      <trkpt lat="45.90772" lon="2.99697">
        <ele>729.9</ele>
        <time>2024-07-23T08:50:52Z</time>
      </trkpt>
      <trkpt lat="45.90773" lon="2.99698">
        <ele>729.7</ele>
        <time>2024-07-23T08:50:53Z</time>
      </trkpt>
      <trkpt lat="45.90774" lon="2.99699">
        <ele>730.3</ele>
        <time>2024-07-23T08:50:54Z</time>
      </trkpt>
      <trkpt lat="45.90775" lon="2.99699">
        <ele>731.3</ele>
        <time>2024-07-23T08:50:55Z</time>
      </trkpt>
      <trkpt lat="45.90775" lon="2.997">
        <ele>731.6</ele>
        <time>2024-07-23T08:50:56Z</time>
      </trkpt>
      <trkpt lat="45.90776" lon="2.997">
        <ele>732</ele>
        <time>2024-07-23T08:50:57Z</time>
      </trkpt>
      <trkpt lat="45.90777" lon="2.99701">
        <ele>732</ele>
        <time>2024-07-23T08:50:58Z</time>
      </trkpt>
      <trkpt lat="45.90778" lon="2.99702">
        <ele>731.8</ele>
        <time>2024-07-23T08:50:59Z</time>
      </trkpt>
      <trkpt lat="45.90779" lon="2.99703">
        <ele>731.2</ele>
        <time>2024-07-23T08:51:00Z</time>
      </trkpt>
      <trkpt lat="45.9078" lon="2.99704">
        <ele>733.6</ele>
        <time>2024-07-23T08:51:02Z</time>
      </trkpt>
      <trkpt lat="45.90782" lon="2.99705">
        <ele>733.9</ele>
        <time>2024-07-23T08:51:04Z</time>
      </trkpt>
      <trkpt lat="45.90783" lon="2.99707">
        <ele>734.6</ele>
        <time>2024-07-23T08:51:06Z</time>
      </trkpt>
      <trkpt lat="45.90784" lon="2.99709">
        <ele>737</ele>
        <time>2024-07-23T08:51:08Z</time>
      </trkpt>
      <trkpt lat="45.90785" lon="2.99711">
        <ele>736.5</ele>
        <time>2024-07-23T08:51:09Z</time>
      </trkpt>
      <trkpt lat="45.90786" lon="2.99713">
        <ele>735.4</ele>
        <time>2024-07-23T08:51:11Z</time>
      </trkpt>
      <trkpt lat="45.90787" lon="2.99714">
        <ele>735</ele>
        <time>2024-07-23T08:51:12Z</time>
      </trkpt>
      <trkpt lat="45.90788" lon="2.99714">
        <ele>734.6</ele>
        <time>2024-07-23T08:51:13Z</time>
      </trkpt>
      <trkpt lat="45.90789" lon="2.99715">
        <ele>735.2</ele>
        <time>2024-07-23T08:51:14Z</time>
      </trkpt>
      <trkpt lat="45.9079" lon="2.99716">
        <ele>732.2</ele>
        <time>2024-07-23T08:51:15Z</time>
      </trkpt>
      <trkpt lat="45.90792" lon="2.99716">
        <ele>731</ele>
        <time>2024-07-23T08:51:16Z</time>
      </trkpt>
      <trkpt lat="45.90794" lon="2.99716">
        <ele>730.2</ele>
        <time>2024-07-23T08:51:17Z</time>
      </trkpt>
      <trkpt lat="45.90795" lon="2.99716">
        <ele>730.1</ele>
        <time>2024-07-23T08:51:18Z</time>
      </trkpt>
      <trkpt lat="45.90796" lon="2.99717">
        <ele>733.9</ele>
        <time>2024-07-23T08:51:20Z</time>
      </trkpt>
      <trkpt lat="45.90797" lon="2.99716">
        <ele>735.2</ele>
        <time>2024-07-23T08:51:21Z</time>
      </trkpt>
      <trkpt lat="45.90798" lon="2.99715">
        <ele>738.7</ele>
        <time>2024-07-23T08:51:23Z</time>
      </trkpt>
      <trkpt lat="45.90799" lon="2.99713">
        <ele>741.3</ele>
        <time>2024-07-23T08:51:25Z</time>
      </trkpt>
      <trkpt lat="45.90799" lon="2.99711">
        <ele>739.1</ele>
        <time>2024-07-23T08:51:27Z</time>
      </trkpt>
      <trkpt lat="45.90799" lon="2.99709">
        <ele>738.4</ele>
        <time>2024-07-23T08:51:28Z</time>
      </trkpt>
      <trkpt lat="45.90799" lon="2.99706">
        <ele>737.9</ele>
        <time>2024-07-23T08:51:30Z</time>
      </trkpt>
      <trkpt lat="45.90799" lon="2.99705">
        <ele>736.7</ele>
        <time>2024-07-23T08:51:31Z</time>
      </trkpt>
      <trkpt lat="45.90799" lon="2.99703">
        <ele>736.7</ele>
        <time>2024-07-23T08:51:32Z</time>
      </trkpt>
      <trkpt lat="45.90798" lon="2.99701">
        <ele>733.9</ele>
        <time>2024-07-23T08:51:33Z</time>
      </trkpt>
      <trkpt lat="45.90798" lon="2.99699">
        <ele>735.1</ele>
        <time>2024-07-23T08:51:34Z</time>
      </trkpt>
      <trkpt lat="45.90798" lon="2.99698">
        <ele>735.2</ele>
        <time>2024-07-23T08:51:35Z</time>
      </trkpt>
      <trkpt lat="45.90798" lon="2.99696">
        <ele>736.7</ele>
        <time>2024-07-23T08:51:36Z</time>
      </trkpt>
      <trkpt lat="45.90798" lon="2.99695">
        <ele>736.8</ele>
        <time>2024-07-23T08:51:37Z</time>
      </trkpt>
      <trkpt lat="45.90798" lon="2.99693">
        <ele>737.1</ele>
        <time>2024-07-23T08:51:38Z</time>
      </trkpt>
      <trkpt lat="45.90798" lon="2.99691">
        <ele>737.3</ele>
        <time>2024-07-23T08:51:40Z</time>
      </trkpt>
      <trkpt lat="45.90798" lon="2.9969">
        <ele>736.4</ele>
        <time>2024-07-23T08:51:43Z</time>
      </trkpt>
      <trkpt lat="45.90798" lon="2.99688">
        <ele>736.7</ele>
        <time>2024-07-23T08:51:45Z</time>
      </trkpt>
      <trkpt lat="45.90799" lon="2.99689">
        <ele>737.3</ele>
        <time>2024-07-23T08:51:49Z</time>
      </trkpt>
      <trkpt lat="45.90799" lon="2.99687">
        <ele>737.6</ele>
        <time>2024-07-23T08:52:26Z</time>
      </trkpt>
      <trkpt lat="45.90799" lon="2.99685">
        <ele>737.9</ele>
        <time>2024-07-23T08:52:27Z</time>
      </trkpt>
      <trkpt lat="45.90799" lon="2.99684">
        <ele>738</ele>
        <time>2024-07-23T08:52:28Z</time>
      </trkpt>
      <trkpt lat="45.90799" lon="2.99682">
        <ele>738.3</ele>
        <time>2024-07-23T08:52:29Z</time>
      </trkpt>
      <trkpt lat="45.90799" lon="2.99681">
        <ele>738.4</ele>
        <time>2024-07-23T08:52:30Z</time>
      </trkpt>
      <trkpt lat="45.90799" lon="2.99679">
        <ele>737.7</ele>
        <time>2024-07-23T08:52:32Z</time>
      </trkpt>
      <trkpt lat="45.90799" lon="2.99677">
        <ele>737.8</ele>
        <time>2024-07-23T08:52:33Z</time>
      </trkpt>
      <trkpt lat="45.90799" lon="2.99676">
        <ele>737.4</ele>
        <time>2024-07-23T08:52:34Z</time>
      </trkpt>
      <trkpt lat="45.90799" lon="2.99674">
        <ele>737.2</ele>
        <time>2024-07-23T08:52:35Z</time>
      </trkpt>
      <trkpt lat="45.90799" lon="2.99673">
        <ele>737.3</ele>
        <time>2024-07-23T08:52:36Z</time>
      </trkpt>
      <trkpt lat="45.90798" lon="2.99671">
        <ele>737.4</ele>
        <time>2024-07-23T08:52:37Z</time>
      </trkpt>
      <trkpt lat="45.90798" lon="2.9967">
        <ele>737.6</ele>
        <time>2024-07-23T08:52:38Z</time>
      </trkpt>
      <trkpt lat="45.90798" lon="2.99668">
        <ele>737.7</ele>
        <time>2024-07-23T08:52:39Z</time>
      </trkpt>
      <trkpt lat="45.90798" lon="2.99667">
        <ele>737.5</ele>
        <time>2024-07-23T08:52:40Z</time>
      </trkpt>
      <trkpt lat="45.90798" lon="2.99665">
        <ele>737.5</ele>
        <time>2024-07-23T08:52:41Z</time>
      </trkpt>
      <trkpt lat="45.90799" lon="2.99664">
        <ele>737.5</ele>
        <time>2024-07-23T08:52:42Z</time>
      </trkpt>
      <trkpt lat="45.90799" lon="2.99663">
        <ele>737.6</ele>
        <time>2024-07-23T08:52:43Z</time>
      </trkpt>
      <trkpt lat="45.90799" lon="2.9966">
        <ele>737.6</ele>
        <time>2024-07-23T08:52:45Z</time>
      </trkpt>
      <trkpt lat="45.90799" lon="2.99659">
        <ele>737.7</ele>
        <time>2024-07-23T08:52:46Z</time>
      </trkpt>
      <trkpt lat="45.90799" lon="2.99657">
        <ele>737.9</ele>
        <time>2024-07-23T08:52:47Z</time>
      </trkpt>
      <trkpt lat="45.90799" lon="2.99656">
        <ele>738.2</ele>
        <time>2024-07-23T08:52:48Z</time>
      </trkpt>
      <trkpt lat="45.90799" lon="2.99655">
        <ele>738.2</ele>
        <time>2024-07-23T08:52:49Z</time>
      </trkpt>
      <trkpt lat="45.908" lon="2.99653">
        <ele>739.6</ele>
        <time>2024-07-23T08:52:50Z</time>
      </trkpt>
      <trkpt lat="45.908" lon="2.99652">
        <ele>739.3</ele>
        <time>2024-07-23T08:52:51Z</time>
      </trkpt>
      <trkpt lat="45.908" lon="2.9965">
        <ele>739.3</ele>
        <time>2024-07-23T08:52:52Z</time>
      </trkpt>
      <trkpt lat="45.908" lon="2.99649">
        <ele>739.2</ele>
        <time>2024-07-23T08:52:53Z</time>
      </trkpt>
      <trkpt lat="45.908" lon="2.99647">
        <ele>739</ele>
        <time>2024-07-23T08:52:54Z</time>
      </trkpt>
      <trkpt lat="45.908" lon="2.99646">
        <ele>739.3</ele>
        <time>2024-07-23T08:52:55Z</time>
      </trkpt>
      <trkpt lat="45.908" lon="2.99645">
        <ele>739.1</ele>
        <time>2024-07-23T08:52:56Z</time>
      </trkpt>
      <trkpt lat="45.908" lon="2.99643">
        <ele>739</ele>
        <time>2024-07-23T08:52:57Z</time>
      </trkpt>
      <trkpt lat="45.908" lon="2.99642">
        <ele>739.1</ele>
        <time>2024-07-23T08:52:58Z</time>
      </trkpt>
      <trkpt lat="45.908" lon="2.9964">
        <ele>739.2</ele>
        <time>2024-07-23T08:52:59Z</time>
      </trkpt>
      <trkpt lat="45.908" lon="2.99639">
        <ele>739.2</ele>
        <time>2024-07-23T08:53:00Z</time>
      </trkpt>
      <trkpt lat="45.908" lon="2.99637">
        <ele>739.1</ele>
        <time>2024-07-23T08:53:01Z</time>
      </trkpt>
      <trkpt lat="45.908" lon="2.99636">
        <ele>739</ele>
        <time>2024-07-23T08:53:02Z</time>
      </trkpt>
      <trkpt lat="45.908" lon="2.99634">
        <ele>738.8</ele>
        <time>2024-07-23T08:53:03Z</time>
      </trkpt>
      <trkpt lat="45.908" lon="2.99633">
        <ele>738.3</ele>
        <time>2024-07-23T08:53:04Z</time>
      </trkpt>
      <trkpt lat="45.908" lon="2.99632">
        <ele>738.2</ele>
        <time>2024-07-23T08:53:05Z</time>
      </trkpt>
      <trkpt lat="45.908" lon="2.99629">
        <ele>738.4</ele>
        <time>2024-07-23T08:53:07Z</time>
      </trkpt>
      <trkpt lat="45.908" lon="2.99628">
        <ele>738.2</ele>
        <time>2024-07-23T08:53:08Z</time>
      </trkpt>
      <trkpt lat="45.908" lon="2.99626">
        <ele>738.1</ele>
        <time>2024-07-23T08:53:09Z</time>
      </trkpt>
      <trkpt lat="45.908" lon="2.99625">
        <ele>738</ele>
        <time>2024-07-23T08:53:10Z</time>
      </trkpt>
      <trkpt lat="45.908" lon="2.99623">
        <ele>738</ele>
        <time>2024-07-23T08:53:11Z</time>
      </trkpt>
      <trkpt lat="45.908" lon="2.99622">
        <ele>737.9</ele>
        <time>2024-07-23T08:53:12Z</time>
      </trkpt>
      <trkpt lat="45.908" lon="2.99621">
        <ele>738.1</ele>
        <time>2024-07-23T08:53:13Z</time>
      </trkpt>
      <trkpt lat="45.908" lon="2.99619">
        <ele>738.5</ele>
        <time>2024-07-23T08:53:14Z</time>
      </trkpt>
      <trkpt lat="45.908" lon="2.99618">
        <ele>738.3</ele>
        <time>2024-07-23T08:53:15Z</time>
      </trkpt>
      <trkpt lat="45.908" lon="2.99616">
        <ele>738.2</ele>
        <time>2024-07-23T08:53:16Z</time>
      </trkpt>
      <trkpt lat="45.908" lon="2.99615">
        <ele>738</ele>
        <time>2024-07-23T08:53:17Z</time>
      </trkpt>
      <trkpt lat="45.90801" lon="2.99613">
        <ele>738.2</ele>
        <time>2024-07-23T08:53:18Z</time>
      </trkpt>
      <trkpt lat="45.90801" lon="2.99612">
        <ele>738.3</ele>
        <time>2024-07-23T08:53:19Z</time>
      </trkpt>
      <trkpt lat="45.90802" lon="2.99611">
        <ele>738.2</ele>
        <time>2024-07-23T08:53:20Z</time>
      </trkpt>
      <trkpt lat="45.90803" lon="2.99609">
        <ele>738.5</ele>
        <time>2024-07-23T08:53:21Z</time>
      </trkpt>
      <trkpt lat="45.90803" lon="2.99608">
        <ele>738.5</ele>
        <time>2024-07-23T08:53:22Z</time>
      </trkpt>
      <trkpt lat="45.90803" lon="2.99607">
        <ele>738.8</ele>
        <time>2024-07-23T08:53:23Z</time>
      </trkpt>
      <trkpt lat="45.90804" lon="2.99606">
        <ele>738.6</ele>
        <time>2024-07-23T08:53:24Z</time>
      </trkpt>
      <trkpt lat="45.90804" lon="2.99604">
        <ele>738.8</ele>
        <time>2024-07-23T08:53:25Z</time>
      </trkpt>
      <trkpt lat="45.90805" lon="2.99603">
        <ele>738.8</ele>
        <time>2024-07-23T08:53:26Z</time>
      </trkpt>
      <trkpt lat="45.90805" lon="2.99602">
        <ele>738.8</ele>
        <time>2024-07-23T08:53:27Z</time>
      </trkpt>
      <trkpt lat="45.90806" lon="2.996">
        <ele>738.8</ele>
        <time>2024-07-23T08:53:28Z</time>
      </trkpt>
      <trkpt lat="45.90806" lon="2.99599">
        <ele>739.1</ele>
        <time>2024-07-23T08:53:29Z</time>
      </trkpt>
      <trkpt lat="45.90807" lon="2.99598">
        <ele>738.9</ele>
        <time>2024-07-23T08:53:30Z</time>
      </trkpt>
      <trkpt lat="45.90808" lon="2.99597">
        <ele>739</ele>
        <time>2024-07-23T08:53:31Z</time>
      </trkpt>
      <trkpt lat="45.90808" lon="2.99596">
        <ele>739</ele>
        <time>2024-07-23T08:53:32Z</time>
      </trkpt>
      <trkpt lat="45.90809" lon="2.99595">
        <ele>739.3</ele>
        <time>2024-07-23T08:53:33Z</time>
      </trkpt>
      <trkpt lat="45.9081" lon="2.99594">
        <ele>739.1</ele>
        <time>2024-07-23T08:53:34Z</time>
      </trkpt>
      <trkpt lat="45.9081" lon="2.99592">
        <ele>739.1</ele>
        <time>2024-07-23T08:53:35Z</time>
      </trkpt>
      <trkpt lat="45.90811" lon="2.9959">
        <ele>739.3</ele>
        <time>2024-07-23T08:53:37Z</time>
      </trkpt>
      <trkpt lat="45.90811" lon="2.99588">
        <ele>740.1</ele>
        <time>2024-07-23T08:53:38Z</time>
      </trkpt>
      <trkpt lat="45.90811" lon="2.99587">
        <ele>741.1</ele>
        <time>2024-07-23T08:53:39Z</time>
      </trkpt>
      <trkpt lat="45.90812" lon="2.99586">
        <ele>741.4</ele>
        <time>2024-07-23T08:53:40Z</time>
      </trkpt>
      <trkpt lat="45.90812" lon="2.99585">
        <ele>741.5</ele>
        <time>2024-07-23T08:53:41Z</time>
      </trkpt>
      <trkpt lat="45.90813" lon="2.99583">
        <ele>742.3</ele>
        <time>2024-07-23T08:53:43Z</time>
      </trkpt>
      <trkpt lat="45.90814" lon="2.99582">
        <ele>741.1</ele>
        <time>2024-07-23T08:53:44Z</time>
      </trkpt>
      <trkpt lat="45.90815" lon="2.99581">
        <ele>740.4</ele>
        <time>2024-07-23T08:53:45Z</time>
      </trkpt>
      <trkpt lat="45.90816" lon="2.99579">
        <ele>739.1</ele>
        <time>2024-07-23T08:53:46Z</time>
      </trkpt>
      <trkpt lat="45.90817" lon="2.99577">
        <ele>738.5</ele>
        <time>2024-07-23T08:53:47Z</time>
      </trkpt>
      <trkpt lat="45.90817" lon="2.99576">
        <ele>739.4</ele>
        <time>2024-07-23T08:53:48Z</time>
      </trkpt>
      <trkpt lat="45.90818" lon="2.99575">
        <ele>737.5</ele>
        <time>2024-07-23T08:53:49Z</time>
      </trkpt>
      <trkpt lat="45.90819" lon="2.99573">
        <ele>738</ele>
        <time>2024-07-23T08:53:50Z</time>
      </trkpt>
      <trkpt lat="45.90819" lon="2.99572">
        <ele>737.4</ele>
        <time>2024-07-23T08:53:51Z</time>
      </trkpt>
      <trkpt lat="45.9082" lon="2.99571">
        <ele>737.5</ele>
        <time>2024-07-23T08:53:52Z</time>
      </trkpt>
      <trkpt lat="45.90821" lon="2.9957">
        <ele>737.5</ele>
        <time>2024-07-23T08:53:53Z</time>
      </trkpt>
      <trkpt lat="45.90821" lon="2.99569">
        <ele>737.8</ele>
        <time>2024-07-23T08:53:54Z</time>
      </trkpt>
      <trkpt lat="45.90823" lon="2.99567">
        <ele>738.2</ele>
        <time>2024-07-23T08:53:56Z</time>
      </trkpt>
      <trkpt lat="45.90823" lon="2.99567">
        <ele>738.3</ele>
        <time>2024-07-23T08:53:57Z</time>
      </trkpt>
      <trkpt lat="45.90824" lon="2.99566">
        <ele>738.6</ele>
        <time>2024-07-23T08:53:58Z</time>
      </trkpt>
      <trkpt lat="45.90826" lon="2.99564">
        <ele>739.1</ele>
        <time>2024-07-23T08:54:00Z</time>
      </trkpt>
      <trkpt lat="45.90826" lon="2.99563">
        <ele>738.9</ele>
        <time>2024-07-23T08:54:01Z</time>
      </trkpt>
      <trkpt lat="45.90827" lon="2.99562">
        <ele>739.2</ele>
        <time>2024-07-23T08:54:02Z</time>
      </trkpt>
      <trkpt lat="45.90828" lon="2.99562">
        <ele>739.6</ele>
        <time>2024-07-23T08:54:03Z</time>
      </trkpt>
      <trkpt lat="45.90829" lon="2.99561">
        <ele>739.8</ele>
        <time>2024-07-23T08:54:04Z</time>
      </trkpt>
      <trkpt lat="45.9083" lon="2.9956">
        <ele>739.3</ele>
        <time>2024-07-23T08:54:05Z</time>
      </trkpt>
      <trkpt lat="45.9083" lon="2.99559">
        <ele>739.5</ele>
        <time>2024-07-23T08:54:06Z</time>
      </trkpt>
      <trkpt lat="45.90831" lon="2.99558">
        <ele>739.9</ele>
        <time>2024-07-23T08:54:07Z</time>
      </trkpt>
      <trkpt lat="45.90832" lon="2.99557">
        <ele>740.6</ele>
        <time>2024-07-23T08:54:08Z</time>
      </trkpt>
      <trkpt lat="45.90833" lon="2.99556">
        <ele>740.8</ele>
        <time>2024-07-23T08:54:09Z</time>
      </trkpt>
      <trkpt lat="45.90833" lon="2.99555">
        <ele>740.9</ele>
        <time>2024-07-23T08:54:10Z</time>
      </trkpt>
      <trkpt lat="45.90834" lon="2.99554">
        <ele>740.8</ele>
        <time>2024-07-23T08:54:11Z</time>
      </trkpt>
      <trkpt lat="45.90835" lon="2.99553">
        <ele>740.7</ele>
        <time>2024-07-23T08:54:12Z</time>
      </trkpt>
      <trkpt lat="45.90835" lon="2.99552">
        <ele>740.7</ele>
        <time>2024-07-23T08:54:13Z</time>
      </trkpt>
      <trkpt lat="45.90836" lon="2.99551">
        <ele>740.7</ele>
        <time>2024-07-23T08:54:14Z</time>
      </trkpt>
      <trkpt lat="45.90837" lon="2.9955">
        <ele>740.9</ele>
        <time>2024-07-23T08:54:15Z</time>
      </trkpt>
      <trkpt lat="45.90837" lon="2.99549">
        <ele>741.2</ele>
        <time>2024-07-23T08:54:16Z</time>
      </trkpt>
      <trkpt lat="45.90838" lon="2.99548">
        <ele>741.3</ele>
        <time>2024-07-23T08:54:17Z</time>
      </trkpt>
      <trkpt lat="45.90839" lon="2.99546">
        <ele>741.2</ele>
        <time>2024-07-23T08:54:19Z</time>
      </trkpt>
      <trkpt lat="45.90839" lon="2.99545">
        <ele>741.2</ele>
        <time>2024-07-23T08:54:20Z</time>
      </trkpt>
      <trkpt lat="45.9084" lon="2.99544">
        <ele>741</ele>
        <time>2024-07-23T08:54:21Z</time>
      </trkpt>
      <trkpt lat="45.90841" lon="2.99541">
        <ele>741.2</ele>
        <time>2024-07-23T08:54:23Z</time>
      </trkpt>
      <trkpt lat="45.90841" lon="2.9954">
        <ele>741.2</ele>
        <time>2024-07-23T08:54:24Z</time>
      </trkpt>
      <trkpt lat="45.90842" lon="2.99539">
        <ele>740.9</ele>
        <time>2024-07-23T08:54:25Z</time>
      </trkpt>
      <trkpt lat="45.90842" lon="2.99537">
        <ele>740.9</ele>
        <time>2024-07-23T08:54:26Z</time>
      </trkpt>
      <trkpt lat="45.90842" lon="2.99536">
        <ele>741.1</ele>
        <time>2024-07-23T08:54:27Z</time>
      </trkpt>
      <trkpt lat="45.90843" lon="2.99534">
        <ele>741.1</ele>
        <time>2024-07-23T08:54:28Z</time>
      </trkpt>
      <trkpt lat="45.90843" lon="2.99532">
        <ele>741.1</ele>
        <time>2024-07-23T08:54:29Z</time>
      </trkpt>
      <trkpt lat="45.90844" lon="2.99531">
        <ele>741</ele>
        <time>2024-07-23T08:54:30Z</time>
      </trkpt>
      <trkpt lat="45.90844" lon="2.99529">
        <ele>741</ele>
        <time>2024-07-23T08:54:31Z</time>
      </trkpt>
      <trkpt lat="45.90844" lon="2.99528">
        <ele>741.1</ele>
        <time>2024-07-23T08:54:32Z</time>
      </trkpt>
      <trkpt lat="45.90845" lon="2.99526">
        <ele>741.1</ele>
        <time>2024-07-23T08:54:33Z</time>
      </trkpt>
      <trkpt lat="45.90845" lon="2.99525">
        <ele>740.9</ele>
        <time>2024-07-23T08:54:34Z</time>
      </trkpt>
      <trkpt lat="45.90845" lon="2.99523">
        <ele>740.9</ele>
        <time>2024-07-23T08:54:35Z</time>
      </trkpt>
      <trkpt lat="45.90845" lon="2.99522">
        <ele>740.7</ele>
        <time>2024-07-23T08:54:36Z</time>
      </trkpt>
      <trkpt lat="45.90846" lon="2.9952">
        <ele>740.7</ele>
        <time>2024-07-23T08:54:37Z</time>
      </trkpt>
      <trkpt lat="45.90846" lon="2.99519">
        <ele>740.9</ele>
        <time>2024-07-23T08:54:38Z</time>
      </trkpt>
      <trkpt lat="45.90847" lon="2.99518">
        <ele>740.8</ele>
        <time>2024-07-23T08:54:39Z</time>
      </trkpt>
      <trkpt lat="45.90847" lon="2.99516">
        <ele>740.9</ele>
        <time>2024-07-23T08:54:40Z</time>
      </trkpt>
      <trkpt lat="45.90848" lon="2.99515">
        <ele>741.1</ele>
        <time>2024-07-23T08:54:41Z</time>
      </trkpt>
      <trkpt lat="45.90848" lon="2.99513">
        <ele>741.2</ele>
        <time>2024-07-23T08:54:42Z</time>
      </trkpt>
      <trkpt lat="45.90848" lon="2.99512">
        <ele>741.4</ele>
        <time>2024-07-23T08:54:43Z</time>
      </trkpt>
      <trkpt lat="45.90848" lon="2.9951">
        <ele>741.3</ele>
        <time>2024-07-23T08:54:44Z</time>
      </trkpt>
      <trkpt lat="45.90849" lon="2.99509">
        <ele>741.1</ele>
        <time>2024-07-23T08:54:45Z</time>
      </trkpt>
      <trkpt lat="45.90849" lon="2.99507">
        <ele>741.2</ele>
        <time>2024-07-23T08:54:46Z</time>
      </trkpt>
      <trkpt lat="45.90849" lon="2.99506">
        <ele>741.6</ele>
        <time>2024-07-23T08:54:47Z</time>
      </trkpt>
      <trkpt lat="45.90849" lon="2.99504">
        <ele>741.6</ele>
        <time>2024-07-23T08:54:48Z</time>
      </trkpt>
      <trkpt lat="45.9085" lon="2.99503">
        <ele>741.5</ele>
        <time>2024-07-23T08:54:49Z</time>
      </trkpt>
      <trkpt lat="45.9085" lon="2.99501">
        <ele>741.5</ele>
        <time>2024-07-23T08:54:50Z</time>
      </trkpt>
      <trkpt lat="45.90851" lon="2.995">
        <ele>741.3</ele>
        <time>2024-07-23T08:54:51Z</time>
      </trkpt>
      <trkpt lat="45.90851" lon="2.99499">
        <ele>741.1</ele>
        <time>2024-07-23T08:54:52Z</time>
      </trkpt>
      <trkpt lat="45.90852" lon="2.99497">
        <ele>741.1</ele>
        <time>2024-07-23T08:54:53Z</time>
      </trkpt>
      <trkpt lat="45.90852" lon="2.99496">
        <ele>741.1</ele>
        <time>2024-07-23T08:54:54Z</time>
      </trkpt>
      <trkpt lat="45.90853" lon="2.99494">
        <ele>741.2</ele>
        <time>2024-07-23T08:54:55Z</time>
      </trkpt>
      <trkpt lat="45.90853" lon="2.99493">
        <ele>741.4</ele>
        <time>2024-07-23T08:54:56Z</time>
      </trkpt>
      <trkpt lat="45.90853" lon="2.99492">
        <ele>741.7</ele>
        <time>2024-07-23T08:54:57Z</time>
      </trkpt>
      <trkpt lat="45.90854" lon="2.9949">
        <ele>741.7</ele>
        <time>2024-07-23T08:54:58Z</time>
      </trkpt>
      <trkpt lat="45.90854" lon="2.99489">
        <ele>741.5</ele>
        <time>2024-07-23T08:54:59Z</time>
      </trkpt>
      <trkpt lat="45.90855" lon="2.99487">
        <ele>741.5</ele>
        <time>2024-07-23T08:55:01Z</time>
      </trkpt>
      <trkpt lat="45.90855" lon="2.99485">
        <ele>741.4</ele>
        <time>2024-07-23T08:55:02Z</time>
      </trkpt>
      <trkpt lat="45.90855" lon="2.99484">
        <ele>741.5</ele>
        <time>2024-07-23T08:55:03Z</time>
      </trkpt>
      <trkpt lat="45.90855" lon="2.99482">
        <ele>741.3</ele>
        <time>2024-07-23T08:55:04Z</time>
      </trkpt>
      <trkpt lat="45.90856" lon="2.99481">
        <ele>741.6</ele>
        <time>2024-07-23T08:55:05Z</time>
      </trkpt>
      <trkpt lat="45.90856" lon="2.99479">
        <ele>741.6</ele>
        <time>2024-07-23T08:55:06Z</time>
      </trkpt>
      <trkpt lat="45.90856" lon="2.99478">
        <ele>741.7</ele>
        <time>2024-07-23T08:55:07Z</time>
      </trkpt>
      <trkpt lat="45.90857" lon="2.99476">
        <ele>741.6</ele>
        <time>2024-07-23T08:55:08Z</time>
      </trkpt>
      <trkpt lat="45.90857" lon="2.99475">
        <ele>741.5</ele>
        <time>2024-07-23T08:55:09Z</time>
      </trkpt>
      <trkpt lat="45.90857" lon="2.99473">
        <ele>741.6</ele>
        <time>2024-07-23T08:55:10Z</time>
      </trkpt>
      <trkpt lat="45.90858" lon="2.99472">
        <ele>741.6</ele>
        <time>2024-07-23T08:55:11Z</time>
      </trkpt>
      <trkpt lat="45.90858" lon="2.9947">
        <ele>741.7</ele>
        <time>2024-07-23T08:55:12Z</time>
      </trkpt>
      <trkpt lat="45.90858" lon="2.99469">
        <ele>741.5</ele>
        <time>2024-07-23T08:55:13Z</time>
      </trkpt>
      <trkpt lat="45.90859" lon="2.99468">
        <ele>741.7</ele>
        <time>2024-07-23T08:55:14Z</time>
      </trkpt>
      <trkpt lat="45.9086" lon="2.99465">
        <ele>741.8</ele>
        <time>2024-07-23T08:55:16Z</time>
      </trkpt>
      <trkpt lat="45.9086" lon="2.99463">
        <ele>741.9</ele>
        <time>2024-07-23T08:55:17Z</time>
      </trkpt>
      <trkpt lat="45.9086" lon="2.99462">
        <ele>741.9</ele>
        <time>2024-07-23T08:55:18Z</time>
      </trkpt>
      <trkpt lat="45.90861" lon="2.9946">
        <ele>741.9</ele>
        <time>2024-07-23T08:55:19Z</time>
      </trkpt>
      <trkpt lat="45.90861" lon="2.99459">
        <ele>741.9</ele>
        <time>2024-07-23T08:55:20Z</time>
      </trkpt>
      <trkpt lat="45.90861" lon="2.99457">
        <ele>741.7</ele>
        <time>2024-07-23T08:55:21Z</time>
      </trkpt>
      <trkpt lat="45.90862" lon="2.99456">
        <ele>741.4</ele>
        <time>2024-07-23T08:55:22Z</time>
      </trkpt>
      <trkpt lat="45.90862" lon="2.99455">
        <ele>741.7</ele>
        <time>2024-07-23T08:55:23Z</time>
      </trkpt>
      <trkpt lat="45.90862" lon="2.99453">
        <ele>741.7</ele>
        <time>2024-07-23T08:55:24Z</time>
      </trkpt>
      <trkpt lat="45.90863" lon="2.99452">
        <ele>741.6</ele>
        <time>2024-07-23T08:55:25Z</time>
      </trkpt>
      <trkpt lat="45.90863" lon="2.99451">
        <ele>741.6</ele>
        <time>2024-07-23T08:55:26Z</time>
      </trkpt>
      <trkpt lat="45.90864" lon="2.99449">
        <ele>741.7</ele>
        <time>2024-07-23T08:55:27Z</time>
      </trkpt>
      <trkpt lat="45.90864" lon="2.99448">
        <ele>741.8</ele>
        <time>2024-07-23T08:55:28Z</time>
      </trkpt>
      <trkpt lat="45.90864" lon="2.99447">
        <ele>741.4</ele>
        <time>2024-07-23T08:55:29Z</time>
      </trkpt>
      <trkpt lat="45.90864" lon="2.99445">
        <ele>741.3</ele>
        <time>2024-07-23T08:55:30Z</time>
      </trkpt>
      <trkpt lat="45.90865" lon="2.99444">
        <ele>741.4</ele>
        <time>2024-07-23T08:55:31Z</time>
      </trkpt>
      <trkpt lat="45.90865" lon="2.99443">
        <ele>741.4</ele>
        <time>2024-07-23T08:55:32Z</time>
      </trkpt>
      <trkpt lat="45.90865" lon="2.99442">
        <ele>741.3</ele>
        <time>2024-07-23T08:55:33Z</time>
      </trkpt>
      <trkpt lat="45.90866" lon="2.9944">
        <ele>741.1</ele>
        <time>2024-07-23T08:55:34Z</time>
      </trkpt>
      <trkpt lat="45.90866" lon="2.99439">
        <ele>741</ele>
        <time>2024-07-23T08:55:35Z</time>
      </trkpt>
      <trkpt lat="45.90867" lon="2.99438">
        <ele>740.7</ele>
        <time>2024-07-23T08:55:36Z</time>
      </trkpt>
      <trkpt lat="45.90867" lon="2.99436">
        <ele>740.4</ele>
        <time>2024-07-23T08:55:37Z</time>
      </trkpt>
      <trkpt lat="45.90867" lon="2.99435">
        <ele>740.4</ele>
        <time>2024-07-23T08:55:38Z</time>
      </trkpt>
      <trkpt lat="45.90868" lon="2.99433">
        <ele>740.4</ele>
        <time>2024-07-23T08:55:39Z</time>
      </trkpt>
      <trkpt lat="45.90868" lon="2.99432">
        <ele>740.1</ele>
        <time>2024-07-23T08:55:40Z</time>
      </trkpt>
      <trkpt lat="45.90868" lon="2.99431">
        <ele>740</ele>
        <time>2024-07-23T08:55:41Z</time>
      </trkpt>
      <trkpt lat="45.90869" lon="2.9943">
        <ele>739.7</ele>
        <time>2024-07-23T08:55:42Z</time>
      </trkpt>
      <trkpt lat="45.90869" lon="2.99428">
        <ele>739.4</ele>
        <time>2024-07-23T08:55:43Z</time>
      </trkpt>
      <trkpt lat="45.9087" lon="2.99427">
        <ele>739.3</ele>
        <time>2024-07-23T08:55:44Z</time>
      </trkpt>
      <trkpt lat="45.9087" lon="2.99425">
        <ele>739</ele>
        <time>2024-07-23T08:55:45Z</time>
      </trkpt>
      <trkpt lat="45.90871" lon="2.99424">
        <ele>738.7</ele>
        <time>2024-07-23T08:55:46Z</time>
      </trkpt>
      <trkpt lat="45.90871" lon="2.99422">
        <ele>738.8</ele>
        <time>2024-07-23T08:55:47Z</time>
      </trkpt>
      <trkpt lat="45.90871" lon="2.99421">
        <ele>738.9</ele>
        <time>2024-07-23T08:55:48Z</time>
      </trkpt>
      <trkpt lat="45.90872" lon="2.99419">
        <ele>739</ele>
        <time>2024-07-23T08:55:50Z</time>
      </trkpt>
      <trkpt lat="45.90872" lon="2.99417">
        <ele>739.3</ele>
        <time>2024-07-23T08:56:09Z</time>
      </trkpt>
      <trkpt lat="45.90873" lon="2.99413">
        <ele>739.4</ele>
        <time>2024-07-23T08:56:12Z</time>
      </trkpt>
      <trkpt lat="45.90873" lon="2.99412">
        <ele>739.4</ele>
        <time>2024-07-23T08:56:13Z</time>
      </trkpt>
      <trkpt lat="45.90873" lon="2.9941">
        <ele>739.4</ele>
        <time>2024-07-23T08:56:14Z</time>
      </trkpt>
      <trkpt lat="45.90873" lon="2.99409">
        <ele>739.5</ele>
        <time>2024-07-23T08:56:15Z</time>
      </trkpt>
      <trkpt lat="45.90874" lon="2.99408">
        <ele>739.5</ele>
        <time>2024-07-23T08:56:16Z</time>
      </trkpt>
      <trkpt lat="45.90874" lon="2.99406">
        <ele>739.5</ele>
        <time>2024-07-23T08:56:17Z</time>
      </trkpt>
      <trkpt lat="45.90874" lon="2.99405">
        <ele>739.6</ele>
        <time>2024-07-23T08:56:18Z</time>
      </trkpt>
      <trkpt lat="45.90875" lon="2.99404">
        <ele>739.3</ele>
        <time>2024-07-23T08:56:19Z</time>
      </trkpt>
      <trkpt lat="45.90875" lon="2.99402">
        <ele>739.3</ele>
        <time>2024-07-23T08:56:20Z</time>
      </trkpt>
      <trkpt lat="45.90875" lon="2.99401">
        <ele>739.6</ele>
        <time>2024-07-23T08:56:21Z</time>
      </trkpt>
      <trkpt lat="45.90875" lon="2.99399">
        <ele>740.1</ele>
        <time>2024-07-23T08:56:22Z</time>
      </trkpt>
      <trkpt lat="45.90875" lon="2.99398">
        <ele>740.5</ele>
        <time>2024-07-23T08:56:23Z</time>
      </trkpt>
      <trkpt lat="45.90876" lon="2.99397">
        <ele>740.9</ele>
        <time>2024-07-23T08:56:24Z</time>
      </trkpt>
      <trkpt lat="45.90876" lon="2.99395">
        <ele>741</ele>
        <time>2024-07-23T08:56:25Z</time>
      </trkpt>
      <trkpt lat="45.90877" lon="2.99394">
        <ele>741.3</ele>
        <time>2024-07-23T08:56:26Z</time>
      </trkpt>
      <trkpt lat="45.90877" lon="2.99393">
        <ele>741.1</ele>
        <time>2024-07-23T08:56:27Z</time>
      </trkpt>
      <trkpt lat="45.90877" lon="2.99392">
        <ele>741.2</ele>
        <time>2024-07-23T08:56:28Z</time>
      </trkpt>
      <trkpt lat="45.90878" lon="2.9939">
        <ele>741.3</ele>
        <time>2024-07-23T08:56:29Z</time>
      </trkpt>
      <trkpt lat="45.90878" lon="2.99389">
        <ele>741.3</ele>
        <time>2024-07-23T08:56:30Z</time>
      </trkpt>
      <trkpt lat="45.90878" lon="2.99388">
        <ele>741.5</ele>
        <time>2024-07-23T08:56:31Z</time>
      </trkpt>
      <trkpt lat="45.90879" lon="2.99386">
        <ele>742.1</ele>
        <time>2024-07-23T08:56:32Z</time>
      </trkpt>
      <trkpt lat="45.90879" lon="2.99385">
        <ele>741.9</ele>
        <time>2024-07-23T08:56:33Z</time>
      </trkpt>
      <trkpt lat="45.9088" lon="2.99384">
        <ele>741.5</ele>
        <time>2024-07-23T08:56:34Z</time>
      </trkpt>
      <trkpt lat="45.9088" lon="2.99383">
        <ele>741.5</ele>
        <time>2024-07-23T08:56:35Z</time>
      </trkpt>
      <trkpt lat="45.90881" lon="2.99381">
        <ele>741.5</ele>
        <time>2024-07-23T08:56:36Z</time>
      </trkpt>
      <trkpt lat="45.90881" lon="2.9938">
        <ele>741.8</ele>
        <time>2024-07-23T08:56:37Z</time>
      </trkpt>
      <trkpt lat="45.90882" lon="2.99379">
        <ele>741.8</ele>
        <time>2024-07-23T08:56:38Z</time>
      </trkpt>
      <trkpt lat="45.90882" lon="2.99378">
        <ele>741.7</ele>
        <time>2024-07-23T08:56:39Z</time>
      </trkpt>
      <trkpt lat="45.90882" lon="2.99376">
        <ele>741.7</ele>
        <time>2024-07-23T08:56:40Z</time>
      </trkpt>
      <trkpt lat="45.90883" lon="2.99375">
        <ele>741.8</ele>
        <time>2024-07-23T08:56:41Z</time>
      </trkpt>
      <trkpt lat="45.90883" lon="2.99374">
        <ele>741.4</ele>
        <time>2024-07-23T08:56:42Z</time>
      </trkpt>
      <trkpt lat="45.90884" lon="2.99373">
        <ele>741.6</ele>
        <time>2024-07-23T08:56:43Z</time>
      </trkpt>
      <trkpt lat="45.90885" lon="2.99372">
        <ele>741.7</ele>
        <time>2024-07-23T08:56:44Z</time>
      </trkpt>
      <trkpt lat="45.90885" lon="2.9937">
        <ele>742.1</ele>
        <time>2024-07-23T08:56:45Z</time>
      </trkpt>
      <trkpt lat="45.90886" lon="2.99369">
        <ele>742.1</ele>
        <time>2024-07-23T08:56:46Z</time>
      </trkpt>
      <trkpt lat="45.90887" lon="2.99368">
        <ele>742.3</ele>
        <time>2024-07-23T08:56:47Z</time>
      </trkpt>
      <trkpt lat="45.90887" lon="2.99367">
        <ele>743</ele>
        <time>2024-07-23T08:56:48Z</time>
      </trkpt>
      <trkpt lat="45.90888" lon="2.99365">
        <ele>743.4</ele>
        <time>2024-07-23T08:56:49Z</time>
      </trkpt>
      <trkpt lat="45.90888" lon="2.99364">
        <ele>743.3</ele>
        <time>2024-07-23T08:56:50Z</time>
      </trkpt>
      <trkpt lat="45.90889" lon="2.99363">
        <ele>743.5</ele>
        <time>2024-07-23T08:56:51Z</time>
      </trkpt>
      <trkpt lat="45.9089" lon="2.99362">
        <ele>743.8</ele>
        <time>2024-07-23T08:56:52Z</time>
      </trkpt>
      <trkpt lat="45.90891" lon="2.99361">
        <ele>743.3</ele>
        <time>2024-07-23T08:56:53Z</time>
      </trkpt>
      <trkpt lat="45.90892" lon="2.9936">
        <ele>743.2</ele>
        <time>2024-07-23T08:56:54Z</time>
      </trkpt>
      <trkpt lat="45.90892" lon="2.99359">
        <ele>743.4</ele>
        <time>2024-07-23T08:56:55Z</time>
      </trkpt>
      <trkpt lat="45.90893" lon="2.99358">
        <ele>743.6</ele>
        <time>2024-07-23T08:56:56Z</time>
      </trkpt>
      <trkpt lat="45.90894" lon="2.99357">
        <ele>743.6</ele>
        <time>2024-07-23T08:56:57Z</time>
      </trkpt>
      <trkpt lat="45.90895" lon="2.99356">
        <ele>743.9</ele>
        <time>2024-07-23T08:56:58Z</time>
      </trkpt>
      <trkpt lat="45.90895" lon="2.99354">
        <ele>744.3</ele>
        <time>2024-07-23T08:56:59Z</time>
      </trkpt>
      <trkpt lat="45.90896" lon="2.99353">
        <ele>744.3</ele>
        <time>2024-07-23T08:57:00Z</time>
      </trkpt>
      <trkpt lat="45.90897" lon="2.99352">
        <ele>744.5</ele>
        <time>2024-07-23T08:57:01Z</time>
      </trkpt>
      <trkpt lat="45.90898" lon="2.99351">
        <ele>744.6</ele>
        <time>2024-07-23T08:57:02Z</time>
      </trkpt>
      <trkpt lat="45.90898" lon="2.9935">
        <ele>744.6</ele>
        <time>2024-07-23T08:57:03Z</time>
      </trkpt>
      <trkpt lat="45.90899" lon="2.99349">
        <ele>744.6</ele>
        <time>2024-07-23T08:57:04Z</time>
      </trkpt>
      <trkpt lat="45.909" lon="2.99348">
        <ele>744.6</ele>
        <time>2024-07-23T08:57:05Z</time>
      </trkpt>
      <trkpt lat="45.909" lon="2.99347">
        <ele>745.1</ele>
        <time>2024-07-23T08:57:06Z</time>
      </trkpt>
      <trkpt lat="45.90901" lon="2.99346">
        <ele>745.5</ele>
        <time>2024-07-23T08:57:07Z</time>
      </trkpt>
      <trkpt lat="45.90901" lon="2.99345">
        <ele>745.8</ele>
        <time>2024-07-23T08:57:08Z</time>
      </trkpt>
      <trkpt lat="45.90902" lon="2.99343">
        <ele>745.9</ele>
        <time>2024-07-23T08:57:10Z</time>
      </trkpt>
      <trkpt lat="45.90903" lon="2.99341">
        <ele>746.5</ele>
        <time>2024-07-23T08:57:12Z</time>
      </trkpt>
      <trkpt lat="45.90904" lon="2.9934">
        <ele>746.6</ele>
        <time>2024-07-23T08:57:13Z</time>
      </trkpt>
      <trkpt lat="45.90905" lon="2.99339">
        <ele>746.4</ele>
        <time>2024-07-23T08:57:14Z</time>
      </trkpt>
      <trkpt lat="45.90905" lon="2.99337">
        <ele>746.7</ele>
        <time>2024-07-23T08:57:15Z</time>
      </trkpt>
      <trkpt lat="45.90906" lon="2.99335">
        <ele>747.6</ele>
        <time>2024-07-23T08:57:17Z</time>
      </trkpt>
      <trkpt lat="45.90907" lon="2.99334">
        <ele>747.6</ele>
        <time>2024-07-23T08:57:18Z</time>
      </trkpt>
      <trkpt lat="45.90907" lon="2.99333">
        <ele>747.7</ele>
        <time>2024-07-23T08:57:19Z</time>
      </trkpt>
      <trkpt lat="45.90908" lon="2.99331">
        <ele>747.5</ele>
        <time>2024-07-23T08:57:21Z</time>
      </trkpt>
      <trkpt lat="45.90909" lon="2.9933">
        <ele>747.3</ele>
        <time>2024-07-23T08:57:22Z</time>
      </trkpt>
      <trkpt lat="45.90909" lon="2.99327">
        <ele>747.4</ele>
        <time>2024-07-23T08:57:24Z</time>
      </trkpt>
      <trkpt lat="45.90909" lon="2.99326">
        <ele>747.3</ele>
        <time>2024-07-23T08:57:25Z</time>
      </trkpt>
      <trkpt lat="45.9091" lon="2.99325">
        <ele>747.3</ele>
        <time>2024-07-23T08:57:26Z</time>
      </trkpt>
      <trkpt lat="45.9091" lon="2.99324">
        <ele>747.3</ele>
        <time>2024-07-23T08:57:27Z</time>
      </trkpt>
      <trkpt lat="45.90911" lon="2.99323">
        <ele>747.3</ele>
        <time>2024-07-23T08:57:28Z</time>
      </trkpt>
      <trkpt lat="45.90911" lon="2.99321">
        <ele>747.7</ele>
        <time>2024-07-23T08:57:30Z</time>
      </trkpt>
      <trkpt lat="45.90912" lon="2.99318">
        <ele>748.2</ele>
        <time>2024-07-23T08:57:32Z</time>
      </trkpt>
      <trkpt lat="45.90913" lon="2.99317">
        <ele>748.1</ele>
        <time>2024-07-23T08:57:33Z</time>
      </trkpt>
      <trkpt lat="45.90914" lon="2.99316">
        <ele>748</ele>
        <time>2024-07-23T08:57:34Z</time>
      </trkpt>
      <trkpt lat="45.90914" lon="2.99315">
        <ele>748</ele>
        <time>2024-07-23T08:57:35Z</time>
      </trkpt>
      <trkpt lat="45.90915" lon="2.99314">
        <ele>748.2</ele>
        <time>2024-07-23T08:57:36Z</time>
      </trkpt>
      <trkpt lat="45.90915" lon="2.99312">
        <ele>748.1</ele>
        <time>2024-07-23T08:57:37Z</time>
      </trkpt>
      <trkpt lat="45.90916" lon="2.9931">
        <ele>748.1</ele>
        <time>2024-07-23T08:57:39Z</time>
      </trkpt>
      <trkpt lat="45.90916" lon="2.99309">
        <ele>748.5</ele>
        <time>2024-07-23T08:57:40Z</time>
      </trkpt>
      <trkpt lat="45.90917" lon="2.99308">
        <ele>748.5</ele>
        <time>2024-07-23T08:57:41Z</time>
      </trkpt>
      <trkpt lat="45.90917" lon="2.99306">
        <ele>748.3</ele>
        <time>2024-07-23T08:57:42Z</time>
      </trkpt>
      <trkpt lat="45.90917" lon="2.99305">
        <ele>748.5</ele>
        <time>2024-07-23T08:57:43Z</time>
      </trkpt>
      <trkpt lat="45.90918" lon="2.99304">
        <ele>748.7</ele>
        <time>2024-07-23T08:57:44Z</time>
      </trkpt>
      <trkpt lat="45.90918" lon="2.99303">
        <ele>748.6</ele>
        <time>2024-07-23T08:57:45Z</time>
      </trkpt>
      <trkpt lat="45.90918" lon="2.99301">
        <ele>748.9</ele>
        <time>2024-07-23T08:57:46Z</time>
      </trkpt>
      <trkpt lat="45.90919" lon="2.993">
        <ele>748.9</ele>
        <time>2024-07-23T08:57:47Z</time>
      </trkpt>
      <trkpt lat="45.90919" lon="2.99299">
        <ele>749.3</ele>
        <time>2024-07-23T08:57:48Z</time>
      </trkpt>
      <trkpt lat="45.90919" lon="2.99297">
        <ele>749.1</ele>
        <time>2024-07-23T08:57:49Z</time>
      </trkpt>
      <trkpt lat="45.9092" lon="2.99296">
        <ele>749.3</ele>
        <time>2024-07-23T08:57:50Z</time>
      </trkpt>
      <trkpt lat="45.9092" lon="2.99295">
        <ele>749.6</ele>
        <time>2024-07-23T08:57:51Z</time>
      </trkpt>
      <trkpt lat="45.90921" lon="2.99294">
        <ele>749.8</ele>
        <time>2024-07-23T08:57:52Z</time>
      </trkpt>
      <trkpt lat="45.90921" lon="2.99292">
        <ele>750.1</ele>
        <time>2024-07-23T08:57:53Z</time>
      </trkpt>
      <trkpt lat="45.90922" lon="2.99291">
        <ele>750.2</ele>
        <time>2024-07-23T08:57:54Z</time>
      </trkpt>
      <trkpt lat="45.90922" lon="2.9929">
        <ele>750.3</ele>
        <time>2024-07-23T08:57:55Z</time>
      </trkpt>
      <trkpt lat="45.90922" lon="2.99289">
        <ele>749.9</ele>
        <time>2024-07-23T08:57:56Z</time>
      </trkpt>
      <trkpt lat="45.90923" lon="2.99287">
        <ele>749.9</ele>
        <time>2024-07-23T08:57:57Z</time>
      </trkpt>
      <trkpt lat="45.90923" lon="2.99286">
        <ele>750.2</ele>
        <time>2024-07-23T08:57:58Z</time>
      </trkpt>
      <trkpt lat="45.90924" lon="2.99284">
        <ele>749.9</ele>
        <time>2024-07-23T08:57:59Z</time>
      </trkpt>
      <trkpt lat="45.90924" lon="2.99283">
        <ele>750</ele>
        <time>2024-07-23T08:58:00Z</time>
      </trkpt>
      <trkpt lat="45.90925" lon="2.99282">
        <ele>750.3</ele>
        <time>2024-07-23T08:58:01Z</time>
      </trkpt>
      <trkpt lat="45.90925" lon="2.9928">
        <ele>750.3</ele>
        <time>2024-07-23T08:58:03Z</time>
      </trkpt>
      <trkpt lat="45.90925" lon="2.99278">
        <ele>750.4</ele>
        <time>2024-07-23T08:58:04Z</time>
      </trkpt>
      <trkpt lat="45.90926" lon="2.99277">
        <ele>750.2</ele>
        <time>2024-07-23T08:58:05Z</time>
      </trkpt>
      <trkpt lat="45.90926" lon="2.99276">
        <ele>750.2</ele>
        <time>2024-07-23T08:58:06Z</time>
      </trkpt>
      <trkpt lat="45.90926" lon="2.99274">
        <ele>750.4</ele>
        <time>2024-07-23T08:58:07Z</time>
      </trkpt>
      <trkpt lat="45.90927" lon="2.99273">
        <ele>750.4</ele>
        <time>2024-07-23T08:58:08Z</time>
      </trkpt>
      <trkpt lat="45.90927" lon="2.99272">
        <ele>750.4</ele>
        <time>2024-07-23T08:58:09Z</time>
      </trkpt>
      <trkpt lat="45.90928" lon="2.99271">
        <ele>750.4</ele>
        <time>2024-07-23T08:58:10Z</time>
      </trkpt>
      <trkpt lat="45.90928" lon="2.99269">
        <ele>750.5</ele>
        <time>2024-07-23T08:58:11Z</time>
      </trkpt>
      <trkpt lat="45.90928" lon="2.99268">
        <ele>750.3</ele>
        <time>2024-07-23T08:58:12Z</time>
      </trkpt>
      <trkpt lat="45.90929" lon="2.99267">
        <ele>750.6</ele>
        <time>2024-07-23T08:58:13Z</time>
      </trkpt>
      <trkpt lat="45.90929" lon="2.99265">
        <ele>750.8</ele>
        <time>2024-07-23T08:58:14Z</time>
      </trkpt>
      <trkpt lat="45.90929" lon="2.99264">
        <ele>750.9</ele>
        <time>2024-07-23T08:58:15Z</time>
      </trkpt>
      <trkpt lat="45.9093" lon="2.99262">
        <ele>750.9</ele>
        <time>2024-07-23T08:58:16Z</time>
      </trkpt>
      <trkpt lat="45.9093" lon="2.99261">
        <ele>750.9</ele>
        <time>2024-07-23T08:58:17Z</time>
      </trkpt>
      <trkpt lat="45.9093" lon="2.99259">
        <ele>751</ele>
        <time>2024-07-23T08:58:18Z</time>
      </trkpt>
      <trkpt lat="45.90931" lon="2.99257">
        <ele>751.2</ele>
        <time>2024-07-23T08:58:20Z</time>
      </trkpt>
      <trkpt lat="45.90931" lon="2.99255">
        <ele>751.1</ele>
        <time>2024-07-23T08:58:21Z</time>
      </trkpt>
      <trkpt lat="45.90932" lon="2.99254">
        <ele>751.2</ele>
        <time>2024-07-23T08:58:22Z</time>
      </trkpt>
      <trkpt lat="45.90932" lon="2.99252">
        <ele>751.2</ele>
        <time>2024-07-23T08:58:23Z</time>
      </trkpt>
      <trkpt lat="45.90933" lon="2.99251">
        <ele>751.2</ele>
        <time>2024-07-23T08:58:24Z</time>
      </trkpt>
      <trkpt lat="45.90933" lon="2.9925">
        <ele>751.2</ele>
        <time>2024-07-23T08:58:25Z</time>
      </trkpt>
      <trkpt lat="45.90933" lon="2.99248">
        <ele>751.5</ele>
        <time>2024-07-23T08:58:26Z</time>
      </trkpt>
      <trkpt lat="45.90934" lon="2.99247">
        <ele>751.5</ele>
        <time>2024-07-23T08:58:27Z</time>
      </trkpt>
      <trkpt lat="45.90934" lon="2.99246">
        <ele>751.3</ele>
        <time>2024-07-23T08:58:28Z</time>
      </trkpt>
      <trkpt lat="45.90934" lon="2.99244">
        <ele>751.4</ele>
        <time>2024-07-23T08:58:29Z</time>
      </trkpt>
      <trkpt lat="45.90935" lon="2.99243">
        <ele>751.4</ele>
        <time>2024-07-23T08:58:30Z</time>
      </trkpt>
      <trkpt lat="45.90935" lon="2.99242">
        <ele>751.2</ele>
        <time>2024-07-23T08:58:31Z</time>
      </trkpt>
      <trkpt lat="45.90936" lon="2.9924">
        <ele>751.4</ele>
        <time>2024-07-23T08:58:32Z</time>
      </trkpt>
      <trkpt lat="45.90936" lon="2.99239">
        <ele>750.9</ele>
        <time>2024-07-23T08:58:33Z</time>
      </trkpt>
      <trkpt lat="45.90936" lon="2.99237">
        <ele>751</ele>
        <time>2024-07-23T08:58:34Z</time>
      </trkpt>
      <trkpt lat="45.90937" lon="2.99236">
        <ele>750.8</ele>
        <time>2024-07-23T08:58:35Z</time>
      </trkpt>
      <trkpt lat="45.90937" lon="2.99235">
        <ele>750.9</ele>
        <time>2024-07-23T08:58:36Z</time>
      </trkpt>
      <trkpt lat="45.90938" lon="2.99234">
        <ele>750.8</ele>
        <time>2024-07-23T08:58:37Z</time>
      </trkpt>
      <trkpt lat="45.90938" lon="2.99232">
        <ele>750.7</ele>
        <time>2024-07-23T08:58:38Z</time>
      </trkpt>
      <trkpt lat="45.90938" lon="2.99231">
        <ele>751.1</ele>
        <time>2024-07-23T08:58:39Z</time>
      </trkpt>
      <trkpt lat="45.90939" lon="2.9923">
        <ele>751.2</ele>
        <time>2024-07-23T08:58:40Z</time>
      </trkpt>
      <trkpt lat="45.90939" lon="2.99227">
        <ele>751.4</ele>
        <time>2024-07-23T08:58:42Z</time>
      </trkpt>
      <trkpt lat="45.9094" lon="2.99226">
        <ele>751.5</ele>
        <time>2024-07-23T08:58:43Z</time>
      </trkpt>
      <trkpt lat="45.9094" lon="2.99225">
        <ele>751.8</ele>
        <time>2024-07-23T08:58:44Z</time>
      </trkpt>
      <trkpt lat="45.9094" lon="2.99224">
        <ele>751.8</ele>
        <time>2024-07-23T08:58:45Z</time>
      </trkpt>
      <trkpt lat="45.90941" lon="2.99222">
        <ele>752.4</ele>
        <time>2024-07-23T08:58:46Z</time>
      </trkpt>
      <trkpt lat="45.90941" lon="2.99221">
        <ele>752.7</ele>
        <time>2024-07-23T08:58:47Z</time>
      </trkpt>
      <trkpt lat="45.90942" lon="2.9922">
        <ele>752.8</ele>
        <time>2024-07-23T08:58:48Z</time>
      </trkpt>
      <trkpt lat="45.90942" lon="2.99219">
        <ele>753</ele>
        <time>2024-07-23T08:58:49Z</time>
      </trkpt>
      <trkpt lat="45.90943" lon="2.99217">
        <ele>753</ele>
        <time>2024-07-23T08:58:50Z</time>
      </trkpt>
      <trkpt lat="45.90943" lon="2.99216">
        <ele>753.2</ele>
        <time>2024-07-23T08:58:51Z</time>
      </trkpt>
      <trkpt lat="45.90943" lon="2.99215">
        <ele>753.3</ele>
        <time>2024-07-23T08:58:52Z</time>
      </trkpt>
      <trkpt lat="45.90943" lon="2.99213">
        <ele>753.3</ele>
        <time>2024-07-23T08:58:53Z</time>
      </trkpt>
      <trkpt lat="45.90944" lon="2.99212">
        <ele>753.1</ele>
        <time>2024-07-23T08:58:54Z</time>
      </trkpt>
      <trkpt lat="45.90944" lon="2.9921">
        <ele>752.9</ele>
        <time>2024-07-23T08:58:55Z</time>
      </trkpt>
      <trkpt lat="45.90944" lon="2.99209">
        <ele>752.9</ele>
        <time>2024-07-23T08:58:56Z</time>
      </trkpt>
      <trkpt lat="45.90945" lon="2.99208">
        <ele>752.8</ele>
        <time>2024-07-23T08:58:57Z</time>
      </trkpt>
      <trkpt lat="45.90945" lon="2.99206">
        <ele>752.8</ele>
        <time>2024-07-23T08:58:58Z</time>
      </trkpt>
      <trkpt lat="45.90945" lon="2.99205">
        <ele>752.5</ele>
        <time>2024-07-23T08:58:59Z</time>
      </trkpt>
      <trkpt lat="45.90946" lon="2.99203">
        <ele>752.4</ele>
        <time>2024-07-23T08:59:00Z</time>
      </trkpt>
      <trkpt lat="45.90946" lon="2.99202">
        <ele>752.3</ele>
        <time>2024-07-23T08:59:01Z</time>
      </trkpt>
      <trkpt lat="45.90946" lon="2.992">
        <ele>752.6</ele>
        <time>2024-07-23T08:59:02Z</time>
      </trkpt>
      <trkpt lat="45.90947" lon="2.99199">
        <ele>752.8</ele>
        <time>2024-07-23T08:59:03Z</time>
      </trkpt>
      <trkpt lat="45.90947" lon="2.99198">
        <ele>752.7</ele>
        <time>2024-07-23T08:59:04Z</time>
      </trkpt>
      <trkpt lat="45.90947" lon="2.99196">
        <ele>752.7</ele>
        <time>2024-07-23T08:59:05Z</time>
      </trkpt>
      <trkpt lat="45.90948" lon="2.99195">
        <ele>752.6</ele>
        <time>2024-07-23T08:59:06Z</time>
      </trkpt>
      <trkpt lat="45.90948" lon="2.99194">
        <ele>752.6</ele>
        <time>2024-07-23T08:59:07Z</time>
      </trkpt>
      <trkpt lat="45.90948" lon="2.99192">
        <ele>752.5</ele>
        <time>2024-07-23T08:59:08Z</time>
      </trkpt>
      <trkpt lat="45.90949" lon="2.99191">
        <ele>752.3</ele>
        <time>2024-07-23T08:59:09Z</time>
      </trkpt>
      <trkpt lat="45.90949" lon="2.99189">
        <ele>752.3</ele>
        <time>2024-07-23T08:59:10Z</time>
      </trkpt>
      <trkpt lat="45.90949" lon="2.99188">
        <ele>752.5</ele>
        <time>2024-07-23T08:59:11Z</time>
      </trkpt>
      <trkpt lat="45.9095" lon="2.99187">
        <ele>752.4</ele>
        <time>2024-07-23T08:59:12Z</time>
      </trkpt>
      <trkpt lat="45.9095" lon="2.99185">
        <ele>752.2</ele>
        <time>2024-07-23T08:59:13Z</time>
      </trkpt>
      <trkpt lat="45.9095" lon="2.99184">
        <ele>752.4</ele>
        <time>2024-07-23T08:59:14Z</time>
      </trkpt>
      <trkpt lat="45.9095" lon="2.99182">
        <ele>752.4</ele>
        <time>2024-07-23T08:59:15Z</time>
      </trkpt>
      <trkpt lat="45.90951" lon="2.99181">
        <ele>752.3</ele>
        <time>2024-07-23T08:59:16Z</time>
      </trkpt>
      <trkpt lat="45.90951" lon="2.9918">
        <ele>752.2</ele>
        <time>2024-07-23T08:59:17Z</time>
      </trkpt>
      <trkpt lat="45.90952" lon="2.99179">
        <ele>752.3</ele>
        <time>2024-07-23T08:59:18Z</time>
      </trkpt>
      <trkpt lat="45.90952" lon="2.99177">
        <ele>752</ele>
        <time>2024-07-23T08:59:19Z</time>
      </trkpt>
      <trkpt lat="45.90952" lon="2.99176">
        <ele>752</ele>
        <time>2024-07-23T08:59:20Z</time>
      </trkpt>
      <trkpt lat="45.90953" lon="2.99174">
        <ele>752.2</ele>
        <time>2024-07-23T08:59:21Z</time>
      </trkpt>
      <trkpt lat="45.90953" lon="2.99173">
        <ele>752.2</ele>
        <time>2024-07-23T08:59:22Z</time>
      </trkpt>
      <trkpt lat="45.90954" lon="2.99172">
        <ele>752.4</ele>
        <time>2024-07-23T08:59:23Z</time>
      </trkpt>
      <trkpt lat="45.90954" lon="2.9917">
        <ele>752.5</ele>
        <time>2024-07-23T08:59:24Z</time>
      </trkpt>
      <trkpt lat="45.90954" lon="2.99169">
        <ele>752.5</ele>
        <time>2024-07-23T08:59:25Z</time>
      </trkpt>
      <trkpt lat="45.90955" lon="2.99168">
        <ele>752.5</ele>
        <time>2024-07-23T08:59:26Z</time>
      </trkpt>
      <trkpt lat="45.90955" lon="2.99166">
        <ele>752.8</ele>
        <time>2024-07-23T08:59:28Z</time>
      </trkpt>
      <trkpt lat="45.90956" lon="2.99164">
        <ele>752.8</ele>
        <time>2024-07-23T08:59:29Z</time>
      </trkpt>
      <trkpt lat="45.90957" lon="2.99162">
        <ele>753.2</ele>
        <time>2024-07-23T08:59:31Z</time>
      </trkpt>
      <trkpt lat="45.90957" lon="2.99161">
        <ele>753</ele>
        <time>2024-07-23T08:59:32Z</time>
      </trkpt>
      <trkpt lat="45.90958" lon="2.99159">
        <ele>753.1</ele>
        <time>2024-07-23T08:59:38Z</time>
      </trkpt>
      <trkpt lat="45.90958" lon="2.99157">
        <ele>753.6</ele>
        <time>2024-07-23T08:59:40Z</time>
      </trkpt>
      <trkpt lat="45.90959" lon="2.99155">
        <ele>754</ele>
        <time>2024-07-23T08:59:42Z</time>
      </trkpt>
      <trkpt lat="45.9096" lon="2.99154">
        <ele>754.2</ele>
        <time>2024-07-23T08:59:43Z</time>
      </trkpt>
      <trkpt lat="45.90961" lon="2.99152">
        <ele>754.2</ele>
        <time>2024-07-23T08:59:45Z</time>
      </trkpt>
      <trkpt lat="45.90961" lon="2.9915">
        <ele>754.4</ele>
        <time>2024-07-23T08:59:47Z</time>
      </trkpt>
      <trkpt lat="45.90962" lon="2.99147">
        <ele>754.6</ele>
        <time>2024-07-23T08:59:49Z</time>
      </trkpt>
      <trkpt lat="45.90963" lon="2.99145">
        <ele>754.7</ele>
        <time>2024-07-23T08:59:51Z</time>
      </trkpt>
      <trkpt lat="45.90964" lon="2.99143">
        <ele>754.7</ele>
        <time>2024-07-23T08:59:53Z</time>
      </trkpt>
      <trkpt lat="45.90965" lon="2.99141">
        <ele>754.7</ele>
        <time>2024-07-23T08:59:55Z</time>
      </trkpt>
      <trkpt lat="45.90965" lon="2.9914">
        <ele>754.8</ele>
        <time>2024-07-23T08:59:56Z</time>
      </trkpt>
      <trkpt lat="45.90966" lon="2.99137">
        <ele>755</ele>
        <time>2024-07-23T08:59:58Z</time>
      </trkpt>
      <trkpt lat="45.90967" lon="2.99135">
        <ele>754.7</ele>
        <time>2024-07-23T09:00:00Z</time>
      </trkpt>
      <trkpt lat="45.90968" lon="2.99133">
        <ele>754.9</ele>
        <time>2024-07-23T09:00:02Z</time>
      </trkpt>
      <trkpt lat="45.90968" lon="2.99132">
        <ele>754.7</ele>
        <time>2024-07-23T09:00:03Z</time>
      </trkpt>
      <trkpt lat="45.90969" lon="2.99131">
        <ele>754.9</ele>
        <time>2024-07-23T09:00:04Z</time>
      </trkpt>
      <trkpt lat="45.90969" lon="2.9913">
        <ele>754.8</ele>
        <time>2024-07-23T09:00:05Z</time>
      </trkpt>
      <trkpt lat="45.9097" lon="2.99128">
        <ele>755</ele>
        <time>2024-07-23T09:00:07Z</time>
      </trkpt>
      <trkpt lat="45.90971" lon="2.99125">
        <ele>755</ele>
        <time>2024-07-23T09:00:09Z</time>
      </trkpt>
      <trkpt lat="45.90971" lon="2.99123">
        <ele>755.4</ele>
        <time>2024-07-23T09:00:11Z</time>
      </trkpt>
      <trkpt lat="45.90972" lon="2.99122">
        <ele>755.3</ele>
        <time>2024-07-23T09:00:19Z</time>
      </trkpt>
      <trkpt lat="45.90973" lon="2.99121">
        <ele>755.7</ele>
        <time>2024-07-23T09:00:21Z</time>
      </trkpt>
      <trkpt lat="45.90973" lon="2.99119">
        <ele>755.1</ele>
        <time>2024-07-23T09:00:23Z</time>
      </trkpt>
      <trkpt lat="45.90974" lon="2.99117">
        <ele>755.6</ele>
        <time>2024-07-23T09:00:25Z</time>
      </trkpt>
      <trkpt lat="45.90974" lon="2.99115">
        <ele>755.6</ele>
        <time>2024-07-23T09:00:26Z</time>
      </trkpt>
      <trkpt lat="45.90975" lon="2.99113">
        <ele>755.5</ele>
        <time>2024-07-23T09:00:28Z</time>
      </trkpt>
      <trkpt lat="45.90976" lon="2.99111">
        <ele>755.7</ele>
        <time>2024-07-23T09:00:30Z</time>
      </trkpt>
      <trkpt lat="45.90977" lon="2.9911">
        <ele>756.2</ele>
        <time>2024-07-23T09:00:32Z</time>
      </trkpt>
      <trkpt lat="45.90977" lon="2.99108">
        <ele>756.2</ele>
        <time>2024-07-23T09:00:34Z</time>
      </trkpt>
      <trkpt lat="45.90978" lon="2.99105">
        <ele>756.1</ele>
        <time>2024-07-23T09:00:36Z</time>
      </trkpt>
      <trkpt lat="45.90979" lon="2.99104">
        <ele>756.5</ele>
        <time>2024-07-23T09:00:38Z</time>
      </trkpt>
      <trkpt lat="45.9098" lon="2.99102">
        <ele>756.7</ele>
        <time>2024-07-23T09:00:40Z</time>
      </trkpt>
      <trkpt lat="45.90981" lon="2.991">
        <ele>757</ele>
        <time>2024-07-23T09:00:42Z</time>
      </trkpt>
      <trkpt lat="45.90981" lon="2.99098">
        <ele>757.3</ele>
        <time>2024-07-23T09:00:44Z</time>
      </trkpt>
      <trkpt lat="45.90982" lon="2.99096">
        <ele>757.4</ele>
        <time>2024-07-23T09:00:46Z</time>
      </trkpt>
      <trkpt lat="45.90983" lon="2.99094">
        <ele>757.8</ele>
        <time>2024-07-23T09:00:48Z</time>
      </trkpt>
      <trkpt lat="45.90984" lon="2.99092">
        <ele>757.8</ele>
        <time>2024-07-23T09:00:50Z</time>
      </trkpt>
      <trkpt lat="45.90985" lon="2.9909">
        <ele>758.2</ele>
        <time>2024-07-23T09:00:52Z</time>
      </trkpt>
      <trkpt lat="45.90986" lon="2.99088">
        <ele>758.5</ele>
        <time>2024-07-23T09:00:54Z</time>
      </trkpt>
      <trkpt lat="45.90987" lon="2.99086">
        <ele>758.8</ele>
        <time>2024-07-23T09:00:56Z</time>
      </trkpt>
      <trkpt lat="45.90987" lon="2.99084">
        <ele>758.9</ele>
        <time>2024-07-23T09:00:58Z</time>
      </trkpt>
      <trkpt lat="45.90988" lon="2.99082">
        <ele>759.2</ele>
        <time>2024-07-23T09:01:00Z</time>
      </trkpt>
      <trkpt lat="45.90989" lon="2.9908">
        <ele>759.5</ele>
        <time>2024-07-23T09:01:02Z</time>
      </trkpt>
      <trkpt lat="45.9099" lon="2.99078">
        <ele>759.8</ele>
        <time>2024-07-23T09:01:04Z</time>
      </trkpt>
      <trkpt lat="45.90991" lon="2.99076">
        <ele>760</ele>
        <time>2024-07-23T09:01:06Z</time>
      </trkpt>
      <trkpt lat="45.90991" lon="2.99074">
        <ele>760.2</ele>
        <time>2024-07-23T09:01:08Z</time>
      </trkpt>
      <trkpt lat="45.90992" lon="2.99073">
        <ele>760.4</ele>
        <time>2024-07-23T09:01:10Z</time>
      </trkpt>
      <trkpt lat="45.90993" lon="2.99071">
        <ele>761</ele>
        <time>2024-07-23T09:01:12Z</time>
      </trkpt>
      <trkpt lat="45.90994" lon="2.99069">
        <ele>761.2</ele>
        <time>2024-07-23T09:01:14Z</time>
      </trkpt>
      <trkpt lat="45.90995" lon="2.99067">
        <ele>761.6</ele>
        <time>2024-07-23T09:01:16Z</time>
      </trkpt>
      <trkpt lat="45.90996" lon="2.99065">
        <ele>761.9</ele>
        <time>2024-07-23T09:01:18Z</time>
      </trkpt>
      <trkpt lat="45.90997" lon="2.99063">
        <ele>762.1</ele>
        <time>2024-07-23T09:01:20Z</time>
      </trkpt>
      <trkpt lat="45.90997" lon="2.99061">
        <ele>762.3</ele>
        <time>2024-07-23T09:01:22Z</time>
      </trkpt>
      <trkpt lat="45.90998" lon="2.99059">
        <ele>762.1</ele>
        <time>2024-07-23T09:01:24Z</time>
      </trkpt>
      <trkpt lat="45.90999" lon="2.99057">
        <ele>762.4</ele>
        <time>2024-07-23T09:01:26Z</time>
      </trkpt>
      <trkpt lat="45.91" lon="2.99055">
        <ele>762.4</ele>
        <time>2024-07-23T09:01:28Z</time>
      </trkpt>
      <trkpt lat="45.91001" lon="2.99053">
        <ele>762.3</ele>
        <time>2024-07-23T09:01:30Z</time>
      </trkpt>
      <trkpt lat="45.91001" lon="2.99051">
        <ele>762.9</ele>
        <time>2024-07-23T09:01:32Z</time>
      </trkpt>
      <trkpt lat="45.91002" lon="2.99049">
        <ele>763.1</ele>
        <time>2024-07-23T09:01:34Z</time>
      </trkpt>
      <trkpt lat="45.91003" lon="2.99047">
        <ele>762.9</ele>
        <time>2024-07-23T09:01:36Z</time>
      </trkpt>
      <trkpt lat="45.91003" lon="2.99045">
        <ele>763.3</ele>
        <time>2024-07-23T09:01:38Z</time>
      </trkpt>
      <trkpt lat="45.91004" lon="2.99043">
        <ele>763.3</ele>
        <time>2024-07-23T09:01:40Z</time>
      </trkpt>
      <trkpt lat="45.91005" lon="2.99041">
        <ele>763.3</ele>
        <time>2024-07-23T09:01:42Z</time>
      </trkpt>
      <trkpt lat="45.91006" lon="2.99038">
        <ele>763.5</ele>
        <time>2024-07-23T09:01:44Z</time>
      </trkpt>
      <trkpt lat="45.91006" lon="2.99036">
        <ele>763.8</ele>
        <time>2024-07-23T09:01:46Z</time>
      </trkpt>
      <trkpt lat="45.91007" lon="2.99034">
        <ele>764</ele>
        <time>2024-07-23T09:01:48Z</time>
      </trkpt>
      <trkpt lat="45.91008" lon="2.99032">
        <ele>764.4</ele>
        <time>2024-07-23T09:01:50Z</time>
      </trkpt>
      <trkpt lat="45.91009" lon="2.9903">
        <ele>764.2</ele>
        <time>2024-07-23T09:01:52Z</time>
      </trkpt>
      <trkpt lat="45.9101" lon="2.99029">
        <ele>764.1</ele>
        <time>2024-07-23T09:01:53Z</time>
      </trkpt>
      <trkpt lat="45.9101" lon="2.99028">
        <ele>764.1</ele>
        <time>2024-07-23T09:01:54Z</time>
      </trkpt>
      <trkpt lat="45.91011" lon="2.99026">
        <ele>764.4</ele>
        <time>2024-07-23T09:01:56Z</time>
      </trkpt>
      <trkpt lat="45.91012" lon="2.99025">
        <ele>764.3</ele>
        <time>2024-07-23T09:01:57Z</time>
      </trkpt>
      <trkpt lat="45.91012" lon="2.99023">
        <ele>764.2</ele>
        <time>2024-07-23T09:01:59Z</time>
      </trkpt>
      <trkpt lat="45.91013" lon="2.99022">
        <ele>764.2</ele>
        <time>2024-07-23T09:02:01Z</time>
      </trkpt>
      <trkpt lat="45.91014" lon="2.9902">
        <ele>764.5</ele>
        <time>2024-07-23T09:02:03Z</time>
      </trkpt>
      <trkpt lat="45.91015" lon="2.99018">
        <ele>764.5</ele>
        <time>2024-07-23T09:02:05Z</time>
      </trkpt>
      <trkpt lat="45.91016" lon="2.99016">
        <ele>765</ele>
        <time>2024-07-23T09:02:07Z</time>
      </trkpt>
      <trkpt lat="45.91016" lon="2.99014">
        <ele>765.5</ele>
        <time>2024-07-23T09:02:09Z</time>
      </trkpt>
      <trkpt lat="45.91017" lon="2.99012">
        <ele>765.5</ele>
        <time>2024-07-23T09:02:11Z</time>
      </trkpt>
      <trkpt lat="45.91018" lon="2.99009">
        <ele>765.5</ele>
        <time>2024-07-23T09:02:13Z</time>
      </trkpt>
      <trkpt lat="45.91019" lon="2.99007">
        <ele>765.8</ele>
        <time>2024-07-23T09:02:15Z</time>
      </trkpt>
      <trkpt lat="45.91019" lon="2.99006">
        <ele>766</ele>
        <time>2024-07-23T09:02:16Z</time>
      </trkpt>
      <trkpt lat="45.9102" lon="2.99005">
        <ele>766.3</ele>
        <time>2024-07-23T09:02:17Z</time>
      </trkpt>
      <trkpt lat="45.9102" lon="2.99004">
        <ele>766.1</ele>
        <time>2024-07-23T09:02:18Z</time>
      </trkpt>
      <trkpt lat="45.91021" lon="2.99002">
        <ele>766</ele>
        <time>2024-07-23T09:02:19Z</time>
      </trkpt>
      <trkpt lat="45.91021" lon="2.99001">
        <ele>766</ele>
        <time>2024-07-23T09:02:20Z</time>
      </trkpt>
      <trkpt lat="45.91022" lon="2.99">
        <ele>765.9</ele>
        <time>2024-07-23T09:02:21Z</time>
      </trkpt>
      <trkpt lat="45.91022" lon="2.98999">
        <ele>765.9</ele>
        <time>2024-07-23T09:02:22Z</time>
      </trkpt>
      <trkpt lat="45.91022" lon="2.98998">
        <ele>766.1</ele>
        <time>2024-07-23T09:02:23Z</time>
      </trkpt>
      <trkpt lat="45.91023" lon="2.98997">
        <ele>766.2</ele>
        <time>2024-07-23T09:02:24Z</time>
      </trkpt>
      <trkpt lat="45.91023" lon="2.98995">
        <ele>766.2</ele>
        <time>2024-07-23T09:02:25Z</time>
      </trkpt>
      <trkpt lat="45.91024" lon="2.98993">
        <ele>766.1</ele>
        <time>2024-07-23T09:02:27Z</time>
      </trkpt>
      <trkpt lat="45.91025" lon="2.98992">
        <ele>766.2</ele>
        <time>2024-07-23T09:02:28Z</time>
      </trkpt>
      <trkpt lat="45.91025" lon="2.98991">
        <ele>766.2</ele>
        <time>2024-07-23T09:02:29Z</time>
      </trkpt>
      <trkpt lat="45.91026" lon="2.9899">
        <ele>766.3</ele>
        <time>2024-07-23T09:02:30Z</time>
      </trkpt>
      <trkpt lat="45.91026" lon="2.98988">
        <ele>766.3</ele>
        <time>2024-07-23T09:02:31Z</time>
      </trkpt>
      <trkpt lat="45.91027" lon="2.98987">
        <ele>766.2</ele>
        <time>2024-07-23T09:02:32Z</time>
      </trkpt>
      <trkpt lat="45.91027" lon="2.98986">
        <ele>766.3</ele>
        <time>2024-07-23T09:02:33Z</time>
      </trkpt>
      <trkpt lat="45.91028" lon="2.98985">
        <ele>766.2</ele>
        <time>2024-07-23T09:02:34Z</time>
      </trkpt>
      <trkpt lat="45.91028" lon="2.98984">
        <ele>765.9</ele>
        <time>2024-07-23T09:02:35Z</time>
      </trkpt>
      <trkpt lat="45.91029" lon="2.98982">
        <ele>765.7</ele>
        <time>2024-07-23T09:02:36Z</time>
      </trkpt>
      <trkpt lat="45.91029" lon="2.98981">
        <ele>765.3</ele>
        <time>2024-07-23T09:02:37Z</time>
      </trkpt>
      <trkpt lat="45.9103" lon="2.9898">
        <ele>765.3</ele>
        <time>2024-07-23T09:02:38Z</time>
      </trkpt>
      <trkpt lat="45.9103" lon="2.98978">
        <ele>765.4</ele>
        <time>2024-07-23T09:02:39Z</time>
      </trkpt>
      <trkpt lat="45.91031" lon="2.98977">
        <ele>765.7</ele>
        <time>2024-07-23T09:02:40Z</time>
      </trkpt>
      <trkpt lat="45.91031" lon="2.98976">
        <ele>765.6</ele>
        <time>2024-07-23T09:02:41Z</time>
      </trkpt>
      <trkpt lat="45.91031" lon="2.98975">
        <ele>765.4</ele>
        <time>2024-07-23T09:02:42Z</time>
      </trkpt>
      <trkpt lat="45.91032" lon="2.98973">
        <ele>765.3</ele>
        <time>2024-07-23T09:02:43Z</time>
      </trkpt>
      <trkpt lat="45.91032" lon="2.98972">
        <ele>765.4</ele>
        <time>2024-07-23T09:02:44Z</time>
      </trkpt>
      <trkpt lat="45.91033" lon="2.98971">
        <ele>765.7</ele>
        <time>2024-07-23T09:02:45Z</time>
      </trkpt>
      <trkpt lat="45.91034" lon="2.98969">
        <ele>765.8</ele>
        <time>2024-07-23T09:02:47Z</time>
      </trkpt>
      <trkpt lat="45.91034" lon="2.98967">
        <ele>765.7</ele>
        <time>2024-07-23T09:02:48Z</time>
      </trkpt>
      <trkpt lat="45.91035" lon="2.98965">
        <ele>765.8</ele>
        <time>2024-07-23T09:02:50Z</time>
      </trkpt>
      <trkpt lat="45.91036" lon="2.98963">
        <ele>765.3</ele>
        <time>2024-07-23T09:02:52Z</time>
      </trkpt>
      <trkpt lat="45.91036" lon="2.98961">
        <ele>765.2</ele>
        <time>2024-07-23T09:02:54Z</time>
      </trkpt>
      <trkpt lat="45.91037" lon="2.98958">
        <ele>765.1</ele>
        <time>2024-07-23T09:02:56Z</time>
      </trkpt>
      <trkpt lat="45.91038" lon="2.98957">
        <ele>765.4</ele>
        <time>2024-07-23T09:02:57Z</time>
      </trkpt>
      <trkpt lat="45.91039" lon="2.98956">
        <ele>765.6</ele>
        <time>2024-07-23T09:02:59Z</time>
      </trkpt>
      <trkpt lat="45.91039" lon="2.98954">
        <ele>765.9</ele>
        <time>2024-07-23T09:03:01Z</time>
      </trkpt>
      <trkpt lat="45.9104" lon="2.98953">
        <ele>765.9</ele>
        <time>2024-07-23T09:03:02Z</time>
      </trkpt>
      <trkpt lat="45.9104" lon="2.98952">
        <ele>765.4</ele>
        <time>2024-07-23T09:03:03Z</time>
      </trkpt>
      <trkpt lat="45.91041" lon="2.9895">
        <ele>765.2</ele>
        <time>2024-07-23T09:03:04Z</time>
      </trkpt>
      <trkpt lat="45.91041" lon="2.98949">
        <ele>765.4</ele>
        <time>2024-07-23T09:03:05Z</time>
      </trkpt>
      <trkpt lat="45.91042" lon="2.98948">
        <ele>765.9</ele>
        <time>2024-07-23T09:03:06Z</time>
      </trkpt>
      <trkpt lat="45.91042" lon="2.98947">
        <ele>765.8</ele>
        <time>2024-07-23T09:03:07Z</time>
      </trkpt>
      <trkpt lat="45.91043" lon="2.98945">
        <ele>766.1</ele>
        <time>2024-07-23T09:03:08Z</time>
      </trkpt>
      <trkpt lat="45.91044" lon="2.98944">
        <ele>766.2</ele>
        <time>2024-07-23T09:03:09Z</time>
      </trkpt>
      <trkpt lat="45.91044" lon="2.98943">
        <ele>766.3</ele>
        <time>2024-07-23T09:03:10Z</time>
      </trkpt>
      <trkpt lat="45.91045" lon="2.98942">
        <ele>766.4</ele>
        <time>2024-07-23T09:03:11Z</time>
      </trkpt>
      <trkpt lat="45.91046" lon="2.98941">
        <ele>766.6</ele>
        <time>2024-07-23T09:03:12Z</time>
      </trkpt>
      <trkpt lat="45.91046" lon="2.9894">
        <ele>766.5</ele>
        <time>2024-07-23T09:03:13Z</time>
      </trkpt>
      <trkpt lat="45.91047" lon="2.98939">
        <ele>766.6</ele>
        <time>2024-07-23T09:03:14Z</time>
      </trkpt>
      <trkpt lat="45.91048" lon="2.98938">
        <ele>766.6</ele>
        <time>2024-07-23T09:03:15Z</time>
      </trkpt>
      <trkpt lat="45.91048" lon="2.98937">
        <ele>766.9</ele>
        <time>2024-07-23T09:03:16Z</time>
      </trkpt>
      <trkpt lat="45.91049" lon="2.98936">
        <ele>766.8</ele>
        <time>2024-07-23T09:03:17Z</time>
      </trkpt>
      <trkpt lat="45.9105" lon="2.98934">
        <ele>766.7</ele>
        <time>2024-07-23T09:03:18Z</time>
      </trkpt>
      <trkpt lat="45.91051" lon="2.98933">
        <ele>766.8</ele>
        <time>2024-07-23T09:03:19Z</time>
      </trkpt>
      <trkpt lat="45.91051" lon="2.98932">
        <ele>767.2</ele>
        <time>2024-07-23T09:03:20Z</time>
      </trkpt>
      <trkpt lat="45.91052" lon="2.98931">
        <ele>766.7</ele>
        <time>2024-07-23T09:03:21Z</time>
      </trkpt>
      <trkpt lat="45.91053" lon="2.9893">
        <ele>766.5</ele>
        <time>2024-07-23T09:03:22Z</time>
      </trkpt>
      <trkpt lat="45.91054" lon="2.98929">
        <ele>766.6</ele>
        <time>2024-07-23T09:03:23Z</time>
      </trkpt>
      <trkpt lat="45.91054" lon="2.98928">
        <ele>766.5</ele>
        <time>2024-07-23T09:03:24Z</time>
      </trkpt>
      <trkpt lat="45.91055" lon="2.98927">
        <ele>766.5</ele>
        <time>2024-07-23T09:03:25Z</time>
      </trkpt>
      <trkpt lat="45.91056" lon="2.98926">
        <ele>766.4</ele>
        <time>2024-07-23T09:03:26Z</time>
      </trkpt>
      <trkpt lat="45.91057" lon="2.98925">
        <ele>766.2</ele>
        <time>2024-07-23T09:03:27Z</time>
      </trkpt>
      <trkpt lat="45.91057" lon="2.98924">
        <ele>766.2</ele>
        <time>2024-07-23T09:03:28Z</time>
      </trkpt>
      <trkpt lat="45.91058" lon="2.98923">
        <ele>765.9</ele>
        <time>2024-07-23T09:03:29Z</time>
      </trkpt>
      <trkpt lat="45.91059" lon="2.98922">
        <ele>765.9</ele>
        <time>2024-07-23T09:03:30Z</time>
      </trkpt>
      <trkpt lat="45.9106" lon="2.98921">
        <ele>766.1</ele>
        <time>2024-07-23T09:03:31Z</time>
      </trkpt>
      <trkpt lat="45.9106" lon="2.9892">
        <ele>765.9</ele>
        <time>2024-07-23T09:03:32Z</time>
      </trkpt>
      <trkpt lat="45.91061" lon="2.98919">
        <ele>765.8</ele>
        <time>2024-07-23T09:03:33Z</time>
      </trkpt>
      <trkpt lat="45.91062" lon="2.98918">
        <ele>765.6</ele>
        <time>2024-07-23T09:03:34Z</time>
      </trkpt>
      <trkpt lat="45.91063" lon="2.98917">
        <ele>765.6</ele>
        <time>2024-07-23T09:03:35Z</time>
      </trkpt>
      <trkpt lat="45.91063" lon="2.98916">
        <ele>765.6</ele>
        <time>2024-07-23T09:03:36Z</time>
      </trkpt>
      <trkpt lat="45.91064" lon="2.98915">
        <ele>765.5</ele>
        <time>2024-07-23T09:03:37Z</time>
      </trkpt>
      <trkpt lat="45.91065" lon="2.98914">
        <ele>765.7</ele>
        <time>2024-07-23T09:03:38Z</time>
      </trkpt>
      <trkpt lat="45.91066" lon="2.98913">
        <ele>766</ele>
        <time>2024-07-23T09:03:39Z</time>
      </trkpt>
      <trkpt lat="45.91066" lon="2.98912">
        <ele>765.8</ele>
        <time>2024-07-23T09:03:40Z</time>
      </trkpt>
      <trkpt lat="45.91067" lon="2.98911">
        <ele>765.8</ele>
        <time>2024-07-23T09:03:41Z</time>
      </trkpt>
      <trkpt lat="45.91068" lon="2.9891">
        <ele>765.8</ele>
        <time>2024-07-23T09:03:42Z</time>
      </trkpt>
      <trkpt lat="45.91069" lon="2.98909">
        <ele>765.8</ele>
        <time>2024-07-23T09:03:43Z</time>
      </trkpt>
      <trkpt lat="45.91069" lon="2.98908">
        <ele>766.1</ele>
        <time>2024-07-23T09:03:44Z</time>
      </trkpt>
      <trkpt lat="45.9107" lon="2.98908">
        <ele>766.3</ele>
        <time>2024-07-23T09:03:45Z</time>
      </trkpt>
      <trkpt lat="45.91071" lon="2.98907">
        <ele>766.3</ele>
        <time>2024-07-23T09:03:46Z</time>
      </trkpt>
      <trkpt lat="45.91072" lon="2.98905">
        <ele>766.3</ele>
        <time>2024-07-23T09:03:48Z</time>
      </trkpt>
      <trkpt lat="45.91073" lon="2.98905">
        <ele>765.4</ele>
        <time>2024-07-23T09:03:49Z</time>
      </trkpt>
      <trkpt lat="45.91074" lon="2.98904">
        <ele>765.3</ele>
        <time>2024-07-23T09:03:50Z</time>
      </trkpt>
      <trkpt lat="45.91075" lon="2.98903">
        <ele>765.4</ele>
        <time>2024-07-23T09:03:51Z</time>
      </trkpt>
      <trkpt lat="45.91076" lon="2.98901">
        <ele>765.7</ele>
        <time>2024-07-23T09:03:53Z</time>
      </trkpt>
      <trkpt lat="45.91077" lon="2.989">
        <ele>765.6</ele>
        <time>2024-07-23T09:03:55Z</time>
      </trkpt>
      <trkpt lat="45.91078" lon="2.98898">
        <ele>765.6</ele>
        <time>2024-07-23T09:03:57Z</time>
      </trkpt>
      <trkpt lat="45.91079" lon="2.98896">
        <ele>766.1</ele>
        <time>2024-07-23T09:03:59Z</time>
      </trkpt>
      <trkpt lat="45.9108" lon="2.98895">
        <ele>766</ele>
        <time>2024-07-23T09:04:01Z</time>
      </trkpt>
      <trkpt lat="45.9108" lon="2.98894">
        <ele>765.9</ele>
        <time>2024-07-23T09:04:06Z</time>
      </trkpt>
      <trkpt lat="45.91081" lon="2.98892">
        <ele>765.7</ele>
        <time>2024-07-23T09:04:35Z</time>
      </trkpt>
      <trkpt lat="45.91082" lon="2.98891">
        <ele>765.6</ele>
        <time>2024-07-23T09:04:36Z</time>
      </trkpt>
      <trkpt lat="45.91083" lon="2.9889">
        <ele>765.5</ele>
        <time>2024-07-23T09:04:37Z</time>
      </trkpt>
      <trkpt lat="45.91083" lon="2.98889">
        <ele>765.8</ele>
        <time>2024-07-23T09:04:38Z</time>
      </trkpt>
      <trkpt lat="45.91084" lon="2.98888">
        <ele>765.7</ele>
        <time>2024-07-23T09:04:39Z</time>
      </trkpt>
      <trkpt lat="45.91085" lon="2.98888">
        <ele>765.5</ele>
        <time>2024-07-23T09:04:40Z</time>
      </trkpt>
      <trkpt lat="45.91086" lon="2.98886">
        <ele>765.7</ele>
        <time>2024-07-23T09:04:42Z</time>
      </trkpt>
      <trkpt lat="45.91087" lon="2.98885">
        <ele>765.9</ele>
        <time>2024-07-23T09:04:43Z</time>
      </trkpt>
      <trkpt lat="45.91088" lon="2.98884">
        <ele>765.9</ele>
        <time>2024-07-23T09:04:44Z</time>
      </trkpt>
      <trkpt lat="45.91088" lon="2.98883">
        <ele>765.6</ele>
        <time>2024-07-23T09:04:45Z</time>
      </trkpt>
      <trkpt lat="45.91089" lon="2.98882">
        <ele>765.3</ele>
        <time>2024-07-23T09:04:46Z</time>
      </trkpt>
      <trkpt lat="45.9109" lon="2.98881">
        <ele>765.5</ele>
        <time>2024-07-23T09:04:47Z</time>
      </trkpt>
      <trkpt lat="45.9109" lon="2.9888">
        <ele>765.4</ele>
        <time>2024-07-23T09:04:48Z</time>
      </trkpt>
      <trkpt lat="45.91091" lon="2.98879">
        <ele>765.3</ele>
        <time>2024-07-23T09:04:49Z</time>
      </trkpt>
      <trkpt lat="45.91092" lon="2.98878">
        <ele>765.5</ele>
        <time>2024-07-23T09:04:50Z</time>
      </trkpt>
      <trkpt lat="45.91093" lon="2.98877">
        <ele>765.4</ele>
        <time>2024-07-23T09:04:51Z</time>
      </trkpt>
      <trkpt lat="45.91093" lon="2.98876">
        <ele>765.2</ele>
        <time>2024-07-23T09:04:52Z</time>
      </trkpt>
      <trkpt lat="45.91094" lon="2.98874">
        <ele>766.1</ele>
        <time>2024-07-23T09:04:54Z</time>
      </trkpt>
      <trkpt lat="45.91095" lon="2.98873">
        <ele>766.2</ele>
        <time>2024-07-23T09:04:57Z</time>
      </trkpt>
      <trkpt lat="45.91096" lon="2.98872">
        <ele>766.3</ele>
        <time>2024-07-23T09:05:05Z</time>
      </trkpt>
      <trkpt lat="45.91097" lon="2.9887">
        <ele>766.7</ele>
        <time>2024-07-23T09:05:07Z</time>
      </trkpt>
      <trkpt lat="45.91098" lon="2.98868">
        <ele>766.8</ele>
        <time>2024-07-23T09:05:09Z</time>
      </trkpt>
      <trkpt lat="45.91098" lon="2.98867">
        <ele>766.9</ele>
        <time>2024-07-23T09:05:10Z</time>
      </trkpt>
      <trkpt lat="45.91099" lon="2.98866">
        <ele>766.9</ele>
        <time>2024-07-23T09:05:11Z</time>
      </trkpt>
      <trkpt lat="45.91099" lon="2.98865">
        <ele>766.9</ele>
        <time>2024-07-23T09:05:12Z</time>
      </trkpt>
      <trkpt lat="45.91101" lon="2.98862">
        <ele>766.8</ele>
        <time>2024-07-23T09:05:14Z</time>
      </trkpt>
      <trkpt lat="45.91101" lon="2.98861">
        <ele>766.8</ele>
        <time>2024-07-23T09:05:15Z</time>
      </trkpt>
      <trkpt lat="45.91102" lon="2.98859">
        <ele>766.5</ele>
        <time>2024-07-23T09:05:17Z</time>
      </trkpt>
      <trkpt lat="45.91103" lon="2.98857">
        <ele>766.9</ele>
        <time>2024-07-23T09:05:19Z</time>
      </trkpt>
      <trkpt lat="45.91103" lon="2.98855">
        <ele>767.1</ele>
        <time>2024-07-23T09:05:20Z</time>
      </trkpt>
      <trkpt lat="45.91104" lon="2.98853">
        <ele>767.2</ele>
        <time>2024-07-23T09:05:22Z</time>
      </trkpt>
      <trkpt lat="45.91104" lon="2.98852">
        <ele>767.4</ele>
        <time>2024-07-23T09:05:23Z</time>
      </trkpt>
      <trkpt lat="45.91105" lon="2.9885">
        <ele>767.6</ele>
        <time>2024-07-23T09:05:24Z</time>
      </trkpt>
      <trkpt lat="45.91105" lon="2.98849">
        <ele>767.8</ele>
        <time>2024-07-23T09:05:25Z</time>
      </trkpt>
      <trkpt lat="45.91106" lon="2.98848">
        <ele>767.9</ele>
        <time>2024-07-23T09:05:26Z</time>
      </trkpt>
      <trkpt lat="45.91106" lon="2.98847">
        <ele>768</ele>
        <time>2024-07-23T09:05:27Z</time>
      </trkpt>
      <trkpt lat="45.91107" lon="2.98845">
        <ele>767.8</ele>
        <time>2024-07-23T09:05:28Z</time>
      </trkpt>
      <trkpt lat="45.91107" lon="2.98844">
        <ele>768</ele>
        <time>2024-07-23T09:05:29Z</time>
      </trkpt>
      <trkpt lat="45.91107" lon="2.98842">
        <ele>768.2</ele>
        <time>2024-07-23T09:05:31Z</time>
      </trkpt>
      <trkpt lat="45.91108" lon="2.98841">
        <ele>768.1</ele>
        <time>2024-07-23T09:05:32Z</time>
      </trkpt>
      <trkpt lat="45.91108" lon="2.9884">
        <ele>768.1</ele>
        <time>2024-07-23T09:05:33Z</time>
      </trkpt>
      <trkpt lat="45.91109" lon="2.98838">
        <ele>768.1</ele>
        <time>2024-07-23T09:05:34Z</time>
      </trkpt>
      <trkpt lat="45.91109" lon="2.98837">
        <ele>768.2</ele>
        <time>2024-07-23T09:05:35Z</time>
      </trkpt>
      <trkpt lat="45.91109" lon="2.98836">
        <ele>768.3</ele>
        <time>2024-07-23T09:05:36Z</time>
      </trkpt>
      <trkpt lat="45.9111" lon="2.98834">
        <ele>768.3</ele>
        <time>2024-07-23T09:05:37Z</time>
      </trkpt>
      <trkpt lat="45.9111" lon="2.98833">
        <ele>768.1</ele>
        <time>2024-07-23T09:05:38Z</time>
      </trkpt>
      <trkpt lat="45.9111" lon="2.98832">
        <ele>768.3</ele>
        <time>2024-07-23T09:05:39Z</time>
      </trkpt>
      <trkpt lat="45.9111" lon="2.98829">
        <ele>768.7</ele>
        <time>2024-07-23T09:05:41Z</time>
      </trkpt>
      <trkpt lat="45.9111" lon="2.98828">
        <ele>768.7</ele>
        <time>2024-07-23T09:05:42Z</time>
      </trkpt>
      <trkpt lat="45.9111" lon="2.98826">
        <ele>768.8</ele>
        <time>2024-07-23T09:05:43Z</time>
      </trkpt>
      <trkpt lat="45.9111" lon="2.98824">
        <ele>768.8</ele>
        <time>2024-07-23T09:05:44Z</time>
      </trkpt>
      <trkpt lat="45.9111" lon="2.98823">
        <ele>768.8</ele>
        <time>2024-07-23T09:05:45Z</time>
      </trkpt>
      <trkpt lat="45.9111" lon="2.98821">
        <ele>768.8</ele>
        <time>2024-07-23T09:05:46Z</time>
      </trkpt>
      <trkpt lat="45.9111" lon="2.9882">
        <ele>768.9</ele>
        <time>2024-07-23T09:05:47Z</time>
      </trkpt>
      <trkpt lat="45.9111" lon="2.98818">
        <ele>769</ele>
        <time>2024-07-23T09:05:48Z</time>
      </trkpt>
      <trkpt lat="45.9111" lon="2.98817">
        <ele>768.7</ele>
        <time>2024-07-23T09:05:49Z</time>
      </trkpt>
      <trkpt lat="45.91111" lon="2.98815">
        <ele>768.5</ele>
        <time>2024-07-23T09:05:50Z</time>
      </trkpt>
      <trkpt lat="45.91111" lon="2.98814">
        <ele>768.5</ele>
        <time>2024-07-23T09:05:51Z</time>
      </trkpt>
      <trkpt lat="45.91111" lon="2.98813">
        <ele>768.6</ele>
        <time>2024-07-23T09:05:52Z</time>
      </trkpt>
      <trkpt lat="45.91111" lon="2.98811">
        <ele>768.6</ele>
        <time>2024-07-23T09:05:53Z</time>
      </trkpt>
      <trkpt lat="45.91111" lon="2.9881">
        <ele>768.5</ele>
        <time>2024-07-23T09:05:54Z</time>
      </trkpt>
      <trkpt lat="45.91111" lon="2.98808">
        <ele>768.3</ele>
        <time>2024-07-23T09:05:55Z</time>
      </trkpt>
      <trkpt lat="45.91111" lon="2.98807">
        <ele>768.3</ele>
        <time>2024-07-23T09:05:56Z</time>
      </trkpt>
      <trkpt lat="45.91111" lon="2.98805">
        <ele>768.2</ele>
        <time>2024-07-23T09:05:57Z</time>
      </trkpt>
      <trkpt lat="45.91111" lon="2.98804">
        <ele>768.2</ele>
        <time>2024-07-23T09:05:58Z</time>
      </trkpt>
      <trkpt lat="45.91112" lon="2.98802">
        <ele>768.1</ele>
        <time>2024-07-23T09:05:59Z</time>
      </trkpt>
      <trkpt lat="45.91112" lon="2.98801">
        <ele>768.1</ele>
        <time>2024-07-23T09:06:00Z</time>
      </trkpt>
      <trkpt lat="45.91112" lon="2.98799">
        <ele>768.2</ele>
        <time>2024-07-23T09:06:01Z</time>
      </trkpt>
      <trkpt lat="45.91112" lon="2.98798">
        <ele>768.4</ele>
        <time>2024-07-23T09:06:02Z</time>
      </trkpt>
      <trkpt lat="45.91112" lon="2.98796">
        <ele>768.2</ele>
        <time>2024-07-23T09:06:03Z</time>
      </trkpt>
      <trkpt lat="45.91112" lon="2.98795">
        <ele>768.4</ele>
        <time>2024-07-23T09:06:04Z</time>
      </trkpt>
      <trkpt lat="45.91112" lon="2.98793">
        <ele>768.3</ele>
        <time>2024-07-23T09:06:05Z</time>
      </trkpt>
      <trkpt lat="45.91112" lon="2.98792">
        <ele>767.8</ele>
        <time>2024-07-23T09:06:06Z</time>
      </trkpt>
      <trkpt lat="45.91112" lon="2.9879">
        <ele>767.5</ele>
        <time>2024-07-23T09:06:07Z</time>
      </trkpt>
      <trkpt lat="45.91113" lon="2.98789">
        <ele>767.5</ele>
        <time>2024-07-23T09:06:08Z</time>
      </trkpt>
      <trkpt lat="45.91113" lon="2.98787">
        <ele>767.4</ele>
        <time>2024-07-23T09:06:09Z</time>
      </trkpt>
      <trkpt lat="45.91113" lon="2.98785">
        <ele>767.3</ele>
        <time>2024-07-23T09:06:10Z</time>
      </trkpt>
      <trkpt lat="45.91113" lon="2.98784">
        <ele>767.3</ele>
        <time>2024-07-23T09:06:11Z</time>
      </trkpt>
      <trkpt lat="45.91113" lon="2.98782">
        <ele>767.3</ele>
        <time>2024-07-23T09:06:12Z</time>
      </trkpt>
      <trkpt lat="45.91113" lon="2.98781">
        <ele>767.3</ele>
        <time>2024-07-23T09:06:13Z</time>
      </trkpt>
      <trkpt lat="45.91113" lon="2.98779">
        <ele>767.3</ele>
        <time>2024-07-23T09:06:14Z</time>
      </trkpt>
      <trkpt lat="45.91114" lon="2.98776">
        <ele>767.4</ele>
        <time>2024-07-23T09:06:16Z</time>
      </trkpt>
      <trkpt lat="45.91114" lon="2.98775">
        <ele>767.2</ele>
        <time>2024-07-23T09:06:17Z</time>
      </trkpt>
      <trkpt lat="45.91114" lon="2.98774">
        <ele>767.3</ele>
        <time>2024-07-23T09:06:18Z</time>
      </trkpt>
      <trkpt lat="45.91114" lon="2.98772">
        <ele>767.3</ele>
        <time>2024-07-23T09:06:19Z</time>
      </trkpt>
      <trkpt lat="45.91114" lon="2.98771">
        <ele>767.4</ele>
        <time>2024-07-23T09:06:20Z</time>
      </trkpt>
      <trkpt lat="45.91114" lon="2.98769">
        <ele>767.4</ele>
        <time>2024-07-23T09:06:21Z</time>
      </trkpt>
      <trkpt lat="45.91114" lon="2.98768">
        <ele>767.3</ele>
        <time>2024-07-23T09:06:22Z</time>
      </trkpt>
      <trkpt lat="45.91114" lon="2.98766">
        <ele>767.3</ele>
        <time>2024-07-23T09:06:23Z</time>
      </trkpt>
      <trkpt lat="45.91115" lon="2.98765">
        <ele>767.4</ele>
        <time>2024-07-23T09:06:24Z</time>
      </trkpt>
      <trkpt lat="45.91115" lon="2.98764">
        <ele>767.3</ele>
        <time>2024-07-23T09:06:25Z</time>
      </trkpt>
      <trkpt lat="45.91115" lon="2.98763">
        <ele>767.3</ele>
        <time>2024-07-23T09:06:26Z</time>
      </trkpt>
      <trkpt lat="45.91115" lon="2.98761">
        <ele>767.5</ele>
        <time>2024-07-23T09:06:27Z</time>
      </trkpt>
      <trkpt lat="45.91115" lon="2.98759">
        <ele>767.5</ele>
        <time>2024-07-23T09:06:29Z</time>
      </trkpt>
      <trkpt lat="45.91115" lon="2.98757">
        <ele>767.3</ele>
        <time>2024-07-23T09:06:30Z</time>
      </trkpt>
      <trkpt lat="45.91115" lon="2.98756">
        <ele>766.9</ele>
        <time>2024-07-23T09:06:31Z</time>
      </trkpt>
      <trkpt lat="45.91116" lon="2.98754">
        <ele>767.1</ele>
        <time>2024-07-23T09:06:32Z</time>
      </trkpt>
      <trkpt lat="45.91116" lon="2.98753">
        <ele>767.1</ele>
        <time>2024-07-23T09:06:33Z</time>
      </trkpt>
      <trkpt lat="45.91116" lon="2.98751">
        <ele>767</ele>
        <time>2024-07-23T09:06:34Z</time>
      </trkpt>
      <trkpt lat="45.91116" lon="2.9875">
        <ele>767</ele>
        <time>2024-07-23T09:06:35Z</time>
      </trkpt>
      <trkpt lat="45.91117" lon="2.98748">
        <ele>767.1</ele>
        <time>2024-07-23T09:06:36Z</time>
      </trkpt>
      <trkpt lat="45.91117" lon="2.98747">
        <ele>767.1</ele>
        <time>2024-07-23T09:06:37Z</time>
      </trkpt>
      <trkpt lat="45.91117" lon="2.98745">
        <ele>767.1</ele>
        <time>2024-07-23T09:06:38Z</time>
      </trkpt>
      <trkpt lat="45.91117" lon="2.98744">
        <ele>767.2</ele>
        <time>2024-07-23T09:06:39Z</time>
      </trkpt>
      <trkpt lat="45.91118" lon="2.98742">
        <ele>767</ele>
        <time>2024-07-23T09:06:40Z</time>
      </trkpt>
      <trkpt lat="45.91118" lon="2.98741">
        <ele>766.9</ele>
        <time>2024-07-23T09:06:41Z</time>
      </trkpt>
      <trkpt lat="45.91118" lon="2.98739">
        <ele>766.9</ele>
        <time>2024-07-23T09:06:42Z</time>
      </trkpt>
      <trkpt lat="45.91118" lon="2.98737">
        <ele>766.9</ele>
        <time>2024-07-23T09:06:43Z</time>
      </trkpt>
      <trkpt lat="45.91118" lon="2.98736">
        <ele>766.9</ele>
        <time>2024-07-23T09:06:44Z</time>
      </trkpt>
      <trkpt lat="45.91118" lon="2.98734">
        <ele>766.8</ele>
        <time>2024-07-23T09:06:45Z</time>
      </trkpt>
      <trkpt lat="45.91118" lon="2.98733">
        <ele>766.7</ele>
        <time>2024-07-23T09:06:46Z</time>
      </trkpt>
      <trkpt lat="45.91119" lon="2.98732">
        <ele>766.7</ele>
        <time>2024-07-23T09:06:47Z</time>
      </trkpt>
      <trkpt lat="45.91119" lon="2.98729">
        <ele>766.4</ele>
        <time>2024-07-23T09:06:49Z</time>
      </trkpt>
      <trkpt lat="45.91119" lon="2.98728">
        <ele>766.2</ele>
        <time>2024-07-23T09:06:50Z</time>
      </trkpt>
      <trkpt lat="45.91119" lon="2.98726">
        <ele>766.1</ele>
        <time>2024-07-23T09:06:51Z</time>
      </trkpt>
      <trkpt lat="45.9112" lon="2.98725">
        <ele>766</ele>
        <time>2024-07-23T09:06:52Z</time>
      </trkpt>
      <trkpt lat="45.9112" lon="2.98723">
        <ele>765.9</ele>
        <time>2024-07-23T09:06:53Z</time>
      </trkpt>
      <trkpt lat="45.9112" lon="2.98721">
        <ele>765.8</ele>
        <time>2024-07-23T09:06:54Z</time>
      </trkpt>
      <trkpt lat="45.9112" lon="2.9872">
        <ele>765.6</ele>
        <time>2024-07-23T09:06:55Z</time>
      </trkpt>
      <trkpt lat="45.9112" lon="2.98719">
        <ele>765.7</ele>
        <time>2024-07-23T09:06:56Z</time>
      </trkpt>
      <trkpt lat="45.91121" lon="2.98717">
        <ele>765.7</ele>
        <time>2024-07-23T09:06:57Z</time>
      </trkpt>
      <trkpt lat="45.91121" lon="2.98716">
        <ele>765.6</ele>
        <time>2024-07-23T09:06:59Z</time>
      </trkpt>
      <trkpt lat="45.91122" lon="2.98713">
        <ele>765.8</ele>
        <time>2024-07-23T09:07:04Z</time>
      </trkpt>
      <trkpt lat="45.91122" lon="2.98711">
        <ele>765.7</ele>
        <time>2024-07-23T09:07:06Z</time>
      </trkpt>
      <trkpt lat="45.91122" lon="2.9871">
        <ele>765.5</ele>
        <time>2024-07-23T09:07:07Z</time>
      </trkpt>
      <trkpt lat="45.91122" lon="2.98708">
        <ele>765.5</ele>
        <time>2024-07-23T09:07:08Z</time>
      </trkpt>
      <trkpt lat="45.91122" lon="2.98707">
        <ele>765.3</ele>
        <time>2024-07-23T09:07:09Z</time>
      </trkpt>
      <trkpt lat="45.91122" lon="2.98705">
        <ele>765.4</ele>
        <time>2024-07-23T09:07:10Z</time>
      </trkpt>
      <trkpt lat="45.91123" lon="2.98703">
        <ele>765.4</ele>
        <time>2024-07-23T09:07:11Z</time>
      </trkpt>
      <trkpt lat="45.91123" lon="2.98702">
        <ele>765.6</ele>
        <time>2024-07-23T09:07:12Z</time>
      </trkpt>
      <trkpt lat="45.91123" lon="2.987">
        <ele>765.5</ele>
        <time>2024-07-23T09:07:13Z</time>
      </trkpt>
      <trkpt lat="45.91123" lon="2.98699">
        <ele>765.3</ele>
        <time>2024-07-23T09:07:14Z</time>
      </trkpt>
      <trkpt lat="45.91123" lon="2.98697">
        <ele>764.9</ele>
        <time>2024-07-23T09:07:15Z</time>
      </trkpt>
      <trkpt lat="45.91123" lon="2.98696">
        <ele>765.1</ele>
        <time>2024-07-23T09:07:16Z</time>
      </trkpt>
      <trkpt lat="45.91124" lon="2.98694">
        <ele>764.8</ele>
        <time>2024-07-23T09:07:17Z</time>
      </trkpt>
      <trkpt lat="45.91123" lon="2.98693">
        <ele>765</ele>
        <time>2024-07-23T09:07:18Z</time>
      </trkpt>
      <trkpt lat="45.91123" lon="2.98691">
        <ele>765</ele>
        <time>2024-07-23T09:07:19Z</time>
      </trkpt>
      <trkpt lat="45.91124" lon="2.9869">
        <ele>765.2</ele>
        <time>2024-07-23T09:07:20Z</time>
      </trkpt>
      <trkpt lat="45.91124" lon="2.98688">
        <ele>765.1</ele>
        <time>2024-07-23T09:07:21Z</time>
      </trkpt>
      <trkpt lat="45.91124" lon="2.98687">
        <ele>765.4</ele>
        <time>2024-07-23T09:07:22Z</time>
      </trkpt>
      <trkpt lat="45.91124" lon="2.98686">
        <ele>765.6</ele>
        <time>2024-07-23T09:07:23Z</time>
      </trkpt>
      <trkpt lat="45.91124" lon="2.98684">
        <ele>765.6</ele>
        <time>2024-07-23T09:07:24Z</time>
      </trkpt>
      <trkpt lat="45.91125" lon="2.98683">
        <ele>765.6</ele>
        <time>2024-07-23T09:07:25Z</time>
      </trkpt>
      <trkpt lat="45.91125" lon="2.98681">
        <ele>765.6</ele>
        <time>2024-07-23T09:07:26Z</time>
      </trkpt>
      <trkpt lat="45.91125" lon="2.9868">
        <ele>766</ele>
        <time>2024-07-23T09:07:27Z</time>
      </trkpt>
      <trkpt lat="45.91125" lon="2.98679">
        <ele>766.1</ele>
        <time>2024-07-23T09:07:28Z</time>
      </trkpt>
      <trkpt lat="45.91125" lon="2.98677">
        <ele>766.3</ele>
        <time>2024-07-23T09:07:29Z</time>
      </trkpt>
      <trkpt lat="45.91125" lon="2.98676">
        <ele>766.3</ele>
        <time>2024-07-23T09:07:30Z</time>
      </trkpt>
      <trkpt lat="45.91125" lon="2.98674">
        <ele>766.2</ele>
        <time>2024-07-23T09:07:31Z</time>
      </trkpt>
      <trkpt lat="45.91125" lon="2.98672">
        <ele>766.2</ele>
        <time>2024-07-23T09:07:32Z</time>
      </trkpt>
      <trkpt lat="45.91125" lon="2.98671">
        <ele>766.1</ele>
        <time>2024-07-23T09:07:33Z</time>
      </trkpt>
      <trkpt lat="45.91125" lon="2.9867">
        <ele>766.4</ele>
        <time>2024-07-23T09:07:34Z</time>
      </trkpt>
      <trkpt lat="45.91125" lon="2.98668">
        <ele>766.3</ele>
        <time>2024-07-23T09:07:35Z</time>
      </trkpt>
      <trkpt lat="45.91126" lon="2.98667">
        <ele>766.2</ele>
        <time>2024-07-23T09:07:36Z</time>
      </trkpt>
      <trkpt lat="45.91126" lon="2.98666">
        <ele>766</ele>
        <time>2024-07-23T09:07:37Z</time>
      </trkpt>
      <trkpt lat="45.91126" lon="2.98664">
        <ele>766</ele>
        <time>2024-07-23T09:07:38Z</time>
      </trkpt>
      <trkpt lat="45.91126" lon="2.98663">
        <ele>766.1</ele>
        <time>2024-07-23T09:07:39Z</time>
      </trkpt>
      <trkpt lat="45.91127" lon="2.98661">
        <ele>766.2</ele>
        <time>2024-07-23T09:07:40Z</time>
      </trkpt>
      <trkpt lat="45.91127" lon="2.9866">
        <ele>766.1</ele>
        <time>2024-07-23T09:07:41Z</time>
      </trkpt>
      <trkpt lat="45.91127" lon="2.98659">
        <ele>765.9</ele>
        <time>2024-07-23T09:07:42Z</time>
      </trkpt>
      <trkpt lat="45.91128" lon="2.98657">
        <ele>765.9</ele>
        <time>2024-07-23T09:07:43Z</time>
      </trkpt>
      <trkpt lat="45.91128" lon="2.98656">
        <ele>766.1</ele>
        <time>2024-07-23T09:07:44Z</time>
      </trkpt>
      <trkpt lat="45.91128" lon="2.98655">
        <ele>766.3</ele>
        <time>2024-07-23T09:07:45Z</time>
      </trkpt>
      <trkpt lat="45.91129" lon="2.98653">
        <ele>766.4</ele>
        <time>2024-07-23T09:07:46Z</time>
      </trkpt>
      <trkpt lat="45.91129" lon="2.98651">
        <ele>766.6</ele>
        <time>2024-07-23T09:07:48Z</time>
      </trkpt>
      <trkpt lat="45.91129" lon="2.9865">
        <ele>766.7</ele>
        <time>2024-07-23T09:07:49Z</time>
      </trkpt>
      <trkpt lat="45.91129" lon="2.98648">
        <ele>766.8</ele>
        <time>2024-07-23T09:07:50Z</time>
      </trkpt>
      <trkpt lat="45.91129" lon="2.98647">
        <ele>766.9</ele>
        <time>2024-07-23T09:07:51Z</time>
      </trkpt>
      <trkpt lat="45.9113" lon="2.98645">
        <ele>766.8</ele>
        <time>2024-07-23T09:07:52Z</time>
      </trkpt>
      <trkpt lat="45.9113" lon="2.98643">
        <ele>766.5</ele>
        <time>2024-07-23T09:07:53Z</time>
      </trkpt>
      <trkpt lat="45.9113" lon="2.98642">
        <ele>766.5</ele>
        <time>2024-07-23T09:07:54Z</time>
      </trkpt>
      <trkpt lat="45.9113" lon="2.9864">
        <ele>766.5</ele>
        <time>2024-07-23T09:07:55Z</time>
      </trkpt>
      <trkpt lat="45.9113" lon="2.98638">
        <ele>766.7</ele>
        <time>2024-07-23T09:07:56Z</time>
      </trkpt>
      <trkpt lat="45.9113" lon="2.98637">
        <ele>766.8</ele>
        <time>2024-07-23T09:07:57Z</time>
      </trkpt>
      <trkpt lat="45.9113" lon="2.98635">
        <ele>766.9</ele>
        <time>2024-07-23T09:07:58Z</time>
      </trkpt>
      <trkpt lat="45.9113" lon="2.98633">
        <ele>767</ele>
        <time>2024-07-23T09:07:59Z</time>
      </trkpt>
      <trkpt lat="45.9113" lon="2.98631">
        <ele>767.2</ele>
        <time>2024-07-23T09:08:00Z</time>
      </trkpt>
      <trkpt lat="45.91131" lon="2.9863">
        <ele>767.2</ele>
        <time>2024-07-23T09:08:01Z</time>
      </trkpt>
      <trkpt lat="45.91131" lon="2.98628">
        <ele>767.2</ele>
        <time>2024-07-23T09:08:02Z</time>
      </trkpt>
      <trkpt lat="45.91131" lon="2.98626">
        <ele>767.1</ele>
        <time>2024-07-23T09:08:03Z</time>
      </trkpt>
      <trkpt lat="45.91131" lon="2.98625">
        <ele>767</ele>
        <time>2024-07-23T09:08:04Z</time>
      </trkpt>
      <trkpt lat="45.91132" lon="2.98623">
        <ele>767.5</ele>
        <time>2024-07-23T09:08:05Z</time>
      </trkpt>
      <trkpt lat="45.91132" lon="2.98622">
        <ele>767.4</ele>
        <time>2024-07-23T09:08:06Z</time>
      </trkpt>
      <trkpt lat="45.91132" lon="2.9862">
        <ele>767.6</ele>
        <time>2024-07-23T09:08:07Z</time>
      </trkpt>
      <trkpt lat="45.91132" lon="2.98618">
        <ele>767.4</ele>
        <time>2024-07-23T09:08:08Z</time>
      </trkpt>
      <trkpt lat="45.91132" lon="2.98617">
        <ele>767.4</ele>
        <time>2024-07-23T09:08:09Z</time>
      </trkpt>
      <trkpt lat="45.91132" lon="2.98615">
        <ele>767.4</ele>
        <time>2024-07-23T09:08:10Z</time>
      </trkpt>
      <trkpt lat="45.91132" lon="2.98614">
        <ele>767.6</ele>
        <time>2024-07-23T09:08:11Z</time>
      </trkpt>
      <trkpt lat="45.91132" lon="2.98612">
        <ele>767.5</ele>
        <time>2024-07-23T09:08:12Z</time>
      </trkpt>
      <trkpt lat="45.91133" lon="2.98611">
        <ele>767.7</ele>
        <time>2024-07-23T09:08:13Z</time>
      </trkpt>
      <trkpt lat="45.91133" lon="2.98609">
        <ele>767.7</ele>
        <time>2024-07-23T09:08:14Z</time>
      </trkpt>
      <trkpt lat="45.91133" lon="2.98608">
        <ele>767.8</ele>
        <time>2024-07-23T09:08:15Z</time>
      </trkpt>
      <trkpt lat="45.91133" lon="2.98606">
        <ele>767.9</ele>
        <time>2024-07-23T09:08:16Z</time>
      </trkpt>
      <trkpt lat="45.91133" lon="2.98604">
        <ele>768</ele>
        <time>2024-07-23T09:08:17Z</time>
      </trkpt>
      <trkpt lat="45.91134" lon="2.98603">
        <ele>767.6</ele>
        <time>2024-07-23T09:08:18Z</time>
      </trkpt>
      <trkpt lat="45.91134" lon="2.98601">
        <ele>767.5</ele>
        <time>2024-07-23T09:08:19Z</time>
      </trkpt>
      <trkpt lat="45.91134" lon="2.98599">
        <ele>767.5</ele>
        <time>2024-07-23T09:08:21Z</time>
      </trkpt>
      <trkpt lat="45.91135" lon="2.98596">
        <ele>768</ele>
        <time>2024-07-23T09:08:23Z</time>
      </trkpt>
      <trkpt lat="45.91135" lon="2.98594">
        <ele>767.9</ele>
        <time>2024-07-23T09:08:24Z</time>
      </trkpt>
      <trkpt lat="45.91136" lon="2.98593">
        <ele>768</ele>
        <time>2024-07-23T09:08:25Z</time>
      </trkpt>
      <trkpt lat="45.91136" lon="2.98592">
        <ele>768.4</ele>
        <time>2024-07-23T09:08:26Z</time>
      </trkpt>
      <trkpt lat="45.91136" lon="2.9859">
        <ele>768.3</ele>
        <time>2024-07-23T09:08:27Z</time>
      </trkpt>
      <trkpt lat="45.91136" lon="2.98589">
        <ele>768.3</ele>
        <time>2024-07-23T09:08:28Z</time>
      </trkpt>
      <trkpt lat="45.91136" lon="2.98587">
        <ele>767.9</ele>
        <time>2024-07-23T09:08:29Z</time>
      </trkpt>
      <trkpt lat="45.91136" lon="2.98585">
        <ele>768.1</ele>
        <time>2024-07-23T09:08:30Z</time>
      </trkpt>
      <trkpt lat="45.91136" lon="2.98584">
        <ele>768.1</ele>
        <time>2024-07-23T09:08:31Z</time>
      </trkpt>
      <trkpt lat="45.91136" lon="2.98582">
        <ele>768.1</ele>
        <time>2024-07-23T09:08:32Z</time>
      </trkpt>
      <trkpt lat="45.91136" lon="2.9858">
        <ele>768.1</ele>
        <time>2024-07-23T09:08:33Z</time>
      </trkpt>
      <trkpt lat="45.91137" lon="2.98579">
        <ele>768.1</ele>
        <time>2024-07-23T09:08:34Z</time>
      </trkpt>
      <trkpt lat="45.91137" lon="2.98578">
        <ele>768.4</ele>
        <time>2024-07-23T09:08:35Z</time>
      </trkpt>
      <trkpt lat="45.91137" lon="2.98576">
        <ele>768.3</ele>
        <time>2024-07-23T09:08:36Z</time>
      </trkpt>
      <trkpt lat="45.91137" lon="2.98574">
        <ele>768.2</ele>
        <time>2024-07-23T09:08:37Z</time>
      </trkpt>
      <trkpt lat="45.91137" lon="2.98573">
        <ele>768.3</ele>
        <time>2024-07-23T09:08:38Z</time>
      </trkpt>
      <trkpt lat="45.91138" lon="2.98571">
        <ele>767.9</ele>
        <time>2024-07-23T09:08:39Z</time>
      </trkpt>
      <trkpt lat="45.91138" lon="2.9857">
        <ele>767.8</ele>
        <time>2024-07-23T09:08:40Z</time>
      </trkpt>
      <trkpt lat="45.91138" lon="2.98568">
        <ele>767.1</ele>
        <time>2024-07-23T09:08:41Z</time>
      </trkpt>
      <trkpt lat="45.91138" lon="2.98566">
        <ele>767.3</ele>
        <time>2024-07-23T09:08:42Z</time>
      </trkpt>
      <trkpt lat="45.91138" lon="2.98564">
        <ele>767.5</ele>
        <time>2024-07-23T09:08:43Z</time>
      </trkpt>
      <trkpt lat="45.91139" lon="2.98563">
        <ele>767.3</ele>
        <time>2024-07-23T09:08:44Z</time>
      </trkpt>
      <trkpt lat="45.91139" lon="2.98561">
        <ele>767.3</ele>
        <time>2024-07-23T09:08:45Z</time>
      </trkpt>
      <trkpt lat="45.91139" lon="2.98559">
        <ele>767</ele>
        <time>2024-07-23T09:08:46Z</time>
      </trkpt>
      <trkpt lat="45.91139" lon="2.98557">
        <ele>767.2</ele>
        <time>2024-07-23T09:08:47Z</time>
      </trkpt>
      <trkpt lat="45.91139" lon="2.98556">
        <ele>767.4</ele>
        <time>2024-07-23T09:08:48Z</time>
      </trkpt>
      <trkpt lat="45.91139" lon="2.98554">
        <ele>767.4</ele>
        <time>2024-07-23T09:08:49Z</time>
      </trkpt>
      <trkpt lat="45.9114" lon="2.98553">
        <ele>767.5</ele>
        <time>2024-07-23T09:08:50Z</time>
      </trkpt>
      <trkpt lat="45.9114" lon="2.98551">
        <ele>767.4</ele>
        <time>2024-07-23T09:08:51Z</time>
      </trkpt>
      <trkpt lat="45.9114" lon="2.9855">
        <ele>767.3</ele>
        <time>2024-07-23T09:08:52Z</time>
      </trkpt>
      <trkpt lat="45.9114" lon="2.98548">
        <ele>767.3</ele>
        <time>2024-07-23T09:08:53Z</time>
      </trkpt>
      <trkpt lat="45.91141" lon="2.98547">
        <ele>767.6</ele>
        <time>2024-07-23T09:08:54Z</time>
      </trkpt>
      <trkpt lat="45.91141" lon="2.98545">
        <ele>767.3</ele>
        <time>2024-07-23T09:08:55Z</time>
      </trkpt>
      <trkpt lat="45.91141" lon="2.98544">
        <ele>767.1</ele>
        <time>2024-07-23T09:08:56Z</time>
      </trkpt>
      <trkpt lat="45.91141" lon="2.98542">
        <ele>767.2</ele>
        <time>2024-07-23T09:08:57Z</time>
      </trkpt>
      <trkpt lat="45.91142" lon="2.9854">
        <ele>767.2</ele>
        <time>2024-07-23T09:08:58Z</time>
      </trkpt>
      <trkpt lat="45.91142" lon="2.98539">
        <ele>767.4</ele>
        <time>2024-07-23T09:08:59Z</time>
      </trkpt>
      <trkpt lat="45.91142" lon="2.98538">
        <ele>767</ele>
        <time>2024-07-23T09:09:00Z</time>
      </trkpt>
      <trkpt lat="45.91143" lon="2.98536">
        <ele>766.8</ele>
        <time>2024-07-23T09:09:01Z</time>
      </trkpt>
      <trkpt lat="45.91143" lon="2.98535">
        <ele>766.6</ele>
        <time>2024-07-23T09:09:02Z</time>
      </trkpt>
      <trkpt lat="45.91143" lon="2.98533">
        <ele>766.5</ele>
        <time>2024-07-23T09:09:03Z</time>
      </trkpt>
      <trkpt lat="45.91143" lon="2.98532">
        <ele>766.5</ele>
        <time>2024-07-23T09:09:04Z</time>
      </trkpt>
      <trkpt lat="45.91144" lon="2.9853">
        <ele>766.4</ele>
        <time>2024-07-23T09:09:05Z</time>
      </trkpt>
      <trkpt lat="45.91144" lon="2.98528">
        <ele>766.8</ele>
        <time>2024-07-23T09:09:06Z</time>
      </trkpt>
      <trkpt lat="45.91144" lon="2.98527">
        <ele>766.6</ele>
        <time>2024-07-23T09:09:07Z</time>
      </trkpt>
      <trkpt lat="45.91144" lon="2.98525">
        <ele>766.8</ele>
        <time>2024-07-23T09:09:08Z</time>
      </trkpt>
      <trkpt lat="45.91144" lon="2.98523">
        <ele>767</ele>
        <time>2024-07-23T09:09:09Z</time>
      </trkpt>
      <trkpt lat="45.91145" lon="2.98522">
        <ele>766.8</ele>
        <time>2024-07-23T09:09:10Z</time>
      </trkpt>
      <trkpt lat="45.91146" lon="2.98521">
        <ele>766.6</ele>
        <time>2024-07-23T09:09:11Z</time>
      </trkpt>
      <trkpt lat="45.91146" lon="2.98519">
        <ele>766.5</ele>
        <time>2024-07-23T09:09:12Z</time>
      </trkpt>
      <trkpt lat="45.91146" lon="2.98518">
        <ele>766.5</ele>
        <time>2024-07-23T09:09:13Z</time>
      </trkpt>
      <trkpt lat="45.91146" lon="2.98516">
        <ele>766.4</ele>
        <time>2024-07-23T09:09:14Z</time>
      </trkpt>
      <trkpt lat="45.91146" lon="2.98514">
        <ele>766.2</ele>
        <time>2024-07-23T09:09:15Z</time>
      </trkpt>
      <trkpt lat="45.91146" lon="2.98513">
        <ele>766.3</ele>
        <time>2024-07-23T09:09:16Z</time>
      </trkpt>
      <trkpt lat="45.91146" lon="2.98511">
        <ele>766.3</ele>
        <time>2024-07-23T09:09:17Z</time>
      </trkpt>
      <trkpt lat="45.91147" lon="2.98509">
        <ele>766.6</ele>
        <time>2024-07-23T09:09:18Z</time>
      </trkpt>
      <trkpt lat="45.91147" lon="2.98508">
        <ele>766.6</ele>
        <time>2024-07-23T09:09:19Z</time>
      </trkpt>
      <trkpt lat="45.91147" lon="2.98506">
        <ele>766.5</ele>
        <time>2024-07-23T09:09:20Z</time>
      </trkpt>
      <trkpt lat="45.91147" lon="2.98505">
        <ele>766.5</ele>
        <time>2024-07-23T09:09:21Z</time>
      </trkpt>
      <trkpt lat="45.91148" lon="2.98503">
        <ele>766.4</ele>
        <time>2024-07-23T09:09:22Z</time>
      </trkpt>
      <trkpt lat="45.91148" lon="2.98502">
        <ele>766.3</ele>
        <time>2024-07-23T09:09:23Z</time>
      </trkpt>
      <trkpt lat="45.91148" lon="2.98499">
        <ele>766.3</ele>
        <time>2024-07-23T09:09:25Z</time>
      </trkpt>
      <trkpt lat="45.91148" lon="2.98497">
        <ele>766.4</ele>
        <time>2024-07-23T09:09:26Z</time>
      </trkpt>
      <trkpt lat="45.91148" lon="2.98496">
        <ele>766.3</ele>
        <time>2024-07-23T09:09:27Z</time>
      </trkpt>
      <trkpt lat="45.91148" lon="2.98493">
        <ele>766.3</ele>
        <time>2024-07-23T09:09:29Z</time>
      </trkpt>
      <trkpt lat="45.91148" lon="2.98491">
        <ele>766.3</ele>
        <time>2024-07-23T09:09:30Z</time>
      </trkpt>
      <trkpt lat="45.91148" lon="2.9849">
        <ele>766.5</ele>
        <time>2024-07-23T09:09:31Z</time>
      </trkpt>
      <trkpt lat="45.91148" lon="2.98487">
        <ele>766.7</ele>
        <time>2024-07-23T09:09:33Z</time>
      </trkpt>
      <trkpt lat="45.91148" lon="2.98486">
        <ele>766.7</ele>
        <time>2024-07-23T09:09:34Z</time>
      </trkpt>
      <trkpt lat="45.91148" lon="2.98484">
        <ele>767</ele>
        <time>2024-07-23T09:09:35Z</time>
      </trkpt>
      <trkpt lat="45.91148" lon="2.98483">
        <ele>766.3</ele>
        <time>2024-07-23T09:09:36Z</time>
      </trkpt>
      <trkpt lat="45.91148" lon="2.98481">
        <ele>767</ele>
        <time>2024-07-23T09:09:37Z</time>
      </trkpt>
      <trkpt lat="45.91148" lon="2.9848">
        <ele>766.9</ele>
        <time>2024-07-23T09:09:38Z</time>
      </trkpt>
      <trkpt lat="45.91148" lon="2.98478">
        <ele>767.4</ele>
        <time>2024-07-23T09:09:39Z</time>
      </trkpt>
      <trkpt lat="45.91147" lon="2.98477">
        <ele>766.7</ele>
        <time>2024-07-23T09:09:40Z</time>
      </trkpt>
      <trkpt lat="45.91147" lon="2.98475">
        <ele>766.1</ele>
        <time>2024-07-23T09:09:41Z</time>
      </trkpt>
      <trkpt lat="45.91147" lon="2.98472">
        <ele>767</ele>
        <time>2024-07-23T09:09:43Z</time>
      </trkpt>
      <trkpt lat="45.91147" lon="2.98471">
        <ele>767</ele>
        <time>2024-07-23T09:09:44Z</time>
      </trkpt>
      <trkpt lat="45.91147" lon="2.98469">
        <ele>767.3</ele>
        <time>2024-07-23T09:09:45Z</time>
      </trkpt>
      <trkpt lat="45.91147" lon="2.98467">
        <ele>767.4</ele>
        <time>2024-07-23T09:09:46Z</time>
      </trkpt>
      <trkpt lat="45.91147" lon="2.98466">
        <ele>767.5</ele>
        <time>2024-07-23T09:09:47Z</time>
      </trkpt>
      <trkpt lat="45.91147" lon="2.98464">
        <ele>767.2</ele>
        <time>2024-07-23T09:09:48Z</time>
      </trkpt>
      <trkpt lat="45.91146" lon="2.98463">
        <ele>767.2</ele>
        <time>2024-07-23T09:09:49Z</time>
      </trkpt>
      <trkpt lat="45.91146" lon="2.98461">
        <ele>767.1</ele>
        <time>2024-07-23T09:09:50Z</time>
      </trkpt>
      <trkpt lat="45.91146" lon="2.9846">
        <ele>767.2</ele>
        <time>2024-07-23T09:09:51Z</time>
      </trkpt>
      <trkpt lat="45.91145" lon="2.98458">
        <ele>767.3</ele>
        <time>2024-07-23T09:09:52Z</time>
      </trkpt>
      <trkpt lat="45.91145" lon="2.98457">
        <ele>767.6</ele>
        <time>2024-07-23T09:09:53Z</time>
      </trkpt>
      <trkpt lat="45.91145" lon="2.98455">
        <ele>767.6</ele>
        <time>2024-07-23T09:09:54Z</time>
      </trkpt>
      <trkpt lat="45.91145" lon="2.98454">
        <ele>767.6</ele>
        <time>2024-07-23T09:09:55Z</time>
      </trkpt>
      <trkpt lat="45.91144" lon="2.98453">
        <ele>767.5</ele>
        <time>2024-07-23T09:09:56Z</time>
      </trkpt>
      <trkpt lat="45.91144" lon="2.98451">
        <ele>767.9</ele>
        <time>2024-07-23T09:09:57Z</time>
      </trkpt>
      <trkpt lat="45.91144" lon="2.9845">
        <ele>768.1</ele>
        <time>2024-07-23T09:09:58Z</time>
      </trkpt>
      <trkpt lat="45.91144" lon="2.98448">
        <ele>768.5</ele>
        <time>2024-07-23T09:09:59Z</time>
      </trkpt>
      <trkpt lat="45.91143" lon="2.98447">
        <ele>768.4</ele>
        <time>2024-07-23T09:10:00Z</time>
      </trkpt>
      <trkpt lat="45.91142" lon="2.98446">
        <ele>768.6</ele>
        <time>2024-07-23T09:10:01Z</time>
      </trkpt>
      <trkpt lat="45.91142" lon="2.98445">
        <ele>769.1</ele>
        <time>2024-07-23T09:10:02Z</time>
      </trkpt>
      <trkpt lat="45.91141" lon="2.98443">
        <ele>768.9</ele>
        <time>2024-07-23T09:10:03Z</time>
      </trkpt>
      <trkpt lat="45.91141" lon="2.98442">
        <ele>769</ele>
        <time>2024-07-23T09:10:04Z</time>
      </trkpt>
      <trkpt lat="45.9114" lon="2.98441">
        <ele>768.8</ele>
        <time>2024-07-23T09:10:05Z</time>
      </trkpt>
      <trkpt lat="45.9114" lon="2.98439">
        <ele>768.5</ele>
        <time>2024-07-23T09:10:06Z</time>
      </trkpt>
      <trkpt lat="45.9114" lon="2.98438">
        <ele>768.3</ele>
        <time>2024-07-23T09:10:07Z</time>
      </trkpt>
      <trkpt lat="45.91139" lon="2.98436">
        <ele>768.1</ele>
        <time>2024-07-23T09:10:08Z</time>
      </trkpt>
      <trkpt lat="45.91138" lon="2.98435">
        <ele>768.1</ele>
        <time>2024-07-23T09:10:09Z</time>
      </trkpt>
      <trkpt lat="45.91138" lon="2.98433">
        <ele>768.2</ele>
        <time>2024-07-23T09:10:10Z</time>
      </trkpt>
      <trkpt lat="45.91137" lon="2.98432">
        <ele>768.2</ele>
        <time>2024-07-23T09:10:11Z</time>
      </trkpt>
      <trkpt lat="45.91136" lon="2.98431">
        <ele>768.2</ele>
        <time>2024-07-23T09:10:12Z</time>
      </trkpt>
      <trkpt lat="45.91135" lon="2.9843">
        <ele>768.3</ele>
        <time>2024-07-23T09:10:13Z</time>
      </trkpt>
      <trkpt lat="45.91134" lon="2.98429">
        <ele>768.3</ele>
        <time>2024-07-23T09:10:14Z</time>
      </trkpt>
      <trkpt lat="45.91134" lon="2.98428">
        <ele>768.5</ele>
        <time>2024-07-23T09:10:15Z</time>
      </trkpt>
      <trkpt lat="45.91133" lon="2.98426">
        <ele>768.2</ele>
        <time>2024-07-23T09:10:16Z</time>
      </trkpt>
      <trkpt lat="45.91132" lon="2.98425">
        <ele>768.1</ele>
        <time>2024-07-23T09:10:17Z</time>
      </trkpt>
      <trkpt lat="45.91132" lon="2.98424">
        <ele>767.9</ele>
        <time>2024-07-23T09:10:18Z</time>
      </trkpt>
      <trkpt lat="45.91131" lon="2.98423">
        <ele>767.7</ele>
        <time>2024-07-23T09:10:19Z</time>
      </trkpt>
      <trkpt lat="45.9113" lon="2.98421">
        <ele>767.5</ele>
        <time>2024-07-23T09:10:20Z</time>
      </trkpt>
      <trkpt lat="45.9113" lon="2.9842">
        <ele>767.2</ele>
        <time>2024-07-23T09:10:21Z</time>
      </trkpt>
      <trkpt lat="45.91129" lon="2.98419">
        <ele>767</ele>
        <time>2024-07-23T09:10:22Z</time>
      </trkpt>
      <trkpt lat="45.91128" lon="2.98417">
        <ele>767</ele>
        <time>2024-07-23T09:10:23Z</time>
      </trkpt>
      <trkpt lat="45.91128" lon="2.98416">
        <ele>766.9</ele>
        <time>2024-07-23T09:10:24Z</time>
      </trkpt>
      <trkpt lat="45.91127" lon="2.98415">
        <ele>766.9</ele>
        <time>2024-07-23T09:10:25Z</time>
      </trkpt>
      <trkpt lat="45.91126" lon="2.98414">
        <ele>766.8</ele>
        <time>2024-07-23T09:10:26Z</time>
      </trkpt>
      <trkpt lat="45.91126" lon="2.98413">
        <ele>766.8</ele>
        <time>2024-07-23T09:10:27Z</time>
      </trkpt>
      <trkpt lat="45.91126" lon="2.98411">
        <ele>766.9</ele>
        <time>2024-07-23T09:10:28Z</time>
      </trkpt>
      <trkpt lat="45.91125" lon="2.9841">
        <ele>767.3</ele>
        <time>2024-07-23T09:10:29Z</time>
      </trkpt>
      <trkpt lat="45.91125" lon="2.98408">
        <ele>767.2</ele>
        <time>2024-07-23T09:10:31Z</time>
      </trkpt>
      <trkpt lat="45.91124" lon="2.98406">
        <ele>766.9</ele>
        <time>2024-07-23T09:10:38Z</time>
      </trkpt>
      <trkpt lat="45.91124" lon="2.98404">
        <ele>767.5</ele>
        <time>2024-07-23T09:10:40Z</time>
      </trkpt>
      <trkpt lat="45.91123" lon="2.98403">
        <ele>767.3</ele>
        <time>2024-07-23T09:10:41Z</time>
      </trkpt>
      <trkpt lat="45.91122" lon="2.98402">
        <ele>767.4</ele>
        <time>2024-07-23T09:10:42Z</time>
      </trkpt>
      <trkpt lat="45.91121" lon="2.98401">
        <ele>767.6</ele>
        <time>2024-07-23T09:10:43Z</time>
      </trkpt>
      <trkpt lat="45.91121" lon="2.98399">
        <ele>767.6</ele>
        <time>2024-07-23T09:10:44Z</time>
      </trkpt>
      <trkpt lat="45.9112" lon="2.98398">
        <ele>767.8</ele>
        <time>2024-07-23T09:10:45Z</time>
      </trkpt>
      <trkpt lat="45.91119" lon="2.98397">
        <ele>768.2</ele>
        <time>2024-07-23T09:10:46Z</time>
      </trkpt>
      <trkpt lat="45.91119" lon="2.98396">
        <ele>768.3</ele>
        <time>2024-07-23T09:10:47Z</time>
      </trkpt>
      <trkpt lat="45.91118" lon="2.98394">
        <ele>768.3</ele>
        <time>2024-07-23T09:10:48Z</time>
      </trkpt>
      <trkpt lat="45.91117" lon="2.98393">
        <ele>768</ele>
        <time>2024-07-23T09:10:49Z</time>
      </trkpt>
      <trkpt lat="45.91117" lon="2.98392">
        <ele>767.9</ele>
        <time>2024-07-23T09:10:50Z</time>
      </trkpt>
      <trkpt lat="45.91116" lon="2.98391">
        <ele>767.7</ele>
        <time>2024-07-23T09:10:51Z</time>
      </trkpt>
      <trkpt lat="45.91116" lon="2.98389">
        <ele>767.6</ele>
        <time>2024-07-23T09:10:52Z</time>
      </trkpt>
      <trkpt lat="45.91115" lon="2.98388">
        <ele>767.5</ele>
        <time>2024-07-23T09:10:53Z</time>
      </trkpt>
      <trkpt lat="45.91115" lon="2.98386">
        <ele>767.6</ele>
        <time>2024-07-23T09:10:54Z</time>
      </trkpt>
      <trkpt lat="45.91114" lon="2.98385">
        <ele>767.4</ele>
        <time>2024-07-23T09:10:55Z</time>
      </trkpt>
      <trkpt lat="45.91114" lon="2.98384">
        <ele>767.7</ele>
        <time>2024-07-23T09:10:56Z</time>
      </trkpt>
      <trkpt lat="45.91114" lon="2.98382">
        <ele>768.1</ele>
        <time>2024-07-23T09:10:57Z</time>
      </trkpt>
      <trkpt lat="45.91113" lon="2.98381">
        <ele>768.2</ele>
        <time>2024-07-23T09:10:58Z</time>
      </trkpt>
      <trkpt lat="45.91113" lon="2.98379">
        <ele>768.1</ele>
        <time>2024-07-23T09:10:59Z</time>
      </trkpt>
      <trkpt lat="45.91113" lon="2.98378">
        <ele>768.3</ele>
        <time>2024-07-23T09:11:00Z</time>
      </trkpt>
      <trkpt lat="45.91113" lon="2.98377">
        <ele>768.1</ele>
        <time>2024-07-23T09:11:01Z</time>
      </trkpt>
      <trkpt lat="45.91112" lon="2.98375">
        <ele>768.2</ele>
        <time>2024-07-23T09:11:02Z</time>
      </trkpt>
      <trkpt lat="45.91112" lon="2.98374">
        <ele>768.2</ele>
        <time>2024-07-23T09:11:03Z</time>
      </trkpt>
      <trkpt lat="45.91112" lon="2.98372">
        <ele>768</ele>
        <time>2024-07-23T09:11:04Z</time>
      </trkpt>
      <trkpt lat="45.91112" lon="2.9837">
        <ele>767.8</ele>
        <time>2024-07-23T09:11:05Z</time>
      </trkpt>
      <trkpt lat="45.91112" lon="2.98369">
        <ele>768</ele>
        <time>2024-07-23T09:11:06Z</time>
      </trkpt>
      <trkpt lat="45.91112" lon="2.98367">
        <ele>768</ele>
        <time>2024-07-23T09:11:07Z</time>
      </trkpt>
      <trkpt lat="45.91112" lon="2.98366">
        <ele>768.1</ele>
        <time>2024-07-23T09:11:08Z</time>
      </trkpt>
      <trkpt lat="45.91112" lon="2.98364">
        <ele>768.2</ele>
        <time>2024-07-23T09:11:09Z</time>
      </trkpt>
      <trkpt lat="45.91112" lon="2.98362">
        <ele>767.7</ele>
        <time>2024-07-23T09:11:10Z</time>
      </trkpt>
      <trkpt lat="45.91112" lon="2.98361">
        <ele>767.5</ele>
        <time>2024-07-23T09:11:11Z</time>
      </trkpt>
      <trkpt lat="45.91112" lon="2.98359">
        <ele>767.5</ele>
        <time>2024-07-23T09:11:12Z</time>
      </trkpt>
      <trkpt lat="45.91111" lon="2.98357">
        <ele>767.8</ele>
        <time>2024-07-23T09:11:13Z</time>
      </trkpt>
      <trkpt lat="45.91111" lon="2.98355">
        <ele>767.4</ele>
        <time>2024-07-23T09:11:14Z</time>
      </trkpt>
      <trkpt lat="45.91111" lon="2.98354">
        <ele>767.4</ele>
        <time>2024-07-23T09:11:15Z</time>
      </trkpt>
      <trkpt lat="45.91111" lon="2.98352">
        <ele>767.5</ele>
        <time>2024-07-23T09:11:16Z</time>
      </trkpt>
      <trkpt lat="45.9111" lon="2.9835">
        <ele>767.6</ele>
        <time>2024-07-23T09:11:17Z</time>
      </trkpt>
      <trkpt lat="45.9111" lon="2.98349">
        <ele>767.7</ele>
        <time>2024-07-23T09:11:18Z</time>
      </trkpt>
      <trkpt lat="45.9111" lon="2.98347">
        <ele>767.9</ele>
        <time>2024-07-23T09:11:19Z</time>
      </trkpt>
      <trkpt lat="45.9111" lon="2.98345">
        <ele>767.7</ele>
        <time>2024-07-23T09:11:20Z</time>
      </trkpt>
      <trkpt lat="45.9111" lon="2.98344">
        <ele>768</ele>
        <time>2024-07-23T09:11:21Z</time>
      </trkpt>
      <trkpt lat="45.9111" lon="2.98342">
        <ele>767.8</ele>
        <time>2024-07-23T09:11:22Z</time>
      </trkpt>
      <trkpt lat="45.91109" lon="2.9834">
        <ele>767.9</ele>
        <time>2024-07-23T09:11:23Z</time>
      </trkpt>
      <trkpt lat="45.91109" lon="2.98339">
        <ele>767.9</ele>
        <time>2024-07-23T09:11:24Z</time>
      </trkpt>
      <trkpt lat="45.91109" lon="2.98337">
        <ele>767.9</ele>
        <time>2024-07-23T09:11:25Z</time>
      </trkpt>
      <trkpt lat="45.91109" lon="2.98336">
        <ele>767.8</ele>
        <time>2024-07-23T09:11:26Z</time>
      </trkpt>
      <trkpt lat="45.91108" lon="2.98334">
        <ele>768</ele>
        <time>2024-07-23T09:11:27Z</time>
      </trkpt>
      <trkpt lat="45.91108" lon="2.98332">
        <ele>768</ele>
        <time>2024-07-23T09:11:28Z</time>
      </trkpt>
      <trkpt lat="45.91108" lon="2.98331">
        <ele>768</ele>
        <time>2024-07-23T09:11:29Z</time>
      </trkpt>
      <trkpt lat="45.91108" lon="2.98329">
        <ele>767.8</ele>
        <time>2024-07-23T09:11:30Z</time>
      </trkpt>
      <trkpt lat="45.91107" lon="2.98328">
        <ele>768.1</ele>
        <time>2024-07-23T09:11:31Z</time>
      </trkpt>
      <trkpt lat="45.91107" lon="2.98326">
        <ele>767.9</ele>
        <time>2024-07-23T09:11:32Z</time>
      </trkpt>
      <trkpt lat="45.91107" lon="2.98325">
        <ele>768</ele>
        <time>2024-07-23T09:11:33Z</time>
      </trkpt>
      <trkpt lat="45.91107" lon="2.98323">
        <ele>767.8</ele>
        <time>2024-07-23T09:11:34Z</time>
      </trkpt>
      <trkpt lat="45.91106" lon="2.98322">
        <ele>767.8</ele>
        <time>2024-07-23T09:11:35Z</time>
      </trkpt>
      <trkpt lat="45.91106" lon="2.9832">
        <ele>767.9</ele>
        <time>2024-07-23T09:11:36Z</time>
      </trkpt>
      <trkpt lat="45.91106" lon="2.98319">
        <ele>768.1</ele>
        <time>2024-07-23T09:11:37Z</time>
      </trkpt>
      <trkpt lat="45.91106" lon="2.98317">
        <ele>768</ele>
        <time>2024-07-23T09:11:38Z</time>
      </trkpt>
      <trkpt lat="45.91105" lon="2.98316">
        <ele>767.9</ele>
        <time>2024-07-23T09:11:39Z</time>
      </trkpt>
      <trkpt lat="45.91105" lon="2.98314">
        <ele>767.9</ele>
        <time>2024-07-23T09:11:40Z</time>
      </trkpt>
      <trkpt lat="45.91105" lon="2.98313">
        <ele>768.1</ele>
        <time>2024-07-23T09:11:41Z</time>
      </trkpt>
      <trkpt lat="45.91105" lon="2.98311">
        <ele>768.2</ele>
        <time>2024-07-23T09:11:42Z</time>
      </trkpt>
      <trkpt lat="45.91104" lon="2.98309">
        <ele>768.1</ele>
        <time>2024-07-23T09:11:43Z</time>
      </trkpt>
      <trkpt lat="45.91104" lon="2.98308">
        <ele>767.8</ele>
        <time>2024-07-23T09:11:44Z</time>
      </trkpt>
      <trkpt lat="45.91104" lon="2.98306">
        <ele>767.9</ele>
        <time>2024-07-23T09:11:45Z</time>
      </trkpt>
      <trkpt lat="45.91104" lon="2.98305">
        <ele>768</ele>
        <time>2024-07-23T09:11:46Z</time>
      </trkpt>
      <trkpt lat="45.91104" lon="2.98303">
        <ele>767.9</ele>
        <time>2024-07-23T09:11:47Z</time>
      </trkpt>
      <trkpt lat="45.91104" lon="2.98301">
        <ele>767.7</ele>
        <time>2024-07-23T09:11:48Z</time>
      </trkpt>
      <trkpt lat="45.91104" lon="2.983">
        <ele>767.4</ele>
        <time>2024-07-23T09:11:49Z</time>
      </trkpt>
      <trkpt lat="45.91104" lon="2.98298">
        <ele>767.7</ele>
        <time>2024-07-23T09:11:50Z</time>
      </trkpt>
      <trkpt lat="45.91105" lon="2.98297">
        <ele>767.9</ele>
        <time>2024-07-23T09:11:51Z</time>
      </trkpt>
      <trkpt lat="45.91105" lon="2.98295">
        <ele>768.2</ele>
        <time>2024-07-23T09:11:52Z</time>
      </trkpt>
      <trkpt lat="45.91105" lon="2.98294">
        <ele>768.1</ele>
        <time>2024-07-23T09:11:53Z</time>
      </trkpt>
      <trkpt lat="45.91106" lon="2.98292">
        <ele>767.9</ele>
        <time>2024-07-23T09:11:54Z</time>
      </trkpt>
      <trkpt lat="45.91106" lon="2.98291">
        <ele>767.9</ele>
        <time>2024-07-23T09:11:55Z</time>
      </trkpt>
      <trkpt lat="45.91107" lon="2.98289">
        <ele>767.7</ele>
        <time>2024-07-23T09:11:56Z</time>
      </trkpt>
      <trkpt lat="45.91107" lon="2.98288">
        <ele>767.6</ele>
        <time>2024-07-23T09:11:57Z</time>
      </trkpt>
      <trkpt lat="45.91107" lon="2.98286">
        <ele>767.8</ele>
        <time>2024-07-23T09:11:58Z</time>
      </trkpt>
      <trkpt lat="45.91108" lon="2.98285">
        <ele>767.7</ele>
        <time>2024-07-23T09:12:00Z</time>
      </trkpt>
      <trkpt lat="45.91109" lon="2.98282">
        <ele>768.1</ele>
        <time>2024-07-23T09:12:02Z</time>
      </trkpt>
      <trkpt lat="45.9111" lon="2.98281">
        <ele>768.3</ele>
        <time>2024-07-23T09:12:03Z</time>
      </trkpt>
      <trkpt lat="45.9111" lon="2.9828">
        <ele>768.3</ele>
        <time>2024-07-23T09:12:04Z</time>
      </trkpt>
      <trkpt lat="45.9111" lon="2.98278">
        <ele>768.5</ele>
        <time>2024-07-23T09:12:05Z</time>
      </trkpt>
      <trkpt lat="45.91111" lon="2.98277">
        <ele>768.6</ele>
        <time>2024-07-23T09:12:06Z</time>
      </trkpt>
      <trkpt lat="45.91111" lon="2.98275">
        <ele>768.7</ele>
        <time>2024-07-23T09:12:07Z</time>
      </trkpt>
      <trkpt lat="45.91112" lon="2.98274">
        <ele>769</ele>
        <time>2024-07-23T09:12:08Z</time>
      </trkpt>
      <trkpt lat="45.91112" lon="2.98273">
        <ele>769.1</ele>
        <time>2024-07-23T09:12:09Z</time>
      </trkpt>
      <trkpt lat="45.91112" lon="2.98271">
        <ele>769.4</ele>
        <time>2024-07-23T09:12:10Z</time>
      </trkpt>
      <trkpt lat="45.91112" lon="2.9827">
        <ele>769.6</ele>
        <time>2024-07-23T09:12:11Z</time>
      </trkpt>
      <trkpt lat="45.91112" lon="2.98268">
        <ele>769.4</ele>
        <time>2024-07-23T09:12:12Z</time>
      </trkpt>
      <trkpt lat="45.91112" lon="2.98267">
        <ele>769.6</ele>
        <time>2024-07-23T09:12:13Z</time>
      </trkpt>
      <trkpt lat="45.91112" lon="2.98265">
        <ele>769.6</ele>
        <time>2024-07-23T09:12:14Z</time>
      </trkpt>
      <trkpt lat="45.91112" lon="2.98264">
        <ele>769.7</ele>
        <time>2024-07-23T09:12:15Z</time>
      </trkpt>
      <trkpt lat="45.91112" lon="2.98262">
        <ele>769.8</ele>
        <time>2024-07-23T09:12:16Z</time>
      </trkpt>
      <trkpt lat="45.91113" lon="2.98261">
        <ele>769.8</ele>
        <time>2024-07-23T09:12:17Z</time>
      </trkpt>
      <trkpt lat="45.91113" lon="2.98259">
        <ele>770</ele>
        <time>2024-07-23T09:12:19Z</time>
      </trkpt>
      <trkpt lat="45.91113" lon="2.98257">
        <ele>769.5</ele>
        <time>2024-07-23T09:12:20Z</time>
      </trkpt>
      <trkpt lat="45.91113" lon="2.98256">
        <ele>770.1</ele>
        <time>2024-07-23T09:12:21Z</time>
      </trkpt>
      <trkpt lat="45.91114" lon="2.98254">
        <ele>770.9</ele>
        <time>2024-07-23T09:12:23Z</time>
      </trkpt>
      <trkpt lat="45.91115" lon="2.98253">
        <ele>770.8</ele>
        <time>2024-07-23T09:12:24Z</time>
      </trkpt>
      <trkpt lat="45.91115" lon="2.98252">
        <ele>770.8</ele>
        <time>2024-07-23T09:12:25Z</time>
      </trkpt>
      <trkpt lat="45.91116" lon="2.98251">
        <ele>771</ele>
        <time>2024-07-23T09:12:26Z</time>
      </trkpt>
      <trkpt lat="45.91117" lon="2.9825">
        <ele>771.5</ele>
        <time>2024-07-23T09:12:27Z</time>
      </trkpt>
      <trkpt lat="45.91118" lon="2.9825">
        <ele>771.9</ele>
        <time>2024-07-23T09:12:28Z</time>
      </trkpt>
      <trkpt lat="45.91119" lon="2.9825">
        <ele>771.8</ele>
        <time>2024-07-23T09:12:29Z</time>
      </trkpt>
      <trkpt lat="45.9112" lon="2.9825">
        <ele>772</ele>
        <time>2024-07-23T09:12:31Z</time>
      </trkpt>
      <trkpt lat="45.91122" lon="2.98251">
        <ele>772.2</ele>
        <time>2024-07-23T09:12:33Z</time>
      </trkpt>
      <trkpt lat="45.91123" lon="2.98252">
        <ele>772.1</ele>
        <time>2024-07-23T09:12:35Z</time>
      </trkpt>
      <trkpt lat="45.91124" lon="2.98252">
        <ele>772.1</ele>
        <time>2024-07-23T09:12:36Z</time>
      </trkpt>
      <trkpt lat="45.91125" lon="2.98251">
        <ele>772.1</ele>
        <time>2024-07-23T09:12:37Z</time>
      </trkpt>
      <trkpt lat="45.91126" lon="2.98251">
        <ele>771.9</ele>
        <time>2024-07-23T09:12:38Z</time>
      </trkpt>
      <trkpt lat="45.91127" lon="2.98251">
        <ele>771.9</ele>
        <time>2024-07-23T09:12:39Z</time>
      </trkpt>
      <trkpt lat="45.91128" lon="2.98251">
        <ele>771.6</ele>
        <time>2024-07-23T09:12:53Z</time>
      </trkpt>
      <trkpt lat="45.91129" lon="2.9825">
        <ele>771.4</ele>
        <time>2024-07-23T09:12:55Z</time>
      </trkpt>
      <trkpt lat="45.91131" lon="2.98248">
        <ele>771.7</ele>
        <time>2024-07-23T09:12:57Z</time>
      </trkpt>
      <trkpt lat="45.91131" lon="2.98247">
        <ele>771.9</ele>
        <time>2024-07-23T09:12:59Z</time>
      </trkpt>
      <trkpt lat="45.91132" lon="2.98246">
        <ele>771.9</ele>
        <time>2024-07-23T09:13:01Z</time>
      </trkpt>
      <trkpt lat="45.91134" lon="2.98245">
        <ele>772</ele>
        <time>2024-07-23T09:13:03Z</time>
      </trkpt>
      <trkpt lat="45.91135" lon="2.98244">
        <ele>772.3</ele>
        <time>2024-07-23T09:13:05Z</time>
      </trkpt>
      <trkpt lat="45.91136" lon="2.98243">
        <ele>772.4</ele>
        <time>2024-07-23T09:13:07Z</time>
      </trkpt>
      <trkpt lat="45.91137" lon="2.98242">
        <ele>772.7</ele>
        <time>2024-07-23T09:13:11Z</time>
      </trkpt>
      <trkpt lat="45.91138" lon="2.98242">
        <ele>772.7</ele>
        <time>2024-07-23T09:13:13Z</time>
      </trkpt>
      <trkpt lat="45.91139" lon="2.98241">
        <ele>772.7</ele>
        <time>2024-07-23T09:13:14Z</time>
      </trkpt>
      <trkpt lat="45.9114" lon="2.9824">
        <ele>772.7</ele>
        <time>2024-07-23T09:13:15Z</time>
      </trkpt>
      <trkpt lat="45.91141" lon="2.9824">
        <ele>772.8</ele>
        <time>2024-07-23T09:13:16Z</time>
      </trkpt>
      <trkpt lat="45.91142" lon="2.98239">
        <ele>772.8</ele>
        <time>2024-07-23T09:13:17Z</time>
      </trkpt>
      <trkpt lat="45.91143" lon="2.98239">
        <ele>773</ele>
        <time>2024-07-23T09:13:18Z</time>
      </trkpt>
      <trkpt lat="45.91144" lon="2.98238">
        <ele>773.2</ele>
        <time>2024-07-23T09:13:19Z</time>
      </trkpt>
      <trkpt lat="45.91145" lon="2.98238">
        <ele>773</ele>
        <time>2024-07-23T09:13:20Z</time>
      </trkpt>
      <trkpt lat="45.91146" lon="2.98238">
        <ele>772.9</ele>
        <time>2024-07-23T09:13:21Z</time>
      </trkpt>
      <trkpt lat="45.91147" lon="2.98237">
        <ele>772.9</ele>
        <time>2024-07-23T09:13:22Z</time>
      </trkpt>
      <trkpt lat="45.91148" lon="2.98237">
        <ele>773.2</ele>
        <time>2024-07-23T09:13:23Z</time>
      </trkpt>
      <trkpt lat="45.91149" lon="2.98237">
        <ele>772.9</ele>
        <time>2024-07-23T09:13:24Z</time>
      </trkpt>
      <trkpt lat="45.91151" lon="2.98237">
        <ele>773</ele>
        <time>2024-07-23T09:13:26Z</time>
      </trkpt>
      <trkpt lat="45.91153" lon="2.98237">
        <ele>773.6</ele>
        <time>2024-07-23T09:13:28Z</time>
      </trkpt>
      <trkpt lat="45.91154" lon="2.98237">
        <ele>773.9</ele>
        <time>2024-07-23T09:13:29Z</time>
      </trkpt>
      <trkpt lat="45.91155" lon="2.98237">
        <ele>773.9</ele>
        <time>2024-07-23T09:13:30Z</time>
      </trkpt>
      <trkpt lat="45.91157" lon="2.98237">
        <ele>773.6</ele>
        <time>2024-07-23T09:13:32Z</time>
      </trkpt>
      <trkpt lat="45.91158" lon="2.98237">
        <ele>773.7</ele>
        <time>2024-07-23T09:13:33Z</time>
      </trkpt>
      <trkpt lat="45.91159" lon="2.98238">
        <ele>773.7</ele>
        <time>2024-07-23T09:13:34Z</time>
      </trkpt>
      <trkpt lat="45.9116" lon="2.98238">
        <ele>774</ele>
        <time>2024-07-23T09:13:35Z</time>
      </trkpt>
      <trkpt lat="45.91161" lon="2.98238">
        <ele>774.4</ele>
        <time>2024-07-23T09:13:36Z</time>
      </trkpt>
      <trkpt lat="45.91162" lon="2.98239">
        <ele>774.4</ele>
        <time>2024-07-23T09:13:37Z</time>
      </trkpt>
      <trkpt lat="45.91163" lon="2.98239">
        <ele>774.9</ele>
        <time>2024-07-23T09:13:38Z</time>
      </trkpt>
      <trkpt lat="45.91164" lon="2.9824">
        <ele>774.9</ele>
        <time>2024-07-23T09:13:39Z</time>
      </trkpt>
      <trkpt lat="45.91166" lon="2.9824">
        <ele>774.8</ele>
        <time>2024-07-23T09:13:41Z</time>
      </trkpt>
      <trkpt lat="45.91167" lon="2.98241">
        <ele>774.9</ele>
        <time>2024-07-23T09:13:42Z</time>
      </trkpt>
      <trkpt lat="45.91168" lon="2.98241">
        <ele>774.8</ele>
        <time>2024-07-23T09:13:43Z</time>
      </trkpt>
      <trkpt lat="45.91169" lon="2.98241">
        <ele>774.6</ele>
        <time>2024-07-23T09:13:44Z</time>
      </trkpt>
      <trkpt lat="45.9117" lon="2.98242">
        <ele>774.6</ele>
        <time>2024-07-23T09:13:45Z</time>
      </trkpt>
      <trkpt lat="45.91171" lon="2.98242">
        <ele>774.5</ele>
        <time>2024-07-23T09:13:46Z</time>
      </trkpt>
      <trkpt lat="45.91172" lon="2.98242">
        <ele>774.8</ele>
        <time>2024-07-23T09:13:47Z</time>
      </trkpt>
      <trkpt lat="45.91173" lon="2.98243">
        <ele>774.7</ele>
        <time>2024-07-23T09:13:48Z</time>
      </trkpt>
      <trkpt lat="45.91174" lon="2.98243">
        <ele>774.7</ele>
        <time>2024-07-23T09:13:49Z</time>
      </trkpt>
      <trkpt lat="45.91176" lon="2.98243">
        <ele>774.8</ele>
        <time>2024-07-23T09:13:50Z</time>
      </trkpt>
      <trkpt lat="45.91177" lon="2.98243">
        <ele>774.8</ele>
        <time>2024-07-23T09:13:51Z</time>
      </trkpt>
      <trkpt lat="45.91177" lon="2.98243">
        <ele>775</ele>
        <time>2024-07-23T09:13:52Z</time>
      </trkpt>
      <trkpt lat="45.91178" lon="2.98244">
        <ele>775.2</ele>
        <time>2024-07-23T09:13:53Z</time>
      </trkpt>
      <trkpt lat="45.91179" lon="2.98244">
        <ele>774.8</ele>
        <time>2024-07-23T09:13:54Z</time>
      </trkpt>
      <trkpt lat="45.91181" lon="2.98244">
        <ele>774.8</ele>
        <time>2024-07-23T09:13:55Z</time>
      </trkpt>
      <trkpt lat="45.91182" lon="2.98245">
        <ele>775</ele>
        <time>2024-07-23T09:13:56Z</time>
      </trkpt>
      <trkpt lat="45.91183" lon="2.98245">
        <ele>775</ele>
        <time>2024-07-23T09:13:57Z</time>
      </trkpt>
      <trkpt lat="45.91184" lon="2.98245">
        <ele>774.9</ele>
        <time>2024-07-23T09:13:58Z</time>
      </trkpt>
      <trkpt lat="45.91185" lon="2.98245">
        <ele>775.1</ele>
        <time>2024-07-23T09:13:59Z</time>
      </trkpt>
      <trkpt lat="45.91186" lon="2.98245">
        <ele>775.1</ele>
        <time>2024-07-23T09:14:00Z</time>
      </trkpt>
      <trkpt lat="45.91187" lon="2.98245">
        <ele>775.1</ele>
        <time>2024-07-23T09:14:01Z</time>
      </trkpt>
      <trkpt lat="45.91188" lon="2.98246">
        <ele>775.1</ele>
        <time>2024-07-23T09:14:02Z</time>
      </trkpt>
      <trkpt lat="45.91189" lon="2.98246">
        <ele>774.8</ele>
        <time>2024-07-23T09:14:03Z</time>
      </trkpt>
      <trkpt lat="45.9119" lon="2.98247">
        <ele>774.7</ele>
        <time>2024-07-23T09:14:04Z</time>
      </trkpt>
      <trkpt lat="45.91191" lon="2.98247">
        <ele>774.6</ele>
        <time>2024-07-23T09:14:05Z</time>
      </trkpt>
      <trkpt lat="45.91192" lon="2.98247">
        <ele>774.7</ele>
        <time>2024-07-23T09:14:06Z</time>
      </trkpt>
      <trkpt lat="45.91193" lon="2.98248">
        <ele>774.8</ele>
        <time>2024-07-23T09:14:07Z</time>
      </trkpt>
      <trkpt lat="45.91194" lon="2.98248">
        <ele>774.5</ele>
        <time>2024-07-23T09:14:08Z</time>
      </trkpt>
      <trkpt lat="45.91195" lon="2.98249">
        <ele>775</ele>
        <time>2024-07-23T09:14:09Z</time>
      </trkpt>
      <trkpt lat="45.91196" lon="2.98249">
        <ele>774.5</ele>
        <time>2024-07-23T09:14:10Z</time>
      </trkpt>
      <trkpt lat="45.91197" lon="2.9825">
        <ele>774.6</ele>
        <time>2024-07-23T09:14:11Z</time>
      </trkpt>
      <trkpt lat="45.91198" lon="2.9825">
        <ele>774.7</ele>
        <time>2024-07-23T09:14:12Z</time>
      </trkpt>
      <trkpt lat="45.91199" lon="2.9825">
        <ele>775.1</ele>
        <time>2024-07-23T09:14:13Z</time>
      </trkpt>
      <trkpt lat="45.912" lon="2.9825">
        <ele>775.1</ele>
        <time>2024-07-23T09:14:14Z</time>
      </trkpt>
      <trkpt lat="45.91201" lon="2.98251">
        <ele>775.1</ele>
        <time>2024-07-23T09:14:15Z</time>
      </trkpt>
      <trkpt lat="45.91202" lon="2.98251">
        <ele>775.2</ele>
        <time>2024-07-23T09:14:16Z</time>
      </trkpt>
      <trkpt lat="45.91205" lon="2.98252">
        <ele>775.3</ele>
        <time>2024-07-23T09:14:18Z</time>
      </trkpt>
      <trkpt lat="45.91206" lon="2.98252">
        <ele>775.8</ele>
        <time>2024-07-23T09:14:19Z</time>
      </trkpt>
      <trkpt lat="45.91207" lon="2.98252">
        <ele>776</ele>
        <time>2024-07-23T09:14:20Z</time>
      </trkpt>
      <trkpt lat="45.91208" lon="2.98253">
        <ele>776.2</ele>
        <time>2024-07-23T09:14:21Z</time>
      </trkpt>
      <trkpt lat="45.91209" lon="2.98253">
        <ele>776.4</ele>
        <time>2024-07-23T09:14:22Z</time>
      </trkpt>
      <trkpt lat="45.9121" lon="2.98253">
        <ele>776.7</ele>
        <time>2024-07-23T09:14:23Z</time>
      </trkpt>
      <trkpt lat="45.91211" lon="2.98253">
        <ele>777</ele>
        <time>2024-07-23T09:14:24Z</time>
      </trkpt>
      <trkpt lat="45.91212" lon="2.98253">
        <ele>777.2</ele>
        <time>2024-07-23T09:14:25Z</time>
      </trkpt>
      <trkpt lat="45.91213" lon="2.98254">
        <ele>777</ele>
        <time>2024-07-23T09:14:26Z</time>
      </trkpt>
      <trkpt lat="45.91214" lon="2.98254">
        <ele>776.9</ele>
        <time>2024-07-23T09:14:27Z</time>
      </trkpt>
      <trkpt lat="45.91215" lon="2.98254">
        <ele>776.6</ele>
        <time>2024-07-23T09:14:28Z</time>
      </trkpt>
      <trkpt lat="45.91217" lon="2.98255">
        <ele>777</ele>
        <time>2024-07-23T09:14:29Z</time>
      </trkpt>
      <trkpt lat="45.91218" lon="2.98255">
        <ele>777</ele>
        <time>2024-07-23T09:14:30Z</time>
      </trkpt>
      <trkpt lat="45.91219" lon="2.98256">
        <ele>776.8</ele>
        <time>2024-07-23T09:14:31Z</time>
      </trkpt>
      <trkpt lat="45.9122" lon="2.98256">
        <ele>776.7</ele>
        <time>2024-07-23T09:14:32Z</time>
      </trkpt>
      <trkpt lat="45.91221" lon="2.98256">
        <ele>776.2</ele>
        <time>2024-07-23T09:14:33Z</time>
      </trkpt>
      <trkpt lat="45.91222" lon="2.98256">
        <ele>776.3</ele>
        <time>2024-07-23T09:14:34Z</time>
      </trkpt>
      <trkpt lat="45.91223" lon="2.98256">
        <ele>777.1</ele>
        <time>2024-07-23T09:14:35Z</time>
      </trkpt>
      <trkpt lat="45.91224" lon="2.98256">
        <ele>776</ele>
        <time>2024-07-23T09:14:36Z</time>
      </trkpt>
      <trkpt lat="45.91226" lon="2.98256">
        <ele>776.1</ele>
        <time>2024-07-23T09:14:37Z</time>
      </trkpt>
      <trkpt lat="45.91227" lon="2.98256">
        <ele>776.3</ele>
        <time>2024-07-23T09:14:38Z</time>
      </trkpt>
      <trkpt lat="45.91228" lon="2.98256">
        <ele>776.4</ele>
        <time>2024-07-23T09:14:39Z</time>
      </trkpt>
      <trkpt lat="45.91229" lon="2.98256">
        <ele>776</ele>
        <time>2024-07-23T09:14:40Z</time>
      </trkpt>
      <trkpt lat="45.9123" lon="2.98256">
        <ele>776.1</ele>
        <time>2024-07-23T09:14:41Z</time>
      </trkpt>
      <trkpt lat="45.91231" lon="2.98256">
        <ele>775.5</ele>
        <time>2024-07-23T09:14:42Z</time>
      </trkpt>
      <trkpt lat="45.91232" lon="2.98256">
        <ele>776.4</ele>
        <time>2024-07-23T09:14:43Z</time>
      </trkpt>
      <trkpt lat="45.91233" lon="2.98256">
        <ele>776.1</ele>
        <time>2024-07-23T09:14:44Z</time>
      </trkpt>
      <trkpt lat="45.91234" lon="2.98257">
        <ele>776</ele>
        <time>2024-07-23T09:14:45Z</time>
      </trkpt>
      <trkpt lat="45.91235" lon="2.98257">
        <ele>775.3</ele>
        <time>2024-07-23T09:14:46Z</time>
      </trkpt>
      <trkpt lat="45.91236" lon="2.98257">
        <ele>775.2</ele>
        <time>2024-07-23T09:14:47Z</time>
      </trkpt>
      <trkpt lat="45.91237" lon="2.98257">
        <ele>775.6</ele>
        <time>2024-07-23T09:14:48Z</time>
      </trkpt>
      <trkpt lat="45.91238" lon="2.98257">
        <ele>775.4</ele>
        <time>2024-07-23T09:14:49Z</time>
      </trkpt>
      <trkpt lat="45.9124" lon="2.98257">
        <ele>775.8</ele>
        <time>2024-07-23T09:14:50Z</time>
      </trkpt>
      <trkpt lat="45.91241" lon="2.98257">
        <ele>776.2</ele>
        <time>2024-07-23T09:14:51Z</time>
      </trkpt>
      <trkpt lat="45.91242" lon="2.98257">
        <ele>775.9</ele>
        <time>2024-07-23T09:14:52Z</time>
      </trkpt>
      <trkpt lat="45.91243" lon="2.98257">
        <ele>775.8</ele>
        <time>2024-07-23T09:14:53Z</time>
      </trkpt>
      <trkpt lat="45.91244" lon="2.98257">
        <ele>776.7</ele>
        <time>2024-07-23T09:14:54Z</time>
      </trkpt>
      <trkpt lat="45.91245" lon="2.98257">
        <ele>777.2</ele>
        <time>2024-07-23T09:14:55Z</time>
      </trkpt>
      <trkpt lat="45.91246" lon="2.98257">
        <ele>777.3</ele>
        <time>2024-07-23T09:14:56Z</time>
      </trkpt>
      <trkpt lat="45.91247" lon="2.98257">
        <ele>777.2</ele>
        <time>2024-07-23T09:14:57Z</time>
      </trkpt>
      <trkpt lat="45.91248" lon="2.98257">
        <ele>777.3</ele>
        <time>2024-07-23T09:14:58Z</time>
      </trkpt>
      <trkpt lat="45.91249" lon="2.98257">
        <ele>777.3</ele>
        <time>2024-07-23T09:14:59Z</time>
      </trkpt>
      <trkpt lat="45.9125" lon="2.98257">
        <ele>778</ele>
        <time>2024-07-23T09:15:00Z</time>
      </trkpt>
      <trkpt lat="45.91251" lon="2.98257">
        <ele>777.7</ele>
        <time>2024-07-23T09:15:01Z</time>
      </trkpt>
      <trkpt lat="45.91252" lon="2.98257">
        <ele>777.6</ele>
        <time>2024-07-23T09:15:02Z</time>
      </trkpt>
      <trkpt lat="45.91253" lon="2.98256">
        <ele>777.3</ele>
        <time>2024-07-23T09:15:03Z</time>
      </trkpt>
      <trkpt lat="45.91254" lon="2.98256">
        <ele>777.2</ele>
        <time>2024-07-23T09:15:04Z</time>
      </trkpt>
      <trkpt lat="45.91256" lon="2.98256">
        <ele>777.1</ele>
        <time>2024-07-23T09:15:05Z</time>
      </trkpt>
      <trkpt lat="45.91257" lon="2.98256">
        <ele>777.4</ele>
        <time>2024-07-23T09:15:06Z</time>
      </trkpt>
      <trkpt lat="45.91258" lon="2.98256">
        <ele>777.4</ele>
        <time>2024-07-23T09:15:07Z</time>
      </trkpt>
      <trkpt lat="45.91259" lon="2.98256">
        <ele>777.7</ele>
        <time>2024-07-23T09:15:08Z</time>
      </trkpt>
      <trkpt lat="45.9126" lon="2.98257">
        <ele>778.1</ele>
        <time>2024-07-23T09:15:09Z</time>
      </trkpt>
      <trkpt lat="45.91261" lon="2.98257">
        <ele>778.3</ele>
        <time>2024-07-23T09:15:10Z</time>
      </trkpt>
      <trkpt lat="45.91262" lon="2.98257">
        <ele>778.2</ele>
        <time>2024-07-23T09:15:11Z</time>
      </trkpt>
      <trkpt lat="45.91263" lon="2.98258">
        <ele>777.9</ele>
        <time>2024-07-23T09:15:12Z</time>
      </trkpt>
      <trkpt lat="45.91264" lon="2.98258">
        <ele>778.6</ele>
        <time>2024-07-23T09:15:13Z</time>
      </trkpt>
      <trkpt lat="45.91265" lon="2.98259">
        <ele>778.4</ele>
        <time>2024-07-23T09:15:14Z</time>
      </trkpt>
      <trkpt lat="45.91266" lon="2.9826">
        <ele>778.3</ele>
        <time>2024-07-23T09:15:15Z</time>
      </trkpt>
      <trkpt lat="45.91267" lon="2.9826">
        <ele>778</ele>
        <time>2024-07-23T09:15:16Z</time>
      </trkpt>
      <trkpt lat="45.91268" lon="2.9826">
        <ele>777.8</ele>
        <time>2024-07-23T09:15:17Z</time>
      </trkpt>
      <trkpt lat="45.91269" lon="2.98261">
        <ele>778</ele>
        <time>2024-07-23T09:15:18Z</time>
      </trkpt>
      <trkpt lat="45.9127" lon="2.98262">
        <ele>777.8</ele>
        <time>2024-07-23T09:15:19Z</time>
      </trkpt>
      <trkpt lat="45.91271" lon="2.98262">
        <ele>777.7</ele>
        <time>2024-07-23T09:15:20Z</time>
      </trkpt>
      <trkpt lat="45.91272" lon="2.98263">
        <ele>777.5</ele>
        <time>2024-07-23T09:15:21Z</time>
      </trkpt>
      <trkpt lat="45.91273" lon="2.98263">
        <ele>777.5</ele>
        <time>2024-07-23T09:15:22Z</time>
      </trkpt>
      <trkpt lat="45.91274" lon="2.98264">
        <ele>777.6</ele>
        <time>2024-07-23T09:15:23Z</time>
      </trkpt>
      <trkpt lat="45.91275" lon="2.98264">
        <ele>778.1</ele>
        <time>2024-07-23T09:15:24Z</time>
      </trkpt>
      <trkpt lat="45.91276" lon="2.98265">
        <ele>778.1</ele>
        <time>2024-07-23T09:15:25Z</time>
      </trkpt>
      <trkpt lat="45.91277" lon="2.98266">
        <ele>778.5</ele>
        <time>2024-07-23T09:15:26Z</time>
      </trkpt>
      <trkpt lat="45.91278" lon="2.98267">
        <ele>778.6</ele>
        <time>2024-07-23T09:15:27Z</time>
      </trkpt>
      <trkpt lat="45.91279" lon="2.98267">
        <ele>778.6</ele>
        <time>2024-07-23T09:15:28Z</time>
      </trkpt>
      <trkpt lat="45.9128" lon="2.98268">
        <ele>778.6</ele>
        <time>2024-07-23T09:15:29Z</time>
      </trkpt>
      <trkpt lat="45.91281" lon="2.98268">
        <ele>778.7</ele>
        <time>2024-07-23T09:15:30Z</time>
      </trkpt>
      <trkpt lat="45.91282" lon="2.98269">
        <ele>778.8</ele>
        <time>2024-07-23T09:15:31Z</time>
      </trkpt>
      <trkpt lat="45.91283" lon="2.9827">
        <ele>778.7</ele>
        <time>2024-07-23T09:15:32Z</time>
      </trkpt>
      <trkpt lat="45.91284" lon="2.9827">
        <ele>778.7</ele>
        <time>2024-07-23T09:15:33Z</time>
      </trkpt>
      <trkpt lat="45.91285" lon="2.98271">
        <ele>778.8</ele>
        <time>2024-07-23T09:15:34Z</time>
      </trkpt>
      <trkpt lat="45.91286" lon="2.98272">
        <ele>778.6</ele>
        <time>2024-07-23T09:15:35Z</time>
      </trkpt>
      <trkpt lat="45.91287" lon="2.98272">
        <ele>778.5</ele>
        <time>2024-07-23T09:15:36Z</time>
      </trkpt>
      <trkpt lat="45.91288" lon="2.98273">
        <ele>778.5</ele>
        <time>2024-07-23T09:15:37Z</time>
      </trkpt>
      <trkpt lat="45.91289" lon="2.98273">
        <ele>778.7</ele>
        <time>2024-07-23T09:15:38Z</time>
      </trkpt>
      <trkpt lat="45.9129" lon="2.98274">
        <ele>778.7</ele>
        <time>2024-07-23T09:15:39Z</time>
      </trkpt>
      <trkpt lat="45.91291" lon="2.98275">
        <ele>778.9</ele>
        <time>2024-07-23T09:15:40Z</time>
      </trkpt>
      <trkpt lat="45.91292" lon="2.98275">
        <ele>778.8</ele>
        <time>2024-07-23T09:15:41Z</time>
      </trkpt>
      <trkpt lat="45.91293" lon="2.98276">
        <ele>779</ele>
        <time>2024-07-23T09:15:42Z</time>
      </trkpt>
      <trkpt lat="45.91293" lon="2.98277">
        <ele>779</ele>
        <time>2024-07-23T09:15:43Z</time>
      </trkpt>
      <trkpt lat="45.91294" lon="2.98278">
        <ele>778.7</ele>
        <time>2024-07-23T09:15:44Z</time>
      </trkpt>
      <trkpt lat="45.91295" lon="2.98278">
        <ele>778.9</ele>
        <time>2024-07-23T09:15:45Z</time>
      </trkpt>
      <trkpt lat="45.91296" lon="2.98279">
        <ele>779</ele>
        <time>2024-07-23T09:15:46Z</time>
      </trkpt>
      <trkpt lat="45.91297" lon="2.98279">
        <ele>778.9</ele>
        <time>2024-07-23T09:15:47Z</time>
      </trkpt>
      <trkpt lat="45.91298" lon="2.9828">
        <ele>778.9</ele>
        <time>2024-07-23T09:15:48Z</time>
      </trkpt>
      <trkpt lat="45.91299" lon="2.98281">
        <ele>778.8</ele>
        <time>2024-07-23T09:15:49Z</time>
      </trkpt>
      <trkpt lat="45.913" lon="2.98282">
        <ele>779</ele>
        <time>2024-07-23T09:15:50Z</time>
      </trkpt>
      <trkpt lat="45.91301" lon="2.98282">
        <ele>779.1</ele>
        <time>2024-07-23T09:15:51Z</time>
      </trkpt>
      <trkpt lat="45.91302" lon="2.98283">
        <ele>779</ele>
        <time>2024-07-23T09:15:52Z</time>
      </trkpt>
      <trkpt lat="45.91303" lon="2.98284">
        <ele>779.1</ele>
        <time>2024-07-23T09:15:53Z</time>
      </trkpt>
      <trkpt lat="45.91303" lon="2.98285">
        <ele>779.5</ele>
        <time>2024-07-23T09:15:54Z</time>
      </trkpt>
      <trkpt lat="45.91304" lon="2.98285">
        <ele>779.2</ele>
        <time>2024-07-23T09:15:55Z</time>
      </trkpt>
      <trkpt lat="45.91305" lon="2.98286">
        <ele>779.4</ele>
        <time>2024-07-23T09:15:56Z</time>
      </trkpt>
      <trkpt lat="45.91306" lon="2.98286">
        <ele>779.5</ele>
        <time>2024-07-23T09:15:57Z</time>
      </trkpt>
      <trkpt lat="45.91307" lon="2.98287">
        <ele>779.8</ele>
        <time>2024-07-23T09:15:58Z</time>
      </trkpt>
      <trkpt lat="45.91308" lon="2.98288">
        <ele>779.7</ele>
        <time>2024-07-23T09:15:59Z</time>
      </trkpt>
      <trkpt lat="45.91309" lon="2.98288">
        <ele>779.9</ele>
        <time>2024-07-23T09:16:00Z</time>
      </trkpt>
      <trkpt lat="45.9131" lon="2.98289">
        <ele>780.1</ele>
        <time>2024-07-23T09:16:01Z</time>
      </trkpt>
      <trkpt lat="45.91311" lon="2.9829">
        <ele>780.1</ele>
        <time>2024-07-23T09:16:02Z</time>
      </trkpt>
      <trkpt lat="45.91312" lon="2.98291">
        <ele>780.1</ele>
        <time>2024-07-23T09:16:03Z</time>
      </trkpt>
      <trkpt lat="45.91312" lon="2.98291">
        <ele>780.5</ele>
        <time>2024-07-23T09:16:04Z</time>
      </trkpt>
      <trkpt lat="45.91313" lon="2.98292">
        <ele>780.5</ele>
        <time>2024-07-23T09:16:05Z</time>
      </trkpt>
      <trkpt lat="45.91314" lon="2.98293">
        <ele>780.6</ele>
        <time>2024-07-23T09:16:06Z</time>
      </trkpt>
      <trkpt lat="45.91315" lon="2.98294">
        <ele>780.3</ele>
        <time>2024-07-23T09:16:07Z</time>
      </trkpt>
      <trkpt lat="45.91316" lon="2.98295">
        <ele>780.5</ele>
        <time>2024-07-23T09:16:08Z</time>
      </trkpt>
      <trkpt lat="45.91317" lon="2.98296">
        <ele>779.3</ele>
        <time>2024-07-23T09:16:10Z</time>
      </trkpt>
      <trkpt lat="45.91318" lon="2.98297">
        <ele>779.1</ele>
        <time>2024-07-23T09:16:11Z</time>
      </trkpt>
      <trkpt lat="45.91319" lon="2.98297">
        <ele>779.6</ele>
        <time>2024-07-23T09:16:12Z</time>
      </trkpt>
      <trkpt lat="45.9132" lon="2.98298">
        <ele>779.1</ele>
        <time>2024-07-23T09:16:13Z</time>
      </trkpt>
      <trkpt lat="45.9132" lon="2.98299">
        <ele>779.1</ele>
        <time>2024-07-23T09:16:14Z</time>
      </trkpt>
      <trkpt lat="45.91321" lon="2.983">
        <ele>779.2</ele>
        <time>2024-07-23T09:16:15Z</time>
      </trkpt>
      <trkpt lat="45.91322" lon="2.983">
        <ele>779.2</ele>
        <time>2024-07-23T09:16:16Z</time>
      </trkpt>
      <trkpt lat="45.91323" lon="2.98301">
        <ele>779.2</ele>
        <time>2024-07-23T09:16:17Z</time>
      </trkpt>
      <trkpt lat="45.91323" lon="2.98302">
        <ele>779.2</ele>
        <time>2024-07-23T09:16:18Z</time>
      </trkpt>
      <trkpt lat="45.91324" lon="2.98303">
        <ele>780.4</ele>
        <time>2024-07-23T09:16:19Z</time>
      </trkpt>
      <trkpt lat="45.91326" lon="2.98305">
        <ele>781.1</ele>
        <time>2024-07-23T09:16:21Z</time>
      </trkpt>
      <trkpt lat="45.91326" lon="2.98306">
        <ele>780.7</ele>
        <time>2024-07-23T09:16:22Z</time>
      </trkpt>
      <trkpt lat="45.91327" lon="2.98308">
        <ele>780.5</ele>
        <time>2024-07-23T09:16:23Z</time>
      </trkpt>
      <trkpt lat="45.91328" lon="2.98309">
        <ele>780.1</ele>
        <time>2024-07-23T09:16:24Z</time>
      </trkpt>
      <trkpt lat="45.91329" lon="2.9831">
        <ele>780.1</ele>
        <time>2024-07-23T09:16:25Z</time>
      </trkpt>
      <trkpt lat="45.9133" lon="2.98311">
        <ele>780.5</ele>
        <time>2024-07-23T09:16:26Z</time>
      </trkpt>
      <trkpt lat="45.9133" lon="2.98312">
        <ele>780.6</ele>
        <time>2024-07-23T09:16:27Z</time>
      </trkpt>
      <trkpt lat="45.91331" lon="2.98313">
        <ele>780.6</ele>
        <time>2024-07-23T09:16:28Z</time>
      </trkpt>
      <trkpt lat="45.91332" lon="2.98314">
        <ele>780.9</ele>
        <time>2024-07-23T09:16:29Z</time>
      </trkpt>
      <trkpt lat="45.91333" lon="2.98315">
        <ele>780.8</ele>
        <time>2024-07-23T09:16:30Z</time>
      </trkpt>
      <trkpt lat="45.91334" lon="2.98316">
        <ele>780.9</ele>
        <time>2024-07-23T09:16:32Z</time>
      </trkpt>
      <trkpt lat="45.91335" lon="2.98317">
        <ele>780.5</ele>
        <time>2024-07-23T09:16:33Z</time>
      </trkpt>
      <trkpt lat="45.91337" lon="2.98319">
        <ele>780.8</ele>
        <time>2024-07-23T09:16:35Z</time>
      </trkpt>
      <trkpt lat="45.91337" lon="2.9832">
        <ele>780.5</ele>
        <time>2024-07-23T09:16:36Z</time>
      </trkpt>
      <trkpt lat="45.91338" lon="2.98321">
        <ele>780.5</ele>
        <time>2024-07-23T09:16:37Z</time>
      </trkpt>
      <trkpt lat="45.91339" lon="2.98322">
        <ele>780.4</ele>
        <time>2024-07-23T09:16:38Z</time>
      </trkpt>
      <trkpt lat="45.9134" lon="2.98323">
        <ele>780.5</ele>
        <time>2024-07-23T09:16:39Z</time>
      </trkpt>
      <trkpt lat="45.91341" lon="2.98324">
        <ele>780.6</ele>
        <time>2024-07-23T09:16:40Z</time>
      </trkpt>
      <trkpt lat="45.91342" lon="2.98325">
        <ele>780.4</ele>
        <time>2024-07-23T09:16:41Z</time>
      </trkpt>
      <trkpt lat="45.91343" lon="2.98325">
        <ele>780.1</ele>
        <time>2024-07-23T09:16:42Z</time>
      </trkpt>
      <trkpt lat="45.91344" lon="2.98326">
        <ele>780.2</ele>
        <time>2024-07-23T09:16:43Z</time>
      </trkpt>
      <trkpt lat="45.91345" lon="2.98327">
        <ele>780.2</ele>
        <time>2024-07-23T09:16:44Z</time>
      </trkpt>
      <trkpt lat="45.91346" lon="2.98328">
        <ele>780</ele>
        <time>2024-07-23T09:16:45Z</time>
      </trkpt>
      <trkpt lat="45.91346" lon="2.9833">
        <ele>780.1</ele>
        <time>2024-07-23T09:16:46Z</time>
      </trkpt>
      <trkpt lat="45.91347" lon="2.9833">
        <ele>780.2</ele>
        <time>2024-07-23T09:16:47Z</time>
      </trkpt>
      <trkpt lat="45.91348" lon="2.98331">
        <ele>780.4</ele>
        <time>2024-07-23T09:16:48Z</time>
      </trkpt>
      <trkpt lat="45.91349" lon="2.98332">
        <ele>780</ele>
        <time>2024-07-23T09:16:49Z</time>
      </trkpt>
      <trkpt lat="45.9135" lon="2.98333">
        <ele>779.5</ele>
        <time>2024-07-23T09:16:50Z</time>
      </trkpt>
      <trkpt lat="45.91351" lon="2.98334">
        <ele>779.5</ele>
        <time>2024-07-23T09:16:51Z</time>
      </trkpt>
      <trkpt lat="45.91352" lon="2.98335">
        <ele>779.4</ele>
        <time>2024-07-23T09:16:52Z</time>
      </trkpt>
      <trkpt lat="45.91353" lon="2.98336">
        <ele>779.3</ele>
        <time>2024-07-23T09:16:53Z</time>
      </trkpt>
      <trkpt lat="45.91354" lon="2.98337">
        <ele>779.2</ele>
        <time>2024-07-23T09:16:54Z</time>
      </trkpt>
      <trkpt lat="45.91355" lon="2.98338">
        <ele>779.3</ele>
        <time>2024-07-23T09:16:55Z</time>
      </trkpt>
      <trkpt lat="45.91355" lon="2.98339">
        <ele>779.3</ele>
        <time>2024-07-23T09:16:56Z</time>
      </trkpt>
      <trkpt lat="45.91356" lon="2.9834">
        <ele>779.4</ele>
        <time>2024-07-23T09:16:57Z</time>
      </trkpt>
      <trkpt lat="45.91357" lon="2.98341">
        <ele>777.9</ele>
        <time>2024-07-23T09:16:58Z</time>
      </trkpt>
      <trkpt lat="45.91358" lon="2.98342">
        <ele>778.2</ele>
        <time>2024-07-23T09:16:59Z</time>
      </trkpt>
      <trkpt lat="45.91359" lon="2.98343">
        <ele>778</ele>
        <time>2024-07-23T09:17:00Z</time>
      </trkpt>
      <trkpt lat="45.9136" lon="2.98344">
        <ele>778</ele>
        <time>2024-07-23T09:17:01Z</time>
      </trkpt>
      <trkpt lat="45.91361" lon="2.98345">
        <ele>778.2</ele>
        <time>2024-07-23T09:17:02Z</time>
      </trkpt>
      <trkpt lat="45.91362" lon="2.98346">
        <ele>778.4</ele>
        <time>2024-07-23T09:17:03Z</time>
      </trkpt>
      <trkpt lat="45.91363" lon="2.98347">
        <ele>778.7</ele>
        <time>2024-07-23T09:17:04Z</time>
      </trkpt>
      <trkpt lat="45.91364" lon="2.98348">
        <ele>778.6</ele>
        <time>2024-07-23T09:17:05Z</time>
      </trkpt>
      <trkpt lat="45.91365" lon="2.98349">
        <ele>778.5</ele>
        <time>2024-07-23T09:17:06Z</time>
      </trkpt>
      <trkpt lat="45.91366" lon="2.9835">
        <ele>778.6</ele>
        <time>2024-07-23T09:17:07Z</time>
      </trkpt>
      <trkpt lat="45.91367" lon="2.98351">
        <ele>778.5</ele>
        <time>2024-07-23T09:17:08Z</time>
      </trkpt>
      <trkpt lat="45.91368" lon="2.98352">
        <ele>778.4</ele>
        <time>2024-07-23T09:17:09Z</time>
      </trkpt>
      <trkpt lat="45.91369" lon="2.98353">
        <ele>778.1</ele>
        <time>2024-07-23T09:17:10Z</time>
      </trkpt>
      <trkpt lat="45.91369" lon="2.98355">
        <ele>778.1</ele>
        <time>2024-07-23T09:17:11Z</time>
      </trkpt>
      <trkpt lat="45.9137" lon="2.98356">
        <ele>778.2</ele>
        <time>2024-07-23T09:17:12Z</time>
      </trkpt>
      <trkpt lat="45.91371" lon="2.98357">
        <ele>777.9</ele>
        <time>2024-07-23T09:17:13Z</time>
      </trkpt>
      <trkpt lat="45.91372" lon="2.98358">
        <ele>777.6</ele>
        <time>2024-07-23T09:17:14Z</time>
      </trkpt>
      <trkpt lat="45.91373" lon="2.98359">
        <ele>777.6</ele>
        <time>2024-07-23T09:17:15Z</time>
      </trkpt>
      <trkpt lat="45.91373" lon="2.9836">
        <ele>777.6</ele>
        <time>2024-07-23T09:17:16Z</time>
      </trkpt>
      <trkpt lat="45.91374" lon="2.98361">
        <ele>777.7</ele>
        <time>2024-07-23T09:17:17Z</time>
      </trkpt>
      <trkpt lat="45.91375" lon="2.98362">
        <ele>777.6</ele>
        <time>2024-07-23T09:17:18Z</time>
      </trkpt>
      <trkpt lat="45.91376" lon="2.98363">
        <ele>777.6</ele>
        <time>2024-07-23T09:17:19Z</time>
      </trkpt>
      <trkpt lat="45.91376" lon="2.98364">
        <ele>777.8</ele>
        <time>2024-07-23T09:17:20Z</time>
      </trkpt>
      <trkpt lat="45.91377" lon="2.98365">
        <ele>777.8</ele>
        <time>2024-07-23T09:17:21Z</time>
      </trkpt>
      <trkpt lat="45.91378" lon="2.98366">
        <ele>777.8</ele>
        <time>2024-07-23T09:17:22Z</time>
      </trkpt>
      <trkpt lat="45.91379" lon="2.98367">
        <ele>777.7</ele>
        <time>2024-07-23T09:17:23Z</time>
      </trkpt>
      <trkpt lat="45.9138" lon="2.98367">
        <ele>777.5</ele>
        <time>2024-07-23T09:17:24Z</time>
      </trkpt>
      <trkpt lat="45.91381" lon="2.98368">
        <ele>777.7</ele>
        <time>2024-07-23T09:17:25Z</time>
      </trkpt>
      <trkpt lat="45.91382" lon="2.98369">
        <ele>777.8</ele>
        <time>2024-07-23T09:17:26Z</time>
      </trkpt>
      <trkpt lat="45.91382" lon="2.9837">
        <ele>777.9</ele>
        <time>2024-07-23T09:17:27Z</time>
      </trkpt>
      <trkpt lat="45.91383" lon="2.98371">
        <ele>778</ele>
        <time>2024-07-23T09:17:28Z</time>
      </trkpt>
      <trkpt lat="45.91384" lon="2.98371">
        <ele>778</ele>
        <time>2024-07-23T09:17:29Z</time>
      </trkpt>
      <trkpt lat="45.91385" lon="2.98372">
        <ele>777.9</ele>
        <time>2024-07-23T09:17:30Z</time>
      </trkpt>
      <trkpt lat="45.91386" lon="2.98373">
        <ele>777.6</ele>
        <time>2024-07-23T09:17:31Z</time>
      </trkpt>
      <trkpt lat="45.91387" lon="2.98374">
        <ele>777.6</ele>
        <time>2024-07-23T09:17:32Z</time>
      </trkpt>
      <trkpt lat="45.91388" lon="2.98374">
        <ele>777.5</ele>
        <time>2024-07-23T09:17:33Z</time>
      </trkpt>
      <trkpt lat="45.91389" lon="2.98375">
        <ele>777.6</ele>
        <time>2024-07-23T09:17:34Z</time>
      </trkpt>
      <trkpt lat="45.9139" lon="2.98376">
        <ele>777.5</ele>
        <time>2024-07-23T09:17:35Z</time>
      </trkpt>
      <trkpt lat="45.91391" lon="2.98376">
        <ele>777.4</ele>
        <time>2024-07-23T09:17:36Z</time>
      </trkpt>
      <trkpt lat="45.91392" lon="2.98377">
        <ele>777.4</ele>
        <time>2024-07-23T09:17:37Z</time>
      </trkpt>
      <trkpt lat="45.91392" lon="2.98378">
        <ele>777.1</ele>
        <time>2024-07-23T09:17:38Z</time>
      </trkpt>
      <trkpt lat="45.91393" lon="2.98379">
        <ele>776.9</ele>
        <time>2024-07-23T09:17:39Z</time>
      </trkpt>
      <trkpt lat="45.91394" lon="2.98379">
        <ele>776.9</ele>
        <time>2024-07-23T09:17:40Z</time>
      </trkpt>
      <trkpt lat="45.91395" lon="2.9838">
        <ele>776.7</ele>
        <time>2024-07-23T09:17:41Z</time>
      </trkpt>
      <trkpt lat="45.91396" lon="2.98381">
        <ele>776.7</ele>
        <time>2024-07-23T09:17:42Z</time>
      </trkpt>
      <trkpt lat="45.91398" lon="2.98382">
        <ele>776.7</ele>
        <time>2024-07-23T09:17:44Z</time>
      </trkpt>
      <trkpt lat="45.91399" lon="2.98383">
        <ele>776.9</ele>
        <time>2024-07-23T09:17:45Z</time>
      </trkpt>
      <trkpt lat="45.91401" lon="2.98384">
        <ele>776.7</ele>
        <time>2024-07-23T09:17:47Z</time>
      </trkpt>
      <trkpt lat="45.91402" lon="2.98384">
        <ele>776.8</ele>
        <time>2024-07-23T09:17:48Z</time>
      </trkpt>
      <trkpt lat="45.91403" lon="2.98385">
        <ele>776.5</ele>
        <time>2024-07-23T09:17:49Z</time>
      </trkpt>
      <trkpt lat="45.91404" lon="2.98385">
        <ele>775.8</ele>
        <time>2024-07-23T09:17:50Z</time>
      </trkpt>
      <trkpt lat="45.91405" lon="2.98386">
        <ele>775.6</ele>
        <time>2024-07-23T09:17:51Z</time>
      </trkpt>
      <trkpt lat="45.91408" lon="2.98387">
        <ele>775.7</ele>
        <time>2024-07-23T09:17:53Z</time>
      </trkpt>
      <trkpt lat="45.91409" lon="2.98387">
        <ele>776.3</ele>
        <time>2024-07-23T09:17:54Z</time>
      </trkpt>
      <trkpt lat="45.9141" lon="2.98387">
        <ele>775.6</ele>
        <time>2024-07-23T09:17:55Z</time>
      </trkpt>
      <trkpt lat="45.91411" lon="2.98388">
        <ele>775.7</ele>
        <time>2024-07-23T09:17:56Z</time>
      </trkpt>
      <trkpt lat="45.91412" lon="2.98388">
        <ele>774.6</ele>
        <time>2024-07-23T09:17:57Z</time>
      </trkpt>
      <trkpt lat="45.91414" lon="2.98388">
        <ele>774.7</ele>
        <time>2024-07-23T09:17:58Z</time>
      </trkpt>
      <trkpt lat="45.91415" lon="2.98389">
        <ele>774.6</ele>
        <time>2024-07-23T09:17:59Z</time>
      </trkpt>
      <trkpt lat="45.91416" lon="2.98389">
        <ele>774.5</ele>
        <time>2024-07-23T09:18:00Z</time>
      </trkpt>
      <trkpt lat="45.91417" lon="2.98389">
        <ele>774.5</ele>
        <time>2024-07-23T09:18:01Z</time>
      </trkpt>
      <trkpt lat="45.91418" lon="2.9839">
        <ele>774.4</ele>
        <time>2024-07-23T09:18:02Z</time>
      </trkpt>
      <trkpt lat="45.91419" lon="2.9839">
        <ele>774.6</ele>
        <time>2024-07-23T09:18:03Z</time>
      </trkpt>
      <trkpt lat="45.9142" lon="2.9839">
        <ele>774.9</ele>
        <time>2024-07-23T09:18:04Z</time>
      </trkpt>
      <trkpt lat="45.91421" lon="2.98391">
        <ele>774.4</ele>
        <time>2024-07-23T09:18:05Z</time>
      </trkpt>
      <trkpt lat="45.91422" lon="2.98391">
        <ele>774.8</ele>
        <time>2024-07-23T09:18:06Z</time>
      </trkpt>
      <trkpt lat="45.91423" lon="2.98391">
        <ele>774.4</ele>
        <time>2024-07-23T09:18:07Z</time>
      </trkpt>
      <trkpt lat="45.91424" lon="2.98392">
        <ele>773.2</ele>
        <time>2024-07-23T09:18:08Z</time>
      </trkpt>
      <trkpt lat="45.91425" lon="2.98392">
        <ele>773</ele>
        <time>2024-07-23T09:18:09Z</time>
      </trkpt>
      <trkpt lat="45.91426" lon="2.98393">
        <ele>772.8</ele>
        <time>2024-07-23T09:18:10Z</time>
      </trkpt>
      <trkpt lat="45.91428" lon="2.98393">
        <ele>773.5</ele>
        <time>2024-07-23T09:18:11Z</time>
      </trkpt>
      <trkpt lat="45.91429" lon="2.98393">
        <ele>773.9</ele>
        <time>2024-07-23T09:18:12Z</time>
      </trkpt>
      <trkpt lat="45.9143" lon="2.98394">
        <ele>774.1</ele>
        <time>2024-07-23T09:18:13Z</time>
      </trkpt>
      <trkpt lat="45.91431" lon="2.98394">
        <ele>774.4</ele>
        <time>2024-07-23T09:18:14Z</time>
      </trkpt>
      <trkpt lat="45.91432" lon="2.98395">
        <ele>774.7</ele>
        <time>2024-07-23T09:18:15Z</time>
      </trkpt>
      <trkpt lat="45.91433" lon="2.98395">
        <ele>774.4</ele>
        <time>2024-07-23T09:18:16Z</time>
      </trkpt>
      <trkpt lat="45.91434" lon="2.98396">
        <ele>774.3</ele>
        <time>2024-07-23T09:18:17Z</time>
      </trkpt>
      <trkpt lat="45.91435" lon="2.98396">
        <ele>774</ele>
        <time>2024-07-23T09:18:18Z</time>
      </trkpt>
      <trkpt lat="45.91437" lon="2.98397">
        <ele>774.3</ele>
        <time>2024-07-23T09:18:20Z</time>
      </trkpt>
      <trkpt lat="45.91438" lon="2.98398">
        <ele>774.5</ele>
        <time>2024-07-23T09:18:21Z</time>
      </trkpt>
      <trkpt lat="45.91439" lon="2.98398">
        <ele>774.9</ele>
        <time>2024-07-23T09:18:22Z</time>
      </trkpt>
      <trkpt lat="45.9144" lon="2.98398">
        <ele>774.4</ele>
        <time>2024-07-23T09:18:23Z</time>
      </trkpt>
      <trkpt lat="45.91441" lon="2.98399">
        <ele>774.1</ele>
        <time>2024-07-23T09:18:24Z</time>
      </trkpt>
      <trkpt lat="45.91442" lon="2.98399">
        <ele>774.1</ele>
        <time>2024-07-23T09:18:25Z</time>
      </trkpt>
      <trkpt lat="45.91442" lon="2.984">
        <ele>773.5</ele>
        <time>2024-07-23T09:18:26Z</time>
      </trkpt>
      <trkpt lat="45.91444" lon="2.984">
        <ele>773.9</ele>
        <time>2024-07-23T09:18:27Z</time>
      </trkpt>
      <trkpt lat="45.91444" lon="2.98401">
        <ele>773.8</ele>
        <time>2024-07-23T09:18:28Z</time>
      </trkpt>
      <trkpt lat="45.91445" lon="2.98401">
        <ele>774.2</ele>
        <time>2024-07-23T09:18:29Z</time>
      </trkpt>
      <trkpt lat="45.91446" lon="2.98402">
        <ele>774.2</ele>
        <time>2024-07-23T09:18:30Z</time>
      </trkpt>
      <trkpt lat="45.91447" lon="2.98402">
        <ele>774.4</ele>
        <time>2024-07-23T09:18:31Z</time>
      </trkpt>
      <trkpt lat="45.91448" lon="2.98402">
        <ele>774.5</ele>
        <time>2024-07-23T09:18:32Z</time>
      </trkpt>
      <trkpt lat="45.91449" lon="2.98403">
        <ele>774.8</ele>
        <time>2024-07-23T09:18:33Z</time>
      </trkpt>
      <trkpt lat="45.9145" lon="2.98403">
        <ele>774.6</ele>
        <time>2024-07-23T09:18:34Z</time>
      </trkpt>
      <trkpt lat="45.91451" lon="2.98404">
        <ele>774.7</ele>
        <time>2024-07-23T09:18:35Z</time>
      </trkpt>
      <trkpt lat="45.91452" lon="2.98405">
        <ele>775</ele>
        <time>2024-07-23T09:18:36Z</time>
      </trkpt>
      <trkpt lat="45.91453" lon="2.98405">
        <ele>774.9</ele>
        <time>2024-07-23T09:18:37Z</time>
      </trkpt>
      <trkpt lat="45.91454" lon="2.98406">
        <ele>774.7</ele>
        <time>2024-07-23T09:18:38Z</time>
      </trkpt>
      <trkpt lat="45.91455" lon="2.98406">
        <ele>774.8</ele>
        <time>2024-07-23T09:18:39Z</time>
      </trkpt>
      <trkpt lat="45.91456" lon="2.98406">
        <ele>773.5</ele>
        <time>2024-07-23T09:18:40Z</time>
      </trkpt>
      <trkpt lat="45.91457" lon="2.98407">
        <ele>774.3</ele>
        <time>2024-07-23T09:18:41Z</time>
      </trkpt>
      <trkpt lat="45.91458" lon="2.98407">
        <ele>773.7</ele>
        <time>2024-07-23T09:18:42Z</time>
      </trkpt>
      <trkpt lat="45.91459" lon="2.98408">
        <ele>773.3</ele>
        <time>2024-07-23T09:18:43Z</time>
      </trkpt>
      <trkpt lat="45.9146" lon="2.98408">
        <ele>772.4</ele>
        <time>2024-07-23T09:18:44Z</time>
      </trkpt>
      <trkpt lat="45.9146" lon="2.98409">
        <ele>772.3</ele>
        <time>2024-07-23T09:18:45Z</time>
      </trkpt>
      <trkpt lat="45.91462" lon="2.98411">
        <ele>771.9</ele>
        <time>2024-07-23T09:18:47Z</time>
      </trkpt>
      <trkpt lat="45.91463" lon="2.98411">
        <ele>771.7</ele>
        <time>2024-07-23T09:18:48Z</time>
      </trkpt>
      <trkpt lat="45.91463" lon="2.98412">
        <ele>772.3</ele>
        <time>2024-07-23T09:18:49Z</time>
      </trkpt>
      <trkpt lat="45.91464" lon="2.98413">
        <ele>771.9</ele>
        <time>2024-07-23T09:18:50Z</time>
      </trkpt>
      <trkpt lat="45.91465" lon="2.98414">
        <ele>771.7</ele>
        <time>2024-07-23T09:18:51Z</time>
      </trkpt>
      <trkpt lat="45.91467" lon="2.98416">
        <ele>773.1</ele>
        <time>2024-07-23T09:18:53Z</time>
      </trkpt>
      <trkpt lat="45.91467" lon="2.98417">
        <ele>773.6</ele>
        <time>2024-07-23T09:18:54Z</time>
      </trkpt>
      <trkpt lat="45.91468" lon="2.98418">
        <ele>772.8</ele>
        <time>2024-07-23T09:18:55Z</time>
      </trkpt>
      <trkpt lat="45.91469" lon="2.9842">
        <ele>774</ele>
        <time>2024-07-23T09:18:56Z</time>
      </trkpt>
      <trkpt lat="45.9147" lon="2.98421">
        <ele>773.6</ele>
        <time>2024-07-23T09:18:57Z</time>
      </trkpt>
      <trkpt lat="45.91471" lon="2.98423">
        <ele>773.5</ele>
        <time>2024-07-23T09:18:58Z</time>
      </trkpt>
      <trkpt lat="45.91471" lon="2.98424">
        <ele>774.1</ele>
        <time>2024-07-23T09:18:59Z</time>
      </trkpt>
      <trkpt lat="45.91472" lon="2.98426">
        <ele>774.5</ele>
        <time>2024-07-23T09:19:00Z</time>
      </trkpt>
      <trkpt lat="45.91472" lon="2.98428">
        <ele>772.7</ele>
        <time>2024-07-23T09:19:01Z</time>
      </trkpt>
      <trkpt lat="45.91473" lon="2.98429">
        <ele>772.5</ele>
        <time>2024-07-23T09:19:02Z</time>
      </trkpt>
      <trkpt lat="45.91473" lon="2.9843">
        <ele>772.5</ele>
        <time>2024-07-23T09:19:03Z</time>
      </trkpt>
      <trkpt lat="45.91474" lon="2.98432">
        <ele>772.1</ele>
        <time>2024-07-23T09:19:05Z</time>
      </trkpt>
      <trkpt lat="45.91475" lon="2.98435">
        <ele>770.7</ele>
        <time>2024-07-23T09:19:07Z</time>
      </trkpt>
      <trkpt lat="45.91476" lon="2.98437">
        <ele>770.3</ele>
        <time>2024-07-23T09:19:09Z</time>
      </trkpt>
      <trkpt lat="45.91476" lon="2.98439">
        <ele>769.9</ele>
        <time>2024-07-23T09:19:11Z</time>
      </trkpt>
      <trkpt lat="45.91477" lon="2.98442">
        <ele>769.5</ele>
        <time>2024-07-23T09:19:13Z</time>
      </trkpt>
      <trkpt lat="45.91478" lon="2.98444">
        <ele>769.3</ele>
        <time>2024-07-23T09:19:15Z</time>
      </trkpt>
      <trkpt lat="45.91478" lon="2.98445">
        <ele>769.2</ele>
        <time>2024-07-23T09:19:16Z</time>
      </trkpt>
      <trkpt lat="45.91479" lon="2.98446">
        <ele>769.2</ele>
        <time>2024-07-23T09:19:17Z</time>
      </trkpt>
      <trkpt lat="45.91479" lon="2.98448">
        <ele>768.6</ele>
        <time>2024-07-23T09:19:18Z</time>
      </trkpt>
      <trkpt lat="45.91479" lon="2.98449">
        <ele>768.7</ele>
        <time>2024-07-23T09:19:19Z</time>
      </trkpt>
      <trkpt lat="45.9148" lon="2.9845">
        <ele>768.5</ele>
        <time>2024-07-23T09:19:20Z</time>
      </trkpt>
      <trkpt lat="45.91481" lon="2.98451">
        <ele>768.4</ele>
        <time>2024-07-23T09:19:21Z</time>
      </trkpt>
      <trkpt lat="45.91482" lon="2.98452">
        <ele>768.2</ele>
        <time>2024-07-23T09:19:22Z</time>
      </trkpt>
      <trkpt lat="45.91482" lon="2.98453">
        <ele>768.1</ele>
        <time>2024-07-23T09:19:23Z</time>
      </trkpt>
      <trkpt lat="45.91483" lon="2.98454">
        <ele>767.9</ele>
        <time>2024-07-23T09:19:24Z</time>
      </trkpt>
      <trkpt lat="45.91483" lon="2.98455">
        <ele>767.6</ele>
        <time>2024-07-23T09:19:25Z</time>
      </trkpt>
      <trkpt lat="45.91484" lon="2.98457">
        <ele>767.2</ele>
        <time>2024-07-23T09:19:26Z</time>
      </trkpt>
      <trkpt lat="45.91485" lon="2.98458">
        <ele>767.7</ele>
        <time>2024-07-23T09:19:27Z</time>
      </trkpt>
      <trkpt lat="45.91485" lon="2.98459">
        <ele>767.6</ele>
        <time>2024-07-23T09:19:28Z</time>
      </trkpt>
      <trkpt lat="45.91485" lon="2.98461">
        <ele>767.2</ele>
        <time>2024-07-23T09:19:29Z</time>
      </trkpt>
      <trkpt lat="45.91486" lon="2.98462">
        <ele>767.2</ele>
        <time>2024-07-23T09:19:30Z</time>
      </trkpt>
      <trkpt lat="45.91486" lon="2.98464">
        <ele>767.6</ele>
        <time>2024-07-23T09:19:31Z</time>
      </trkpt>
      <trkpt lat="45.91487" lon="2.98465">
        <ele>767.2</ele>
        <time>2024-07-23T09:19:32Z</time>
      </trkpt>
      <trkpt lat="45.91488" lon="2.98467">
        <ele>766.6</ele>
        <time>2024-07-23T09:19:33Z</time>
      </trkpt>
      <trkpt lat="45.91488" lon="2.98468">
        <ele>766.3</ele>
        <time>2024-07-23T09:19:34Z</time>
      </trkpt>
      <trkpt lat="45.91489" lon="2.98469">
        <ele>767.3</ele>
        <time>2024-07-23T09:19:35Z</time>
      </trkpt>
      <trkpt lat="45.9149" lon="2.98471">
        <ele>766.8</ele>
        <time>2024-07-23T09:19:36Z</time>
      </trkpt>
      <trkpt lat="45.9149" lon="2.98472">
        <ele>766.5</ele>
        <time>2024-07-23T09:19:37Z</time>
      </trkpt>
      <trkpt lat="45.91491" lon="2.98473">
        <ele>766.1</ele>
        <time>2024-07-23T09:19:38Z</time>
      </trkpt>
      <trkpt lat="45.91492" lon="2.98474">
        <ele>765.8</ele>
        <time>2024-07-23T09:19:39Z</time>
      </trkpt>
      <trkpt lat="45.91493" lon="2.98475">
        <ele>766.2</ele>
        <time>2024-07-23T09:19:40Z</time>
      </trkpt>
      <trkpt lat="45.91493" lon="2.98476">
        <ele>766.1</ele>
        <time>2024-07-23T09:19:41Z</time>
      </trkpt>
      <trkpt lat="45.91494" lon="2.98477">
        <ele>766.3</ele>
        <time>2024-07-23T09:19:42Z</time>
      </trkpt>
      <trkpt lat="45.91494" lon="2.98479">
        <ele>765.7</ele>
        <time>2024-07-23T09:19:43Z</time>
      </trkpt>
      <trkpt lat="45.91495" lon="2.9848">
        <ele>765.9</ele>
        <time>2024-07-23T09:19:44Z</time>
      </trkpt>
      <trkpt lat="45.91496" lon="2.98481">
        <ele>766.2</ele>
        <time>2024-07-23T09:19:45Z</time>
      </trkpt>
      <trkpt lat="45.91496" lon="2.98482">
        <ele>766.5</ele>
        <time>2024-07-23T09:19:46Z</time>
      </trkpt>
      <trkpt lat="45.91498" lon="2.98483">
        <ele>765.3</ele>
        <time>2024-07-23T09:19:48Z</time>
      </trkpt>
      <trkpt lat="45.91499" lon="2.98484">
        <ele>766.5</ele>
        <time>2024-07-23T09:19:50Z</time>
      </trkpt>
      <trkpt lat="45.915" lon="2.98485">
        <ele>765.8</ele>
        <time>2024-07-23T09:19:52Z</time>
      </trkpt>
      <trkpt lat="45.91501" lon="2.98487">
        <ele>765.2</ele>
        <time>2024-07-23T09:19:54Z</time>
      </trkpt>
      <trkpt lat="45.91502" lon="2.98489">
        <ele>765.2</ele>
        <time>2024-07-23T09:19:56Z</time>
      </trkpt>
      <trkpt lat="45.91502" lon="2.9849">
        <ele>764.3</ele>
        <time>2024-07-23T09:19:57Z</time>
      </trkpt>
      <trkpt lat="45.91503" lon="2.98491">
        <ele>765</ele>
        <time>2024-07-23T09:19:58Z</time>
      </trkpt>
      <trkpt lat="45.91504" lon="2.98492">
        <ele>764.6</ele>
        <time>2024-07-23T09:19:59Z</time>
      </trkpt>
      <trkpt lat="45.91505" lon="2.98493">
        <ele>765.2</ele>
        <time>2024-07-23T09:20:00Z</time>
      </trkpt>
      <trkpt lat="45.91505" lon="2.98494">
        <ele>765</ele>
        <time>2024-07-23T09:20:01Z</time>
      </trkpt>
      <trkpt lat="45.91506" lon="2.98496">
        <ele>764.9</ele>
        <time>2024-07-23T09:20:02Z</time>
      </trkpt>
      <trkpt lat="45.91507" lon="2.98497">
        <ele>764.8</ele>
        <time>2024-07-23T09:20:03Z</time>
      </trkpt>
      <trkpt lat="45.91507" lon="2.98498">
        <ele>764.9</ele>
        <time>2024-07-23T09:20:04Z</time>
      </trkpt>
      <trkpt lat="45.91508" lon="2.98499">
        <ele>765</ele>
        <time>2024-07-23T09:20:05Z</time>
      </trkpt>
      <trkpt lat="45.91509" lon="2.98499">
        <ele>765</ele>
        <time>2024-07-23T09:20:06Z</time>
      </trkpt>
      <trkpt lat="45.9151" lon="2.985">
        <ele>765.1</ele>
        <time>2024-07-23T09:20:07Z</time>
      </trkpt>
      <trkpt lat="45.91511" lon="2.98501">
        <ele>764.9</ele>
        <time>2024-07-23T09:20:08Z</time>
      </trkpt>
      <trkpt lat="45.91512" lon="2.98502">
        <ele>764.7</ele>
        <time>2024-07-23T09:20:09Z</time>
      </trkpt>
      <trkpt lat="45.91512" lon="2.98503">
        <ele>764.8</ele>
        <time>2024-07-23T09:20:10Z</time>
      </trkpt>
      <trkpt lat="45.91513" lon="2.98505">
        <ele>764.7</ele>
        <time>2024-07-23T09:20:11Z</time>
      </trkpt>
      <trkpt lat="45.91514" lon="2.98506">
        <ele>764.7</ele>
        <time>2024-07-23T09:20:12Z</time>
      </trkpt>
      <trkpt lat="45.91514" lon="2.98507">
        <ele>764.6</ele>
        <time>2024-07-23T09:20:13Z</time>
      </trkpt>
      <trkpt lat="45.91516" lon="2.98509">
        <ele>764.8</ele>
        <time>2024-07-23T09:20:15Z</time>
      </trkpt>
      <trkpt lat="45.91516" lon="2.9851">
        <ele>765.6</ele>
        <time>2024-07-23T09:20:16Z</time>
      </trkpt>
      <trkpt lat="45.91517" lon="2.98511">
        <ele>766.3</ele>
        <time>2024-07-23T09:20:17Z</time>
      </trkpt>
      <trkpt lat="45.91518" lon="2.98512">
        <ele>766.1</ele>
        <time>2024-07-23T09:20:18Z</time>
      </trkpt>
      <trkpt lat="45.91519" lon="2.98514">
        <ele>766.4</ele>
        <time>2024-07-23T09:20:19Z</time>
      </trkpt>
      <trkpt lat="45.9152" lon="2.98516">
        <ele>767.7</ele>
        <time>2024-07-23T09:20:21Z</time>
      </trkpt>
      <trkpt lat="45.91521" lon="2.98517">
        <ele>766.4</ele>
        <time>2024-07-23T09:20:22Z</time>
      </trkpt>
      <trkpt lat="45.91522" lon="2.98518">
        <ele>767.7</ele>
        <time>2024-07-23T09:20:23Z</time>
      </trkpt>
      <trkpt lat="45.91523" lon="2.98519">
        <ele>767.4</ele>
        <time>2024-07-23T09:20:24Z</time>
      </trkpt>
      <trkpt lat="45.91523" lon="2.98521">
        <ele>766.5</ele>
        <time>2024-07-23T09:20:25Z</time>
      </trkpt>
      <trkpt lat="45.91524" lon="2.98523">
        <ele>766</ele>
        <time>2024-07-23T09:20:26Z</time>
      </trkpt>
      <trkpt lat="45.91524" lon="2.98524">
        <ele>765.5</ele>
        <time>2024-07-23T09:20:27Z</time>
      </trkpt>
      <trkpt lat="45.91525" lon="2.98526">
        <ele>764.9</ele>
        <time>2024-07-23T09:20:28Z</time>
      </trkpt>
      <trkpt lat="45.91526" lon="2.98527">
        <ele>764.8</ele>
        <time>2024-07-23T09:20:29Z</time>
      </trkpt>
      <trkpt lat="45.91527" lon="2.98528">
        <ele>765.3</ele>
        <time>2024-07-23T09:20:30Z</time>
      </trkpt>
      <trkpt lat="45.91528" lon="2.98529">
        <ele>766.3</ele>
        <time>2024-07-23T09:20:32Z</time>
      </trkpt>
      <trkpt lat="45.91529" lon="2.9853">
        <ele>766.3</ele>
        <time>2024-07-23T09:20:34Z</time>
      </trkpt>
      <trkpt lat="45.91531" lon="2.98531">
        <ele>767.7</ele>
        <time>2024-07-23T09:20:36Z</time>
      </trkpt>
      <trkpt lat="45.91532" lon="2.98534">
        <ele>767.7</ele>
        <time>2024-07-23T09:20:38Z</time>
      </trkpt>
      <trkpt lat="45.91532" lon="2.98536">
        <ele>766.4</ele>
        <time>2024-07-23T09:20:40Z</time>
      </trkpt>
      <trkpt lat="45.91533" lon="2.98538">
        <ele>766.9</ele>
        <time>2024-07-23T09:20:42Z</time>
      </trkpt>
      <trkpt lat="45.91534" lon="2.98539">
        <ele>766</ele>
        <time>2024-07-23T09:20:43Z</time>
      </trkpt>
      <trkpt lat="45.91535" lon="2.98539">
        <ele>764.8</ele>
        <time>2024-07-23T09:20:44Z</time>
      </trkpt>
      <trkpt lat="45.91536" lon="2.9854">
        <ele>763.6</ele>
        <time>2024-07-23T09:20:45Z</time>
      </trkpt>
      <trkpt lat="45.91537" lon="2.98541">
        <ele>762.6</ele>
        <time>2024-07-23T09:20:46Z</time>
      </trkpt>
      <trkpt lat="45.91537" lon="2.98542">
        <ele>761.2</ele>
        <time>2024-07-23T09:20:47Z</time>
      </trkpt>
      <trkpt lat="45.91537" lon="2.98544">
        <ele>761.7</ele>
        <time>2024-07-23T09:20:48Z</time>
      </trkpt>
      <trkpt lat="45.91537" lon="2.98546">
        <ele>762.3</ele>
        <time>2024-07-23T09:20:49Z</time>
      </trkpt>
      <trkpt lat="45.91537" lon="2.98547">
        <ele>760.7</ele>
        <time>2024-07-23T09:20:50Z</time>
      </trkpt>
      <trkpt lat="45.91537" lon="2.98549">
        <ele>760.9</ele>
        <time>2024-07-23T09:20:51Z</time>
      </trkpt>
      <trkpt lat="45.91537" lon="2.98552">
        <ele>759.4</ele>
        <time>2024-07-23T09:20:53Z</time>
      </trkpt>
      <trkpt lat="45.91537" lon="2.98554">
        <ele>759.3</ele>
        <time>2024-07-23T09:20:54Z</time>
      </trkpt>
      <trkpt lat="45.91537" lon="2.98555">
        <ele>758.7</ele>
        <time>2024-07-23T09:20:55Z</time>
      </trkpt>
      <trkpt lat="45.91537" lon="2.98557">
        <ele>758.7</ele>
        <time>2024-07-23T09:20:56Z</time>
      </trkpt>
      <trkpt lat="45.91537" lon="2.98558">
        <ele>758.5</ele>
        <time>2024-07-23T09:20:57Z</time>
      </trkpt>
      <trkpt lat="45.91537" lon="2.9856">
        <ele>759.1</ele>
        <time>2024-07-23T09:20:58Z</time>
      </trkpt>
      <trkpt lat="45.91537" lon="2.98562">
        <ele>759.3</ele>
        <time>2024-07-23T09:20:59Z</time>
      </trkpt>
      <trkpt lat="45.91537" lon="2.98563">
        <ele>759.4</ele>
        <time>2024-07-23T09:21:00Z</time>
      </trkpt>
      <trkpt lat="45.91537" lon="2.98566">
        <ele>758.1</ele>
        <time>2024-07-23T09:21:01Z</time>
      </trkpt>
      <trkpt lat="45.91537" lon="2.98568">
        <ele>758.7</ele>
        <time>2024-07-23T09:21:02Z</time>
      </trkpt>
      <trkpt lat="45.91538" lon="2.9857">
        <ele>759.8</ele>
        <time>2024-07-23T09:21:03Z</time>
      </trkpt>
      <trkpt lat="45.91539" lon="2.98572">
        <ele>759.1</ele>
        <time>2024-07-23T09:21:04Z</time>
      </trkpt>
      <trkpt lat="45.91539" lon="2.98574">
        <ele>759.2</ele>
        <time>2024-07-23T09:21:05Z</time>
      </trkpt>
      <trkpt lat="45.91539" lon="2.98575">
        <ele>759</ele>
        <time>2024-07-23T09:21:06Z</time>
      </trkpt>
      <trkpt lat="45.9154" lon="2.98578">
        <ele>757.3</ele>
        <time>2024-07-23T09:21:07Z</time>
      </trkpt>
      <trkpt lat="45.9154" lon="2.98579">
        <ele>758</ele>
        <time>2024-07-23T09:21:08Z</time>
      </trkpt>
      <trkpt lat="45.9154" lon="2.98581">
        <ele>758.7</ele>
        <time>2024-07-23T09:21:10Z</time>
      </trkpt>
      <trkpt lat="45.9154" lon="2.98583">
        <ele>758.2</ele>
        <time>2024-07-23T09:21:11Z</time>
      </trkpt>
      <trkpt lat="45.91538" lon="2.98583">
        <ele>756.7</ele>
        <time>2024-07-23T09:21:12Z</time>
      </trkpt>
      <trkpt lat="45.91537" lon="2.98584">
        <ele>757.5</ele>
        <time>2024-07-23T09:21:13Z</time>
      </trkpt>
      <trkpt lat="45.91537" lon="2.98585">
        <ele>756.2</ele>
        <time>2024-07-23T09:21:15Z</time>
      </trkpt>
      <trkpt lat="45.91537" lon="2.98587">
        <ele>756.4</ele>
        <time>2024-07-23T09:21:17Z</time>
      </trkpt>
      <trkpt lat="45.91537" lon="2.98589">
        <ele>756.1</ele>
        <time>2024-07-23T09:21:18Z</time>
      </trkpt>
      <trkpt lat="45.91537" lon="2.98591">
        <ele>757.2</ele>
        <time>2024-07-23T09:21:19Z</time>
      </trkpt>
      <trkpt lat="45.91538" lon="2.98594">
        <ele>761.6</ele>
        <time>2024-07-23T09:21:21Z</time>
      </trkpt>
      <trkpt lat="45.9154" lon="2.98596">
        <ele>761.7</ele>
        <time>2024-07-23T09:21:23Z</time>
      </trkpt>
      <trkpt lat="45.91541" lon="2.98597">
        <ele>759.1</ele>
        <time>2024-07-23T09:21:24Z</time>
      </trkpt>
      <trkpt lat="45.91542" lon="2.98598">
        <ele>758.7</ele>
        <time>2024-07-23T09:21:25Z</time>
      </trkpt>
      <trkpt lat="45.91543" lon="2.98599">
        <ele>759</ele>
        <time>2024-07-23T09:21:26Z</time>
      </trkpt>
      <trkpt lat="45.91544" lon="2.986">
        <ele>759.1</ele>
        <time>2024-07-23T09:21:27Z</time>
      </trkpt>
      <trkpt lat="45.91545" lon="2.98601">
        <ele>755.7</ele>
        <time>2024-07-23T09:21:28Z</time>
      </trkpt>
      <trkpt lat="45.91545" lon="2.98603">
        <ele>756.4</ele>
        <time>2024-07-23T09:21:29Z</time>
      </trkpt>
      <trkpt lat="45.91546" lon="2.98604">
        <ele>754</ele>
        <time>2024-07-23T09:21:30Z</time>
      </trkpt>
      <trkpt lat="45.91546" lon="2.98606">
        <ele>753.6</ele>
        <time>2024-07-23T09:21:31Z</time>
      </trkpt>
      <trkpt lat="45.91545" lon="2.98608">
        <ele>754.4</ele>
        <time>2024-07-23T09:21:33Z</time>
      </trkpt>
      <trkpt lat="45.91544" lon="2.98609">
        <ele>755.2</ele>
        <time>2024-07-23T09:21:34Z</time>
      </trkpt>
      <trkpt lat="45.91544" lon="2.98611">
        <ele>756</ele>
        <time>2024-07-23T09:21:35Z</time>
      </trkpt>
      <trkpt lat="45.91544" lon="2.98612">
        <ele>757.3</ele>
        <time>2024-07-23T09:21:36Z</time>
      </trkpt>
      <trkpt lat="45.91545" lon="2.98614">
        <ele>756.3</ele>
        <time>2024-07-23T09:21:37Z</time>
      </trkpt>
      <trkpt lat="45.91545" lon="2.98616">
        <ele>757.6</ele>
        <time>2024-07-23T09:21:38Z</time>
      </trkpt>
      <trkpt lat="45.91545" lon="2.98618">
        <ele>758.2</ele>
        <time>2024-07-23T09:21:39Z</time>
      </trkpt>
      <trkpt lat="45.91545" lon="2.9862">
        <ele>756.8</ele>
        <time>2024-07-23T09:21:40Z</time>
      </trkpt>
      <trkpt lat="45.91546" lon="2.98623">
        <ele>756.2</ele>
        <time>2024-07-23T09:21:41Z</time>
      </trkpt>
      <trkpt lat="45.91545" lon="2.98626">
        <ele>757</ele>
        <time>2024-07-23T09:21:42Z</time>
      </trkpt>
      <trkpt lat="45.91545" lon="2.98629">
        <ele>755.4</ele>
        <time>2024-07-23T09:21:43Z</time>
      </trkpt>
      <trkpt lat="45.91544" lon="2.98631">
        <ele>756.9</ele>
        <time>2024-07-23T09:21:44Z</time>
      </trkpt>
      <trkpt lat="45.91544" lon="2.98633">
        <ele>759.6</ele>
        <time>2024-07-23T09:21:45Z</time>
      </trkpt>
      <trkpt lat="45.91544" lon="2.98634">
        <ele>760</ele>
        <time>2024-07-23T09:21:46Z</time>
      </trkpt>
      <trkpt lat="45.91544" lon="2.98636">
        <ele>760.6</ele>
        <time>2024-07-23T09:21:47Z</time>
      </trkpt>
      <trkpt lat="45.91543" lon="2.98638">
        <ele>760.8</ele>
        <time>2024-07-23T09:21:48Z</time>
      </trkpt>
      <trkpt lat="45.91543" lon="2.9864">
        <ele>760.8</ele>
        <time>2024-07-23T09:21:49Z</time>
      </trkpt>
      <trkpt lat="45.91543" lon="2.98642">
        <ele>761.5</ele>
        <time>2024-07-23T09:21:50Z</time>
      </trkpt>
      <trkpt lat="45.91543" lon="2.98643">
        <ele>761.9</ele>
        <time>2024-07-23T09:21:51Z</time>
      </trkpt>
      <trkpt lat="45.91542" lon="2.98645">
        <ele>761.2</ele>
        <time>2024-07-23T09:21:52Z</time>
      </trkpt>
      <trkpt lat="45.91543" lon="2.98648">
        <ele>761.5</ele>
        <time>2024-07-23T09:21:53Z</time>
      </trkpt>
      <trkpt lat="45.91543" lon="2.98649">
        <ele>762.8</ele>
        <time>2024-07-23T09:21:54Z</time>
      </trkpt>
      <trkpt lat="45.91545" lon="2.98652">
        <ele>765</ele>
        <time>2024-07-23T09:21:55Z</time>
      </trkpt>
      <trkpt lat="45.91546" lon="2.98653">
        <ele>763.3</ele>
        <time>2024-07-23T09:21:56Z</time>
      </trkpt>
      <trkpt lat="45.91547" lon="2.98655">
        <ele>762.9</ele>
        <time>2024-07-23T09:21:57Z</time>
      </trkpt>
      <trkpt lat="45.91549" lon="2.98658">
        <ele>762.2</ele>
        <time>2024-07-23T09:21:58Z</time>
      </trkpt>
      <trkpt lat="45.9155" lon="2.98661">
        <ele>761.1</ele>
        <time>2024-07-23T09:21:59Z</time>
      </trkpt>
      <trkpt lat="45.91551" lon="2.98663">
        <ele>761.2</ele>
        <time>2024-07-23T09:22:00Z</time>
      </trkpt>
      <trkpt lat="45.91552" lon="2.98666">
        <ele>759.7</ele>
        <time>2024-07-23T09:22:01Z</time>
      </trkpt>
      <trkpt lat="45.91552" lon="2.98667">
        <ele>760.3</ele>
        <time>2024-07-23T09:22:02Z</time>
      </trkpt>
      <trkpt lat="45.91551" lon="2.9867">
        <ele>757.9</ele>
        <time>2024-07-23T09:22:03Z</time>
      </trkpt>
      <trkpt lat="45.91551" lon="2.98672">
        <ele>757.1</ele>
        <time>2024-07-23T09:22:04Z</time>
      </trkpt>
      <trkpt lat="45.9155" lon="2.98675">
        <ele>757.7</ele>
        <time>2024-07-23T09:22:05Z</time>
      </trkpt>
      <trkpt lat="45.9155" lon="2.98677">
        <ele>756</ele>
        <time>2024-07-23T09:22:06Z</time>
      </trkpt>
      <trkpt lat="45.91551" lon="2.98679">
        <ele>757.6</ele>
        <time>2024-07-23T09:22:07Z</time>
      </trkpt>
      <trkpt lat="45.91551" lon="2.98681">
        <ele>758.3</ele>
        <time>2024-07-23T09:22:08Z</time>
      </trkpt>
      <trkpt lat="45.91551" lon="2.98682">
        <ele>756.4</ele>
        <time>2024-07-23T09:22:09Z</time>
      </trkpt>
      <trkpt lat="45.9155" lon="2.98684">
        <ele>754.6</ele>
        <time>2024-07-23T09:22:10Z</time>
      </trkpt>
      <trkpt lat="45.91548" lon="2.98686">
        <ele>756.5</ele>
        <time>2024-07-23T09:22:11Z</time>
      </trkpt>
      <trkpt lat="45.91546" lon="2.98687">
        <ele>757.7</ele>
        <time>2024-07-23T09:22:12Z</time>
      </trkpt>
      <trkpt lat="45.91545" lon="2.98688">
        <ele>758.4</ele>
        <time>2024-07-23T09:22:13Z</time>
      </trkpt>
      <trkpt lat="45.91544" lon="2.98689">
        <ele>755.2</ele>
        <time>2024-07-23T09:22:14Z</time>
      </trkpt>
      <trkpt lat="45.91544" lon="2.98691">
        <ele>756.8</ele>
        <time>2024-07-23T09:22:16Z</time>
      </trkpt>
      <trkpt lat="45.91544" lon="2.98692">
        <ele>755.5</ele>
        <time>2024-07-23T09:22:18Z</time>
      </trkpt>
      <trkpt lat="45.91543" lon="2.98694">
        <ele>754.9</ele>
        <time>2024-07-23T09:22:19Z</time>
      </trkpt>
      <trkpt lat="45.91543" lon="2.98695">
        <ele>755</ele>
        <time>2024-07-23T09:22:20Z</time>
      </trkpt>
      <trkpt lat="45.91544" lon="2.98697">
        <ele>754.4</ele>
        <time>2024-07-23T09:22:21Z</time>
      </trkpt>
      <trkpt lat="45.91545" lon="2.98698">
        <ele>754.5</ele>
        <time>2024-07-23T09:22:22Z</time>
      </trkpt>
      <trkpt lat="45.91546" lon="2.98699">
        <ele>754.4</ele>
        <time>2024-07-23T09:22:23Z</time>
      </trkpt>
      <trkpt lat="45.91546" lon="2.987">
        <ele>753.2</ele>
        <time>2024-07-23T09:22:24Z</time>
      </trkpt>
      <trkpt lat="45.91547" lon="2.98701">
        <ele>753.5</ele>
        <time>2024-07-23T09:22:25Z</time>
      </trkpt>
      <trkpt lat="45.91547" lon="2.98703">
        <ele>752</ele>
        <time>2024-07-23T09:22:26Z</time>
      </trkpt>
      <trkpt lat="45.91547" lon="2.98704">
        <ele>750.1</ele>
        <time>2024-07-23T09:22:27Z</time>
      </trkpt>
      <trkpt lat="45.91548" lon="2.98706">
        <ele>749.4</ele>
        <time>2024-07-23T09:22:28Z</time>
      </trkpt>
      <trkpt lat="45.91548" lon="2.98708">
        <ele>749.3</ele>
        <time>2024-07-23T09:22:30Z</time>
      </trkpt>
      <trkpt lat="45.91548" lon="2.98711">
        <ele>749.8</ele>
        <time>2024-07-23T09:22:32Z</time>
      </trkpt>
      <trkpt lat="45.91548" lon="2.98712">
        <ele>750.4</ele>
        <time>2024-07-23T09:22:33Z</time>
      </trkpt>
      <trkpt lat="45.91549" lon="2.98713">
        <ele>750.2</ele>
        <time>2024-07-23T09:22:34Z</time>
      </trkpt>
      <trkpt lat="45.9155" lon="2.98714">
        <ele>749.7</ele>
        <time>2024-07-23T09:22:35Z</time>
      </trkpt>
      <trkpt lat="45.9155" lon="2.98715">
        <ele>750.1</ele>
        <time>2024-07-23T09:22:36Z</time>
      </trkpt>
      <trkpt lat="45.9155" lon="2.98717">
        <ele>748</ele>
        <time>2024-07-23T09:22:37Z</time>
      </trkpt>
      <trkpt lat="45.9155" lon="2.98718">
        <ele>749</ele>
        <time>2024-07-23T09:22:38Z</time>
      </trkpt>
      <trkpt lat="45.9155" lon="2.9872">
        <ele>748.9</ele>
        <time>2024-07-23T09:22:39Z</time>
      </trkpt>
      <trkpt lat="45.9155" lon="2.98721">
        <ele>748.7</ele>
        <time>2024-07-23T09:22:40Z</time>
      </trkpt>
      <trkpt lat="45.9155" lon="2.98723">
        <ele>747.2</ele>
        <time>2024-07-23T09:22:41Z</time>
      </trkpt>
      <trkpt lat="45.9155" lon="2.98724">
        <ele>747.1</ele>
        <time>2024-07-23T09:22:42Z</time>
      </trkpt>
      <trkpt lat="45.9155" lon="2.98726">
        <ele>746.6</ele>
        <time>2024-07-23T09:22:43Z</time>
      </trkpt>
      <trkpt lat="45.91549" lon="2.98727">
        <ele>746.6</ele>
        <time>2024-07-23T09:22:44Z</time>
      </trkpt>
      <trkpt lat="45.9155" lon="2.9873">
        <ele>747.2</ele>
        <time>2024-07-23T09:22:45Z</time>
      </trkpt>
      <trkpt lat="45.91551" lon="2.98731">
        <ele>747.1</ele>
        <time>2024-07-23T09:22:46Z</time>
      </trkpt>
      <trkpt lat="45.91551" lon="2.98733">
        <ele>748.1</ele>
        <time>2024-07-23T09:22:47Z</time>
      </trkpt>
      <trkpt lat="45.91551" lon="2.98735">
        <ele>750.9</ele>
        <time>2024-07-23T09:22:49Z</time>
      </trkpt>
      <trkpt lat="45.91551" lon="2.98736">
        <ele>751.9</ele>
        <time>2024-07-23T09:22:50Z</time>
      </trkpt>
      <trkpt lat="45.91551" lon="2.98738">
        <ele>752.6</ele>
        <time>2024-07-23T09:22:51Z</time>
      </trkpt>
      <trkpt lat="45.91551" lon="2.9874">
        <ele>752.3</ele>
        <time>2024-07-23T09:22:53Z</time>
      </trkpt>
      <trkpt lat="45.9155" lon="2.98741">
        <ele>751.4</ele>
        <time>2024-07-23T09:22:55Z</time>
      </trkpt>
      <trkpt lat="45.9155" lon="2.98744">
        <ele>751.5</ele>
        <time>2024-07-23T09:22:57Z</time>
      </trkpt>
      <trkpt lat="45.9155" lon="2.98745">
        <ele>751.2</ele>
        <time>2024-07-23T09:22:58Z</time>
      </trkpt>
      <trkpt lat="45.91551" lon="2.98747">
        <ele>750.1</ele>
        <time>2024-07-23T09:22:59Z</time>
      </trkpt>
      <trkpt lat="45.91551" lon="2.98749">
        <ele>753.1</ele>
        <time>2024-07-23T09:23:00Z</time>
      </trkpt>
      <trkpt lat="45.91552" lon="2.9875">
        <ele>751.7</ele>
        <time>2024-07-23T09:23:01Z</time>
      </trkpt>
      <trkpt lat="45.91552" lon="2.98752">
        <ele>751.9</ele>
        <time>2024-07-23T09:23:02Z</time>
      </trkpt>
      <trkpt lat="45.91553" lon="2.98753">
        <ele>752</ele>
        <time>2024-07-23T09:23:03Z</time>
      </trkpt>
      <trkpt lat="45.91553" lon="2.98755">
        <ele>752.1</ele>
        <time>2024-07-23T09:23:04Z</time>
      </trkpt>
      <trkpt lat="45.91553" lon="2.98757">
        <ele>752.1</ele>
        <time>2024-07-23T09:23:05Z</time>
      </trkpt>
      <trkpt lat="45.91554" lon="2.98759">
        <ele>753.5</ele>
        <time>2024-07-23T09:23:06Z</time>
      </trkpt>
      <trkpt lat="45.91554" lon="2.9876">
        <ele>754.2</ele>
        <time>2024-07-23T09:23:07Z</time>
      </trkpt>
      <trkpt lat="45.91555" lon="2.98762">
        <ele>754.8</ele>
        <time>2024-07-23T09:23:08Z</time>
      </trkpt>
      <trkpt lat="45.91556" lon="2.98763">
        <ele>754.7</ele>
        <time>2024-07-23T09:23:09Z</time>
      </trkpt>
      <trkpt lat="45.91556" lon="2.98765">
        <ele>755</ele>
        <time>2024-07-23T09:23:10Z</time>
      </trkpt>
      <trkpt lat="45.91557" lon="2.98767">
        <ele>754.3</ele>
        <time>2024-07-23T09:23:11Z</time>
      </trkpt>
      <trkpt lat="45.91557" lon="2.98768">
        <ele>754.6</ele>
        <time>2024-07-23T09:23:12Z</time>
      </trkpt>
      <trkpt lat="45.91558" lon="2.9877">
        <ele>755.1</ele>
        <time>2024-07-23T09:23:13Z</time>
      </trkpt>
      <trkpt lat="45.91558" lon="2.98772">
        <ele>756.3</ele>
        <time>2024-07-23T09:23:14Z</time>
      </trkpt>
      <trkpt lat="45.91557" lon="2.98774">
        <ele>755.4</ele>
        <time>2024-07-23T09:23:15Z</time>
      </trkpt>
      <trkpt lat="45.91557" lon="2.98776">
        <ele>755.8</ele>
        <time>2024-07-23T09:23:16Z</time>
      </trkpt>
      <trkpt lat="45.91557" lon="2.98778">
        <ele>755.8</ele>
        <time>2024-07-23T09:23:17Z</time>
      </trkpt>
      <trkpt lat="45.91558" lon="2.9878">
        <ele>754.9</ele>
        <time>2024-07-23T09:23:18Z</time>
      </trkpt>
      <trkpt lat="45.91558" lon="2.98782">
        <ele>755.3</ele>
        <time>2024-07-23T09:23:19Z</time>
      </trkpt>
      <trkpt lat="45.91558" lon="2.98784">
        <ele>755</ele>
        <time>2024-07-23T09:23:20Z</time>
      </trkpt>
      <trkpt lat="45.91558" lon="2.98785">
        <ele>754.6</ele>
        <time>2024-07-23T09:23:21Z</time>
      </trkpt>
      <trkpt lat="45.91558" lon="2.98787">
        <ele>754.1</ele>
        <time>2024-07-23T09:23:22Z</time>
      </trkpt>
      <trkpt lat="45.91558" lon="2.98789">
        <ele>753.5</ele>
        <time>2024-07-23T09:23:23Z</time>
      </trkpt>
      <trkpt lat="45.91558" lon="2.9879">
        <ele>753.6</ele>
        <time>2024-07-23T09:23:24Z</time>
      </trkpt>
      <trkpt lat="45.91559" lon="2.98792">
        <ele>752.9</ele>
        <time>2024-07-23T09:23:25Z</time>
      </trkpt>
      <trkpt lat="45.91559" lon="2.98793">
        <ele>753.6</ele>
        <time>2024-07-23T09:23:26Z</time>
      </trkpt>
      <trkpt lat="45.91559" lon="2.98795">
        <ele>754</ele>
        <time>2024-07-23T09:23:27Z</time>
      </trkpt>
      <trkpt lat="45.9156" lon="2.98796">
        <ele>753.5</ele>
        <time>2024-07-23T09:23:28Z</time>
      </trkpt>
      <trkpt lat="45.9156" lon="2.98798">
        <ele>753.3</ele>
        <time>2024-07-23T09:23:29Z</time>
      </trkpt>
      <trkpt lat="45.91561" lon="2.98799">
        <ele>752.7</ele>
        <time>2024-07-23T09:23:30Z</time>
      </trkpt>
      <trkpt lat="45.91562" lon="2.988">
        <ele>751.6</ele>
        <time>2024-07-23T09:23:31Z</time>
      </trkpt>
      <trkpt lat="45.91563" lon="2.98801">
        <ele>751.4</ele>
        <time>2024-07-23T09:23:32Z</time>
      </trkpt>
      <trkpt lat="45.91564" lon="2.98802">
        <ele>751.5</ele>
        <time>2024-07-23T09:23:33Z</time>
      </trkpt>
      <trkpt lat="45.91565" lon="2.98803">
        <ele>751.6</ele>
        <time>2024-07-23T09:23:34Z</time>
      </trkpt>
      <trkpt lat="45.91566" lon="2.98804">
        <ele>751.9</ele>
        <time>2024-07-23T09:23:35Z</time>
      </trkpt>
      <trkpt lat="45.91567" lon="2.98805">
        <ele>751.7</ele>
        <time>2024-07-23T09:23:36Z</time>
      </trkpt>
      <trkpt lat="45.91568" lon="2.98806">
        <ele>751.5</ele>
        <time>2024-07-23T09:23:37Z</time>
      </trkpt>
      <trkpt lat="45.91568" lon="2.98806">
        <ele>751.1</ele>
        <time>2024-07-23T09:23:38Z</time>
      </trkpt>
      <trkpt lat="45.91569" lon="2.98807">
        <ele>750.5</ele>
        <time>2024-07-23T09:23:39Z</time>
      </trkpt>
      <trkpt lat="45.91571" lon="2.98808">
        <ele>750.4</ele>
        <time>2024-07-23T09:23:40Z</time>
      </trkpt>
      <trkpt lat="45.91572" lon="2.98809">
        <ele>750.3</ele>
        <time>2024-07-23T09:23:41Z</time>
      </trkpt>
      <trkpt lat="45.91573" lon="2.9881">
        <ele>749.9</ele>
        <time>2024-07-23T09:23:42Z</time>
      </trkpt>
      <trkpt lat="45.91574" lon="2.9881">
        <ele>749.2</ele>
        <time>2024-07-23T09:23:43Z</time>
      </trkpt>
      <trkpt lat="45.91575" lon="2.98811">
        <ele>749.1</ele>
        <time>2024-07-23T09:23:44Z</time>
      </trkpt>
      <trkpt lat="45.91576" lon="2.98812">
        <ele>749.3</ele>
        <time>2024-07-23T09:23:45Z</time>
      </trkpt>
      <trkpt lat="45.91577" lon="2.98812">
        <ele>749.2</ele>
        <time>2024-07-23T09:23:46Z</time>
      </trkpt>
      <trkpt lat="45.91578" lon="2.98813">
        <ele>748.9</ele>
        <time>2024-07-23T09:23:47Z</time>
      </trkpt>
      <trkpt lat="45.91579" lon="2.98813">
        <ele>748.6</ele>
        <time>2024-07-23T09:23:48Z</time>
      </trkpt>
      <trkpt lat="45.9158" lon="2.98814">
        <ele>748.6</ele>
        <time>2024-07-23T09:23:49Z</time>
      </trkpt>
      <trkpt lat="45.91582" lon="2.98815">
        <ele>748.1</ele>
        <time>2024-07-23T09:23:50Z</time>
      </trkpt>
      <trkpt lat="45.91583" lon="2.98815">
        <ele>747.7</ele>
        <time>2024-07-23T09:23:51Z</time>
      </trkpt>
      <trkpt lat="45.91584" lon="2.98816">
        <ele>747.6</ele>
        <time>2024-07-23T09:23:52Z</time>
      </trkpt>
      <trkpt lat="45.91585" lon="2.98816">
        <ele>747.6</ele>
        <time>2024-07-23T09:23:53Z</time>
      </trkpt>
      <trkpt lat="45.91587" lon="2.98817">
        <ele>747.1</ele>
        <time>2024-07-23T09:23:54Z</time>
      </trkpt>
      <trkpt lat="45.91588" lon="2.98818">
        <ele>746.7</ele>
        <time>2024-07-23T09:23:55Z</time>
      </trkpt>
      <trkpt lat="45.91589" lon="2.98818">
        <ele>745.8</ele>
        <time>2024-07-23T09:23:56Z</time>
      </trkpt>
      <trkpt lat="45.9159" lon="2.98819">
        <ele>746.7</ele>
        <time>2024-07-23T09:23:57Z</time>
      </trkpt>
      <trkpt lat="45.91591" lon="2.9882">
        <ele>746.6</ele>
        <time>2024-07-23T09:23:58Z</time>
      </trkpt>
      <trkpt lat="45.91593" lon="2.98821">
        <ele>745.3</ele>
        <time>2024-07-23T09:23:59Z</time>
      </trkpt>
      <trkpt lat="45.91594" lon="2.98822">
        <ele>743.4</ele>
        <time>2024-07-23T09:24:00Z</time>
      </trkpt>
      <trkpt lat="45.91595" lon="2.98823">
        <ele>743.4</ele>
        <time>2024-07-23T09:24:01Z</time>
      </trkpt>
      <trkpt lat="45.91596" lon="2.98823">
        <ele>743.6</ele>
        <time>2024-07-23T09:24:02Z</time>
      </trkpt>
      <trkpt lat="45.91598" lon="2.98823">
        <ele>743.7</ele>
        <time>2024-07-23T09:24:03Z</time>
      </trkpt>
      <trkpt lat="45.91599" lon="2.98823">
        <ele>743</ele>
        <time>2024-07-23T09:24:04Z</time>
      </trkpt>
      <trkpt lat="45.916" lon="2.98824">
        <ele>743.3</ele>
        <time>2024-07-23T09:24:05Z</time>
      </trkpt>
      <trkpt lat="45.91601" lon="2.98824">
        <ele>743.3</ele>
        <time>2024-07-23T09:24:06Z</time>
      </trkpt>
      <trkpt lat="45.91603" lon="2.98824">
        <ele>744</ele>
        <time>2024-07-23T09:24:07Z</time>
      </trkpt>
      <trkpt lat="45.91604" lon="2.98825">
        <ele>743.8</ele>
        <time>2024-07-23T09:24:08Z</time>
      </trkpt>
      <trkpt lat="45.91605" lon="2.98825">
        <ele>744.3</ele>
        <time>2024-07-23T09:24:09Z</time>
      </trkpt>
      <trkpt lat="45.91606" lon="2.98826">
        <ele>744.2</ele>
        <time>2024-07-23T09:24:10Z</time>
      </trkpt>
      <trkpt lat="45.91607" lon="2.98826">
        <ele>744.1</ele>
        <time>2024-07-23T09:24:11Z</time>
      </trkpt>
      <trkpt lat="45.91608" lon="2.98826">
        <ele>743.9</ele>
        <time>2024-07-23T09:24:12Z</time>
      </trkpt>
      <trkpt lat="45.91609" lon="2.98826">
        <ele>743.8</ele>
        <time>2024-07-23T09:24:13Z</time>
      </trkpt>
      <trkpt lat="45.9161" lon="2.98826">
        <ele>743.9</ele>
        <time>2024-07-23T09:24:14Z</time>
      </trkpt>
      <trkpt lat="45.91611" lon="2.98826">
        <ele>744.5</ele>
        <time>2024-07-23T09:24:15Z</time>
      </trkpt>
      <trkpt lat="45.91613" lon="2.98826">
        <ele>744.7</ele>
        <time>2024-07-23T09:24:17Z</time>
      </trkpt>
      <trkpt lat="45.91614" lon="2.98826">
        <ele>744.4</ele>
        <time>2024-07-23T09:24:18Z</time>
      </trkpt>
      <trkpt lat="45.91615" lon="2.98826">
        <ele>744.5</ele>
        <time>2024-07-23T09:24:19Z</time>
      </trkpt>
      <trkpt lat="45.91616" lon="2.98825">
        <ele>744.9</ele>
        <time>2024-07-23T09:24:20Z</time>
      </trkpt>
      <trkpt lat="45.91617" lon="2.98825">
        <ele>745.1</ele>
        <time>2024-07-23T09:24:21Z</time>
      </trkpt>
      <trkpt lat="45.91617" lon="2.98824">
        <ele>744.7</ele>
        <time>2024-07-23T09:24:22Z</time>
      </trkpt>
      <trkpt lat="45.91618" lon="2.98823">
        <ele>744.7</ele>
        <time>2024-07-23T09:24:23Z</time>
      </trkpt>
      <trkpt lat="45.91619" lon="2.98821">
        <ele>744.7</ele>
        <time>2024-07-23T09:24:24Z</time>
      </trkpt>
      <trkpt lat="45.9162" lon="2.9882">
        <ele>744.9</ele>
        <time>2024-07-23T09:24:25Z</time>
      </trkpt>
      <trkpt lat="45.9162" lon="2.98819">
        <ele>744.6</ele>
        <time>2024-07-23T09:24:26Z</time>
      </trkpt>
      <trkpt lat="45.91621" lon="2.98817">
        <ele>745.5</ele>
        <time>2024-07-23T09:24:27Z</time>
      </trkpt>
      <trkpt lat="45.91621" lon="2.98816">
        <ele>745.7</ele>
        <time>2024-07-23T09:24:28Z</time>
      </trkpt>
      <trkpt lat="45.91622" lon="2.98815">
        <ele>743.9</ele>
        <time>2024-07-23T09:24:29Z</time>
      </trkpt>
      <trkpt lat="45.91623" lon="2.98813">
        <ele>744.6</ele>
        <time>2024-07-23T09:24:30Z</time>
      </trkpt>
      <trkpt lat="45.91624" lon="2.98812">
        <ele>744.4</ele>
        <time>2024-07-23T09:24:31Z</time>
      </trkpt>
      <trkpt lat="45.91625" lon="2.9881">
        <ele>745.4</ele>
        <time>2024-07-23T09:24:32Z</time>
      </trkpt>
      <trkpt lat="45.91625" lon="2.98809">
        <ele>744.5</ele>
        <time>2024-07-23T09:24:33Z</time>
      </trkpt>
      <trkpt lat="45.91626" lon="2.98808">
        <ele>744.1</ele>
        <time>2024-07-23T09:24:34Z</time>
      </trkpt>
      <trkpt lat="45.91627" lon="2.98806">
        <ele>743.2</ele>
        <time>2024-07-23T09:24:35Z</time>
      </trkpt>
      <trkpt lat="45.91627" lon="2.98805">
        <ele>742.9</ele>
        <time>2024-07-23T09:24:36Z</time>
      </trkpt>
      <trkpt lat="45.91628" lon="2.98804">
        <ele>743.1</ele>
        <time>2024-07-23T09:24:37Z</time>
      </trkpt>
      <trkpt lat="45.91628" lon="2.98802">
        <ele>742.6</ele>
        <time>2024-07-23T09:24:38Z</time>
      </trkpt>
      <trkpt lat="45.91629" lon="2.98801">
        <ele>742.8</ele>
        <time>2024-07-23T09:24:39Z</time>
      </trkpt>
      <trkpt lat="45.9163" lon="2.988">
        <ele>743.2</ele>
        <time>2024-07-23T09:24:40Z</time>
      </trkpt>
      <trkpt lat="45.9163" lon="2.98798">
        <ele>744.3</ele>
        <time>2024-07-23T09:24:42Z</time>
      </trkpt>
      <trkpt lat="45.91631" lon="2.98795">
        <ele>744.3</ele>
        <time>2024-07-23T09:24:44Z</time>
      </trkpt>
      <trkpt lat="45.91631" lon="2.98794">
        <ele>744.4</ele>
        <time>2024-07-23T09:24:45Z</time>
      </trkpt>
      <trkpt lat="45.91632" lon="2.98792">
        <ele>744.3</ele>
        <time>2024-07-23T09:24:47Z</time>
      </trkpt>
      <trkpt lat="45.91633" lon="2.9879">
        <ele>746.1</ele>
        <time>2024-07-23T09:24:49Z</time>
      </trkpt>
      <trkpt lat="45.91633" lon="2.98789">
        <ele>746.2</ele>
        <time>2024-07-23T09:24:50Z</time>
      </trkpt>
      <trkpt lat="45.91634" lon="2.98787">
        <ele>746.9</ele>
        <time>2024-07-23T09:24:51Z</time>
      </trkpt>
      <trkpt lat="45.91634" lon="2.98786">
        <ele>748.8</ele>
        <time>2024-07-23T09:24:52Z</time>
      </trkpt>
      <trkpt lat="45.91635" lon="2.98784">
        <ele>748.5</ele>
        <time>2024-07-23T09:24:53Z</time>
      </trkpt>
      <trkpt lat="45.91636" lon="2.98783">
        <ele>748.1</ele>
        <time>2024-07-23T09:24:54Z</time>
      </trkpt>
      <trkpt lat="45.91636" lon="2.98781">
        <ele>748.4</ele>
        <time>2024-07-23T09:24:55Z</time>
      </trkpt>
      <trkpt lat="45.91637" lon="2.9878">
        <ele>748.7</ele>
        <time>2024-07-23T09:24:56Z</time>
      </trkpt>
      <trkpt lat="45.91637" lon="2.98779">
        <ele>748.6</ele>
        <time>2024-07-23T09:24:57Z</time>
      </trkpt>
      <trkpt lat="45.91638" lon="2.98777">
        <ele>748.3</ele>
        <time>2024-07-23T09:24:58Z</time>
      </trkpt>
      <trkpt lat="45.91639" lon="2.98776">
        <ele>748.2</ele>
        <time>2024-07-23T09:24:59Z</time>
      </trkpt>
      <trkpt lat="45.91639" lon="2.98774">
        <ele>748</ele>
        <time>2024-07-23T09:25:00Z</time>
      </trkpt>
      <trkpt lat="45.9164" lon="2.98773">
        <ele>747.9</ele>
        <time>2024-07-23T09:25:01Z</time>
      </trkpt>
      <trkpt lat="45.9164" lon="2.98771">
        <ele>747.6</ele>
        <time>2024-07-23T09:25:02Z</time>
      </trkpt>
      <trkpt lat="45.91641" lon="2.9877">
        <ele>747.3</ele>
        <time>2024-07-23T09:25:03Z</time>
      </trkpt>
      <trkpt lat="45.91641" lon="2.98768">
        <ele>746.9</ele>
        <time>2024-07-23T09:25:04Z</time>
      </trkpt>
      <trkpt lat="45.91642" lon="2.98767">
        <ele>746.6</ele>
        <time>2024-07-23T09:25:05Z</time>
      </trkpt>
      <trkpt lat="45.91642" lon="2.98765">
        <ele>746.2</ele>
        <time>2024-07-23T09:25:06Z</time>
      </trkpt>
      <trkpt lat="45.91643" lon="2.98764">
        <ele>745.9</ele>
        <time>2024-07-23T09:25:07Z</time>
      </trkpt>
      <trkpt lat="45.91643" lon="2.98762">
        <ele>745.2</ele>
        <time>2024-07-23T09:25:08Z</time>
      </trkpt>
      <trkpt lat="45.91644" lon="2.98761">
        <ele>745.1</ele>
        <time>2024-07-23T09:25:09Z</time>
      </trkpt>
      <trkpt lat="45.91644" lon="2.98759">
        <ele>745</ele>
        <time>2024-07-23T09:25:10Z</time>
      </trkpt>
      <trkpt lat="45.91645" lon="2.98758">
        <ele>745.4</ele>
        <time>2024-07-23T09:25:11Z</time>
      </trkpt>
      <trkpt lat="45.91645" lon="2.98757">
        <ele>744.7</ele>
        <time>2024-07-23T09:25:12Z</time>
      </trkpt>
      <trkpt lat="45.91646" lon="2.98755">
        <ele>744.5</ele>
        <time>2024-07-23T09:25:13Z</time>
      </trkpt>
      <trkpt lat="45.91646" lon="2.98754">
        <ele>744.7</ele>
        <time>2024-07-23T09:25:14Z</time>
      </trkpt>
      <trkpt lat="45.91647" lon="2.98753">
        <ele>745.9</ele>
        <time>2024-07-23T09:25:15Z</time>
      </trkpt>
      <trkpt lat="45.91648" lon="2.98751">
        <ele>744.9</ele>
        <time>2024-07-23T09:25:16Z</time>
      </trkpt>
      <trkpt lat="45.91648" lon="2.9875">
        <ele>744.6</ele>
        <time>2024-07-23T09:25:17Z</time>
      </trkpt>
      <trkpt lat="45.91649" lon="2.98748">
        <ele>743.9</ele>
        <time>2024-07-23T09:25:18Z</time>
      </trkpt>
      <trkpt lat="45.91649" lon="2.98747">
        <ele>744.6</ele>
        <time>2024-07-23T09:25:19Z</time>
      </trkpt>
      <trkpt lat="45.9165" lon="2.98746">
        <ele>741.9</ele>
        <time>2024-07-23T09:25:20Z</time>
      </trkpt>
      <trkpt lat="45.9165" lon="2.98744">
        <ele>741.7</ele>
        <time>2024-07-23T09:25:22Z</time>
      </trkpt>
      <trkpt lat="45.9165" lon="2.98741">
        <ele>743.3</ele>
        <time>2024-07-23T09:25:24Z</time>
      </trkpt>
      <trkpt lat="45.91651" lon="2.98739">
        <ele>741.1</ele>
        <time>2024-07-23T09:25:26Z</time>
      </trkpt>
      <trkpt lat="45.91651" lon="2.98737">
        <ele>741.2</ele>
        <time>2024-07-23T09:25:27Z</time>
      </trkpt>
      <trkpt lat="45.91652" lon="2.98736">
        <ele>740.7</ele>
        <time>2024-07-23T09:25:29Z</time>
      </trkpt>
      <trkpt lat="45.91653" lon="2.98735">
        <ele>742</ele>
        <time>2024-07-23T09:25:32Z</time>
      </trkpt>
      <trkpt lat="45.91655" lon="2.98734">
        <ele>742.4</ele>
        <time>2024-07-23T09:25:34Z</time>
      </trkpt>
      <trkpt lat="45.91656" lon="2.98732">
        <ele>738.2</ele>
        <time>2024-07-23T09:25:35Z</time>
      </trkpt>
      <trkpt lat="45.91656" lon="2.98731">
        <ele>737.4</ele>
        <time>2024-07-23T09:25:36Z</time>
      </trkpt>
      <trkpt lat="45.91656" lon="2.9873">
        <ele>736.3</ele>
        <time>2024-07-23T09:25:37Z</time>
      </trkpt>
      <trkpt lat="45.91656" lon="2.98728">
        <ele>735.9</ele>
        <time>2024-07-23T09:25:38Z</time>
      </trkpt>
      <trkpt lat="45.91656" lon="2.98726">
        <ele>736.7</ele>
        <time>2024-07-23T09:25:39Z</time>
      </trkpt>
      <trkpt lat="45.91655" lon="2.98724">
        <ele>738.4</ele>
        <time>2024-07-23T09:25:40Z</time>
      </trkpt>
      <trkpt lat="45.91655" lon="2.98721">
        <ele>738.2</ele>
        <time>2024-07-23T09:25:41Z</time>
      </trkpt>
      <trkpt lat="45.91655" lon="2.98719">
        <ele>737.2</ele>
        <time>2024-07-23T09:25:42Z</time>
      </trkpt>
      <trkpt lat="45.91655" lon="2.98717">
        <ele>737.1</ele>
        <time>2024-07-23T09:25:43Z</time>
      </trkpt>
      <trkpt lat="45.91654" lon="2.98715">
        <ele>736.6</ele>
        <time>2024-07-23T09:25:44Z</time>
      </trkpt>
      <trkpt lat="45.91654" lon="2.98713">
        <ele>737.2</ele>
        <time>2024-07-23T09:25:45Z</time>
      </trkpt>
      <trkpt lat="45.91654" lon="2.98711">
        <ele>737.1</ele>
        <time>2024-07-23T09:25:46Z</time>
      </trkpt>
      <trkpt lat="45.91654" lon="2.98709">
        <ele>737.6</ele>
        <time>2024-07-23T09:25:47Z</time>
      </trkpt>
      <trkpt lat="45.91654" lon="2.98707">
        <ele>737.8</ele>
        <time>2024-07-23T09:25:48Z</time>
      </trkpt>
      <trkpt lat="45.91653" lon="2.98705">
        <ele>737.2</ele>
        <time>2024-07-23T09:25:49Z</time>
      </trkpt>
      <trkpt lat="45.91653" lon="2.98704">
        <ele>737.5</ele>
        <time>2024-07-23T09:25:50Z</time>
      </trkpt>
      <trkpt lat="45.91652" lon="2.98702">
        <ele>737.4</ele>
        <time>2024-07-23T09:25:51Z</time>
      </trkpt>
      <trkpt lat="45.91652" lon="2.987">
        <ele>737.6</ele>
        <time>2024-07-23T09:25:52Z</time>
      </trkpt>
      <trkpt lat="45.91652" lon="2.98699">
        <ele>737.8</ele>
        <time>2024-07-23T09:25:53Z</time>
      </trkpt>
      <trkpt lat="45.91651" lon="2.98697">
        <ele>738</ele>
        <time>2024-07-23T09:25:54Z</time>
      </trkpt>
      <trkpt lat="45.91651" lon="2.98695">
        <ele>738.2</ele>
        <time>2024-07-23T09:25:55Z</time>
      </trkpt>
      <trkpt lat="45.91651" lon="2.98694">
        <ele>738.1</ele>
        <time>2024-07-23T09:25:56Z</time>
      </trkpt>
      <trkpt lat="45.9165" lon="2.98692">
        <ele>737.5</ele>
        <time>2024-07-23T09:25:57Z</time>
      </trkpt>
      <trkpt lat="45.9165" lon="2.9869">
        <ele>736.7</ele>
        <time>2024-07-23T09:25:58Z</time>
      </trkpt>
      <trkpt lat="45.9165" lon="2.98688">
        <ele>736.8</ele>
        <time>2024-07-23T09:25:59Z</time>
      </trkpt>
      <trkpt lat="45.91649" lon="2.98687">
        <ele>736.6</ele>
        <time>2024-07-23T09:26:00Z</time>
      </trkpt>
      <trkpt lat="45.91649" lon="2.98685">
        <ele>737</ele>
        <time>2024-07-23T09:26:01Z</time>
      </trkpt>
      <trkpt lat="45.91649" lon="2.98683">
        <ele>737.1</ele>
        <time>2024-07-23T09:26:02Z</time>
      </trkpt>
      <trkpt lat="45.91649" lon="2.98681">
        <ele>737.5</ele>
        <time>2024-07-23T09:26:03Z</time>
      </trkpt>
      <trkpt lat="45.9165" lon="2.9868">
        <ele>737.6</ele>
        <time>2024-07-23T09:26:04Z</time>
      </trkpt>
      <trkpt lat="45.9165" lon="2.98678">
        <ele>737.5</ele>
        <time>2024-07-23T09:26:05Z</time>
      </trkpt>
      <trkpt lat="45.9165" lon="2.98677">
        <ele>735.3</ele>
        <time>2024-07-23T09:26:06Z</time>
      </trkpt>
      <trkpt lat="45.9165" lon="2.98675">
        <ele>734.7</ele>
        <time>2024-07-23T09:26:07Z</time>
      </trkpt>
      <trkpt lat="45.91651" lon="2.98674">
        <ele>734.3</ele>
        <time>2024-07-23T09:26:08Z</time>
      </trkpt>
      <trkpt lat="45.91651" lon="2.98672">
        <ele>735.5</ele>
        <time>2024-07-23T09:26:09Z</time>
      </trkpt>
      <trkpt lat="45.91651" lon="2.98671">
        <ele>736.9</ele>
        <time>2024-07-23T09:26:10Z</time>
      </trkpt>
      <trkpt lat="45.91651" lon="2.9867">
        <ele>737.5</ele>
        <time>2024-07-23T09:26:11Z</time>
      </trkpt>
      <trkpt lat="45.91651" lon="2.98668">
        <ele>738.1</ele>
        <time>2024-07-23T09:26:12Z</time>
      </trkpt>
      <trkpt lat="45.91651" lon="2.98667">
        <ele>737.9</ele>
        <time>2024-07-23T09:26:13Z</time>
      </trkpt>
      <trkpt lat="45.91652" lon="2.98665">
        <ele>736.9</ele>
        <time>2024-07-23T09:26:15Z</time>
      </trkpt>
      <trkpt lat="45.91653" lon="2.98663">
        <ele>736.7</ele>
        <time>2024-07-23T09:26:16Z</time>
      </trkpt>
      <trkpt lat="45.91654" lon="2.98662">
        <ele>737.5</ele>
        <time>2024-07-23T09:26:17Z</time>
      </trkpt>
      <trkpt lat="45.91654" lon="2.98661">
        <ele>737.5</ele>
        <time>2024-07-23T09:26:18Z</time>
      </trkpt>
      <trkpt lat="45.91655" lon="2.98659">
        <ele>736.8</ele>
        <time>2024-07-23T09:26:19Z</time>
      </trkpt>
      <trkpt lat="45.91656" lon="2.98658">
        <ele>736.4</ele>
        <time>2024-07-23T09:26:20Z</time>
      </trkpt>
      <trkpt lat="45.91657" lon="2.98657">
        <ele>736.7</ele>
        <time>2024-07-23T09:26:21Z</time>
      </trkpt>
      <trkpt lat="45.91657" lon="2.98656">
        <ele>735.9</ele>
        <time>2024-07-23T09:26:22Z</time>
      </trkpt>
      <trkpt lat="45.91659" lon="2.98654">
        <ele>736.6</ele>
        <time>2024-07-23T09:26:24Z</time>
      </trkpt>
      <trkpt lat="45.91659" lon="2.98653">
        <ele>735.4</ele>
        <time>2024-07-23T09:26:27Z</time>
      </trkpt>
      <trkpt lat="45.9166" lon="2.98652">
        <ele>735.9</ele>
        <time>2024-07-23T09:26:29Z</time>
      </trkpt>
      <trkpt lat="45.9166" lon="2.9865">
        <ele>735.9</ele>
        <time>2024-07-23T09:26:30Z</time>
      </trkpt>
      <trkpt lat="45.91661" lon="2.98649">
        <ele>735.3</ele>
        <time>2024-07-23T09:26:31Z</time>
      </trkpt>
      <trkpt lat="45.91661" lon="2.98648">
        <ele>735.7</ele>
        <time>2024-07-23T09:26:32Z</time>
      </trkpt>
      <trkpt lat="45.91662" lon="2.98646">
        <ele>736.1</ele>
        <time>2024-07-23T09:26:33Z</time>
      </trkpt>
      <trkpt lat="45.91663" lon="2.98645">
        <ele>736.5</ele>
        <time>2024-07-23T09:26:34Z</time>
      </trkpt>
      <trkpt lat="45.91663" lon="2.98644">
        <ele>735.9</ele>
        <time>2024-07-23T09:26:35Z</time>
      </trkpt>
      <trkpt lat="45.91664" lon="2.98642">
        <ele>735.8</ele>
        <time>2024-07-23T09:26:36Z</time>
      </trkpt>
      <trkpt lat="45.91665" lon="2.98641">
        <ele>735.9</ele>
        <time>2024-07-23T09:26:37Z</time>
      </trkpt>
      <trkpt lat="45.91665" lon="2.98639">
        <ele>736</ele>
        <time>2024-07-23T09:26:38Z</time>
      </trkpt>
      <trkpt lat="45.91666" lon="2.98638">
        <ele>736.5</ele>
        <time>2024-07-23T09:26:39Z</time>
      </trkpt>
      <trkpt lat="45.91667" lon="2.98637">
        <ele>736.2</ele>
        <time>2024-07-23T09:26:40Z</time>
      </trkpt>
      <trkpt lat="45.91667" lon="2.98636">
        <ele>736.4</ele>
        <time>2024-07-23T09:26:41Z</time>
      </trkpt>
      <trkpt lat="45.91668" lon="2.98635">
        <ele>736.1</ele>
        <time>2024-07-23T09:26:42Z</time>
      </trkpt>
      <trkpt lat="45.91669" lon="2.98633">
        <ele>735.6</ele>
        <time>2024-07-23T09:26:43Z</time>
      </trkpt>
      <trkpt lat="45.9167" lon="2.98632">
        <ele>735.3</ele>
        <time>2024-07-23T09:26:44Z</time>
      </trkpt>
      <trkpt lat="45.91671" lon="2.98631">
        <ele>735.4</ele>
        <time>2024-07-23T09:26:45Z</time>
      </trkpt>
      <trkpt lat="45.91672" lon="2.98629">
        <ele>735.5</ele>
        <time>2024-07-23T09:26:46Z</time>
      </trkpt>
      <trkpt lat="45.91673" lon="2.98628">
        <ele>734.9</ele>
        <time>2024-07-23T09:26:47Z</time>
      </trkpt>
      <trkpt lat="45.91673" lon="2.98627">
        <ele>735.1</ele>
        <time>2024-07-23T09:26:48Z</time>
      </trkpt>
      <trkpt lat="45.91674" lon="2.98626">
        <ele>735.1</ele>
        <time>2024-07-23T09:26:49Z</time>
      </trkpt>
      <trkpt lat="45.91675" lon="2.98624">
        <ele>734.9</ele>
        <time>2024-07-23T09:26:50Z</time>
      </trkpt>
      <trkpt lat="45.91676" lon="2.98623">
        <ele>734.8</ele>
        <time>2024-07-23T09:26:51Z</time>
      </trkpt>
      <trkpt lat="45.91677" lon="2.98622">
        <ele>734.9</ele>
        <time>2024-07-23T09:26:52Z</time>
      </trkpt>
      <trkpt lat="45.91678" lon="2.98621">
        <ele>734.2</ele>
        <time>2024-07-23T09:26:53Z</time>
      </trkpt>
      <trkpt lat="45.91679" lon="2.98619">
        <ele>735.5</ele>
        <time>2024-07-23T09:26:54Z</time>
      </trkpt>
      <trkpt lat="45.9168" lon="2.98618">
        <ele>735.8</ele>
        <time>2024-07-23T09:26:55Z</time>
      </trkpt>
      <trkpt lat="45.91681" lon="2.98617">
        <ele>737.4</ele>
        <time>2024-07-23T09:26:56Z</time>
      </trkpt>
      <trkpt lat="45.91682" lon="2.98616">
        <ele>736.7</ele>
        <time>2024-07-23T09:26:57Z</time>
      </trkpt>
      <trkpt lat="45.91683" lon="2.98615">
        <ele>737.3</ele>
        <time>2024-07-23T09:26:58Z</time>
      </trkpt>
      <trkpt lat="45.91684" lon="2.98614">
        <ele>736.2</ele>
        <time>2024-07-23T09:26:59Z</time>
      </trkpt>
      <trkpt lat="45.91685" lon="2.98613">
        <ele>738.4</ele>
        <time>2024-07-23T09:27:01Z</time>
      </trkpt>
      <trkpt lat="45.91686" lon="2.98613">
        <ele>735.9</ele>
        <time>2024-07-23T09:27:02Z</time>
      </trkpt>
      <trkpt lat="45.91687" lon="2.98612">
        <ele>735.8</ele>
        <time>2024-07-23T09:27:03Z</time>
      </trkpt>
      <trkpt lat="45.91689" lon="2.98611">
        <ele>735.7</ele>
        <time>2024-07-23T09:27:04Z</time>
      </trkpt>
      <trkpt lat="45.9169" lon="2.9861">
        <ele>736.4</ele>
        <time>2024-07-23T09:27:05Z</time>
      </trkpt>
      <trkpt lat="45.91691" lon="2.98609">
        <ele>738</ele>
        <time>2024-07-23T09:27:06Z</time>
      </trkpt>
      <trkpt lat="45.91691" lon="2.98607">
        <ele>738.2</ele>
        <time>2024-07-23T09:27:07Z</time>
      </trkpt>
      <trkpt lat="45.91692" lon="2.98605">
        <ele>738.5</ele>
        <time>2024-07-23T09:27:09Z</time>
      </trkpt>
      <trkpt lat="45.91693" lon="2.98604">
        <ele>737.6</ele>
        <time>2024-07-23T09:27:10Z</time>
      </trkpt>
      <trkpt lat="45.91694" lon="2.98603">
        <ele>737.1</ele>
        <time>2024-07-23T09:27:11Z</time>
      </trkpt>
      <trkpt lat="45.91696" lon="2.98603">
        <ele>737.8</ele>
        <time>2024-07-23T09:27:12Z</time>
      </trkpt>
      <trkpt lat="45.91696" lon="2.98602">
        <ele>738</ele>
        <time>2024-07-23T09:27:13Z</time>
      </trkpt>
      <trkpt lat="45.91697" lon="2.98601">
        <ele>738.3</ele>
        <time>2024-07-23T09:27:14Z</time>
      </trkpt>
      <trkpt lat="45.91698" lon="2.986">
        <ele>738.6</ele>
        <time>2024-07-23T09:27:15Z</time>
      </trkpt>
      <trkpt lat="45.91699" lon="2.98599">
        <ele>738.3</ele>
        <time>2024-07-23T09:27:16Z</time>
      </trkpt>
      <trkpt lat="45.917" lon="2.98599">
        <ele>738.5</ele>
        <time>2024-07-23T09:27:17Z</time>
      </trkpt>
      <trkpt lat="45.91701" lon="2.98598">
        <ele>739.1</ele>
        <time>2024-07-23T09:27:18Z</time>
      </trkpt>
      <trkpt lat="45.91701" lon="2.98596">
        <ele>739.2</ele>
        <time>2024-07-23T09:27:19Z</time>
      </trkpt>
      <trkpt lat="45.91702" lon="2.98595">
        <ele>739.4</ele>
        <time>2024-07-23T09:27:20Z</time>
      </trkpt>
      <trkpt lat="45.91703" lon="2.98594">
        <ele>739.5</ele>
        <time>2024-07-23T09:27:21Z</time>
      </trkpt>
      <trkpt lat="45.91704" lon="2.98593">
        <ele>739.8</ele>
        <time>2024-07-23T09:27:22Z</time>
      </trkpt>
      <trkpt lat="45.91704" lon="2.98592">
        <ele>739.8</ele>
        <time>2024-07-23T09:27:23Z</time>
      </trkpt>
      <trkpt lat="45.91705" lon="2.98591">
        <ele>739.7</ele>
        <time>2024-07-23T09:27:24Z</time>
      </trkpt>
      <trkpt lat="45.91706" lon="2.9859">
        <ele>739.5</ele>
        <time>2024-07-23T09:27:25Z</time>
      </trkpt>
      <trkpt lat="45.91707" lon="2.98589">
        <ele>740</ele>
        <time>2024-07-23T09:27:26Z</time>
      </trkpt>
      <trkpt lat="45.91708" lon="2.98589">
        <ele>739.7</ele>
        <time>2024-07-23T09:27:27Z</time>
      </trkpt>
      <trkpt lat="45.91709" lon="2.98588">
        <ele>739.6</ele>
        <time>2024-07-23T09:27:28Z</time>
      </trkpt>
      <trkpt lat="45.9171" lon="2.98587">
        <ele>739.8</ele>
        <time>2024-07-23T09:27:29Z</time>
      </trkpt>
      <trkpt lat="45.9171" lon="2.98586">
        <ele>740.5</ele>
        <time>2024-07-23T09:27:30Z</time>
      </trkpt>
      <trkpt lat="45.91711" lon="2.98585">
        <ele>740.6</ele>
        <time>2024-07-23T09:27:31Z</time>
      </trkpt>
      <trkpt lat="45.91712" lon="2.98584">
        <ele>739.2</ele>
        <time>2024-07-23T09:27:32Z</time>
      </trkpt>
      <trkpt lat="45.91713" lon="2.98583">
        <ele>738.8</ele>
        <time>2024-07-23T09:27:33Z</time>
      </trkpt>
      <trkpt lat="45.91714" lon="2.98582">
        <ele>738.2</ele>
        <time>2024-07-23T09:27:34Z</time>
      </trkpt>
      <trkpt lat="45.91715" lon="2.98581">
        <ele>737.9</ele>
        <time>2024-07-23T09:27:35Z</time>
      </trkpt>
      <trkpt lat="45.91716" lon="2.98581">
        <ele>738.1</ele>
        <time>2024-07-23T09:27:36Z</time>
      </trkpt>
      <trkpt lat="45.91716" lon="2.9858">
        <ele>738.5</ele>
        <time>2024-07-23T09:27:37Z</time>
      </trkpt>
      <trkpt lat="45.91717" lon="2.98579">
        <ele>738.6</ele>
        <time>2024-07-23T09:27:38Z</time>
      </trkpt>
      <trkpt lat="45.91718" lon="2.98578">
        <ele>738.1</ele>
        <time>2024-07-23T09:27:39Z</time>
      </trkpt>
      <trkpt lat="45.91719" lon="2.98577">
        <ele>737.8</ele>
        <time>2024-07-23T09:27:40Z</time>
      </trkpt>
      <trkpt lat="45.9172" lon="2.98577">
        <ele>737.2</ele>
        <time>2024-07-23T09:27:41Z</time>
      </trkpt>
      <trkpt lat="45.91721" lon="2.98576">
        <ele>737.2</ele>
        <time>2024-07-23T09:27:42Z</time>
      </trkpt>
      <trkpt lat="45.91722" lon="2.98575">
        <ele>737</ele>
        <time>2024-07-23T09:27:43Z</time>
      </trkpt>
      <trkpt lat="45.91723" lon="2.98574">
        <ele>736.5</ele>
        <time>2024-07-23T09:27:44Z</time>
      </trkpt>
      <trkpt lat="45.91724" lon="2.98573">
        <ele>736.3</ele>
        <time>2024-07-23T09:27:45Z</time>
      </trkpt>
      <trkpt lat="45.91725" lon="2.98572">
        <ele>735.3</ele>
        <time>2024-07-23T09:27:46Z</time>
      </trkpt>
      <trkpt lat="45.91726" lon="2.9857">
        <ele>734.8</ele>
        <time>2024-07-23T09:27:47Z</time>
      </trkpt>
      <trkpt lat="45.91727" lon="2.98569">
        <ele>734.6</ele>
        <time>2024-07-23T09:27:48Z</time>
      </trkpt>
      <trkpt lat="45.91728" lon="2.98568">
        <ele>733.7</ele>
        <time>2024-07-23T09:27:49Z</time>
      </trkpt>
      <trkpt lat="45.91729" lon="2.98567">
        <ele>733.4</ele>
        <time>2024-07-23T09:27:50Z</time>
      </trkpt>
      <trkpt lat="45.91729" lon="2.98566">
        <ele>733.5</ele>
        <time>2024-07-23T09:27:51Z</time>
      </trkpt>
      <trkpt lat="45.9173" lon="2.98565">
        <ele>732.9</ele>
        <time>2024-07-23T09:27:52Z</time>
      </trkpt>
      <trkpt lat="45.91731" lon="2.98564">
        <ele>731.9</ele>
        <time>2024-07-23T09:27:53Z</time>
      </trkpt>
      <trkpt lat="45.91732" lon="2.98563">
        <ele>732.2</ele>
        <time>2024-07-23T09:27:54Z</time>
      </trkpt>
      <trkpt lat="45.91733" lon="2.98562">
        <ele>732.6</ele>
        <time>2024-07-23T09:27:55Z</time>
      </trkpt>
      <trkpt lat="45.91733" lon="2.98561">
        <ele>732.7</ele>
        <time>2024-07-23T09:27:56Z</time>
      </trkpt>
      <trkpt lat="45.91734" lon="2.9856">
        <ele>732.8</ele>
        <time>2024-07-23T09:27:57Z</time>
      </trkpt>
      <trkpt lat="45.91735" lon="2.9856">
        <ele>732.5</ele>
        <time>2024-07-23T09:27:58Z</time>
      </trkpt>
      <trkpt lat="45.91736" lon="2.98559">
        <ele>732.4</ele>
        <time>2024-07-23T09:27:59Z</time>
      </trkpt>
      <trkpt lat="45.91737" lon="2.98558">
        <ele>732.7</ele>
        <time>2024-07-23T09:28:00Z</time>
      </trkpt>
      <trkpt lat="45.91738" lon="2.98557">
        <ele>732.9</ele>
        <time>2024-07-23T09:28:01Z</time>
      </trkpt>
      <trkpt lat="45.91739" lon="2.98556">
        <ele>732.8</ele>
        <time>2024-07-23T09:28:02Z</time>
      </trkpt>
      <trkpt lat="45.9174" lon="2.98555">
        <ele>732.4</ele>
        <time>2024-07-23T09:28:03Z</time>
      </trkpt>
      <trkpt lat="45.91741" lon="2.98555">
        <ele>732.7</ele>
        <time>2024-07-23T09:28:04Z</time>
      </trkpt>
      <trkpt lat="45.91742" lon="2.98554">
        <ele>733.5</ele>
        <time>2024-07-23T09:28:05Z</time>
      </trkpt>
      <trkpt lat="45.91743" lon="2.98553">
        <ele>733.3</ele>
        <time>2024-07-23T09:28:06Z</time>
      </trkpt>
      <trkpt lat="45.91744" lon="2.98552">
        <ele>732.8</ele>
        <time>2024-07-23T09:28:07Z</time>
      </trkpt>
      <trkpt lat="45.91744" lon="2.98551">
        <ele>733.1</ele>
        <time>2024-07-23T09:28:08Z</time>
      </trkpt>
      <trkpt lat="45.91745" lon="2.98549">
        <ele>733</ele>
        <time>2024-07-23T09:28:09Z</time>
      </trkpt>
      <trkpt lat="45.91746" lon="2.98548">
        <ele>732.9</ele>
        <time>2024-07-23T09:28:10Z</time>
      </trkpt>
      <trkpt lat="45.91747" lon="2.98547">
        <ele>733.1</ele>
        <time>2024-07-23T09:28:11Z</time>
      </trkpt>
      <trkpt lat="45.91748" lon="2.98546">
        <ele>733.1</ele>
        <time>2024-07-23T09:28:12Z</time>
      </trkpt>
      <trkpt lat="45.91748" lon="2.98544">
        <ele>732.7</ele>
        <time>2024-07-23T09:28:13Z</time>
      </trkpt>
      <trkpt lat="45.91749" lon="2.98543">
        <ele>732.7</ele>
        <time>2024-07-23T09:28:14Z</time>
      </trkpt>
      <trkpt lat="45.91749" lon="2.98541">
        <ele>732.5</ele>
        <time>2024-07-23T09:28:15Z</time>
      </trkpt>
      <trkpt lat="45.9175" lon="2.9854">
        <ele>732.7</ele>
        <time>2024-07-23T09:28:16Z</time>
      </trkpt>
      <trkpt lat="45.91751" lon="2.98539">
        <ele>732.2</ele>
        <time>2024-07-23T09:28:17Z</time>
      </trkpt>
      <trkpt lat="45.91751" lon="2.98537">
        <ele>732</ele>
        <time>2024-07-23T09:28:18Z</time>
      </trkpt>
      <trkpt lat="45.91752" lon="2.98536">
        <ele>732.2</ele>
        <time>2024-07-23T09:28:19Z</time>
      </trkpt>
      <trkpt lat="45.91753" lon="2.98534">
        <ele>731.5</ele>
        <time>2024-07-23T09:28:20Z</time>
      </trkpt>
      <trkpt lat="45.91753" lon="2.98533">
        <ele>731.6</ele>
        <time>2024-07-23T09:28:21Z</time>
      </trkpt>
      <trkpt lat="45.91754" lon="2.98532">
        <ele>731.9</ele>
        <time>2024-07-23T09:28:22Z</time>
      </trkpt>
      <trkpt lat="45.91754" lon="2.98531">
        <ele>731.8</ele>
        <time>2024-07-23T09:28:23Z</time>
      </trkpt>
      <trkpt lat="45.91755" lon="2.9853">
        <ele>731.8</ele>
        <time>2024-07-23T09:28:24Z</time>
      </trkpt>
      <trkpt lat="45.91756" lon="2.98528">
        <ele>731.8</ele>
        <time>2024-07-23T09:28:25Z</time>
      </trkpt>
      <trkpt lat="45.91756" lon="2.98527">
        <ele>731.1</ele>
        <time>2024-07-23T09:28:26Z</time>
      </trkpt>
      <trkpt lat="45.91757" lon="2.98525">
        <ele>731.1</ele>
        <time>2024-07-23T09:28:27Z</time>
      </trkpt>
      <trkpt lat="45.91758" lon="2.98524">
        <ele>730.7</ele>
        <time>2024-07-23T09:28:28Z</time>
      </trkpt>
      <trkpt lat="45.91758" lon="2.98523">
        <ele>730.8</ele>
        <time>2024-07-23T09:28:29Z</time>
      </trkpt>
      <trkpt lat="45.91759" lon="2.98521">
        <ele>730.8</ele>
        <time>2024-07-23T09:28:30Z</time>
      </trkpt>
      <trkpt lat="45.91759" lon="2.9852">
        <ele>730.6</ele>
        <time>2024-07-23T09:28:31Z</time>
      </trkpt>
      <trkpt lat="45.9176" lon="2.98519">
        <ele>730.4</ele>
        <time>2024-07-23T09:28:32Z</time>
      </trkpt>
      <trkpt lat="45.91761" lon="2.98517">
        <ele>730.1</ele>
        <time>2024-07-23T09:28:33Z</time>
      </trkpt>
      <trkpt lat="45.91761" lon="2.98516">
        <ele>730.1</ele>
        <time>2024-07-23T09:28:34Z</time>
      </trkpt>
      <trkpt lat="45.91762" lon="2.98515">
        <ele>730</ele>
        <time>2024-07-23T09:28:35Z</time>
      </trkpt>
      <trkpt lat="45.91763" lon="2.98513">
        <ele>730</ele>
        <time>2024-07-23T09:28:36Z</time>
      </trkpt>
      <trkpt lat="45.91763" lon="2.98512">
        <ele>730</ele>
        <time>2024-07-23T09:28:37Z</time>
      </trkpt>
      <trkpt lat="45.91764" lon="2.98511">
        <ele>730.1</ele>
        <time>2024-07-23T09:28:38Z</time>
      </trkpt>
      <trkpt lat="45.91764" lon="2.9851">
        <ele>730</ele>
        <time>2024-07-23T09:28:39Z</time>
      </trkpt>
      <trkpt lat="45.91765" lon="2.98508">
        <ele>730</ele>
        <time>2024-07-23T09:28:40Z</time>
      </trkpt>
      <trkpt lat="45.91765" lon="2.98507">
        <ele>729.8</ele>
        <time>2024-07-23T09:28:41Z</time>
      </trkpt>
      <trkpt lat="45.91766" lon="2.98505">
        <ele>729.9</ele>
        <time>2024-07-23T09:28:42Z</time>
      </trkpt>
      <trkpt lat="45.91766" lon="2.98504">
        <ele>729.7</ele>
        <time>2024-07-23T09:28:43Z</time>
      </trkpt>
      <trkpt lat="45.91767" lon="2.98503">
        <ele>730.1</ele>
        <time>2024-07-23T09:28:44Z</time>
      </trkpt>
      <trkpt lat="45.91767" lon="2.98501">
        <ele>730</ele>
        <time>2024-07-23T09:28:45Z</time>
      </trkpt>
      <trkpt lat="45.91768" lon="2.985">
        <ele>729.8</ele>
        <time>2024-07-23T09:28:46Z</time>
      </trkpt>
      <trkpt lat="45.91768" lon="2.98499">
        <ele>729.9</ele>
        <time>2024-07-23T09:28:47Z</time>
      </trkpt>
      <trkpt lat="45.91769" lon="2.98498">
        <ele>729.8</ele>
        <time>2024-07-23T09:28:48Z</time>
      </trkpt>
      <trkpt lat="45.9177" lon="2.98496">
        <ele>729.8</ele>
        <time>2024-07-23T09:28:49Z</time>
      </trkpt>
      <trkpt lat="45.9177" lon="2.98495">
        <ele>729.7</ele>
        <time>2024-07-23T09:28:50Z</time>
      </trkpt>
      <trkpt lat="45.9177" lon="2.98493">
        <ele>729.1</ele>
        <time>2024-07-23T09:28:51Z</time>
      </trkpt>
      <trkpt lat="45.91771" lon="2.98491">
        <ele>729.2</ele>
        <time>2024-07-23T09:28:52Z</time>
      </trkpt>
      <trkpt lat="45.91771" lon="2.9849">
        <ele>729.2</ele>
        <time>2024-07-23T09:28:53Z</time>
      </trkpt>
      <trkpt lat="45.91772" lon="2.98488">
        <ele>729.2</ele>
        <time>2024-07-23T09:28:54Z</time>
      </trkpt>
      <trkpt lat="45.91772" lon="2.98486">
        <ele>729.1</ele>
        <time>2024-07-23T09:28:55Z</time>
      </trkpt>
      <trkpt lat="45.91772" lon="2.98485">
        <ele>728.8</ele>
        <time>2024-07-23T09:28:56Z</time>
      </trkpt>
      <trkpt lat="45.91773" lon="2.98483">
        <ele>728.8</ele>
        <time>2024-07-23T09:28:57Z</time>
      </trkpt>
      <trkpt lat="45.91773" lon="2.98481">
        <ele>728.5</ele>
        <time>2024-07-23T09:28:58Z</time>
      </trkpt>
      <trkpt lat="45.91773" lon="2.9848">
        <ele>728.4</ele>
        <time>2024-07-23T09:28:59Z</time>
      </trkpt>
      <trkpt lat="45.91773" lon="2.98478">
        <ele>728.4</ele>
        <time>2024-07-23T09:29:00Z</time>
      </trkpt>
      <trkpt lat="45.91774" lon="2.98476">
        <ele>728.1</ele>
        <time>2024-07-23T09:29:01Z</time>
      </trkpt>
      <trkpt lat="45.91774" lon="2.98475">
        <ele>727.9</ele>
        <time>2024-07-23T09:29:02Z</time>
      </trkpt>
      <trkpt lat="45.91775" lon="2.98473">
        <ele>727.5</ele>
        <time>2024-07-23T09:29:03Z</time>
      </trkpt>
      <trkpt lat="45.91775" lon="2.98472">
        <ele>727.4</ele>
        <time>2024-07-23T09:29:04Z</time>
      </trkpt>
      <trkpt lat="45.91776" lon="2.9847">
        <ele>727.1</ele>
        <time>2024-07-23T09:29:05Z</time>
      </trkpt>
      <trkpt lat="45.91776" lon="2.98468">
        <ele>727</ele>
        <time>2024-07-23T09:29:06Z</time>
      </trkpt>
      <trkpt lat="45.91776" lon="2.98467">
        <ele>726.9</ele>
        <time>2024-07-23T09:29:07Z</time>
      </trkpt>
      <trkpt lat="45.91777" lon="2.98465">
        <ele>726.6</ele>
        <time>2024-07-23T09:29:08Z</time>
      </trkpt>
      <trkpt lat="45.91777" lon="2.98464">
        <ele>726.5</ele>
        <time>2024-07-23T09:29:09Z</time>
      </trkpt>
      <trkpt lat="45.91778" lon="2.98462">
        <ele>726.2</ele>
        <time>2024-07-23T09:29:10Z</time>
      </trkpt>
      <trkpt lat="45.91778" lon="2.98461">
        <ele>725.6</ele>
        <time>2024-07-23T09:29:11Z</time>
      </trkpt>
      <trkpt lat="45.91779" lon="2.98459">
        <ele>725.8</ele>
        <time>2024-07-23T09:29:12Z</time>
      </trkpt>
      <trkpt lat="45.91779" lon="2.98458">
        <ele>725.4</ele>
        <time>2024-07-23T09:29:13Z</time>
      </trkpt>
      <trkpt lat="45.9178" lon="2.98456">
        <ele>725.3</ele>
        <time>2024-07-23T09:29:14Z</time>
      </trkpt>
      <trkpt lat="45.9178" lon="2.98454">
        <ele>725</ele>
        <time>2024-07-23T09:29:15Z</time>
      </trkpt>
      <trkpt lat="45.91781" lon="2.98453">
        <ele>724.9</ele>
        <time>2024-07-23T09:29:16Z</time>
      </trkpt>
      <trkpt lat="45.91781" lon="2.98451">
        <ele>724.7</ele>
        <time>2024-07-23T09:29:17Z</time>
      </trkpt>
      <trkpt lat="45.91781" lon="2.9845">
        <ele>724.6</ele>
        <time>2024-07-23T09:29:18Z</time>
      </trkpt>
      <trkpt lat="45.91782" lon="2.98449">
        <ele>724.6</ele>
        <time>2024-07-23T09:29:19Z</time>
      </trkpt>
      <trkpt lat="45.91782" lon="2.98447">
        <ele>724.5</ele>
        <time>2024-07-23T09:29:20Z</time>
      </trkpt>
      <trkpt lat="45.91783" lon="2.98446">
        <ele>724.4</ele>
        <time>2024-07-23T09:29:21Z</time>
      </trkpt>
      <trkpt lat="45.91784" lon="2.98445">
        <ele>724.1</ele>
        <time>2024-07-23T09:29:22Z</time>
      </trkpt>
      <trkpt lat="45.91784" lon="2.98443">
        <ele>724.1</ele>
        <time>2024-07-23T09:29:23Z</time>
      </trkpt>
      <trkpt lat="45.91785" lon="2.98441">
        <ele>724.1</ele>
        <time>2024-07-23T09:29:25Z</time>
      </trkpt>
      <trkpt lat="45.91786" lon="2.98439">
        <ele>724.2</ele>
        <time>2024-07-23T09:29:26Z</time>
      </trkpt>
      <trkpt lat="45.91786" lon="2.98438">
        <ele>723.9</ele>
        <time>2024-07-23T09:29:27Z</time>
      </trkpt>
      <trkpt lat="45.91786" lon="2.98436">
        <ele>723.2</ele>
        <time>2024-07-23T09:29:28Z</time>
      </trkpt>
      <trkpt lat="45.91787" lon="2.98435">
        <ele>723.2</ele>
        <time>2024-07-23T09:29:29Z</time>
      </trkpt>
      <trkpt lat="45.91787" lon="2.98433">
        <ele>722.8</ele>
        <time>2024-07-23T09:29:30Z</time>
      </trkpt>
      <trkpt lat="45.91788" lon="2.98432">
        <ele>722.8</ele>
        <time>2024-07-23T09:29:31Z</time>
      </trkpt>
      <trkpt lat="45.91789" lon="2.9843">
        <ele>723.1</ele>
        <time>2024-07-23T09:29:32Z</time>
      </trkpt>
      <trkpt lat="45.91789" lon="2.98429">
        <ele>722.8</ele>
        <time>2024-07-23T09:29:33Z</time>
      </trkpt>
      <trkpt lat="45.9179" lon="2.98427">
        <ele>722.8</ele>
        <time>2024-07-23T09:29:34Z</time>
      </trkpt>
      <trkpt lat="45.9179" lon="2.98426">
        <ele>722.5</ele>
        <time>2024-07-23T09:29:35Z</time>
      </trkpt>
      <trkpt lat="45.91791" lon="2.98425">
        <ele>722.3</ele>
        <time>2024-07-23T09:29:36Z</time>
      </trkpt>
      <trkpt lat="45.91792" lon="2.98423">
        <ele>722.1</ele>
        <time>2024-07-23T09:29:37Z</time>
      </trkpt>
      <trkpt lat="45.91792" lon="2.98422">
        <ele>722.4</ele>
        <time>2024-07-23T09:29:38Z</time>
      </trkpt>
      <trkpt lat="45.91792" lon="2.98421">
        <ele>722</ele>
        <time>2024-07-23T09:29:39Z</time>
      </trkpt>
      <trkpt lat="45.91793" lon="2.98419">
        <ele>722.1</ele>
        <time>2024-07-23T09:29:40Z</time>
      </trkpt>
      <trkpt lat="45.91794" lon="2.98418">
        <ele>722.3</ele>
        <time>2024-07-23T09:29:41Z</time>
      </trkpt>
      <trkpt lat="45.91794" lon="2.98417">
        <ele>721.8</ele>
        <time>2024-07-23T09:29:42Z</time>
      </trkpt>
      <trkpt lat="45.91795" lon="2.98416">
        <ele>721.7</ele>
        <time>2024-07-23T09:29:43Z</time>
      </trkpt>
      <trkpt lat="45.91795" lon="2.98415">
        <ele>721.5</ele>
        <time>2024-07-23T09:29:44Z</time>
      </trkpt>
      <trkpt lat="45.91796" lon="2.98413">
        <ele>721.4</ele>
        <time>2024-07-23T09:29:45Z</time>
      </trkpt>
      <trkpt lat="45.91796" lon="2.98412">
        <ele>721.5</ele>
        <time>2024-07-23T09:29:46Z</time>
      </trkpt>
      <trkpt lat="45.91797" lon="2.98411">
        <ele>721.6</ele>
        <time>2024-07-23T09:29:47Z</time>
      </trkpt>
      <trkpt lat="45.91797" lon="2.98409">
        <ele>721.5</ele>
        <time>2024-07-23T09:29:48Z</time>
      </trkpt>
      <trkpt lat="45.91798" lon="2.98408">
        <ele>721.2</ele>
        <time>2024-07-23T09:29:49Z</time>
      </trkpt>
      <trkpt lat="45.91799" lon="2.98407">
        <ele>721.1</ele>
        <time>2024-07-23T09:29:50Z</time>
      </trkpt>
      <trkpt lat="45.91799" lon="2.98405">
        <ele>721.1</ele>
        <time>2024-07-23T09:29:51Z</time>
      </trkpt>
      <trkpt lat="45.918" lon="2.98404">
        <ele>720.9</ele>
        <time>2024-07-23T09:29:52Z</time>
      </trkpt>
      <trkpt lat="45.918" lon="2.98402">
        <ele>720.8</ele>
        <time>2024-07-23T09:29:53Z</time>
      </trkpt>
      <trkpt lat="45.91801" lon="2.98401">
        <ele>720.6</ele>
        <time>2024-07-23T09:29:54Z</time>
      </trkpt>
      <trkpt lat="45.91801" lon="2.984">
        <ele>720.3</ele>
        <time>2024-07-23T09:29:55Z</time>
      </trkpt>
      <trkpt lat="45.91802" lon="2.98398">
        <ele>720.5</ele>
        <time>2024-07-23T09:29:56Z</time>
      </trkpt>
      <trkpt lat="45.91802" lon="2.98397">
        <ele>720.5</ele>
        <time>2024-07-23T09:29:57Z</time>
      </trkpt>
      <trkpt lat="45.91803" lon="2.98395">
        <ele>720.5</ele>
        <time>2024-07-23T09:29:58Z</time>
      </trkpt>
      <trkpt lat="45.91803" lon="2.98394">
        <ele>720.3</ele>
        <time>2024-07-23T09:29:59Z</time>
      </trkpt>
      <trkpt lat="45.91804" lon="2.98392">
        <ele>720.1</ele>
        <time>2024-07-23T09:30:00Z</time>
      </trkpt>
      <trkpt lat="45.91804" lon="2.98391">
        <ele>720</ele>
        <time>2024-07-23T09:30:01Z</time>
      </trkpt>
      <trkpt lat="45.91805" lon="2.98389">
        <ele>720.2</ele>
        <time>2024-07-23T09:30:02Z</time>
      </trkpt>
      <trkpt lat="45.91805" lon="2.98388">
        <ele>720.1</ele>
        <time>2024-07-23T09:30:03Z</time>
      </trkpt>
      <trkpt lat="45.91806" lon="2.98386">
        <ele>719.7</ele>
        <time>2024-07-23T09:30:04Z</time>
      </trkpt>
      <trkpt lat="45.91806" lon="2.98385">
        <ele>719.4</ele>
        <time>2024-07-23T09:30:05Z</time>
      </trkpt>
      <trkpt lat="45.91807" lon="2.98383">
        <ele>719.2</ele>
        <time>2024-07-23T09:30:06Z</time>
      </trkpt>
      <trkpt lat="45.91807" lon="2.98382">
        <ele>719.1</ele>
        <time>2024-07-23T09:30:07Z</time>
      </trkpt>
      <trkpt lat="45.91807" lon="2.9838">
        <ele>718.8</ele>
        <time>2024-07-23T09:30:08Z</time>
      </trkpt>
      <trkpt lat="45.91808" lon="2.98379">
        <ele>718.8</ele>
        <time>2024-07-23T09:30:09Z</time>
      </trkpt>
      <trkpt lat="45.91808" lon="2.98377">
        <ele>718.9</ele>
        <time>2024-07-23T09:30:10Z</time>
      </trkpt>
      <trkpt lat="45.91808" lon="2.98376">
        <ele>718.9</ele>
        <time>2024-07-23T09:30:11Z</time>
      </trkpt>
      <trkpt lat="45.91808" lon="2.98374">
        <ele>718.5</ele>
        <time>2024-07-23T09:30:12Z</time>
      </trkpt>
      <trkpt lat="45.91808" lon="2.98373">
        <ele>718.6</ele>
        <time>2024-07-23T09:30:13Z</time>
      </trkpt>
      <trkpt lat="45.91809" lon="2.98371">
        <ele>718.6</ele>
        <time>2024-07-23T09:30:14Z</time>
      </trkpt>
      <trkpt lat="45.91809" lon="2.98369">
        <ele>718.5</ele>
        <time>2024-07-23T09:30:15Z</time>
      </trkpt>
      <trkpt lat="45.91809" lon="2.98368">
        <ele>718.7</ele>
        <time>2024-07-23T09:30:16Z</time>
      </trkpt>
      <trkpt lat="45.9181" lon="2.98366">
        <ele>718.1</ele>
        <time>2024-07-23T09:30:17Z</time>
      </trkpt>
      <trkpt lat="45.9181" lon="2.98365">
        <ele>717.8</ele>
        <time>2024-07-23T09:30:18Z</time>
      </trkpt>
      <trkpt lat="45.9181" lon="2.98363">
        <ele>717.7</ele>
        <time>2024-07-23T09:30:19Z</time>
      </trkpt>
      <trkpt lat="45.91811" lon="2.98361">
        <ele>717.9</ele>
        <time>2024-07-23T09:30:20Z</time>
      </trkpt>
      <trkpt lat="45.91811" lon="2.9836">
        <ele>717.9</ele>
        <time>2024-07-23T09:30:21Z</time>
      </trkpt>
      <trkpt lat="45.91811" lon="2.98358">
        <ele>717.7</ele>
        <time>2024-07-23T09:30:22Z</time>
      </trkpt>
      <trkpt lat="45.91811" lon="2.98356">
        <ele>717.5</ele>
        <time>2024-07-23T09:30:23Z</time>
      </trkpt>
      <trkpt lat="45.91812" lon="2.98355">
        <ele>717.4</ele>
        <time>2024-07-23T09:30:24Z</time>
      </trkpt>
      <trkpt lat="45.91812" lon="2.98353">
        <ele>717.1</ele>
        <time>2024-07-23T09:30:25Z</time>
      </trkpt>
      <trkpt lat="45.91812" lon="2.98351">
        <ele>717.1</ele>
        <time>2024-07-23T09:30:26Z</time>
      </trkpt>
      <trkpt lat="45.91812" lon="2.9835">
        <ele>716.7</ele>
        <time>2024-07-23T09:30:27Z</time>
      </trkpt>
      <trkpt lat="45.91812" lon="2.98348">
        <ele>716.8</ele>
        <time>2024-07-23T09:30:28Z</time>
      </trkpt>
      <trkpt lat="45.91812" lon="2.98346">
        <ele>716.4</ele>
        <time>2024-07-23T09:30:29Z</time>
      </trkpt>
      <trkpt lat="45.91812" lon="2.98345">
        <ele>716.3</ele>
        <time>2024-07-23T09:30:30Z</time>
      </trkpt>
      <trkpt lat="45.91813" lon="2.98343">
        <ele>715.9</ele>
        <time>2024-07-23T09:30:31Z</time>
      </trkpt>
      <trkpt lat="45.91813" lon="2.98342">
        <ele>715.7</ele>
        <time>2024-07-23T09:30:32Z</time>
      </trkpt>
      <trkpt lat="45.91813" lon="2.9834">
        <ele>715.8</ele>
        <time>2024-07-23T09:30:33Z</time>
      </trkpt>
      <trkpt lat="45.91813" lon="2.98339">
        <ele>715.6</ele>
        <time>2024-07-23T09:30:34Z</time>
      </trkpt>
      <trkpt lat="45.91813" lon="2.98337">
        <ele>715.7</ele>
        <time>2024-07-23T09:30:35Z</time>
      </trkpt>
      <trkpt lat="45.91813" lon="2.98336">
        <ele>715.7</ele>
        <time>2024-07-23T09:30:36Z</time>
      </trkpt>
      <trkpt lat="45.91813" lon="2.98334">
        <ele>715.8</ele>
        <time>2024-07-23T09:30:37Z</time>
      </trkpt>
      <trkpt lat="45.91813" lon="2.98333">
        <ele>715.6</ele>
        <time>2024-07-23T09:30:38Z</time>
      </trkpt>
      <trkpt lat="45.91813" lon="2.98331">
        <ele>715.9</ele>
        <time>2024-07-23T09:30:39Z</time>
      </trkpt>
      <trkpt lat="45.91813" lon="2.9833">
        <ele>716</ele>
        <time>2024-07-23T09:30:40Z</time>
      </trkpt>
      <trkpt lat="45.91813" lon="2.98328">
        <ele>716.2</ele>
        <time>2024-07-23T09:30:41Z</time>
      </trkpt>
      <trkpt lat="45.91813" lon="2.98327">
        <ele>716</ele>
        <time>2024-07-23T09:30:42Z</time>
      </trkpt>
      <trkpt lat="45.91813" lon="2.98325">
        <ele>715.9</ele>
        <time>2024-07-23T09:30:43Z</time>
      </trkpt>
      <trkpt lat="45.91813" lon="2.98323">
        <ele>715.9</ele>
        <time>2024-07-23T09:30:44Z</time>
      </trkpt>
      <trkpt lat="45.91813" lon="2.98322">
        <ele>715.8</ele>
        <time>2024-07-23T09:30:45Z</time>
      </trkpt>
      <trkpt lat="45.91813" lon="2.9832">
        <ele>715.6</ele>
        <time>2024-07-23T09:30:46Z</time>
      </trkpt>
      <trkpt lat="45.91813" lon="2.98319">
        <ele>715.6</ele>
        <time>2024-07-23T09:30:47Z</time>
      </trkpt>
      <trkpt lat="45.91813" lon="2.98317">
        <ele>715.4</ele>
        <time>2024-07-23T09:30:48Z</time>
      </trkpt>
      <trkpt lat="45.91813" lon="2.98315">
        <ele>715</ele>
        <time>2024-07-23T09:30:49Z</time>
      </trkpt>
      <trkpt lat="45.91813" lon="2.98314">
        <ele>714.7</ele>
        <time>2024-07-23T09:30:50Z</time>
      </trkpt>
      <trkpt lat="45.91814" lon="2.98312">
        <ele>714.8</ele>
        <time>2024-07-23T09:30:51Z</time>
      </trkpt>
      <trkpt lat="45.91814" lon="2.9831">
        <ele>714.7</ele>
        <time>2024-07-23T09:30:52Z</time>
      </trkpt>
      <trkpt lat="45.91814" lon="2.98309">
        <ele>714.6</ele>
        <time>2024-07-23T09:30:53Z</time>
      </trkpt>
      <trkpt lat="45.91814" lon="2.98307">
        <ele>714.8</ele>
        <time>2024-07-23T09:30:54Z</time>
      </trkpt>
      <trkpt lat="45.91814" lon="2.98306">
        <ele>714.9</ele>
        <time>2024-07-23T09:30:55Z</time>
      </trkpt>
      <trkpt lat="45.91814" lon="2.98304">
        <ele>715.2</ele>
        <time>2024-07-23T09:30:56Z</time>
      </trkpt>
      <trkpt lat="45.91814" lon="2.98302">
        <ele>715.5</ele>
        <time>2024-07-23T09:30:57Z</time>
      </trkpt>
      <trkpt lat="45.91814" lon="2.98301">
        <ele>715.1</ele>
        <time>2024-07-23T09:30:58Z</time>
      </trkpt>
      <trkpt lat="45.91814" lon="2.98299">
        <ele>715.5</ele>
        <time>2024-07-23T09:30:59Z</time>
      </trkpt>
      <trkpt lat="45.91815" lon="2.98298">
        <ele>715.9</ele>
        <time>2024-07-23T09:31:00Z</time>
      </trkpt>
      <trkpt lat="45.91815" lon="2.98296">
        <ele>715.5</ele>
        <time>2024-07-23T09:31:01Z</time>
      </trkpt>
      <trkpt lat="45.91815" lon="2.98295">
        <ele>715.6</ele>
        <time>2024-07-23T09:31:02Z</time>
      </trkpt>
      <trkpt lat="45.91816" lon="2.98294">
        <ele>715.7</ele>
        <time>2024-07-23T09:31:03Z</time>
      </trkpt>
      <trkpt lat="45.91816" lon="2.98292">
        <ele>715.8</ele>
        <time>2024-07-23T09:31:04Z</time>
      </trkpt>
      <trkpt lat="45.91816" lon="2.9829">
        <ele>715.9</ele>
        <time>2024-07-23T09:31:05Z</time>
      </trkpt>
      <trkpt lat="45.91817" lon="2.98289">
        <ele>716</ele>
        <time>2024-07-23T09:31:06Z</time>
      </trkpt>
      <trkpt lat="45.91817" lon="2.98288">
        <ele>715.5</ele>
        <time>2024-07-23T09:31:07Z</time>
      </trkpt>
      <trkpt lat="45.91818" lon="2.98286">
        <ele>715.5</ele>
        <time>2024-07-23T09:31:08Z</time>
      </trkpt>
      <trkpt lat="45.91819" lon="2.98285">
        <ele>715.9</ele>
        <time>2024-07-23T09:31:09Z</time>
      </trkpt>
      <trkpt lat="45.91819" lon="2.98284">
        <ele>716.1</ele>
        <time>2024-07-23T09:31:10Z</time>
      </trkpt>
      <trkpt lat="45.9182" lon="2.98282">
        <ele>715.9</ele>
        <time>2024-07-23T09:31:11Z</time>
      </trkpt>
      <trkpt lat="45.91821" lon="2.98281">
        <ele>715.7</ele>
        <time>2024-07-23T09:31:12Z</time>
      </trkpt>
      <trkpt lat="45.91821" lon="2.9828">
        <ele>715.2</ele>
        <time>2024-07-23T09:31:13Z</time>
      </trkpt>
      <trkpt lat="45.91822" lon="2.98279">
        <ele>715.5</ele>
        <time>2024-07-23T09:31:14Z</time>
      </trkpt>
      <trkpt lat="45.91823" lon="2.98277">
        <ele>715.5</ele>
        <time>2024-07-23T09:31:15Z</time>
      </trkpt>
      <trkpt lat="45.91824" lon="2.98276">
        <ele>715.6</ele>
        <time>2024-07-23T09:31:16Z</time>
      </trkpt>
      <trkpt lat="45.91825" lon="2.98275">
        <ele>715.7</ele>
        <time>2024-07-23T09:31:17Z</time>
      </trkpt>
      <trkpt lat="45.91826" lon="2.98274">
        <ele>715.7</ele>
        <time>2024-07-23T09:31:18Z</time>
      </trkpt>
      <trkpt lat="45.91827" lon="2.98273">
        <ele>715.6</ele>
        <time>2024-07-23T09:31:19Z</time>
      </trkpt>
      <trkpt lat="45.91828" lon="2.98272">
        <ele>715.5</ele>
        <time>2024-07-23T09:31:20Z</time>
      </trkpt>
      <trkpt lat="45.91829" lon="2.98272">
        <ele>715.7</ele>
        <time>2024-07-23T09:31:21Z</time>
      </trkpt>
      <trkpt lat="45.9183" lon="2.98271">
        <ele>715.9</ele>
        <time>2024-07-23T09:31:22Z</time>
      </trkpt>
      <trkpt lat="45.91831" lon="2.9827">
        <ele>716.1</ele>
        <time>2024-07-23T09:31:23Z</time>
      </trkpt>
      <trkpt lat="45.91832" lon="2.9827">
        <ele>716.1</ele>
        <time>2024-07-23T09:31:24Z</time>
      </trkpt>
      <trkpt lat="45.91833" lon="2.98269">
        <ele>716.3</ele>
        <time>2024-07-23T09:31:25Z</time>
      </trkpt>
      <trkpt lat="45.91834" lon="2.98269">
        <ele>716.3</ele>
        <time>2024-07-23T09:31:26Z</time>
      </trkpt>
      <trkpt lat="45.91835" lon="2.98269">
        <ele>716.6</ele>
        <time>2024-07-23T09:31:27Z</time>
      </trkpt>
      <trkpt lat="45.91837" lon="2.98269">
        <ele>716.9</ele>
        <time>2024-07-23T09:31:28Z</time>
      </trkpt>
      <trkpt lat="45.91838" lon="2.98269">
        <ele>716.9</ele>
        <time>2024-07-23T09:31:29Z</time>
      </trkpt>
      <trkpt lat="45.91839" lon="2.98269">
        <ele>716.5</ele>
        <time>2024-07-23T09:31:30Z</time>
      </trkpt>
      <trkpt lat="45.9184" lon="2.98269">
        <ele>716.5</ele>
        <time>2024-07-23T09:31:31Z</time>
      </trkpt>
      <trkpt lat="45.91841" lon="2.98269">
        <ele>716.7</ele>
        <time>2024-07-23T09:31:32Z</time>
      </trkpt>
      <trkpt lat="45.91842" lon="2.9827">
        <ele>716.4</ele>
        <time>2024-07-23T09:31:34Z</time>
      </trkpt>
      <trkpt lat="45.91843" lon="2.98269">
        <ele>715.9</ele>
        <time>2024-07-23T09:31:38Z</time>
      </trkpt>
      <trkpt lat="45.91844" lon="2.98269">
        <ele>715.8</ele>
        <time>2024-07-23T09:31:40Z</time>
      </trkpt>
      <trkpt lat="45.91845" lon="2.98269">
        <ele>715.4</ele>
        <time>2024-07-23T09:31:41Z</time>
      </trkpt>
      <trkpt lat="45.91846" lon="2.98269">
        <ele>715.1</ele>
        <time>2024-07-23T09:31:42Z</time>
      </trkpt>
      <trkpt lat="45.91847" lon="2.9827">
        <ele>715.2</ele>
        <time>2024-07-23T09:31:43Z</time>
      </trkpt>
      <trkpt lat="45.91849" lon="2.9827">
        <ele>715.2</ele>
        <time>2024-07-23T09:31:44Z</time>
      </trkpt>
      <trkpt lat="45.9185" lon="2.9827">
        <ele>715.3</ele>
        <time>2024-07-23T09:31:45Z</time>
      </trkpt>
      <trkpt lat="45.91851" lon="2.9827">
        <ele>715.3</ele>
        <time>2024-07-23T09:31:46Z</time>
      </trkpt>
      <trkpt lat="45.91852" lon="2.98271">
        <ele>715.2</ele>
        <time>2024-07-23T09:31:47Z</time>
      </trkpt>
      <trkpt lat="45.91853" lon="2.98271">
        <ele>715</ele>
        <time>2024-07-23T09:31:48Z</time>
      </trkpt>
      <trkpt lat="45.91853" lon="2.98271">
        <ele>715.1</ele>
        <time>2024-07-23T09:31:49Z</time>
      </trkpt>
      <trkpt lat="45.91854" lon="2.98272">
        <ele>715.2</ele>
        <time>2024-07-23T09:31:50Z</time>
      </trkpt>
      <trkpt lat="45.91855" lon="2.98272">
        <ele>715.6</ele>
        <time>2024-07-23T09:31:51Z</time>
      </trkpt>
      <trkpt lat="45.91856" lon="2.98272">
        <ele>716.4</ele>
        <time>2024-07-23T09:31:52Z</time>
      </trkpt>
      <trkpt lat="45.91857" lon="2.98272">
        <ele>716.8</ele>
        <time>2024-07-23T09:31:53Z</time>
      </trkpt>
      <trkpt lat="45.91858" lon="2.98273">
        <ele>716.8</ele>
        <time>2024-07-23T09:31:54Z</time>
      </trkpt>
      <trkpt lat="45.9186" lon="2.98273">
        <ele>717.6</ele>
        <time>2024-07-23T09:31:56Z</time>
      </trkpt>
      <trkpt lat="45.91861" lon="2.98273">
        <ele>717.8</ele>
        <time>2024-07-23T09:31:57Z</time>
      </trkpt>
      <trkpt lat="45.91863" lon="2.98274">
        <ele>717.7</ele>
        <time>2024-07-23T09:31:59Z</time>
      </trkpt>
      <trkpt lat="45.91864" lon="2.98274">
        <ele>717.7</ele>
        <time>2024-07-23T09:32:01Z</time>
      </trkpt>
      <trkpt lat="45.91865" lon="2.98275">
        <ele>717.4</ele>
        <time>2024-07-23T09:32:02Z</time>
      </trkpt>
      <trkpt lat="45.91866" lon="2.98275">
        <ele>717.3</ele>
        <time>2024-07-23T09:32:03Z</time>
      </trkpt>
      <trkpt lat="45.91867" lon="2.98276">
        <ele>717.5</ele>
        <time>2024-07-23T09:32:04Z</time>
      </trkpt>
      <trkpt lat="45.91868" lon="2.98276">
        <ele>718.1</ele>
        <time>2024-07-23T09:32:05Z</time>
      </trkpt>
      <trkpt lat="45.9187" lon="2.98277">
        <ele>719</ele>
        <time>2024-07-23T09:32:07Z</time>
      </trkpt>
      <trkpt lat="45.91871" lon="2.98277">
        <ele>718.8</ele>
        <time>2024-07-23T09:32:09Z</time>
      </trkpt>
      <trkpt lat="45.91872" lon="2.98277">
        <ele>718.5</ele>
        <time>2024-07-23T09:32:10Z</time>
      </trkpt>
      <trkpt lat="45.91873" lon="2.98277">
        <ele>718.2</ele>
        <time>2024-07-23T09:32:11Z</time>
      </trkpt>
      <trkpt lat="45.91874" lon="2.98277">
        <ele>717.7</ele>
        <time>2024-07-23T09:32:12Z</time>
      </trkpt>
      <trkpt lat="45.91875" lon="2.98277">
        <ele>717.2</ele>
        <time>2024-07-23T09:32:13Z</time>
      </trkpt>
      <trkpt lat="45.91876" lon="2.98277">
        <ele>717.1</ele>
        <time>2024-07-23T09:32:14Z</time>
      </trkpt>
      <trkpt lat="45.91877" lon="2.98277">
        <ele>717.4</ele>
        <time>2024-07-23T09:32:15Z</time>
      </trkpt>
      <trkpt lat="45.91878" lon="2.98277">
        <ele>717.6</ele>
        <time>2024-07-23T09:32:16Z</time>
      </trkpt>
      <trkpt lat="45.91879" lon="2.98277">
        <ele>717.5</ele>
        <time>2024-07-23T09:32:17Z</time>
      </trkpt>
      <trkpt lat="45.9188" lon="2.98277">
        <ele>717.3</ele>
        <time>2024-07-23T09:32:18Z</time>
      </trkpt>
      <trkpt lat="45.91881" lon="2.98276">
        <ele>717.7</ele>
        <time>2024-07-23T09:32:19Z</time>
      </trkpt>
      <trkpt lat="45.91882" lon="2.98276">
        <ele>717.9</ele>
        <time>2024-07-23T09:32:20Z</time>
      </trkpt>
      <trkpt lat="45.91883" lon="2.98275">
        <ele>718.1</ele>
        <time>2024-07-23T09:32:21Z</time>
      </trkpt>
      <trkpt lat="45.91884" lon="2.98275">
        <ele>718.2</ele>
        <time>2024-07-23T09:32:22Z</time>
      </trkpt>
      <trkpt lat="45.91885" lon="2.98274">
        <ele>718.2</ele>
        <time>2024-07-23T09:32:23Z</time>
      </trkpt>
      <trkpt lat="45.91886" lon="2.98274">
        <ele>718.5</ele>
        <time>2024-07-23T09:32:24Z</time>
      </trkpt>
      <trkpt lat="45.91887" lon="2.98273">
        <ele>718.5</ele>
        <time>2024-07-23T09:32:25Z</time>
      </trkpt>
      <trkpt lat="45.91888" lon="2.98273">
        <ele>718.3</ele>
        <time>2024-07-23T09:32:26Z</time>
      </trkpt>
      <trkpt lat="45.91889" lon="2.98272">
        <ele>718.5</ele>
        <time>2024-07-23T09:32:27Z</time>
      </trkpt>
      <trkpt lat="45.91891" lon="2.98272">
        <ele>718.6</ele>
        <time>2024-07-23T09:32:28Z</time>
      </trkpt>
      <trkpt lat="45.91891" lon="2.98271">
        <ele>718.7</ele>
        <time>2024-07-23T09:32:29Z</time>
      </trkpt>
      <trkpt lat="45.91893" lon="2.98271">
        <ele>718.6</ele>
        <time>2024-07-23T09:32:30Z</time>
      </trkpt>
      <trkpt lat="45.91894" lon="2.98271">
        <ele>718.4</ele>
        <time>2024-07-23T09:32:31Z</time>
      </trkpt>
      <trkpt lat="45.91895" lon="2.9827">
        <ele>718.6</ele>
        <time>2024-07-23T09:32:32Z</time>
      </trkpt>
      <trkpt lat="45.91897" lon="2.9827">
        <ele>718.7</ele>
        <time>2024-07-23T09:32:34Z</time>
      </trkpt>
      <trkpt lat="45.91898" lon="2.98269">
        <ele>719.4</ele>
        <time>2024-07-23T09:32:36Z</time>
      </trkpt>
      <trkpt lat="45.91899" lon="2.98268">
        <ele>719.2</ele>
        <time>2024-07-23T09:32:37Z</time>
      </trkpt>
      <trkpt lat="45.919" lon="2.98267">
        <ele>719.2</ele>
        <time>2024-07-23T09:32:38Z</time>
      </trkpt>
      <trkpt lat="45.91901" lon="2.98266">
        <ele>719.1</ele>
        <time>2024-07-23T09:32:39Z</time>
      </trkpt>
      <trkpt lat="45.91902" lon="2.98266">
        <ele>718.8</ele>
        <time>2024-07-23T09:32:40Z</time>
      </trkpt>
      <trkpt lat="45.91903" lon="2.98265">
        <ele>718.8</ele>
        <time>2024-07-23T09:32:41Z</time>
      </trkpt>
      <trkpt lat="45.91904" lon="2.98264">
        <ele>718.7</ele>
        <time>2024-07-23T09:32:42Z</time>
      </trkpt>
      <trkpt lat="45.91905" lon="2.98264">
        <ele>718.7</ele>
        <time>2024-07-23T09:32:43Z</time>
      </trkpt>
      <trkpt lat="45.91906" lon="2.98263">
        <ele>719.7</ele>
        <time>2024-07-23T09:32:44Z</time>
      </trkpt>
      <trkpt lat="45.91907" lon="2.98262">
        <ele>720.3</ele>
        <time>2024-07-23T09:32:45Z</time>
      </trkpt>
      <trkpt lat="45.91908" lon="2.98261">
        <ele>720.5</ele>
        <time>2024-07-23T09:32:46Z</time>
      </trkpt>
      <trkpt lat="45.91909" lon="2.9826">
        <ele>720.4</ele>
        <time>2024-07-23T09:32:47Z</time>
      </trkpt>
      <trkpt lat="45.9191" lon="2.9826">
        <ele>720.5</ele>
        <time>2024-07-23T09:32:48Z</time>
      </trkpt>
      <trkpt lat="45.91911" lon="2.98259">
        <ele>720.8</ele>
        <time>2024-07-23T09:32:49Z</time>
      </trkpt>
      <trkpt lat="45.91912" lon="2.98258">
        <ele>720.9</ele>
        <time>2024-07-23T09:32:50Z</time>
      </trkpt>
      <trkpt lat="45.91913" lon="2.98257">
        <ele>721</ele>
        <time>2024-07-23T09:32:51Z</time>
      </trkpt>
      <trkpt lat="45.91914" lon="2.98256">
        <ele>721.1</ele>
        <time>2024-07-23T09:32:52Z</time>
      </trkpt>
      <trkpt lat="45.91915" lon="2.98257">
        <ele>721.3</ele>
        <time>2024-07-23T09:32:53Z</time>
      </trkpt>
      <trkpt lat="45.91916" lon="2.98257">
        <ele>721.5</ele>
        <time>2024-07-23T09:32:54Z</time>
      </trkpt>
      <trkpt lat="45.91917" lon="2.98256">
        <ele>721.6</ele>
        <time>2024-07-23T09:32:55Z</time>
      </trkpt>
      <trkpt lat="45.91918" lon="2.98256">
        <ele>721.9</ele>
        <time>2024-07-23T09:32:56Z</time>
      </trkpt>
      <trkpt lat="45.91919" lon="2.98255">
        <ele>722.2</ele>
        <time>2024-07-23T09:32:57Z</time>
      </trkpt>
      <trkpt lat="45.9192" lon="2.98254">
        <ele>722</ele>
        <time>2024-07-23T09:32:58Z</time>
      </trkpt>
      <trkpt lat="45.91921" lon="2.98253">
        <ele>721.4</ele>
        <time>2024-07-23T09:32:59Z</time>
      </trkpt>
      <trkpt lat="45.91922" lon="2.98253">
        <ele>721.5</ele>
        <time>2024-07-23T09:33:00Z</time>
      </trkpt>
      <trkpt lat="45.91924" lon="2.98252">
        <ele>721.2</ele>
        <time>2024-07-23T09:33:01Z</time>
      </trkpt>
      <trkpt lat="45.91925" lon="2.98251">
        <ele>721.2</ele>
        <time>2024-07-23T09:33:02Z</time>
      </trkpt>
      <trkpt lat="45.91926" lon="2.98251">
        <ele>720.8</ele>
        <time>2024-07-23T09:33:03Z</time>
      </trkpt>
      <trkpt lat="45.91927" lon="2.9825">
        <ele>720.9</ele>
        <time>2024-07-23T09:33:04Z</time>
      </trkpt>
      <trkpt lat="45.91928" lon="2.98249">
        <ele>721.2</ele>
        <time>2024-07-23T09:33:05Z</time>
      </trkpt>
      <trkpt lat="45.91929" lon="2.98248">
        <ele>721.2</ele>
        <time>2024-07-23T09:33:06Z</time>
      </trkpt>
      <trkpt lat="45.9193" lon="2.98248">
        <ele>721.5</ele>
        <time>2024-07-23T09:33:07Z</time>
      </trkpt>
      <trkpt lat="45.91931" lon="2.98247">
        <ele>721.7</ele>
        <time>2024-07-23T09:33:08Z</time>
      </trkpt>
      <trkpt lat="45.91932" lon="2.98247">
        <ele>721.7</ele>
        <time>2024-07-23T09:33:09Z</time>
      </trkpt>
      <trkpt lat="45.91933" lon="2.98247">
        <ele>721.3</ele>
        <time>2024-07-23T09:33:10Z</time>
      </trkpt>
      <trkpt lat="45.91934" lon="2.98247">
        <ele>721.1</ele>
        <time>2024-07-23T09:33:11Z</time>
      </trkpt>
      <trkpt lat="45.91935" lon="2.98246">
        <ele>721</ele>
        <time>2024-07-23T09:33:12Z</time>
      </trkpt>
      <trkpt lat="45.91936" lon="2.98246">
        <ele>721.4</ele>
        <time>2024-07-23T09:33:13Z</time>
      </trkpt>
      <trkpt lat="45.91937" lon="2.98245">
        <ele>720.9</ele>
        <time>2024-07-23T09:33:14Z</time>
      </trkpt>
      <trkpt lat="45.91938" lon="2.98244">
        <ele>720.5</ele>
        <time>2024-07-23T09:33:15Z</time>
      </trkpt>
      <trkpt lat="45.91939" lon="2.98243">
        <ele>720.9</ele>
        <time>2024-07-23T09:33:16Z</time>
      </trkpt>
      <trkpt lat="45.9194" lon="2.98243">
        <ele>720.9</ele>
        <time>2024-07-23T09:33:17Z</time>
      </trkpt>
      <trkpt lat="45.91941" lon="2.98242">
        <ele>720.6</ele>
        <time>2024-07-23T09:33:18Z</time>
      </trkpt>
      <trkpt lat="45.91942" lon="2.98241">
        <ele>720.4</ele>
        <time>2024-07-23T09:33:19Z</time>
      </trkpt>
      <trkpt lat="45.91943" lon="2.98241">
        <ele>720.1</ele>
        <time>2024-07-23T09:33:20Z</time>
      </trkpt>
      <trkpt lat="45.91944" lon="2.9824">
        <ele>719.9</ele>
        <time>2024-07-23T09:33:21Z</time>
      </trkpt>
      <trkpt lat="45.91945" lon="2.98239">
        <ele>719.8</ele>
        <time>2024-07-23T09:33:22Z</time>
      </trkpt>
      <trkpt lat="45.91946" lon="2.98239">
        <ele>719.7</ele>
        <time>2024-07-23T09:33:23Z</time>
      </trkpt>
      <trkpt lat="45.91947" lon="2.98238">
        <ele>719.4</ele>
        <time>2024-07-23T09:33:24Z</time>
      </trkpt>
      <trkpt lat="45.91948" lon="2.98237">
        <ele>719.5</ele>
        <time>2024-07-23T09:33:25Z</time>
      </trkpt>
      <trkpt lat="45.9195" lon="2.98236">
        <ele>719.7</ele>
        <time>2024-07-23T09:33:27Z</time>
      </trkpt>
      <trkpt lat="45.91951" lon="2.98235">
        <ele>720.3</ele>
        <time>2024-07-23T09:33:29Z</time>
      </trkpt>
      <trkpt lat="45.91951" lon="2.98237">
        <ele>720.7</ele>
        <time>2024-07-23T09:33:49Z</time>
      </trkpt>
      <trkpt lat="45.91952" lon="2.98235">
        <ele>720.7</ele>
        <time>2024-07-23T09:34:07Z</time>
      </trkpt>
      <trkpt lat="45.91953" lon="2.98234">
        <ele>720.8</ele>
        <time>2024-07-23T09:34:09Z</time>
      </trkpt>
      <trkpt lat="45.91954" lon="2.98233">
        <ele>720.9</ele>
        <time>2024-07-23T09:34:10Z</time>
      </trkpt>
      <trkpt lat="45.91955" lon="2.98231">
        <ele>722</ele>
        <time>2024-07-23T09:34:12Z</time>
      </trkpt>
      <trkpt lat="45.91956" lon="2.98229">
        <ele>722.5</ele>
        <time>2024-07-23T09:34:14Z</time>
      </trkpt>
      <trkpt lat="45.91957" lon="2.98227">
        <ele>722.7</ele>
        <time>2024-07-23T09:34:16Z</time>
      </trkpt>
      <trkpt lat="45.91958" lon="2.98226">
        <ele>722.9</ele>
        <time>2024-07-23T09:34:18Z</time>
      </trkpt>
      <trkpt lat="45.91959" lon="2.98224">
        <ele>722.6</ele>
        <time>2024-07-23T09:34:20Z</time>
      </trkpt>
      <trkpt lat="45.9196" lon="2.98223">
        <ele>722.6</ele>
        <time>2024-07-23T09:34:21Z</time>
      </trkpt>
      <trkpt lat="45.9196" lon="2.98222">
        <ele>722.2</ele>
        <time>2024-07-23T09:34:22Z</time>
      </trkpt>
      <trkpt lat="45.91961" lon="2.98221">
        <ele>721.8</ele>
        <time>2024-07-23T09:34:23Z</time>
      </trkpt>
      <trkpt lat="45.91961" lon="2.98219">
        <ele>721.5</ele>
        <time>2024-07-23T09:34:24Z</time>
      </trkpt>
      <trkpt lat="45.91962" lon="2.98217">
        <ele>721.4</ele>
        <time>2024-07-23T09:34:26Z</time>
      </trkpt>
      <trkpt lat="45.91962" lon="2.98215">
        <ele>721.6</ele>
        <time>2024-07-23T09:34:27Z</time>
      </trkpt>
      <trkpt lat="45.91962" lon="2.98214">
        <ele>721.2</ele>
        <time>2024-07-23T09:34:28Z</time>
      </trkpt>
      <trkpt lat="45.91962" lon="2.98212">
        <ele>721.4</ele>
        <time>2024-07-23T09:34:30Z</time>
      </trkpt>
      <trkpt lat="45.91962" lon="2.9821">
        <ele>721.2</ele>
        <time>2024-07-23T09:34:32Z</time>
      </trkpt>
      <trkpt lat="45.91962" lon="2.98209">
        <ele>721.1</ele>
        <time>2024-07-23T09:34:33Z</time>
      </trkpt>
      <trkpt lat="45.91962" lon="2.98207">
        <ele>720.2</ele>
        <time>2024-07-23T09:34:35Z</time>
      </trkpt>
      <trkpt lat="45.91961" lon="2.98205">
        <ele>720.1</ele>
        <time>2024-07-23T09:34:37Z</time>
      </trkpt>
      <trkpt lat="45.9196" lon="2.98203">
        <ele>720.6</ele>
        <time>2024-07-23T09:34:39Z</time>
      </trkpt>
      <trkpt lat="45.91959" lon="2.98201">
        <ele>720.5</ele>
        <time>2024-07-23T09:34:41Z</time>
      </trkpt>
      <trkpt lat="45.91959" lon="2.982">
        <ele>720.5</ele>
        <time>2024-07-23T09:34:42Z</time>
      </trkpt>
      <trkpt lat="45.91958" lon="2.98198">
        <ele>720</ele>
        <time>2024-07-23T09:34:44Z</time>
      </trkpt>
      <trkpt lat="45.91957" lon="2.98196">
        <ele>720.1</ele>
        <time>2024-07-23T09:34:46Z</time>
      </trkpt>
      <trkpt lat="45.91955" lon="2.98195">
        <ele>720.4</ele>
        <time>2024-07-23T09:34:48Z</time>
      </trkpt>
      <trkpt lat="45.91954" lon="2.98193">
        <ele>720.7</ele>
        <time>2024-07-23T09:34:50Z</time>
      </trkpt>
      <trkpt lat="45.91953" lon="2.98192">
        <ele>720.7</ele>
        <time>2024-07-23T09:34:52Z</time>
      </trkpt>
      <trkpt lat="45.91951" lon="2.9819">
        <ele>721</ele>
        <time>2024-07-23T09:34:54Z</time>
      </trkpt>
      <trkpt lat="45.9195" lon="2.9819">
        <ele>721.4</ele>
        <time>2024-07-23T09:34:56Z</time>
      </trkpt>
      <trkpt lat="45.91949" lon="2.98189">
        <ele>721.2</ele>
        <time>2024-07-23T09:34:57Z</time>
      </trkpt>
      <trkpt lat="45.91948" lon="2.98189">
        <ele>721.3</ele>
        <time>2024-07-23T09:34:59Z</time>
      </trkpt>
      <trkpt lat="45.91947" lon="2.9819">
        <ele>720.2</ele>
        <time>2024-07-23T09:36:42Z</time>
      </trkpt>
      <trkpt lat="45.91946" lon="2.98189">
        <ele>720.3</ele>
        <time>2024-07-23T09:37:28Z</time>
      </trkpt>
      <trkpt lat="45.91944" lon="2.98188">
        <ele>720.8</ele>
        <time>2024-07-23T09:37:30Z</time>
      </trkpt>
      <trkpt lat="45.91943" lon="2.98187">
        <ele>721</ele>
        <time>2024-07-23T09:37:32Z</time>
      </trkpt>
      <trkpt lat="45.91942" lon="2.98186">
        <ele>721.7</ele>
        <time>2024-07-23T09:37:34Z</time>
      </trkpt>
      <trkpt lat="45.91941" lon="2.98185">
        <ele>721.8</ele>
        <time>2024-07-23T09:37:36Z</time>
      </trkpt>
      <trkpt lat="45.9194" lon="2.98184">
        <ele>721.7</ele>
        <time>2024-07-23T09:37:38Z</time>
      </trkpt>
      <trkpt lat="45.91939" lon="2.98183">
        <ele>721.5</ele>
        <time>2024-07-23T09:37:40Z</time>
      </trkpt>
      <trkpt lat="45.91938" lon="2.98182">
        <ele>721.6</ele>
        <time>2024-07-23T09:37:42Z</time>
      </trkpt>
      <trkpt lat="45.91936" lon="2.98181">
        <ele>721.7</ele>
        <time>2024-07-23T09:37:44Z</time>
      </trkpt>
      <trkpt lat="45.91935" lon="2.9818">
        <ele>722.4</ele>
        <time>2024-07-23T09:37:46Z</time>
      </trkpt>
      <trkpt lat="45.91934" lon="2.98179">
        <ele>722.3</ele>
        <time>2024-07-23T09:37:48Z</time>
      </trkpt>
      <trkpt lat="45.91932" lon="2.98178">
        <ele>722.2</ele>
        <time>2024-07-23T09:37:50Z</time>
      </trkpt>
      <trkpt lat="45.9193" lon="2.98178">
        <ele>722.3</ele>
        <time>2024-07-23T09:37:52Z</time>
      </trkpt>
      <trkpt lat="45.91929" lon="2.98177">
        <ele>722.3</ele>
        <time>2024-07-23T09:37:54Z</time>
      </trkpt>
      <trkpt lat="45.91927" lon="2.98176">
        <ele>722.2</ele>
        <time>2024-07-23T09:37:56Z</time>
      </trkpt>
      <trkpt lat="45.91926" lon="2.98175">
        <ele>722.3</ele>
        <time>2024-07-23T09:37:58Z</time>
      </trkpt>
      <trkpt lat="45.91924" lon="2.98175">
        <ele>722.3</ele>
        <time>2024-07-23T09:38:00Z</time>
      </trkpt>
      <trkpt lat="45.91923" lon="2.98174">
        <ele>722.4</ele>
        <time>2024-07-23T09:38:02Z</time>
      </trkpt>
      <trkpt lat="45.91921" lon="2.98173">
        <ele>723.1</ele>
        <time>2024-07-23T09:38:04Z</time>
      </trkpt>
      <trkpt lat="45.9192" lon="2.98171">
        <ele>723.5</ele>
        <time>2024-07-23T09:38:06Z</time>
      </trkpt>
      <trkpt lat="45.91918" lon="2.9817">
        <ele>723.7</ele>
        <time>2024-07-23T09:38:08Z</time>
      </trkpt>
      <trkpt lat="45.91917" lon="2.98169">
        <ele>723.7</ele>
        <time>2024-07-23T09:38:10Z</time>
      </trkpt>
      <trkpt lat="45.91916" lon="2.98167">
        <ele>724</ele>
        <time>2024-07-23T09:38:12Z</time>
      </trkpt>
      <trkpt lat="45.91914" lon="2.98166">
        <ele>724.2</ele>
        <time>2024-07-23T09:38:14Z</time>
      </trkpt>
      <trkpt lat="45.91913" lon="2.98165">
        <ele>724.3</ele>
        <time>2024-07-23T09:38:15Z</time>
      </trkpt>
      <trkpt lat="45.91913" lon="2.98164">
        <ele>724.6</ele>
        <time>2024-07-23T09:38:16Z</time>
      </trkpt>
      <trkpt lat="45.91912" lon="2.98163">
        <ele>724.7</ele>
        <time>2024-07-23T09:38:17Z</time>
      </trkpt>
      <trkpt lat="45.91911" lon="2.98163">
        <ele>724.7</ele>
        <time>2024-07-23T09:38:18Z</time>
      </trkpt>
      <trkpt lat="45.91911" lon="2.98162">
        <ele>724.8</ele>
        <time>2024-07-23T09:38:19Z</time>
      </trkpt>
      <trkpt lat="45.9191" lon="2.98161">
        <ele>724.6</ele>
        <time>2024-07-23T09:38:20Z</time>
      </trkpt>
      <trkpt lat="45.91909" lon="2.98159">
        <ele>724.7</ele>
        <time>2024-07-23T09:38:22Z</time>
      </trkpt>
      <trkpt lat="45.91908" lon="2.98158">
        <ele>724.8</ele>
        <time>2024-07-23T09:38:23Z</time>
      </trkpt>
      <trkpt lat="45.91907" lon="2.98157">
        <ele>725.1</ele>
        <time>2024-07-23T09:38:24Z</time>
      </trkpt>
      <trkpt lat="45.91907" lon="2.98156">
        <ele>725.4</ele>
        <time>2024-07-23T09:38:25Z</time>
      </trkpt>
      <trkpt lat="45.91906" lon="2.98155">
        <ele>725.2</ele>
        <time>2024-07-23T09:38:26Z</time>
      </trkpt>
      <trkpt lat="45.91905" lon="2.98154">
        <ele>725.3</ele>
        <time>2024-07-23T09:38:27Z</time>
      </trkpt>
      <trkpt lat="45.91905" lon="2.98153">
        <ele>725.2</ele>
        <time>2024-07-23T09:38:28Z</time>
      </trkpt>
      <trkpt lat="45.91903" lon="2.98151">
        <ele>725.6</ele>
        <time>2024-07-23T09:38:30Z</time>
      </trkpt>
      <trkpt lat="45.91903" lon="2.98149">
        <ele>725.6</ele>
        <time>2024-07-23T09:38:32Z</time>
      </trkpt>
      <trkpt lat="45.91902" lon="2.98148">
        <ele>725.7</ele>
        <time>2024-07-23T09:38:33Z</time>
      </trkpt>
      <trkpt lat="45.91902" lon="2.98147">
        <ele>725.6</ele>
        <time>2024-07-23T09:38:34Z</time>
      </trkpt>
      <trkpt lat="45.91901" lon="2.98146">
        <ele>725.8</ele>
        <time>2024-07-23T09:38:35Z</time>
      </trkpt>
      <trkpt lat="45.919" lon="2.98145">
        <ele>725.8</ele>
        <time>2024-07-23T09:38:36Z</time>
      </trkpt>
      <trkpt lat="45.91899" lon="2.98144">
        <ele>726.3</ele>
        <time>2024-07-23T09:38:38Z</time>
      </trkpt>
      <trkpt lat="45.91898" lon="2.98143">
        <ele>726.3</ele>
        <time>2024-07-23T09:38:39Z</time>
      </trkpt>
      <trkpt lat="45.91897" lon="2.98142">
        <ele>726.6</ele>
        <time>2024-07-23T09:38:40Z</time>
      </trkpt>
      <trkpt lat="45.91897" lon="2.98141">
        <ele>726.5</ele>
        <time>2024-07-23T09:38:41Z</time>
      </trkpt>
      <trkpt lat="45.91896" lon="2.9814">
        <ele>726.5</ele>
        <time>2024-07-23T09:38:42Z</time>
      </trkpt>
      <trkpt lat="45.91895" lon="2.98139">
        <ele>726.5</ele>
        <time>2024-07-23T09:38:43Z</time>
      </trkpt>
      <trkpt lat="45.91895" lon="2.98138">
        <ele>726.7</ele>
        <time>2024-07-23T09:38:44Z</time>
      </trkpt>
      <trkpt lat="45.91894" lon="2.98137">
        <ele>726.7</ele>
        <time>2024-07-23T09:38:45Z</time>
      </trkpt>
      <trkpt lat="45.91893" lon="2.98136">
        <ele>726.8</ele>
        <time>2024-07-23T09:38:46Z</time>
      </trkpt>
      <trkpt lat="45.91893" lon="2.98135">
        <ele>726.5</ele>
        <time>2024-07-23T09:38:47Z</time>
      </trkpt>
      <trkpt lat="45.91892" lon="2.98134">
        <ele>726.6</ele>
        <time>2024-07-23T09:38:48Z</time>
      </trkpt>
      <trkpt lat="45.91891" lon="2.98133">
        <ele>726.7</ele>
        <time>2024-07-23T09:38:49Z</time>
      </trkpt>
      <trkpt lat="45.91891" lon="2.98132">
        <ele>726.2</ele>
        <time>2024-07-23T09:38:50Z</time>
      </trkpt>
      <trkpt lat="45.9189" lon="2.98131">
        <ele>726.7</ele>
        <time>2024-07-23T09:38:51Z</time>
      </trkpt>
      <trkpt lat="45.91889" lon="2.9813">
        <ele>726.8</ele>
        <time>2024-07-23T09:38:52Z</time>
      </trkpt>
      <trkpt lat="45.91889" lon="2.98129">
        <ele>726.8</ele>
        <time>2024-07-23T09:38:53Z</time>
      </trkpt>
      <trkpt lat="45.91888" lon="2.98128">
        <ele>726.9</ele>
        <time>2024-07-23T09:38:54Z</time>
      </trkpt>
      <trkpt lat="45.91887" lon="2.98127">
        <ele>727</ele>
        <time>2024-07-23T09:38:55Z</time>
      </trkpt>
      <trkpt lat="45.91887" lon="2.98126">
        <ele>726.8</ele>
        <time>2024-07-23T09:38:56Z</time>
      </trkpt>
      <trkpt lat="45.91886" lon="2.98125">
        <ele>727.1</ele>
        <time>2024-07-23T09:38:57Z</time>
      </trkpt>
      <trkpt lat="45.91885" lon="2.98124">
        <ele>727.1</ele>
        <time>2024-07-23T09:38:58Z</time>
      </trkpt>
      <trkpt lat="45.91884" lon="2.98123">
        <ele>727.3</ele>
        <time>2024-07-23T09:38:59Z</time>
      </trkpt>
      <trkpt lat="45.91884" lon="2.98122">
        <ele>727.2</ele>
        <time>2024-07-23T09:39:00Z</time>
      </trkpt>
      <trkpt lat="45.91883" lon="2.98121">
        <ele>727.5</ele>
        <time>2024-07-23T09:39:01Z</time>
      </trkpt>
      <trkpt lat="45.91882" lon="2.9812">
        <ele>727.7</ele>
        <time>2024-07-23T09:39:02Z</time>
      </trkpt>
      <trkpt lat="45.91882" lon="2.98119">
        <ele>727.9</ele>
        <time>2024-07-23T09:39:03Z</time>
      </trkpt>
      <trkpt lat="45.91881" lon="2.98118">
        <ele>728.1</ele>
        <time>2024-07-23T09:39:04Z</time>
      </trkpt>
      <trkpt lat="45.9188" lon="2.98117">
        <ele>728.2</ele>
        <time>2024-07-23T09:39:05Z</time>
      </trkpt>
      <trkpt lat="45.91879" lon="2.98115">
        <ele>728.1</ele>
        <time>2024-07-23T09:39:07Z</time>
      </trkpt>
      <trkpt lat="45.91879" lon="2.98114">
        <ele>728.3</ele>
        <time>2024-07-23T09:39:08Z</time>
      </trkpt>
      <trkpt lat="45.91878" lon="2.98113">
        <ele>728.3</ele>
        <time>2024-07-23T09:39:09Z</time>
      </trkpt>
      <trkpt lat="45.91877" lon="2.98112">
        <ele>728.3</ele>
        <time>2024-07-23T09:39:10Z</time>
      </trkpt>
      <trkpt lat="45.91876" lon="2.98111">
        <ele>728.1</ele>
        <time>2024-07-23T09:39:11Z</time>
      </trkpt>
      <trkpt lat="45.91876" lon="2.9811">
        <ele>728.1</ele>
        <time>2024-07-23T09:39:12Z</time>
      </trkpt>
      <trkpt lat="45.91875" lon="2.98109">
        <ele>727.9</ele>
        <time>2024-07-23T09:39:13Z</time>
      </trkpt>
      <trkpt lat="45.91874" lon="2.98108">
        <ele>727.7</ele>
        <time>2024-07-23T09:39:14Z</time>
      </trkpt>
      <trkpt lat="45.91873" lon="2.98108">
        <ele>727.6</ele>
        <time>2024-07-23T09:39:15Z</time>
      </trkpt>
      <trkpt lat="45.91873" lon="2.98106">
        <ele>727.5</ele>
        <time>2024-07-23T09:39:16Z</time>
      </trkpt>
      <trkpt lat="45.91872" lon="2.98105">
        <ele>727.5</ele>
        <time>2024-07-23T09:39:17Z</time>
      </trkpt>
      <trkpt lat="45.91871" lon="2.98104">
        <ele>727.5</ele>
        <time>2024-07-23T09:39:18Z</time>
      </trkpt>
      <trkpt lat="45.91871" lon="2.98103">
        <ele>727.3</ele>
        <time>2024-07-23T09:39:19Z</time>
      </trkpt>
      <trkpt lat="45.9187" lon="2.98102">
        <ele>727.3</ele>
        <time>2024-07-23T09:39:20Z</time>
      </trkpt>
      <trkpt lat="45.91869" lon="2.98101">
        <ele>727.5</ele>
        <time>2024-07-23T09:39:21Z</time>
      </trkpt>
      <trkpt lat="45.91869" lon="2.981">
        <ele>727.5</ele>
        <time>2024-07-23T09:39:22Z</time>
      </trkpt>
      <trkpt lat="45.91868" lon="2.98099">
        <ele>727.6</ele>
        <time>2024-07-23T09:39:23Z</time>
      </trkpt>
      <trkpt lat="45.91868" lon="2.98098">
        <ele>727.6</ele>
        <time>2024-07-23T09:39:24Z</time>
      </trkpt>
      <trkpt lat="45.91867" lon="2.98097">
        <ele>727.3</ele>
        <time>2024-07-23T09:39:25Z</time>
      </trkpt>
      <trkpt lat="45.91867" lon="2.98095">
        <ele>727.4</ele>
        <time>2024-07-23T09:39:26Z</time>
      </trkpt>
      <trkpt lat="45.91866" lon="2.98094">
        <ele>727.5</ele>
        <time>2024-07-23T09:39:27Z</time>
      </trkpt>
      <trkpt lat="45.91865" lon="2.98093">
        <ele>727.6</ele>
        <time>2024-07-23T09:39:28Z</time>
      </trkpt>
      <trkpt lat="45.91865" lon="2.98092">
        <ele>727.5</ele>
        <time>2024-07-23T09:39:29Z</time>
      </trkpt>
      <trkpt lat="45.91864" lon="2.9809">
        <ele>727.6</ele>
        <time>2024-07-23T09:39:31Z</time>
      </trkpt>
      <trkpt lat="45.91863" lon="2.98088">
        <ele>727.5</ele>
        <time>2024-07-23T09:39:33Z</time>
      </trkpt>
      <trkpt lat="45.91862" lon="2.98087">
        <ele>728.1</ele>
        <time>2024-07-23T09:39:34Z</time>
      </trkpt>
      <trkpt lat="45.91861" lon="2.98084">
        <ele>728.4</ele>
        <time>2024-07-23T09:39:36Z</time>
      </trkpt>
      <trkpt lat="45.91861" lon="2.98083">
        <ele>728.5</ele>
        <time>2024-07-23T09:39:37Z</time>
      </trkpt>
      <trkpt lat="45.9186" lon="2.98082">
        <ele>728.4</ele>
        <time>2024-07-23T09:39:38Z</time>
      </trkpt>
      <trkpt lat="45.9186" lon="2.9808">
        <ele>728.6</ele>
        <time>2024-07-23T09:39:39Z</time>
      </trkpt>
      <trkpt lat="45.91859" lon="2.98079">
        <ele>728.6</ele>
        <time>2024-07-23T09:39:40Z</time>
      </trkpt>
      <trkpt lat="45.91859" lon="2.98078">
        <ele>728.3</ele>
        <time>2024-07-23T09:39:41Z</time>
      </trkpt>
      <trkpt lat="45.91858" lon="2.98077">
        <ele>728.5</ele>
        <time>2024-07-23T09:39:42Z</time>
      </trkpt>
      <trkpt lat="45.91858" lon="2.98075">
        <ele>728.4</ele>
        <time>2024-07-23T09:39:43Z</time>
      </trkpt>
      <trkpt lat="45.91857" lon="2.98074">
        <ele>728.3</ele>
        <time>2024-07-23T09:39:44Z</time>
      </trkpt>
      <trkpt lat="45.91856" lon="2.98073">
        <ele>728.4</ele>
        <time>2024-07-23T09:39:45Z</time>
      </trkpt>
      <trkpt lat="45.91856" lon="2.98072">
        <ele>728.4</ele>
        <time>2024-07-23T09:39:46Z</time>
      </trkpt>
      <trkpt lat="45.91855" lon="2.98071">
        <ele>728.3</ele>
        <time>2024-07-23T09:39:47Z</time>
      </trkpt>
      <trkpt lat="45.91855" lon="2.98069">
        <ele>728.4</ele>
        <time>2024-07-23T09:39:48Z</time>
      </trkpt>
      <trkpt lat="45.91854" lon="2.98068">
        <ele>728.4</ele>
        <time>2024-07-23T09:39:49Z</time>
      </trkpt>
      <trkpt lat="45.91854" lon="2.98067">
        <ele>728.3</ele>
        <time>2024-07-23T09:39:50Z</time>
      </trkpt>
      <trkpt lat="45.91853" lon="2.98066">
        <ele>728.4</ele>
        <time>2024-07-23T09:39:51Z</time>
      </trkpt>
      <trkpt lat="45.91853" lon="2.98064">
        <ele>728.2</ele>
        <time>2024-07-23T09:39:52Z</time>
      </trkpt>
      <trkpt lat="45.91852" lon="2.98063">
        <ele>728</ele>
        <time>2024-07-23T09:39:53Z</time>
      </trkpt>
      <trkpt lat="45.91852" lon="2.98062">
        <ele>728.1</ele>
        <time>2024-07-23T09:39:54Z</time>
      </trkpt>
      <trkpt lat="45.91852" lon="2.98061">
        <ele>728.4</ele>
        <time>2024-07-23T09:39:55Z</time>
      </trkpt>
      <trkpt lat="45.91851" lon="2.9806">
        <ele>728.2</ele>
        <time>2024-07-23T09:39:56Z</time>
      </trkpt>
      <trkpt lat="45.91851" lon="2.98058">
        <ele>727.9</ele>
        <time>2024-07-23T09:39:57Z</time>
      </trkpt>
      <trkpt lat="45.9185" lon="2.98057">
        <ele>728.2</ele>
        <time>2024-07-23T09:39:58Z</time>
      </trkpt>
      <trkpt lat="45.9185" lon="2.98056">
        <ele>728.2</ele>
        <time>2024-07-23T09:39:59Z</time>
      </trkpt>
      <trkpt lat="45.91849" lon="2.98054">
        <ele>728.5</ele>
        <time>2024-07-23T09:40:01Z</time>
      </trkpt>
      <trkpt lat="45.91849" lon="2.98052">
        <ele>728.7</ele>
        <time>2024-07-23T09:40:02Z</time>
      </trkpt>
      <trkpt lat="45.91848" lon="2.9805">
        <ele>728.5</ele>
        <time>2024-07-23T09:40:04Z</time>
      </trkpt>
      <trkpt lat="45.91848" lon="2.98048">
        <ele>728.2</ele>
        <time>2024-07-23T09:40:06Z</time>
      </trkpt>
      <trkpt lat="45.91847" lon="2.98046">
        <ele>727.5</ele>
        <time>2024-07-23T09:40:08Z</time>
      </trkpt>
      <trkpt lat="45.91846" lon="2.98044">
        <ele>727.3</ele>
        <time>2024-07-23T09:40:10Z</time>
      </trkpt>
      <trkpt lat="45.91845" lon="2.98041">
        <ele>728.3</ele>
        <time>2024-07-23T09:40:12Z</time>
      </trkpt>
      <trkpt lat="45.91845" lon="2.98039">
        <ele>728.8</ele>
        <time>2024-07-23T09:40:14Z</time>
      </trkpt>
      <trkpt lat="45.91844" lon="2.98037">
        <ele>728.7</ele>
        <time>2024-07-23T09:40:16Z</time>
      </trkpt>
      <trkpt lat="45.91843" lon="2.98036">
        <ele>728.7</ele>
        <time>2024-07-23T09:40:17Z</time>
      </trkpt>
      <trkpt lat="45.91842" lon="2.98034">
        <ele>728.6</ele>
        <time>2024-07-23T09:40:19Z</time>
      </trkpt>
      <trkpt lat="45.91842" lon="2.98031">
        <ele>728.7</ele>
        <time>2024-07-23T09:40:21Z</time>
      </trkpt>
      <trkpt lat="45.91841" lon="2.9803">
        <ele>729</ele>
        <time>2024-07-23T09:40:22Z</time>
      </trkpt>
      <trkpt lat="45.91841" lon="2.98029">
        <ele>729.2</ele>
        <time>2024-07-23T09:40:23Z</time>
      </trkpt>
      <trkpt lat="45.9184" lon="2.98026">
        <ele>729.2</ele>
        <time>2024-07-23T09:40:25Z</time>
      </trkpt>
      <trkpt lat="45.9184" lon="2.98025">
        <ele>729.1</ele>
        <time>2024-07-23T09:40:26Z</time>
      </trkpt>
      <trkpt lat="45.9184" lon="2.98024">
        <ele>728.6</ele>
        <time>2024-07-23T09:40:27Z</time>
      </trkpt>
      <trkpt lat="45.91839" lon="2.98022">
        <ele>728.7</ele>
        <time>2024-07-23T09:40:29Z</time>
      </trkpt>
      <trkpt lat="45.91838" lon="2.98019">
        <ele>728.8</ele>
        <time>2024-07-23T09:40:32Z</time>
      </trkpt>
      <trkpt lat="45.91837" lon="2.98017">
        <ele>728.5</ele>
        <time>2024-07-23T09:40:34Z</time>
      </trkpt>
      <trkpt lat="45.91836" lon="2.98015">
        <ele>727.4</ele>
        <time>2024-07-23T09:40:36Z</time>
      </trkpt>
      <trkpt lat="45.91835" lon="2.98014">
        <ele>727.4</ele>
        <time>2024-07-23T09:40:37Z</time>
      </trkpt>
      <trkpt lat="45.91834" lon="2.98013">
        <ele>727.2</ele>
        <time>2024-07-23T09:40:38Z</time>
      </trkpt>
      <trkpt lat="45.91834" lon="2.98011">
        <ele>727.6</ele>
        <time>2024-07-23T09:40:39Z</time>
      </trkpt>
      <trkpt lat="45.91833" lon="2.9801">
        <ele>727.9</ele>
        <time>2024-07-23T09:40:40Z</time>
      </trkpt>
      <trkpt lat="45.91833" lon="2.98009">
        <ele>728.3</ele>
        <time>2024-07-23T09:40:41Z</time>
      </trkpt>
      <trkpt lat="45.91833" lon="2.98008">
        <ele>728.3</ele>
        <time>2024-07-23T09:40:42Z</time>
      </trkpt>
      <trkpt lat="45.91832" lon="2.98006">
        <ele>728.2</ele>
        <time>2024-07-23T09:40:43Z</time>
      </trkpt>
      <trkpt lat="45.91832" lon="2.98005">
        <ele>728.8</ele>
        <time>2024-07-23T09:40:44Z</time>
      </trkpt>
      <trkpt lat="45.91831" lon="2.98004">
        <ele>728.6</ele>
        <time>2024-07-23T09:40:45Z</time>
      </trkpt>
      <trkpt lat="45.91831" lon="2.98002">
        <ele>729.1</ele>
        <time>2024-07-23T09:40:47Z</time>
      </trkpt>
      <trkpt lat="45.9183" lon="2.98001">
        <ele>729.6</ele>
        <time>2024-07-23T09:40:48Z</time>
      </trkpt>
      <trkpt lat="45.9183" lon="2.98">
        <ele>729.8</ele>
        <time>2024-07-23T09:40:49Z</time>
      </trkpt>
      <trkpt lat="45.9183" lon="2.97998">
        <ele>729.7</ele>
        <time>2024-07-23T09:40:50Z</time>
      </trkpt>
      <trkpt lat="45.91829" lon="2.97996">
        <ele>730.4</ele>
        <time>2024-07-23T09:40:52Z</time>
      </trkpt>
      <trkpt lat="45.91828" lon="2.97994">
        <ele>730.3</ele>
        <time>2024-07-23T09:40:54Z</time>
      </trkpt>
      <trkpt lat="45.91827" lon="2.97992">
        <ele>730.2</ele>
        <time>2024-07-23T09:40:56Z</time>
      </trkpt>
      <trkpt lat="45.91827" lon="2.9799">
        <ele>730.7</ele>
        <time>2024-07-23T09:40:58Z</time>
      </trkpt>
      <trkpt lat="45.91826" lon="2.97988">
        <ele>731.7</ele>
        <time>2024-07-23T09:41:00Z</time>
      </trkpt>
      <trkpt lat="45.91825" lon="2.97985">
        <ele>731.9</ele>
        <time>2024-07-23T09:41:02Z</time>
      </trkpt>
      <trkpt lat="45.91825" lon="2.97984">
        <ele>731.8</ele>
        <time>2024-07-23T09:41:03Z</time>
      </trkpt>
      <trkpt lat="45.91824" lon="2.97982">
        <ele>732.4</ele>
        <time>2024-07-23T09:41:05Z</time>
      </trkpt>
      <trkpt lat="45.91823" lon="2.9798">
        <ele>732.5</ele>
        <time>2024-07-23T09:41:07Z</time>
      </trkpt>
      <trkpt lat="45.91822" lon="2.97979">
        <ele>732.9</ele>
        <time>2024-07-23T09:41:09Z</time>
      </trkpt>
      <trkpt lat="45.91821" lon="2.97976">
        <ele>733</ele>
        <time>2024-07-23T09:41:11Z</time>
      </trkpt>
      <trkpt lat="45.91821" lon="2.97974">
        <ele>733.5</ele>
        <time>2024-07-23T09:41:13Z</time>
      </trkpt>
      <trkpt lat="45.9182" lon="2.97972">
        <ele>734.2</ele>
        <time>2024-07-23T09:41:15Z</time>
      </trkpt>
      <trkpt lat="45.91819" lon="2.9797">
        <ele>734.7</ele>
        <time>2024-07-23T09:41:17Z</time>
      </trkpt>
      <trkpt lat="45.91818" lon="2.97968">
        <ele>734.4</ele>
        <time>2024-07-23T09:41:19Z</time>
      </trkpt>
      <trkpt lat="45.91818" lon="2.97967">
        <ele>734.7</ele>
        <time>2024-07-23T09:41:20Z</time>
      </trkpt>
      <trkpt lat="45.91817" lon="2.97966">
        <ele>735.1</ele>
        <time>2024-07-23T09:41:21Z</time>
      </trkpt>
      <trkpt lat="45.91817" lon="2.97964">
        <ele>735.2</ele>
        <time>2024-07-23T09:41:22Z</time>
      </trkpt>
      <trkpt lat="45.91816" lon="2.97962">
        <ele>735.3</ele>
        <time>2024-07-23T09:41:24Z</time>
      </trkpt>
      <trkpt lat="45.91815" lon="2.97961">
        <ele>735.2</ele>
        <time>2024-07-23T09:41:25Z</time>
      </trkpt>
      <trkpt lat="45.91815" lon="2.97959">
        <ele>735.2</ele>
        <time>2024-07-23T09:41:27Z</time>
      </trkpt>
      <trkpt lat="45.91814" lon="2.97956">
        <ele>735.4</ele>
        <time>2024-07-23T09:41:29Z</time>
      </trkpt>
      <trkpt lat="45.91813" lon="2.97954">
        <ele>735.1</ele>
        <time>2024-07-23T09:41:31Z</time>
      </trkpt>
      <trkpt lat="45.91812" lon="2.97952">
        <ele>734.3</ele>
        <time>2024-07-23T09:41:33Z</time>
      </trkpt>
      <trkpt lat="45.91812" lon="2.9795">
        <ele>734.7</ele>
        <time>2024-07-23T09:41:35Z</time>
      </trkpt>
      <trkpt lat="45.91811" lon="2.97947">
        <ele>734.5</ele>
        <time>2024-07-23T09:41:37Z</time>
      </trkpt>
      <trkpt lat="45.9181" lon="2.97945">
        <ele>734.9</ele>
        <time>2024-07-23T09:41:39Z</time>
      </trkpt>
      <trkpt lat="45.91809" lon="2.97943">
        <ele>734.7</ele>
        <time>2024-07-23T09:41:41Z</time>
      </trkpt>
      <trkpt lat="45.91809" lon="2.97941">
        <ele>734.8</ele>
        <time>2024-07-23T09:41:43Z</time>
      </trkpt>
      <trkpt lat="45.91808" lon="2.97938">
        <ele>735.4</ele>
        <time>2024-07-23T09:41:45Z</time>
      </trkpt>
      <trkpt lat="45.91808" lon="2.97936">
        <ele>735.6</ele>
        <time>2024-07-23T09:41:47Z</time>
      </trkpt>
      <trkpt lat="45.91807" lon="2.97934">
        <ele>736</ele>
        <time>2024-07-23T09:41:49Z</time>
      </trkpt>
      <trkpt lat="45.91807" lon="2.97932">
        <ele>736.7</ele>
        <time>2024-07-23T09:41:51Z</time>
      </trkpt>
      <trkpt lat="45.91806" lon="2.9793">
        <ele>736.8</ele>
        <time>2024-07-23T09:41:53Z</time>
      </trkpt>
      <trkpt lat="45.91806" lon="2.97927">
        <ele>736.8</ele>
        <time>2024-07-23T09:41:55Z</time>
      </trkpt>
      <trkpt lat="45.91805" lon="2.97926">
        <ele>736.6</ele>
        <time>2024-07-23T09:41:56Z</time>
      </trkpt>
      <trkpt lat="45.91805" lon="2.97925">
        <ele>736.5</ele>
        <time>2024-07-23T09:41:57Z</time>
      </trkpt>
      <trkpt lat="45.91805" lon="2.97923">
        <ele>736.6</ele>
        <time>2024-07-23T09:41:59Z</time>
      </trkpt>
      <trkpt lat="45.91804" lon="2.9792">
        <ele>736.2</ele>
        <time>2024-07-23T09:42:01Z</time>
      </trkpt>
      <trkpt lat="45.91804" lon="2.97918">
        <ele>736.3</ele>
        <time>2024-07-23T09:42:03Z</time>
      </trkpt>
      <trkpt lat="45.91804" lon="2.97917">
        <ele>737</ele>
        <time>2024-07-23T09:42:18Z</time>
      </trkpt>
      <trkpt lat="45.91803" lon="2.97916">
        <ele>737</ele>
        <time>2024-07-23T09:42:20Z</time>
      </trkpt>
      <trkpt lat="45.91803" lon="2.97914">
        <ele>737.4</ele>
        <time>2024-07-23T09:42:22Z</time>
      </trkpt>
      <trkpt lat="45.91802" lon="2.97912">
        <ele>737.5</ele>
        <time>2024-07-23T09:42:24Z</time>
      </trkpt>
      <trkpt lat="45.91802" lon="2.9791">
        <ele>738</ele>
        <time>2024-07-23T09:42:26Z</time>
      </trkpt>
      <trkpt lat="45.91801" lon="2.97908">
        <ele>738.5</ele>
        <time>2024-07-23T09:42:28Z</time>
      </trkpt>
      <trkpt lat="45.91801" lon="2.97907">
        <ele>738.5</ele>
        <time>2024-07-23T09:42:30Z</time>
      </trkpt>
      <trkpt lat="45.918" lon="2.97905">
        <ele>738.6</ele>
        <time>2024-07-23T09:42:32Z</time>
      </trkpt>
      <trkpt lat="45.918" lon="2.97903">
        <ele>739</ele>
        <time>2024-07-23T09:42:34Z</time>
      </trkpt>
      <trkpt lat="45.91799" lon="2.979">
        <ele>739.5</ele>
        <time>2024-07-23T09:42:37Z</time>
      </trkpt>
      <trkpt lat="45.91798" lon="2.97898">
        <ele>739.6</ele>
        <time>2024-07-23T09:42:39Z</time>
      </trkpt>
      <trkpt lat="45.91797" lon="2.97896">
        <ele>739.9</ele>
        <time>2024-07-23T09:42:41Z</time>
      </trkpt>
      <trkpt lat="45.91797" lon="2.97893">
        <ele>740.3</ele>
        <time>2024-07-23T09:42:44Z</time>
      </trkpt>
      <trkpt lat="45.91796" lon="2.97891">
        <ele>740.1</ele>
        <time>2024-07-23T09:42:46Z</time>
      </trkpt>
      <trkpt lat="45.91795" lon="2.97889">
        <ele>739.8</ele>
        <time>2024-07-23T09:42:48Z</time>
      </trkpt>
      <trkpt lat="45.91795" lon="2.97887">
        <ele>740.4</ele>
        <time>2024-07-23T09:42:50Z</time>
      </trkpt>
      <trkpt lat="45.91794" lon="2.97885">
        <ele>741</ele>
        <time>2024-07-23T09:42:52Z</time>
      </trkpt>
      <trkpt lat="45.91793" lon="2.97883">
        <ele>740.1</ele>
        <time>2024-07-23T09:42:54Z</time>
      </trkpt>
      <trkpt lat="45.91793" lon="2.97882">
        <ele>740.3</ele>
        <time>2024-07-23T09:42:55Z</time>
      </trkpt>
      <trkpt lat="45.91792" lon="2.9788">
        <ele>740.9</ele>
        <time>2024-07-23T09:42:57Z</time>
      </trkpt>
      <trkpt lat="45.91791" lon="2.97878">
        <ele>741.2</ele>
        <time>2024-07-23T09:42:59Z</time>
      </trkpt>
      <trkpt lat="45.91791" lon="2.97876">
        <ele>741</ele>
        <time>2024-07-23T09:43:01Z</time>
      </trkpt>
      <trkpt lat="45.9179" lon="2.97874">
        <ele>741.6</ele>
        <time>2024-07-23T09:43:03Z</time>
      </trkpt>
      <trkpt lat="45.91789" lon="2.97872">
        <ele>742</ele>
        <time>2024-07-23T09:43:05Z</time>
      </trkpt>
      <trkpt lat="45.91788" lon="2.9787">
        <ele>742.2</ele>
        <time>2024-07-23T09:43:07Z</time>
      </trkpt>
      <trkpt lat="45.91788" lon="2.97868">
        <ele>742.1</ele>
        <time>2024-07-23T09:43:09Z</time>
      </trkpt>
      <trkpt lat="45.91788" lon="2.97867">
        <ele>742</ele>
        <time>2024-07-23T09:43:10Z</time>
      </trkpt>
      <trkpt lat="45.91787" lon="2.97865">
        <ele>742.1</ele>
        <time>2024-07-23T09:43:12Z</time>
      </trkpt>
      <trkpt lat="45.91786" lon="2.97863">
        <ele>742.4</ele>
        <time>2024-07-23T09:43:14Z</time>
      </trkpt>
      <trkpt lat="45.91786" lon="2.97862">
        <ele>742.7</ele>
        <time>2024-07-23T09:43:21Z</time>
      </trkpt>
      <trkpt lat="45.91785" lon="2.9786">
        <ele>743.2</ele>
        <time>2024-07-23T09:43:29Z</time>
      </trkpt>
      <trkpt lat="45.91785" lon="2.97859">
        <ele>743.5</ele>
        <time>2024-07-23T09:43:33Z</time>
      </trkpt>
      <trkpt lat="45.91784" lon="2.97857">
        <ele>743.7</ele>
        <time>2024-07-23T09:43:35Z</time>
      </trkpt>
      <trkpt lat="45.91783" lon="2.97855">
        <ele>743.8</ele>
        <time>2024-07-23T09:43:37Z</time>
      </trkpt>
      <trkpt lat="45.91782" lon="2.97853">
        <ele>744.5</ele>
        <time>2024-07-23T09:43:39Z</time>
      </trkpt>
      <trkpt lat="45.91781" lon="2.97852">
        <ele>744.2</ele>
        <time>2024-07-23T09:43:41Z</time>
      </trkpt>
      <trkpt lat="45.91781" lon="2.9785">
        <ele>743.4</ele>
        <time>2024-07-23T09:43:43Z</time>
      </trkpt>
      <trkpt lat="45.9178" lon="2.97848">
        <ele>743.9</ele>
        <time>2024-07-23T09:43:45Z</time>
      </trkpt>
      <trkpt lat="45.9178" lon="2.97846">
        <ele>744.5</ele>
        <time>2024-07-23T09:43:47Z</time>
      </trkpt>
      <trkpt lat="45.91779" lon="2.97844">
        <ele>744.6</ele>
        <time>2024-07-23T09:43:49Z</time>
      </trkpt>
      <trkpt lat="45.91779" lon="2.97842">
        <ele>745.1</ele>
        <time>2024-07-23T09:43:51Z</time>
      </trkpt>
      <trkpt lat="45.91778" lon="2.9784">
        <ele>745</ele>
        <time>2024-07-23T09:43:53Z</time>
      </trkpt>
      <trkpt lat="45.91778" lon="2.97838">
        <ele>744.8</ele>
        <time>2024-07-23T09:43:55Z</time>
      </trkpt>
      <trkpt lat="45.91776" lon="2.97836">
        <ele>744.8</ele>
        <time>2024-07-23T09:43:57Z</time>
      </trkpt>
      <trkpt lat="45.91775" lon="2.97834">
        <ele>745.5</ele>
        <time>2024-07-23T09:43:59Z</time>
      </trkpt>
      <trkpt lat="45.91775" lon="2.97833">
        <ele>745.4</ele>
        <time>2024-07-23T09:44:01Z</time>
      </trkpt>
      <trkpt lat="45.91774" lon="2.97831">
        <ele>745.8</ele>
        <time>2024-07-23T09:44:03Z</time>
      </trkpt>
      <trkpt lat="45.91773" lon="2.97829">
        <ele>746</ele>
        <time>2024-07-23T09:44:05Z</time>
      </trkpt>
      <trkpt lat="45.91773" lon="2.97827">
        <ele>745.9</ele>
        <time>2024-07-23T09:44:07Z</time>
      </trkpt>
      <trkpt lat="45.91772" lon="2.97825">
        <ele>746.3</ele>
        <time>2024-07-23T09:44:09Z</time>
      </trkpt>
      <trkpt lat="45.91771" lon="2.97823">
        <ele>746</ele>
        <time>2024-07-23T09:44:11Z</time>
      </trkpt>
      <trkpt lat="45.91771" lon="2.97821">
        <ele>745.9</ele>
        <time>2024-07-23T09:44:13Z</time>
      </trkpt>
      <trkpt lat="45.9177" lon="2.97818">
        <ele>746</ele>
        <time>2024-07-23T09:44:15Z</time>
      </trkpt>
      <trkpt lat="45.9177" lon="2.97817">
        <ele>746.1</ele>
        <time>2024-07-23T09:44:16Z</time>
      </trkpt>
      <trkpt lat="45.9177" lon="2.97815">
        <ele>745.6</ele>
        <time>2024-07-23T09:44:18Z</time>
      </trkpt>
      <trkpt lat="45.91769" lon="2.97814">
        <ele>745.7</ele>
        <time>2024-07-23T09:44:21Z</time>
      </trkpt>
      <trkpt lat="45.91768" lon="2.97812">
        <ele>746.3</ele>
        <time>2024-07-23T09:44:23Z</time>
      </trkpt>
      <trkpt lat="45.91768" lon="2.9781">
        <ele>746.6</ele>
        <time>2024-07-23T09:44:25Z</time>
      </trkpt>
      <trkpt lat="45.91767" lon="2.97808">
        <ele>746.6</ele>
        <time>2024-07-23T09:44:27Z</time>
      </trkpt>
      <trkpt lat="45.91766" lon="2.97806">
        <ele>747</ele>
        <time>2024-07-23T09:44:29Z</time>
      </trkpt>
      <trkpt lat="45.91765" lon="2.97804">
        <ele>747.9</ele>
        <time>2024-07-23T09:44:36Z</time>
      </trkpt>
      <trkpt lat="45.91763" lon="2.97802">
        <ele>747.8</ele>
        <time>2024-07-23T09:44:38Z</time>
      </trkpt>
      <trkpt lat="45.91763" lon="2.978">
        <ele>748</ele>
        <time>2024-07-23T09:44:40Z</time>
      </trkpt>
      <trkpt lat="45.91762" lon="2.97798">
        <ele>747.9</ele>
        <time>2024-07-23T09:44:42Z</time>
      </trkpt>
      <trkpt lat="45.91761" lon="2.97796">
        <ele>748.6</ele>
        <time>2024-07-23T09:44:44Z</time>
      </trkpt>
      <trkpt lat="45.9176" lon="2.97794">
        <ele>748.7</ele>
        <time>2024-07-23T09:44:46Z</time>
      </trkpt>
      <trkpt lat="45.91759" lon="2.97793">
        <ele>749.1</ele>
        <time>2024-07-23T09:44:48Z</time>
      </trkpt>
      <trkpt lat="45.91758" lon="2.97791">
        <ele>749.3</ele>
        <time>2024-07-23T09:44:50Z</time>
      </trkpt>
      <trkpt lat="45.91758" lon="2.97789">
        <ele>747.8</ele>
        <time>2024-07-23T09:44:52Z</time>
      </trkpt>
      <trkpt lat="45.91757" lon="2.97787">
        <ele>747.8</ele>
        <time>2024-07-23T09:44:54Z</time>
      </trkpt>
      <trkpt lat="45.91756" lon="2.97785">
        <ele>747.5</ele>
        <time>2024-07-23T09:44:56Z</time>
      </trkpt>
      <trkpt lat="45.91755" lon="2.97784">
        <ele>747.9</ele>
        <time>2024-07-23T09:44:58Z</time>
      </trkpt>
      <trkpt lat="45.91754" lon="2.97782">
        <ele>748.5</ele>
        <time>2024-07-23T09:45:00Z</time>
      </trkpt>
      <trkpt lat="45.91753" lon="2.9778">
        <ele>748.9</ele>
        <time>2024-07-23T09:45:02Z</time>
      </trkpt>
      <trkpt lat="45.91752" lon="2.97778">
        <ele>749</ele>
        <time>2024-07-23T09:45:04Z</time>
      </trkpt>
      <trkpt lat="45.91751" lon="2.97776">
        <ele>748.8</ele>
        <time>2024-07-23T09:45:06Z</time>
      </trkpt>
      <trkpt lat="45.9175" lon="2.97775">
        <ele>748.8</ele>
        <time>2024-07-23T09:45:07Z</time>
      </trkpt>
      <trkpt lat="45.91749" lon="2.97773">
        <ele>749.6</ele>
        <time>2024-07-23T09:45:09Z</time>
      </trkpt>
      <trkpt lat="45.91749" lon="2.97771">
        <ele>750.6</ele>
        <time>2024-07-23T09:45:11Z</time>
      </trkpt>
      <trkpt lat="45.91748" lon="2.97769">
        <ele>750.9</ele>
        <time>2024-07-23T09:45:13Z</time>
      </trkpt>
      <trkpt lat="45.91747" lon="2.97767">
        <ele>750.9</ele>
        <time>2024-07-23T09:45:15Z</time>
      </trkpt>
      <trkpt lat="45.91746" lon="2.97766">
        <ele>751</ele>
        <time>2024-07-23T09:45:17Z</time>
      </trkpt>
      <trkpt lat="45.91746" lon="2.97764">
        <ele>751.5</ele>
        <time>2024-07-23T09:45:19Z</time>
      </trkpt>
      <trkpt lat="45.91745" lon="2.97761">
        <ele>751.9</ele>
        <time>2024-07-23T09:45:21Z</time>
      </trkpt>
      <trkpt lat="45.91744" lon="2.97759">
        <ele>752.2</ele>
        <time>2024-07-23T09:45:23Z</time>
      </trkpt>
      <trkpt lat="45.91744" lon="2.97757">
        <ele>752.6</ele>
        <time>2024-07-23T09:45:25Z</time>
      </trkpt>
      <trkpt lat="45.91743" lon="2.97755">
        <ele>752.7</ele>
        <time>2024-07-23T09:45:27Z</time>
      </trkpt>
      <trkpt lat="45.91742" lon="2.97753">
        <ele>752.8</ele>
        <time>2024-07-23T09:45:29Z</time>
      </trkpt>
      <trkpt lat="45.91741" lon="2.97751">
        <ele>753.2</ele>
        <time>2024-07-23T09:45:31Z</time>
      </trkpt>
      <trkpt lat="45.91741" lon="2.97749">
        <ele>753.2</ele>
        <time>2024-07-23T09:45:33Z</time>
      </trkpt>
      <trkpt lat="45.9174" lon="2.97747">
        <ele>753.5</ele>
        <time>2024-07-23T09:45:35Z</time>
      </trkpt>
      <trkpt lat="45.91739" lon="2.97745">
        <ele>753.9</ele>
        <time>2024-07-23T09:45:37Z</time>
      </trkpt>
      <trkpt lat="45.91738" lon="2.97744">
        <ele>754.3</ele>
        <time>2024-07-23T09:45:39Z</time>
      </trkpt>
      <trkpt lat="45.91737" lon="2.97742">
        <ele>754.7</ele>
        <time>2024-07-23T09:45:41Z</time>
      </trkpt>
      <trkpt lat="45.91736" lon="2.97741">
        <ele>755.6</ele>
        <time>2024-07-23T09:45:43Z</time>
      </trkpt>
      <trkpt lat="45.91735" lon="2.9774">
        <ele>756.2</ele>
        <time>2024-07-23T09:45:44Z</time>
      </trkpt>
      <trkpt lat="45.91734" lon="2.97738">
        <ele>756</ele>
        <time>2024-07-23T09:45:46Z</time>
      </trkpt>
      <trkpt lat="45.91733" lon="2.97737">
        <ele>755.8</ele>
        <time>2024-07-23T09:45:47Z</time>
      </trkpt>
      <trkpt lat="45.91732" lon="2.97736">
        <ele>755.3</ele>
        <time>2024-07-23T09:45:48Z</time>
      </trkpt>
      <trkpt lat="45.91731" lon="2.97735">
        <ele>753.7</ele>
        <time>2024-07-23T09:45:50Z</time>
      </trkpt>
      <trkpt lat="45.9173" lon="2.97734">
        <ele>753.7</ele>
        <time>2024-07-23T09:45:51Z</time>
      </trkpt>
      <trkpt lat="45.91729" lon="2.97733">
        <ele>753.9</ele>
        <time>2024-07-23T09:45:52Z</time>
      </trkpt>
      <trkpt lat="45.91728" lon="2.97732">
        <ele>752.3</ele>
        <time>2024-07-23T09:45:53Z</time>
      </trkpt>
      <trkpt lat="45.91727" lon="2.97731">
        <ele>752.7</ele>
        <time>2024-07-23T09:45:54Z</time>
      </trkpt>
      <trkpt lat="45.91726" lon="2.9773">
        <ele>751.7</ele>
        <time>2024-07-23T09:45:55Z</time>
      </trkpt>
      <trkpt lat="45.91725" lon="2.97728">
        <ele>751.7</ele>
        <time>2024-07-23T09:45:57Z</time>
      </trkpt>
      <trkpt lat="45.91724" lon="2.97727">
        <ele>751.4</ele>
        <time>2024-07-23T09:45:58Z</time>
      </trkpt>
      <trkpt lat="45.91724" lon="2.97725">
        <ele>751.9</ele>
        <time>2024-07-23T09:46:00Z</time>
      </trkpt>
      <trkpt lat="45.91724" lon="2.97723">
        <ele>752.6</ele>
        <time>2024-07-23T09:46:01Z</time>
      </trkpt>
      <trkpt lat="45.91723" lon="2.97721">
        <ele>755.9</ele>
        <time>2024-07-23T09:46:03Z</time>
      </trkpt>
      <trkpt lat="45.91723" lon="2.97719">
        <ele>757.1</ele>
        <time>2024-07-23T09:46:05Z</time>
      </trkpt>
      <trkpt lat="45.91722" lon="2.97718">
        <ele>756.6</ele>
        <time>2024-07-23T09:46:07Z</time>
      </trkpt>
      <trkpt lat="45.91721" lon="2.97717">
        <ele>756.8</ele>
        <time>2024-07-23T09:46:08Z</time>
      </trkpt>
      <trkpt lat="45.9172" lon="2.97717">
        <ele>758.4</ele>
        <time>2024-07-23T09:46:09Z</time>
      </trkpt>
      <trkpt lat="45.91718" lon="2.97716">
        <ele>759</ele>
        <time>2024-07-23T09:46:11Z</time>
      </trkpt>
      <trkpt lat="45.91717" lon="2.97715">
        <ele>758.9</ele>
        <time>2024-07-23T09:46:13Z</time>
      </trkpt>
      <trkpt lat="45.91716" lon="2.97714">
        <ele>759.5</ele>
        <time>2024-07-23T09:46:14Z</time>
      </trkpt>
      <trkpt lat="45.91716" lon="2.97712">
        <ele>756.9</ele>
        <time>2024-07-23T09:46:16Z</time>
      </trkpt>
      <trkpt lat="45.91718" lon="2.97712">
        <ele>756.8</ele>
        <time>2024-07-23T09:46:17Z</time>
      </trkpt>
      <trkpt lat="45.91718" lon="2.97712">
        <ele>756.8</ele>
        <time>2024-07-23T09:46:19Z</time>
      </trkpt>
      <trkpt lat="45.91717" lon="2.97711">
        <ele>760</ele>
        <time>2024-07-23T09:46:22Z</time>
      </trkpt>
      <trkpt lat="45.91717" lon="2.9771">
        <ele>761.9</ele>
        <time>2024-07-23T09:46:23Z</time>
      </trkpt>
      <trkpt lat="45.91716" lon="2.97709">
        <ele>760.9</ele>
        <time>2024-07-23T09:46:24Z</time>
      </trkpt>
      <trkpt lat="45.91715" lon="2.97708">
        <ele>759.6</ele>
        <time>2024-07-23T09:46:25Z</time>
      </trkpt>
      <trkpt lat="45.91714" lon="2.97706">
        <ele>759.3</ele>
        <time>2024-07-23T09:46:26Z</time>
      </trkpt>
      <trkpt lat="45.91713" lon="2.97706">
        <ele>759</ele>
        <time>2024-07-23T09:46:27Z</time>
      </trkpt>
      <trkpt lat="45.91712" lon="2.97705">
        <ele>758.5</ele>
        <time>2024-07-23T09:46:28Z</time>
      </trkpt>
      <trkpt lat="45.91711" lon="2.97704">
        <ele>757.6</ele>
        <time>2024-07-23T09:46:29Z</time>
      </trkpt>
      <trkpt lat="45.9171" lon="2.97703">
        <ele>757.9</ele>
        <time>2024-07-23T09:46:30Z</time>
      </trkpt>
      <trkpt lat="45.91709" lon="2.97702">
        <ele>757.9</ele>
        <time>2024-07-23T09:46:31Z</time>
      </trkpt>
      <trkpt lat="45.91709" lon="2.97701">
        <ele>758</ele>
        <time>2024-07-23T09:46:32Z</time>
      </trkpt>
      <trkpt lat="45.91708" lon="2.977">
        <ele>758</ele>
        <time>2024-07-23T09:46:33Z</time>
      </trkpt>
      <trkpt lat="45.91707" lon="2.97699">
        <ele>758</ele>
        <time>2024-07-23T09:46:34Z</time>
      </trkpt>
      <trkpt lat="45.91706" lon="2.97698">
        <ele>758.3</ele>
        <time>2024-07-23T09:46:36Z</time>
      </trkpt>
      <trkpt lat="45.91705" lon="2.97697">
        <ele>758.4</ele>
        <time>2024-07-23T09:46:38Z</time>
      </trkpt>
      <trkpt lat="45.91703" lon="2.97696">
        <ele>759.2</ele>
        <time>2024-07-23T09:46:40Z</time>
      </trkpt>
      <trkpt lat="45.91702" lon="2.97695">
        <ele>759.7</ele>
        <time>2024-07-23T09:46:42Z</time>
      </trkpt>
      <trkpt lat="45.91701" lon="2.97693">
        <ele>760.3</ele>
        <time>2024-07-23T09:46:44Z</time>
      </trkpt>
      <trkpt lat="45.917" lon="2.97692">
        <ele>760.6</ele>
        <time>2024-07-23T09:46:46Z</time>
      </trkpt>
      <trkpt lat="45.91699" lon="2.9769">
        <ele>760.8</ele>
        <time>2024-07-23T09:46:48Z</time>
      </trkpt>
      <trkpt lat="45.917" lon="2.97689">
        <ele>762.1</ele>
        <time>2024-07-23T09:47:12Z</time>
      </trkpt>
      <trkpt lat="45.917" lon="2.97687">
        <ele>761.7</ele>
        <time>2024-07-23T09:47:16Z</time>
      </trkpt>
      <trkpt lat="45.91699" lon="2.97686">
        <ele>763.8</ele>
        <time>2024-07-23T09:47:19Z</time>
      </trkpt>
      <trkpt lat="45.91698" lon="2.97685">
        <ele>763</ele>
        <time>2024-07-23T09:47:21Z</time>
      </trkpt>
      <trkpt lat="45.91696" lon="2.97684">
        <ele>763.7</ele>
        <time>2024-07-23T09:47:50Z</time>
      </trkpt>
      <trkpt lat="45.91695" lon="2.97684">
        <ele>763.1</ele>
        <time>2024-07-23T09:47:52Z</time>
      </trkpt>
      <trkpt lat="45.91694" lon="2.97683">
        <ele>763.5</ele>
        <time>2024-07-23T09:47:53Z</time>
      </trkpt>
      <trkpt lat="45.91693" lon="2.97683">
        <ele>763.6</ele>
        <time>2024-07-23T09:47:54Z</time>
      </trkpt>
      <trkpt lat="45.91692" lon="2.97682">
        <ele>763.8</ele>
        <time>2024-07-23T09:47:55Z</time>
      </trkpt>
      <trkpt lat="45.91691" lon="2.97681">
        <ele>766.1</ele>
        <time>2024-07-23T09:47:56Z</time>
      </trkpt>
      <trkpt lat="45.9169" lon="2.97679">
        <ele>768.3</ele>
        <time>2024-07-23T09:47:58Z</time>
      </trkpt>
      <trkpt lat="45.9169" lon="2.97677">
        <ele>767.5</ele>
        <time>2024-07-23T09:48:00Z</time>
      </trkpt>
      <trkpt lat="45.91689" lon="2.97676">
        <ele>767.4</ele>
        <time>2024-07-23T09:48:02Z</time>
      </trkpt>
      <trkpt lat="45.91688" lon="2.97674">
        <ele>767.9</ele>
        <time>2024-07-23T09:48:04Z</time>
      </trkpt>
      <trkpt lat="45.91687" lon="2.97673">
        <ele>770.9</ele>
        <time>2024-07-23T09:48:06Z</time>
      </trkpt>
      <trkpt lat="45.91686" lon="2.97672">
        <ele>770.2</ele>
        <time>2024-07-23T09:48:08Z</time>
      </trkpt>
      <trkpt lat="45.91685" lon="2.97671">
        <ele>770.4</ele>
        <time>2024-07-23T09:48:10Z</time>
      </trkpt>
      <trkpt lat="45.91684" lon="2.97668">
        <ele>769.9</ele>
        <time>2024-07-23T09:48:12Z</time>
      </trkpt>
      <trkpt lat="45.91683" lon="2.97667">
        <ele>769.4</ele>
        <time>2024-07-23T09:48:13Z</time>
      </trkpt>
      <trkpt lat="45.91682" lon="2.97666">
        <ele>769.4</ele>
        <time>2024-07-23T09:48:14Z</time>
      </trkpt>
      <trkpt lat="45.91681" lon="2.97665">
        <ele>769.5</ele>
        <time>2024-07-23T09:48:15Z</time>
      </trkpt>
      <trkpt lat="45.9168" lon="2.97664">
        <ele>769.4</ele>
        <time>2024-07-23T09:48:17Z</time>
      </trkpt>
      <trkpt lat="45.91679" lon="2.97662">
        <ele>770</ele>
        <time>2024-07-23T09:48:19Z</time>
      </trkpt>
      <trkpt lat="45.91678" lon="2.9766">
        <ele>770.4</ele>
        <time>2024-07-23T09:48:21Z</time>
      </trkpt>
      <trkpt lat="45.91678" lon="2.97658">
        <ele>770.1</ele>
        <time>2024-07-23T09:48:23Z</time>
      </trkpt>
      <trkpt lat="45.91678" lon="2.97657">
        <ele>770.6</ele>
        <time>2024-07-23T09:48:25Z</time>
      </trkpt>
      <trkpt lat="45.91678" lon="2.97655">
        <ele>770.8</ele>
        <time>2024-07-23T09:48:44Z</time>
      </trkpt>
      <trkpt lat="45.91676" lon="2.97653">
        <ele>769.4</ele>
        <time>2024-07-23T09:48:46Z</time>
      </trkpt>
      <trkpt lat="45.91675" lon="2.97652">
        <ele>768.6</ele>
        <time>2024-07-23T09:48:47Z</time>
      </trkpt>
      <trkpt lat="45.91674" lon="2.97649">
        <ele>768.5</ele>
        <time>2024-07-23T09:48:49Z</time>
      </trkpt>
      <trkpt lat="45.91673" lon="2.97648">
        <ele>768.7</ele>
        <time>2024-07-23T09:48:50Z</time>
      </trkpt>
      <trkpt lat="45.91672" lon="2.97647">
        <ele>768.7</ele>
        <time>2024-07-23T09:48:51Z</time>
      </trkpt>
      <trkpt lat="45.91672" lon="2.97646">
        <ele>768.5</ele>
        <time>2024-07-23T09:48:52Z</time>
      </trkpt>
      <trkpt lat="45.91671" lon="2.97644">
        <ele>769.3</ele>
        <time>2024-07-23T09:48:54Z</time>
      </trkpt>
      <trkpt lat="45.9167" lon="2.97642">
        <ele>768.4</ele>
        <time>2024-07-23T09:48:56Z</time>
      </trkpt>
      <trkpt lat="45.9167" lon="2.9764">
        <ele>768.5</ele>
        <time>2024-07-23T09:48:58Z</time>
      </trkpt>
      <trkpt lat="45.91669" lon="2.97638">
        <ele>768.2</ele>
        <time>2024-07-23T09:49:00Z</time>
      </trkpt>
      <trkpt lat="45.91668" lon="2.97637">
        <ele>767.8</ele>
        <time>2024-07-23T09:49:01Z</time>
      </trkpt>
      <trkpt lat="45.91667" lon="2.97636">
        <ele>767.9</ele>
        <time>2024-07-23T09:49:03Z</time>
      </trkpt>
      <trkpt lat="45.91667" lon="2.97634">
        <ele>769.2</ele>
        <time>2024-07-23T09:49:05Z</time>
      </trkpt>
      <trkpt lat="45.91666" lon="2.97632">
        <ele>768.2</ele>
        <time>2024-07-23T09:49:07Z</time>
      </trkpt>
      <trkpt lat="45.91665" lon="2.9763">
        <ele>768.3</ele>
        <time>2024-07-23T09:49:09Z</time>
      </trkpt>
      <trkpt lat="45.91665" lon="2.97628">
        <ele>769.3</ele>
        <time>2024-07-23T09:49:12Z</time>
      </trkpt>
      <trkpt lat="45.91664" lon="2.97627">
        <ele>769.4</ele>
        <time>2024-07-23T09:49:14Z</time>
      </trkpt>
      <trkpt lat="45.91664" lon="2.97625">
        <ele>769.2</ele>
        <time>2024-07-23T09:49:16Z</time>
      </trkpt>
      <trkpt lat="45.91663" lon="2.97624">
        <ele>768.7</ele>
        <time>2024-07-23T09:49:18Z</time>
      </trkpt>
      <trkpt lat="45.91662" lon="2.97622">
        <ele>769.3</ele>
        <time>2024-07-23T09:49:20Z</time>
      </trkpt>
      <trkpt lat="45.91661" lon="2.9762">
        <ele>769.6</ele>
        <time>2024-07-23T09:49:22Z</time>
      </trkpt>
      <trkpt lat="45.9166" lon="2.97619">
        <ele>769.6</ele>
        <time>2024-07-23T09:49:24Z</time>
      </trkpt>
      <trkpt lat="45.91659" lon="2.97617">
        <ele>769.3</ele>
        <time>2024-07-23T09:49:26Z</time>
      </trkpt>
      <trkpt lat="45.91659" lon="2.97616">
        <ele>768.8</ele>
        <time>2024-07-23T09:49:27Z</time>
      </trkpt>
      <trkpt lat="45.91658" lon="2.97614">
        <ele>768.4</ele>
        <time>2024-07-23T09:49:29Z</time>
      </trkpt>
      <trkpt lat="45.91657" lon="2.97612">
        <ele>769</ele>
        <time>2024-07-23T09:49:31Z</time>
      </trkpt>
      <trkpt lat="45.91656" lon="2.9761">
        <ele>768.8</ele>
        <time>2024-07-23T09:49:33Z</time>
      </trkpt>
      <trkpt lat="45.91656" lon="2.97609">
        <ele>769.7</ele>
        <time>2024-07-23T09:49:36Z</time>
      </trkpt>
      <trkpt lat="45.91655" lon="2.97607">
        <ele>770.9</ele>
        <time>2024-07-23T09:49:38Z</time>
      </trkpt>
      <trkpt lat="45.91654" lon="2.97605">
        <ele>771.7</ele>
        <time>2024-07-23T09:49:40Z</time>
      </trkpt>
      <trkpt lat="45.91653" lon="2.97603">
        <ele>772.7</ele>
        <time>2024-07-23T09:49:42Z</time>
      </trkpt>
      <trkpt lat="45.91653" lon="2.97601">
        <ele>772.8</ele>
        <time>2024-07-23T09:49:44Z</time>
      </trkpt>
      <trkpt lat="45.91652" lon="2.97599">
        <ele>773.3</ele>
        <time>2024-07-23T09:49:46Z</time>
      </trkpt>
      <trkpt lat="45.91652" lon="2.97597">
        <ele>773.7</ele>
        <time>2024-07-23T09:49:48Z</time>
      </trkpt>
      <trkpt lat="45.91651" lon="2.97596">
        <ele>775.2</ele>
        <time>2024-07-23T09:49:50Z</time>
      </trkpt>
      <trkpt lat="45.9165" lon="2.97594">
        <ele>774.8</ele>
        <time>2024-07-23T09:49:52Z</time>
      </trkpt>
      <trkpt lat="45.9165" lon="2.97592">
        <ele>775.3</ele>
        <time>2024-07-23T09:49:54Z</time>
      </trkpt>
      <trkpt lat="45.9165" lon="2.9759">
        <ele>775</ele>
        <time>2024-07-23T09:49:55Z</time>
      </trkpt>
      <trkpt lat="45.9165" lon="2.97588">
        <ele>775.1</ele>
        <time>2024-07-23T09:49:57Z</time>
      </trkpt>
      <trkpt lat="45.91649" lon="2.97586">
        <ele>775.3</ele>
        <time>2024-07-23T09:49:59Z</time>
      </trkpt>
      <trkpt lat="45.91648" lon="2.97584">
        <ele>775.2</ele>
        <time>2024-07-23T09:50:01Z</time>
      </trkpt>
      <trkpt lat="45.91648" lon="2.97582">
        <ele>775.4</ele>
        <time>2024-07-23T09:50:03Z</time>
      </trkpt>
      <trkpt lat="45.91647" lon="2.9758">
        <ele>775</ele>
        <time>2024-07-23T09:50:05Z</time>
      </trkpt>
      <trkpt lat="45.91647" lon="2.97577">
        <ele>774.9</ele>
        <time>2024-07-23T09:50:07Z</time>
      </trkpt>
      <trkpt lat="45.91646" lon="2.97575">
        <ele>774.4</ele>
        <time>2024-07-23T09:50:09Z</time>
      </trkpt>
      <trkpt lat="45.91645" lon="2.97574">
        <ele>775.1</ele>
        <time>2024-07-23T09:50:11Z</time>
      </trkpt>
      <trkpt lat="45.91645" lon="2.97572">
        <ele>775.8</ele>
        <time>2024-07-23T09:50:13Z</time>
      </trkpt>
      <trkpt lat="45.91645" lon="2.9757">
        <ele>776.1</ele>
        <time>2024-07-23T09:50:15Z</time>
      </trkpt>
      <trkpt lat="45.91644" lon="2.97569">
        <ele>776.3</ele>
        <time>2024-07-23T09:50:17Z</time>
      </trkpt>
      <trkpt lat="45.91644" lon="2.97567">
        <ele>776.8</ele>
        <time>2024-07-23T09:50:19Z</time>
      </trkpt>
      <trkpt lat="45.91643" lon="2.97565">
        <ele>776.7</ele>
        <time>2024-07-23T09:50:21Z</time>
      </trkpt>
      <trkpt lat="45.91643" lon="2.97562">
        <ele>776</ele>
        <time>2024-07-23T09:50:23Z</time>
      </trkpt>
      <trkpt lat="45.91642" lon="2.9756">
        <ele>775.7</ele>
        <time>2024-07-23T09:50:25Z</time>
      </trkpt>
      <trkpt lat="45.91642" lon="2.97558">
        <ele>775</ele>
        <time>2024-07-23T09:50:27Z</time>
      </trkpt>
      <trkpt lat="45.91641" lon="2.97557">
        <ele>775</ele>
        <time>2024-07-23T09:50:29Z</time>
      </trkpt>
      <trkpt lat="45.91641" lon="2.97555">
        <ele>775</ele>
        <time>2024-07-23T09:50:31Z</time>
      </trkpt>
      <trkpt lat="45.91641" lon="2.97554">
        <ele>775.2</ele>
        <time>2024-07-23T09:50:33Z</time>
      </trkpt>
      <trkpt lat="45.9164" lon="2.97552">
        <ele>775</ele>
        <time>2024-07-23T09:50:35Z</time>
      </trkpt>
      <trkpt lat="45.91639" lon="2.97551">
        <ele>775.4</ele>
        <time>2024-07-23T09:50:37Z</time>
      </trkpt>
      <trkpt lat="45.91638" lon="2.9755">
        <ele>775.6</ele>
        <time>2024-07-23T09:50:39Z</time>
      </trkpt>
      <trkpt lat="45.91638" lon="2.97548">
        <ele>776.2</ele>
        <time>2024-07-23T09:50:41Z</time>
      </trkpt>
      <trkpt lat="45.91637" lon="2.97546">
        <ele>776.1</ele>
        <time>2024-07-23T09:50:43Z</time>
      </trkpt>
      <trkpt lat="45.91636" lon="2.97545">
        <ele>776.5</ele>
        <time>2024-07-23T09:50:45Z</time>
      </trkpt>
      <trkpt lat="45.91635" lon="2.97543">
        <ele>776.5</ele>
        <time>2024-07-23T09:50:47Z</time>
      </trkpt>
      <trkpt lat="45.91635" lon="2.97542">
        <ele>776.3</ele>
        <time>2024-07-23T09:50:49Z</time>
      </trkpt>
      <trkpt lat="45.91634" lon="2.97541">
        <ele>776.6</ele>
        <time>2024-07-23T09:50:51Z</time>
      </trkpt>
      <trkpt lat="45.91633" lon="2.97541">
        <ele>777</ele>
        <time>2024-07-23T09:50:53Z</time>
      </trkpt>
      <trkpt lat="45.91632" lon="2.97539">
        <ele>777.5</ele>
        <time>2024-07-23T09:50:55Z</time>
      </trkpt>
      <trkpt lat="45.91631" lon="2.97539">
        <ele>777.8</ele>
        <time>2024-07-23T09:50:57Z</time>
      </trkpt>
      <trkpt lat="45.9163" lon="2.97538">
        <ele>777.9</ele>
        <time>2024-07-23T09:50:59Z</time>
      </trkpt>
      <trkpt lat="45.91628" lon="2.97537">
        <ele>778.3</ele>
        <time>2024-07-23T09:51:01Z</time>
      </trkpt>
      <trkpt lat="45.91627" lon="2.97537">
        <ele>778.2</ele>
        <time>2024-07-23T09:51:03Z</time>
      </trkpt>
      <trkpt lat="45.91625" lon="2.97537">
        <ele>778.3</ele>
        <time>2024-07-23T09:51:05Z</time>
      </trkpt>
      <trkpt lat="45.91624" lon="2.97538">
        <ele>778.4</ele>
        <time>2024-07-23T09:51:07Z</time>
      </trkpt>
      <trkpt lat="45.91623" lon="2.97538">
        <ele>778.8</ele>
        <time>2024-07-23T09:51:09Z</time>
      </trkpt>
      <trkpt lat="45.91621" lon="2.97539">
        <ele>778.5</ele>
        <time>2024-07-23T09:51:11Z</time>
      </trkpt>
      <trkpt lat="45.91619" lon="2.97539">
        <ele>778.2</ele>
        <time>2024-07-23T09:51:13Z</time>
      </trkpt>
      <trkpt lat="45.91618" lon="2.97539">
        <ele>778.6</ele>
        <time>2024-07-23T09:51:14Z</time>
      </trkpt>
      <trkpt lat="45.91618" lon="2.9754">
        <ele>778.6</ele>
        <time>2024-07-23T09:51:15Z</time>
      </trkpt>
      <trkpt lat="45.91617" lon="2.9754">
        <ele>778.7</ele>
        <time>2024-07-23T09:51:16Z</time>
      </trkpt>
      <trkpt lat="45.91616" lon="2.9754">
        <ele>778.4</ele>
        <time>2024-07-23T09:51:17Z</time>
      </trkpt>
      <trkpt lat="45.91615" lon="2.97541">
        <ele>778.3</ele>
        <time>2024-07-23T09:51:18Z</time>
      </trkpt>
      <trkpt lat="45.91614" lon="2.97541">
        <ele>778.2</ele>
        <time>2024-07-23T09:51:19Z</time>
      </trkpt>
      <trkpt lat="45.91613" lon="2.97542">
        <ele>777.9</ele>
        <time>2024-07-23T09:51:20Z</time>
      </trkpt>
      <trkpt lat="45.91612" lon="2.97542">
        <ele>778</ele>
        <time>2024-07-23T09:51:21Z</time>
      </trkpt>
      <trkpt lat="45.91611" lon="2.97543">
        <ele>778</ele>
        <time>2024-07-23T09:51:22Z</time>
      </trkpt>
      <trkpt lat="45.9161" lon="2.97544">
        <ele>777.7</ele>
        <time>2024-07-23T09:51:23Z</time>
      </trkpt>
      <trkpt lat="45.91609" lon="2.97544">
        <ele>778.1</ele>
        <time>2024-07-23T09:51:24Z</time>
      </trkpt>
      <trkpt lat="45.91608" lon="2.97545">
        <ele>778.2</ele>
        <time>2024-07-23T09:51:25Z</time>
      </trkpt>
      <trkpt lat="45.91607" lon="2.97545">
        <ele>777.9</ele>
        <time>2024-07-23T09:51:26Z</time>
      </trkpt>
      <trkpt lat="45.91606" lon="2.97545">
        <ele>778.1</ele>
        <time>2024-07-23T09:51:27Z</time>
      </trkpt>
      <trkpt lat="45.91605" lon="2.97546">
        <ele>778</ele>
        <time>2024-07-23T09:51:28Z</time>
      </trkpt>
      <trkpt lat="45.91604" lon="2.97546">
        <ele>778</ele>
        <time>2024-07-23T09:51:29Z</time>
      </trkpt>
      <trkpt lat="45.91603" lon="2.97546">
        <ele>778.2</ele>
        <time>2024-07-23T09:51:30Z</time>
      </trkpt>
      <trkpt lat="45.91602" lon="2.97547">
        <ele>778.6</ele>
        <time>2024-07-23T09:51:31Z</time>
      </trkpt>
      <trkpt lat="45.91601" lon="2.97547">
        <ele>779</ele>
        <time>2024-07-23T09:51:32Z</time>
      </trkpt>
      <trkpt lat="45.916" lon="2.97547">
        <ele>778.7</ele>
        <time>2024-07-23T09:51:33Z</time>
      </trkpt>
      <trkpt lat="45.91599" lon="2.97547">
        <ele>778.6</ele>
        <time>2024-07-23T09:51:34Z</time>
      </trkpt>
      <trkpt lat="45.91597" lon="2.97548">
        <ele>779.9</ele>
        <time>2024-07-23T09:51:36Z</time>
      </trkpt>
      <trkpt lat="45.91596" lon="2.9755">
        <ele>780.7</ele>
        <time>2024-07-23T09:51:38Z</time>
      </trkpt>
      <trkpt lat="45.91595" lon="2.97551">
        <ele>780.8</ele>
        <time>2024-07-23T09:51:40Z</time>
      </trkpt>
      <trkpt lat="45.91593" lon="2.97552">
        <ele>781</ele>
        <time>2024-07-23T09:51:41Z</time>
      </trkpt>
      <trkpt lat="45.91592" lon="2.97552">
        <ele>780.4</ele>
        <time>2024-07-23T09:51:42Z</time>
      </trkpt>
      <trkpt lat="45.91591" lon="2.97552">
        <ele>780.1</ele>
        <time>2024-07-23T09:51:43Z</time>
      </trkpt>
      <trkpt lat="45.9159" lon="2.97552">
        <ele>779.5</ele>
        <time>2024-07-23T09:51:44Z</time>
      </trkpt>
      <trkpt lat="45.91588" lon="2.97553">
        <ele>779.3</ele>
        <time>2024-07-23T09:51:45Z</time>
      </trkpt>
      <trkpt lat="45.91587" lon="2.97553">
        <ele>778.7</ele>
        <time>2024-07-23T09:51:46Z</time>
      </trkpt>
      <trkpt lat="45.91586" lon="2.97554">
        <ele>779.3</ele>
        <time>2024-07-23T09:51:47Z</time>
      </trkpt>
      <trkpt lat="45.91585" lon="2.97554">
        <ele>778.4</ele>
        <time>2024-07-23T09:51:48Z</time>
      </trkpt>
      <trkpt lat="45.91584" lon="2.97555">
        <ele>778.8</ele>
        <time>2024-07-23T09:51:49Z</time>
      </trkpt>
      <trkpt lat="45.91583" lon="2.97555">
        <ele>778.7</ele>
        <time>2024-07-23T09:51:50Z</time>
      </trkpt>
      <trkpt lat="45.91582" lon="2.97556">
        <ele>778.8</ele>
        <time>2024-07-23T09:51:51Z</time>
      </trkpt>
      <trkpt lat="45.91581" lon="2.97556">
        <ele>778.7</ele>
        <time>2024-07-23T09:51:52Z</time>
      </trkpt>
      <trkpt lat="45.9158" lon="2.97557">
        <ele>778.6</ele>
        <time>2024-07-23T09:51:53Z</time>
      </trkpt>
      <trkpt lat="45.9158" lon="2.97557">
        <ele>778.9</ele>
        <time>2024-07-23T09:51:54Z</time>
      </trkpt>
      <trkpt lat="45.91579" lon="2.97558">
        <ele>777.8</ele>
        <time>2024-07-23T09:51:55Z</time>
      </trkpt>
      <trkpt lat="45.91578" lon="2.97558">
        <ele>777.4</ele>
        <time>2024-07-23T09:51:56Z</time>
      </trkpt>
      <trkpt lat="45.91577" lon="2.97559">
        <ele>777.2</ele>
        <time>2024-07-23T09:51:57Z</time>
      </trkpt>
      <trkpt lat="45.91576" lon="2.97559">
        <ele>776.9</ele>
        <time>2024-07-23T09:51:58Z</time>
      </trkpt>
      <trkpt lat="45.91574" lon="2.97559">
        <ele>776.3</ele>
        <time>2024-07-23T09:51:59Z</time>
      </trkpt>
      <trkpt lat="45.91573" lon="2.97559">
        <ele>775.7</ele>
        <time>2024-07-23T09:52:00Z</time>
      </trkpt>
      <trkpt lat="45.91572" lon="2.97558">
        <ele>775.2</ele>
        <time>2024-07-23T09:52:01Z</time>
      </trkpt>
      <trkpt lat="45.91571" lon="2.97558">
        <ele>777.1</ele>
        <time>2024-07-23T09:52:03Z</time>
      </trkpt>
      <trkpt lat="45.9157" lon="2.97559">
        <ele>777.7</ele>
        <time>2024-07-23T09:52:19Z</time>
      </trkpt>
      <trkpt lat="45.91569" lon="2.97559">
        <ele>778.3</ele>
        <time>2024-07-23T09:52:20Z</time>
      </trkpt>
      <trkpt lat="45.91568" lon="2.97559">
        <ele>778.8</ele>
        <time>2024-07-23T09:52:21Z</time>
      </trkpt>
      <trkpt lat="45.91567" lon="2.9756">
        <ele>779.5</ele>
        <time>2024-07-23T09:52:22Z</time>
      </trkpt>
      <trkpt lat="45.91565" lon="2.9756">
        <ele>780.6</ele>
        <time>2024-07-23T09:52:23Z</time>
      </trkpt>
      <trkpt lat="45.91564" lon="2.9756">
        <ele>780.8</ele>
        <time>2024-07-23T09:52:24Z</time>
      </trkpt>
      <trkpt lat="45.91563" lon="2.9756">
        <ele>781.2</ele>
        <time>2024-07-23T09:52:25Z</time>
      </trkpt>
      <trkpt lat="45.91562" lon="2.9756">
        <ele>782.3</ele>
        <time>2024-07-23T09:52:27Z</time>
      </trkpt>
      <trkpt lat="45.9156" lon="2.9756">
        <ele>783.3</ele>
        <time>2024-07-23T09:52:29Z</time>
      </trkpt>
      <trkpt lat="45.91559" lon="2.97559">
        <ele>783.1</ele>
        <time>2024-07-23T09:52:30Z</time>
      </trkpt>
      <trkpt lat="45.91558" lon="2.97558">
        <ele>783.2</ele>
        <time>2024-07-23T09:52:31Z</time>
      </trkpt>
      <trkpt lat="45.91557" lon="2.97558">
        <ele>782.4</ele>
        <time>2024-07-23T09:52:32Z</time>
      </trkpt>
      <trkpt lat="45.91556" lon="2.97558">
        <ele>782.2</ele>
        <time>2024-07-23T09:52:33Z</time>
      </trkpt>
      <trkpt lat="45.91555" lon="2.97558">
        <ele>782.4</ele>
        <time>2024-07-23T09:52:34Z</time>
      </trkpt>
      <trkpt lat="45.91554" lon="2.97558">
        <ele>781.6</ele>
        <time>2024-07-23T09:52:35Z</time>
      </trkpt>
      <trkpt lat="45.91553" lon="2.97558">
        <ele>780.7</ele>
        <time>2024-07-23T09:52:36Z</time>
      </trkpt>
      <trkpt lat="45.91552" lon="2.97558">
        <ele>781.1</ele>
        <time>2024-07-23T09:52:37Z</time>
      </trkpt>
      <trkpt lat="45.91551" lon="2.97558">
        <ele>782.1</ele>
        <time>2024-07-23T09:52:38Z</time>
      </trkpt>
      <trkpt lat="45.9155" lon="2.97558">
        <ele>782.5</ele>
        <time>2024-07-23T09:52:39Z</time>
      </trkpt>
      <trkpt lat="45.91549" lon="2.97558">
        <ele>782.4</ele>
        <time>2024-07-23T09:52:40Z</time>
      </trkpt>
      <trkpt lat="45.91547" lon="2.97558">
        <ele>781.6</ele>
        <time>2024-07-23T09:52:42Z</time>
      </trkpt>
      <trkpt lat="45.91544" lon="2.97557">
        <ele>780.1</ele>
        <time>2024-07-23T09:52:44Z</time>
      </trkpt>
      <trkpt lat="45.91543" lon="2.97556">
        <ele>779</ele>
        <time>2024-07-23T09:52:45Z</time>
      </trkpt>
      <trkpt lat="45.91542" lon="2.97556">
        <ele>778.6</ele>
        <time>2024-07-23T09:52:46Z</time>
      </trkpt>
      <trkpt lat="45.91541" lon="2.97556">
        <ele>778.9</ele>
        <time>2024-07-23T09:52:47Z</time>
      </trkpt>
      <trkpt lat="45.91539" lon="2.97556">
        <ele>778.8</ele>
        <time>2024-07-23T09:52:48Z</time>
      </trkpt>
      <trkpt lat="45.91538" lon="2.97555">
        <ele>779</ele>
        <time>2024-07-23T09:52:49Z</time>
      </trkpt>
      <trkpt lat="45.91537" lon="2.97555">
        <ele>779.8</ele>
        <time>2024-07-23T09:52:50Z</time>
      </trkpt>
      <trkpt lat="45.91536" lon="2.97555">
        <ele>780.2</ele>
        <time>2024-07-23T09:52:51Z</time>
      </trkpt>
      <trkpt lat="45.91535" lon="2.97555">
        <ele>780.1</ele>
        <time>2024-07-23T09:52:52Z</time>
      </trkpt>
      <trkpt lat="45.91534" lon="2.97555">
        <ele>780.9</ele>
        <time>2024-07-23T09:52:53Z</time>
      </trkpt>
      <trkpt lat="45.91533" lon="2.97555">
        <ele>780.8</ele>
        <time>2024-07-23T09:52:54Z</time>
      </trkpt>
      <trkpt lat="45.91532" lon="2.97555">
        <ele>780.5</ele>
        <time>2024-07-23T09:52:55Z</time>
      </trkpt>
      <trkpt lat="45.91531" lon="2.97555">
        <ele>780.3</ele>
        <time>2024-07-23T09:52:56Z</time>
      </trkpt>
      <trkpt lat="45.91529" lon="2.97555">
        <ele>779.7</ele>
        <time>2024-07-23T09:52:57Z</time>
      </trkpt>
      <trkpt lat="45.91528" lon="2.97555">
        <ele>779.4</ele>
        <time>2024-07-23T09:52:58Z</time>
      </trkpt>
      <trkpt lat="45.91527" lon="2.97555">
        <ele>779.3</ele>
        <time>2024-07-23T09:52:59Z</time>
      </trkpt>
      <trkpt lat="45.91526" lon="2.97554">
        <ele>779.7</ele>
        <time>2024-07-23T09:53:00Z</time>
      </trkpt>
      <trkpt lat="45.91525" lon="2.97554">
        <ele>779.4</ele>
        <time>2024-07-23T09:53:01Z</time>
      </trkpt>
      <trkpt lat="45.91524" lon="2.97554">
        <ele>778.9</ele>
        <time>2024-07-23T09:53:02Z</time>
      </trkpt>
      <trkpt lat="45.91522" lon="2.97554">
        <ele>778.8</ele>
        <time>2024-07-23T09:53:03Z</time>
      </trkpt>
      <trkpt lat="45.91521" lon="2.97554">
        <ele>778.8</ele>
        <time>2024-07-23T09:53:04Z</time>
      </trkpt>
      <trkpt lat="45.91521" lon="2.97553">
        <ele>778.6</ele>
        <time>2024-07-23T09:53:05Z</time>
      </trkpt>
      <trkpt lat="45.9152" lon="2.97553">
        <ele>778</ele>
        <time>2024-07-23T09:53:06Z</time>
      </trkpt>
      <trkpt lat="45.91519" lon="2.97552">
        <ele>778.2</ele>
        <time>2024-07-23T09:53:07Z</time>
      </trkpt>
      <trkpt lat="45.91518" lon="2.97551">
        <ele>775.5</ele>
        <time>2024-07-23T09:53:08Z</time>
      </trkpt>
      <trkpt lat="45.91516" lon="2.97551">
        <ele>775.6</ele>
        <time>2024-07-23T09:53:09Z</time>
      </trkpt>
      <trkpt lat="45.91515" lon="2.9755">
        <ele>775.7</ele>
        <time>2024-07-23T09:53:10Z</time>
      </trkpt>
      <trkpt lat="45.91514" lon="2.9755">
        <ele>775.3</ele>
        <time>2024-07-23T09:53:11Z</time>
      </trkpt>
      <trkpt lat="45.91513" lon="2.9755">
        <ele>776</ele>
        <time>2024-07-23T09:53:12Z</time>
      </trkpt>
      <trkpt lat="45.91513" lon="2.9755">
        <ele>776.3</ele>
        <time>2024-07-23T09:53:13Z</time>
      </trkpt>
      <trkpt lat="45.91511" lon="2.9755">
        <ele>776.2</ele>
        <time>2024-07-23T09:53:14Z</time>
      </trkpt>
      <trkpt lat="45.9151" lon="2.9755">
        <ele>776.5</ele>
        <time>2024-07-23T09:53:15Z</time>
      </trkpt>
      <trkpt lat="45.91509" lon="2.9755">
        <ele>776.9</ele>
        <time>2024-07-23T09:53:16Z</time>
      </trkpt>
      <trkpt lat="45.91508" lon="2.9755">
        <ele>777.1</ele>
        <time>2024-07-23T09:53:17Z</time>
      </trkpt>
      <trkpt lat="45.91507" lon="2.97551">
        <ele>777.6</ele>
        <time>2024-07-23T09:53:18Z</time>
      </trkpt>
      <trkpt lat="45.91505" lon="2.97551">
        <ele>777.7</ele>
        <time>2024-07-23T09:53:19Z</time>
      </trkpt>
      <trkpt lat="45.91504" lon="2.97552">
        <ele>778</ele>
        <time>2024-07-23T09:53:20Z</time>
      </trkpt>
      <trkpt lat="45.91503" lon="2.97552">
        <ele>778.3</ele>
        <time>2024-07-23T09:53:21Z</time>
      </trkpt>
      <trkpt lat="45.91502" lon="2.97552">
        <ele>778.4</ele>
        <time>2024-07-23T09:53:22Z</time>
      </trkpt>
      <trkpt lat="45.91501" lon="2.97553">
        <ele>778.8</ele>
        <time>2024-07-23T09:53:23Z</time>
      </trkpt>
      <trkpt lat="45.915" lon="2.97553">
        <ele>778.2</ele>
        <time>2024-07-23T09:53:24Z</time>
      </trkpt>
      <trkpt lat="45.91499" lon="2.97553">
        <ele>778.3</ele>
        <time>2024-07-23T09:53:25Z</time>
      </trkpt>
      <trkpt lat="45.91498" lon="2.97553">
        <ele>778.7</ele>
        <time>2024-07-23T09:53:26Z</time>
      </trkpt>
      <trkpt lat="45.91496" lon="2.97553">
        <ele>779.1</ele>
        <time>2024-07-23T09:53:27Z</time>
      </trkpt>
      <trkpt lat="45.91496" lon="2.97553">
        <ele>779.7</ele>
        <time>2024-07-23T09:53:28Z</time>
      </trkpt>
      <trkpt lat="45.91495" lon="2.97554">
        <ele>779.8</ele>
        <time>2024-07-23T09:53:29Z</time>
      </trkpt>
      <trkpt lat="45.91494" lon="2.97554">
        <ele>780.1</ele>
        <time>2024-07-23T09:53:30Z</time>
      </trkpt>
      <trkpt lat="45.91493" lon="2.97554">
        <ele>779.6</ele>
        <time>2024-07-23T09:53:31Z</time>
      </trkpt>
      <trkpt lat="45.91492" lon="2.97555">
        <ele>779.5</ele>
        <time>2024-07-23T09:53:32Z</time>
      </trkpt>
      <trkpt lat="45.91491" lon="2.97555">
        <ele>779</ele>
        <time>2024-07-23T09:53:33Z</time>
      </trkpt>
      <trkpt lat="45.9149" lon="2.97555">
        <ele>779.2</ele>
        <time>2024-07-23T09:53:34Z</time>
      </trkpt>
      <trkpt lat="45.91488" lon="2.97555">
        <ele>778.6</ele>
        <time>2024-07-23T09:53:35Z</time>
      </trkpt>
      <trkpt lat="45.91487" lon="2.97554">
        <ele>777.8</ele>
        <time>2024-07-23T09:53:36Z</time>
      </trkpt>
      <trkpt lat="45.91486" lon="2.97554">
        <ele>777.5</ele>
        <time>2024-07-23T09:53:37Z</time>
      </trkpt>
      <trkpt lat="45.91485" lon="2.97554">
        <ele>777.3</ele>
        <time>2024-07-23T09:53:38Z</time>
      </trkpt>
      <trkpt lat="45.91484" lon="2.97554">
        <ele>776.8</ele>
        <time>2024-07-23T09:53:39Z</time>
      </trkpt>
      <trkpt lat="45.91483" lon="2.97554">
        <ele>775.4</ele>
        <time>2024-07-23T09:53:40Z</time>
      </trkpt>
      <trkpt lat="45.91481" lon="2.97553">
        <ele>775.3</ele>
        <time>2024-07-23T09:53:41Z</time>
      </trkpt>
      <trkpt lat="45.9148" lon="2.97552">
        <ele>775.1</ele>
        <time>2024-07-23T09:53:42Z</time>
      </trkpt>
      <trkpt lat="45.91479" lon="2.97552">
        <ele>773.8</ele>
        <time>2024-07-23T09:53:43Z</time>
      </trkpt>
      <trkpt lat="45.91478" lon="2.97551">
        <ele>773.8</ele>
        <time>2024-07-23T09:53:44Z</time>
      </trkpt>
      <trkpt lat="45.91476" lon="2.97551">
        <ele>773</ele>
        <time>2024-07-23T09:53:46Z</time>
      </trkpt>
      <trkpt lat="45.91475" lon="2.97551">
        <ele>773.1</ele>
        <time>2024-07-23T09:53:47Z</time>
      </trkpt>
      <trkpt lat="45.91473" lon="2.97551">
        <ele>775.1</ele>
        <time>2024-07-23T09:53:49Z</time>
      </trkpt>
      <trkpt lat="45.91472" lon="2.97551">
        <ele>776.9</ele>
        <time>2024-07-23T09:53:51Z</time>
      </trkpt>
      <trkpt lat="45.91471" lon="2.97553">
        <ele>777.4</ele>
        <time>2024-07-23T09:53:53Z</time>
      </trkpt>
      <trkpt lat="45.9147" lon="2.97554">
        <ele>776.3</ele>
        <time>2024-07-23T09:53:54Z</time>
      </trkpt>
      <trkpt lat="45.91469" lon="2.97554">
        <ele>775.5</ele>
        <time>2024-07-23T09:53:55Z</time>
      </trkpt>
      <trkpt lat="45.91467" lon="2.97556">
        <ele>777.1</ele>
        <time>2024-07-23T09:53:57Z</time>
      </trkpt>
      <trkpt lat="45.91466" lon="2.97557">
        <ele>777.1</ele>
        <time>2024-07-23T09:53:59Z</time>
      </trkpt>
      <trkpt lat="45.91465" lon="2.97557">
        <ele>777.1</ele>
        <time>2024-07-23T09:54:00Z</time>
      </trkpt>
      <trkpt lat="45.91464" lon="2.97558">
        <ele>777.4</ele>
        <time>2024-07-23T09:54:01Z</time>
      </trkpt>
      <trkpt lat="45.91462" lon="2.97558">
        <ele>777.3</ele>
        <time>2024-07-23T09:54:02Z</time>
      </trkpt>
      <trkpt lat="45.91461" lon="2.97559">
        <ele>777.5</ele>
        <time>2024-07-23T09:54:03Z</time>
      </trkpt>
      <trkpt lat="45.9146" lon="2.97559">
        <ele>777.7</ele>
        <time>2024-07-23T09:54:04Z</time>
      </trkpt>
      <trkpt lat="45.91459" lon="2.97559">
        <ele>777.6</ele>
        <time>2024-07-23T09:54:05Z</time>
      </trkpt>
      <trkpt lat="45.91457" lon="2.9756">
        <ele>777.8</ele>
        <time>2024-07-23T09:54:06Z</time>
      </trkpt>
      <trkpt lat="45.91456" lon="2.9756">
        <ele>778.1</ele>
        <time>2024-07-23T09:54:07Z</time>
      </trkpt>
      <trkpt lat="45.91455" lon="2.9756">
        <ele>778.4</ele>
        <time>2024-07-23T09:54:08Z</time>
      </trkpt>
      <trkpt lat="45.91454" lon="2.97561">
        <ele>778.6</ele>
        <time>2024-07-23T09:54:09Z</time>
      </trkpt>
      <trkpt lat="45.91453" lon="2.97561">
        <ele>778.7</ele>
        <time>2024-07-23T09:54:10Z</time>
      </trkpt>
      <trkpt lat="45.91452" lon="2.97562">
        <ele>778.8</ele>
        <time>2024-07-23T09:54:11Z</time>
      </trkpt>
      <trkpt lat="45.91451" lon="2.97563">
        <ele>779.4</ele>
        <time>2024-07-23T09:54:12Z</time>
      </trkpt>
      <trkpt lat="45.9145" lon="2.97564">
        <ele>779.5</ele>
        <time>2024-07-23T09:54:13Z</time>
      </trkpt>
      <trkpt lat="45.91449" lon="2.97564">
        <ele>779.2</ele>
        <time>2024-07-23T09:54:14Z</time>
      </trkpt>
      <trkpt lat="45.91448" lon="2.97565">
        <ele>779.1</ele>
        <time>2024-07-23T09:54:15Z</time>
      </trkpt>
      <trkpt lat="45.91447" lon="2.97566">
        <ele>779.6</ele>
        <time>2024-07-23T09:54:16Z</time>
      </trkpt>
      <trkpt lat="45.91446" lon="2.97567">
        <ele>780.5</ele>
        <time>2024-07-23T09:54:17Z</time>
      </trkpt>
      <trkpt lat="45.91445" lon="2.97568">
        <ele>780.5</ele>
        <time>2024-07-23T09:54:18Z</time>
      </trkpt>
      <trkpt lat="45.91445" lon="2.97569">
        <ele>780.9</ele>
        <time>2024-07-23T09:54:19Z</time>
      </trkpt>
      <trkpt lat="45.91444" lon="2.9757">
        <ele>781</ele>
        <time>2024-07-23T09:54:20Z</time>
      </trkpt>
      <trkpt lat="45.91443" lon="2.97571">
        <ele>780.4</ele>
        <time>2024-07-23T09:54:21Z</time>
      </trkpt>
      <trkpt lat="45.91442" lon="2.97572">
        <ele>779.9</ele>
        <time>2024-07-23T09:54:22Z</time>
      </trkpt>
      <trkpt lat="45.91441" lon="2.97573">
        <ele>780.8</ele>
        <time>2024-07-23T09:54:23Z</time>
      </trkpt>
      <trkpt lat="45.9144" lon="2.97574">
        <ele>780.6</ele>
        <time>2024-07-23T09:54:24Z</time>
      </trkpt>
      <trkpt lat="45.91439" lon="2.97575">
        <ele>780.7</ele>
        <time>2024-07-23T09:54:25Z</time>
      </trkpt>
      <trkpt lat="45.91438" lon="2.97575">
        <ele>779.9</ele>
        <time>2024-07-23T09:54:26Z</time>
      </trkpt>
      <trkpt lat="45.91437" lon="2.97576">
        <ele>779.8</ele>
        <time>2024-07-23T09:54:27Z</time>
      </trkpt>
      <trkpt lat="45.91436" lon="2.97577">
        <ele>779.3</ele>
        <time>2024-07-23T09:54:28Z</time>
      </trkpt>
      <trkpt lat="45.91435" lon="2.97577">
        <ele>779.1</ele>
        <time>2024-07-23T09:54:29Z</time>
      </trkpt>
      <trkpt lat="45.91434" lon="2.97577">
        <ele>778.7</ele>
        <time>2024-07-23T09:54:30Z</time>
      </trkpt>
      <trkpt lat="45.91433" lon="2.97578">
        <ele>779.3</ele>
        <time>2024-07-23T09:54:31Z</time>
      </trkpt>
      <trkpt lat="45.91432" lon="2.97578">
        <ele>779.5</ele>
        <time>2024-07-23T09:54:32Z</time>
      </trkpt>
      <trkpt lat="45.91431" lon="2.9758">
        <ele>779.8</ele>
        <time>2024-07-23T09:54:34Z</time>
      </trkpt>
      <trkpt lat="45.91429" lon="2.97581">
        <ele>780</ele>
        <time>2024-07-23T09:54:36Z</time>
      </trkpt>
      <trkpt lat="45.91431" lon="2.97583">
        <ele>785.6</ele>
        <time>2024-07-23T09:54:39Z</time>
      </trkpt>
      <trkpt lat="45.91432" lon="2.97585">
        <ele>786.1</ele>
        <time>2024-07-23T09:54:40Z</time>
      </trkpt>
      <trkpt lat="45.91433" lon="2.97587">
        <ele>786.4</ele>
        <time>2024-07-23T09:54:41Z</time>
      </trkpt>
      <trkpt lat="45.91433" lon="2.97589">
        <ele>786.2</ele>
        <time>2024-07-23T09:54:42Z</time>
      </trkpt>
      <trkpt lat="45.91434" lon="2.9759">
        <ele>786.3</ele>
        <time>2024-07-23T09:54:43Z</time>
      </trkpt>
      <trkpt lat="45.91434" lon="2.97592">
        <ele>786.2</ele>
        <time>2024-07-23T09:54:44Z</time>
      </trkpt>
      <trkpt lat="45.91434" lon="2.97594">
        <ele>785.9</ele>
        <time>2024-07-23T09:54:45Z</time>
      </trkpt>
      <trkpt lat="45.91435" lon="2.97595">
        <ele>785.1</ele>
        <time>2024-07-23T09:54:46Z</time>
      </trkpt>
      <trkpt lat="45.91435" lon="2.97596">
        <ele>785.1</ele>
        <time>2024-07-23T09:54:48Z</time>
      </trkpt>
      <trkpt lat="45.91435" lon="2.97598">
        <ele>783.9</ele>
        <time>2024-07-23T09:54:49Z</time>
      </trkpt>
      <trkpt lat="45.91435" lon="2.976">
        <ele>783</ele>
        <time>2024-07-23T09:54:50Z</time>
      </trkpt>
      <trkpt lat="45.91435" lon="2.97602">
        <ele>782.8</ele>
        <time>2024-07-23T09:54:51Z</time>
      </trkpt>
      <trkpt lat="45.91435" lon="2.97604">
        <ele>783.4</ele>
        <time>2024-07-23T09:54:52Z</time>
      </trkpt>
      <trkpt lat="45.91435" lon="2.97606">
        <ele>783.3</ele>
        <time>2024-07-23T09:54:53Z</time>
      </trkpt>
      <trkpt lat="45.91435" lon="2.97607">
        <ele>783.2</ele>
        <time>2024-07-23T09:54:54Z</time>
      </trkpt>
      <trkpt lat="45.91436" lon="2.97612">
        <ele>781.8</ele>
        <time>2024-07-23T09:54:57Z</time>
      </trkpt>
      <trkpt lat="45.91437" lon="2.97613">
        <ele>780.6</ele>
        <time>2024-07-23T09:54:58Z</time>
      </trkpt>
      <trkpt lat="45.91437" lon="2.97616">
        <ele>780.5</ele>
        <time>2024-07-23T09:55:00Z</time>
      </trkpt>
      <trkpt lat="45.91437" lon="2.97618">
        <ele>780</ele>
        <time>2024-07-23T09:55:02Z</time>
      </trkpt>
      <trkpt lat="45.91438" lon="2.9762">
        <ele>778.5</ele>
        <time>2024-07-23T09:55:03Z</time>
      </trkpt>
      <trkpt lat="45.91438" lon="2.97622">
        <ele>777.8</ele>
        <time>2024-07-23T09:55:04Z</time>
      </trkpt>
      <trkpt lat="45.91439" lon="2.97623">
        <ele>777.8</ele>
        <time>2024-07-23T09:55:05Z</time>
      </trkpt>
      <trkpt lat="45.91439" lon="2.97625">
        <ele>776.1</ele>
        <time>2024-07-23T09:55:06Z</time>
      </trkpt>
      <trkpt lat="45.9144" lon="2.97626">
        <ele>777.9</ele>
        <time>2024-07-23T09:55:08Z</time>
      </trkpt>
      <trkpt lat="45.9144" lon="2.97628">
        <ele>777.2</ele>
        <time>2024-07-23T09:55:10Z</time>
      </trkpt>
      <trkpt lat="45.9144" lon="2.9763">
        <ele>777.4</ele>
        <time>2024-07-23T09:55:12Z</time>
      </trkpt>
      <trkpt lat="45.91441" lon="2.97632">
        <ele>777.1</ele>
        <time>2024-07-23T09:55:14Z</time>
      </trkpt>
      <trkpt lat="45.91441" lon="2.97634">
        <ele>778.3</ele>
        <time>2024-07-23T09:55:17Z</time>
      </trkpt>
      <trkpt lat="45.91441" lon="2.97638">
        <ele>779</ele>
        <time>2024-07-23T09:55:19Z</time>
      </trkpt>
      <trkpt lat="45.91441" lon="2.97641">
        <ele>779.1</ele>
        <time>2024-07-23T09:55:20Z</time>
      </trkpt>
      <trkpt lat="45.91441" lon="2.97643">
        <ele>778.8</ele>
        <time>2024-07-23T09:55:21Z</time>
      </trkpt>
      <trkpt lat="45.91441" lon="2.97644">
        <ele>778</ele>
        <time>2024-07-23T09:55:22Z</time>
      </trkpt>
      <trkpt lat="45.91441" lon="2.97646">
        <ele>777.8</ele>
        <time>2024-07-23T09:55:23Z</time>
      </trkpt>
      <trkpt lat="45.91442" lon="2.97647">
        <ele>777.3</ele>
        <time>2024-07-23T09:55:24Z</time>
      </trkpt>
      <trkpt lat="45.91442" lon="2.97649">
        <ele>776.9</ele>
        <time>2024-07-23T09:55:25Z</time>
      </trkpt>
      <trkpt lat="45.91443" lon="2.97651">
        <ele>777.4</ele>
        <time>2024-07-23T09:55:26Z</time>
      </trkpt>
      <trkpt lat="45.91444" lon="2.97652">
        <ele>777</ele>
        <time>2024-07-23T09:55:27Z</time>
      </trkpt>
      <trkpt lat="45.91445" lon="2.97654">
        <ele>776.2</ele>
        <time>2024-07-23T09:55:28Z</time>
      </trkpt>
      <trkpt lat="45.91445" lon="2.97656">
        <ele>775.7</ele>
        <time>2024-07-23T09:55:29Z</time>
      </trkpt>
      <trkpt lat="45.91445" lon="2.97659">
        <ele>774.3</ele>
        <time>2024-07-23T09:55:30Z</time>
      </trkpt>
      <trkpt lat="45.91445" lon="2.97661">
        <ele>774.2</ele>
        <time>2024-07-23T09:55:32Z</time>
      </trkpt>
      <trkpt lat="45.91445" lon="2.97663">
        <ele>774.9</ele>
        <time>2024-07-23T09:55:33Z</time>
      </trkpt>
      <trkpt lat="45.91445" lon="2.97665">
        <ele>774.4</ele>
        <time>2024-07-23T09:55:34Z</time>
      </trkpt>
      <trkpt lat="45.91445" lon="2.97666">
        <ele>774</ele>
        <time>2024-07-23T09:55:35Z</time>
      </trkpt>
      <trkpt lat="45.91444" lon="2.97668">
        <ele>774.6</ele>
        <time>2024-07-23T09:55:36Z</time>
      </trkpt>
      <trkpt lat="45.91444" lon="2.97671">
        <ele>774.8</ele>
        <time>2024-07-23T09:55:37Z</time>
      </trkpt>
      <trkpt lat="45.91444" lon="2.97673">
        <ele>774.3</ele>
        <time>2024-07-23T09:55:38Z</time>
      </trkpt>
      <trkpt lat="45.91444" lon="2.97674">
        <ele>774.8</ele>
        <time>2024-07-23T09:55:39Z</time>
      </trkpt>
      <trkpt lat="45.91444" lon="2.97676">
        <ele>773.2</ele>
        <time>2024-07-23T09:55:40Z</time>
      </trkpt>
      <trkpt lat="45.91443" lon="2.97677">
        <ele>773</ele>
        <time>2024-07-23T09:55:41Z</time>
      </trkpt>
      <trkpt lat="45.91443" lon="2.97679">
        <ele>773.1</ele>
        <time>2024-07-23T09:55:42Z</time>
      </trkpt>
      <trkpt lat="45.91442" lon="2.97681">
        <ele>773.7</ele>
        <time>2024-07-23T09:55:43Z</time>
      </trkpt>
      <trkpt lat="45.91442" lon="2.97683">
        <ele>774.1</ele>
        <time>2024-07-23T09:55:44Z</time>
      </trkpt>
      <trkpt lat="45.91442" lon="2.97684">
        <ele>774.6</ele>
        <time>2024-07-23T09:55:45Z</time>
      </trkpt>
      <trkpt lat="45.91442" lon="2.97686">
        <ele>774.2</ele>
        <time>2024-07-23T09:55:46Z</time>
      </trkpt>
      <trkpt lat="45.91442" lon="2.97688">
        <ele>774.8</ele>
        <time>2024-07-23T09:55:47Z</time>
      </trkpt>
      <trkpt lat="45.91442" lon="2.9769">
        <ele>775.1</ele>
        <time>2024-07-23T09:55:48Z</time>
      </trkpt>
      <trkpt lat="45.91441" lon="2.97691">
        <ele>774.1</ele>
        <time>2024-07-23T09:55:49Z</time>
      </trkpt>
      <trkpt lat="45.9144" lon="2.97692">
        <ele>773.8</ele>
        <time>2024-07-23T09:55:50Z</time>
      </trkpt>
      <trkpt lat="45.9144" lon="2.97693">
        <ele>774.2</ele>
        <time>2024-07-23T09:55:51Z</time>
      </trkpt>
      <trkpt lat="45.91439" lon="2.97694">
        <ele>774.5</ele>
        <time>2024-07-23T09:55:52Z</time>
      </trkpt>
      <trkpt lat="45.91439" lon="2.97695">
        <ele>774.3</ele>
        <time>2024-07-23T09:55:53Z</time>
      </trkpt>
      <trkpt lat="45.91438" lon="2.97696">
        <ele>774.2</ele>
        <time>2024-07-23T09:55:54Z</time>
      </trkpt>
      <trkpt lat="45.91438" lon="2.97697">
        <ele>774.4</ele>
        <time>2024-07-23T09:55:55Z</time>
      </trkpt>
      <trkpt lat="45.91437" lon="2.97699">
        <ele>774</ele>
        <time>2024-07-23T09:55:56Z</time>
      </trkpt>
      <trkpt lat="45.91436" lon="2.977">
        <ele>774</ele>
        <time>2024-07-23T09:55:57Z</time>
      </trkpt>
      <trkpt lat="45.91436" lon="2.97701">
        <ele>773.9</ele>
        <time>2024-07-23T09:55:58Z</time>
      </trkpt>
      <trkpt lat="45.91435" lon="2.97703">
        <ele>774.2</ele>
        <time>2024-07-23T09:56:00Z</time>
      </trkpt>
      <trkpt lat="45.91433" lon="2.97705">
        <ele>774.5</ele>
        <time>2024-07-23T09:56:02Z</time>
      </trkpt>
      <trkpt lat="45.91432" lon="2.97706">
        <ele>774.2</ele>
        <time>2024-07-23T09:56:03Z</time>
      </trkpt>
      <trkpt lat="45.91432" lon="2.97706">
        <ele>774</ele>
        <time>2024-07-23T09:56:04Z</time>
      </trkpt>
      <trkpt lat="45.91431" lon="2.97707">
        <ele>774.3</ele>
        <time>2024-07-23T09:56:05Z</time>
      </trkpt>
      <trkpt lat="45.9143" lon="2.97708">
        <ele>774.4</ele>
        <time>2024-07-23T09:56:06Z</time>
      </trkpt>
      <trkpt lat="45.91429" lon="2.9771">
        <ele>774.7</ele>
        <time>2024-07-23T09:56:08Z</time>
      </trkpt>
      <trkpt lat="45.91428" lon="2.97711">
        <ele>775</ele>
        <time>2024-07-23T09:56:09Z</time>
      </trkpt>
      <trkpt lat="45.91427" lon="2.97712">
        <ele>775.4</ele>
        <time>2024-07-23T09:56:11Z</time>
      </trkpt>
      <trkpt lat="45.91427" lon="2.97713">
        <ele>775.4</ele>
        <time>2024-07-23T09:56:12Z</time>
      </trkpt>
      <trkpt lat="45.91426" lon="2.97714">
        <ele>775.7</ele>
        <time>2024-07-23T09:56:13Z</time>
      </trkpt>
      <trkpt lat="45.91424" lon="2.97716">
        <ele>775.8</ele>
        <time>2024-07-23T09:56:15Z</time>
      </trkpt>
      <trkpt lat="45.91424" lon="2.97717">
        <ele>775.8</ele>
        <time>2024-07-23T09:56:16Z</time>
      </trkpt>
      <trkpt lat="45.91423" lon="2.97719">
        <ele>775.6</ele>
        <time>2024-07-23T09:56:17Z</time>
      </trkpt>
      <trkpt lat="45.91422" lon="2.9772">
        <ele>775.7</ele>
        <time>2024-07-23T09:56:18Z</time>
      </trkpt>
      <trkpt lat="45.91422" lon="2.97722">
        <ele>775.7</ele>
        <time>2024-07-23T09:56:19Z</time>
      </trkpt>
      <trkpt lat="45.91421" lon="2.97723">
        <ele>775.8</ele>
        <time>2024-07-23T09:56:20Z</time>
      </trkpt>
      <trkpt lat="45.9142" lon="2.97724">
        <ele>776</ele>
        <time>2024-07-23T09:56:21Z</time>
      </trkpt>
      <trkpt lat="45.91419" lon="2.97725">
        <ele>777.3</ele>
        <time>2024-07-23T09:56:22Z</time>
      </trkpt>
      <trkpt lat="45.91418" lon="2.97726">
        <ele>777.3</ele>
        <time>2024-07-23T09:56:23Z</time>
      </trkpt>
      <trkpt lat="45.91417" lon="2.97726">
        <ele>777.4</ele>
        <time>2024-07-23T09:56:24Z</time>
      </trkpt>
      <trkpt lat="45.91416" lon="2.97727">
        <ele>777.9</ele>
        <time>2024-07-23T09:56:25Z</time>
      </trkpt>
      <trkpt lat="45.91415" lon="2.97728">
        <ele>778.5</ele>
        <time>2024-07-23T09:56:26Z</time>
      </trkpt>
      <trkpt lat="45.91415" lon="2.97729">
        <ele>777.2</ele>
        <time>2024-07-23T09:56:27Z</time>
      </trkpt>
      <trkpt lat="45.91414" lon="2.9773">
        <ele>779.7</ele>
        <time>2024-07-23T09:56:28Z</time>
      </trkpt>
      <trkpt lat="45.91413" lon="2.97731">
        <ele>778.3</ele>
        <time>2024-07-23T09:56:30Z</time>
      </trkpt>
      <trkpt lat="45.91411" lon="2.97733">
        <ele>777.5</ele>
        <time>2024-07-23T09:56:32Z</time>
      </trkpt>
      <trkpt lat="45.91411" lon="2.97735">
        <ele>776.7</ele>
        <time>2024-07-23T09:56:34Z</time>
      </trkpt>
      <trkpt lat="45.9141" lon="2.97737">
        <ele>775.7</ele>
        <time>2024-07-23T09:56:36Z</time>
      </trkpt>
      <trkpt lat="45.9141" lon="2.97738">
        <ele>775.4</ele>
        <time>2024-07-23T09:56:38Z</time>
      </trkpt>
      <trkpt lat="45.91408" lon="2.97739">
        <ele>775.1</ele>
        <time>2024-07-23T09:56:41Z</time>
      </trkpt>
      <trkpt lat="45.91407" lon="2.9774">
        <ele>775.2</ele>
        <time>2024-07-23T09:56:43Z</time>
      </trkpt>
      <trkpt lat="45.91406" lon="2.9774">
        <ele>776.1</ele>
        <time>2024-07-23T09:56:45Z</time>
      </trkpt>
      <trkpt lat="45.91404" lon="2.9774">
        <ele>776.4</ele>
        <time>2024-07-23T09:56:47Z</time>
      </trkpt>
      <trkpt lat="45.91403" lon="2.9774">
        <ele>776.6</ele>
        <time>2024-07-23T09:56:48Z</time>
      </trkpt>
      <trkpt lat="45.91402" lon="2.9774">
        <ele>775.9</ele>
        <time>2024-07-23T09:56:49Z</time>
      </trkpt>
      <trkpt lat="45.91401" lon="2.97741">
        <ele>775.9</ele>
        <time>2024-07-23T09:56:50Z</time>
      </trkpt>
      <trkpt lat="45.914" lon="2.97743">
        <ele>775.6</ele>
        <time>2024-07-23T09:56:51Z</time>
      </trkpt>
      <trkpt lat="45.91399" lon="2.97744">
        <ele>775.2</ele>
        <time>2024-07-23T09:56:52Z</time>
      </trkpt>
      <trkpt lat="45.91398" lon="2.97744">
        <ele>774.8</ele>
        <time>2024-07-23T09:56:53Z</time>
      </trkpt>
      <trkpt lat="45.91397" lon="2.97745">
        <ele>774.8</ele>
        <time>2024-07-23T09:56:54Z</time>
      </trkpt>
      <trkpt lat="45.91396" lon="2.97745">
        <ele>774.2</ele>
        <time>2024-07-23T09:56:55Z</time>
      </trkpt>
      <trkpt lat="45.91395" lon="2.97746">
        <ele>774.2</ele>
        <time>2024-07-23T09:56:56Z</time>
      </trkpt>
      <trkpt lat="45.91394" lon="2.97746">
        <ele>773.2</ele>
        <time>2024-07-23T09:56:57Z</time>
      </trkpt>
      <trkpt lat="45.91393" lon="2.97747">
        <ele>773.1</ele>
        <time>2024-07-23T09:56:58Z</time>
      </trkpt>
      <trkpt lat="45.9139" lon="2.97748">
        <ele>773.4</ele>
        <time>2024-07-23T09:57:00Z</time>
      </trkpt>
      <trkpt lat="45.91389" lon="2.97749">
        <ele>773.4</ele>
        <time>2024-07-23T09:57:01Z</time>
      </trkpt>
      <trkpt lat="45.91388" lon="2.97749">
        <ele>773.2</ele>
        <time>2024-07-23T09:57:02Z</time>
      </trkpt>
      <trkpt lat="45.91387" lon="2.9775">
        <ele>772.4</ele>
        <time>2024-07-23T09:57:03Z</time>
      </trkpt>
      <trkpt lat="45.91386" lon="2.9775">
        <ele>772.4</ele>
        <time>2024-07-23T09:57:04Z</time>
      </trkpt>
      <trkpt lat="45.91385" lon="2.9775">
        <ele>771.7</ele>
        <time>2024-07-23T09:57:05Z</time>
      </trkpt>
      <trkpt lat="45.91383" lon="2.97751">
        <ele>771</ele>
        <time>2024-07-23T09:57:06Z</time>
      </trkpt>
      <trkpt lat="45.91382" lon="2.97751">
        <ele>770.6</ele>
        <time>2024-07-23T09:57:07Z</time>
      </trkpt>
      <trkpt lat="45.91381" lon="2.9775">
        <ele>770.7</ele>
        <time>2024-07-23T09:57:08Z</time>
      </trkpt>
      <trkpt lat="45.9138" lon="2.9775">
        <ele>770.7</ele>
        <time>2024-07-23T09:57:09Z</time>
      </trkpt>
      <trkpt lat="45.91378" lon="2.9775">
        <ele>771.3</ele>
        <time>2024-07-23T09:57:11Z</time>
      </trkpt>
      <trkpt lat="45.91377" lon="2.97751">
        <ele>771.2</ele>
        <time>2024-07-23T09:57:12Z</time>
      </trkpt>
      <trkpt lat="45.91376" lon="2.97751">
        <ele>771.3</ele>
        <time>2024-07-23T09:57:13Z</time>
      </trkpt>
      <trkpt lat="45.91375" lon="2.97752">
        <ele>771.5</ele>
        <time>2024-07-23T09:57:14Z</time>
      </trkpt>
      <trkpt lat="45.91374" lon="2.97752">
        <ele>771.7</ele>
        <time>2024-07-23T09:57:15Z</time>
      </trkpt>
      <trkpt lat="45.91373" lon="2.97753">
        <ele>772.2</ele>
        <time>2024-07-23T09:57:16Z</time>
      </trkpt>
      <trkpt lat="45.91372" lon="2.97754">
        <ele>771.9</ele>
        <time>2024-07-23T09:57:17Z</time>
      </trkpt>
      <trkpt lat="45.91371" lon="2.97754">
        <ele>772.1</ele>
        <time>2024-07-23T09:57:18Z</time>
      </trkpt>
      <trkpt lat="45.9137" lon="2.97755">
        <ele>772.4</ele>
        <time>2024-07-23T09:57:19Z</time>
      </trkpt>
      <trkpt lat="45.91369" lon="2.97755">
        <ele>772.2</ele>
        <time>2024-07-23T09:57:20Z</time>
      </trkpt>
      <trkpt lat="45.91368" lon="2.97756">
        <ele>772.2</ele>
        <time>2024-07-23T09:57:22Z</time>
      </trkpt>
      <trkpt lat="45.91367" lon="2.97756">
        <ele>771.6</ele>
        <time>2024-07-23T09:57:23Z</time>
      </trkpt>
      <trkpt lat="45.91365" lon="2.97756">
        <ele>771.8</ele>
        <time>2024-07-23T09:57:32Z</time>
      </trkpt>
      <trkpt lat="45.91364" lon="2.97757">
        <ele>771.5</ele>
        <time>2024-07-23T09:57:33Z</time>
      </trkpt>
      <trkpt lat="45.91363" lon="2.97757">
        <ele>771.8</ele>
        <time>2024-07-23T09:57:34Z</time>
      </trkpt>
      <trkpt lat="45.91362" lon="2.97758">
        <ele>772.1</ele>
        <time>2024-07-23T09:57:35Z</time>
      </trkpt>
      <trkpt lat="45.91361" lon="2.97758">
        <ele>771.9</ele>
        <time>2024-07-23T09:57:36Z</time>
      </trkpt>
      <trkpt lat="45.9136" lon="2.97758">
        <ele>772</ele>
        <time>2024-07-23T09:57:37Z</time>
      </trkpt>
      <trkpt lat="45.91359" lon="2.97758">
        <ele>771.9</ele>
        <time>2024-07-23T09:57:38Z</time>
      </trkpt>
      <trkpt lat="45.91358" lon="2.97758">
        <ele>772.3</ele>
        <time>2024-07-23T09:57:39Z</time>
      </trkpt>
      <trkpt lat="45.91357" lon="2.97759">
        <ele>772.4</ele>
        <time>2024-07-23T09:57:40Z</time>
      </trkpt>
      <trkpt lat="45.91355" lon="2.97759">
        <ele>772.4</ele>
        <time>2024-07-23T09:57:41Z</time>
      </trkpt>
      <trkpt lat="45.91355" lon="2.97759">
        <ele>772.6</ele>
        <time>2024-07-23T09:57:42Z</time>
      </trkpt>
      <trkpt lat="45.91354" lon="2.97759">
        <ele>772.5</ele>
        <time>2024-07-23T09:57:43Z</time>
      </trkpt>
      <trkpt lat="45.91353" lon="2.9776">
        <ele>772.9</ele>
        <time>2024-07-23T09:57:44Z</time>
      </trkpt>
      <trkpt lat="45.91352" lon="2.9776">
        <ele>772.5</ele>
        <time>2024-07-23T09:57:45Z</time>
      </trkpt>
      <trkpt lat="45.91351" lon="2.97759">
        <ele>772.4</ele>
        <time>2024-07-23T09:57:46Z</time>
      </trkpt>
      <trkpt lat="45.9135" lon="2.97759">
        <ele>772.3</ele>
        <time>2024-07-23T09:57:47Z</time>
      </trkpt>
      <trkpt lat="45.91349" lon="2.97759">
        <ele>772.4</ele>
        <time>2024-07-23T09:57:48Z</time>
      </trkpt>
      <trkpt lat="45.91348" lon="2.97759">
        <ele>772.5</ele>
        <time>2024-07-23T09:57:49Z</time>
      </trkpt>
      <trkpt lat="45.91347" lon="2.97759">
        <ele>772.5</ele>
        <time>2024-07-23T09:57:50Z</time>
      </trkpt>
      <trkpt lat="45.91346" lon="2.97759">
        <ele>772.4</ele>
        <time>2024-07-23T09:57:51Z</time>
      </trkpt>
      <trkpt lat="45.91345" lon="2.97759">
        <ele>772.6</ele>
        <time>2024-07-23T09:57:52Z</time>
      </trkpt>
      <trkpt lat="45.91344" lon="2.9776">
        <ele>772.7</ele>
        <time>2024-07-23T09:57:53Z</time>
      </trkpt>
      <trkpt lat="45.91343" lon="2.9776">
        <ele>772.6</ele>
        <time>2024-07-23T09:57:54Z</time>
      </trkpt>
      <trkpt lat="45.91342" lon="2.97761">
        <ele>772.7</ele>
        <time>2024-07-23T09:57:55Z</time>
      </trkpt>
      <trkpt lat="45.91341" lon="2.97761">
        <ele>772.2</ele>
        <time>2024-07-23T09:57:56Z</time>
      </trkpt>
      <trkpt lat="45.9134" lon="2.97762">
        <ele>772.2</ele>
        <time>2024-07-23T09:57:57Z</time>
      </trkpt>
      <trkpt lat="45.91339" lon="2.97762">
        <ele>772.5</ele>
        <time>2024-07-23T09:57:58Z</time>
      </trkpt>
      <trkpt lat="45.91338" lon="2.97762">
        <ele>772.1</ele>
        <time>2024-07-23T09:57:59Z</time>
      </trkpt>
      <trkpt lat="45.91336" lon="2.97762">
        <ele>772.1</ele>
        <time>2024-07-23T09:58:00Z</time>
      </trkpt>
      <trkpt lat="45.91335" lon="2.97763">
        <ele>772.1</ele>
        <time>2024-07-23T09:58:01Z</time>
      </trkpt>
      <trkpt lat="45.91334" lon="2.97763">
        <ele>772</ele>
        <time>2024-07-23T09:58:02Z</time>
      </trkpt>
      <trkpt lat="45.91333" lon="2.97763">
        <ele>772.1</ele>
        <time>2024-07-23T09:58:03Z</time>
      </trkpt>
      <trkpt lat="45.91332" lon="2.97763">
        <ele>771.8</ele>
        <time>2024-07-23T09:58:04Z</time>
      </trkpt>
      <trkpt lat="45.91331" lon="2.97763">
        <ele>771.8</ele>
        <time>2024-07-23T09:58:05Z</time>
      </trkpt>
      <trkpt lat="45.9133" lon="2.97763">
        <ele>771.9</ele>
        <time>2024-07-23T09:58:06Z</time>
      </trkpt>
      <trkpt lat="45.91329" lon="2.97763">
        <ele>772</ele>
        <time>2024-07-23T09:58:07Z</time>
      </trkpt>
      <trkpt lat="45.91328" lon="2.97763">
        <ele>771.9</ele>
        <time>2024-07-23T09:58:08Z</time>
      </trkpt>
      <trkpt lat="45.91327" lon="2.97763">
        <ele>771.6</ele>
        <time>2024-07-23T09:58:09Z</time>
      </trkpt>
      <trkpt lat="45.91326" lon="2.97763">
        <ele>771.6</ele>
        <time>2024-07-23T09:58:10Z</time>
      </trkpt>
      <trkpt lat="45.91324" lon="2.97763">
        <ele>771.5</ele>
        <time>2024-07-23T09:58:11Z</time>
      </trkpt>
      <trkpt lat="45.91323" lon="2.97763">
        <ele>771.4</ele>
        <time>2024-07-23T09:58:12Z</time>
      </trkpt>
      <trkpt lat="45.91322" lon="2.97762">
        <ele>771.1</ele>
        <time>2024-07-23T09:58:13Z</time>
      </trkpt>
      <trkpt lat="45.91321" lon="2.97762">
        <ele>771.5</ele>
        <time>2024-07-23T09:58:14Z</time>
      </trkpt>
      <trkpt lat="45.9132" lon="2.97762">
        <ele>771.5</ele>
        <time>2024-07-23T09:58:15Z</time>
      </trkpt>
      <trkpt lat="45.91318" lon="2.97762">
        <ele>771.5</ele>
        <time>2024-07-23T09:58:16Z</time>
      </trkpt>
      <trkpt lat="45.91317" lon="2.97761">
        <ele>771.4</ele>
        <time>2024-07-23T09:58:17Z</time>
      </trkpt>
      <trkpt lat="45.91316" lon="2.97761">
        <ele>771.4</ele>
        <time>2024-07-23T09:58:18Z</time>
      </trkpt>
      <trkpt lat="45.91315" lon="2.97761">
        <ele>771.3</ele>
        <time>2024-07-23T09:58:19Z</time>
      </trkpt>
      <trkpt lat="45.91314" lon="2.97761">
        <ele>771.2</ele>
        <time>2024-07-23T09:58:20Z</time>
      </trkpt>
      <trkpt lat="45.91313" lon="2.97761">
        <ele>771.2</ele>
        <time>2024-07-23T09:58:21Z</time>
      </trkpt>
      <trkpt lat="45.91311" lon="2.9776">
        <ele>771</ele>
        <time>2024-07-23T09:58:22Z</time>
      </trkpt>
      <trkpt lat="45.9131" lon="2.9776">
        <ele>771.2</ele>
        <time>2024-07-23T09:58:23Z</time>
      </trkpt>
      <trkpt lat="45.91309" lon="2.9776">
        <ele>771.2</ele>
        <time>2024-07-23T09:58:24Z</time>
      </trkpt>
      <trkpt lat="45.91308" lon="2.9776">
        <ele>771.3</ele>
        <time>2024-07-23T09:58:25Z</time>
      </trkpt>
      <trkpt lat="45.91307" lon="2.9776">
        <ele>771.2</ele>
        <time>2024-07-23T09:58:26Z</time>
      </trkpt>
      <trkpt lat="45.91306" lon="2.97759">
        <ele>770.9</ele>
        <time>2024-07-23T09:58:27Z</time>
      </trkpt>
      <trkpt lat="45.91305" lon="2.97759">
        <ele>770.9</ele>
        <time>2024-07-23T09:58:28Z</time>
      </trkpt>
      <trkpt lat="45.91304" lon="2.97759">
        <ele>771</ele>
        <time>2024-07-23T09:58:29Z</time>
      </trkpt>
      <trkpt lat="45.91302" lon="2.97759">
        <ele>771.1</ele>
        <time>2024-07-23T09:58:30Z</time>
      </trkpt>
      <trkpt lat="45.91301" lon="2.97759">
        <ele>771</ele>
        <time>2024-07-23T09:58:31Z</time>
      </trkpt>
      <trkpt lat="45.913" lon="2.97759">
        <ele>771.1</ele>
        <time>2024-07-23T09:58:32Z</time>
      </trkpt>
      <trkpt lat="45.91299" lon="2.97759">
        <ele>771.4</ele>
        <time>2024-07-23T09:58:33Z</time>
      </trkpt>
      <trkpt lat="45.91298" lon="2.97758">
        <ele>771.3</ele>
        <time>2024-07-23T09:58:34Z</time>
      </trkpt>
      <trkpt lat="45.91297" lon="2.97758">
        <ele>771.5</ele>
        <time>2024-07-23T09:58:35Z</time>
      </trkpt>
      <trkpt lat="45.91295" lon="2.97758">
        <ele>771.1</ele>
        <time>2024-07-23T09:58:37Z</time>
      </trkpt>
      <trkpt lat="45.91294" lon="2.97757">
        <ele>771.2</ele>
        <time>2024-07-23T09:58:38Z</time>
      </trkpt>
      <trkpt lat="45.91293" lon="2.97757">
        <ele>771.7</ele>
        <time>2024-07-23T09:58:39Z</time>
      </trkpt>
      <trkpt lat="45.91292" lon="2.97757">
        <ele>771.5</ele>
        <time>2024-07-23T09:58:40Z</time>
      </trkpt>
      <trkpt lat="45.91291" lon="2.97757">
        <ele>771.4</ele>
        <time>2024-07-23T09:58:41Z</time>
      </trkpt>
      <trkpt lat="45.9129" lon="2.97756">
        <ele>771.8</ele>
        <time>2024-07-23T09:58:42Z</time>
      </trkpt>
      <trkpt lat="45.91289" lon="2.97756">
        <ele>771.6</ele>
        <time>2024-07-23T09:58:43Z</time>
      </trkpt>
      <trkpt lat="45.91288" lon="2.97756">
        <ele>771.6</ele>
        <time>2024-07-23T09:58:44Z</time>
      </trkpt>
      <trkpt lat="45.91286" lon="2.97756">
        <ele>771.7</ele>
        <time>2024-07-23T09:58:45Z</time>
      </trkpt>
      <trkpt lat="45.91285" lon="2.97756">
        <ele>772.1</ele>
        <time>2024-07-23T09:58:46Z</time>
      </trkpt>
      <trkpt lat="45.91284" lon="2.97756">
        <ele>772</ele>
        <time>2024-07-23T09:58:47Z</time>
      </trkpt>
      <trkpt lat="45.91283" lon="2.97756">
        <ele>771.7</ele>
        <time>2024-07-23T09:58:48Z</time>
      </trkpt>
      <trkpt lat="45.91282" lon="2.97755">
        <ele>771.7</ele>
        <time>2024-07-23T09:58:49Z</time>
      </trkpt>
      <trkpt lat="45.91281" lon="2.97755">
        <ele>771.6</ele>
        <time>2024-07-23T09:58:50Z</time>
      </trkpt>
      <trkpt lat="45.9128" lon="2.97755">
        <ele>771.7</ele>
        <time>2024-07-23T09:58:51Z</time>
      </trkpt>
      <trkpt lat="45.91279" lon="2.97755">
        <ele>771.9</ele>
        <time>2024-07-23T09:58:52Z</time>
      </trkpt>
      <trkpt lat="45.91278" lon="2.97754">
        <ele>771.9</ele>
        <time>2024-07-23T09:58:53Z</time>
      </trkpt>
      <trkpt lat="45.91277" lon="2.97754">
        <ele>771.6</ele>
        <time>2024-07-23T09:58:54Z</time>
      </trkpt>
      <trkpt lat="45.91276" lon="2.97753">
        <ele>771.6</ele>
        <time>2024-07-23T09:58:55Z</time>
      </trkpt>
      <trkpt lat="45.91274" lon="2.97753">
        <ele>771.8</ele>
        <time>2024-07-23T09:58:56Z</time>
      </trkpt>
      <trkpt lat="45.91273" lon="2.97753">
        <ele>771.7</ele>
        <time>2024-07-23T09:58:57Z</time>
      </trkpt>
      <trkpt lat="45.91272" lon="2.97753">
        <ele>771.9</ele>
        <time>2024-07-23T09:58:58Z</time>
      </trkpt>
      <trkpt lat="45.91271" lon="2.97753">
        <ele>771.8</ele>
        <time>2024-07-23T09:58:59Z</time>
      </trkpt>
      <trkpt lat="45.9127" lon="2.97753">
        <ele>771.7</ele>
        <time>2024-07-23T09:59:00Z</time>
      </trkpt>
      <trkpt lat="45.91269" lon="2.97753">
        <ele>771.6</ele>
        <time>2024-07-23T09:59:01Z</time>
      </trkpt>
      <trkpt lat="45.91268" lon="2.97752">
        <ele>771.9</ele>
        <time>2024-07-23T09:59:02Z</time>
      </trkpt>
      <trkpt lat="45.91267" lon="2.97752">
        <ele>771.4</ele>
        <time>2024-07-23T09:59:03Z</time>
      </trkpt>
      <trkpt lat="45.91265" lon="2.97752">
        <ele>771.1</ele>
        <time>2024-07-23T09:59:04Z</time>
      </trkpt>
      <trkpt lat="45.91263" lon="2.97751">
        <ele>770.8</ele>
        <time>2024-07-23T09:59:06Z</time>
      </trkpt>
      <trkpt lat="45.91262" lon="2.97751">
        <ele>770.9</ele>
        <time>2024-07-23T09:59:07Z</time>
      </trkpt>
      <trkpt lat="45.9126" lon="2.9775">
        <ele>771.1</ele>
        <time>2024-07-23T09:59:09Z</time>
      </trkpt>
      <trkpt lat="45.91258" lon="2.97749">
        <ele>770.9</ele>
        <time>2024-07-23T09:59:11Z</time>
      </trkpt>
      <trkpt lat="45.91257" lon="2.97749">
        <ele>771</ele>
        <time>2024-07-23T09:59:12Z</time>
      </trkpt>
      <trkpt lat="45.91255" lon="2.97748">
        <ele>770.5</ele>
        <time>2024-07-23T09:59:14Z</time>
      </trkpt>
      <trkpt lat="45.91254" lon="2.97748">
        <ele>770.5</ele>
        <time>2024-07-23T09:59:15Z</time>
      </trkpt>
      <trkpt lat="45.91253" lon="2.97748">
        <ele>770.4</ele>
        <time>2024-07-23T09:59:16Z</time>
      </trkpt>
      <trkpt lat="45.91252" lon="2.97747">
        <ele>770.6</ele>
        <time>2024-07-23T09:59:17Z</time>
      </trkpt>
      <trkpt lat="45.91251" lon="2.97747">
        <ele>770.7</ele>
        <time>2024-07-23T09:59:18Z</time>
      </trkpt>
      <trkpt lat="45.91249" lon="2.97747">
        <ele>770.8</ele>
        <time>2024-07-23T09:59:19Z</time>
      </trkpt>
      <trkpt lat="45.91248" lon="2.97747">
        <ele>770.9</ele>
        <time>2024-07-23T09:59:20Z</time>
      </trkpt>
      <trkpt lat="45.91247" lon="2.97746">
        <ele>771</ele>
        <time>2024-07-23T09:59:21Z</time>
      </trkpt>
      <trkpt lat="45.91246" lon="2.97745">
        <ele>770.6</ele>
        <time>2024-07-23T09:59:22Z</time>
      </trkpt>
      <trkpt lat="45.91245" lon="2.97745">
        <ele>770.7</ele>
        <time>2024-07-23T09:59:23Z</time>
      </trkpt>
      <trkpt lat="45.91244" lon="2.97744">
        <ele>770.7</ele>
        <time>2024-07-23T09:59:24Z</time>
      </trkpt>
      <trkpt lat="45.91243" lon="2.97743">
        <ele>770.5</ele>
        <time>2024-07-23T09:59:25Z</time>
      </trkpt>
      <trkpt lat="45.91242" lon="2.97743">
        <ele>770.4</ele>
        <time>2024-07-23T09:59:26Z</time>
      </trkpt>
      <trkpt lat="45.91241" lon="2.97742">
        <ele>770</ele>
        <time>2024-07-23T09:59:27Z</time>
      </trkpt>
      <trkpt lat="45.9124" lon="2.97742">
        <ele>770.1</ele>
        <time>2024-07-23T09:59:28Z</time>
      </trkpt>
      <trkpt lat="45.91239" lon="2.97741">
        <ele>770</ele>
        <time>2024-07-23T09:59:29Z</time>
      </trkpt>
      <trkpt lat="45.91238" lon="2.9774">
        <ele>769.8</ele>
        <time>2024-07-23T09:59:30Z</time>
      </trkpt>
      <trkpt lat="45.91237" lon="2.9774">
        <ele>769.6</ele>
        <time>2024-07-23T09:59:31Z</time>
      </trkpt>
      <trkpt lat="45.91237" lon="2.97739">
        <ele>769.4</ele>
        <time>2024-07-23T09:59:32Z</time>
      </trkpt>
      <trkpt lat="45.91236" lon="2.97738">
        <ele>769.4</ele>
        <time>2024-07-23T09:59:33Z</time>
      </trkpt>
      <trkpt lat="45.91235" lon="2.97738">
        <ele>769.5</ele>
        <time>2024-07-23T09:59:34Z</time>
      </trkpt>
      <trkpt lat="45.91234" lon="2.97737">
        <ele>769.6</ele>
        <time>2024-07-23T09:59:35Z</time>
      </trkpt>
      <trkpt lat="45.91233" lon="2.97736">
        <ele>769.3</ele>
        <time>2024-07-23T09:59:36Z</time>
      </trkpt>
      <trkpt lat="45.91232" lon="2.97736">
        <ele>769.3</ele>
        <time>2024-07-23T09:59:37Z</time>
      </trkpt>
      <trkpt lat="45.91231" lon="2.97735">
        <ele>769.4</ele>
        <time>2024-07-23T09:59:38Z</time>
      </trkpt>
      <trkpt lat="45.9123" lon="2.97734">
        <ele>769.2</ele>
        <time>2024-07-23T09:59:39Z</time>
      </trkpt>
      <trkpt lat="45.91229" lon="2.97734">
        <ele>769.1</ele>
        <time>2024-07-23T09:59:40Z</time>
      </trkpt>
      <trkpt lat="45.91228" lon="2.97733">
        <ele>769</ele>
        <time>2024-07-23T09:59:41Z</time>
      </trkpt>
      <trkpt lat="45.91227" lon="2.97733">
        <ele>769.1</ele>
        <time>2024-07-23T09:59:42Z</time>
      </trkpt>
      <trkpt lat="45.91226" lon="2.97732">
        <ele>769.3</ele>
        <time>2024-07-23T09:59:43Z</time>
      </trkpt>
      <trkpt lat="45.91225" lon="2.97732">
        <ele>769.6</ele>
        <time>2024-07-23T09:59:44Z</time>
      </trkpt>
      <trkpt lat="45.91224" lon="2.97731">
        <ele>769.5</ele>
        <time>2024-07-23T09:59:45Z</time>
      </trkpt>
      <trkpt lat="45.91223" lon="2.9773">
        <ele>769.6</ele>
        <time>2024-07-23T09:59:46Z</time>
      </trkpt>
      <trkpt lat="45.91222" lon="2.9773">
        <ele>769.5</ele>
        <time>2024-07-23T09:59:47Z</time>
      </trkpt>
      <trkpt lat="45.91221" lon="2.97729">
        <ele>769.7</ele>
        <time>2024-07-23T09:59:48Z</time>
      </trkpt>
      <trkpt lat="45.9122" lon="2.97729">
        <ele>769.7</ele>
        <time>2024-07-23T09:59:49Z</time>
      </trkpt>
      <trkpt lat="45.91219" lon="2.97728">
        <ele>769.6</ele>
        <time>2024-07-23T09:59:50Z</time>
      </trkpt>
      <trkpt lat="45.91218" lon="2.97727">
        <ele>769.3</ele>
        <time>2024-07-23T09:59:51Z</time>
      </trkpt>
      <trkpt lat="45.91217" lon="2.97727">
        <ele>768.9</ele>
        <time>2024-07-23T09:59:52Z</time>
      </trkpt>
      <trkpt lat="45.91216" lon="2.97726">
        <ele>769.1</ele>
        <time>2024-07-23T09:59:53Z</time>
      </trkpt>
      <trkpt lat="45.91215" lon="2.97725">
        <ele>769.1</ele>
        <time>2024-07-23T09:59:54Z</time>
      </trkpt>
      <trkpt lat="45.91214" lon="2.97724">
        <ele>768.8</ele>
        <time>2024-07-23T09:59:55Z</time>
      </trkpt>
      <trkpt lat="45.91213" lon="2.97724">
        <ele>768.9</ele>
        <time>2024-07-23T09:59:56Z</time>
      </trkpt>
      <trkpt lat="45.91211" lon="2.97723">
        <ele>768.7</ele>
        <time>2024-07-23T09:59:57Z</time>
      </trkpt>
      <trkpt lat="45.9121" lon="2.97723">
        <ele>768.6</ele>
        <time>2024-07-23T09:59:58Z</time>
      </trkpt>
      <trkpt lat="45.91209" lon="2.97722">
        <ele>768.8</ele>
        <time>2024-07-23T09:59:59Z</time>
      </trkpt>
      <trkpt lat="45.91208" lon="2.97721">
        <ele>768.6</ele>
        <time>2024-07-23T10:00:00Z</time>
      </trkpt>
      <trkpt lat="45.91208" lon="2.97721">
        <ele>768.3</ele>
        <time>2024-07-23T10:00:01Z</time>
      </trkpt>
      <trkpt lat="45.91207" lon="2.9772">
        <ele>768.4</ele>
        <time>2024-07-23T10:00:02Z</time>
      </trkpt>
      <trkpt lat="45.91206" lon="2.97719">
        <ele>768.4</ele>
        <time>2024-07-23T10:00:03Z</time>
      </trkpt>
      <trkpt lat="45.91205" lon="2.97719">
        <ele>768.1</ele>
        <time>2024-07-23T10:00:04Z</time>
      </trkpt>
      <trkpt lat="45.91204" lon="2.97718">
        <ele>768.1</ele>
        <time>2024-07-23T10:00:05Z</time>
      </trkpt>
      <trkpt lat="45.91203" lon="2.97717">
        <ele>767.8</ele>
        <time>2024-07-23T10:00:06Z</time>
      </trkpt>
      <trkpt lat="45.91202" lon="2.97717">
        <ele>767.5</ele>
        <time>2024-07-23T10:00:07Z</time>
      </trkpt>
      <trkpt lat="45.91201" lon="2.97716">
        <ele>767.5</ele>
        <time>2024-07-23T10:00:08Z</time>
      </trkpt>
      <trkpt lat="45.912" lon="2.97716">
        <ele>767.9</ele>
        <time>2024-07-23T10:00:09Z</time>
      </trkpt>
      <trkpt lat="45.91199" lon="2.97715">
        <ele>767.8</ele>
        <time>2024-07-23T10:00:10Z</time>
      </trkpt>
      <trkpt lat="45.91198" lon="2.97715">
        <ele>767.8</ele>
        <time>2024-07-23T10:00:11Z</time>
      </trkpt>
      <trkpt lat="45.91197" lon="2.97714">
        <ele>767.7</ele>
        <time>2024-07-23T10:00:12Z</time>
      </trkpt>
      <trkpt lat="45.91196" lon="2.97713">
        <ele>767.8</ele>
        <time>2024-07-23T10:00:13Z</time>
      </trkpt>
      <trkpt lat="45.91195" lon="2.97712">
        <ele>767.9</ele>
        <time>2024-07-23T10:00:14Z</time>
      </trkpt>
      <trkpt lat="45.91194" lon="2.97712">
        <ele>767.7</ele>
        <time>2024-07-23T10:00:15Z</time>
      </trkpt>
      <trkpt lat="45.91193" lon="2.97711">
        <ele>767.7</ele>
        <time>2024-07-23T10:00:16Z</time>
      </trkpt>
      <trkpt lat="45.91192" lon="2.9771">
        <ele>767.2</ele>
        <time>2024-07-23T10:00:17Z</time>
      </trkpt>
      <trkpt lat="45.91191" lon="2.9771">
        <ele>767.4</ele>
        <time>2024-07-23T10:00:18Z</time>
      </trkpt>
      <trkpt lat="45.9119" lon="2.97709">
        <ele>767.5</ele>
        <time>2024-07-23T10:00:19Z</time>
      </trkpt>
      <trkpt lat="45.91189" lon="2.97708">
        <ele>768.5</ele>
        <time>2024-07-23T10:00:20Z</time>
      </trkpt>
      <trkpt lat="45.91188" lon="2.97707">
        <ele>768.2</ele>
        <time>2024-07-23T10:00:21Z</time>
      </trkpt>
      <trkpt lat="45.91187" lon="2.97706">
        <ele>768.4</ele>
        <time>2024-07-23T10:00:22Z</time>
      </trkpt>
      <trkpt lat="45.91187" lon="2.97706">
        <ele>768.7</ele>
        <time>2024-07-23T10:00:23Z</time>
      </trkpt>
      <trkpt lat="45.91186" lon="2.97705">
        <ele>768.7</ele>
        <time>2024-07-23T10:00:24Z</time>
      </trkpt>
      <trkpt lat="45.91185" lon="2.97704">
        <ele>768.9</ele>
        <time>2024-07-23T10:00:25Z</time>
      </trkpt>
      <trkpt lat="45.91184" lon="2.97704">
        <ele>768.8</ele>
        <time>2024-07-23T10:00:26Z</time>
      </trkpt>
      <trkpt lat="45.91183" lon="2.97703">
        <ele>768.9</ele>
        <time>2024-07-23T10:00:27Z</time>
      </trkpt>
      <trkpt lat="45.91182" lon="2.97703">
        <ele>769</ele>
        <time>2024-07-23T10:00:28Z</time>
      </trkpt>
      <trkpt lat="45.91181" lon="2.97702">
        <ele>768.7</ele>
        <time>2024-07-23T10:00:29Z</time>
      </trkpt>
      <trkpt lat="45.9118" lon="2.97701">
        <ele>768.9</ele>
        <time>2024-07-23T10:00:30Z</time>
      </trkpt>
      <trkpt lat="45.91179" lon="2.97701">
        <ele>769.1</ele>
        <time>2024-07-23T10:00:31Z</time>
      </trkpt>
      <trkpt lat="45.91178" lon="2.97701">
        <ele>768.8</ele>
        <time>2024-07-23T10:00:32Z</time>
      </trkpt>
      <trkpt lat="45.91177" lon="2.977">
        <ele>768.2</ele>
        <time>2024-07-23T10:00:33Z</time>
      </trkpt>
      <trkpt lat="45.91176" lon="2.977">
        <ele>768.1</ele>
        <time>2024-07-23T10:00:34Z</time>
      </trkpt>
      <trkpt lat="45.91175" lon="2.97699">
        <ele>768.2</ele>
        <time>2024-07-23T10:00:35Z</time>
      </trkpt>
      <trkpt lat="45.91174" lon="2.97699">
        <ele>768.2</ele>
        <time>2024-07-23T10:00:36Z</time>
      </trkpt>
      <trkpt lat="45.91173" lon="2.97698">
        <ele>768.1</ele>
        <time>2024-07-23T10:00:37Z</time>
      </trkpt>
      <trkpt lat="45.91172" lon="2.97698">
        <ele>767.8</ele>
        <time>2024-07-23T10:00:38Z</time>
      </trkpt>
      <trkpt lat="45.91171" lon="2.97697">
        <ele>768.1</ele>
        <time>2024-07-23T10:00:39Z</time>
      </trkpt>
      <trkpt lat="45.9117" lon="2.97697">
        <ele>768.2</ele>
        <time>2024-07-23T10:00:40Z</time>
      </trkpt>
      <trkpt lat="45.91169" lon="2.97697">
        <ele>768.4</ele>
        <time>2024-07-23T10:00:41Z</time>
      </trkpt>
      <trkpt lat="45.91168" lon="2.97696">
        <ele>768.6</ele>
        <time>2024-07-23T10:00:42Z</time>
      </trkpt>
      <trkpt lat="45.91167" lon="2.97697">
        <ele>768.6</ele>
        <time>2024-07-23T10:00:43Z</time>
      </trkpt>
      <trkpt lat="45.91166" lon="2.97697">
        <ele>768.6</ele>
        <time>2024-07-23T10:00:44Z</time>
      </trkpt>
      <trkpt lat="45.91165" lon="2.97697">
        <ele>768.6</ele>
        <time>2024-07-23T10:00:45Z</time>
      </trkpt>
      <trkpt lat="45.91164" lon="2.97698">
        <ele>768.5</ele>
        <time>2024-07-23T10:00:46Z</time>
      </trkpt>
      <trkpt lat="45.91162" lon="2.97698">
        <ele>768.6</ele>
        <time>2024-07-23T10:00:48Z</time>
      </trkpt>
      <trkpt lat="45.91161" lon="2.97698">
        <ele>768.6</ele>
        <time>2024-07-23T10:00:49Z</time>
      </trkpt>
      <trkpt lat="45.9116" lon="2.97698">
        <ele>768</ele>
        <time>2024-07-23T10:00:50Z</time>
      </trkpt>
      <trkpt lat="45.91159" lon="2.97698">
        <ele>768.1</ele>
        <time>2024-07-23T10:00:51Z</time>
      </trkpt>
      <trkpt lat="45.91158" lon="2.97697">
        <ele>768</ele>
        <time>2024-07-23T10:00:52Z</time>
      </trkpt>
      <trkpt lat="45.91157" lon="2.97697">
        <ele>767.9</ele>
        <time>2024-07-23T10:00:53Z</time>
      </trkpt>
      <trkpt lat="45.91156" lon="2.97697">
        <ele>767.7</ele>
        <time>2024-07-23T10:00:54Z</time>
      </trkpt>
      <trkpt lat="45.91155" lon="2.97697">
        <ele>767.5</ele>
        <time>2024-07-23T10:00:55Z</time>
      </trkpt>
      <trkpt lat="45.91154" lon="2.97697">
        <ele>767.4</ele>
        <time>2024-07-23T10:00:56Z</time>
      </trkpt>
      <trkpt lat="45.91153" lon="2.97697">
        <ele>767.5</ele>
        <time>2024-07-23T10:00:57Z</time>
      </trkpt>
      <trkpt lat="45.91152" lon="2.97697">
        <ele>767.4</ele>
        <time>2024-07-23T10:00:58Z</time>
      </trkpt>
      <trkpt lat="45.91151" lon="2.97697">
        <ele>767.5</ele>
        <time>2024-07-23T10:00:59Z</time>
      </trkpt>
      <trkpt lat="45.9115" lon="2.97697">
        <ele>767.4</ele>
        <time>2024-07-23T10:01:00Z</time>
      </trkpt>
      <trkpt lat="45.91149" lon="2.97697">
        <ele>767.2</ele>
        <time>2024-07-23T10:01:01Z</time>
      </trkpt>
      <trkpt lat="45.91148" lon="2.97697">
        <ele>767</ele>
        <time>2024-07-23T10:01:02Z</time>
      </trkpt>
      <trkpt lat="45.91147" lon="2.97697">
        <ele>766.7</ele>
        <time>2024-07-23T10:01:03Z</time>
      </trkpt>
      <trkpt lat="45.91146" lon="2.97697">
        <ele>766.9</ele>
        <time>2024-07-23T10:01:04Z</time>
      </trkpt>
      <trkpt lat="45.91145" lon="2.97697">
        <ele>767.1</ele>
        <time>2024-07-23T10:01:05Z</time>
      </trkpt>
      <trkpt lat="45.91144" lon="2.97696">
        <ele>767</ele>
        <time>2024-07-23T10:01:06Z</time>
      </trkpt>
      <trkpt lat="45.91143" lon="2.97696">
        <ele>767.1</ele>
        <time>2024-07-23T10:01:07Z</time>
      </trkpt>
      <trkpt lat="45.91142" lon="2.97695">
        <ele>767.2</ele>
        <time>2024-07-23T10:01:08Z</time>
      </trkpt>
      <trkpt lat="45.91141" lon="2.97695">
        <ele>767.1</ele>
        <time>2024-07-23T10:01:09Z</time>
      </trkpt>
      <trkpt lat="45.9114" lon="2.97695">
        <ele>767</ele>
        <time>2024-07-23T10:01:10Z</time>
      </trkpt>
      <trkpt lat="45.91139" lon="2.97695">
        <ele>766.9</ele>
        <time>2024-07-23T10:01:11Z</time>
      </trkpt>
      <trkpt lat="45.91138" lon="2.97695">
        <ele>767.1</ele>
        <time>2024-07-23T10:01:12Z</time>
      </trkpt>
      <trkpt lat="45.91137" lon="2.97695">
        <ele>767.1</ele>
        <time>2024-07-23T10:01:13Z</time>
      </trkpt>
      <trkpt lat="45.91136" lon="2.97695">
        <ele>767</ele>
        <time>2024-07-23T10:01:14Z</time>
      </trkpt>
      <trkpt lat="45.91135" lon="2.97694">
        <ele>767</ele>
        <time>2024-07-23T10:01:15Z</time>
      </trkpt>
      <trkpt lat="45.91134" lon="2.97694">
        <ele>767.5</ele>
        <time>2024-07-23T10:01:16Z</time>
      </trkpt>
      <trkpt lat="45.91133" lon="2.97694">
        <ele>767.6</ele>
        <time>2024-07-23T10:01:17Z</time>
      </trkpt>
      <trkpt lat="45.91132" lon="2.97694">
        <ele>767.5</ele>
        <time>2024-07-23T10:01:18Z</time>
      </trkpt>
      <trkpt lat="45.91131" lon="2.97694">
        <ele>767.7</ele>
        <time>2024-07-23T10:01:19Z</time>
      </trkpt>
      <trkpt lat="45.9113" lon="2.97694">
        <ele>767.8</ele>
        <time>2024-07-23T10:01:20Z</time>
      </trkpt>
      <trkpt lat="45.91129" lon="2.97695">
        <ele>767.8</ele>
        <time>2024-07-23T10:01:21Z</time>
      </trkpt>
      <trkpt lat="45.91128" lon="2.97695">
        <ele>767.6</ele>
        <time>2024-07-23T10:01:22Z</time>
      </trkpt>
      <trkpt lat="45.91127" lon="2.97695">
        <ele>767.7</ele>
        <time>2024-07-23T10:01:23Z</time>
      </trkpt>
      <trkpt lat="45.91126" lon="2.97695">
        <ele>767.8</ele>
        <time>2024-07-23T10:01:24Z</time>
      </trkpt>
      <trkpt lat="45.91125" lon="2.97695">
        <ele>767.6</ele>
        <time>2024-07-23T10:01:25Z</time>
      </trkpt>
      <trkpt lat="45.91124" lon="2.97695">
        <ele>767.6</ele>
        <time>2024-07-23T10:01:26Z</time>
      </trkpt>
      <trkpt lat="45.91123" lon="2.97695">
        <ele>767.5</ele>
        <time>2024-07-23T10:01:27Z</time>
      </trkpt>
      <trkpt lat="45.91122" lon="2.97696">
        <ele>767.2</ele>
        <time>2024-07-23T10:01:28Z</time>
      </trkpt>
      <trkpt lat="45.91121" lon="2.97696">
        <ele>767.3</ele>
        <time>2024-07-23T10:01:29Z</time>
      </trkpt>
      <trkpt lat="45.9112" lon="2.97696">
        <ele>767.4</ele>
        <time>2024-07-23T10:01:30Z</time>
      </trkpt>
      <trkpt lat="45.91119" lon="2.97696">
        <ele>767.4</ele>
        <time>2024-07-23T10:01:31Z</time>
      </trkpt>
      <trkpt lat="45.91118" lon="2.97696">
        <ele>767.3</ele>
        <time>2024-07-23T10:01:32Z</time>
      </trkpt>
      <trkpt lat="45.91117" lon="2.97696">
        <ele>767.3</ele>
        <time>2024-07-23T10:01:33Z</time>
      </trkpt>
      <trkpt lat="45.91117" lon="2.97696">
        <ele>767.3</ele>
        <time>2024-07-23T10:01:34Z</time>
      </trkpt>
      <trkpt lat="45.91115" lon="2.97696">
        <ele>767.4</ele>
        <time>2024-07-23T10:01:35Z</time>
      </trkpt>
      <trkpt lat="45.91115" lon="2.97696">
        <ele>767</ele>
        <time>2024-07-23T10:01:36Z</time>
      </trkpt>
      <trkpt lat="45.91114" lon="2.97696">
        <ele>766.7</ele>
        <time>2024-07-23T10:01:37Z</time>
      </trkpt>
      <trkpt lat="45.91113" lon="2.97696">
        <ele>766.7</ele>
        <time>2024-07-23T10:01:38Z</time>
      </trkpt>
      <trkpt lat="45.91112" lon="2.97696">
        <ele>766.6</ele>
        <time>2024-07-23T10:01:39Z</time>
      </trkpt>
      <trkpt lat="45.91111" lon="2.97696">
        <ele>766.1</ele>
        <time>2024-07-23T10:01:40Z</time>
      </trkpt>
      <trkpt lat="45.91109" lon="2.97696">
        <ele>766.1</ele>
        <time>2024-07-23T10:01:41Z</time>
      </trkpt>
      <trkpt lat="45.91108" lon="2.97697">
        <ele>766.7</ele>
        <time>2024-07-23T10:01:42Z</time>
      </trkpt>
      <trkpt lat="45.91107" lon="2.97697">
        <ele>766.6</ele>
        <time>2024-07-23T10:01:43Z</time>
      </trkpt>
      <trkpt lat="45.91106" lon="2.97697">
        <ele>766.7</ele>
        <time>2024-07-23T10:01:44Z</time>
      </trkpt>
      <trkpt lat="45.91105" lon="2.97697">
        <ele>766.7</ele>
        <time>2024-07-23T10:01:45Z</time>
      </trkpt>
      <trkpt lat="45.91104" lon="2.97697">
        <ele>766.8</ele>
        <time>2024-07-23T10:01:46Z</time>
      </trkpt>
      <trkpt lat="45.91103" lon="2.97697">
        <ele>767.1</ele>
        <time>2024-07-23T10:01:47Z</time>
      </trkpt>
      <trkpt lat="45.91103" lon="2.97697">
        <ele>767.5</ele>
        <time>2024-07-23T10:01:48Z</time>
      </trkpt>
      <trkpt lat="45.91101" lon="2.97697">
        <ele>768.3</ele>
        <time>2024-07-23T10:01:50Z</time>
      </trkpt>
      <trkpt lat="45.911" lon="2.97697">
        <ele>768.1</ele>
        <time>2024-07-23T10:01:51Z</time>
      </trkpt>
      <trkpt lat="45.91099" lon="2.97697">
        <ele>767.8</ele>
        <time>2024-07-23T10:01:52Z</time>
      </trkpt>
      <trkpt lat="45.91098" lon="2.97697">
        <ele>768.5</ele>
        <time>2024-07-23T10:01:53Z</time>
      </trkpt>
      <trkpt lat="45.91097" lon="2.97698">
        <ele>769</ele>
        <time>2024-07-23T10:01:54Z</time>
      </trkpt>
      <trkpt lat="45.91096" lon="2.97698">
        <ele>768.7</ele>
        <time>2024-07-23T10:01:55Z</time>
      </trkpt>
      <trkpt lat="45.91095" lon="2.97698">
        <ele>769.2</ele>
        <time>2024-07-23T10:01:56Z</time>
      </trkpt>
      <trkpt lat="45.91094" lon="2.97698">
        <ele>769.6</ele>
        <time>2024-07-23T10:01:57Z</time>
      </trkpt>
      <trkpt lat="45.91092" lon="2.97698">
        <ele>769.6</ele>
        <time>2024-07-23T10:01:58Z</time>
      </trkpt>
      <trkpt lat="45.91091" lon="2.97698">
        <ele>769.4</ele>
        <time>2024-07-23T10:01:59Z</time>
      </trkpt>
      <trkpt lat="45.9109" lon="2.97698">
        <ele>769.8</ele>
        <time>2024-07-23T10:02:00Z</time>
      </trkpt>
      <trkpt lat="45.91089" lon="2.97698">
        <ele>769.6</ele>
        <time>2024-07-23T10:02:01Z</time>
      </trkpt>
      <trkpt lat="45.91088" lon="2.97698">
        <ele>769.4</ele>
        <time>2024-07-23T10:02:02Z</time>
      </trkpt>
      <trkpt lat="45.91087" lon="2.97699">
        <ele>769.2</ele>
        <time>2024-07-23T10:02:03Z</time>
      </trkpt>
      <trkpt lat="45.91085" lon="2.97699">
        <ele>770.2</ele>
        <time>2024-07-23T10:02:05Z</time>
      </trkpt>
      <trkpt lat="45.91084" lon="2.977">
        <ele>770</ele>
        <time>2024-07-23T10:02:06Z</time>
      </trkpt>
      <trkpt lat="45.91083" lon="2.977">
        <ele>770.3</ele>
        <time>2024-07-23T10:02:07Z</time>
      </trkpt>
      <trkpt lat="45.91081" lon="2.977">
        <ele>770.2</ele>
        <time>2024-07-23T10:02:09Z</time>
      </trkpt>
      <trkpt lat="45.91079" lon="2.977">
        <ele>770.6</ele>
        <time>2024-07-23T10:02:11Z</time>
      </trkpt>
      <trkpt lat="45.91078" lon="2.977">
        <ele>770.3</ele>
        <time>2024-07-23T10:02:13Z</time>
      </trkpt>
      <trkpt lat="45.91076" lon="2.97701">
        <ele>769.7</ele>
        <time>2024-07-23T10:02:15Z</time>
      </trkpt>
      <trkpt lat="45.91075" lon="2.97701">
        <ele>770</ele>
        <time>2024-07-23T10:02:16Z</time>
      </trkpt>
      <trkpt lat="45.91074" lon="2.97701">
        <ele>770.5</ele>
        <time>2024-07-23T10:02:17Z</time>
      </trkpt>
      <trkpt lat="45.91073" lon="2.97701">
        <ele>770.6</ele>
        <time>2024-07-23T10:02:18Z</time>
      </trkpt>
      <trkpt lat="45.91072" lon="2.977">
        <ele>770.8</ele>
        <time>2024-07-23T10:02:19Z</time>
      </trkpt>
      <trkpt lat="45.91071" lon="2.977">
        <ele>770.6</ele>
        <time>2024-07-23T10:02:20Z</time>
      </trkpt>
      <trkpt lat="45.91069" lon="2.97701">
        <ele>770</ele>
        <time>2024-07-23T10:02:22Z</time>
      </trkpt>
      <trkpt lat="45.91068" lon="2.97701">
        <ele>771.1</ele>
        <time>2024-07-23T10:02:23Z</time>
      </trkpt>
      <trkpt lat="45.91066" lon="2.97701">
        <ele>772.1</ele>
        <time>2024-07-23T10:02:25Z</time>
      </trkpt>
      <trkpt lat="45.91065" lon="2.97702">
        <ele>772.7</ele>
        <time>2024-07-23T10:02:27Z</time>
      </trkpt>
      <trkpt lat="45.91064" lon="2.97703">
        <ele>772.8</ele>
        <time>2024-07-23T10:02:28Z</time>
      </trkpt>
      <trkpt lat="45.91062" lon="2.97704">
        <ele>773</ele>
        <time>2024-07-23T10:02:30Z</time>
      </trkpt>
      <trkpt lat="45.91061" lon="2.97705">
        <ele>774</ele>
        <time>2024-07-23T10:02:32Z</time>
      </trkpt>
      <trkpt lat="45.91059" lon="2.97706">
        <ele>774.2</ele>
        <time>2024-07-23T10:02:34Z</time>
      </trkpt>
      <trkpt lat="45.91058" lon="2.97706">
        <ele>774.8</ele>
        <time>2024-07-23T10:02:36Z</time>
      </trkpt>
      <trkpt lat="45.91056" lon="2.97707">
        <ele>774.9</ele>
        <time>2024-07-23T10:02:38Z</time>
      </trkpt>
      <trkpt lat="45.91055" lon="2.97707">
        <ele>775</ele>
        <time>2024-07-23T10:02:39Z</time>
      </trkpt>
      <trkpt lat="45.91054" lon="2.97708">
        <ele>775.2</ele>
        <time>2024-07-23T10:02:40Z</time>
      </trkpt>
      <trkpt lat="45.91054" lon="2.97709">
        <ele>775.5</ele>
        <time>2024-07-23T10:02:41Z</time>
      </trkpt>
      <trkpt lat="45.91053" lon="2.97709">
        <ele>775.3</ele>
        <time>2024-07-23T10:02:42Z</time>
      </trkpt>
      <trkpt lat="45.91052" lon="2.97709">
        <ele>775.4</ele>
        <time>2024-07-23T10:02:43Z</time>
      </trkpt>
      <trkpt lat="45.91051" lon="2.9771">
        <ele>775.3</ele>
        <time>2024-07-23T10:02:44Z</time>
      </trkpt>
      <trkpt lat="45.9105" lon="2.97711">
        <ele>774.4</ele>
        <time>2024-07-23T10:02:46Z</time>
      </trkpt>
      <trkpt lat="45.91049" lon="2.97713">
        <ele>775.5</ele>
        <time>2024-07-23T10:02:48Z</time>
      </trkpt>
      <trkpt lat="45.91048" lon="2.97713">
        <ele>775.5</ele>
        <time>2024-07-23T10:02:54Z</time>
      </trkpt>
      <trkpt lat="45.91047" lon="2.97715">
        <ele>774.9</ele>
        <time>2024-07-23T10:02:56Z</time>
      </trkpt>
      <trkpt lat="45.91046" lon="2.97716">
        <ele>774.7</ele>
        <time>2024-07-23T10:02:58Z</time>
      </trkpt>
      <trkpt lat="45.91045" lon="2.97718">
        <ele>774.7</ele>
        <time>2024-07-23T10:03:00Z</time>
      </trkpt>
      <trkpt lat="45.91044" lon="2.9772">
        <ele>774.7</ele>
        <time>2024-07-23T10:03:02Z</time>
      </trkpt>
      <trkpt lat="45.91044" lon="2.97723">
        <ele>774.3</ele>
        <time>2024-07-23T10:03:04Z</time>
      </trkpt>
      <trkpt lat="45.91043" lon="2.97724">
        <ele>774.1</ele>
        <time>2024-07-23T10:03:05Z</time>
      </trkpt>
      <trkpt lat="45.91043" lon="2.97727">
        <ele>773.8</ele>
        <time>2024-07-23T10:03:08Z</time>
      </trkpt>
      <trkpt lat="45.91043" lon="2.9773">
        <ele>773.7</ele>
        <time>2024-07-23T10:03:10Z</time>
      </trkpt>
      <trkpt lat="45.91043" lon="2.97731">
        <ele>773.8</ele>
        <time>2024-07-23T10:03:11Z</time>
      </trkpt>
      <trkpt lat="45.91043" lon="2.97734">
        <ele>773.6</ele>
        <time>2024-07-23T10:03:13Z</time>
      </trkpt>
      <trkpt lat="45.91043" lon="2.97735">
        <ele>773.6</ele>
        <time>2024-07-23T10:03:14Z</time>
      </trkpt>
      <trkpt lat="45.91043" lon="2.97736">
        <ele>773.7</ele>
        <time>2024-07-23T10:03:15Z</time>
      </trkpt>
      <trkpt lat="45.91043" lon="2.97738">
        <ele>773.6</ele>
        <time>2024-07-23T10:03:16Z</time>
      </trkpt>
      <trkpt lat="45.91043" lon="2.97739">
        <ele>773.6</ele>
        <time>2024-07-23T10:03:17Z</time>
      </trkpt>
      <trkpt lat="45.91043" lon="2.97741">
        <ele>773.8</ele>
        <time>2024-07-23T10:03:18Z</time>
      </trkpt>
      <trkpt lat="45.91043" lon="2.97742">
        <ele>773.7</ele>
        <time>2024-07-23T10:03:19Z</time>
      </trkpt>
      <trkpt lat="45.91043" lon="2.97744">
        <ele>773.6</ele>
        <time>2024-07-23T10:03:20Z</time>
      </trkpt>
      <trkpt lat="45.91043" lon="2.97745">
        <ele>773.7</ele>
        <time>2024-07-23T10:03:21Z</time>
      </trkpt>
      <trkpt lat="45.91043" lon="2.97746">
        <ele>773.9</ele>
        <time>2024-07-23T10:03:22Z</time>
      </trkpt>
      <trkpt lat="45.91044" lon="2.97748">
        <ele>773.8</ele>
        <time>2024-07-23T10:03:23Z</time>
      </trkpt>
      <trkpt lat="45.91044" lon="2.97749">
        <ele>773.5</ele>
        <time>2024-07-23T10:03:24Z</time>
      </trkpt>
      <trkpt lat="45.91044" lon="2.97751">
        <ele>773.6</ele>
        <time>2024-07-23T10:03:25Z</time>
      </trkpt>
      <trkpt lat="45.91044" lon="2.97753">
        <ele>773.7</ele>
        <time>2024-07-23T10:03:26Z</time>
      </trkpt>
      <trkpt lat="45.91044" lon="2.97754">
        <ele>773.8</ele>
        <time>2024-07-23T10:03:27Z</time>
      </trkpt>
      <trkpt lat="45.91045" lon="2.97756">
        <ele>773.6</ele>
        <time>2024-07-23T10:03:28Z</time>
      </trkpt>
      <trkpt lat="45.91045" lon="2.97757">
        <ele>773.4</ele>
        <time>2024-07-23T10:03:29Z</time>
      </trkpt>
      <trkpt lat="45.91045" lon="2.97759">
        <ele>773.4</ele>
        <time>2024-07-23T10:03:30Z</time>
      </trkpt>
      <trkpt lat="45.91045" lon="2.9776">
        <ele>773.1</ele>
        <time>2024-07-23T10:03:31Z</time>
      </trkpt>
      <trkpt lat="45.91045" lon="2.97762">
        <ele>772.7</ele>
        <time>2024-07-23T10:03:32Z</time>
      </trkpt>
      <trkpt lat="45.91045" lon="2.97763">
        <ele>772.3</ele>
        <time>2024-07-23T10:03:33Z</time>
      </trkpt>
      <trkpt lat="45.91046" lon="2.97765">
        <ele>772.1</ele>
        <time>2024-07-23T10:03:34Z</time>
      </trkpt>
      <trkpt lat="45.91046" lon="2.97767">
        <ele>770.9</ele>
        <time>2024-07-23T10:03:35Z</time>
      </trkpt>
      <trkpt lat="45.91046" lon="2.97768">
        <ele>770.7</ele>
        <time>2024-07-23T10:03:36Z</time>
      </trkpt>
      <trkpt lat="45.91046" lon="2.9777">
        <ele>771</ele>
        <time>2024-07-23T10:03:37Z</time>
      </trkpt>
      <trkpt lat="45.91046" lon="2.97772">
        <ele>770.8</ele>
        <time>2024-07-23T10:03:38Z</time>
      </trkpt>
      <trkpt lat="45.91046" lon="2.97773">
        <ele>770.9</ele>
        <time>2024-07-23T10:03:39Z</time>
      </trkpt>
      <trkpt lat="45.91047" lon="2.97775">
        <ele>771.1</ele>
        <time>2024-07-23T10:03:40Z</time>
      </trkpt>
      <trkpt lat="45.91047" lon="2.97776">
        <ele>771.1</ele>
        <time>2024-07-23T10:03:41Z</time>
      </trkpt>
      <trkpt lat="45.91047" lon="2.97778">
        <ele>771.3</ele>
        <time>2024-07-23T10:03:42Z</time>
      </trkpt>
      <trkpt lat="45.91047" lon="2.97779">
        <ele>771.2</ele>
        <time>2024-07-23T10:03:43Z</time>
      </trkpt>
      <trkpt lat="45.91047" lon="2.97781">
        <ele>771.1</ele>
        <time>2024-07-23T10:03:44Z</time>
      </trkpt>
      <trkpt lat="45.91047" lon="2.97782">
        <ele>771</ele>
        <time>2024-07-23T10:03:45Z</time>
      </trkpt>
      <trkpt lat="45.91047" lon="2.97784">
        <ele>771.1</ele>
        <time>2024-07-23T10:03:46Z</time>
      </trkpt>
      <trkpt lat="45.91047" lon="2.97785">
        <ele>770.8</ele>
        <time>2024-07-23T10:03:47Z</time>
      </trkpt>
      <trkpt lat="45.91048" lon="2.97787">
        <ele>771.1</ele>
        <time>2024-07-23T10:03:48Z</time>
      </trkpt>
      <trkpt lat="45.91048" lon="2.97788">
        <ele>771</ele>
        <time>2024-07-23T10:03:49Z</time>
      </trkpt>
      <trkpt lat="45.91048" lon="2.9779">
        <ele>771.1</ele>
        <time>2024-07-23T10:03:50Z</time>
      </trkpt>
      <trkpt lat="45.91048" lon="2.97791">
        <ele>771.2</ele>
        <time>2024-07-23T10:03:51Z</time>
      </trkpt>
      <trkpt lat="45.91048" lon="2.97793">
        <ele>771</ele>
        <time>2024-07-23T10:03:52Z</time>
      </trkpt>
      <trkpt lat="45.91048" lon="2.97795">
        <ele>771</ele>
        <time>2024-07-23T10:03:53Z</time>
      </trkpt>
      <trkpt lat="45.91048" lon="2.97796">
        <ele>770.7</ele>
        <time>2024-07-23T10:03:54Z</time>
      </trkpt>
      <trkpt lat="45.91048" lon="2.97799">
        <ele>770.6</ele>
        <time>2024-07-23T10:03:56Z</time>
      </trkpt>
      <trkpt lat="45.91048" lon="2.97801">
        <ele>771.6</ele>
        <time>2024-07-23T10:03:57Z</time>
      </trkpt>
      <trkpt lat="45.91049" lon="2.97802">
        <ele>771.7</ele>
        <time>2024-07-23T10:03:58Z</time>
      </trkpt>
      <trkpt lat="45.91049" lon="2.97804">
        <ele>771.6</ele>
        <time>2024-07-23T10:03:59Z</time>
      </trkpt>
      <trkpt lat="45.91049" lon="2.97805">
        <ele>771.1</ele>
        <time>2024-07-23T10:04:00Z</time>
      </trkpt>
      <trkpt lat="45.91049" lon="2.97807">
        <ele>770.6</ele>
        <time>2024-07-23T10:04:01Z</time>
      </trkpt>
      <trkpt lat="45.91049" lon="2.97808">
        <ele>770.8</ele>
        <time>2024-07-23T10:04:02Z</time>
      </trkpt>
      <trkpt lat="45.91049" lon="2.9781">
        <ele>770.8</ele>
        <time>2024-07-23T10:04:03Z</time>
      </trkpt>
      <trkpt lat="45.91049" lon="2.97811">
        <ele>771.1</ele>
        <time>2024-07-23T10:04:04Z</time>
      </trkpt>
      <trkpt lat="45.9105" lon="2.97813">
        <ele>771.1</ele>
        <time>2024-07-23T10:04:05Z</time>
      </trkpt>
      <trkpt lat="45.9105" lon="2.97815">
        <ele>771.3</ele>
        <time>2024-07-23T10:04:06Z</time>
      </trkpt>
      <trkpt lat="45.9105" lon="2.97816">
        <ele>771.3</ele>
        <time>2024-07-23T10:04:07Z</time>
      </trkpt>
      <trkpt lat="45.9105" lon="2.97818">
        <ele>770.4</ele>
        <time>2024-07-23T10:04:08Z</time>
      </trkpt>
      <trkpt lat="45.91051" lon="2.9782">
        <ele>770.3</ele>
        <time>2024-07-23T10:04:09Z</time>
      </trkpt>
      <trkpt lat="45.91051" lon="2.97821">
        <ele>770.6</ele>
        <time>2024-07-23T10:04:10Z</time>
      </trkpt>
      <trkpt lat="45.91051" lon="2.97823">
        <ele>770.7</ele>
        <time>2024-07-23T10:04:11Z</time>
      </trkpt>
      <trkpt lat="45.91051" lon="2.97825">
        <ele>770.5</ele>
        <time>2024-07-23T10:04:12Z</time>
      </trkpt>
      <trkpt lat="45.91051" lon="2.97826">
        <ele>772.1</ele>
        <time>2024-07-23T10:04:13Z</time>
      </trkpt>
      <trkpt lat="45.91051" lon="2.97828">
        <ele>771.7</ele>
        <time>2024-07-23T10:04:14Z</time>
      </trkpt>
      <trkpt lat="45.91052" lon="2.9783">
        <ele>772.8</ele>
        <time>2024-07-23T10:04:15Z</time>
      </trkpt>
      <trkpt lat="45.91052" lon="2.97832">
        <ele>772.6</ele>
        <time>2024-07-23T10:04:16Z</time>
      </trkpt>
      <trkpt lat="45.91053" lon="2.97833">
        <ele>772.5</ele>
        <time>2024-07-23T10:04:17Z</time>
      </trkpt>
      <trkpt lat="45.91054" lon="2.97836">
        <ele>772.9</ele>
        <time>2024-07-23T10:04:19Z</time>
      </trkpt>
      <trkpt lat="45.91054" lon="2.97838">
        <ele>772.6</ele>
        <time>2024-07-23T10:04:20Z</time>
      </trkpt>
      <trkpt lat="45.91054" lon="2.97839">
        <ele>772.5</ele>
        <time>2024-07-23T10:04:21Z</time>
      </trkpt>
      <trkpt lat="45.91054" lon="2.97841">
        <ele>772.5</ele>
        <time>2024-07-23T10:04:22Z</time>
      </trkpt>
      <trkpt lat="45.91054" lon="2.97842">
        <ele>772.5</ele>
        <time>2024-07-23T10:04:23Z</time>
      </trkpt>
      <trkpt lat="45.91054" lon="2.97844">
        <ele>773.2</ele>
        <time>2024-07-23T10:04:24Z</time>
      </trkpt>
      <trkpt lat="45.91054" lon="2.97846">
        <ele>772.4</ele>
        <time>2024-07-23T10:04:25Z</time>
      </trkpt>
      <trkpt lat="45.91055" lon="2.97847">
        <ele>772.6</ele>
        <time>2024-07-23T10:04:26Z</time>
      </trkpt>
      <trkpt lat="45.91055" lon="2.97849">
        <ele>772.6</ele>
        <time>2024-07-23T10:04:27Z</time>
      </trkpt>
      <trkpt lat="45.91055" lon="2.9785">
        <ele>772.8</ele>
        <time>2024-07-23T10:04:28Z</time>
      </trkpt>
      <trkpt lat="45.91055" lon="2.97852">
        <ele>772.3</ele>
        <time>2024-07-23T10:04:29Z</time>
      </trkpt>
      <trkpt lat="45.91055" lon="2.97853">
        <ele>772.7</ele>
        <time>2024-07-23T10:04:30Z</time>
      </trkpt>
      <trkpt lat="45.91055" lon="2.97854">
        <ele>773</ele>
        <time>2024-07-23T10:04:31Z</time>
      </trkpt>
      <trkpt lat="45.91056" lon="2.97856">
        <ele>772.9</ele>
        <time>2024-07-23T10:04:32Z</time>
      </trkpt>
      <trkpt lat="45.91056" lon="2.97858">
        <ele>772.2</ele>
        <time>2024-07-23T10:04:33Z</time>
      </trkpt>
      <trkpt lat="45.91056" lon="2.97859">
        <ele>773.2</ele>
        <time>2024-07-23T10:04:34Z</time>
      </trkpt>
      <trkpt lat="45.91057" lon="2.97861">
        <ele>773.3</ele>
        <time>2024-07-23T10:04:35Z</time>
      </trkpt>
      <trkpt lat="45.91057" lon="2.97862">
        <ele>771.3</ele>
        <time>2024-07-23T10:04:36Z</time>
      </trkpt>
      <trkpt lat="45.91057" lon="2.97864">
        <ele>771.6</ele>
        <time>2024-07-23T10:04:37Z</time>
      </trkpt>
      <trkpt lat="45.91057" lon="2.97866">
        <ele>773.1</ele>
        <time>2024-07-23T10:04:39Z</time>
      </trkpt>
      <trkpt lat="45.91057" lon="2.97867">
        <ele>773</ele>
        <time>2024-07-23T10:04:40Z</time>
      </trkpt>
      <trkpt lat="45.91058" lon="2.97869">
        <ele>773.2</ele>
        <time>2024-07-23T10:04:41Z</time>
      </trkpt>
      <trkpt lat="45.91058" lon="2.9787">
        <ele>773.7</ele>
        <time>2024-07-23T10:04:42Z</time>
      </trkpt>
      <trkpt lat="45.91058" lon="2.97872">
        <ele>773.7</ele>
        <time>2024-07-23T10:04:43Z</time>
      </trkpt>
      <trkpt lat="45.91058" lon="2.97873">
        <ele>773.6</ele>
        <time>2024-07-23T10:04:44Z</time>
      </trkpt>
      <trkpt lat="45.91058" lon="2.97875">
        <ele>774.3</ele>
        <time>2024-07-23T10:04:45Z</time>
      </trkpt>
      <trkpt lat="45.91058" lon="2.97876">
        <ele>774.2</ele>
        <time>2024-07-23T10:04:46Z</time>
      </trkpt>
      <trkpt lat="45.91058" lon="2.97877">
        <ele>773.7</ele>
        <time>2024-07-23T10:04:47Z</time>
      </trkpt>
      <trkpt lat="45.91058" lon="2.97879">
        <ele>773.5</ele>
        <time>2024-07-23T10:04:48Z</time>
      </trkpt>
      <trkpt lat="45.91057" lon="2.9788">
        <ele>773.4</ele>
        <time>2024-07-23T10:04:49Z</time>
      </trkpt>
      <trkpt lat="45.91057" lon="2.97882">
        <ele>772.9</ele>
        <time>2024-07-23T10:04:50Z</time>
      </trkpt>
      <trkpt lat="45.91057" lon="2.97883">
        <ele>773.5</ele>
        <time>2024-07-23T10:04:51Z</time>
      </trkpt>
      <trkpt lat="45.91057" lon="2.97885">
        <ele>773.7</ele>
        <time>2024-07-23T10:04:52Z</time>
      </trkpt>
      <trkpt lat="45.91057" lon="2.97886">
        <ele>772.8</ele>
        <time>2024-07-23T10:04:53Z</time>
      </trkpt>
      <trkpt lat="45.91057" lon="2.97888">
        <ele>772.7</ele>
        <time>2024-07-23T10:04:54Z</time>
      </trkpt>
      <trkpt lat="45.91057" lon="2.9789">
        <ele>772.3</ele>
        <time>2024-07-23T10:04:55Z</time>
      </trkpt>
      <trkpt lat="45.91057" lon="2.97892">
        <ele>772</ele>
        <time>2024-07-23T10:04:56Z</time>
      </trkpt>
      <trkpt lat="45.91057" lon="2.97893">
        <ele>772.4</ele>
        <time>2024-07-23T10:04:57Z</time>
      </trkpt>
      <trkpt lat="45.91057" lon="2.97896">
        <ele>772.5</ele>
        <time>2024-07-23T10:04:59Z</time>
      </trkpt>
      <trkpt lat="45.91057" lon="2.97898">
        <ele>772.2</ele>
        <time>2024-07-23T10:05:00Z</time>
      </trkpt>
      <trkpt lat="45.91057" lon="2.97901">
        <ele>772.6</ele>
        <time>2024-07-23T10:05:02Z</time>
      </trkpt>
      <trkpt lat="45.91056" lon="2.97903">
        <ele>772.8</ele>
        <time>2024-07-23T10:05:03Z</time>
      </trkpt>
      <trkpt lat="45.91056" lon="2.97904">
        <ele>772.8</ele>
        <time>2024-07-23T10:05:04Z</time>
      </trkpt>
      <trkpt lat="45.91056" lon="2.97906">
        <ele>773.1</ele>
        <time>2024-07-23T10:05:05Z</time>
      </trkpt>
      <trkpt lat="45.91056" lon="2.97907">
        <ele>773.4</ele>
        <time>2024-07-23T10:05:06Z</time>
      </trkpt>
      <trkpt lat="45.91056" lon="2.97909">
        <ele>773.5</ele>
        <time>2024-07-23T10:05:07Z</time>
      </trkpt>
      <trkpt lat="45.91056" lon="2.9791">
        <ele>773.3</ele>
        <time>2024-07-23T10:05:08Z</time>
      </trkpt>
      <trkpt lat="45.91057" lon="2.97912">
        <ele>773.2</ele>
        <time>2024-07-23T10:05:09Z</time>
      </trkpt>
      <trkpt lat="45.91056" lon="2.97913">
        <ele>773.5</ele>
        <time>2024-07-23T10:05:10Z</time>
      </trkpt>
      <trkpt lat="45.91056" lon="2.97914">
        <ele>773.5</ele>
        <time>2024-07-23T10:05:11Z</time>
      </trkpt>
      <trkpt lat="45.91056" lon="2.97916">
        <ele>773.6</ele>
        <time>2024-07-23T10:05:12Z</time>
      </trkpt>
      <trkpt lat="45.91056" lon="2.97917">
        <ele>773.4</ele>
        <time>2024-07-23T10:05:13Z</time>
      </trkpt>
      <trkpt lat="45.91056" lon="2.97919">
        <ele>773.7</ele>
        <time>2024-07-23T10:05:14Z</time>
      </trkpt>
      <trkpt lat="45.91056" lon="2.9792">
        <ele>774.1</ele>
        <time>2024-07-23T10:05:15Z</time>
      </trkpt>
      <trkpt lat="45.91055" lon="2.97922">
        <ele>774.4</ele>
        <time>2024-07-23T10:05:16Z</time>
      </trkpt>
      <trkpt lat="45.91055" lon="2.97923">
        <ele>774</ele>
        <time>2024-07-23T10:05:17Z</time>
      </trkpt>
      <trkpt lat="45.91055" lon="2.97925">
        <ele>773.8</ele>
        <time>2024-07-23T10:05:18Z</time>
      </trkpt>
      <trkpt lat="45.91055" lon="2.97926">
        <ele>773.6</ele>
        <time>2024-07-23T10:05:19Z</time>
      </trkpt>
      <trkpt lat="45.91055" lon="2.97928">
        <ele>773.6</ele>
        <time>2024-07-23T10:05:20Z</time>
      </trkpt>
      <trkpt lat="45.91055" lon="2.9793">
        <ele>773.6</ele>
        <time>2024-07-23T10:05:21Z</time>
      </trkpt>
      <trkpt lat="45.91055" lon="2.97931">
        <ele>773.2</ele>
        <time>2024-07-23T10:05:22Z</time>
      </trkpt>
      <trkpt lat="45.91055" lon="2.97933">
        <ele>773.4</ele>
        <time>2024-07-23T10:05:23Z</time>
      </trkpt>
      <trkpt lat="45.91054" lon="2.97934">
        <ele>774.1</ele>
        <time>2024-07-23T10:05:24Z</time>
      </trkpt>
      <trkpt lat="45.91054" lon="2.97936">
        <ele>773.7</ele>
        <time>2024-07-23T10:05:25Z</time>
      </trkpt>
      <trkpt lat="45.91053" lon="2.97938">
        <ele>773.5</ele>
        <time>2024-07-23T10:05:26Z</time>
      </trkpt>
      <trkpt lat="45.91053" lon="2.97939">
        <ele>773.6</ele>
        <time>2024-07-23T10:05:27Z</time>
      </trkpt>
      <trkpt lat="45.91053" lon="2.97941">
        <ele>773.5</ele>
        <time>2024-07-23T10:05:28Z</time>
      </trkpt>
      <trkpt lat="45.91053" lon="2.97942">
        <ele>773.8</ele>
        <time>2024-07-23T10:05:29Z</time>
      </trkpt>
      <trkpt lat="45.91052" lon="2.97944">
        <ele>773.8</ele>
        <time>2024-07-23T10:05:30Z</time>
      </trkpt>
      <trkpt lat="45.91052" lon="2.97946">
        <ele>773.8</ele>
        <time>2024-07-23T10:05:31Z</time>
      </trkpt>
      <trkpt lat="45.91052" lon="2.97947">
        <ele>774.4</ele>
        <time>2024-07-23T10:05:32Z</time>
      </trkpt>
      <trkpt lat="45.91052" lon="2.97949">
        <ele>774.4</ele>
        <time>2024-07-23T10:05:33Z</time>
      </trkpt>
      <trkpt lat="45.91052" lon="2.97951">
        <ele>774</ele>
        <time>2024-07-23T10:05:34Z</time>
      </trkpt>
      <trkpt lat="45.91052" lon="2.97952">
        <ele>773.6</ele>
        <time>2024-07-23T10:05:35Z</time>
      </trkpt>
      <trkpt lat="45.91052" lon="2.97954">
        <ele>773.4</ele>
        <time>2024-07-23T10:05:36Z</time>
      </trkpt>
      <trkpt lat="45.91052" lon="2.97955">
        <ele>772.5</ele>
        <time>2024-07-23T10:05:41Z</time>
      </trkpt>
      <trkpt lat="45.91052" lon="2.97957">
        <ele>772</ele>
        <time>2024-07-23T10:05:49Z</time>
      </trkpt>
      <trkpt lat="45.91052" lon="2.97958">
        <ele>771.6</ele>
        <time>2024-07-23T10:05:50Z</time>
      </trkpt>
      <trkpt lat="45.91052" lon="2.9796">
        <ele>771.9</ele>
        <time>2024-07-23T10:05:51Z</time>
      </trkpt>
      <trkpt lat="45.91052" lon="2.97961">
        <ele>771.9</ele>
        <time>2024-07-23T10:05:52Z</time>
      </trkpt>
      <trkpt lat="45.91051" lon="2.97962">
        <ele>772</ele>
        <time>2024-07-23T10:05:53Z</time>
      </trkpt>
      <trkpt lat="45.91051" lon="2.97964">
        <ele>771.9</ele>
        <time>2024-07-23T10:05:54Z</time>
      </trkpt>
      <trkpt lat="45.9105" lon="2.97965">
        <ele>772.1</ele>
        <time>2024-07-23T10:05:55Z</time>
      </trkpt>
      <trkpt lat="45.9105" lon="2.97967">
        <ele>772</ele>
        <time>2024-07-23T10:05:56Z</time>
      </trkpt>
      <trkpt lat="45.91049" lon="2.97968">
        <ele>772.4</ele>
        <time>2024-07-23T10:05:57Z</time>
      </trkpt>
      <trkpt lat="45.91049" lon="2.9797">
        <ele>772.5</ele>
        <time>2024-07-23T10:05:58Z</time>
      </trkpt>
      <trkpt lat="45.91049" lon="2.97971">
        <ele>772.7</ele>
        <time>2024-07-23T10:05:59Z</time>
      </trkpt>
      <trkpt lat="45.91049" lon="2.97973">
        <ele>772.5</ele>
        <time>2024-07-23T10:06:00Z</time>
      </trkpt>
      <trkpt lat="45.91049" lon="2.97974">
        <ele>772.4</ele>
        <time>2024-07-23T10:06:01Z</time>
      </trkpt>
      <trkpt lat="45.91049" lon="2.97976">
        <ele>772.3</ele>
        <time>2024-07-23T10:06:02Z</time>
      </trkpt>
      <trkpt lat="45.91049" lon="2.97977">
        <ele>772.4</ele>
        <time>2024-07-23T10:06:03Z</time>
      </trkpt>
      <trkpt lat="45.91049" lon="2.97979">
        <ele>772.7</ele>
        <time>2024-07-23T10:06:04Z</time>
      </trkpt>
      <trkpt lat="45.91048" lon="2.97981">
        <ele>773.6</ele>
        <time>2024-07-23T10:06:05Z</time>
      </trkpt>
      <trkpt lat="45.91048" lon="2.97982">
        <ele>773.2</ele>
        <time>2024-07-23T10:06:06Z</time>
      </trkpt>
      <trkpt lat="45.91047" lon="2.97984">
        <ele>773.2</ele>
        <time>2024-07-23T10:06:07Z</time>
      </trkpt>
      <trkpt lat="45.91047" lon="2.97985">
        <ele>772.9</ele>
        <time>2024-07-23T10:06:08Z</time>
      </trkpt>
      <trkpt lat="45.91047" lon="2.97987">
        <ele>772.8</ele>
        <time>2024-07-23T10:06:09Z</time>
      </trkpt>
      <trkpt lat="45.91046" lon="2.97988">
        <ele>772.8</ele>
        <time>2024-07-23T10:06:10Z</time>
      </trkpt>
      <trkpt lat="45.91046" lon="2.9799">
        <ele>772.7</ele>
        <time>2024-07-23T10:06:11Z</time>
      </trkpt>
      <trkpt lat="45.91046" lon="2.97992">
        <ele>772.5</ele>
        <time>2024-07-23T10:06:12Z</time>
      </trkpt>
      <trkpt lat="45.91046" lon="2.97994">
        <ele>772.4</ele>
        <time>2024-07-23T10:06:13Z</time>
      </trkpt>
      <trkpt lat="45.91046" lon="2.97995">
        <ele>772.1</ele>
        <time>2024-07-23T10:06:14Z</time>
      </trkpt>
      <trkpt lat="45.91045" lon="2.97997">
        <ele>772.2</ele>
        <time>2024-07-23T10:06:15Z</time>
      </trkpt>
      <trkpt lat="45.91045" lon="2.97998">
        <ele>772.3</ele>
        <time>2024-07-23T10:06:16Z</time>
      </trkpt>
      <trkpt lat="45.91045" lon="2.98">
        <ele>772.3</ele>
        <time>2024-07-23T10:06:17Z</time>
      </trkpt>
      <trkpt lat="45.91045" lon="2.98002">
        <ele>772.2</ele>
        <time>2024-07-23T10:06:18Z</time>
      </trkpt>
      <trkpt lat="45.91045" lon="2.98003">
        <ele>772.2</ele>
        <time>2024-07-23T10:06:19Z</time>
      </trkpt>
      <trkpt lat="45.91045" lon="2.98005">
        <ele>772.7</ele>
        <time>2024-07-23T10:06:20Z</time>
      </trkpt>
      <trkpt lat="45.91045" lon="2.98007">
        <ele>772.5</ele>
        <time>2024-07-23T10:06:21Z</time>
      </trkpt>
      <trkpt lat="45.91045" lon="2.98008">
        <ele>772.8</ele>
        <time>2024-07-23T10:06:22Z</time>
      </trkpt>
      <trkpt lat="45.91045" lon="2.9801">
        <ele>772.7</ele>
        <time>2024-07-23T10:06:23Z</time>
      </trkpt>
      <trkpt lat="45.91045" lon="2.98011">
        <ele>772.4</ele>
        <time>2024-07-23T10:06:24Z</time>
      </trkpt>
      <trkpt lat="45.91045" lon="2.98013">
        <ele>772.2</ele>
        <time>2024-07-23T10:06:25Z</time>
      </trkpt>
      <trkpt lat="45.91044" lon="2.98015">
        <ele>772</ele>
        <time>2024-07-23T10:06:26Z</time>
      </trkpt>
      <trkpt lat="45.91044" lon="2.98016">
        <ele>771.9</ele>
        <time>2024-07-23T10:06:27Z</time>
      </trkpt>
      <trkpt lat="45.91044" lon="2.98018">
        <ele>771.9</ele>
        <time>2024-07-23T10:06:28Z</time>
      </trkpt>
      <trkpt lat="45.91044" lon="2.98019">
        <ele>771.9</ele>
        <time>2024-07-23T10:06:29Z</time>
      </trkpt>
      <trkpt lat="45.91044" lon="2.98021">
        <ele>772.1</ele>
        <time>2024-07-23T10:06:30Z</time>
      </trkpt>
      <trkpt lat="45.91044" lon="2.98022">
        <ele>771.8</ele>
        <time>2024-07-23T10:06:31Z</time>
      </trkpt>
      <trkpt lat="45.91044" lon="2.98024">
        <ele>771.5</ele>
        <time>2024-07-23T10:06:32Z</time>
      </trkpt>
      <trkpt lat="45.91043" lon="2.98025">
        <ele>771.5</ele>
        <time>2024-07-23T10:06:33Z</time>
      </trkpt>
      <trkpt lat="45.91043" lon="2.98027">
        <ele>771.5</ele>
        <time>2024-07-23T10:06:34Z</time>
      </trkpt>
      <trkpt lat="45.91043" lon="2.98028">
        <ele>771.7</ele>
        <time>2024-07-23T10:06:35Z</time>
      </trkpt>
      <trkpt lat="45.91043" lon="2.9803">
        <ele>771.4</ele>
        <time>2024-07-23T10:06:36Z</time>
      </trkpt>
      <trkpt lat="45.91043" lon="2.98031">
        <ele>771.2</ele>
        <time>2024-07-23T10:06:37Z</time>
      </trkpt>
      <trkpt lat="45.91043" lon="2.98033">
        <ele>771.3</ele>
        <time>2024-07-23T10:06:38Z</time>
      </trkpt>
      <trkpt lat="45.91043" lon="2.98034">
        <ele>771.3</ele>
        <time>2024-07-23T10:06:39Z</time>
      </trkpt>
      <trkpt lat="45.91043" lon="2.98036">
        <ele>771.6</ele>
        <time>2024-07-23T10:06:40Z</time>
      </trkpt>
      <trkpt lat="45.91043" lon="2.98038">
        <ele>771.8</ele>
        <time>2024-07-23T10:06:41Z</time>
      </trkpt>
      <trkpt lat="45.91043" lon="2.98039">
        <ele>771.8</ele>
        <time>2024-07-23T10:06:42Z</time>
      </trkpt>
      <trkpt lat="45.91043" lon="2.9804">
        <ele>771.8</ele>
        <time>2024-07-23T10:06:43Z</time>
      </trkpt>
      <trkpt lat="45.91043" lon="2.98042">
        <ele>771.9</ele>
        <time>2024-07-23T10:06:44Z</time>
      </trkpt>
      <trkpt lat="45.91043" lon="2.98043">
        <ele>772.1</ele>
        <time>2024-07-23T10:06:45Z</time>
      </trkpt>
      <trkpt lat="45.91043" lon="2.98045">
        <ele>771.7</ele>
        <time>2024-07-23T10:06:46Z</time>
      </trkpt>
      <trkpt lat="45.91042" lon="2.98046">
        <ele>771.8</ele>
        <time>2024-07-23T10:06:47Z</time>
      </trkpt>
      <trkpt lat="45.91042" lon="2.98048">
        <ele>771.9</ele>
        <time>2024-07-23T10:06:48Z</time>
      </trkpt>
      <trkpt lat="45.91042" lon="2.98049">
        <ele>771.8</ele>
        <time>2024-07-23T10:06:49Z</time>
      </trkpt>
      <trkpt lat="45.91042" lon="2.98051">
        <ele>771.6</ele>
        <time>2024-07-23T10:06:50Z</time>
      </trkpt>
      <trkpt lat="45.91041" lon="2.98052">
        <ele>771.6</ele>
        <time>2024-07-23T10:06:51Z</time>
      </trkpt>
      <trkpt lat="45.91041" lon="2.98054">
        <ele>771.5</ele>
        <time>2024-07-23T10:06:52Z</time>
      </trkpt>
      <trkpt lat="45.91041" lon="2.98055">
        <ele>771.7</ele>
        <time>2024-07-23T10:06:53Z</time>
      </trkpt>
      <trkpt lat="45.91041" lon="2.98057">
        <ele>771.8</ele>
        <time>2024-07-23T10:06:54Z</time>
      </trkpt>
      <trkpt lat="45.91041" lon="2.98058">
        <ele>771.6</ele>
        <time>2024-07-23T10:06:55Z</time>
      </trkpt>
      <trkpt lat="45.91041" lon="2.9806">
        <ele>771.7</ele>
        <time>2024-07-23T10:06:56Z</time>
      </trkpt>
      <trkpt lat="45.91041" lon="2.98061">
        <ele>771.5</ele>
        <time>2024-07-23T10:06:57Z</time>
      </trkpt>
      <trkpt lat="45.91041" lon="2.98064">
        <ele>771.4</ele>
        <time>2024-07-23T10:06:59Z</time>
      </trkpt>
      <trkpt lat="45.91041" lon="2.98066">
        <ele>771.4</ele>
        <time>2024-07-23T10:07:00Z</time>
      </trkpt>
      <trkpt lat="45.91041" lon="2.98067">
        <ele>771.7</ele>
        <time>2024-07-23T10:07:01Z</time>
      </trkpt>
      <trkpt lat="45.91041" lon="2.9807">
        <ele>771.6</ele>
        <time>2024-07-23T10:07:03Z</time>
      </trkpt>
      <trkpt lat="45.91041" lon="2.98072">
        <ele>771.6</ele>
        <time>2024-07-23T10:07:04Z</time>
      </trkpt>
      <trkpt lat="45.91041" lon="2.98073">
        <ele>771.3</ele>
        <time>2024-07-23T10:07:05Z</time>
      </trkpt>
      <trkpt lat="45.91041" lon="2.98075">
        <ele>771.6</ele>
        <time>2024-07-23T10:07:06Z</time>
      </trkpt>
      <trkpt lat="45.91041" lon="2.98076">
        <ele>771.4</ele>
        <time>2024-07-23T10:07:07Z</time>
      </trkpt>
      <trkpt lat="45.9104" lon="2.98078">
        <ele>772</ele>
        <time>2024-07-23T10:07:08Z</time>
      </trkpt>
      <trkpt lat="45.9104" lon="2.98079">
        <ele>771.5</ele>
        <time>2024-07-23T10:07:09Z</time>
      </trkpt>
      <trkpt lat="45.91039" lon="2.98081">
        <ele>771.7</ele>
        <time>2024-07-23T10:07:10Z</time>
      </trkpt>
      <trkpt lat="45.91039" lon="2.98082">
        <ele>771.8</ele>
        <time>2024-07-23T10:07:11Z</time>
      </trkpt>
      <trkpt lat="45.91039" lon="2.98084">
        <ele>771.8</ele>
        <time>2024-07-23T10:07:12Z</time>
      </trkpt>
      <trkpt lat="45.91039" lon="2.98085">
        <ele>771.8</ele>
        <time>2024-07-23T10:07:13Z</time>
      </trkpt>
      <trkpt lat="45.91038" lon="2.98087">
        <ele>771.8</ele>
        <time>2024-07-23T10:07:14Z</time>
      </trkpt>
      <trkpt lat="45.91038" lon="2.98088">
        <ele>772</ele>
        <time>2024-07-23T10:07:15Z</time>
      </trkpt>
      <trkpt lat="45.91038" lon="2.9809">
        <ele>772.1</ele>
        <time>2024-07-23T10:07:16Z</time>
      </trkpt>
      <trkpt lat="45.91038" lon="2.98092">
        <ele>771.8</ele>
        <time>2024-07-23T10:07:17Z</time>
      </trkpt>
      <trkpt lat="45.91038" lon="2.98093">
        <ele>772.1</ele>
        <time>2024-07-23T10:07:18Z</time>
      </trkpt>
      <trkpt lat="45.91038" lon="2.98095">
        <ele>772</ele>
        <time>2024-07-23T10:07:19Z</time>
      </trkpt>
      <trkpt lat="45.91038" lon="2.98096">
        <ele>771.9</ele>
        <time>2024-07-23T10:07:20Z</time>
      </trkpt>
      <trkpt lat="45.91038" lon="2.98098">
        <ele>771.8</ele>
        <time>2024-07-23T10:07:21Z</time>
      </trkpt>
      <trkpt lat="45.91038" lon="2.98099">
        <ele>772</ele>
        <time>2024-07-23T10:07:22Z</time>
      </trkpt>
      <trkpt lat="45.91038" lon="2.98101">
        <ele>772.1</ele>
        <time>2024-07-23T10:07:23Z</time>
      </trkpt>
      <trkpt lat="45.91038" lon="2.98102">
        <ele>772.4</ele>
        <time>2024-07-23T10:07:24Z</time>
      </trkpt>
      <trkpt lat="45.91037" lon="2.98104">
        <ele>772.4</ele>
        <time>2024-07-23T10:07:25Z</time>
      </trkpt>
      <trkpt lat="45.91037" lon="2.98105">
        <ele>772.5</ele>
        <time>2024-07-23T10:07:26Z</time>
      </trkpt>
      <trkpt lat="45.91037" lon="2.98107">
        <ele>772.6</ele>
        <time>2024-07-23T10:07:27Z</time>
      </trkpt>
      <trkpt lat="45.91037" lon="2.98108">
        <ele>772.3</ele>
        <time>2024-07-23T10:07:28Z</time>
      </trkpt>
      <trkpt lat="45.91036" lon="2.9811">
        <ele>772</ele>
        <time>2024-07-23T10:07:29Z</time>
      </trkpt>
      <trkpt lat="45.91036" lon="2.98111">
        <ele>771.9</ele>
        <time>2024-07-23T10:07:30Z</time>
      </trkpt>
      <trkpt lat="45.91036" lon="2.98113">
        <ele>771.7</ele>
        <time>2024-07-23T10:07:31Z</time>
      </trkpt>
      <trkpt lat="45.91036" lon="2.98114">
        <ele>771.7</ele>
        <time>2024-07-23T10:07:32Z</time>
      </trkpt>
      <trkpt lat="45.91036" lon="2.98116">
        <ele>771.7</ele>
        <time>2024-07-23T10:07:33Z</time>
      </trkpt>
      <trkpt lat="45.91036" lon="2.98118">
        <ele>771.6</ele>
        <time>2024-07-23T10:07:34Z</time>
      </trkpt>
      <trkpt lat="45.91036" lon="2.98119">
        <ele>771.9</ele>
        <time>2024-07-23T10:07:35Z</time>
      </trkpt>
      <trkpt lat="45.91036" lon="2.98121">
        <ele>772</ele>
        <time>2024-07-23T10:07:36Z</time>
      </trkpt>
      <trkpt lat="45.91036" lon="2.98123">
        <ele>772.3</ele>
        <time>2024-07-23T10:07:38Z</time>
      </trkpt>
      <trkpt lat="45.91036" lon="2.98125">
        <ele>772.1</ele>
        <time>2024-07-23T10:07:39Z</time>
      </trkpt>
      <trkpt lat="45.91036" lon="2.98127">
        <ele>772.1</ele>
        <time>2024-07-23T10:07:40Z</time>
      </trkpt>
      <trkpt lat="45.91035" lon="2.98128">
        <ele>772</ele>
        <time>2024-07-23T10:07:41Z</time>
      </trkpt>
      <trkpt lat="45.91035" lon="2.9813">
        <ele>771.5</ele>
        <time>2024-07-23T10:07:42Z</time>
      </trkpt>
      <trkpt lat="45.91035" lon="2.98132">
        <ele>771.5</ele>
        <time>2024-07-23T10:07:43Z</time>
      </trkpt>
      <trkpt lat="45.91035" lon="2.98134">
        <ele>770.9</ele>
        <time>2024-07-23T10:07:44Z</time>
      </trkpt>
      <trkpt lat="45.91035" lon="2.98136">
        <ele>772.9</ele>
        <time>2024-07-23T10:07:45Z</time>
      </trkpt>
      <trkpt lat="45.91036" lon="2.98138">
        <ele>773</ele>
        <time>2024-07-23T10:07:46Z</time>
      </trkpt>
      <trkpt lat="45.91037" lon="2.98139">
        <ele>772.7</ele>
        <time>2024-07-23T10:07:47Z</time>
      </trkpt>
      <trkpt lat="45.91038" lon="2.98141">
        <ele>775.4</ele>
        <time>2024-07-23T10:07:48Z</time>
      </trkpt>
      <trkpt lat="45.91038" lon="2.98143">
        <ele>775.3</ele>
        <time>2024-07-23T10:07:49Z</time>
      </trkpt>
      <trkpt lat="45.91038" lon="2.98145">
        <ele>774.8</ele>
        <time>2024-07-23T10:07:50Z</time>
      </trkpt>
      <trkpt lat="45.91038" lon="2.98146">
        <ele>775.5</ele>
        <time>2024-07-23T10:07:51Z</time>
      </trkpt>
      <trkpt lat="45.91039" lon="2.98148">
        <ele>775.6</ele>
        <time>2024-07-23T10:07:52Z</time>
      </trkpt>
      <trkpt lat="45.91039" lon="2.9815">
        <ele>776.3</ele>
        <time>2024-07-23T10:07:53Z</time>
      </trkpt>
      <trkpt lat="45.91039" lon="2.98151">
        <ele>776.9</ele>
        <time>2024-07-23T10:07:54Z</time>
      </trkpt>
      <trkpt lat="45.91039" lon="2.98155">
        <ele>776</ele>
        <time>2024-07-23T10:07:57Z</time>
      </trkpt>
      <trkpt lat="45.91038" lon="2.98156">
        <ele>776</ele>
        <time>2024-07-23T10:07:58Z</time>
      </trkpt>
      <trkpt lat="45.91038" lon="2.98158">
        <ele>775.4</ele>
        <time>2024-07-23T10:07:59Z</time>
      </trkpt>
      <trkpt lat="45.91038" lon="2.9816">
        <ele>774.6</ele>
        <time>2024-07-23T10:08:01Z</time>
      </trkpt>
      <trkpt lat="45.91038" lon="2.98162">
        <ele>774.6</ele>
        <time>2024-07-23T10:08:02Z</time>
      </trkpt>
      <trkpt lat="45.91038" lon="2.98163">
        <ele>774.6</ele>
        <time>2024-07-23T10:08:03Z</time>
      </trkpt>
      <trkpt lat="45.91038" lon="2.98165">
        <ele>775</ele>
        <time>2024-07-23T10:08:04Z</time>
      </trkpt>
      <trkpt lat="45.91038" lon="2.98166">
        <ele>774.2</ele>
        <time>2024-07-23T10:08:05Z</time>
      </trkpt>
      <trkpt lat="45.91038" lon="2.98168">
        <ele>774.3</ele>
        <time>2024-07-23T10:08:06Z</time>
      </trkpt>
      <trkpt lat="45.91038" lon="2.9817">
        <ele>774.3</ele>
        <time>2024-07-23T10:08:07Z</time>
      </trkpt>
      <trkpt lat="45.91038" lon="2.98171">
        <ele>774.5</ele>
        <time>2024-07-23T10:08:08Z</time>
      </trkpt>
      <trkpt lat="45.91038" lon="2.98173">
        <ele>774.4</ele>
        <time>2024-07-23T10:08:09Z</time>
      </trkpt>
      <trkpt lat="45.91038" lon="2.98175">
        <ele>774.3</ele>
        <time>2024-07-23T10:08:10Z</time>
      </trkpt>
      <trkpt lat="45.91038" lon="2.98177">
        <ele>774.3</ele>
        <time>2024-07-23T10:08:11Z</time>
      </trkpt>
      <trkpt lat="45.91038" lon="2.98178">
        <ele>774.2</ele>
        <time>2024-07-23T10:08:12Z</time>
      </trkpt>
      <trkpt lat="45.91038" lon="2.9818">
        <ele>774.1</ele>
        <time>2024-07-23T10:08:13Z</time>
      </trkpt>
      <trkpt lat="45.91038" lon="2.98181">
        <ele>773.8</ele>
        <time>2024-07-23T10:08:14Z</time>
      </trkpt>
      <trkpt lat="45.91037" lon="2.98183">
        <ele>773.8</ele>
        <time>2024-07-23T10:08:15Z</time>
      </trkpt>
      <trkpt lat="45.91037" lon="2.98184">
        <ele>773.8</ele>
        <time>2024-07-23T10:08:16Z</time>
      </trkpt>
      <trkpt lat="45.91037" lon="2.98186">
        <ele>773.8</ele>
        <time>2024-07-23T10:08:17Z</time>
      </trkpt>
      <trkpt lat="45.91036" lon="2.98187">
        <ele>773.7</ele>
        <time>2024-07-23T10:08:18Z</time>
      </trkpt>
      <trkpt lat="45.91035" lon="2.98188">
        <ele>774</ele>
        <time>2024-07-23T10:08:19Z</time>
      </trkpt>
      <trkpt lat="45.91035" lon="2.9819">
        <ele>774.4</ele>
        <time>2024-07-23T10:08:20Z</time>
      </trkpt>
      <trkpt lat="45.91034" lon="2.98191">
        <ele>774.3</ele>
        <time>2024-07-23T10:08:21Z</time>
      </trkpt>
      <trkpt lat="45.91033" lon="2.98192">
        <ele>774</ele>
        <time>2024-07-23T10:08:22Z</time>
      </trkpt>
      <trkpt lat="45.91032" lon="2.98193">
        <ele>774</ele>
        <time>2024-07-23T10:08:23Z</time>
      </trkpt>
      <trkpt lat="45.91031" lon="2.98194">
        <ele>773.9</ele>
        <time>2024-07-23T10:08:24Z</time>
      </trkpt>
      <trkpt lat="45.9103" lon="2.98194">
        <ele>773.6</ele>
        <time>2024-07-23T10:08:25Z</time>
      </trkpt>
      <trkpt lat="45.91029" lon="2.98195">
        <ele>773.5</ele>
        <time>2024-07-23T10:08:26Z</time>
      </trkpt>
      <trkpt lat="45.91028" lon="2.98195">
        <ele>773.3</ele>
        <time>2024-07-23T10:08:27Z</time>
      </trkpt>
      <trkpt lat="45.91027" lon="2.98195">
        <ele>773.5</ele>
        <time>2024-07-23T10:08:28Z</time>
      </trkpt>
      <trkpt lat="45.91026" lon="2.98194">
        <ele>773.1</ele>
        <time>2024-07-23T10:08:29Z</time>
      </trkpt>
      <trkpt lat="45.91025" lon="2.98194">
        <ele>772.8</ele>
        <time>2024-07-23T10:08:30Z</time>
      </trkpt>
      <trkpt lat="45.91024" lon="2.98194">
        <ele>772.6</ele>
        <time>2024-07-23T10:08:31Z</time>
      </trkpt>
      <trkpt lat="45.91023" lon="2.98194">
        <ele>772.3</ele>
        <time>2024-07-23T10:08:32Z</time>
      </trkpt>
      <trkpt lat="45.91022" lon="2.98194">
        <ele>772.5</ele>
        <time>2024-07-23T10:08:33Z</time>
      </trkpt>
      <trkpt lat="45.91021" lon="2.98194">
        <ele>772.6</ele>
        <time>2024-07-23T10:08:34Z</time>
      </trkpt>
      <trkpt lat="45.9102" lon="2.98194">
        <ele>772.6</ele>
        <time>2024-07-23T10:08:35Z</time>
      </trkpt>
      <trkpt lat="45.91019" lon="2.98194">
        <ele>772.5</ele>
        <time>2024-07-23T10:08:39Z</time>
      </trkpt>
      <trkpt lat="45.91018" lon="2.98195">
        <ele>772.6</ele>
        <time>2024-07-23T10:08:41Z</time>
      </trkpt>
      <trkpt lat="45.91016" lon="2.98196">
        <ele>772.6</ele>
        <time>2024-07-23T10:08:42Z</time>
      </trkpt>
      <trkpt lat="45.91015" lon="2.98196">
        <ele>772.6</ele>
        <time>2024-07-23T10:08:43Z</time>
      </trkpt>
      <trkpt lat="45.91014" lon="2.98196">
        <ele>772.6</ele>
        <time>2024-07-23T10:08:44Z</time>
      </trkpt>
      <trkpt lat="45.91013" lon="2.98196">
        <ele>772.5</ele>
        <time>2024-07-23T10:08:45Z</time>
      </trkpt>
      <trkpt lat="45.91011" lon="2.98196">
        <ele>772.6</ele>
        <time>2024-07-23T10:08:47Z</time>
      </trkpt>
      <trkpt lat="45.91011" lon="2.98195">
        <ele>772.7</ele>
        <time>2024-07-23T10:08:48Z</time>
      </trkpt>
      <trkpt lat="45.9101" lon="2.98195">
        <ele>772.5</ele>
        <time>2024-07-23T10:08:49Z</time>
      </trkpt>
      <trkpt lat="45.91009" lon="2.98195">
        <ele>772.1</ele>
        <time>2024-07-23T10:08:50Z</time>
      </trkpt>
      <trkpt lat="45.91007" lon="2.98194">
        <ele>771.6</ele>
        <time>2024-07-23T10:08:52Z</time>
      </trkpt>
      <trkpt lat="45.91006" lon="2.98194">
        <ele>771.5</ele>
        <time>2024-07-23T10:08:53Z</time>
      </trkpt>
      <trkpt lat="45.91005" lon="2.98193">
        <ele>771.3</ele>
        <time>2024-07-23T10:08:54Z</time>
      </trkpt>
      <trkpt lat="45.91004" lon="2.98193">
        <ele>771</ele>
        <time>2024-07-23T10:08:55Z</time>
      </trkpt>
      <trkpt lat="45.91003" lon="2.98193">
        <ele>770.6</ele>
        <time>2024-07-23T10:08:56Z</time>
      </trkpt>
      <trkpt lat="45.91002" lon="2.98192">
        <ele>770.5</ele>
        <time>2024-07-23T10:08:57Z</time>
      </trkpt>
      <trkpt lat="45.90999" lon="2.98192">
        <ele>770.7</ele>
        <time>2024-07-23T10:08:59Z</time>
      </trkpt>
      <trkpt lat="45.90998" lon="2.98192">
        <ele>771.3</ele>
        <time>2024-07-23T10:09:00Z</time>
      </trkpt>
      <trkpt lat="45.90996" lon="2.98192">
        <ele>771.7</ele>
        <time>2024-07-23T10:09:02Z</time>
      </trkpt>
      <trkpt lat="45.90995" lon="2.98192">
        <ele>771.5</ele>
        <time>2024-07-23T10:09:03Z</time>
      </trkpt>
      <trkpt lat="45.90994" lon="2.98191">
        <ele>771.5</ele>
        <time>2024-07-23T10:09:04Z</time>
      </trkpt>
      <trkpt lat="45.90993" lon="2.98191">
        <ele>771.5</ele>
        <time>2024-07-23T10:09:05Z</time>
      </trkpt>
      <trkpt lat="45.90992" lon="2.9819">
        <ele>771.2</ele>
        <time>2024-07-23T10:09:06Z</time>
      </trkpt>
      <trkpt lat="45.90991" lon="2.98189">
        <ele>771.1</ele>
        <time>2024-07-23T10:09:07Z</time>
      </trkpt>
      <trkpt lat="45.9099" lon="2.98189">
        <ele>771.3</ele>
        <time>2024-07-23T10:09:08Z</time>
      </trkpt>
      <trkpt lat="45.90989" lon="2.98188">
        <ele>771.3</ele>
        <time>2024-07-23T10:09:09Z</time>
      </trkpt>
      <trkpt lat="45.90988" lon="2.98187">
        <ele>771.7</ele>
        <time>2024-07-23T10:09:10Z</time>
      </trkpt>
      <trkpt lat="45.90987" lon="2.98187">
        <ele>771.8</ele>
        <time>2024-07-23T10:09:11Z</time>
      </trkpt>
      <trkpt lat="45.90986" lon="2.98186">
        <ele>771.9</ele>
        <time>2024-07-23T10:09:12Z</time>
      </trkpt>
      <trkpt lat="45.90984" lon="2.98185">
        <ele>772.1</ele>
        <time>2024-07-23T10:09:13Z</time>
      </trkpt>
      <trkpt lat="45.90983" lon="2.98184">
        <ele>772.4</ele>
        <time>2024-07-23T10:09:14Z</time>
      </trkpt>
      <trkpt lat="45.90982" lon="2.98184">
        <ele>772.4</ele>
        <time>2024-07-23T10:09:15Z</time>
      </trkpt>
      <trkpt lat="45.90981" lon="2.98183">
        <ele>772.5</ele>
        <time>2024-07-23T10:09:16Z</time>
      </trkpt>
      <trkpt lat="45.9098" lon="2.98182">
        <ele>772.6</ele>
        <time>2024-07-23T10:09:17Z</time>
      </trkpt>
      <trkpt lat="45.9098" lon="2.98181">
        <ele>772.4</ele>
        <time>2024-07-23T10:09:18Z</time>
      </trkpt>
      <trkpt lat="45.90979" lon="2.9818">
        <ele>772.2</ele>
        <time>2024-07-23T10:09:19Z</time>
      </trkpt>
      <trkpt lat="45.90978" lon="2.9818">
        <ele>772.2</ele>
        <time>2024-07-23T10:09:20Z</time>
      </trkpt>
      <trkpt lat="45.90977" lon="2.98179">
        <ele>772.3</ele>
        <time>2024-07-23T10:09:21Z</time>
      </trkpt>
      <trkpt lat="45.90976" lon="2.98178">
        <ele>772.3</ele>
        <time>2024-07-23T10:09:22Z</time>
      </trkpt>
      <trkpt lat="45.90975" lon="2.98178">
        <ele>772.4</ele>
        <time>2024-07-23T10:09:23Z</time>
      </trkpt>
      <trkpt lat="45.90974" lon="2.98178">
        <ele>772.5</ele>
        <time>2024-07-23T10:09:24Z</time>
      </trkpt>
      <trkpt lat="45.90973" lon="2.98178">
        <ele>772.7</ele>
        <time>2024-07-23T10:09:25Z</time>
      </trkpt>
      <trkpt lat="45.90972" lon="2.98178">
        <ele>772.8</ele>
        <time>2024-07-23T10:09:26Z</time>
      </trkpt>
      <trkpt lat="45.90971" lon="2.98178">
        <ele>772.7</ele>
        <time>2024-07-23T10:09:27Z</time>
      </trkpt>
      <trkpt lat="45.90969" lon="2.98177">
        <ele>772.7</ele>
        <time>2024-07-23T10:09:29Z</time>
      </trkpt>
      <trkpt lat="45.90968" lon="2.98177">
        <ele>772.4</ele>
        <time>2024-07-23T10:09:30Z</time>
      </trkpt>
      <trkpt lat="45.90968" lon="2.98176">
        <ele>772.6</ele>
        <time>2024-07-23T10:09:31Z</time>
      </trkpt>
      <trkpt lat="45.90967" lon="2.98175">
        <ele>772.9</ele>
        <time>2024-07-23T10:09:32Z</time>
      </trkpt>
      <trkpt lat="45.90966" lon="2.98174">
        <ele>772.8</ele>
        <time>2024-07-23T10:09:33Z</time>
      </trkpt>
      <trkpt lat="45.90965" lon="2.98173">
        <ele>772.8</ele>
        <time>2024-07-23T10:09:34Z</time>
      </trkpt>
      <trkpt lat="45.90964" lon="2.98173">
        <ele>772.5</ele>
        <time>2024-07-23T10:09:35Z</time>
      </trkpt>
      <trkpt lat="45.90963" lon="2.98172">
        <ele>772.4</ele>
        <time>2024-07-23T10:09:36Z</time>
      </trkpt>
      <trkpt lat="45.90962" lon="2.98172">
        <ele>772.5</ele>
        <time>2024-07-23T10:09:37Z</time>
      </trkpt>
      <trkpt lat="45.90961" lon="2.98171">
        <ele>772.4</ele>
        <time>2024-07-23T10:09:38Z</time>
      </trkpt>
      <trkpt lat="45.9096" lon="2.98171">
        <ele>772.1</ele>
        <time>2024-07-23T10:09:39Z</time>
      </trkpt>
      <trkpt lat="45.9096" lon="2.9817">
        <ele>772</ele>
        <time>2024-07-23T10:09:40Z</time>
      </trkpt>
      <trkpt lat="45.90959" lon="2.9817">
        <ele>772</ele>
        <time>2024-07-23T10:09:41Z</time>
      </trkpt>
      <trkpt lat="45.90958" lon="2.9817">
        <ele>772.1</ele>
        <time>2024-07-23T10:09:42Z</time>
      </trkpt>
      <trkpt lat="45.90957" lon="2.98169">
        <ele>772.4</ele>
        <time>2024-07-23T10:09:43Z</time>
      </trkpt>
      <trkpt lat="45.90956" lon="2.98168">
        <ele>772.5</ele>
        <time>2024-07-23T10:09:44Z</time>
      </trkpt>
      <trkpt lat="45.90955" lon="2.98168">
        <ele>772.5</ele>
        <time>2024-07-23T10:09:45Z</time>
      </trkpt>
      <trkpt lat="45.90954" lon="2.98167">
        <ele>772.6</ele>
        <time>2024-07-23T10:09:46Z</time>
      </trkpt>
      <trkpt lat="45.90953" lon="2.98166">
        <ele>773</ele>
        <time>2024-07-23T10:09:47Z</time>
      </trkpt>
      <trkpt lat="45.90952" lon="2.98165">
        <ele>773.1</ele>
        <time>2024-07-23T10:09:48Z</time>
      </trkpt>
      <trkpt lat="45.90951" lon="2.98164">
        <ele>773.2</ele>
        <time>2024-07-23T10:09:49Z</time>
      </trkpt>
      <trkpt lat="45.9095" lon="2.98164">
        <ele>773.4</ele>
        <time>2024-07-23T10:09:50Z</time>
      </trkpt>
      <trkpt lat="45.90949" lon="2.98163">
        <ele>773.4</ele>
        <time>2024-07-23T10:09:51Z</time>
      </trkpt>
      <trkpt lat="45.90949" lon="2.98162">
        <ele>773.4</ele>
        <time>2024-07-23T10:09:52Z</time>
      </trkpt>
      <trkpt lat="45.90948" lon="2.98162">
        <ele>773.5</ele>
        <time>2024-07-23T10:09:53Z</time>
      </trkpt>
      <trkpt lat="45.90947" lon="2.98161">
        <ele>773.8</ele>
        <time>2024-07-23T10:09:54Z</time>
      </trkpt>
      <trkpt lat="45.90946" lon="2.98161">
        <ele>773.9</ele>
        <time>2024-07-23T10:09:55Z</time>
      </trkpt>
      <trkpt lat="45.90945" lon="2.9816">
        <ele>774</ele>
        <time>2024-07-23T10:09:56Z</time>
      </trkpt>
      <trkpt lat="45.90943" lon="2.9816">
        <ele>774.1</ele>
        <time>2024-07-23T10:09:57Z</time>
      </trkpt>
      <trkpt lat="45.90941" lon="2.98159">
        <ele>774.1</ele>
        <time>2024-07-23T10:09:59Z</time>
      </trkpt>
      <trkpt lat="45.9094" lon="2.98158">
        <ele>773.5</ele>
        <time>2024-07-23T10:10:00Z</time>
      </trkpt>
      <trkpt lat="45.90939" lon="2.98158">
        <ele>773.5</ele>
        <time>2024-07-23T10:10:01Z</time>
      </trkpt>
      <trkpt lat="45.90938" lon="2.98157">
        <ele>773.6</ele>
        <time>2024-07-23T10:10:02Z</time>
      </trkpt>
      <trkpt lat="45.90937" lon="2.98156">
        <ele>773.8</ele>
        <time>2024-07-23T10:10:03Z</time>
      </trkpt>
      <trkpt lat="45.90936" lon="2.98156">
        <ele>773.9</ele>
        <time>2024-07-23T10:10:04Z</time>
      </trkpt>
      <trkpt lat="45.90935" lon="2.98155">
        <ele>773.7</ele>
        <time>2024-07-23T10:10:05Z</time>
      </trkpt>
      <trkpt lat="45.90934" lon="2.98155">
        <ele>773.7</ele>
        <time>2024-07-23T10:10:06Z</time>
      </trkpt>
      <trkpt lat="45.90933" lon="2.98154">
        <ele>773.9</ele>
        <time>2024-07-23T10:10:07Z</time>
      </trkpt>
      <trkpt lat="45.90932" lon="2.98154">
        <ele>773.8</ele>
        <time>2024-07-23T10:10:08Z</time>
      </trkpt>
      <trkpt lat="45.90931" lon="2.98153">
        <ele>773.7</ele>
        <time>2024-07-23T10:10:09Z</time>
      </trkpt>
      <trkpt lat="45.9093" lon="2.98153">
        <ele>773.4</ele>
        <time>2024-07-23T10:10:10Z</time>
      </trkpt>
      <trkpt lat="45.90929" lon="2.98152">
        <ele>773.3</ele>
        <time>2024-07-23T10:10:12Z</time>
      </trkpt>
      <trkpt lat="45.90928" lon="2.98153">
        <ele>773.3</ele>
        <time>2024-07-23T10:10:20Z</time>
      </trkpt>
      <trkpt lat="45.90927" lon="2.98152">
        <ele>773.6</ele>
        <time>2024-07-23T10:10:22Z</time>
      </trkpt>
      <trkpt lat="45.90926" lon="2.98152">
        <ele>773.4</ele>
        <time>2024-07-23T10:10:23Z</time>
      </trkpt>
      <trkpt lat="45.90925" lon="2.98151">
        <ele>773.3</ele>
        <time>2024-07-23T10:10:24Z</time>
      </trkpt>
      <trkpt lat="45.90924" lon="2.98151">
        <ele>773.1</ele>
        <time>2024-07-23T10:10:25Z</time>
      </trkpt>
      <trkpt lat="45.90923" lon="2.9815">
        <ele>772.9</ele>
        <time>2024-07-23T10:10:26Z</time>
      </trkpt>
      <trkpt lat="45.90922" lon="2.98149">
        <ele>772.7</ele>
        <time>2024-07-23T10:10:27Z</time>
      </trkpt>
      <trkpt lat="45.90921" lon="2.98149">
        <ele>772.1</ele>
        <time>2024-07-23T10:10:28Z</time>
      </trkpt>
      <trkpt lat="45.9092" lon="2.98149">
        <ele>772</ele>
        <time>2024-07-23T10:10:29Z</time>
      </trkpt>
      <trkpt lat="45.90919" lon="2.98148">
        <ele>772</ele>
        <time>2024-07-23T10:10:30Z</time>
      </trkpt>
      <trkpt lat="45.90917" lon="2.98148">
        <ele>772.3</ele>
        <time>2024-07-23T10:10:31Z</time>
      </trkpt>
      <trkpt lat="45.90916" lon="2.98148">
        <ele>772.5</ele>
        <time>2024-07-23T10:10:32Z</time>
      </trkpt>
      <trkpt lat="45.90915" lon="2.98148">
        <ele>772.7</ele>
        <time>2024-07-23T10:10:33Z</time>
      </trkpt>
      <trkpt lat="45.90914" lon="2.98147">
        <ele>772.9</ele>
        <time>2024-07-23T10:10:34Z</time>
      </trkpt>
      <trkpt lat="45.90913" lon="2.98147">
        <ele>773.4</ele>
        <time>2024-07-23T10:10:35Z</time>
      </trkpt>
      <trkpt lat="45.90912" lon="2.98146">
        <ele>773.5</ele>
        <time>2024-07-23T10:10:36Z</time>
      </trkpt>
      <trkpt lat="45.90911" lon="2.98146">
        <ele>773.5</ele>
        <time>2024-07-23T10:10:37Z</time>
      </trkpt>
      <trkpt lat="45.9091" lon="2.98145">
        <ele>773.8</ele>
        <time>2024-07-23T10:10:38Z</time>
      </trkpt>
      <trkpt lat="45.90909" lon="2.98145">
        <ele>774</ele>
        <time>2024-07-23T10:10:39Z</time>
      </trkpt>
      <trkpt lat="45.90908" lon="2.98144">
        <ele>774.3</ele>
        <time>2024-07-23T10:10:40Z</time>
      </trkpt>
      <trkpt lat="45.90907" lon="2.98144">
        <ele>774.1</ele>
        <time>2024-07-23T10:10:41Z</time>
      </trkpt>
      <trkpt lat="45.90906" lon="2.98143">
        <ele>774.2</ele>
        <time>2024-07-23T10:10:42Z</time>
      </trkpt>
      <trkpt lat="45.90905" lon="2.98143">
        <ele>774.2</ele>
        <time>2024-07-23T10:10:43Z</time>
      </trkpt>
      <trkpt lat="45.90904" lon="2.98142">
        <ele>773.6</ele>
        <time>2024-07-23T10:10:44Z</time>
      </trkpt>
      <trkpt lat="45.90903" lon="2.98142">
        <ele>773.5</ele>
        <time>2024-07-23T10:10:45Z</time>
      </trkpt>
      <trkpt lat="45.90902" lon="2.98142">
        <ele>773.3</ele>
        <time>2024-07-23T10:10:46Z</time>
      </trkpt>
      <trkpt lat="45.90901" lon="2.98142">
        <ele>773.5</ele>
        <time>2024-07-23T10:10:47Z</time>
      </trkpt>
      <trkpt lat="45.90899" lon="2.98142">
        <ele>773.7</ele>
        <time>2024-07-23T10:10:48Z</time>
      </trkpt>
      <trkpt lat="45.90898" lon="2.98142">
        <ele>773.6</ele>
        <time>2024-07-23T10:10:49Z</time>
      </trkpt>
      <trkpt lat="45.90897" lon="2.98141">
        <ele>773.8</ele>
        <time>2024-07-23T10:10:50Z</time>
      </trkpt>
      <trkpt lat="45.90896" lon="2.98141">
        <ele>773.6</ele>
        <time>2024-07-23T10:10:51Z</time>
      </trkpt>
      <trkpt lat="45.90895" lon="2.98141">
        <ele>773.6</ele>
        <time>2024-07-23T10:10:52Z</time>
      </trkpt>
      <trkpt lat="45.90894" lon="2.9814">
        <ele>773.7</ele>
        <time>2024-07-23T10:10:53Z</time>
      </trkpt>
      <trkpt lat="45.90893" lon="2.9814">
        <ele>773.6</ele>
        <time>2024-07-23T10:10:54Z</time>
      </trkpt>
      <trkpt lat="45.90892" lon="2.98139">
        <ele>773.8</ele>
        <time>2024-07-23T10:10:55Z</time>
      </trkpt>
      <trkpt lat="45.90891" lon="2.98139">
        <ele>773.8</ele>
        <time>2024-07-23T10:10:56Z</time>
      </trkpt>
      <trkpt lat="45.90889" lon="2.98138">
        <ele>774</ele>
        <time>2024-07-23T10:10:58Z</time>
      </trkpt>
      <trkpt lat="45.90888" lon="2.98138">
        <ele>774.1</ele>
        <time>2024-07-23T10:10:59Z</time>
      </trkpt>
      <trkpt lat="45.90887" lon="2.98138">
        <ele>774.3</ele>
        <time>2024-07-23T10:11:00Z</time>
      </trkpt>
      <trkpt lat="45.90886" lon="2.98137">
        <ele>774</ele>
        <time>2024-07-23T10:11:01Z</time>
      </trkpt>
      <trkpt lat="45.90885" lon="2.98137">
        <ele>774</ele>
        <time>2024-07-23T10:11:02Z</time>
      </trkpt>
      <trkpt lat="45.90884" lon="2.98137">
        <ele>774</ele>
        <time>2024-07-23T10:11:03Z</time>
      </trkpt>
      <trkpt lat="45.90883" lon="2.98136">
        <ele>774.1</ele>
        <time>2024-07-23T10:11:04Z</time>
      </trkpt>
      <trkpt lat="45.90882" lon="2.98136">
        <ele>774.1</ele>
        <time>2024-07-23T10:11:05Z</time>
      </trkpt>
      <trkpt lat="45.90881" lon="2.98136">
        <ele>774</ele>
        <time>2024-07-23T10:11:06Z</time>
      </trkpt>
      <trkpt lat="45.9088" lon="2.98136">
        <ele>774</ele>
        <time>2024-07-23T10:11:07Z</time>
      </trkpt>
      <trkpt lat="45.90879" lon="2.98135">
        <ele>773.9</ele>
        <time>2024-07-23T10:11:08Z</time>
      </trkpt>
      <trkpt lat="45.90878" lon="2.98135">
        <ele>773.9</ele>
        <time>2024-07-23T10:11:09Z</time>
      </trkpt>
      <trkpt lat="45.90877" lon="2.98134">
        <ele>774.1</ele>
        <time>2024-07-23T10:11:10Z</time>
      </trkpt>
      <trkpt lat="45.90876" lon="2.98134">
        <ele>774</ele>
        <time>2024-07-23T10:11:11Z</time>
      </trkpt>
      <trkpt lat="45.90875" lon="2.98134">
        <ele>773.9</ele>
        <time>2024-07-23T10:11:12Z</time>
      </trkpt>
      <trkpt lat="45.90874" lon="2.98134">
        <ele>773.8</ele>
        <time>2024-07-23T10:11:13Z</time>
      </trkpt>
      <trkpt lat="45.90873" lon="2.98133">
        <ele>773.9</ele>
        <time>2024-07-23T10:11:14Z</time>
      </trkpt>
      <trkpt lat="45.90872" lon="2.98133">
        <ele>774</ele>
        <time>2024-07-23T10:11:15Z</time>
      </trkpt>
      <trkpt lat="45.9087" lon="2.98132">
        <ele>774</ele>
        <time>2024-07-23T10:11:16Z</time>
      </trkpt>
      <trkpt lat="45.90869" lon="2.98131">
        <ele>774.2</ele>
        <time>2024-07-23T10:11:17Z</time>
      </trkpt>
      <trkpt lat="45.90868" lon="2.98131">
        <ele>774.3</ele>
        <time>2024-07-23T10:11:18Z</time>
      </trkpt>
      <trkpt lat="45.90867" lon="2.9813">
        <ele>774.4</ele>
        <time>2024-07-23T10:11:19Z</time>
      </trkpt>
      <trkpt lat="45.90866" lon="2.9813">
        <ele>774.3</ele>
        <time>2024-07-23T10:11:20Z</time>
      </trkpt>
      <trkpt lat="45.90865" lon="2.98129">
        <ele>774.6</ele>
        <time>2024-07-23T10:11:21Z</time>
      </trkpt>
      <trkpt lat="45.90864" lon="2.98129">
        <ele>774.6</ele>
        <time>2024-07-23T10:11:22Z</time>
      </trkpt>
      <trkpt lat="45.90863" lon="2.98128">
        <ele>774.8</ele>
        <time>2024-07-23T10:11:23Z</time>
      </trkpt>
      <trkpt lat="45.90862" lon="2.98128">
        <ele>774.7</ele>
        <time>2024-07-23T10:11:24Z</time>
      </trkpt>
      <trkpt lat="45.90861" lon="2.98127">
        <ele>774.9</ele>
        <time>2024-07-23T10:11:25Z</time>
      </trkpt>
      <trkpt lat="45.9086" lon="2.98127">
        <ele>774.9</ele>
        <time>2024-07-23T10:11:26Z</time>
      </trkpt>
      <trkpt lat="45.90859" lon="2.98126">
        <ele>774.8</ele>
        <time>2024-07-23T10:11:27Z</time>
      </trkpt>
      <trkpt lat="45.90858" lon="2.98126">
        <ele>774.7</ele>
        <time>2024-07-23T10:11:28Z</time>
      </trkpt>
      <trkpt lat="45.90856" lon="2.98125">
        <ele>774.9</ele>
        <time>2024-07-23T10:11:29Z</time>
      </trkpt>
      <trkpt lat="45.90855" lon="2.98125">
        <ele>774.9</ele>
        <time>2024-07-23T10:11:30Z</time>
      </trkpt>
      <trkpt lat="45.90854" lon="2.98124">
        <ele>774.9</ele>
        <time>2024-07-23T10:11:31Z</time>
      </trkpt>
      <trkpt lat="45.90853" lon="2.98124">
        <ele>774.6</ele>
        <time>2024-07-23T10:11:32Z</time>
      </trkpt>
      <trkpt lat="45.90852" lon="2.98123">
        <ele>774.7</ele>
        <time>2024-07-23T10:11:33Z</time>
      </trkpt>
      <trkpt lat="45.90851" lon="2.98123">
        <ele>774.9</ele>
        <time>2024-07-23T10:11:34Z</time>
      </trkpt>
      <trkpt lat="45.9085" lon="2.98123">
        <ele>774.9</ele>
        <time>2024-07-23T10:11:35Z</time>
      </trkpt>
      <trkpt lat="45.90849" lon="2.98122">
        <ele>774.8</ele>
        <time>2024-07-23T10:11:36Z</time>
      </trkpt>
      <trkpt lat="45.90848" lon="2.98122">
        <ele>774.9</ele>
        <time>2024-07-23T10:11:37Z</time>
      </trkpt>
      <trkpt lat="45.90847" lon="2.98121">
        <ele>774.9</ele>
        <time>2024-07-23T10:11:38Z</time>
      </trkpt>
      <trkpt lat="45.90846" lon="2.98121">
        <ele>774.9</ele>
        <time>2024-07-23T10:11:39Z</time>
      </trkpt>
      <trkpt lat="45.90845" lon="2.9812">
        <ele>775.1</ele>
        <time>2024-07-23T10:11:40Z</time>
      </trkpt>
      <trkpt lat="45.90844" lon="2.9812">
        <ele>775.3</ele>
        <time>2024-07-23T10:11:41Z</time>
      </trkpt>
      <trkpt lat="45.90843" lon="2.98119">
        <ele>775.4</ele>
        <time>2024-07-23T10:11:42Z</time>
      </trkpt>
      <trkpt lat="45.90842" lon="2.98119">
        <ele>775.2</ele>
        <time>2024-07-23T10:11:43Z</time>
      </trkpt>
      <trkpt lat="45.90841" lon="2.98119">
        <ele>775.1</ele>
        <time>2024-07-23T10:11:44Z</time>
      </trkpt>
      <trkpt lat="45.9084" lon="2.98118">
        <ele>775.4</ele>
        <time>2024-07-23T10:11:45Z</time>
      </trkpt>
      <trkpt lat="45.90839" lon="2.98118">
        <ele>775.4</ele>
        <time>2024-07-23T10:11:46Z</time>
      </trkpt>
      <trkpt lat="45.90838" lon="2.98118">
        <ele>775.3</ele>
        <time>2024-07-23T10:11:47Z</time>
      </trkpt>
      <trkpt lat="45.90837" lon="2.98118">
        <ele>775.2</ele>
        <time>2024-07-23T10:11:48Z</time>
      </trkpt>
      <trkpt lat="45.90836" lon="2.98117">
        <ele>775.3</ele>
        <time>2024-07-23T10:11:49Z</time>
      </trkpt>
      <trkpt lat="45.90835" lon="2.98117">
        <ele>775.4</ele>
        <time>2024-07-23T10:11:50Z</time>
      </trkpt>
      <trkpt lat="45.90834" lon="2.98116">
        <ele>775.6</ele>
        <time>2024-07-23T10:11:51Z</time>
      </trkpt>
      <trkpt lat="45.90833" lon="2.98115">
        <ele>775.5</ele>
        <time>2024-07-23T10:11:52Z</time>
      </trkpt>
      <trkpt lat="45.90832" lon="2.98113">
        <ele>775.3</ele>
        <time>2024-07-23T10:11:53Z</time>
      </trkpt>
      <trkpt lat="45.90832" lon="2.98112">
        <ele>775.5</ele>
        <time>2024-07-23T10:11:54Z</time>
      </trkpt>
      <trkpt lat="45.90831" lon="2.98111">
        <ele>775.4</ele>
        <time>2024-07-23T10:11:55Z</time>
      </trkpt>
      <trkpt lat="45.90831" lon="2.98109">
        <ele>775.4</ele>
        <time>2024-07-23T10:11:56Z</time>
      </trkpt>
      <trkpt lat="45.9083" lon="2.98108">
        <ele>775.6</ele>
        <time>2024-07-23T10:11:57Z</time>
      </trkpt>
      <trkpt lat="45.90828" lon="2.98107">
        <ele>775.8</ele>
        <time>2024-07-23T10:11:59Z</time>
      </trkpt>
      <trkpt lat="45.90828" lon="2.98106">
        <ele>775.8</ele>
        <time>2024-07-23T10:12:00Z</time>
      </trkpt>
      <trkpt lat="45.90827" lon="2.98105">
        <ele>775.9</ele>
        <time>2024-07-23T10:12:01Z</time>
      </trkpt>
      <trkpt lat="45.90826" lon="2.98104">
        <ele>776</ele>
        <time>2024-07-23T10:12:02Z</time>
      </trkpt>
      <trkpt lat="45.90825" lon="2.98103">
        <ele>776</ele>
        <time>2024-07-23T10:12:03Z</time>
      </trkpt>
      <trkpt lat="45.90824" lon="2.98103">
        <ele>776</ele>
        <time>2024-07-23T10:12:04Z</time>
      </trkpt>
      <trkpt lat="45.90823" lon="2.98102">
        <ele>776.1</ele>
        <time>2024-07-23T10:12:05Z</time>
      </trkpt>
      <trkpt lat="45.90822" lon="2.98102">
        <ele>776.1</ele>
        <time>2024-07-23T10:12:06Z</time>
      </trkpt>
      <trkpt lat="45.90821" lon="2.98102">
        <ele>776.2</ele>
        <time>2024-07-23T10:12:07Z</time>
      </trkpt>
      <trkpt lat="45.9082" lon="2.98102">
        <ele>776.4</ele>
        <time>2024-07-23T10:12:08Z</time>
      </trkpt>
      <trkpt lat="45.90819" lon="2.98101">
        <ele>776.2</ele>
        <time>2024-07-23T10:12:09Z</time>
      </trkpt>
      <trkpt lat="45.90818" lon="2.98101">
        <ele>776</ele>
        <time>2024-07-23T10:12:10Z</time>
      </trkpt>
      <trkpt lat="45.90817" lon="2.98101">
        <ele>775.8</ele>
        <time>2024-07-23T10:12:11Z</time>
      </trkpt>
      <trkpt lat="45.90816" lon="2.98102">
        <ele>775.9</ele>
        <time>2024-07-23T10:12:12Z</time>
      </trkpt>
      <trkpt lat="45.90815" lon="2.98102">
        <ele>775.8</ele>
        <time>2024-07-23T10:12:13Z</time>
      </trkpt>
      <trkpt lat="45.90814" lon="2.98102">
        <ele>775.8</ele>
        <time>2024-07-23T10:12:14Z</time>
      </trkpt>
      <trkpt lat="45.90813" lon="2.98102">
        <ele>775.8</ele>
        <time>2024-07-23T10:12:15Z</time>
      </trkpt>
      <trkpt lat="45.90812" lon="2.98102">
        <ele>775.9</ele>
        <time>2024-07-23T10:12:16Z</time>
      </trkpt>
      <trkpt lat="45.90811" lon="2.98102">
        <ele>776</ele>
        <time>2024-07-23T10:12:17Z</time>
      </trkpt>
      <trkpt lat="45.9081" lon="2.98103">
        <ele>776.1</ele>
        <time>2024-07-23T10:12:18Z</time>
      </trkpt>
      <trkpt lat="45.90809" lon="2.98104">
        <ele>776.2</ele>
        <time>2024-07-23T10:12:19Z</time>
      </trkpt>
      <trkpt lat="45.90808" lon="2.98104">
        <ele>776.1</ele>
        <time>2024-07-23T10:12:20Z</time>
      </trkpt>
      <trkpt lat="45.90807" lon="2.98105">
        <ele>776.1</ele>
        <time>2024-07-23T10:12:21Z</time>
      </trkpt>
      <trkpt lat="45.90806" lon="2.98105">
        <ele>776.2</ele>
        <time>2024-07-23T10:12:22Z</time>
      </trkpt>
      <trkpt lat="45.90805" lon="2.98106">
        <ele>776.2</ele>
        <time>2024-07-23T10:12:23Z</time>
      </trkpt>
      <trkpt lat="45.90804" lon="2.98106">
        <ele>776.4</ele>
        <time>2024-07-23T10:12:24Z</time>
      </trkpt>
      <trkpt lat="45.90803" lon="2.98107">
        <ele>776.3</ele>
        <time>2024-07-23T10:12:25Z</time>
      </trkpt>
      <trkpt lat="45.90802" lon="2.98108">
        <ele>776.3</ele>
        <time>2024-07-23T10:12:26Z</time>
      </trkpt>
      <trkpt lat="45.90801" lon="2.98108">
        <ele>776.1</ele>
        <time>2024-07-23T10:12:27Z</time>
      </trkpt>
      <trkpt lat="45.908" lon="2.98109">
        <ele>776.1</ele>
        <time>2024-07-23T10:12:28Z</time>
      </trkpt>
      <trkpt lat="45.90799" lon="2.98109">
        <ele>776.3</ele>
        <time>2024-07-23T10:12:29Z</time>
      </trkpt>
      <trkpt lat="45.90798" lon="2.9811">
        <ele>776.3</ele>
        <time>2024-07-23T10:12:30Z</time>
      </trkpt>
      <trkpt lat="45.90797" lon="2.9811">
        <ele>776</ele>
        <time>2024-07-23T10:12:31Z</time>
      </trkpt>
      <trkpt lat="45.90796" lon="2.98111">
        <ele>776.1</ele>
        <time>2024-07-23T10:12:32Z</time>
      </trkpt>
      <trkpt lat="45.90795" lon="2.98111">
        <ele>776.1</ele>
        <time>2024-07-23T10:12:33Z</time>
      </trkpt>
      <trkpt lat="45.90795" lon="2.98112">
        <ele>776.2</ele>
        <time>2024-07-23T10:12:34Z</time>
      </trkpt>
      <trkpt lat="45.90794" lon="2.98113">
        <ele>776.3</ele>
        <time>2024-07-23T10:12:35Z</time>
      </trkpt>
      <trkpt lat="45.90793" lon="2.98114">
        <ele>776.4</ele>
        <time>2024-07-23T10:12:36Z</time>
      </trkpt>
      <trkpt lat="45.90792" lon="2.98115">
        <ele>776.3</ele>
        <time>2024-07-23T10:12:37Z</time>
      </trkpt>
      <trkpt lat="45.90791" lon="2.98115">
        <ele>776.5</ele>
        <time>2024-07-23T10:12:38Z</time>
      </trkpt>
      <trkpt lat="45.9079" lon="2.98116">
        <ele>776.5</ele>
        <time>2024-07-23T10:12:39Z</time>
      </trkpt>
      <trkpt lat="45.90789" lon="2.98116">
        <ele>776.5</ele>
        <time>2024-07-23T10:12:40Z</time>
      </trkpt>
      <trkpt lat="45.90788" lon="2.98117">
        <ele>776.2</ele>
        <time>2024-07-23T10:12:41Z</time>
      </trkpt>
      <trkpt lat="45.90787" lon="2.98117">
        <ele>776.2</ele>
        <time>2024-07-23T10:12:42Z</time>
      </trkpt>
      <trkpt lat="45.90786" lon="2.98117">
        <ele>776.2</ele>
        <time>2024-07-23T10:12:43Z</time>
      </trkpt>
      <trkpt lat="45.90785" lon="2.98118">
        <ele>776.8</ele>
        <time>2024-07-23T10:12:44Z</time>
      </trkpt>
      <trkpt lat="45.90784" lon="2.98118">
        <ele>776.8</ele>
        <time>2024-07-23T10:12:45Z</time>
      </trkpt>
      <trkpt lat="45.90783" lon="2.98119">
        <ele>776.8</ele>
        <time>2024-07-23T10:12:46Z</time>
      </trkpt>
      <trkpt lat="45.90782" lon="2.98119">
        <ele>776.7</ele>
        <time>2024-07-23T10:12:47Z</time>
      </trkpt>
      <trkpt lat="45.90781" lon="2.9812">
        <ele>776.8</ele>
        <time>2024-07-23T10:12:48Z</time>
      </trkpt>
      <trkpt lat="45.9078" lon="2.9812">
        <ele>776.9</ele>
        <time>2024-07-23T10:12:49Z</time>
      </trkpt>
      <trkpt lat="45.90779" lon="2.9812">
        <ele>776.9</ele>
        <time>2024-07-23T10:12:50Z</time>
      </trkpt>
      <trkpt lat="45.90778" lon="2.98121">
        <ele>777.2</ele>
        <time>2024-07-23T10:12:51Z</time>
      </trkpt>
      <trkpt lat="45.90777" lon="2.98121">
        <ele>776.8</ele>
        <time>2024-07-23T10:12:52Z</time>
      </trkpt>
      <trkpt lat="45.90776" lon="2.98122">
        <ele>776.4</ele>
        <time>2024-07-23T10:12:53Z</time>
      </trkpt>
      <trkpt lat="45.90775" lon="2.98122">
        <ele>776.3</ele>
        <time>2024-07-23T10:12:54Z</time>
      </trkpt>
      <trkpt lat="45.90773" lon="2.98122">
        <ele>776.6</ele>
        <time>2024-07-23T10:12:56Z</time>
      </trkpt>
      <trkpt lat="45.90772" lon="2.98123">
        <ele>776.9</ele>
        <time>2024-07-23T10:12:57Z</time>
      </trkpt>
      <trkpt lat="45.90771" lon="2.98124">
        <ele>777</ele>
        <time>2024-07-23T10:12:59Z</time>
      </trkpt>
      <trkpt lat="45.9077" lon="2.98124">
        <ele>777.8</ele>
        <time>2024-07-23T10:13:00Z</time>
      </trkpt>
      <trkpt lat="45.90768" lon="2.98124">
        <ele>776.4</ele>
        <time>2024-07-23T10:13:01Z</time>
      </trkpt>
      <trkpt lat="45.90767" lon="2.98125">
        <ele>776.4</ele>
        <time>2024-07-23T10:13:02Z</time>
      </trkpt>
      <trkpt lat="45.90766" lon="2.98125">
        <ele>777.1</ele>
        <time>2024-07-23T10:13:03Z</time>
      </trkpt>
      <trkpt lat="45.90765" lon="2.98125">
        <ele>777.5</ele>
        <time>2024-07-23T10:13:04Z</time>
      </trkpt>
      <trkpt lat="45.90764" lon="2.98126">
        <ele>777.3</ele>
        <time>2024-07-23T10:13:05Z</time>
      </trkpt>
      <trkpt lat="45.90763" lon="2.98126">
        <ele>777.1</ele>
        <time>2024-07-23T10:13:06Z</time>
      </trkpt>
      <trkpt lat="45.90762" lon="2.98127">
        <ele>777.1</ele>
        <time>2024-07-23T10:13:07Z</time>
      </trkpt>
      <trkpt lat="45.90761" lon="2.98126">
        <ele>777.1</ele>
        <time>2024-07-23T10:13:08Z</time>
      </trkpt>
      <trkpt lat="45.9076" lon="2.98126">
        <ele>777.3</ele>
        <time>2024-07-23T10:13:09Z</time>
      </trkpt>
      <trkpt lat="45.90759" lon="2.98127">
        <ele>778</ele>
        <time>2024-07-23T10:13:10Z</time>
      </trkpt>
      <trkpt lat="45.90758" lon="2.98127">
        <ele>777.9</ele>
        <time>2024-07-23T10:13:11Z</time>
      </trkpt>
      <trkpt lat="45.90756" lon="2.98127">
        <ele>777.4</ele>
        <time>2024-07-23T10:13:12Z</time>
      </trkpt>
      <trkpt lat="45.90755" lon="2.98128">
        <ele>776.8</ele>
        <time>2024-07-23T10:13:13Z</time>
      </trkpt>
      <trkpt lat="45.90754" lon="2.98128">
        <ele>777.2</ele>
        <time>2024-07-23T10:13:15Z</time>
      </trkpt>
      <trkpt lat="45.90752" lon="2.98129">
        <ele>777.3</ele>
        <time>2024-07-23T10:13:17Z</time>
      </trkpt>
      <trkpt lat="45.90751" lon="2.98129">
        <ele>777</ele>
        <time>2024-07-23T10:13:19Z</time>
      </trkpt>
      <trkpt lat="45.9075" lon="2.98129">
        <ele>776.2</ele>
        <time>2024-07-23T10:13:20Z</time>
      </trkpt>
      <trkpt lat="45.90748" lon="2.98129">
        <ele>776.4</ele>
        <time>2024-07-23T10:13:21Z</time>
      </trkpt>
      <trkpt lat="45.90747" lon="2.98129">
        <ele>776.4</ele>
        <time>2024-07-23T10:13:22Z</time>
      </trkpt>
      <trkpt lat="45.90746" lon="2.98129">
        <ele>776.2</ele>
        <time>2024-07-23T10:13:23Z</time>
      </trkpt>
      <trkpt lat="45.90744" lon="2.98129">
        <ele>776.6</ele>
        <time>2024-07-23T10:13:24Z</time>
      </trkpt>
      <trkpt lat="45.90743" lon="2.9813">
        <ele>776.8</ele>
        <time>2024-07-23T10:13:25Z</time>
      </trkpt>
      <trkpt lat="45.90742" lon="2.9813">
        <ele>777</ele>
        <time>2024-07-23T10:13:26Z</time>
      </trkpt>
      <trkpt lat="45.90741" lon="2.9813">
        <ele>777.3</ele>
        <time>2024-07-23T10:13:27Z</time>
      </trkpt>
      <trkpt lat="45.9074" lon="2.9813">
        <ele>777</ele>
        <time>2024-07-23T10:13:28Z</time>
      </trkpt>
      <trkpt lat="45.90739" lon="2.9813">
        <ele>777.2</ele>
        <time>2024-07-23T10:13:29Z</time>
      </trkpt>
      <trkpt lat="45.90737" lon="2.9813">
        <ele>777.1</ele>
        <time>2024-07-23T10:13:30Z</time>
      </trkpt>
      <trkpt lat="45.90736" lon="2.9813">
        <ele>777.3</ele>
        <time>2024-07-23T10:13:31Z</time>
      </trkpt>
      <trkpt lat="45.90735" lon="2.98131">
        <ele>777.5</ele>
        <time>2024-07-23T10:13:32Z</time>
      </trkpt>
      <trkpt lat="45.90734" lon="2.98131">
        <ele>777.5</ele>
        <time>2024-07-23T10:13:33Z</time>
      </trkpt>
      <trkpt lat="45.90733" lon="2.98131">
        <ele>777.6</ele>
        <time>2024-07-23T10:13:34Z</time>
      </trkpt>
      <trkpt lat="45.90732" lon="2.98131">
        <ele>777.8</ele>
        <time>2024-07-23T10:13:35Z</time>
      </trkpt>
      <trkpt lat="45.90731" lon="2.98131">
        <ele>777.7</ele>
        <time>2024-07-23T10:13:36Z</time>
      </trkpt>
      <trkpt lat="45.90729" lon="2.98131">
        <ele>778.1</ele>
        <time>2024-07-23T10:13:37Z</time>
      </trkpt>
      <trkpt lat="45.90728" lon="2.98131">
        <ele>778.2</ele>
        <time>2024-07-23T10:13:38Z</time>
      </trkpt>
      <trkpt lat="45.90727" lon="2.98131">
        <ele>778.4</ele>
        <time>2024-07-23T10:13:39Z</time>
      </trkpt>
      <trkpt lat="45.90726" lon="2.98131">
        <ele>778.4</ele>
        <time>2024-07-23T10:13:40Z</time>
      </trkpt>
      <trkpt lat="45.90725" lon="2.98131">
        <ele>778.1</ele>
        <time>2024-07-23T10:13:41Z</time>
      </trkpt>
      <trkpt lat="45.90724" lon="2.98131">
        <ele>777.7</ele>
        <time>2024-07-23T10:13:42Z</time>
      </trkpt>
      <trkpt lat="45.90723" lon="2.98131">
        <ele>777.6</ele>
        <time>2024-07-23T10:13:43Z</time>
      </trkpt>
      <trkpt lat="45.90722" lon="2.98132">
        <ele>777.6</ele>
        <time>2024-07-23T10:13:44Z</time>
      </trkpt>
      <trkpt lat="45.90721" lon="2.98132">
        <ele>777.5</ele>
        <time>2024-07-23T10:13:45Z</time>
      </trkpt>
      <trkpt lat="45.9072" lon="2.98132">
        <ele>777.1</ele>
        <time>2024-07-23T10:13:46Z</time>
      </trkpt>
      <trkpt lat="45.90719" lon="2.98132">
        <ele>777.2</ele>
        <time>2024-07-23T10:13:47Z</time>
      </trkpt>
      <trkpt lat="45.90717" lon="2.98132">
        <ele>776.9</ele>
        <time>2024-07-23T10:13:49Z</time>
      </trkpt>
      <trkpt lat="45.90716" lon="2.98132">
        <ele>777.2</ele>
        <time>2024-07-23T10:13:50Z</time>
      </trkpt>
      <trkpt lat="45.90715" lon="2.98132">
        <ele>777.5</ele>
        <time>2024-07-23T10:13:51Z</time>
      </trkpt>
      <trkpt lat="45.90714" lon="2.98132">
        <ele>778.2</ele>
        <time>2024-07-23T10:13:52Z</time>
      </trkpt>
      <trkpt lat="45.90713" lon="2.98132">
        <ele>778.3</ele>
        <time>2024-07-23T10:13:53Z</time>
      </trkpt>
      <trkpt lat="45.90712" lon="2.98133">
        <ele>778.4</ele>
        <time>2024-07-23T10:13:54Z</time>
      </trkpt>
      <trkpt lat="45.90711" lon="2.98133">
        <ele>778.8</ele>
        <time>2024-07-23T10:13:55Z</time>
      </trkpt>
      <trkpt lat="45.9071" lon="2.98133">
        <ele>779.1</ele>
        <time>2024-07-23T10:13:56Z</time>
      </trkpt>
      <trkpt lat="45.90709" lon="2.98134">
        <ele>779.1</ele>
        <time>2024-07-23T10:13:57Z</time>
      </trkpt>
      <trkpt lat="45.90708" lon="2.98134">
        <ele>778.8</ele>
        <time>2024-07-23T10:13:58Z</time>
      </trkpt>
      <trkpt lat="45.90706" lon="2.98133">
        <ele>779.3</ele>
        <time>2024-07-23T10:14:00Z</time>
      </trkpt>
      <trkpt lat="45.90705" lon="2.98133">
        <ele>779.6</ele>
        <time>2024-07-23T10:14:01Z</time>
      </trkpt>
      <trkpt lat="45.90704" lon="2.98133">
        <ele>779.4</ele>
        <time>2024-07-23T10:14:02Z</time>
      </trkpt>
      <trkpt lat="45.90702" lon="2.98134">
        <ele>779.4</ele>
        <time>2024-07-23T10:14:03Z</time>
      </trkpt>
      <trkpt lat="45.90701" lon="2.98134">
        <ele>779.3</ele>
        <time>2024-07-23T10:14:04Z</time>
      </trkpt>
      <trkpt lat="45.907" lon="2.98134">
        <ele>779.3</ele>
        <time>2024-07-23T10:14:05Z</time>
      </trkpt>
      <trkpt lat="45.90699" lon="2.98134">
        <ele>778.7</ele>
        <time>2024-07-23T10:14:06Z</time>
      </trkpt>
      <trkpt lat="45.90698" lon="2.98134">
        <ele>779</ele>
        <time>2024-07-23T10:14:07Z</time>
      </trkpt>
      <trkpt lat="45.90697" lon="2.98135">
        <ele>779</ele>
        <time>2024-07-23T10:14:08Z</time>
      </trkpt>
      <trkpt lat="45.90696" lon="2.98135">
        <ele>779</ele>
        <time>2024-07-23T10:14:09Z</time>
      </trkpt>
      <trkpt lat="45.90695" lon="2.98135">
        <ele>779.2</ele>
        <time>2024-07-23T10:14:10Z</time>
      </trkpt>
      <trkpt lat="45.90694" lon="2.98134">
        <ele>778.8</ele>
        <time>2024-07-23T10:14:11Z</time>
      </trkpt>
      <trkpt lat="45.90693" lon="2.98134">
        <ele>779</ele>
        <time>2024-07-23T10:14:12Z</time>
      </trkpt>
      <trkpt lat="45.90692" lon="2.98134">
        <ele>779.4</ele>
        <time>2024-07-23T10:14:13Z</time>
      </trkpt>
      <trkpt lat="45.90691" lon="2.98134">
        <ele>779.2</ele>
        <time>2024-07-23T10:14:14Z</time>
      </trkpt>
      <trkpt lat="45.9069" lon="2.98134">
        <ele>779.6</ele>
        <time>2024-07-23T10:14:15Z</time>
      </trkpt>
      <trkpt lat="45.90688" lon="2.98134">
        <ele>779.7</ele>
        <time>2024-07-23T10:14:16Z</time>
      </trkpt>
      <trkpt lat="45.90687" lon="2.98134">
        <ele>780</ele>
        <time>2024-07-23T10:14:17Z</time>
      </trkpt>
      <trkpt lat="45.90686" lon="2.98134">
        <ele>780</ele>
        <time>2024-07-23T10:14:18Z</time>
      </trkpt>
      <trkpt lat="45.90685" lon="2.98134">
        <ele>780.3</ele>
        <time>2024-07-23T10:14:19Z</time>
      </trkpt>
      <trkpt lat="45.90684" lon="2.98134">
        <ele>780</ele>
        <time>2024-07-23T10:14:20Z</time>
      </trkpt>
      <trkpt lat="45.90683" lon="2.98134">
        <ele>779.8</ele>
        <time>2024-07-23T10:14:21Z</time>
      </trkpt>
      <trkpt lat="45.90682" lon="2.98134">
        <ele>779.9</ele>
        <time>2024-07-23T10:14:22Z</time>
      </trkpt>
      <trkpt lat="45.90681" lon="2.98134">
        <ele>780.5</ele>
        <time>2024-07-23T10:14:23Z</time>
      </trkpt>
      <trkpt lat="45.9068" lon="2.98134">
        <ele>780.8</ele>
        <time>2024-07-23T10:14:24Z</time>
      </trkpt>
      <trkpt lat="45.90679" lon="2.98134">
        <ele>781</ele>
        <time>2024-07-23T10:14:25Z</time>
      </trkpt>
      <trkpt lat="45.90678" lon="2.98134">
        <ele>781.2</ele>
        <time>2024-07-23T10:14:26Z</time>
      </trkpt>
      <trkpt lat="45.90677" lon="2.98134">
        <ele>780.6</ele>
        <time>2024-07-23T10:14:27Z</time>
      </trkpt>
      <trkpt lat="45.90676" lon="2.98134">
        <ele>780.1</ele>
        <time>2024-07-23T10:14:28Z</time>
      </trkpt>
      <trkpt lat="45.90675" lon="2.98134">
        <ele>779.5</ele>
        <time>2024-07-23T10:14:29Z</time>
      </trkpt>
      <trkpt lat="45.90673" lon="2.98134">
        <ele>779.4</ele>
        <time>2024-07-23T10:14:30Z</time>
      </trkpt>
      <trkpt lat="45.90672" lon="2.98134">
        <ele>779.6</ele>
        <time>2024-07-23T10:14:31Z</time>
      </trkpt>
      <trkpt lat="45.90671" lon="2.98134">
        <ele>779.7</ele>
        <time>2024-07-23T10:14:32Z</time>
      </trkpt>
      <trkpt lat="45.9067" lon="2.98134">
        <ele>779.9</ele>
        <time>2024-07-23T10:14:33Z</time>
      </trkpt>
      <trkpt lat="45.90669" lon="2.98134">
        <ele>779.9</ele>
        <time>2024-07-23T10:14:34Z</time>
      </trkpt>
      <trkpt lat="45.90668" lon="2.98134">
        <ele>779.8</ele>
        <time>2024-07-23T10:14:35Z</time>
      </trkpt>
      <trkpt lat="45.90667" lon="2.98134">
        <ele>779.8</ele>
        <time>2024-07-23T10:14:36Z</time>
      </trkpt>
      <trkpt lat="45.90666" lon="2.98134">
        <ele>781.1</ele>
        <time>2024-07-23T10:14:37Z</time>
      </trkpt>
      <trkpt lat="45.90664" lon="2.98134">
        <ele>780.9</ele>
        <time>2024-07-23T10:14:38Z</time>
      </trkpt>
      <trkpt lat="45.90663" lon="2.98134">
        <ele>780.4</ele>
        <time>2024-07-23T10:14:39Z</time>
      </trkpt>
      <trkpt lat="45.90662" lon="2.98134">
        <ele>780.5</ele>
        <time>2024-07-23T10:14:40Z</time>
      </trkpt>
      <trkpt lat="45.90661" lon="2.98134">
        <ele>780.4</ele>
        <time>2024-07-23T10:14:41Z</time>
      </trkpt>
      <trkpt lat="45.9066" lon="2.98134">
        <ele>780.6</ele>
        <time>2024-07-23T10:14:42Z</time>
      </trkpt>
      <trkpt lat="45.90659" lon="2.98134">
        <ele>780.5</ele>
        <time>2024-07-23T10:14:43Z</time>
      </trkpt>
      <trkpt lat="45.90658" lon="2.98134">
        <ele>780.7</ele>
        <time>2024-07-23T10:14:44Z</time>
      </trkpt>
      <trkpt lat="45.90657" lon="2.98133">
        <ele>780.7</ele>
        <time>2024-07-23T10:14:45Z</time>
      </trkpt>
      <trkpt lat="45.90656" lon="2.98133">
        <ele>780.7</ele>
        <time>2024-07-23T10:14:46Z</time>
      </trkpt>
      <trkpt lat="45.90655" lon="2.98133">
        <ele>780.6</ele>
        <time>2024-07-23T10:14:47Z</time>
      </trkpt>
      <trkpt lat="45.90654" lon="2.98134">
        <ele>780.8</ele>
        <time>2024-07-23T10:14:48Z</time>
      </trkpt>
      <trkpt lat="45.90652" lon="2.98134">
        <ele>781.1</ele>
        <time>2024-07-23T10:14:49Z</time>
      </trkpt>
      <trkpt lat="45.90651" lon="2.98134">
        <ele>781.2</ele>
        <time>2024-07-23T10:14:50Z</time>
      </trkpt>
      <trkpt lat="45.9065" lon="2.98135">
        <ele>781.4</ele>
        <time>2024-07-23T10:14:51Z</time>
      </trkpt>
      <trkpt lat="45.9065" lon="2.98135">
        <ele>781.8</ele>
        <time>2024-07-23T10:14:52Z</time>
      </trkpt>
      <trkpt lat="45.90648" lon="2.98135">
        <ele>781.7</ele>
        <time>2024-07-23T10:14:53Z</time>
      </trkpt>
      <trkpt lat="45.90647" lon="2.98135">
        <ele>781.5</ele>
        <time>2024-07-23T10:14:54Z</time>
      </trkpt>
      <trkpt lat="45.90646" lon="2.98136">
        <ele>781.8</ele>
        <time>2024-07-23T10:14:55Z</time>
      </trkpt>
      <trkpt lat="45.90646" lon="2.98136">
        <ele>781.8</ele>
        <time>2024-07-23T10:14:56Z</time>
      </trkpt>
      <trkpt lat="45.90645" lon="2.98136">
        <ele>781.8</ele>
        <time>2024-07-23T10:14:57Z</time>
      </trkpt>
      <trkpt lat="45.90644" lon="2.98137">
        <ele>781.5</ele>
        <time>2024-07-23T10:14:58Z</time>
      </trkpt>
      <trkpt lat="45.90643" lon="2.98138">
        <ele>781.5</ele>
        <time>2024-07-23T10:14:59Z</time>
      </trkpt>
      <trkpt lat="45.90641" lon="2.98138">
        <ele>781.6</ele>
        <time>2024-07-23T10:15:01Z</time>
      </trkpt>
      <trkpt lat="45.9064" lon="2.98138">
        <ele>781.7</ele>
        <time>2024-07-23T10:15:02Z</time>
      </trkpt>
      <trkpt lat="45.90638" lon="2.98138">
        <ele>781.6</ele>
        <time>2024-07-23T10:15:03Z</time>
      </trkpt>
      <trkpt lat="45.90637" lon="2.98139">
        <ele>781.7</ele>
        <time>2024-07-23T10:15:04Z</time>
      </trkpt>
      <trkpt lat="45.90636" lon="2.98139">
        <ele>782</ele>
        <time>2024-07-23T10:15:05Z</time>
      </trkpt>
      <trkpt lat="45.90635" lon="2.98139">
        <ele>782.2</ele>
        <time>2024-07-23T10:15:06Z</time>
      </trkpt>
      <trkpt lat="45.90634" lon="2.98139">
        <ele>781.7</ele>
        <time>2024-07-23T10:15:07Z</time>
      </trkpt>
      <trkpt lat="45.90633" lon="2.9814">
        <ele>781.8</ele>
        <time>2024-07-23T10:15:08Z</time>
      </trkpt>
      <trkpt lat="45.90632" lon="2.9814">
        <ele>781.5</ele>
        <time>2024-07-23T10:15:09Z</time>
      </trkpt>
      <trkpt lat="45.90631" lon="2.9814">
        <ele>781.7</ele>
        <time>2024-07-23T10:15:10Z</time>
      </trkpt>
      <trkpt lat="45.90629" lon="2.9814">
        <ele>782</ele>
        <time>2024-07-23T10:15:11Z</time>
      </trkpt>
      <trkpt lat="45.90628" lon="2.9814">
        <ele>782</ele>
        <time>2024-07-23T10:15:12Z</time>
      </trkpt>
      <trkpt lat="45.90627" lon="2.9814">
        <ele>782</ele>
        <time>2024-07-23T10:15:13Z</time>
      </trkpt>
      <trkpt lat="45.90626" lon="2.9814">
        <ele>781.7</ele>
        <time>2024-07-23T10:15:14Z</time>
      </trkpt>
      <trkpt lat="45.90625" lon="2.9814">
        <ele>781.4</ele>
        <time>2024-07-23T10:15:15Z</time>
      </trkpt>
      <trkpt lat="45.90624" lon="2.9814">
        <ele>782.1</ele>
        <time>2024-07-23T10:15:16Z</time>
      </trkpt>
      <trkpt lat="45.90623" lon="2.98141">
        <ele>782.2</ele>
        <time>2024-07-23T10:15:17Z</time>
      </trkpt>
      <trkpt lat="45.90622" lon="2.98141">
        <ele>782.2</ele>
        <time>2024-07-23T10:15:18Z</time>
      </trkpt>
      <trkpt lat="45.90621" lon="2.98141">
        <ele>782</ele>
        <time>2024-07-23T10:15:19Z</time>
      </trkpt>
      <trkpt lat="45.9062" lon="2.98142">
        <ele>782.2</ele>
        <time>2024-07-23T10:15:20Z</time>
      </trkpt>
      <trkpt lat="45.90619" lon="2.98142">
        <ele>782.5</ele>
        <time>2024-07-23T10:15:21Z</time>
      </trkpt>
      <trkpt lat="45.90618" lon="2.98142">
        <ele>782.1</ele>
        <time>2024-07-23T10:15:22Z</time>
      </trkpt>
      <trkpt lat="45.90616" lon="2.98142">
        <ele>781.8</ele>
        <time>2024-07-23T10:15:23Z</time>
      </trkpt>
      <trkpt lat="45.90615" lon="2.98142">
        <ele>782.7</ele>
        <time>2024-07-23T10:15:24Z</time>
      </trkpt>
      <trkpt lat="45.90614" lon="2.98142">
        <ele>782.6</ele>
        <time>2024-07-23T10:15:25Z</time>
      </trkpt>
      <trkpt lat="45.90613" lon="2.98142">
        <ele>782.8</ele>
        <time>2024-07-23T10:15:26Z</time>
      </trkpt>
      <trkpt lat="45.90612" lon="2.98142">
        <ele>782.7</ele>
        <time>2024-07-23T10:15:27Z</time>
      </trkpt>
      <trkpt lat="45.90611" lon="2.98142">
        <ele>782.6</ele>
        <time>2024-07-23T10:15:28Z</time>
      </trkpt>
      <trkpt lat="45.9061" lon="2.98142">
        <ele>782.4</ele>
        <time>2024-07-23T10:15:29Z</time>
      </trkpt>
      <trkpt lat="45.90609" lon="2.98142">
        <ele>782.4</ele>
        <time>2024-07-23T10:15:30Z</time>
      </trkpt>
      <trkpt lat="45.90608" lon="2.98143">
        <ele>782.2</ele>
        <time>2024-07-23T10:15:31Z</time>
      </trkpt>
      <trkpt lat="45.90607" lon="2.98143">
        <ele>782.1</ele>
        <time>2024-07-23T10:15:32Z</time>
      </trkpt>
      <trkpt lat="45.90606" lon="2.98142">
        <ele>782.1</ele>
        <time>2024-07-23T10:15:33Z</time>
      </trkpt>
      <trkpt lat="45.90605" lon="2.98142">
        <ele>782.7</ele>
        <time>2024-07-23T10:15:34Z</time>
      </trkpt>
      <trkpt lat="45.90604" lon="2.98142">
        <ele>782.7</ele>
        <time>2024-07-23T10:15:35Z</time>
      </trkpt>
      <trkpt lat="45.90603" lon="2.98142">
        <ele>783.3</ele>
        <time>2024-07-23T10:15:36Z</time>
      </trkpt>
      <trkpt lat="45.90602" lon="2.98143">
        <ele>783.1</ele>
        <time>2024-07-23T10:15:37Z</time>
      </trkpt>
      <trkpt lat="45.906" lon="2.98143">
        <ele>783.1</ele>
        <time>2024-07-23T10:15:38Z</time>
      </trkpt>
      <trkpt lat="45.90599" lon="2.98143">
        <ele>783.5</ele>
        <time>2024-07-23T10:15:39Z</time>
      </trkpt>
      <trkpt lat="45.90598" lon="2.98142">
        <ele>783.5</ele>
        <time>2024-07-23T10:15:40Z</time>
      </trkpt>
      <trkpt lat="45.90597" lon="2.98142">
        <ele>783.2</ele>
        <time>2024-07-23T10:15:41Z</time>
      </trkpt>
      <trkpt lat="45.90596" lon="2.98142">
        <ele>783.1</ele>
        <time>2024-07-23T10:15:42Z</time>
      </trkpt>
      <trkpt lat="45.90595" lon="2.98142">
        <ele>782.9</ele>
        <time>2024-07-23T10:15:43Z</time>
      </trkpt>
      <trkpt lat="45.90594" lon="2.98142">
        <ele>783.3</ele>
        <time>2024-07-23T10:15:44Z</time>
      </trkpt>
      <trkpt lat="45.90593" lon="2.98143">
        <ele>783.5</ele>
        <time>2024-07-23T10:15:45Z</time>
      </trkpt>
      <trkpt lat="45.90592" lon="2.98143">
        <ele>782.6</ele>
        <time>2024-07-23T10:15:46Z</time>
      </trkpt>
      <trkpt lat="45.90591" lon="2.98143">
        <ele>782.7</ele>
        <time>2024-07-23T10:15:47Z</time>
      </trkpt>
      <trkpt lat="45.9059" lon="2.98143">
        <ele>782.7</ele>
        <time>2024-07-23T10:15:48Z</time>
      </trkpt>
      <trkpt lat="45.90589" lon="2.98143">
        <ele>782.9</ele>
        <time>2024-07-23T10:15:49Z</time>
      </trkpt>
      <trkpt lat="45.90588" lon="2.98143">
        <ele>783.3</ele>
        <time>2024-07-23T10:15:50Z</time>
      </trkpt>
      <trkpt lat="45.90587" lon="2.98143">
        <ele>783.3</ele>
        <time>2024-07-23T10:15:51Z</time>
      </trkpt>
      <trkpt lat="45.90586" lon="2.98144">
        <ele>783.8</ele>
        <time>2024-07-23T10:15:52Z</time>
      </trkpt>
      <trkpt lat="45.90585" lon="2.98144">
        <ele>783.1</ele>
        <time>2024-07-23T10:15:53Z</time>
      </trkpt>
      <trkpt lat="45.90584" lon="2.98144">
        <ele>782.9</ele>
        <time>2024-07-23T10:15:54Z</time>
      </trkpt>
      <trkpt lat="45.90583" lon="2.98145">
        <ele>782.3</ele>
        <time>2024-07-23T10:15:55Z</time>
      </trkpt>
      <trkpt lat="45.90582" lon="2.98145">
        <ele>782.1</ele>
        <time>2024-07-23T10:15:56Z</time>
      </trkpt>
      <trkpt lat="45.90581" lon="2.98145">
        <ele>782.3</ele>
        <time>2024-07-23T10:15:57Z</time>
      </trkpt>
      <trkpt lat="45.9058" lon="2.98145">
        <ele>782.4</ele>
        <time>2024-07-23T10:15:58Z</time>
      </trkpt>
      <trkpt lat="45.90579" lon="2.98145">
        <ele>782.4</ele>
        <time>2024-07-23T10:15:59Z</time>
      </trkpt>
      <trkpt lat="45.90578" lon="2.98145">
        <ele>782.1</ele>
        <time>2024-07-23T10:16:00Z</time>
      </trkpt>
      <trkpt lat="45.90577" lon="2.98145">
        <ele>781.9</ele>
        <time>2024-07-23T10:16:01Z</time>
      </trkpt>
      <trkpt lat="45.90576" lon="2.98145">
        <ele>782</ele>
        <time>2024-07-23T10:16:02Z</time>
      </trkpt>
      <trkpt lat="45.90575" lon="2.98145">
        <ele>781.7</ele>
        <time>2024-07-23T10:16:03Z</time>
      </trkpt>
      <trkpt lat="45.90573" lon="2.98145">
        <ele>782.2</ele>
        <time>2024-07-23T10:16:05Z</time>
      </trkpt>
      <trkpt lat="45.90571" lon="2.98145">
        <ele>782.2</ele>
        <time>2024-07-23T10:16:06Z</time>
      </trkpt>
      <trkpt lat="45.90569" lon="2.98146">
        <ele>782.2</ele>
        <time>2024-07-23T10:16:08Z</time>
      </trkpt>
      <trkpt lat="45.90569" lon="2.98146">
        <ele>782.2</ele>
        <time>2024-07-23T10:16:09Z</time>
      </trkpt>
      <trkpt lat="45.90567" lon="2.98146">
        <ele>782.5</ele>
        <time>2024-07-23T10:16:10Z</time>
      </trkpt>
      <trkpt lat="45.90566" lon="2.98146">
        <ele>782.5</ele>
        <time>2024-07-23T10:16:11Z</time>
      </trkpt>
      <trkpt lat="45.90565" lon="2.98146">
        <ele>782.6</ele>
        <time>2024-07-23T10:16:12Z</time>
      </trkpt>
      <trkpt lat="45.90564" lon="2.98146">
        <ele>782.8</ele>
        <time>2024-07-23T10:16:13Z</time>
      </trkpt>
      <trkpt lat="45.90563" lon="2.98147">
        <ele>782.7</ele>
        <time>2024-07-23T10:16:14Z</time>
      </trkpt>
      <trkpt lat="45.90562" lon="2.98147">
        <ele>783</ele>
        <time>2024-07-23T10:16:15Z</time>
      </trkpt>
      <trkpt lat="45.90561" lon="2.98148">
        <ele>782.8</ele>
        <time>2024-07-23T10:16:16Z</time>
      </trkpt>
      <trkpt lat="45.9056" lon="2.98148">
        <ele>782.8</ele>
        <time>2024-07-23T10:16:17Z</time>
      </trkpt>
      <trkpt lat="45.90559" lon="2.98148">
        <ele>782.6</ele>
        <time>2024-07-23T10:16:18Z</time>
      </trkpt>
      <trkpt lat="45.90558" lon="2.98148">
        <ele>782.5</ele>
        <time>2024-07-23T10:16:19Z</time>
      </trkpt>
      <trkpt lat="45.90557" lon="2.98148">
        <ele>782.7</ele>
        <time>2024-07-23T10:16:20Z</time>
      </trkpt>
      <trkpt lat="45.90556" lon="2.98148">
        <ele>782.3</ele>
        <time>2024-07-23T10:16:21Z</time>
      </trkpt>
      <trkpt lat="45.90555" lon="2.98148">
        <ele>782.5</ele>
        <time>2024-07-23T10:16:22Z</time>
      </trkpt>
      <trkpt lat="45.90554" lon="2.98148">
        <ele>782.4</ele>
        <time>2024-07-23T10:16:23Z</time>
      </trkpt>
      <trkpt lat="45.90553" lon="2.98148">
        <ele>782.3</ele>
        <time>2024-07-23T10:16:24Z</time>
      </trkpt>
      <trkpt lat="45.90552" lon="2.98148">
        <ele>782.4</ele>
        <time>2024-07-23T10:16:25Z</time>
      </trkpt>
      <trkpt lat="45.9055" lon="2.98148">
        <ele>782.3</ele>
        <time>2024-07-23T10:16:26Z</time>
      </trkpt>
      <trkpt lat="45.90549" lon="2.98148">
        <ele>782.5</ele>
        <time>2024-07-23T10:16:27Z</time>
      </trkpt>
      <trkpt lat="45.90548" lon="2.98148">
        <ele>782.8</ele>
        <time>2024-07-23T10:16:28Z</time>
      </trkpt>
      <trkpt lat="45.90547" lon="2.98148">
        <ele>783.6</ele>
        <time>2024-07-23T10:16:29Z</time>
      </trkpt>
      <trkpt lat="45.90546" lon="2.98149">
        <ele>783.4</ele>
        <time>2024-07-23T10:16:30Z</time>
      </trkpt>
      <trkpt lat="45.90545" lon="2.98149">
        <ele>784.2</ele>
        <time>2024-07-23T10:16:31Z</time>
      </trkpt>
      <trkpt lat="45.90544" lon="2.98149">
        <ele>784.2</ele>
        <time>2024-07-23T10:16:32Z</time>
      </trkpt>
      <trkpt lat="45.90543" lon="2.98149">
        <ele>784.5</ele>
        <time>2024-07-23T10:16:33Z</time>
      </trkpt>
      <trkpt lat="45.90542" lon="2.98149">
        <ele>784.3</ele>
        <time>2024-07-23T10:16:34Z</time>
      </trkpt>
      <trkpt lat="45.90541" lon="2.98149">
        <ele>784.4</ele>
        <time>2024-07-23T10:16:35Z</time>
      </trkpt>
      <trkpt lat="45.9054" lon="2.98149">
        <ele>784</ele>
        <time>2024-07-23T10:16:36Z</time>
      </trkpt>
      <trkpt lat="45.90539" lon="2.98149">
        <ele>784.1</ele>
        <time>2024-07-23T10:16:37Z</time>
      </trkpt>
      <trkpt lat="45.90538" lon="2.98149">
        <ele>784.5</ele>
        <time>2024-07-23T10:16:38Z</time>
      </trkpt>
      <trkpt lat="45.90537" lon="2.9815">
        <ele>784.3</ele>
        <time>2024-07-23T10:16:39Z</time>
      </trkpt>
      <trkpt lat="45.90536" lon="2.9815">
        <ele>784.1</ele>
        <time>2024-07-23T10:16:40Z</time>
      </trkpt>
      <trkpt lat="45.90535" lon="2.9815">
        <ele>784</ele>
        <time>2024-07-23T10:16:41Z</time>
      </trkpt>
      <trkpt lat="45.90534" lon="2.9815">
        <ele>784.1</ele>
        <time>2024-07-23T10:16:42Z</time>
      </trkpt>
      <trkpt lat="45.90533" lon="2.9815">
        <ele>784</ele>
        <time>2024-07-23T10:16:43Z</time>
      </trkpt>
      <trkpt lat="45.90532" lon="2.9815">
        <ele>784</ele>
        <time>2024-07-23T10:16:44Z</time>
      </trkpt>
      <trkpt lat="45.90531" lon="2.9815">
        <ele>784.3</ele>
        <time>2024-07-23T10:16:45Z</time>
      </trkpt>
      <trkpt lat="45.9053" lon="2.9815">
        <ele>784.2</ele>
        <time>2024-07-23T10:16:46Z</time>
      </trkpt>
      <trkpt lat="45.90529" lon="2.9815">
        <ele>784.3</ele>
        <time>2024-07-23T10:16:47Z</time>
      </trkpt>
      <trkpt lat="45.90528" lon="2.9815">
        <ele>783.9</ele>
        <time>2024-07-23T10:16:48Z</time>
      </trkpt>
      <trkpt lat="45.90527" lon="2.98149">
        <ele>783.7</ele>
        <time>2024-07-23T10:16:49Z</time>
      </trkpt>
      <trkpt lat="45.90526" lon="2.98149">
        <ele>783.3</ele>
        <time>2024-07-23T10:16:50Z</time>
      </trkpt>
      <trkpt lat="45.90525" lon="2.98148">
        <ele>783</ele>
        <time>2024-07-23T10:16:51Z</time>
      </trkpt>
      <trkpt lat="45.90523" lon="2.98148">
        <ele>783</ele>
        <time>2024-07-23T10:16:52Z</time>
      </trkpt>
      <trkpt lat="45.90522" lon="2.98148">
        <ele>782.9</ele>
        <time>2024-07-23T10:16:53Z</time>
      </trkpt>
      <trkpt lat="45.90521" lon="2.98148">
        <ele>783.3</ele>
        <time>2024-07-23T10:16:54Z</time>
      </trkpt>
      <trkpt lat="45.9052" lon="2.98147">
        <ele>783.7</ele>
        <time>2024-07-23T10:16:55Z</time>
      </trkpt>
      <trkpt lat="45.90519" lon="2.98147">
        <ele>783.9</ele>
        <time>2024-07-23T10:16:56Z</time>
      </trkpt>
      <trkpt lat="45.90518" lon="2.98147">
        <ele>783.6</ele>
        <time>2024-07-23T10:16:57Z</time>
      </trkpt>
      <trkpt lat="45.90517" lon="2.98147">
        <ele>783.7</ele>
        <time>2024-07-23T10:16:58Z</time>
      </trkpt>
      <trkpt lat="45.90516" lon="2.98147">
        <ele>784.3</ele>
        <time>2024-07-23T10:16:59Z</time>
      </trkpt>
      <trkpt lat="45.90514" lon="2.98147">
        <ele>784.7</ele>
        <time>2024-07-23T10:17:00Z</time>
      </trkpt>
      <trkpt lat="45.90513" lon="2.98147">
        <ele>785.8</ele>
        <time>2024-07-23T10:17:01Z</time>
      </trkpt>
      <trkpt lat="45.90512" lon="2.98148">
        <ele>786.3</ele>
        <time>2024-07-23T10:17:02Z</time>
      </trkpt>
      <trkpt lat="45.9051" lon="2.98147">
        <ele>786</ele>
        <time>2024-07-23T10:17:04Z</time>
      </trkpt>
      <trkpt lat="45.90509" lon="2.98147">
        <ele>785.6</ele>
        <time>2024-07-23T10:17:05Z</time>
      </trkpt>
      <trkpt lat="45.90508" lon="2.98146">
        <ele>785.6</ele>
        <time>2024-07-23T10:17:06Z</time>
      </trkpt>
      <trkpt lat="45.90506" lon="2.98146">
        <ele>785.1</ele>
        <time>2024-07-23T10:17:07Z</time>
      </trkpt>
      <trkpt lat="45.90504" lon="2.98145">
        <ele>784.4</ele>
        <time>2024-07-23T10:17:09Z</time>
      </trkpt>
      <trkpt lat="45.90503" lon="2.98144">
        <ele>784.6</ele>
        <time>2024-07-23T10:17:10Z</time>
      </trkpt>
      <trkpt lat="45.90501" lon="2.98144">
        <ele>784.2</ele>
        <time>2024-07-23T10:17:11Z</time>
      </trkpt>
      <trkpt lat="45.905" lon="2.98144">
        <ele>784.1</ele>
        <time>2024-07-23T10:17:12Z</time>
      </trkpt>
      <trkpt lat="45.90499" lon="2.98144">
        <ele>784.2</ele>
        <time>2024-07-23T10:17:13Z</time>
      </trkpt>
      <trkpt lat="45.90498" lon="2.98144">
        <ele>784.4</ele>
        <time>2024-07-23T10:17:14Z</time>
      </trkpt>
      <trkpt lat="45.90497" lon="2.98144">
        <ele>784.6</ele>
        <time>2024-07-23T10:17:15Z</time>
      </trkpt>
      <trkpt lat="45.90496" lon="2.98145">
        <ele>785</ele>
        <time>2024-07-23T10:17:16Z</time>
      </trkpt>
      <trkpt lat="45.90495" lon="2.98146">
        <ele>784.7</ele>
        <time>2024-07-23T10:17:17Z</time>
      </trkpt>
      <trkpt lat="45.90494" lon="2.98146">
        <ele>785</ele>
        <time>2024-07-23T10:17:18Z</time>
      </trkpt>
      <trkpt lat="45.90493" lon="2.98147">
        <ele>784.8</ele>
        <time>2024-07-23T10:17:19Z</time>
      </trkpt>
      <trkpt lat="45.90492" lon="2.98147">
        <ele>785.2</ele>
        <time>2024-07-23T10:17:20Z</time>
      </trkpt>
      <trkpt lat="45.90491" lon="2.98147">
        <ele>785.3</ele>
        <time>2024-07-23T10:17:21Z</time>
      </trkpt>
      <trkpt lat="45.9049" lon="2.98147">
        <ele>785.6</ele>
        <time>2024-07-23T10:17:22Z</time>
      </trkpt>
      <trkpt lat="45.90489" lon="2.98147">
        <ele>785.9</ele>
        <time>2024-07-23T10:17:24Z</time>
      </trkpt>
      <trkpt lat="45.90487" lon="2.98147">
        <ele>785.2</ele>
        <time>2024-07-23T10:17:26Z</time>
      </trkpt>
      <trkpt lat="45.90486" lon="2.98147">
        <ele>784.7</ele>
        <time>2024-07-23T10:17:27Z</time>
      </trkpt>
      <trkpt lat="45.90485" lon="2.98147">
        <ele>785.1</ele>
        <time>2024-07-23T10:17:28Z</time>
      </trkpt>
      <trkpt lat="45.90484" lon="2.98147">
        <ele>785.2</ele>
        <time>2024-07-23T10:17:29Z</time>
      </trkpt>
      <trkpt lat="45.90483" lon="2.98146">
        <ele>785.2</ele>
        <time>2024-07-23T10:17:30Z</time>
      </trkpt>
      <trkpt lat="45.90482" lon="2.98146">
        <ele>784.8</ele>
        <time>2024-07-23T10:17:31Z</time>
      </trkpt>
      <trkpt lat="45.9048" lon="2.98145">
        <ele>784.6</ele>
        <time>2024-07-23T10:17:32Z</time>
      </trkpt>
      <trkpt lat="45.90479" lon="2.98144">
        <ele>784.1</ele>
        <time>2024-07-23T10:17:33Z</time>
      </trkpt>
      <trkpt lat="45.90478" lon="2.98144">
        <ele>784.2</ele>
        <time>2024-07-23T10:17:34Z</time>
      </trkpt>
      <trkpt lat="45.90477" lon="2.98144">
        <ele>784.3</ele>
        <time>2024-07-23T10:17:35Z</time>
      </trkpt>
      <trkpt lat="45.90476" lon="2.98144">
        <ele>784.2</ele>
        <time>2024-07-23T10:17:36Z</time>
      </trkpt>
      <trkpt lat="45.90475" lon="2.98144">
        <ele>784.5</ele>
        <time>2024-07-23T10:17:37Z</time>
      </trkpt>
      <trkpt lat="45.90473" lon="2.98144">
        <ele>784.7</ele>
        <time>2024-07-23T10:17:38Z</time>
      </trkpt>
      <trkpt lat="45.90472" lon="2.98143">
        <ele>784.6</ele>
        <time>2024-07-23T10:17:39Z</time>
      </trkpt>
      <trkpt lat="45.90471" lon="2.98143">
        <ele>784.3</ele>
        <time>2024-07-23T10:17:40Z</time>
      </trkpt>
      <trkpt lat="45.9047" lon="2.98142">
        <ele>784.6</ele>
        <time>2024-07-23T10:17:41Z</time>
      </trkpt>
      <trkpt lat="45.90469" lon="2.98142">
        <ele>784.8</ele>
        <time>2024-07-23T10:17:42Z</time>
      </trkpt>
      <trkpt lat="45.90468" lon="2.98141">
        <ele>784.1</ele>
        <time>2024-07-23T10:17:43Z</time>
      </trkpt>
      <trkpt lat="45.90467" lon="2.9814">
        <ele>784.2</ele>
        <time>2024-07-23T10:17:44Z</time>
      </trkpt>
      <trkpt lat="45.90466" lon="2.9814">
        <ele>784</ele>
        <time>2024-07-23T10:17:45Z</time>
      </trkpt>
      <trkpt lat="45.90465" lon="2.98139">
        <ele>783.8</ele>
        <time>2024-07-23T10:17:46Z</time>
      </trkpt>
      <trkpt lat="45.90464" lon="2.98139">
        <ele>783.8</ele>
        <time>2024-07-23T10:17:47Z</time>
      </trkpt>
      <trkpt lat="45.90463" lon="2.98138">
        <ele>784.1</ele>
        <time>2024-07-23T10:17:48Z</time>
      </trkpt>
      <trkpt lat="45.90463" lon="2.98138">
        <ele>783.8</ele>
        <time>2024-07-23T10:17:49Z</time>
      </trkpt>
      <trkpt lat="45.90462" lon="2.98137">
        <ele>783.9</ele>
        <time>2024-07-23T10:17:50Z</time>
      </trkpt>
      <trkpt lat="45.90461" lon="2.98137">
        <ele>784.3</ele>
        <time>2024-07-23T10:17:51Z</time>
      </trkpt>
      <trkpt lat="45.9046" lon="2.98137">
        <ele>784.3</ele>
        <time>2024-07-23T10:17:52Z</time>
      </trkpt>
      <trkpt lat="45.90458" lon="2.98137">
        <ele>783.8</ele>
        <time>2024-07-23T10:17:53Z</time>
      </trkpt>
      <trkpt lat="45.90457" lon="2.98137">
        <ele>784</ele>
        <time>2024-07-23T10:17:54Z</time>
      </trkpt>
      <trkpt lat="45.90456" lon="2.98137">
        <ele>784.5</ele>
        <time>2024-07-23T10:17:55Z</time>
      </trkpt>
      <trkpt lat="45.90455" lon="2.98137">
        <ele>784.4</ele>
        <time>2024-07-23T10:17:56Z</time>
      </trkpt>
      <trkpt lat="45.90454" lon="2.98137">
        <ele>784.2</ele>
        <time>2024-07-23T10:17:57Z</time>
      </trkpt>
      <trkpt lat="45.90453" lon="2.98136">
        <ele>784.2</ele>
        <time>2024-07-23T10:17:58Z</time>
      </trkpt>
      <trkpt lat="45.90452" lon="2.98136">
        <ele>784.2</ele>
        <time>2024-07-23T10:17:59Z</time>
      </trkpt>
      <trkpt lat="45.90451" lon="2.98135">
        <ele>784.4</ele>
        <time>2024-07-23T10:18:00Z</time>
      </trkpt>
      <trkpt lat="45.9045" lon="2.98135">
        <ele>784.4</ele>
        <time>2024-07-23T10:18:01Z</time>
      </trkpt>
      <trkpt lat="45.90448" lon="2.98135">
        <ele>784.4</ele>
        <time>2024-07-23T10:18:02Z</time>
      </trkpt>
      <trkpt lat="45.90447" lon="2.98134">
        <ele>784.4</ele>
        <time>2024-07-23T10:18:03Z</time>
      </trkpt>
      <trkpt lat="45.90446" lon="2.98134">
        <ele>784.6</ele>
        <time>2024-07-23T10:18:04Z</time>
      </trkpt>
      <trkpt lat="45.90444" lon="2.98133">
        <ele>784.6</ele>
        <time>2024-07-23T10:18:06Z</time>
      </trkpt>
      <trkpt lat="45.90443" lon="2.98132">
        <ele>784.4</ele>
        <time>2024-07-23T10:18:07Z</time>
      </trkpt>
      <trkpt lat="45.90442" lon="2.98132">
        <ele>784.7</ele>
        <time>2024-07-23T10:18:08Z</time>
      </trkpt>
      <trkpt lat="45.90441" lon="2.98131">
        <ele>784.7</ele>
        <time>2024-07-23T10:18:09Z</time>
      </trkpt>
      <trkpt lat="45.9044" lon="2.9813">
        <ele>784.6</ele>
        <time>2024-07-23T10:18:10Z</time>
      </trkpt>
      <trkpt lat="45.90439" lon="2.9813">
        <ele>784.6</ele>
        <time>2024-07-23T10:18:11Z</time>
      </trkpt>
      <trkpt lat="45.90438" lon="2.98129">
        <ele>785.1</ele>
        <time>2024-07-23T10:18:12Z</time>
      </trkpt>
      <trkpt lat="45.90437" lon="2.98128">
        <ele>785.7</ele>
        <time>2024-07-23T10:18:13Z</time>
      </trkpt>
      <trkpt lat="45.90436" lon="2.98128">
        <ele>785.8</ele>
        <time>2024-07-23T10:18:14Z</time>
      </trkpt>
      <trkpt lat="45.90436" lon="2.98127">
        <ele>785.9</ele>
        <time>2024-07-23T10:18:15Z</time>
      </trkpt>
      <trkpt lat="45.90435" lon="2.98127">
        <ele>786</ele>
        <time>2024-07-23T10:18:16Z</time>
      </trkpt>
      <trkpt lat="45.90434" lon="2.98126">
        <ele>786</ele>
        <time>2024-07-23T10:18:17Z</time>
      </trkpt>
      <trkpt lat="45.90433" lon="2.98126">
        <ele>785.3</ele>
        <time>2024-07-23T10:18:18Z</time>
      </trkpt>
      <trkpt lat="45.90432" lon="2.98125">
        <ele>785.6</ele>
        <time>2024-07-23T10:18:19Z</time>
      </trkpt>
      <trkpt lat="45.9043" lon="2.98125">
        <ele>786.2</ele>
        <time>2024-07-23T10:18:21Z</time>
      </trkpt>
      <trkpt lat="45.90429" lon="2.98124">
        <ele>786.2</ele>
        <time>2024-07-23T10:18:22Z</time>
      </trkpt>
      <trkpt lat="45.90428" lon="2.98124">
        <ele>786.4</ele>
        <time>2024-07-23T10:18:23Z</time>
      </trkpt>
      <trkpt lat="45.90427" lon="2.98123">
        <ele>786.5</ele>
        <time>2024-07-23T10:18:24Z</time>
      </trkpt>
      <trkpt lat="45.90426" lon="2.98123">
        <ele>786.2</ele>
        <time>2024-07-23T10:18:25Z</time>
      </trkpt>
      <trkpt lat="45.90425" lon="2.98122">
        <ele>786.5</ele>
        <time>2024-07-23T10:18:26Z</time>
      </trkpt>
      <trkpt lat="45.90424" lon="2.98122">
        <ele>787</ele>
        <time>2024-07-23T10:18:27Z</time>
      </trkpt>
      <trkpt lat="45.90423" lon="2.98121">
        <ele>787</ele>
        <time>2024-07-23T10:18:28Z</time>
      </trkpt>
      <trkpt lat="45.90422" lon="2.98121">
        <ele>787.1</ele>
        <time>2024-07-23T10:18:29Z</time>
      </trkpt>
      <trkpt lat="45.90421" lon="2.9812">
        <ele>787.3</ele>
        <time>2024-07-23T10:18:31Z</time>
      </trkpt>
      <trkpt lat="45.9042" lon="2.98119">
        <ele>786.8</ele>
        <time>2024-07-23T10:18:32Z</time>
      </trkpt>
      <trkpt lat="45.90419" lon="2.98118">
        <ele>787.1</ele>
        <time>2024-07-23T10:18:33Z</time>
      </trkpt>
      <trkpt lat="45.90418" lon="2.98118">
        <ele>787.3</ele>
        <time>2024-07-23T10:18:34Z</time>
      </trkpt>
      <trkpt lat="45.90417" lon="2.98117">
        <ele>787.5</ele>
        <time>2024-07-23T10:18:35Z</time>
      </trkpt>
      <trkpt lat="45.90416" lon="2.98116">
        <ele>787.5</ele>
        <time>2024-07-23T10:18:36Z</time>
      </trkpt>
      <trkpt lat="45.90415" lon="2.98116">
        <ele>787.6</ele>
        <time>2024-07-23T10:18:37Z</time>
      </trkpt>
      <trkpt lat="45.90415" lon="2.98115">
        <ele>787.8</ele>
        <time>2024-07-23T10:18:38Z</time>
      </trkpt>
      <trkpt lat="45.90414" lon="2.98114">
        <ele>787.7</ele>
        <time>2024-07-23T10:18:39Z</time>
      </trkpt>
      <trkpt lat="45.90412" lon="2.98113">
        <ele>787.4</ele>
        <time>2024-07-23T10:18:41Z</time>
      </trkpt>
      <trkpt lat="45.9041" lon="2.98113">
        <ele>787.7</ele>
        <time>2024-07-23T10:18:43Z</time>
      </trkpt>
      <trkpt lat="45.90409" lon="2.98112">
        <ele>787.9</ele>
        <time>2024-07-23T10:18:45Z</time>
      </trkpt>
      <trkpt lat="45.90408" lon="2.98111">
        <ele>788</ele>
        <time>2024-07-23T10:18:47Z</time>
      </trkpt>
      <trkpt lat="45.90407" lon="2.98112">
        <ele>787.4</ele>
        <time>2024-07-23T10:18:56Z</time>
      </trkpt>
      <trkpt lat="45.90406" lon="2.98114">
        <ele>786.8</ele>
        <time>2024-07-23T10:19:02Z</time>
      </trkpt>
      <trkpt lat="45.90406" lon="2.98116">
        <ele>787.3</ele>
        <time>2024-07-23T10:19:04Z</time>
      </trkpt>
      <trkpt lat="45.90405" lon="2.98117">
        <ele>786.8</ele>
        <time>2024-07-23T10:19:14Z</time>
      </trkpt>
      <trkpt lat="45.90405" lon="2.98119">
        <ele>786.5</ele>
        <time>2024-07-23T10:19:15Z</time>
      </trkpt>
      <trkpt lat="45.90405" lon="2.98121">
        <ele>786.3</ele>
        <time>2024-07-23T10:19:17Z</time>
      </trkpt>
      <trkpt lat="45.90404" lon="2.98123">
        <ele>786</ele>
        <time>2024-07-23T10:19:19Z</time>
      </trkpt>
      <trkpt lat="45.90404" lon="2.98125">
        <ele>785.8</ele>
        <time>2024-07-23T10:19:21Z</time>
      </trkpt>
      <trkpt lat="45.90403" lon="2.98127">
        <ele>785.6</ele>
        <time>2024-07-23T10:19:23Z</time>
      </trkpt>
      <trkpt lat="45.90403" lon="2.98129">
        <ele>784.8</ele>
        <time>2024-07-23T10:19:25Z</time>
      </trkpt>
      <trkpt lat="45.90402" lon="2.98132">
        <ele>784.8</ele>
        <time>2024-07-23T10:19:27Z</time>
      </trkpt>
      <trkpt lat="45.90402" lon="2.98133">
        <ele>784.4</ele>
        <time>2024-07-23T10:19:28Z</time>
      </trkpt>
      <trkpt lat="45.90402" lon="2.98134">
        <ele>784.2</ele>
        <time>2024-07-23T10:19:29Z</time>
      </trkpt>
      <trkpt lat="45.90402" lon="2.98137">
        <ele>785.2</ele>
        <time>2024-07-23T10:19:31Z</time>
      </trkpt>
      <trkpt lat="45.90401" lon="2.98139">
        <ele>784.6</ele>
        <time>2024-07-23T10:19:33Z</time>
      </trkpt>
      <trkpt lat="45.90401" lon="2.98141">
        <ele>784.6</ele>
        <time>2024-07-23T10:19:34Z</time>
      </trkpt>
      <trkpt lat="45.90401" lon="2.98142">
        <ele>784.5</ele>
        <time>2024-07-23T10:19:35Z</time>
      </trkpt>
      <trkpt lat="45.904" lon="2.98144">
        <ele>784.9</ele>
        <time>2024-07-23T10:19:37Z</time>
      </trkpt>
      <trkpt lat="45.904" lon="2.98145">
        <ele>785.6</ele>
        <time>2024-07-23T10:19:39Z</time>
      </trkpt>
      <trkpt lat="45.904" lon="2.98147">
        <ele>784.9</ele>
        <time>2024-07-23T10:19:41Z</time>
      </trkpt>
      <trkpt lat="45.90399" lon="2.9815">
        <ele>784.5</ele>
        <time>2024-07-23T10:19:43Z</time>
      </trkpt>
      <trkpt lat="45.90399" lon="2.98151">
        <ele>784.3</ele>
        <time>2024-07-23T10:19:44Z</time>
      </trkpt>
      <trkpt lat="45.90398" lon="2.98153">
        <ele>783.9</ele>
        <time>2024-07-23T10:19:46Z</time>
      </trkpt>
      <trkpt lat="45.90398" lon="2.98155">
        <ele>783.7</ele>
        <time>2024-07-23T10:19:48Z</time>
      </trkpt>
      <trkpt lat="45.90397" lon="2.98156">
        <ele>783.4</ele>
        <time>2024-07-23T10:19:49Z</time>
      </trkpt>
      <trkpt lat="45.90397" lon="2.98157">
        <ele>783.6</ele>
        <time>2024-07-23T10:19:50Z</time>
      </trkpt>
      <trkpt lat="45.90397" lon="2.98159">
        <ele>783.8</ele>
        <time>2024-07-23T10:19:52Z</time>
      </trkpt>
      <trkpt lat="45.90396" lon="2.98162">
        <ele>784.1</ele>
        <time>2024-07-23T10:19:54Z</time>
      </trkpt>
      <trkpt lat="45.90396" lon="2.98164">
        <ele>784.7</ele>
        <time>2024-07-23T10:19:56Z</time>
      </trkpt>
      <trkpt lat="45.90396" lon="2.98166">
        <ele>784.8</ele>
        <time>2024-07-23T10:19:58Z</time>
      </trkpt>
      <trkpt lat="45.90396" lon="2.98169">
        <ele>784.4</ele>
        <time>2024-07-23T10:20:00Z</time>
      </trkpt>
      <trkpt lat="45.90395" lon="2.9817">
        <ele>784.4</ele>
        <time>2024-07-23T10:20:01Z</time>
      </trkpt>
      <trkpt lat="45.90395" lon="2.98171">
        <ele>784.6</ele>
        <time>2024-07-23T10:20:02Z</time>
      </trkpt>
      <trkpt lat="45.90395" lon="2.98174">
        <ele>785</ele>
        <time>2024-07-23T10:20:04Z</time>
      </trkpt>
      <trkpt lat="45.90395" lon="2.98175">
        <ele>784.7</ele>
        <time>2024-07-23T10:20:05Z</time>
      </trkpt>
      <trkpt lat="45.90395" lon="2.98177">
        <ele>784</ele>
        <time>2024-07-23T10:20:06Z</time>
      </trkpt>
      <trkpt lat="45.90395" lon="2.98178">
        <ele>783.4</ele>
        <time>2024-07-23T10:20:07Z</time>
      </trkpt>
      <trkpt lat="45.90394" lon="2.9818">
        <ele>783.2</ele>
        <time>2024-07-23T10:20:08Z</time>
      </trkpt>
      <trkpt lat="45.90394" lon="2.98181">
        <ele>783.6</ele>
        <time>2024-07-23T10:20:09Z</time>
      </trkpt>
      <trkpt lat="45.90394" lon="2.98183">
        <ele>783.7</ele>
        <time>2024-07-23T10:20:10Z</time>
      </trkpt>
      <trkpt lat="45.90394" lon="2.98184">
        <ele>783.6</ele>
        <time>2024-07-23T10:20:11Z</time>
      </trkpt>
      <trkpt lat="45.90394" lon="2.98185">
        <ele>784.1</ele>
        <time>2024-07-23T10:20:12Z</time>
      </trkpt>
      <trkpt lat="45.90394" lon="2.98187">
        <ele>783.2</ele>
        <time>2024-07-23T10:20:13Z</time>
      </trkpt>
      <trkpt lat="45.90393" lon="2.98188">
        <ele>782.7</ele>
        <time>2024-07-23T10:20:14Z</time>
      </trkpt>
      <trkpt lat="45.90393" lon="2.98191">
        <ele>783.5</ele>
        <time>2024-07-23T10:20:16Z</time>
      </trkpt>
      <trkpt lat="45.90392" lon="2.98193">
        <ele>783.3</ele>
        <time>2024-07-23T10:20:18Z</time>
      </trkpt>
      <trkpt lat="45.90391" lon="2.98193">
        <ele>783.1</ele>
        <time>2024-07-23T10:20:19Z</time>
      </trkpt>
      <trkpt lat="45.9039" lon="2.98194">
        <ele>782.2</ele>
        <time>2024-07-23T10:20:20Z</time>
      </trkpt>
      <trkpt lat="45.90389" lon="2.98195">
        <ele>781.5</ele>
        <time>2024-07-23T10:20:21Z</time>
      </trkpt>
      <trkpt lat="45.90389" lon="2.98197">
        <ele>781.4</ele>
        <time>2024-07-23T10:20:22Z</time>
      </trkpt>
      <trkpt lat="45.90389" lon="2.98198">
        <ele>781</ele>
        <time>2024-07-23T10:20:23Z</time>
      </trkpt>
      <trkpt lat="45.90389" lon="2.982">
        <ele>781.6</ele>
        <time>2024-07-23T10:20:24Z</time>
      </trkpt>
      <trkpt lat="45.90388" lon="2.98202">
        <ele>781.3</ele>
        <time>2024-07-23T10:20:26Z</time>
      </trkpt>
      <trkpt lat="45.90388" lon="2.98204">
        <ele>781.4</ele>
        <time>2024-07-23T10:20:27Z</time>
      </trkpt>
      <trkpt lat="45.90388" lon="2.98205">
        <ele>781.3</ele>
        <time>2024-07-23T10:20:28Z</time>
      </trkpt>
      <trkpt lat="45.90388" lon="2.98208">
        <ele>782.8</ele>
        <time>2024-07-23T10:20:30Z</time>
      </trkpt>
      <trkpt lat="45.90388" lon="2.98209">
        <ele>782.7</ele>
        <time>2024-07-23T10:20:31Z</time>
      </trkpt>
      <trkpt lat="45.90388" lon="2.98211">
        <ele>782.4</ele>
        <time>2024-07-23T10:20:32Z</time>
      </trkpt>
      <trkpt lat="45.90388" lon="2.98213">
        <ele>782.3</ele>
        <time>2024-07-23T10:20:33Z</time>
      </trkpt>
      <trkpt lat="45.90388" lon="2.98214">
        <ele>782.3</ele>
        <time>2024-07-23T10:20:34Z</time>
      </trkpt>
      <trkpt lat="45.90387" lon="2.98216">
        <ele>782.2</ele>
        <time>2024-07-23T10:20:36Z</time>
      </trkpt>
      <trkpt lat="45.90387" lon="2.98219">
        <ele>780.9</ele>
        <time>2024-07-23T10:20:38Z</time>
      </trkpt>
      <trkpt lat="45.90387" lon="2.9822">
        <ele>781.2</ele>
        <time>2024-07-23T10:20:39Z</time>
      </trkpt>
      <trkpt lat="45.90387" lon="2.98222">
        <ele>781.3</ele>
        <time>2024-07-23T10:20:40Z</time>
      </trkpt>
      <trkpt lat="45.90387" lon="2.98224">
        <ele>781.3</ele>
        <time>2024-07-23T10:20:41Z</time>
      </trkpt>
      <trkpt lat="45.90387" lon="2.98225">
        <ele>781</ele>
        <time>2024-07-23T10:20:42Z</time>
      </trkpt>
      <trkpt lat="45.90388" lon="2.98227">
        <ele>780.6</ele>
        <time>2024-07-23T10:20:43Z</time>
      </trkpt>
      <trkpt lat="45.90388" lon="2.98228">
        <ele>781.1</ele>
        <time>2024-07-23T10:20:44Z</time>
      </trkpt>
      <trkpt lat="45.90388" lon="2.9823">
        <ele>780.9</ele>
        <time>2024-07-23T10:20:46Z</time>
      </trkpt>
      <trkpt lat="45.90388" lon="2.98232">
        <ele>780.4</ele>
        <time>2024-07-23T10:20:48Z</time>
      </trkpt>
      <trkpt lat="45.90388" lon="2.98234">
        <ele>780.9</ele>
        <time>2024-07-23T10:20:49Z</time>
      </trkpt>
      <trkpt lat="45.90388" lon="2.98235">
        <ele>780.3</ele>
        <time>2024-07-23T10:20:50Z</time>
      </trkpt>
      <trkpt lat="45.90388" lon="2.98237">
        <ele>781.3</ele>
        <time>2024-07-23T10:20:51Z</time>
      </trkpt>
      <trkpt lat="45.90388" lon="2.98238">
        <ele>780.7</ele>
        <time>2024-07-23T10:20:52Z</time>
      </trkpt>
      <trkpt lat="45.90388" lon="2.9824">
        <ele>780.4</ele>
        <time>2024-07-23T10:20:53Z</time>
      </trkpt>
      <trkpt lat="45.90387" lon="2.98242">
        <ele>780.4</ele>
        <time>2024-07-23T10:20:55Z</time>
      </trkpt>
      <trkpt lat="45.90387" lon="2.98245">
        <ele>780.2</ele>
        <time>2024-07-23T10:20:57Z</time>
      </trkpt>
      <trkpt lat="45.90387" lon="2.98246">
        <ele>780.2</ele>
        <time>2024-07-23T10:20:58Z</time>
      </trkpt>
      <trkpt lat="45.90386" lon="2.98247">
        <ele>779.5</ele>
        <time>2024-07-23T10:20:59Z</time>
      </trkpt>
      <trkpt lat="45.90386" lon="2.98249">
        <ele>779.4</ele>
        <time>2024-07-23T10:21:00Z</time>
      </trkpt>
      <trkpt lat="45.90386" lon="2.98251">
        <ele>778.2</ele>
        <time>2024-07-23T10:21:02Z</time>
      </trkpt>
      <trkpt lat="45.90386" lon="2.98253">
        <ele>777.9</ele>
        <time>2024-07-23T10:21:04Z</time>
      </trkpt>
      <trkpt lat="45.90384" lon="2.98258">
        <ele>776.9</ele>
        <time>2024-07-23T10:21:08Z</time>
      </trkpt>
      <trkpt lat="45.90384" lon="2.9826">
        <ele>775.1</ele>
        <time>2024-07-23T10:21:09Z</time>
      </trkpt>
      <trkpt lat="45.90384" lon="2.98261">
        <ele>774.7</ele>
        <time>2024-07-23T10:21:10Z</time>
      </trkpt>
      <trkpt lat="45.90384" lon="2.98263">
        <ele>776.6</ele>
        <time>2024-07-23T10:21:12Z</time>
      </trkpt>
      <trkpt lat="45.90384" lon="2.98265">
        <ele>776.5</ele>
        <time>2024-07-23T10:21:13Z</time>
      </trkpt>
      <trkpt lat="45.90383" lon="2.98267">
        <ele>776.1</ele>
        <time>2024-07-23T10:21:14Z</time>
      </trkpt>
      <trkpt lat="45.90383" lon="2.98268">
        <ele>775</ele>
        <time>2024-07-23T10:21:15Z</time>
      </trkpt>
      <trkpt lat="45.90382" lon="2.9827">
        <ele>776.2</ele>
        <time>2024-07-23T10:21:17Z</time>
      </trkpt>
      <trkpt lat="45.90382" lon="2.98271">
        <ele>776.1</ele>
        <time>2024-07-23T10:21:18Z</time>
      </trkpt>
      <trkpt lat="45.90381" lon="2.98273">
        <ele>775.8</ele>
        <time>2024-07-23T10:21:20Z</time>
      </trkpt>
      <trkpt lat="45.90381" lon="2.98274">
        <ele>774.9</ele>
        <time>2024-07-23T10:21:24Z</time>
      </trkpt>
      <trkpt lat="45.90381" lon="2.98276">
        <ele>773.9</ele>
        <time>2024-07-23T10:21:26Z</time>
      </trkpt>
      <trkpt lat="45.90381" lon="2.98277">
        <ele>774.2</ele>
        <time>2024-07-23T10:21:28Z</time>
      </trkpt>
      <trkpt lat="45.9038" lon="2.98278">
        <ele>773.6</ele>
        <time>2024-07-23T10:21:30Z</time>
      </trkpt>
      <trkpt lat="45.90379" lon="2.9828">
        <ele>770.9</ele>
        <time>2024-07-23T10:21:32Z</time>
      </trkpt>
      <trkpt lat="45.90379" lon="2.98282">
        <ele>770.7</ele>
        <time>2024-07-23T10:21:33Z</time>
      </trkpt>
      <trkpt lat="45.90379" lon="2.98284">
        <ele>770.3</ele>
        <time>2024-07-23T10:21:34Z</time>
      </trkpt>
      <trkpt lat="45.90379" lon="2.98286">
        <ele>770.6</ele>
        <time>2024-07-23T10:21:36Z</time>
      </trkpt>
      <trkpt lat="45.90379" lon="2.98288">
        <ele>770.5</ele>
        <time>2024-07-23T10:21:38Z</time>
      </trkpt>
      <trkpt lat="45.9038" lon="2.98291">
        <ele>769.2</ele>
        <time>2024-07-23T10:21:40Z</time>
      </trkpt>
      <trkpt lat="45.9038" lon="2.98292">
        <ele>769.6</ele>
        <time>2024-07-23T10:21:41Z</time>
      </trkpt>
      <trkpt lat="45.9038" lon="2.98294">
        <ele>769.5</ele>
        <time>2024-07-23T10:21:43Z</time>
      </trkpt>
      <trkpt lat="45.9038" lon="2.98296">
        <ele>768.6</ele>
        <time>2024-07-23T10:21:45Z</time>
      </trkpt>
      <trkpt lat="45.90379" lon="2.98298">
        <ele>767.6</ele>
        <time>2024-07-23T10:21:47Z</time>
      </trkpt>
      <trkpt lat="45.90378" lon="2.98299">
        <ele>767.3</ele>
        <time>2024-07-23T10:21:49Z</time>
      </trkpt>
      <trkpt lat="45.90378" lon="2.983">
        <ele>767.3</ele>
        <time>2024-07-23T10:21:50Z</time>
      </trkpt>
      <trkpt lat="45.90376" lon="2.98302">
        <ele>766.9</ele>
        <time>2024-07-23T10:21:52Z</time>
      </trkpt>
      <trkpt lat="45.90376" lon="2.98304">
        <ele>767.2</ele>
        <time>2024-07-23T10:21:53Z</time>
      </trkpt>
      <trkpt lat="45.90376" lon="2.98306">
        <ele>766.8</ele>
        <time>2024-07-23T10:21:55Z</time>
      </trkpt>
      <trkpt lat="45.90376" lon="2.98308">
        <ele>767.3</ele>
        <time>2024-07-23T10:21:56Z</time>
      </trkpt>
      <trkpt lat="45.90376" lon="2.98309">
        <ele>767</ele>
        <time>2024-07-23T10:21:58Z</time>
      </trkpt>
      <trkpt lat="45.90376" lon="2.98311">
        <ele>765.4</ele>
        <time>2024-07-23T10:22:00Z</time>
      </trkpt>
      <trkpt lat="45.90375" lon="2.98312">
        <ele>766</ele>
        <time>2024-07-23T10:22:02Z</time>
      </trkpt>
      <trkpt lat="45.90374" lon="2.98313">
        <ele>766.3</ele>
        <time>2024-07-23T10:22:05Z</time>
      </trkpt>
      <trkpt lat="45.90375" lon="2.98315">
        <ele>765</ele>
        <time>2024-07-23T10:22:08Z</time>
      </trkpt>
      <trkpt lat="45.90375" lon="2.98317">
        <ele>764.5</ele>
        <time>2024-07-23T10:22:10Z</time>
      </trkpt>
      <trkpt lat="45.90375" lon="2.9832">
        <ele>763.2</ele>
        <time>2024-07-23T10:22:13Z</time>
      </trkpt>
      <trkpt lat="45.90374" lon="2.98322">
        <ele>762.1</ele>
        <time>2024-07-23T10:22:17Z</time>
      </trkpt>
      <trkpt lat="45.90374" lon="2.98323">
        <ele>761.7</ele>
        <time>2024-07-23T10:22:20Z</time>
      </trkpt>
      <trkpt lat="45.90373" lon="2.98324">
        <ele>761.4</ele>
        <time>2024-07-23T10:22:22Z</time>
      </trkpt>
      <trkpt lat="45.90373" lon="2.98326">
        <ele>761.4</ele>
        <time>2024-07-23T10:22:25Z</time>
      </trkpt>
      <trkpt lat="45.90372" lon="2.98327">
        <ele>761.7</ele>
        <time>2024-07-23T10:22:27Z</time>
      </trkpt>
      <trkpt lat="45.90372" lon="2.98329">
        <ele>761.6</ele>
        <time>2024-07-23T10:22:29Z</time>
      </trkpt>
      <trkpt lat="45.90371" lon="2.9833">
        <ele>761.6</ele>
        <time>2024-07-23T10:22:31Z</time>
      </trkpt>
      <trkpt lat="45.90371" lon="2.98332">
        <ele>761.5</ele>
        <time>2024-07-23T10:22:33Z</time>
      </trkpt>
      <trkpt lat="45.90371" lon="2.98334">
        <ele>761.6</ele>
        <time>2024-07-23T10:22:35Z</time>
      </trkpt>
      <trkpt lat="45.90371" lon="2.98336">
        <ele>761.6</ele>
        <time>2024-07-23T10:22:37Z</time>
      </trkpt>
      <trkpt lat="45.90371" lon="2.98337">
        <ele>761.3</ele>
        <time>2024-07-23T10:22:39Z</time>
      </trkpt>
      <trkpt lat="45.90371" lon="2.98339">
        <ele>760.2</ele>
        <time>2024-07-23T10:22:41Z</time>
      </trkpt>
      <trkpt lat="45.90371" lon="2.98341">
        <ele>760.3</ele>
        <time>2024-07-23T10:22:43Z</time>
      </trkpt>
      <trkpt lat="45.90371" lon="2.98344">
        <ele>760.2</ele>
        <time>2024-07-23T10:22:45Z</time>
      </trkpt>
      <trkpt lat="45.9037" lon="2.98346">
        <ele>760</ele>
        <time>2024-07-23T10:22:47Z</time>
      </trkpt>
      <trkpt lat="45.9037" lon="2.98348">
        <ele>759.8</ele>
        <time>2024-07-23T10:22:49Z</time>
      </trkpt>
      <trkpt lat="45.9037" lon="2.98349">
        <ele>758.9</ele>
        <time>2024-07-23T10:22:51Z</time>
      </trkpt>
      <trkpt lat="45.9037" lon="2.9835">
        <ele>759.2</ele>
        <time>2024-07-23T10:22:53Z</time>
      </trkpt>
      <trkpt lat="45.9037" lon="2.98352">
        <ele>759.2</ele>
        <time>2024-07-23T10:22:55Z</time>
      </trkpt>
      <trkpt lat="45.90371" lon="2.98354">
        <ele>759.2</ele>
        <time>2024-07-23T10:22:57Z</time>
      </trkpt>
      <trkpt lat="45.90371" lon="2.98356">
        <ele>760.4</ele>
        <time>2024-07-23T10:22:59Z</time>
      </trkpt>
      <trkpt lat="45.90372" lon="2.98358">
        <ele>762.1</ele>
        <time>2024-07-23T10:23:01Z</time>
      </trkpt>
      <trkpt lat="45.90372" lon="2.9836">
        <ele>761.8</ele>
        <time>2024-07-23T10:23:02Z</time>
      </trkpt>
      <trkpt lat="45.90372" lon="2.98362">
        <ele>761.9</ele>
        <time>2024-07-23T10:23:04Z</time>
      </trkpt>
      <trkpt lat="45.90372" lon="2.98363">
        <ele>761.5</ele>
        <time>2024-07-23T10:23:05Z</time>
      </trkpt>
      <trkpt lat="45.90372" lon="2.98365">
        <ele>761.1</ele>
        <time>2024-07-23T10:23:07Z</time>
      </trkpt>
      <trkpt lat="45.90372" lon="2.98366">
        <ele>761.3</ele>
        <time>2024-07-23T10:23:09Z</time>
      </trkpt>
      <trkpt lat="45.90373" lon="2.98368">
        <ele>759.8</ele>
        <time>2024-07-23T10:23:11Z</time>
      </trkpt>
      <trkpt lat="45.90373" lon="2.9837">
        <ele>759.9</ele>
        <time>2024-07-23T10:23:13Z</time>
      </trkpt>
      <trkpt lat="45.90373" lon="2.98371">
        <ele>759.6</ele>
        <time>2024-07-23T10:23:14Z</time>
      </trkpt>
      <trkpt lat="45.90372" lon="2.98374">
        <ele>759.8</ele>
        <time>2024-07-23T10:23:16Z</time>
      </trkpt>
      <trkpt lat="45.90372" lon="2.98375">
        <ele>759.2</ele>
        <time>2024-07-23T10:23:17Z</time>
      </trkpt>
      <trkpt lat="45.90371" lon="2.98377">
        <ele>758.5</ele>
        <time>2024-07-23T10:23:18Z</time>
      </trkpt>
      <trkpt lat="45.90371" lon="2.98378">
        <ele>759.7</ele>
        <time>2024-07-23T10:23:19Z</time>
      </trkpt>
      <trkpt lat="45.9037" lon="2.9838">
        <ele>760.4</ele>
        <time>2024-07-23T10:23:21Z</time>
      </trkpt>
      <trkpt lat="45.9037" lon="2.98382">
        <ele>758.8</ele>
        <time>2024-07-23T10:23:22Z</time>
      </trkpt>
      <trkpt lat="45.9037" lon="2.98384">
        <ele>758.3</ele>
        <time>2024-07-23T10:23:24Z</time>
      </trkpt>
      <trkpt lat="45.90369" lon="2.98385">
        <ele>757.9</ele>
        <time>2024-07-23T10:23:26Z</time>
      </trkpt>
      <trkpt lat="45.90368" lon="2.98386">
        <ele>757.2</ele>
        <time>2024-07-23T10:23:28Z</time>
      </trkpt>
      <trkpt lat="45.90368" lon="2.98387">
        <ele>755.3</ele>
        <time>2024-07-23T10:23:36Z</time>
      </trkpt>
      <trkpt lat="45.90368" lon="2.98389">
        <ele>757.6</ele>
        <time>2024-07-23T10:23:54Z</time>
      </trkpt>
      <trkpt lat="45.90368" lon="2.9839">
        <ele>756.2</ele>
        <time>2024-07-23T10:23:56Z</time>
      </trkpt>
      <trkpt lat="45.90367" lon="2.98391">
        <ele>755.9</ele>
        <time>2024-07-23T10:23:59Z</time>
      </trkpt>
      <trkpt lat="45.90367" lon="2.9839">
        <ele>755.2</ele>
        <time>2024-07-23T10:24:59Z</time>
      </trkpt>
      <trkpt lat="45.90367" lon="2.98389">
        <ele>755.6</ele>
        <time>2024-07-23T10:25:02Z</time>
      </trkpt>
      <trkpt lat="45.90368" lon="2.98387">
        <ele>756.8</ele>
        <time>2024-07-23T10:25:05Z</time>
      </trkpt>
      <trkpt lat="45.90367" lon="2.98386">
        <ele>756.5</ele>
        <time>2024-07-23T10:25:09Z</time>
      </trkpt>
      <trkpt lat="45.90367" lon="2.98384">
        <ele>756.6</ele>
        <time>2024-07-23T10:25:11Z</time>
      </trkpt>
      <trkpt lat="45.90367" lon="2.98383">
        <ele>756.9</ele>
        <time>2024-07-23T10:25:13Z</time>
      </trkpt>
      <trkpt lat="45.90367" lon="2.98381">
        <ele>756.7</ele>
        <time>2024-07-23T10:25:15Z</time>
      </trkpt>
      <trkpt lat="45.90366" lon="2.9838">
        <ele>756.9</ele>
        <time>2024-07-23T10:25:17Z</time>
      </trkpt>
      <trkpt lat="45.90366" lon="2.98378">
        <ele>756.9</ele>
        <time>2024-07-23T10:25:19Z</time>
      </trkpt>
      <trkpt lat="45.90366" lon="2.98377">
        <ele>757.4</ele>
        <time>2024-07-23T10:25:21Z</time>
      </trkpt>
      <trkpt lat="45.90366" lon="2.98375">
        <ele>758</ele>
        <time>2024-07-23T10:25:24Z</time>
      </trkpt>
      <trkpt lat="45.90365" lon="2.98374">
        <ele>758.4</ele>
        <time>2024-07-23T10:25:26Z</time>
      </trkpt>
      <trkpt lat="45.90365" lon="2.98373">
        <ele>759.3</ele>
        <time>2024-07-23T10:25:28Z</time>
      </trkpt>
      <trkpt lat="45.90364" lon="2.98371">
        <ele>759.1</ele>
        <time>2024-07-23T10:25:30Z</time>
      </trkpt>
      <trkpt lat="45.90364" lon="2.98369">
        <ele>759.8</ele>
        <time>2024-07-23T10:25:32Z</time>
      </trkpt>
      <trkpt lat="45.90363" lon="2.98368">
        <ele>760.1</ele>
        <time>2024-07-23T10:25:34Z</time>
      </trkpt>
      <trkpt lat="45.90363" lon="2.98366">
        <ele>759.8</ele>
        <time>2024-07-23T10:25:36Z</time>
      </trkpt>
      <trkpt lat="45.90362" lon="2.98364">
        <ele>759.4</ele>
        <time>2024-07-23T10:25:38Z</time>
      </trkpt>
      <trkpt lat="45.90361" lon="2.98362">
        <ele>759.4</ele>
        <time>2024-07-23T10:25:40Z</time>
      </trkpt>
      <trkpt lat="45.90361" lon="2.9836">
        <ele>759.5</ele>
        <time>2024-07-23T10:25:42Z</time>
      </trkpt>
      <trkpt lat="45.9036" lon="2.98358">
        <ele>759.4</ele>
        <time>2024-07-23T10:25:44Z</time>
      </trkpt>
      <trkpt lat="45.90359" lon="2.98356">
        <ele>759.2</ele>
        <time>2024-07-23T10:25:46Z</time>
      </trkpt>
      <trkpt lat="45.90358" lon="2.98355">
        <ele>758.7</ele>
        <time>2024-07-23T10:25:48Z</time>
      </trkpt>
      <trkpt lat="45.90357" lon="2.98354">
        <ele>758.2</ele>
        <time>2024-07-23T10:25:50Z</time>
      </trkpt>
      <trkpt lat="45.90356" lon="2.98352">
        <ele>758.5</ele>
        <time>2024-07-23T10:25:52Z</time>
      </trkpt>
      <trkpt lat="45.90355" lon="2.9835">
        <ele>758.9</ele>
        <time>2024-07-23T10:25:54Z</time>
      </trkpt>
      <trkpt lat="45.90355" lon="2.98349">
        <ele>759.5</ele>
        <time>2024-07-23T10:25:56Z</time>
      </trkpt>
      <trkpt lat="45.90354" lon="2.98348">
        <ele>759.5</ele>
        <time>2024-07-23T10:25:58Z</time>
      </trkpt>
      <trkpt lat="45.90353" lon="2.98347">
        <ele>759.8</ele>
        <time>2024-07-23T10:26:00Z</time>
      </trkpt>
      <trkpt lat="45.90352" lon="2.98346">
        <ele>759.9</ele>
        <time>2024-07-23T10:26:02Z</time>
      </trkpt>
      <trkpt lat="45.90351" lon="2.98344">
        <ele>759.8</ele>
        <time>2024-07-23T10:26:04Z</time>
      </trkpt>
      <trkpt lat="45.9035" lon="2.98344">
        <ele>760.1</ele>
        <time>2024-07-23T10:26:06Z</time>
      </trkpt>
      <trkpt lat="45.90349" lon="2.98343">
        <ele>760</ele>
        <time>2024-07-23T10:26:08Z</time>
      </trkpt>
      <trkpt lat="45.90348" lon="2.98342">
        <ele>760.5</ele>
        <time>2024-07-23T10:26:10Z</time>
      </trkpt>
      <trkpt lat="45.90347" lon="2.98341">
        <ele>760.5</ele>
        <time>2024-07-23T10:26:12Z</time>
      </trkpt>
      <trkpt lat="45.90346" lon="2.9834">
        <ele>760.8</ele>
        <time>2024-07-23T10:26:14Z</time>
      </trkpt>
      <trkpt lat="45.90344" lon="2.98339">
        <ele>761</ele>
        <time>2024-07-23T10:26:16Z</time>
      </trkpt>
      <trkpt lat="45.90344" lon="2.98338">
        <ele>761</ele>
        <time>2024-07-23T10:26:18Z</time>
      </trkpt>
      <trkpt lat="45.90343" lon="2.98337">
        <ele>761.2</ele>
        <time>2024-07-23T10:26:20Z</time>
      </trkpt>
      <trkpt lat="45.90342" lon="2.98336">
        <ele>761.3</ele>
        <time>2024-07-23T10:26:22Z</time>
      </trkpt>
      <trkpt lat="45.90342" lon="2.98335">
        <ele>761.5</ele>
        <time>2024-07-23T10:26:24Z</time>
      </trkpt>
      <trkpt lat="45.90341" lon="2.98333">
        <ele>762.2</ele>
        <time>2024-07-23T10:26:27Z</time>
      </trkpt>
      <trkpt lat="45.9034" lon="2.98332">
        <ele>761.2</ele>
        <time>2024-07-23T10:27:08Z</time>
      </trkpt>
      <trkpt lat="45.9034" lon="2.98331">
        <ele>761.3</ele>
        <time>2024-07-23T10:27:10Z</time>
      </trkpt>
      <trkpt lat="45.9034" lon="2.98329">
        <ele>761.2</ele>
        <time>2024-07-23T10:27:14Z</time>
      </trkpt>
      <trkpt lat="45.90339" lon="2.98329">
        <ele>761.1</ele>
        <time>2024-07-23T10:28:04Z</time>
      </trkpt>
      <trkpt lat="45.90339" lon="2.98329">
        <ele>760.4</ele>
        <time>2024-07-23T10:30:05Z</time>
      </trkpt>
      <trkpt lat="45.90338" lon="2.98328">
        <ele>760.6</ele>
        <time>2024-07-23T10:30:18Z</time>
      </trkpt>
      <trkpt lat="45.90337" lon="2.98327">
        <ele>760.6</ele>
        <time>2024-07-23T10:30:20Z</time>
      </trkpt>
      <trkpt lat="45.90336" lon="2.98326">
        <ele>761.4</ele>
        <time>2024-07-23T10:30:22Z</time>
      </trkpt>
      <trkpt lat="45.90334" lon="2.98325">
        <ele>759.5</ele>
        <time>2024-07-23T10:30:24Z</time>
      </trkpt>
      <trkpt lat="45.90334" lon="2.98324">
        <ele>759.7</ele>
        <time>2024-07-23T10:30:26Z</time>
      </trkpt>
      <trkpt lat="45.90332" lon="2.98324">
        <ele>760.4</ele>
        <time>2024-07-23T10:30:32Z</time>
      </trkpt>
      <trkpt lat="45.90331" lon="2.98324">
        <ele>761.3</ele>
        <time>2024-07-23T10:30:34Z</time>
      </trkpt>
      <trkpt lat="45.9033" lon="2.98323">
        <ele>761.5</ele>
        <time>2024-07-23T10:30:36Z</time>
      </trkpt>
      <trkpt lat="45.90331" lon="2.98323">
        <ele>760.7</ele>
        <time>2024-07-23T10:30:39Z</time>
      </trkpt>
      <trkpt lat="45.90331" lon="2.98321">
        <ele>759.8</ele>
        <time>2024-07-23T10:30:41Z</time>
      </trkpt>
      <trkpt lat="45.90332" lon="2.98321">
        <ele>759.7</ele>
        <time>2024-07-23T10:30:42Z</time>
      </trkpt>
      <trkpt lat="45.90332" lon="2.9832">
        <ele>758.9</ele>
        <time>2024-07-23T10:30:52Z</time>
      </trkpt>
      <trkpt lat="45.90331" lon="2.98318">
        <ele>757.1</ele>
        <time>2024-07-23T10:30:55Z</time>
      </trkpt>
      <trkpt lat="45.90331" lon="2.98317">
        <ele>757.5</ele>
        <time>2024-07-23T10:30:59Z</time>
      </trkpt>
      <trkpt lat="45.90331" lon="2.98318">
        <ele>756.9</ele>
        <time>2024-07-23T10:31:04Z</time>
      </trkpt>
      <trkpt lat="45.90332" lon="2.98319">
        <ele>756.1</ele>
        <time>2024-07-23T10:31:06Z</time>
      </trkpt>
      <trkpt lat="45.90331" lon="2.9832">
        <ele>756</ele>
        <time>2024-07-23T10:33:07Z</time>
      </trkpt>
      <trkpt lat="45.90332" lon="2.9832">
        <ele>756.2</ele>
        <time>2024-07-23T10:33:56Z</time>
      </trkpt>
      <trkpt lat="45.90333" lon="2.98321">
        <ele>755.9</ele>
        <time>2024-07-23T10:33:58Z</time>
      </trkpt>
      <trkpt lat="45.90335" lon="2.98321">
        <ele>758.1</ele>
        <time>2024-07-23T10:34:01Z</time>
      </trkpt>
      <trkpt lat="45.90336" lon="2.9832">
        <ele>758.5</ele>
        <time>2024-07-23T10:34:05Z</time>
      </trkpt>
      <trkpt lat="45.90334" lon="2.98319">
        <ele>757.3</ele>
        <time>2024-07-23T10:34:08Z</time>
      </trkpt>
      <trkpt lat="45.90332" lon="2.9832">
        <ele>757.5</ele>
        <time>2024-07-23T10:34:10Z</time>
      </trkpt>
      <trkpt lat="45.90331" lon="2.9832">
        <ele>756.5</ele>
        <time>2024-07-23T10:34:18Z</time>
      </trkpt>
      <trkpt lat="45.90333" lon="2.98321">
        <ele>757.5</ele>
        <time>2024-07-23T10:34:24Z</time>
      </trkpt>
      <trkpt lat="45.90334" lon="2.98322">
        <ele>755.2</ele>
        <time>2024-07-23T10:35:08Z</time>
      </trkpt>
      <trkpt lat="45.90335" lon="2.98322">
        <ele>757.4</ele>
        <time>2024-07-23T10:35:15Z</time>
      </trkpt>
      <trkpt lat="45.90336" lon="2.98323">
        <ele>757.9</ele>
        <time>2024-07-23T10:35:18Z</time>
      </trkpt>
      <trkpt lat="45.90337" lon="2.98325">
        <ele>758.1</ele>
        <time>2024-07-23T10:35:22Z</time>
      </trkpt>
      <trkpt lat="45.90337" lon="2.98327">
        <ele>759.4</ele>
        <time>2024-07-23T10:35:25Z</time>
      </trkpt>
      <trkpt lat="45.90338" lon="2.98329">
        <ele>759.7</ele>
        <time>2024-07-23T10:35:28Z</time>
      </trkpt>
      <trkpt lat="45.9034" lon="2.98331">
        <ele>758.8</ele>
        <time>2024-07-23T10:35:31Z</time>
      </trkpt>
      <trkpt lat="45.90342" lon="2.98333">
        <ele>759.7</ele>
        <time>2024-07-23T10:35:33Z</time>
      </trkpt>
      <trkpt lat="45.90343" lon="2.98334">
        <ele>760.4</ele>
        <time>2024-07-23T10:35:36Z</time>
      </trkpt>
      <trkpt lat="45.90343" lon="2.98335">
        <ele>760.6</ele>
        <time>2024-07-23T10:35:38Z</time>
      </trkpt>
      <trkpt lat="45.90344" lon="2.98336">
        <ele>760.8</ele>
        <time>2024-07-23T10:35:40Z</time>
      </trkpt>
      <trkpt lat="45.90346" lon="2.98337">
        <ele>759.9</ele>
        <time>2024-07-23T10:35:42Z</time>
      </trkpt>
      <trkpt lat="45.90347" lon="2.98338">
        <ele>759.8</ele>
        <time>2024-07-23T10:35:44Z</time>
      </trkpt>
      <trkpt lat="45.90348" lon="2.9834">
        <ele>759.7</ele>
        <time>2024-07-23T10:35:46Z</time>
      </trkpt>
      <trkpt lat="45.90348" lon="2.98342">
        <ele>759.1</ele>
        <time>2024-07-23T10:35:48Z</time>
      </trkpt>
      <trkpt lat="45.90349" lon="2.98343">
        <ele>758.6</ele>
        <time>2024-07-23T10:35:50Z</time>
      </trkpt>
      <trkpt lat="45.90351" lon="2.98345">
        <ele>758.9</ele>
        <time>2024-07-23T10:35:52Z</time>
      </trkpt>
      <trkpt lat="45.90352" lon="2.98346">
        <ele>758.9</ele>
        <time>2024-07-23T10:35:54Z</time>
      </trkpt>
      <trkpt lat="45.90353" lon="2.98347">
        <ele>759</ele>
        <time>2024-07-23T10:35:56Z</time>
      </trkpt>
      <trkpt lat="45.90353" lon="2.98348">
        <ele>759.6</ele>
        <time>2024-07-23T10:35:58Z</time>
      </trkpt>
      <trkpt lat="45.90354" lon="2.9835">
        <ele>759.6</ele>
        <time>2024-07-23T10:36:00Z</time>
      </trkpt>
      <trkpt lat="45.90355" lon="2.98351">
        <ele>760</ele>
        <time>2024-07-23T10:36:02Z</time>
      </trkpt>
      <trkpt lat="45.90356" lon="2.98353">
        <ele>759.2</ele>
        <time>2024-07-23T10:36:04Z</time>
      </trkpt>
      <trkpt lat="45.90357" lon="2.98354">
        <ele>759.7</ele>
        <time>2024-07-23T10:36:06Z</time>
      </trkpt>
      <trkpt lat="45.90358" lon="2.98356">
        <ele>759.2</ele>
        <time>2024-07-23T10:36:08Z</time>
      </trkpt>
      <trkpt lat="45.90358" lon="2.98358">
        <ele>759.3</ele>
        <time>2024-07-23T10:36:10Z</time>
      </trkpt>
      <trkpt lat="45.90359" lon="2.98359">
        <ele>760.3</ele>
        <time>2024-07-23T10:36:12Z</time>
      </trkpt>
      <trkpt lat="45.90359" lon="2.98362">
        <ele>759.6</ele>
        <time>2024-07-23T10:36:14Z</time>
      </trkpt>
      <trkpt lat="45.9036" lon="2.98364">
        <ele>758.5</ele>
        <time>2024-07-23T10:36:16Z</time>
      </trkpt>
      <trkpt lat="45.9036" lon="2.98366">
        <ele>757.7</ele>
        <time>2024-07-23T10:36:18Z</time>
      </trkpt>
      <trkpt lat="45.9036" lon="2.98368">
        <ele>758.1</ele>
        <time>2024-07-23T10:36:20Z</time>
      </trkpt>
      <trkpt lat="45.90361" lon="2.98369">
        <ele>758.6</ele>
        <time>2024-07-23T10:36:21Z</time>
      </trkpt>
      <trkpt lat="45.90362" lon="2.98371">
        <ele>758.3</ele>
        <time>2024-07-23T10:36:23Z</time>
      </trkpt>
      <trkpt lat="45.90362" lon="2.98373">
        <ele>757.2</ele>
        <time>2024-07-23T10:36:25Z</time>
      </trkpt>
      <trkpt lat="45.90363" lon="2.98375">
        <ele>756.4</ele>
        <time>2024-07-23T10:36:27Z</time>
      </trkpt>
      <trkpt lat="45.90363" lon="2.98377">
        <ele>756</ele>
        <time>2024-07-23T10:36:29Z</time>
      </trkpt>
      <trkpt lat="45.90363" lon="2.98379">
        <ele>756.3</ele>
        <time>2024-07-23T10:36:31Z</time>
      </trkpt>
      <trkpt lat="45.90364" lon="2.98381">
        <ele>755.2</ele>
        <time>2024-07-23T10:36:33Z</time>
      </trkpt>
      <trkpt lat="45.90364" lon="2.98382">
        <ele>755.6</ele>
        <time>2024-07-23T10:36:35Z</time>
      </trkpt>
      <trkpt lat="45.90364" lon="2.98384">
        <ele>755.9</ele>
        <time>2024-07-23T10:36:37Z</time>
      </trkpt>
      <trkpt lat="45.90365" lon="2.98386">
        <ele>755.6</ele>
        <time>2024-07-23T10:36:39Z</time>
      </trkpt>
      <trkpt lat="45.90365" lon="2.98388">
        <ele>756.2</ele>
        <time>2024-07-23T10:36:41Z</time>
      </trkpt>
      <trkpt lat="45.90364" lon="2.9839">
        <ele>755.6</ele>
        <time>2024-07-23T10:36:43Z</time>
      </trkpt>
      <trkpt lat="45.90364" lon="2.98393">
        <ele>756.5</ele>
        <time>2024-07-23T10:36:45Z</time>
      </trkpt>
      <trkpt lat="45.90363" lon="2.98395">
        <ele>755</ele>
        <time>2024-07-23T10:36:47Z</time>
      </trkpt>
      <trkpt lat="45.90363" lon="2.98397">
        <ele>754.4</ele>
        <time>2024-07-23T10:36:49Z</time>
      </trkpt>
      <trkpt lat="45.90361" lon="2.98399">
        <ele>753.1</ele>
        <time>2024-07-23T10:36:51Z</time>
      </trkpt>
      <trkpt lat="45.90361" lon="2.98399">
        <ele>751.4</ele>
        <time>2024-07-23T10:36:52Z</time>
      </trkpt>
      <trkpt lat="45.9036" lon="2.98401">
        <ele>751</ele>
        <time>2024-07-23T10:36:58Z</time>
      </trkpt>
      <trkpt lat="45.90359" lon="2.98402">
        <ele>750.7</ele>
        <time>2024-07-23T10:37:00Z</time>
      </trkpt>
      <trkpt lat="45.90359" lon="2.98404">
        <ele>751.6</ele>
        <time>2024-07-23T10:37:02Z</time>
      </trkpt>
      <trkpt lat="45.90358" lon="2.98405">
        <ele>751.9</ele>
        <time>2024-07-23T10:37:04Z</time>
      </trkpt>
      <trkpt lat="45.90356" lon="2.98406">
        <ele>751.5</ele>
        <time>2024-07-23T10:37:06Z</time>
      </trkpt>
      <trkpt lat="45.90355" lon="2.98407">
        <ele>752</ele>
        <time>2024-07-23T10:37:08Z</time>
      </trkpt>
      <trkpt lat="45.90354" lon="2.98408">
        <ele>752.5</ele>
        <time>2024-07-23T10:37:10Z</time>
      </trkpt>
      <trkpt lat="45.90353" lon="2.98409">
        <ele>755.7</ele>
        <time>2024-07-23T10:37:12Z</time>
      </trkpt>
      <trkpt lat="45.90353" lon="2.98412">
        <ele>755.8</ele>
        <time>2024-07-23T10:37:14Z</time>
      </trkpt>
      <trkpt lat="45.90352" lon="2.98413">
        <ele>756.3</ele>
        <time>2024-07-23T10:37:16Z</time>
      </trkpt>
      <trkpt lat="45.90352" lon="2.98415">
        <ele>756.5</ele>
        <time>2024-07-23T10:37:18Z</time>
      </trkpt>
      <trkpt lat="45.90352" lon="2.98417">
        <ele>755</ele>
        <time>2024-07-23T10:37:20Z</time>
      </trkpt>
      <trkpt lat="45.90351" lon="2.9842">
        <ele>755.1</ele>
        <time>2024-07-23T10:37:23Z</time>
      </trkpt>
      <trkpt lat="45.9035" lon="2.98422">
        <ele>755.1</ele>
        <time>2024-07-23T10:37:25Z</time>
      </trkpt>
      <trkpt lat="45.9035" lon="2.98424">
        <ele>754.5</ele>
        <time>2024-07-23T10:37:27Z</time>
      </trkpt>
      <trkpt lat="45.9035" lon="2.98426">
        <ele>754.3</ele>
        <time>2024-07-23T10:37:29Z</time>
      </trkpt>
      <trkpt lat="45.90349" lon="2.98427">
        <ele>753.7</ele>
        <time>2024-07-23T10:37:31Z</time>
      </trkpt>
      <trkpt lat="45.90348" lon="2.98429">
        <ele>754.1</ele>
        <time>2024-07-23T10:37:33Z</time>
      </trkpt>
      <trkpt lat="45.90347" lon="2.9843">
        <ele>754.9</ele>
        <time>2024-07-23T10:37:35Z</time>
      </trkpt>
      <trkpt lat="45.90346" lon="2.9843">
        <ele>754</ele>
        <time>2024-07-23T10:37:37Z</time>
      </trkpt>
      <trkpt lat="45.90345" lon="2.98431">
        <ele>754</ele>
        <time>2024-07-23T10:37:44Z</time>
      </trkpt>
      <trkpt lat="45.90344" lon="2.98433">
        <ele>754.4</ele>
        <time>2024-07-23T10:37:46Z</time>
      </trkpt>
      <trkpt lat="45.90344" lon="2.98435">
        <ele>754.9</ele>
        <time>2024-07-23T10:37:48Z</time>
      </trkpt>
      <trkpt lat="45.90343" lon="2.98437">
        <ele>754.1</ele>
        <time>2024-07-23T10:37:50Z</time>
      </trkpt>
      <trkpt lat="45.90343" lon="2.98439">
        <ele>753.1</ele>
        <time>2024-07-23T10:37:52Z</time>
      </trkpt>
      <trkpt lat="45.90342" lon="2.98441">
        <ele>752.6</ele>
        <time>2024-07-23T10:37:53Z</time>
      </trkpt>
      <trkpt lat="45.90342" lon="2.98442">
        <ele>752.3</ele>
        <time>2024-07-23T10:37:54Z</time>
      </trkpt>
      <trkpt lat="45.90341" lon="2.98444">
        <ele>752.8</ele>
        <time>2024-07-23T10:37:56Z</time>
      </trkpt>
      <trkpt lat="45.9034" lon="2.98445">
        <ele>753.1</ele>
        <time>2024-07-23T10:37:58Z</time>
      </trkpt>
      <trkpt lat="45.9034" lon="2.98446">
        <ele>753.4</ele>
        <time>2024-07-23T10:38:00Z</time>
      </trkpt>
      <trkpt lat="45.9034" lon="2.98448">
        <ele>753.3</ele>
        <time>2024-07-23T10:38:02Z</time>
      </trkpt>
      <trkpt lat="45.9034" lon="2.9845">
        <ele>752.6</ele>
        <time>2024-07-23T10:38:04Z</time>
      </trkpt>
      <trkpt lat="45.90339" lon="2.98452">
        <ele>752.7</ele>
        <time>2024-07-23T10:38:06Z</time>
      </trkpt>
      <trkpt lat="45.90339" lon="2.98453">
        <ele>752</ele>
        <time>2024-07-23T10:38:08Z</time>
      </trkpt>
      <trkpt lat="45.90338" lon="2.98455">
        <ele>752.4</ele>
        <time>2024-07-23T10:38:10Z</time>
      </trkpt>
      <trkpt lat="45.90338" lon="2.98456">
        <ele>753.6</ele>
        <time>2024-07-23T10:38:12Z</time>
      </trkpt>
      <trkpt lat="45.90339" lon="2.98458">
        <ele>754.4</ele>
        <time>2024-07-23T10:38:15Z</time>
      </trkpt>
      <trkpt lat="45.90339" lon="2.98459">
        <ele>755.3</ele>
        <time>2024-07-23T10:38:17Z</time>
      </trkpt>
      <trkpt lat="45.90338" lon="2.98461">
        <ele>757.3</ele>
        <time>2024-07-23T10:38:19Z</time>
      </trkpt>
      <trkpt lat="45.90338" lon="2.98462">
        <ele>756.7</ele>
        <time>2024-07-23T10:38:20Z</time>
      </trkpt>
      <trkpt lat="45.90337" lon="2.98463">
        <ele>756.9</ele>
        <time>2024-07-23T10:38:21Z</time>
      </trkpt>
      <trkpt lat="45.90336" lon="2.98465">
        <ele>756.7</ele>
        <time>2024-07-23T10:38:22Z</time>
      </trkpt>
      <trkpt lat="45.90336" lon="2.98466">
        <ele>756</ele>
        <time>2024-07-23T10:38:23Z</time>
      </trkpt>
      <trkpt lat="45.90337" lon="2.98468">
        <ele>756.4</ele>
        <time>2024-07-23T10:38:25Z</time>
      </trkpt>
      <trkpt lat="45.90337" lon="2.9847">
        <ele>757.1</ele>
        <time>2024-07-23T10:38:27Z</time>
      </trkpt>
      <trkpt lat="45.90337" lon="2.98473">
        <ele>756.6</ele>
        <time>2024-07-23T10:38:30Z</time>
      </trkpt>
      <trkpt lat="45.90336" lon="2.98475">
        <ele>756.3</ele>
        <time>2024-07-23T10:38:32Z</time>
      </trkpt>
      <trkpt lat="45.90336" lon="2.98478">
        <ele>757</ele>
        <time>2024-07-23T10:38:34Z</time>
      </trkpt>
      <trkpt lat="45.90336" lon="2.9848">
        <ele>756.4</ele>
        <time>2024-07-23T10:38:36Z</time>
      </trkpt>
      <trkpt lat="45.90336" lon="2.98482">
        <ele>756.5</ele>
        <time>2024-07-23T10:38:38Z</time>
      </trkpt>
      <trkpt lat="45.90336" lon="2.98484">
        <ele>756.8</ele>
        <time>2024-07-23T10:38:40Z</time>
      </trkpt>
      <trkpt lat="45.90335" lon="2.98486">
        <ele>756.8</ele>
        <time>2024-07-23T10:38:42Z</time>
      </trkpt>
      <trkpt lat="45.90335" lon="2.98488">
        <ele>757.1</ele>
        <time>2024-07-23T10:38:44Z</time>
      </trkpt>
      <trkpt lat="45.90335" lon="2.9849">
        <ele>756.2</ele>
        <time>2024-07-23T10:38:46Z</time>
      </trkpt>
      <trkpt lat="45.90335" lon="2.98492">
        <ele>756.9</ele>
        <time>2024-07-23T10:38:48Z</time>
      </trkpt>
      <trkpt lat="45.90334" lon="2.98494">
        <ele>756.8</ele>
        <time>2024-07-23T10:38:50Z</time>
      </trkpt>
      <trkpt lat="45.90334" lon="2.98496">
        <ele>757.2</ele>
        <time>2024-07-23T10:38:52Z</time>
      </trkpt>
      <trkpt lat="45.90334" lon="2.98497">
        <ele>757.3</ele>
        <time>2024-07-23T10:38:54Z</time>
      </trkpt>
      <trkpt lat="45.90334" lon="2.98499">
        <ele>757.5</ele>
        <time>2024-07-23T10:38:56Z</time>
      </trkpt>
      <trkpt lat="45.90334" lon="2.98501">
        <ele>757.5</ele>
        <time>2024-07-23T10:38:58Z</time>
      </trkpt>
      <trkpt lat="45.90334" lon="2.98503">
        <ele>757.8</ele>
        <time>2024-07-23T10:39:00Z</time>
      </trkpt>
      <trkpt lat="45.90333" lon="2.98505">
        <ele>758</ele>
        <time>2024-07-23T10:39:02Z</time>
      </trkpt>
      <trkpt lat="45.90332" lon="2.98507">
        <ele>758.2</ele>
        <time>2024-07-23T10:39:04Z</time>
      </trkpt>
      <trkpt lat="45.90332" lon="2.98509">
        <ele>757.8</ele>
        <time>2024-07-23T10:39:06Z</time>
      </trkpt>
      <trkpt lat="45.90332" lon="2.9851">
        <ele>758.5</ele>
        <time>2024-07-23T10:39:08Z</time>
      </trkpt>
      <trkpt lat="45.90332" lon="2.98512">
        <ele>758.3</ele>
        <time>2024-07-23T10:39:10Z</time>
      </trkpt>
      <trkpt lat="45.90332" lon="2.98514">
        <ele>759.2</ele>
        <time>2024-07-23T10:39:12Z</time>
      </trkpt>
      <trkpt lat="45.90332" lon="2.98515">
        <ele>759.7</ele>
        <time>2024-07-23T10:39:14Z</time>
      </trkpt>
      <trkpt lat="45.90332" lon="2.98517">
        <ele>759.5</ele>
        <time>2024-07-23T10:39:16Z</time>
      </trkpt>
      <trkpt lat="45.90332" lon="2.98518">
        <ele>760</ele>
        <time>2024-07-23T10:39:31Z</time>
      </trkpt>
      <trkpt lat="45.90332" lon="2.9852">
        <ele>758.6</ele>
        <time>2024-07-23T10:39:39Z</time>
      </trkpt>
      <trkpt lat="45.90332" lon="2.98521">
        <ele>758.4</ele>
        <time>2024-07-23T10:40:02Z</time>
      </trkpt>
      <trkpt lat="45.90332" lon="2.98523">
        <ele>758.7</ele>
        <time>2024-07-23T10:40:04Z</time>
      </trkpt>
      <trkpt lat="45.90331" lon="2.98525">
        <ele>758.7</ele>
        <time>2024-07-23T10:40:05Z</time>
      </trkpt>
      <trkpt lat="45.90331" lon="2.98526">
        <ele>758.6</ele>
        <time>2024-07-23T10:40:06Z</time>
      </trkpt>
      <trkpt lat="45.90331" lon="2.98528">
        <ele>758.6</ele>
        <time>2024-07-23T10:40:07Z</time>
      </trkpt>
      <trkpt lat="45.90331" lon="2.98529">
        <ele>758.5</ele>
        <time>2024-07-23T10:40:08Z</time>
      </trkpt>
      <trkpt lat="45.90331" lon="2.9853">
        <ele>758.7</ele>
        <time>2024-07-23T10:40:09Z</time>
      </trkpt>
      <trkpt lat="45.9033" lon="2.98533">
        <ele>758.7</ele>
        <time>2024-07-23T10:40:11Z</time>
      </trkpt>
      <trkpt lat="45.9033" lon="2.98535">
        <ele>759.1</ele>
        <time>2024-07-23T10:40:13Z</time>
      </trkpt>
      <trkpt lat="45.90329" lon="2.98537">
        <ele>759.2</ele>
        <time>2024-07-23T10:40:15Z</time>
      </trkpt>
      <trkpt lat="45.90328" lon="2.98538">
        <ele>759.6</ele>
        <time>2024-07-23T10:40:17Z</time>
      </trkpt>
      <trkpt lat="45.90327" lon="2.98539">
        <ele>759.8</ele>
        <time>2024-07-23T10:40:19Z</time>
      </trkpt>
      <trkpt lat="45.90325" lon="2.98541">
        <ele>759.9</ele>
        <time>2024-07-23T10:40:21Z</time>
      </trkpt>
      <trkpt lat="45.90324" lon="2.98542">
        <ele>760.1</ele>
        <time>2024-07-23T10:40:23Z</time>
      </trkpt>
      <trkpt lat="45.90323" lon="2.98543">
        <ele>760.5</ele>
        <time>2024-07-23T10:40:25Z</time>
      </trkpt>
      <trkpt lat="45.90321" lon="2.98544">
        <ele>760.8</ele>
        <time>2024-07-23T10:40:28Z</time>
      </trkpt>
      <trkpt lat="45.90319" lon="2.98545">
        <ele>760.8</ele>
        <time>2024-07-23T10:40:30Z</time>
      </trkpt>
      <trkpt lat="45.90318" lon="2.98546">
        <ele>760.9</ele>
        <time>2024-07-23T10:40:32Z</time>
      </trkpt>
      <trkpt lat="45.90316" lon="2.98547">
        <ele>760.4</ele>
        <time>2024-07-23T10:40:34Z</time>
      </trkpt>
      <trkpt lat="45.90315" lon="2.98547">
        <ele>759.9</ele>
        <time>2024-07-23T10:40:36Z</time>
      </trkpt>
      <trkpt lat="45.90313" lon="2.98548">
        <ele>759.5</ele>
        <time>2024-07-23T10:40:38Z</time>
      </trkpt>
      <trkpt lat="45.90312" lon="2.98549">
        <ele>759.7</ele>
        <time>2024-07-23T10:40:40Z</time>
      </trkpt>
      <trkpt lat="45.9031" lon="2.9855">
        <ele>760.2</ele>
        <time>2024-07-23T10:40:42Z</time>
      </trkpt>
      <trkpt lat="45.90309" lon="2.98551">
        <ele>760.1</ele>
        <time>2024-07-23T10:40:44Z</time>
      </trkpt>
      <trkpt lat="45.90307" lon="2.98552">
        <ele>759.7</ele>
        <time>2024-07-23T10:40:46Z</time>
      </trkpt>
      <trkpt lat="45.90306" lon="2.98552">
        <ele>760</ele>
        <time>2024-07-23T10:40:48Z</time>
      </trkpt>
      <trkpt lat="45.90305" lon="2.98553">
        <ele>760.2</ele>
        <time>2024-07-23T10:40:50Z</time>
      </trkpt>
      <trkpt lat="45.90304" lon="2.98553">
        <ele>760</ele>
        <time>2024-07-23T10:40:51Z</time>
      </trkpt>
      <trkpt lat="45.90303" lon="2.98553">
        <ele>760.3</ele>
        <time>2024-07-23T10:40:52Z</time>
      </trkpt>
      <trkpt lat="45.90302" lon="2.98553">
        <ele>760.3</ele>
        <time>2024-07-23T10:40:53Z</time>
      </trkpt>
      <trkpt lat="45.90301" lon="2.98554">
        <ele>760.3</ele>
        <time>2024-07-23T10:40:54Z</time>
      </trkpt>
      <trkpt lat="45.903" lon="2.98554">
        <ele>760</ele>
        <time>2024-07-23T10:40:55Z</time>
      </trkpt>
      <trkpt lat="45.90299" lon="2.98555">
        <ele>759.7</ele>
        <time>2024-07-23T10:40:56Z</time>
      </trkpt>
      <trkpt lat="45.90298" lon="2.98555">
        <ele>759.7</ele>
        <time>2024-07-23T10:40:57Z</time>
      </trkpt>
      <trkpt lat="45.90297" lon="2.98556">
        <ele>759.8</ele>
        <time>2024-07-23T10:40:58Z</time>
      </trkpt>
      <trkpt lat="45.90296" lon="2.98557">
        <ele>759.4</ele>
        <time>2024-07-23T10:40:59Z</time>
      </trkpt>
      <trkpt lat="45.90295" lon="2.98557">
        <ele>758.4</ele>
        <time>2024-07-23T10:41:00Z</time>
      </trkpt>
      <trkpt lat="45.90295" lon="2.98558">
        <ele>758.6</ele>
        <time>2024-07-23T10:41:01Z</time>
      </trkpt>
      <trkpt lat="45.90294" lon="2.98559">
        <ele>758.6</ele>
        <time>2024-07-23T10:41:02Z</time>
      </trkpt>
      <trkpt lat="45.90293" lon="2.9856">
        <ele>759.3</ele>
        <time>2024-07-23T10:41:04Z</time>
      </trkpt>
      <trkpt lat="45.90291" lon="2.98561">
        <ele>758.4</ele>
        <time>2024-07-23T10:41:06Z</time>
      </trkpt>
      <trkpt lat="45.9029" lon="2.98562">
        <ele>758.3</ele>
        <time>2024-07-23T10:41:08Z</time>
      </trkpt>
      <trkpt lat="45.90289" lon="2.98563">
        <ele>758.5</ele>
        <time>2024-07-23T10:41:09Z</time>
      </trkpt>
      <trkpt lat="45.90288" lon="2.98564">
        <ele>757.5</ele>
        <time>2024-07-23T10:41:10Z</time>
      </trkpt>
      <trkpt lat="45.90287" lon="2.98564">
        <ele>758.8</ele>
        <time>2024-07-23T10:41:11Z</time>
      </trkpt>
      <trkpt lat="45.90286" lon="2.98566">
        <ele>759.2</ele>
        <time>2024-07-23T10:41:13Z</time>
      </trkpt>
      <trkpt lat="45.90286" lon="2.98567">
        <ele>759.4</ele>
        <time>2024-07-23T10:41:14Z</time>
      </trkpt>
      <trkpt lat="45.90286" lon="2.98569">
        <ele>759.4</ele>
        <time>2024-07-23T10:41:15Z</time>
      </trkpt>
      <trkpt lat="45.90286" lon="2.9857">
        <ele>759.5</ele>
        <time>2024-07-23T10:41:16Z</time>
      </trkpt>
      <trkpt lat="45.90285" lon="2.98571">
        <ele>763.7</ele>
        <time>2024-07-23T10:41:19Z</time>
      </trkpt>
      <trkpt lat="45.90284" lon="2.98572">
        <ele>763.7</ele>
        <time>2024-07-23T10:41:21Z</time>
      </trkpt>
      <trkpt lat="45.90283" lon="2.98574">
        <ele>764.6</ele>
        <time>2024-07-23T10:41:23Z</time>
      </trkpt>
      <trkpt lat="45.90282" lon="2.98575">
        <ele>764.7</ele>
        <time>2024-07-23T10:41:24Z</time>
      </trkpt>
      <trkpt lat="45.90282" lon="2.98577">
        <ele>766.7</ele>
        <time>2024-07-23T10:41:26Z</time>
      </trkpt>
      <trkpt lat="45.9028" lon="2.98578">
        <ele>766.5</ele>
        <time>2024-07-23T10:41:28Z</time>
      </trkpt>
      <trkpt lat="45.9028" lon="2.9858">
        <ele>766</ele>
        <time>2024-07-23T10:41:29Z</time>
      </trkpt>
      <trkpt lat="45.90279" lon="2.98583">
        <ele>767.7</ele>
        <time>2024-07-23T10:41:32Z</time>
      </trkpt>
      <trkpt lat="45.90278" lon="2.98584">
        <ele>766</ele>
        <time>2024-07-23T10:41:34Z</time>
      </trkpt>
      <trkpt lat="45.90276" lon="2.98584">
        <ele>765.6</ele>
        <time>2024-07-23T10:41:36Z</time>
      </trkpt>
      <trkpt lat="45.90275" lon="2.98584">
        <ele>764.6</ele>
        <time>2024-07-23T10:41:38Z</time>
      </trkpt>
      <trkpt lat="45.90274" lon="2.98583">
        <ele>764.7</ele>
        <time>2024-07-23T10:41:39Z</time>
      </trkpt>
      <trkpt lat="45.90273" lon="2.98582">
        <ele>764.5</ele>
        <time>2024-07-23T10:41:40Z</time>
      </trkpt>
      <trkpt lat="45.90272" lon="2.98581">
        <ele>766.6</ele>
        <time>2024-07-23T10:41:42Z</time>
      </trkpt>
      <trkpt lat="45.9027" lon="2.98579">
        <ele>765.9</ele>
        <time>2024-07-23T10:41:44Z</time>
      </trkpt>
      <trkpt lat="45.90269" lon="2.98579">
        <ele>766.5</ele>
        <time>2024-07-23T10:41:46Z</time>
      </trkpt>
      <trkpt lat="45.90267" lon="2.98578">
        <ele>766.5</ele>
        <time>2024-07-23T10:41:48Z</time>
      </trkpt>
      <trkpt lat="45.90265" lon="2.98577">
        <ele>765.8</ele>
        <time>2024-07-23T10:41:50Z</time>
      </trkpt>
      <trkpt lat="45.90265" lon="2.98577">
        <ele>765.9</ele>
        <time>2024-07-23T10:41:51Z</time>
      </trkpt>
      <trkpt lat="45.90263" lon="2.98576">
        <ele>764.3</ele>
        <time>2024-07-23T10:41:53Z</time>
      </trkpt>
      <trkpt lat="45.90262" lon="2.98576">
        <ele>764</ele>
        <time>2024-07-23T10:41:55Z</time>
      </trkpt>
      <trkpt lat="45.90261" lon="2.98574">
        <ele>763.3</ele>
        <time>2024-07-23T10:41:57Z</time>
      </trkpt>
      <trkpt lat="45.9026" lon="2.98574">
        <ele>761.9</ele>
        <time>2024-07-23T10:41:58Z</time>
      </trkpt>
      <trkpt lat="45.90259" lon="2.98572">
        <ele>768.1</ele>
        <time>2024-07-23T10:42:00Z</time>
      </trkpt>
      <trkpt lat="45.90258" lon="2.98572">
        <ele>768.9</ele>
        <time>2024-07-23T10:42:01Z</time>
      </trkpt>
      <trkpt lat="45.90258" lon="2.98571">
        <ele>768.5</ele>
        <time>2024-07-23T10:42:02Z</time>
      </trkpt>
      <trkpt lat="45.90257" lon="2.98569">
        <ele>769.5</ele>
        <time>2024-07-23T10:42:04Z</time>
      </trkpt>
      <trkpt lat="45.90255" lon="2.9857">
        <ele>767.6</ele>
        <time>2024-07-23T10:42:06Z</time>
      </trkpt>
      <trkpt lat="45.90254" lon="2.9857">
        <ele>767.6</ele>
        <time>2024-07-23T10:42:07Z</time>
      </trkpt>
      <trkpt lat="45.90254" lon="2.98572">
        <ele>766.6</ele>
        <time>2024-07-23T10:42:08Z</time>
      </trkpt>
      <trkpt lat="45.90253" lon="2.98573">
        <ele>766.8</ele>
        <time>2024-07-23T10:42:10Z</time>
      </trkpt>
      <trkpt lat="45.90251" lon="2.98575">
        <ele>763</ele>
        <time>2024-07-23T10:42:12Z</time>
      </trkpt>
      <trkpt lat="45.90251" lon="2.98577">
        <ele>762.7</ele>
        <time>2024-07-23T10:42:14Z</time>
      </trkpt>
      <trkpt lat="45.90251" lon="2.98578">
        <ele>764.6</ele>
        <time>2024-07-23T10:42:16Z</time>
      </trkpt>
      <trkpt lat="45.9025" lon="2.9858">
        <ele>767.1</ele>
        <time>2024-07-23T10:42:18Z</time>
      </trkpt>
      <trkpt lat="45.90249" lon="2.9858">
        <ele>768.7</ele>
        <time>2024-07-23T10:42:20Z</time>
      </trkpt>
      <trkpt lat="45.90249" lon="2.98579">
        <ele>772.1</ele>
        <time>2024-07-23T10:42:23Z</time>
      </trkpt>
      <trkpt lat="45.90248" lon="2.98578">
        <ele>772.4</ele>
        <time>2024-07-23T10:42:26Z</time>
      </trkpt>
      <trkpt lat="45.90248" lon="2.98579">
        <ele>770.4</ele>
        <time>2024-07-23T10:42:27Z</time>
      </trkpt>
      <trkpt lat="45.90248" lon="2.98581">
        <ele>770.6</ele>
        <time>2024-07-23T10:42:28Z</time>
      </trkpt>
      <trkpt lat="45.90247" lon="2.98583">
        <ele>769.9</ele>
        <time>2024-07-23T10:42:30Z</time>
      </trkpt>
      <trkpt lat="45.90247" lon="2.98585">
        <ele>770.2</ele>
        <time>2024-07-23T10:42:32Z</time>
      </trkpt>
      <trkpt lat="45.90246" lon="2.98586">
        <ele>769.5</ele>
        <time>2024-07-23T10:42:34Z</time>
      </trkpt>
      <trkpt lat="45.90245" lon="2.98588">
        <ele>769.7</ele>
        <time>2024-07-23T10:42:36Z</time>
      </trkpt>
      <trkpt lat="45.90244" lon="2.98589">
        <ele>769.2</ele>
        <time>2024-07-23T10:42:38Z</time>
      </trkpt>
      <trkpt lat="45.90243" lon="2.9859">
        <ele>769.3</ele>
        <time>2024-07-23T10:42:42Z</time>
      </trkpt>
      <trkpt lat="45.90243" lon="2.98591">
        <ele>769.6</ele>
        <time>2024-07-23T10:42:44Z</time>
      </trkpt>
      <trkpt lat="45.90242" lon="2.98592">
        <ele>768.7</ele>
        <time>2024-07-23T10:42:46Z</time>
      </trkpt>
      <trkpt lat="45.90241" lon="2.98592">
        <ele>768.8</ele>
        <time>2024-07-23T10:42:49Z</time>
      </trkpt>
      <trkpt lat="45.90241" lon="2.98594">
        <ele>767.7</ele>
        <time>2024-07-23T10:43:07Z</time>
      </trkpt>
      <trkpt lat="45.90242" lon="2.98594">
        <ele>767.8</ele>
        <time>2024-07-23T10:43:17Z</time>
      </trkpt>
    </trkseg>
  </trk>
</gpx>